<?xml version="1.0" encoding="UTF-8" standalone="no" ?>
<gpx xmlns="http://www.topografix.com/GPX/1/1" xmlns:xsi="http://www.w3.org/2001/XMLSchema-instance" xsi:schemaLocation="http://www.topografix.com/GPX/1/1 http://www.topografix.com/GPX/1/1/gpx.xsd" version="1.1" creator="VisuGPX - https://www.visugpx.com">
  <metadata>
    <name>2022-08-16 09:51:34 Jour</name>
  </metadata>
  <trk>
    <name><![CDATA[2022-08-16 09:51:34 Jour]]></name>
    <trkseg>
      <trkpt lat="44.8455" lon="3.00026">
        <ele>925.37</ele>
        <time>2022-08-16T07:51:34Z</time>
      </trkpt>
      <trkpt lat="44.84575" lon="3.00041">
        <ele>930.26</ele>
        <time>2022-08-16T07:51:49Z</time>
      </trkpt>
      <trkpt lat="44.84573" lon="3.00081">
        <ele>930.95</ele>
        <time>2022-08-16T07:52:04Z</time>
      </trkpt>
      <trkpt lat="44.8457" lon="3.00084">
        <ele>930.95</ele>
        <time>2022-08-16T07:52:05Z</time>
      </trkpt>
      <trkpt lat="44.84546" lon="3.00098">
        <ele>932.56</ele>
        <time>2022-08-16T07:52:12Z</time>
      </trkpt>
      <trkpt lat="44.84528" lon="3.00107">
        <ele>933.95</ele>
        <time>2022-08-16T07:52:17Z</time>
      </trkpt>
      <trkpt lat="44.84517" lon="3.00111">
        <ele>933.92</ele>
        <time>2022-08-16T07:52:20Z</time>
      </trkpt>
      <trkpt lat="44.84514" lon="3.00111">
        <ele>933.93</ele>
        <time>2022-08-16T07:52:21Z</time>
      </trkpt>
      <trkpt lat="44.84511" lon="3.00109">
        <ele>933.93</ele>
        <time>2022-08-16T07:52:22Z</time>
      </trkpt>
      <trkpt lat="44.84508" lon="3.00101">
        <ele>933.94</ele>
        <time>2022-08-16T07:52:24Z</time>
      </trkpt>
      <trkpt lat="44.84504" lon="3.00088">
        <ele>933.92</ele>
        <time>2022-08-16T07:52:27Z</time>
      </trkpt>
      <trkpt lat="44.84501" lon="3.00086">
        <ele>933.97</ele>
        <time>2022-08-16T07:52:28Z</time>
      </trkpt>
      <trkpt lat="44.84498" lon="3.00086">
        <ele>933.89</ele>
        <time>2022-08-16T07:52:29Z</time>
      </trkpt>
      <trkpt lat="44.84495" lon="3.00087">
        <ele>933.8</ele>
        <time>2022-08-16T07:52:30Z</time>
      </trkpt>
      <trkpt lat="44.84492" lon="3.00089">
        <ele>933.79</ele>
        <time>2022-08-16T07:52:31Z</time>
      </trkpt>
      <trkpt lat="44.84489" lon="3.00092">
        <ele>933.78</ele>
        <time>2022-08-16T07:52:32Z</time>
      </trkpt>
      <trkpt lat="44.84474" lon="3.00099">
        <ele>931.26</ele>
        <time>2022-08-16T07:52:36Z</time>
      </trkpt>
      <trkpt lat="44.84435" lon="3.00123">
        <ele>931.14</ele>
        <time>2022-08-16T07:52:47Z</time>
      </trkpt>
      <trkpt lat="44.84431" lon="3.00123">
        <ele>931.08</ele>
        <time>2022-08-16T07:52:48Z</time>
      </trkpt>
      <trkpt lat="44.84427" lon="3.0012">
        <ele>931.06</ele>
        <time>2022-08-16T07:52:49Z</time>
      </trkpt>
      <trkpt lat="44.84423" lon="3.00116">
        <ele>930.24</ele>
        <time>2022-08-16T07:52:50Z</time>
      </trkpt>
      <trkpt lat="44.84419" lon="3.00111">
        <ele>930.23</ele>
        <time>2022-08-16T07:52:51Z</time>
      </trkpt>
      <trkpt lat="44.84407" lon="3.00097">
        <ele>928.15</ele>
        <time>2022-08-16T07:52:54Z</time>
      </trkpt>
      <trkpt lat="44.84398" lon="3.00087">
        <ele>926.85</ele>
        <time>2022-08-16T07:52:56Z</time>
      </trkpt>
      <trkpt lat="44.84378" lon="3.00064">
        <ele>923.44</ele>
        <time>2022-08-16T07:53:00Z</time>
      </trkpt>
      <trkpt lat="44.84366" lon="3.00051">
        <ele>921.94</ele>
        <time>2022-08-16T07:53:02Z</time>
      </trkpt>
      <trkpt lat="44.84341" lon="3.00025">
        <ele>919.1</ele>
        <time>2022-08-16T07:53:06Z</time>
      </trkpt>
      <trkpt lat="44.84315" lon="2.99994">
        <ele>915.36</ele>
        <time>2022-08-16T07:53:10Z</time>
      </trkpt>
      <trkpt lat="44.84309" lon="2.99986">
        <ele>915.37</ele>
        <time>2022-08-16T07:53:11Z</time>
      </trkpt>
      <trkpt lat="44.84292" lon="2.99967">
        <ele>912.67</ele>
        <time>2022-08-16T07:53:14Z</time>
      </trkpt>
      <trkpt lat="44.84274" lon="2.99937">
        <ele>912.13</ele>
        <time>2022-08-16T07:53:21Z</time>
      </trkpt>
      <trkpt lat="44.84274" lon="2.99932">
        <ele>912.09</ele>
        <time>2022-08-16T07:53:22Z</time>
      </trkpt>
      <trkpt lat="44.84278" lon="2.9992">
        <ele>912.12</ele>
        <time>2022-08-16T07:53:24Z</time>
      </trkpt>
      <trkpt lat="44.84277" lon="2.99914">
        <ele>912.12</ele>
        <time>2022-08-16T07:53:25Z</time>
      </trkpt>
      <trkpt lat="44.84275" lon="2.99907">
        <ele>912.15</ele>
        <time>2022-08-16T07:53:26Z</time>
      </trkpt>
      <trkpt lat="44.84271" lon="2.99902">
        <ele>912.16</ele>
        <time>2022-08-16T07:53:27Z</time>
      </trkpt>
      <trkpt lat="44.84267" lon="2.99898">
        <ele>914.48</ele>
        <time>2022-08-16T07:53:28Z</time>
      </trkpt>
      <trkpt lat="44.84262" lon="2.99897">
        <ele>914.5</ele>
        <time>2022-08-16T07:53:29Z</time>
      </trkpt>
      <trkpt lat="44.84257" lon="2.99897">
        <ele>914.51</ele>
        <time>2022-08-16T07:53:30Z</time>
      </trkpt>
      <trkpt lat="44.8425" lon="2.99897">
        <ele>915.69</ele>
        <time>2022-08-16T07:53:31Z</time>
      </trkpt>
      <trkpt lat="44.84237" lon="2.99896">
        <ele>916.76</ele>
        <time>2022-08-16T07:53:33Z</time>
      </trkpt>
      <trkpt lat="44.84231" lon="2.99894">
        <ele>916.8</ele>
        <time>2022-08-16T07:53:34Z</time>
      </trkpt>
      <trkpt lat="44.84224" lon="2.9989">
        <ele>916.79</ele>
        <time>2022-08-16T07:53:35Z</time>
      </trkpt>
      <trkpt lat="44.84218" lon="2.99884">
        <ele>916.8</ele>
        <time>2022-08-16T07:53:36Z</time>
      </trkpt>
      <trkpt lat="44.84213" lon="2.99877">
        <ele>917.61</ele>
        <time>2022-08-16T07:53:37Z</time>
      </trkpt>
      <trkpt lat="44.8421" lon="2.99868">
        <ele>917.73</ele>
        <time>2022-08-16T07:53:38Z</time>
      </trkpt>
      <trkpt lat="44.84206" lon="2.99858">
        <ele>918.71</ele>
        <time>2022-08-16T07:53:39Z</time>
      </trkpt>
      <trkpt lat="44.84194" lon="2.99815">
        <ele>920.73</ele>
        <time>2022-08-16T07:53:43Z</time>
      </trkpt>
      <trkpt lat="44.84187" lon="2.99783">
        <ele>923.4</ele>
        <time>2022-08-16T07:53:46Z</time>
      </trkpt>
      <trkpt lat="44.84181" lon="2.99748">
        <ele>925.65</ele>
        <time>2022-08-16T07:53:49Z</time>
      </trkpt>
      <trkpt lat="44.84175" lon="2.99711">
        <ele>927.95</ele>
        <time>2022-08-16T07:53:52Z</time>
      </trkpt>
      <trkpt lat="44.84171" lon="2.99686">
        <ele>929.93</ele>
        <time>2022-08-16T07:53:54Z</time>
      </trkpt>
      <trkpt lat="44.84165" lon="2.99661">
        <ele>932.32</ele>
        <time>2022-08-16T07:53:56Z</time>
      </trkpt>
      <trkpt lat="44.84161" lon="2.99649">
        <ele>933.36</ele>
        <time>2022-08-16T07:53:57Z</time>
      </trkpt>
      <trkpt lat="44.84156" lon="2.99638">
        <ele>933.43</ele>
        <time>2022-08-16T07:53:58Z</time>
      </trkpt>
      <trkpt lat="44.84151" lon="2.99627">
        <ele>934.6</ele>
        <time>2022-08-16T07:53:59Z</time>
      </trkpt>
      <trkpt lat="44.84144" lon="2.99618">
        <ele>934.55</ele>
        <time>2022-08-16T07:54:00Z</time>
      </trkpt>
      <trkpt lat="44.84137" lon="2.99608">
        <ele>935.49</ele>
        <time>2022-08-16T07:54:01Z</time>
      </trkpt>
      <trkpt lat="44.84129" lon="2.996">
        <ele>935.49</ele>
        <time>2022-08-16T07:54:02Z</time>
      </trkpt>
      <trkpt lat="44.8412" lon="2.99591">
        <ele>936.96</ele>
        <time>2022-08-16T07:54:03Z</time>
      </trkpt>
      <trkpt lat="44.84103" lon="2.99574">
        <ele>937.96</ele>
        <time>2022-08-16T07:54:05Z</time>
      </trkpt>
      <trkpt lat="44.84081" lon="2.99541">
        <ele>940.81</ele>
        <time>2022-08-16T07:54:08Z</time>
      </trkpt>
      <trkpt lat="44.84075" lon="2.99529">
        <ele>941.97</ele>
        <time>2022-08-16T07:54:09Z</time>
      </trkpt>
      <trkpt lat="44.8407" lon="2.99516">
        <ele>943.12</ele>
        <time>2022-08-16T07:54:10Z</time>
      </trkpt>
      <trkpt lat="44.84056" lon="2.99478">
        <ele>945.31</ele>
        <time>2022-08-16T07:54:13Z</time>
      </trkpt>
      <trkpt lat="44.84046" lon="2.99451">
        <ele>947.33</ele>
        <time>2022-08-16T07:54:15Z</time>
      </trkpt>
      <trkpt lat="44.84032" lon="2.99412">
        <ele>949.63</ele>
        <time>2022-08-16T07:54:18Z</time>
      </trkpt>
      <trkpt lat="44.84022" lon="2.99385">
        <ele>953.08</ele>
        <time>2022-08-16T07:54:20Z</time>
      </trkpt>
      <trkpt lat="44.84012" lon="2.99357">
        <ele>954.13</ele>
        <time>2022-08-16T07:54:22Z</time>
      </trkpt>
      <trkpt lat="44.83996" lon="2.99315">
        <ele>958.07</ele>
        <time>2022-08-16T07:54:25Z</time>
      </trkpt>
      <trkpt lat="44.83978" lon="2.99274">
        <ele>960.08</ele>
        <time>2022-08-16T07:54:28Z</time>
      </trkpt>
      <trkpt lat="44.83958" lon="2.99235">
        <ele>964.31</ele>
        <time>2022-08-16T07:54:31Z</time>
      </trkpt>
      <trkpt lat="44.83941" lon="2.99212">
        <ele>965.51</ele>
        <time>2022-08-16T07:54:33Z</time>
      </trkpt>
      <trkpt lat="44.83932" lon="2.99202">
        <ele>968</ele>
        <time>2022-08-16T07:54:34Z</time>
      </trkpt>
      <trkpt lat="44.83922" lon="2.99194">
        <ele>967.99</ele>
        <time>2022-08-16T07:54:35Z</time>
      </trkpt>
      <trkpt lat="44.83911" lon="2.99187">
        <ele>969.1</ele>
        <time>2022-08-16T07:54:36Z</time>
      </trkpt>
      <trkpt lat="44.839" lon="2.99181">
        <ele>970.85</ele>
        <time>2022-08-16T07:54:37Z</time>
      </trkpt>
      <trkpt lat="44.83888" lon="2.99176">
        <ele>971.89</ele>
        <time>2022-08-16T07:54:38Z</time>
      </trkpt>
      <trkpt lat="44.83877" lon="2.99173">
        <ele>971.85</ele>
        <time>2022-08-16T07:54:39Z</time>
      </trkpt>
      <trkpt lat="44.83865" lon="2.99171">
        <ele>973.19</ele>
        <time>2022-08-16T07:54:40Z</time>
      </trkpt>
      <trkpt lat="44.83853" lon="2.9917">
        <ele>974.26</ele>
        <time>2022-08-16T07:54:41Z</time>
      </trkpt>
      <trkpt lat="44.83842" lon="2.99171">
        <ele>975.57</ele>
        <time>2022-08-16T07:54:42Z</time>
      </trkpt>
      <trkpt lat="44.8383" lon="2.99173">
        <ele>975.67</ele>
        <time>2022-08-16T07:54:43Z</time>
      </trkpt>
      <trkpt lat="44.83819" lon="2.99176">
        <ele>977.33</ele>
        <time>2022-08-16T07:54:44Z</time>
      </trkpt>
      <trkpt lat="44.83807" lon="2.99181">
        <ele>978.06</ele>
        <time>2022-08-16T07:54:45Z</time>
      </trkpt>
      <trkpt lat="44.83796" lon="2.99186">
        <ele>979.79</ele>
        <time>2022-08-16T07:54:46Z</time>
      </trkpt>
      <trkpt lat="44.83774" lon="2.99198">
        <ele>980.61</ele>
        <time>2022-08-16T07:54:48Z</time>
      </trkpt>
      <trkpt lat="44.83741" lon="2.99218">
        <ele>984.49</ele>
        <time>2022-08-16T07:54:51Z</time>
      </trkpt>
      <trkpt lat="44.8373" lon="2.99224">
        <ele>984.57</ele>
        <time>2022-08-16T07:54:52Z</time>
      </trkpt>
      <trkpt lat="44.83706" lon="2.99235">
        <ele>987.82</ele>
        <time>2022-08-16T07:54:54Z</time>
      </trkpt>
      <trkpt lat="44.8367" lon="2.99244">
        <ele>991.09</ele>
        <time>2022-08-16T07:54:57Z</time>
      </trkpt>
      <trkpt lat="44.83633" lon="2.99243">
        <ele>994.4</ele>
        <time>2022-08-16T07:55:00Z</time>
      </trkpt>
      <trkpt lat="44.8362" lon="2.9924">
        <ele>994.39</ele>
        <time>2022-08-16T07:55:01Z</time>
      </trkpt>
      <trkpt lat="44.83583" lon="2.99222">
        <ele>996.42</ele>
        <time>2022-08-16T07:55:04Z</time>
      </trkpt>
      <trkpt lat="44.83524" lon="2.99173">
        <ele>998.93</ele>
        <time>2022-08-16T07:55:09Z</time>
      </trkpt>
      <trkpt lat="44.83473" lon="2.99121">
        <ele>998.75</ele>
        <time>2022-08-16T07:55:15Z</time>
      </trkpt>
      <trkpt lat="44.8347" lon="2.99113">
        <ele>998.68</ele>
        <time>2022-08-16T07:55:16Z</time>
      </trkpt>
      <trkpt lat="44.83471" lon="2.99104">
        <ele>998.63</ele>
        <time>2022-08-16T07:55:17Z</time>
      </trkpt>
      <trkpt lat="44.83475" lon="2.99097">
        <ele>998.59</ele>
        <time>2022-08-16T07:55:18Z</time>
      </trkpt>
      <trkpt lat="44.83482" lon="2.9909">
        <ele>998.5</ele>
        <time>2022-08-16T07:55:19Z</time>
      </trkpt>
      <trkpt lat="44.83489" lon="2.99083">
        <ele>998.5</ele>
        <time>2022-08-16T07:55:20Z</time>
      </trkpt>
      <trkpt lat="44.83556" lon="2.99008">
        <ele>999.24</ele>
        <time>2022-08-16T07:55:28Z</time>
      </trkpt>
      <trkpt lat="44.83603" lon="2.98924">
        <ele>999.18</ele>
        <time>2022-08-16T07:55:37Z</time>
      </trkpt>
      <trkpt lat="44.83638" lon="2.98859">
        <ele>996.83</ele>
        <time>2022-08-16T07:55:44Z</time>
      </trkpt>
      <trkpt lat="44.83688" lon="2.98776">
        <ele>995.97</ele>
        <time>2022-08-16T07:55:53Z</time>
      </trkpt>
      <trkpt lat="44.83713" lon="2.9874">
        <ele>994.8</ele>
        <time>2022-08-16T07:55:56Z</time>
      </trkpt>
      <trkpt lat="44.83723" lon="2.9873">
        <ele>994.8</ele>
        <time>2022-08-16T07:55:57Z</time>
      </trkpt>
      <trkpt lat="44.83734" lon="2.98721">
        <ele>993.55</ele>
        <time>2022-08-16T07:55:58Z</time>
      </trkpt>
      <trkpt lat="44.83745" lon="2.98715">
        <ele>993.52</ele>
        <time>2022-08-16T07:55:59Z</time>
      </trkpt>
      <trkpt lat="44.83757" lon="2.98709">
        <ele>993.54</ele>
        <time>2022-08-16T07:56:00Z</time>
      </trkpt>
      <trkpt lat="44.83769" lon="2.98704">
        <ele>992.4</ele>
        <time>2022-08-16T07:56:01Z</time>
      </trkpt>
      <trkpt lat="44.83792" lon="2.98695">
        <ele>991.42</ele>
        <time>2022-08-16T07:56:03Z</time>
      </trkpt>
      <trkpt lat="44.83867" lon="2.98664">
        <ele>990.7</ele>
        <time>2022-08-16T07:56:10Z</time>
      </trkpt>
      <trkpt lat="44.83876" lon="2.98656">
        <ele>990.69</ele>
        <time>2022-08-16T07:56:11Z</time>
      </trkpt>
      <trkpt lat="44.83963" lon="2.98579">
        <ele>993.15</ele>
        <time>2022-08-16T07:56:21Z</time>
      </trkpt>
      <trkpt lat="44.8397" lon="2.98569">
        <ele>993.16</ele>
        <time>2022-08-16T07:56:22Z</time>
      </trkpt>
      <trkpt lat="44.84066" lon="2.98414">
        <ele>996.18</ele>
        <time>2022-08-16T07:56:36Z</time>
      </trkpt>
      <trkpt lat="44.84071" lon="2.98402">
        <ele>997.01</ele>
        <time>2022-08-16T07:56:37Z</time>
      </trkpt>
      <trkpt lat="44.84075" lon="2.98389">
        <ele>997.03</ele>
        <time>2022-08-16T07:56:38Z</time>
      </trkpt>
      <trkpt lat="44.84077" lon="2.98375">
        <ele>997.8</ele>
        <time>2022-08-16T07:56:39Z</time>
      </trkpt>
      <trkpt lat="44.84085" lon="2.98305">
        <ele>999.25</ele>
        <time>2022-08-16T07:56:44Z</time>
      </trkpt>
      <trkpt lat="44.84086" lon="2.98262">
        <ele>1000.65</ele>
        <time>2022-08-16T07:56:47Z</time>
      </trkpt>
      <trkpt lat="44.84085" lon="2.98248">
        <ele>1000.63</ele>
        <time>2022-08-16T07:56:48Z</time>
      </trkpt>
      <trkpt lat="44.84083" lon="2.98234">
        <ele>1000.65</ele>
        <time>2022-08-16T07:56:49Z</time>
      </trkpt>
      <trkpt lat="44.8408" lon="2.9822">
        <ele>1001.96</ele>
        <time>2022-08-16T07:56:50Z</time>
      </trkpt>
      <trkpt lat="44.84075" lon="2.98207">
        <ele>1001.84</ele>
        <time>2022-08-16T07:56:51Z</time>
      </trkpt>
      <trkpt lat="44.8407" lon="2.98194">
        <ele>1002.88</ele>
        <time>2022-08-16T07:56:52Z</time>
      </trkpt>
      <trkpt lat="44.84065" lon="2.98181">
        <ele>1002.92</ele>
        <time>2022-08-16T07:56:53Z</time>
      </trkpt>
      <trkpt lat="44.84058" lon="2.98169">
        <ele>1002.87</ele>
        <time>2022-08-16T07:56:54Z</time>
      </trkpt>
      <trkpt lat="44.84046" lon="2.98144">
        <ele>1004.16</ele>
        <time>2022-08-16T07:56:56Z</time>
      </trkpt>
      <trkpt lat="44.84022" lon="2.98059">
        <ele>1006.17</ele>
        <time>2022-08-16T07:57:02Z</time>
      </trkpt>
      <trkpt lat="44.8402" lon="2.98044">
        <ele>1005.87</ele>
        <time>2022-08-16T07:57:03Z</time>
      </trkpt>
      <trkpt lat="44.8402" lon="2.98029">
        <ele>1005.86</ele>
        <time>2022-08-16T07:57:04Z</time>
      </trkpt>
      <trkpt lat="44.8402" lon="2.98015">
        <ele>1005.86</ele>
        <time>2022-08-16T07:57:05Z</time>
      </trkpt>
      <trkpt lat="44.84022" lon="2.98002">
        <ele>1005.86</ele>
        <time>2022-08-16T07:57:06Z</time>
      </trkpt>
      <trkpt lat="44.84026" lon="2.97989">
        <ele>1006.76</ele>
        <time>2022-08-16T07:57:07Z</time>
      </trkpt>
      <trkpt lat="44.84031" lon="2.97978">
        <ele>1006.79</ele>
        <time>2022-08-16T07:57:08Z</time>
      </trkpt>
      <trkpt lat="44.84038" lon="2.97968">
        <ele>1006.76</ele>
        <time>2022-08-16T07:57:09Z</time>
      </trkpt>
      <trkpt lat="44.84046" lon="2.97958">
        <ele>1006.77</ele>
        <time>2022-08-16T07:57:10Z</time>
      </trkpt>
      <trkpt lat="44.84054" lon="2.97949">
        <ele>1006.77</ele>
        <time>2022-08-16T07:57:11Z</time>
      </trkpt>
      <trkpt lat="44.84092" lon="2.97914">
        <ele>1007.6</ele>
        <time>2022-08-16T07:57:15Z</time>
      </trkpt>
      <trkpt lat="44.84102" lon="2.97908">
        <ele>1007.62</ele>
        <time>2022-08-16T07:57:16Z</time>
      </trkpt>
      <trkpt lat="44.84283" lon="2.9783">
        <ele>1009.8</ele>
        <time>2022-08-16T07:57:32Z</time>
      </trkpt>
      <trkpt lat="44.844" lon="2.97799">
        <ele>1009.83</ele>
        <time>2022-08-16T07:57:42Z</time>
      </trkpt>
      <trkpt lat="44.84421" lon="2.9779">
        <ele>1007.5</ele>
        <time>2022-08-16T07:57:44Z</time>
      </trkpt>
      <trkpt lat="44.84529" lon="2.97777">
        <ele>1004.67</ele>
        <time>2022-08-16T07:57:54Z</time>
      </trkpt>
      <trkpt lat="44.8454" lon="2.97776">
        <ele>1004.65</ele>
        <time>2022-08-16T07:57:55Z</time>
      </trkpt>
      <trkpt lat="44.84563" lon="2.97771">
        <ele>1003.64</ele>
        <time>2022-08-16T07:57:57Z</time>
      </trkpt>
      <trkpt lat="44.84574" lon="2.97767">
        <ele>1002.29</ele>
        <time>2022-08-16T07:57:58Z</time>
      </trkpt>
      <trkpt lat="44.84584" lon="2.97761">
        <ele>1002.32</ele>
        <time>2022-08-16T07:57:59Z</time>
      </trkpt>
      <trkpt lat="44.84593" lon="2.97755">
        <ele>1000.91</ele>
        <time>2022-08-16T07:58:00Z</time>
      </trkpt>
      <trkpt lat="44.84602" lon="2.97747">
        <ele>999.95</ele>
        <time>2022-08-16T07:58:01Z</time>
      </trkpt>
      <trkpt lat="44.8461" lon="2.97739">
        <ele>999.94</ele>
        <time>2022-08-16T07:58:02Z</time>
      </trkpt>
      <trkpt lat="44.84616" lon="2.9773">
        <ele>998.42</ele>
        <time>2022-08-16T07:58:03Z</time>
      </trkpt>
      <trkpt lat="44.84621" lon="2.97719">
        <ele>997.57</ele>
        <time>2022-08-16T07:58:04Z</time>
      </trkpt>
      <trkpt lat="44.84626" lon="2.97707">
        <ele>997.46</ele>
        <time>2022-08-16T07:58:05Z</time>
      </trkpt>
      <trkpt lat="44.8463" lon="2.97695">
        <ele>996.69</ele>
        <time>2022-08-16T07:58:06Z</time>
      </trkpt>
      <trkpt lat="44.84633" lon="2.97681">
        <ele>996.6</ele>
        <time>2022-08-16T07:58:07Z</time>
      </trkpt>
      <trkpt lat="44.8464" lon="2.97652">
        <ele>994.79</ele>
        <time>2022-08-16T07:58:09Z</time>
      </trkpt>
      <trkpt lat="44.84648" lon="2.9759">
        <ele>994.76</ele>
        <time>2022-08-16T07:58:13Z</time>
      </trkpt>
      <trkpt lat="44.84652" lon="2.97575">
        <ele>994.7</ele>
        <time>2022-08-16T07:58:14Z</time>
      </trkpt>
      <trkpt lat="44.8467" lon="2.97514">
        <ele>992.63</ele>
        <time>2022-08-16T07:58:18Z</time>
      </trkpt>
      <trkpt lat="44.84685" lon="2.97467">
        <ele>991.32</ele>
        <time>2022-08-16T07:58:21Z</time>
      </trkpt>
      <trkpt lat="44.84695" lon="2.97421">
        <ele>990.49</ele>
        <time>2022-08-16T07:58:24Z</time>
      </trkpt>
      <trkpt lat="44.84696" lon="2.97405">
        <ele>989.68</ele>
        <time>2022-08-16T07:58:25Z</time>
      </trkpt>
      <trkpt lat="44.84696" lon="2.9739">
        <ele>989.68</ele>
        <time>2022-08-16T07:58:26Z</time>
      </trkpt>
      <trkpt lat="44.84688" lon="2.97193">
        <ele>987.49</ele>
        <time>2022-08-16T07:58:39Z</time>
      </trkpt>
      <trkpt lat="44.84683" lon="2.97133">
        <ele>987.6</ele>
        <time>2022-08-16T07:58:43Z</time>
      </trkpt>
      <trkpt lat="44.84683" lon="2.97118">
        <ele>987.6</ele>
        <time>2022-08-16T07:58:44Z</time>
      </trkpt>
      <trkpt lat="44.84685" lon="2.97103">
        <ele>987.59</ele>
        <time>2022-08-16T07:58:45Z</time>
      </trkpt>
      <trkpt lat="44.84714" lon="2.96947">
        <ele>987.55</ele>
        <time>2022-08-16T07:58:55Z</time>
      </trkpt>
      <trkpt lat="44.84731" lon="2.96764">
        <ele>985</ele>
        <time>2022-08-16T07:59:06Z</time>
      </trkpt>
      <trkpt lat="44.84734" lon="2.96748">
        <ele>985.08</ele>
        <time>2022-08-16T07:59:07Z</time>
      </trkpt>
      <trkpt lat="44.84739" lon="2.96732">
        <ele>985.08</ele>
        <time>2022-08-16T07:59:08Z</time>
      </trkpt>
      <trkpt lat="44.8475" lon="2.96701">
        <ele>983.34</ele>
        <time>2022-08-16T07:59:10Z</time>
      </trkpt>
      <trkpt lat="44.8478" lon="2.96623">
        <ele>980.26</ele>
        <time>2022-08-16T07:59:15Z</time>
      </trkpt>
      <trkpt lat="44.84786" lon="2.96607">
        <ele>980.21</ele>
        <time>2022-08-16T07:59:16Z</time>
      </trkpt>
      <trkpt lat="44.84805" lon="2.9656">
        <ele>977.86</ele>
        <time>2022-08-16T07:59:19Z</time>
      </trkpt>
      <trkpt lat="44.84813" lon="2.96545">
        <ele>976.51</ele>
        <time>2022-08-16T07:59:20Z</time>
      </trkpt>
      <trkpt lat="44.84821" lon="2.96531">
        <ele>976.44</ele>
        <time>2022-08-16T07:59:21Z</time>
      </trkpt>
      <trkpt lat="44.84848" lon="2.96491">
        <ele>972.49</ele>
        <time>2022-08-16T07:59:24Z</time>
      </trkpt>
      <trkpt lat="44.84856" lon="2.96479">
        <ele>972.44</ele>
        <time>2022-08-16T07:59:25Z</time>
      </trkpt>
      <trkpt lat="44.8487" lon="2.96454">
        <ele>969.96</ele>
        <time>2022-08-16T07:59:27Z</time>
      </trkpt>
      <trkpt lat="44.84872" lon="2.9644">
        <ele>968.83</ele>
        <time>2022-08-16T07:59:28Z</time>
      </trkpt>
      <trkpt lat="44.84872" lon="2.96426">
        <ele>967.61</ele>
        <time>2022-08-16T07:59:29Z</time>
      </trkpt>
      <trkpt lat="44.8487" lon="2.96412">
        <ele>966.15</ele>
        <time>2022-08-16T07:59:30Z</time>
      </trkpt>
      <trkpt lat="44.84867" lon="2.96399">
        <ele>965.07</ele>
        <time>2022-08-16T07:59:31Z</time>
      </trkpt>
      <trkpt lat="44.84864" lon="2.96385">
        <ele>965.07</ele>
        <time>2022-08-16T07:59:32Z</time>
      </trkpt>
      <trkpt lat="44.84855" lon="2.96346">
        <ele>962.04</ele>
        <time>2022-08-16T07:59:35Z</time>
      </trkpt>
      <trkpt lat="44.84849" lon="2.9632">
        <ele>961.2</ele>
        <time>2022-08-16T07:59:37Z</time>
      </trkpt>
      <trkpt lat="44.84845" lon="2.96295">
        <ele>959.42</ele>
        <time>2022-08-16T07:59:39Z</time>
      </trkpt>
      <trkpt lat="44.84842" lon="2.9627">
        <ele>958.06</ele>
        <time>2022-08-16T07:59:41Z</time>
      </trkpt>
      <trkpt lat="44.84842" lon="2.96258">
        <ele>956.77</ele>
        <time>2022-08-16T07:59:42Z</time>
      </trkpt>
      <trkpt lat="44.84845" lon="2.96246">
        <ele>956.69</ele>
        <time>2022-08-16T07:59:43Z</time>
      </trkpt>
      <trkpt lat="44.8485" lon="2.96235">
        <ele>955.38</ele>
        <time>2022-08-16T07:59:44Z</time>
      </trkpt>
      <trkpt lat="44.84856" lon="2.96226">
        <ele>954.59</ele>
        <time>2022-08-16T07:59:45Z</time>
      </trkpt>
      <trkpt lat="44.84862" lon="2.96217">
        <ele>953.4</ele>
        <time>2022-08-16T07:59:46Z</time>
      </trkpt>
      <trkpt lat="44.84869" lon="2.9621">
        <ele>953.41</ele>
        <time>2022-08-16T07:59:47Z</time>
      </trkpt>
      <trkpt lat="44.84892" lon="2.96187">
        <ele>951.86</ele>
        <time>2022-08-16T07:59:50Z</time>
      </trkpt>
      <trkpt lat="44.84908" lon="2.96174">
        <ele>950.34</ele>
        <time>2022-08-16T07:59:52Z</time>
      </trkpt>
      <trkpt lat="44.84916" lon="2.96169">
        <ele>949.53</ele>
        <time>2022-08-16T07:59:53Z</time>
      </trkpt>
      <trkpt lat="44.84923" lon="2.96165">
        <ele>949.53</ele>
        <time>2022-08-16T07:59:54Z</time>
      </trkpt>
      <trkpt lat="44.84941" lon="2.96154">
        <ele>948.55</ele>
        <time>2022-08-16T07:59:59Z</time>
      </trkpt>
      <trkpt lat="44.84943" lon="2.96146">
        <ele>948.5</ele>
        <time>2022-08-16T08:00:00Z</time>
      </trkpt>
      <trkpt lat="44.84944" lon="2.96136">
        <ele>948.37</ele>
        <time>2022-08-16T08:00:01Z</time>
      </trkpt>
      <trkpt lat="44.84952" lon="2.96059">
        <ele>951.78</ele>
        <time>2022-08-16T08:00:06Z</time>
      </trkpt>
      <trkpt lat="44.84956" lon="2.96022">
        <ele>952.59</ele>
        <time>2022-08-16T08:00:08Z</time>
      </trkpt>
      <trkpt lat="44.84966" lon="2.95933">
        <ele>954.35</ele>
        <time>2022-08-16T08:00:13Z</time>
      </trkpt>
      <trkpt lat="44.85006" lon="2.9575">
        <ele>956.03</ele>
        <time>2022-08-16T08:00:24Z</time>
      </trkpt>
      <trkpt lat="44.85089" lon="2.95616">
        <ele>953.54</ele>
        <time>2022-08-16T08:00:33Z</time>
      </trkpt>
      <trkpt lat="44.851" lon="2.95604">
        <ele>953.5</ele>
        <time>2022-08-16T08:00:34Z</time>
      </trkpt>
      <trkpt lat="44.8512" lon="2.95579">
        <ele>952.3</ele>
        <time>2022-08-16T08:00:36Z</time>
      </trkpt>
      <trkpt lat="44.85201" lon="2.95505">
        <ele>949.27</ele>
        <time>2022-08-16T08:00:43Z</time>
      </trkpt>
      <trkpt lat="44.85319" lon="2.95451">
        <ele>948.54</ele>
        <time>2022-08-16T08:00:52Z</time>
      </trkpt>
      <trkpt lat="44.85331" lon="2.95443">
        <ele>948.54</ele>
        <time>2022-08-16T08:00:53Z</time>
      </trkpt>
      <trkpt lat="44.85343" lon="2.95433">
        <ele>948.52</ele>
        <time>2022-08-16T08:00:54Z</time>
      </trkpt>
      <trkpt lat="44.85449" lon="2.95308">
        <ele>946.64</ele>
        <time>2022-08-16T08:01:04Z</time>
      </trkpt>
      <trkpt lat="44.85454" lon="2.95292">
        <ele>946.63</ele>
        <time>2022-08-16T08:01:05Z</time>
      </trkpt>
      <trkpt lat="44.85458" lon="2.95276">
        <ele>946.62</ele>
        <time>2022-08-16T08:01:06Z</time>
      </trkpt>
      <trkpt lat="44.85468" lon="2.95226">
        <ele>946.63</ele>
        <time>2022-08-16T08:01:09Z</time>
      </trkpt>
      <trkpt lat="44.85473" lon="2.9521">
        <ele>946.61</ele>
        <time>2022-08-16T08:01:10Z</time>
      </trkpt>
      <trkpt lat="44.8548" lon="2.95196">
        <ele>946.68</ele>
        <time>2022-08-16T08:01:11Z</time>
      </trkpt>
      <trkpt lat="44.85488" lon="2.95183">
        <ele>946.59</ele>
        <time>2022-08-16T08:01:12Z</time>
      </trkpt>
      <trkpt lat="44.85497" lon="2.95172">
        <ele>946.67</ele>
        <time>2022-08-16T08:01:13Z</time>
      </trkpt>
      <trkpt lat="44.85508" lon="2.95162">
        <ele>946.67</ele>
        <time>2022-08-16T08:01:14Z</time>
      </trkpt>
      <trkpt lat="44.85519" lon="2.95152">
        <ele>946.66</ele>
        <time>2022-08-16T08:01:15Z</time>
      </trkpt>
      <trkpt lat="44.85541" lon="2.95132">
        <ele>944.94</ele>
        <time>2022-08-16T08:01:17Z</time>
      </trkpt>
      <trkpt lat="44.85652" lon="2.94999">
        <ele>942.85</ele>
        <time>2022-08-16T08:01:28Z</time>
      </trkpt>
      <trkpt lat="44.85658" lon="2.94983">
        <ele>942.82</ele>
        <time>2022-08-16T08:01:29Z</time>
      </trkpt>
      <trkpt lat="44.85663" lon="2.94966">
        <ele>942.8</ele>
        <time>2022-08-16T08:01:30Z</time>
      </trkpt>
      <trkpt lat="44.85667" lon="2.94949">
        <ele>942.8</ele>
        <time>2022-08-16T08:01:31Z</time>
      </trkpt>
      <trkpt lat="44.8567" lon="2.94932">
        <ele>942.79</ele>
        <time>2022-08-16T08:01:32Z</time>
      </trkpt>
      <trkpt lat="44.85676" lon="2.949">
        <ele>942.78</ele>
        <time>2022-08-16T08:01:34Z</time>
      </trkpt>
      <trkpt lat="44.85681" lon="2.94885">
        <ele>942.81</ele>
        <time>2022-08-16T08:01:35Z</time>
      </trkpt>
      <trkpt lat="44.85687" lon="2.94872">
        <ele>945.43</ele>
        <time>2022-08-16T08:01:36Z</time>
      </trkpt>
      <trkpt lat="44.85694" lon="2.9486">
        <ele>945.43</ele>
        <time>2022-08-16T08:01:37Z</time>
      </trkpt>
      <trkpt lat="44.85702" lon="2.94849">
        <ele>945.43</ele>
        <time>2022-08-16T08:01:38Z</time>
      </trkpt>
      <trkpt lat="44.8571" lon="2.94838">
        <ele>946.78</ele>
        <time>2022-08-16T08:01:39Z</time>
      </trkpt>
      <trkpt lat="44.85718" lon="2.94829">
        <ele>946.8</ele>
        <time>2022-08-16T08:01:40Z</time>
      </trkpt>
      <trkpt lat="44.85769" lon="2.94754">
        <ele>950.12</ele>
        <time>2022-08-16T08:01:47Z</time>
      </trkpt>
      <trkpt lat="44.85825" lon="2.94681">
        <ele>953.86</ele>
        <time>2022-08-16T08:01:54Z</time>
      </trkpt>
      <trkpt lat="44.85831" lon="2.94668">
        <ele>953.91</ele>
        <time>2022-08-16T08:01:55Z</time>
      </trkpt>
      <trkpt lat="44.85837" lon="2.94653">
        <ele>954.87</ele>
        <time>2022-08-16T08:01:56Z</time>
      </trkpt>
      <trkpt lat="44.85846" lon="2.94623">
        <ele>955.75</ele>
        <time>2022-08-16T08:01:58Z</time>
      </trkpt>
      <trkpt lat="44.85921" lon="2.94442">
        <ele>957.92</ele>
        <time>2022-08-16T08:02:10Z</time>
      </trkpt>
      <trkpt lat="44.85934" lon="2.94392">
        <ele>957.5</ele>
        <time>2022-08-16T08:02:13Z</time>
      </trkpt>
      <trkpt lat="44.85936" lon="2.94374">
        <ele>957.51</ele>
        <time>2022-08-16T08:02:14Z</time>
      </trkpt>
      <trkpt lat="44.85936" lon="2.94357">
        <ele>957.5</ele>
        <time>2022-08-16T08:02:15Z</time>
      </trkpt>
      <trkpt lat="44.85935" lon="2.94339">
        <ele>957.5</ele>
        <time>2022-08-16T08:02:16Z</time>
      </trkpt>
      <trkpt lat="44.85933" lon="2.94322">
        <ele>957.49</ele>
        <time>2022-08-16T08:02:17Z</time>
      </trkpt>
      <trkpt lat="44.8593" lon="2.94305">
        <ele>957.48</ele>
        <time>2022-08-16T08:02:18Z</time>
      </trkpt>
      <trkpt lat="44.85926" lon="2.94289">
        <ele>957.46</ele>
        <time>2022-08-16T08:02:19Z</time>
      </trkpt>
      <trkpt lat="44.8592" lon="2.94259">
        <ele>957.44</ele>
        <time>2022-08-16T08:02:21Z</time>
      </trkpt>
      <trkpt lat="44.85919" lon="2.94244">
        <ele>955.11</ele>
        <time>2022-08-16T08:02:22Z</time>
      </trkpt>
      <trkpt lat="44.85919" lon="2.94229">
        <ele>955.11</ele>
        <time>2022-08-16T08:02:23Z</time>
      </trkpt>
      <trkpt lat="44.85915" lon="2.94165">
        <ele>954.33</ele>
        <time>2022-08-16T08:02:27Z</time>
      </trkpt>
      <trkpt lat="44.8591" lon="2.9415">
        <ele>954.31</ele>
        <time>2022-08-16T08:02:28Z</time>
      </trkpt>
      <trkpt lat="44.85903" lon="2.94135">
        <ele>954.33</ele>
        <time>2022-08-16T08:02:29Z</time>
      </trkpt>
      <trkpt lat="44.85843" lon="2.9402">
        <ele>954.33</ele>
        <time>2022-08-16T08:02:37Z</time>
      </trkpt>
      <trkpt lat="44.85834" lon="2.94007">
        <ele>954.33</ele>
        <time>2022-08-16T08:02:38Z</time>
      </trkpt>
      <trkpt lat="44.85787" lon="2.93944">
        <ele>956.59</ele>
        <time>2022-08-16T08:02:43Z</time>
      </trkpt>
      <trkpt lat="44.85748" lon="2.93851">
        <ele>956.56</ele>
        <time>2022-08-16T08:02:50Z</time>
      </trkpt>
      <trkpt lat="44.85743" lon="2.93825">
        <ele>953.57</ele>
        <time>2022-08-16T08:02:52Z</time>
      </trkpt>
      <trkpt lat="44.85736" lon="2.93801">
        <ele>951.98</ele>
        <time>2022-08-16T08:02:54Z</time>
      </trkpt>
      <trkpt lat="44.85727" lon="2.93769">
        <ele>949.91</ele>
        <time>2022-08-16T08:02:57Z</time>
      </trkpt>
      <trkpt lat="44.85725" lon="2.93758">
        <ele>948.39</ele>
        <time>2022-08-16T08:02:58Z</time>
      </trkpt>
      <trkpt lat="44.85727" lon="2.93747">
        <ele>948.3</ele>
        <time>2022-08-16T08:02:59Z</time>
      </trkpt>
      <trkpt lat="44.85729" lon="2.93738">
        <ele>947.03</ele>
        <time>2022-08-16T08:03:00Z</time>
      </trkpt>
      <trkpt lat="44.85733" lon="2.93728">
        <ele>946.3</ele>
        <time>2022-08-16T08:03:01Z</time>
      </trkpt>
      <trkpt lat="44.85736" lon="2.93719">
        <ele>946.3</ele>
        <time>2022-08-16T08:03:02Z</time>
      </trkpt>
      <trkpt lat="44.85738" lon="2.93709">
        <ele>945.17</ele>
        <time>2022-08-16T08:03:03Z</time>
      </trkpt>
      <trkpt lat="44.85737" lon="2.93699">
        <ele>945.1</ele>
        <time>2022-08-16T08:03:04Z</time>
      </trkpt>
      <trkpt lat="44.85735" lon="2.9369">
        <ele>944</ele>
        <time>2022-08-16T08:03:05Z</time>
      </trkpt>
      <trkpt lat="44.8573" lon="2.93683">
        <ele>943.98</ele>
        <time>2022-08-16T08:03:06Z</time>
      </trkpt>
      <trkpt lat="44.85724" lon="2.93675">
        <ele>943.88</ele>
        <time>2022-08-16T08:03:07Z</time>
      </trkpt>
      <trkpt lat="44.85717" lon="2.93667">
        <ele>942.74</ele>
        <time>2022-08-16T08:03:08Z</time>
      </trkpt>
      <trkpt lat="44.85675" lon="2.93617">
        <ele>939.93</ele>
        <time>2022-08-16T08:03:14Z</time>
      </trkpt>
      <trkpt lat="44.8566" lon="2.93604">
        <ele>938.7</ele>
        <time>2022-08-16T08:03:16Z</time>
      </trkpt>
      <trkpt lat="44.85653" lon="2.93596">
        <ele>938.71</ele>
        <time>2022-08-16T08:03:17Z</time>
      </trkpt>
      <trkpt lat="44.85647" lon="2.93587">
        <ele>937.15</ele>
        <time>2022-08-16T08:03:18Z</time>
      </trkpt>
      <trkpt lat="44.85643" lon="2.93577">
        <ele>937.11</ele>
        <time>2022-08-16T08:03:19Z</time>
      </trkpt>
      <trkpt lat="44.85635" lon="2.93555">
        <ele>935.62</ele>
        <time>2022-08-16T08:03:21Z</time>
      </trkpt>
      <trkpt lat="44.85625" lon="2.93524">
        <ele>932.6</ele>
        <time>2022-08-16T08:03:24Z</time>
      </trkpt>
      <trkpt lat="44.85622" lon="2.93515">
        <ele>932.59</ele>
        <time>2022-08-16T08:03:25Z</time>
      </trkpt>
      <trkpt lat="44.85609" lon="2.93483">
        <ele>930.92</ele>
        <time>2022-08-16T08:03:29Z</time>
      </trkpt>
      <trkpt lat="44.85593" lon="2.93446">
        <ele>928.1</ele>
        <time>2022-08-16T08:03:38Z</time>
      </trkpt>
      <trkpt lat="44.85593" lon="2.93449">
        <ele>927.31</ele>
        <time>2022-08-16T08:04:31Z</time>
      </trkpt>
      <trkpt lat="44.85594" lon="2.93447">
        <ele>927.39</ele>
        <time>2022-08-16T08:04:35Z</time>
      </trkpt>
      <trkpt lat="44.85596" lon="2.93445">
        <ele>927.38</ele>
        <time>2022-08-16T08:04:36Z</time>
      </trkpt>
      <trkpt lat="44.85599" lon="2.93441">
        <ele>927.4</ele>
        <time>2022-08-16T08:04:37Z</time>
      </trkpt>
      <trkpt lat="44.85609" lon="2.93428">
        <ele>927.38</ele>
        <time>2022-08-16T08:04:39Z</time>
      </trkpt>
      <trkpt lat="44.85625" lon="2.93398">
        <ele>926.03</ele>
        <time>2022-08-16T08:04:42Z</time>
      </trkpt>
      <trkpt lat="44.85627" lon="2.93387">
        <ele>926.01</ele>
        <time>2022-08-16T08:04:43Z</time>
      </trkpt>
      <trkpt lat="44.85628" lon="2.93375">
        <ele>924.58</ele>
        <time>2022-08-16T08:04:44Z</time>
      </trkpt>
      <trkpt lat="44.85622" lon="2.93364">
        <ele>924.6</ele>
        <time>2022-08-16T08:04:45Z</time>
      </trkpt>
      <trkpt lat="44.85613" lon="2.93357">
        <ele>924.58</ele>
        <time>2022-08-16T08:04:46Z</time>
      </trkpt>
      <trkpt lat="44.85604" lon="2.9335">
        <ele>923.52</ele>
        <time>2022-08-16T08:04:47Z</time>
      </trkpt>
      <trkpt lat="44.85595" lon="2.93345">
        <ele>922.21</ele>
        <time>2022-08-16T08:04:48Z</time>
      </trkpt>
      <trkpt lat="44.85586" lon="2.93338">
        <ele>920.74</ele>
        <time>2022-08-16T08:04:49Z</time>
      </trkpt>
      <trkpt lat="44.85578" lon="2.9333">
        <ele>920.72</ele>
        <time>2022-08-16T08:04:50Z</time>
      </trkpt>
      <trkpt lat="44.85571" lon="2.93321">
        <ele>919.84</ele>
        <time>2022-08-16T08:04:51Z</time>
      </trkpt>
      <trkpt lat="44.85555" lon="2.93299">
        <ele>918.76</ele>
        <time>2022-08-16T08:04:53Z</time>
      </trkpt>
      <trkpt lat="44.85538" lon="2.93277">
        <ele>917.37</ele>
        <time>2022-08-16T08:04:55Z</time>
      </trkpt>
      <trkpt lat="44.8552" lon="2.93257">
        <ele>914.33</ele>
        <time>2022-08-16T08:04:57Z</time>
      </trkpt>
      <trkpt lat="44.8551" lon="2.93249">
        <ele>914.37</ele>
        <time>2022-08-16T08:04:58Z</time>
      </trkpt>
      <trkpt lat="44.85501" lon="2.93244">
        <ele>912.86</ele>
        <time>2022-08-16T08:04:59Z</time>
      </trkpt>
      <trkpt lat="44.85492" lon="2.93241">
        <ele>911.69</ele>
        <time>2022-08-16T08:05:00Z</time>
      </trkpt>
      <trkpt lat="44.85483" lon="2.93239">
        <ele>910.45</ele>
        <time>2022-08-16T08:05:01Z</time>
      </trkpt>
      <trkpt lat="44.85476" lon="2.93235">
        <ele>909.44</ele>
        <time>2022-08-16T08:05:02Z</time>
      </trkpt>
      <trkpt lat="44.8547" lon="2.93229">
        <ele>909.47</ele>
        <time>2022-08-16T08:05:03Z</time>
      </trkpt>
      <trkpt lat="44.85466" lon="2.93221">
        <ele>907.87</ele>
        <time>2022-08-16T08:05:04Z</time>
      </trkpt>
      <trkpt lat="44.85464" lon="2.93209">
        <ele>907.8</ele>
        <time>2022-08-16T08:05:05Z</time>
      </trkpt>
      <trkpt lat="44.8546" lon="2.93197">
        <ele>906.5</ele>
        <time>2022-08-16T08:05:06Z</time>
      </trkpt>
      <trkpt lat="44.85454" lon="2.93186">
        <ele>905.69</ele>
        <time>2022-08-16T08:05:07Z</time>
      </trkpt>
      <trkpt lat="44.85447" lon="2.93177">
        <ele>905.76</ele>
        <time>2022-08-16T08:05:08Z</time>
      </trkpt>
      <trkpt lat="44.85439" lon="2.93171">
        <ele>904.11</ele>
        <time>2022-08-16T08:05:09Z</time>
      </trkpt>
      <trkpt lat="44.85431" lon="2.93165">
        <ele>902.96</ele>
        <time>2022-08-16T08:05:10Z</time>
      </trkpt>
      <trkpt lat="44.85424" lon="2.9316">
        <ele>902.87</ele>
        <time>2022-08-16T08:05:11Z</time>
      </trkpt>
      <trkpt lat="44.85418" lon="2.93154">
        <ele>901.77</ele>
        <time>2022-08-16T08:05:12Z</time>
      </trkpt>
      <trkpt lat="44.85414" lon="2.93146">
        <ele>901.76</ele>
        <time>2022-08-16T08:05:13Z</time>
      </trkpt>
      <trkpt lat="44.85411" lon="2.93134">
        <ele>900.84</ele>
        <time>2022-08-16T08:05:14Z</time>
      </trkpt>
      <trkpt lat="44.85409" lon="2.9312">
        <ele>900.87</ele>
        <time>2022-08-16T08:05:15Z</time>
      </trkpt>
      <trkpt lat="44.85408" lon="2.93104">
        <ele>900.79</ele>
        <time>2022-08-16T08:05:16Z</time>
      </trkpt>
      <trkpt lat="44.85401" lon="2.93029">
        <ele>897.15</ele>
        <time>2022-08-16T08:05:20Z</time>
      </trkpt>
      <trkpt lat="44.85398" lon="2.92975">
        <ele>894.47</ele>
        <time>2022-08-16T08:05:23Z</time>
      </trkpt>
      <trkpt lat="44.85398" lon="2.92958">
        <ele>892.22</ele>
        <time>2022-08-16T08:05:24Z</time>
      </trkpt>
      <trkpt lat="44.85399" lon="2.92941">
        <ele>892.21</ele>
        <time>2022-08-16T08:05:25Z</time>
      </trkpt>
      <trkpt lat="44.85406" lon="2.92894">
        <ele>889.72</ele>
        <time>2022-08-16T08:05:28Z</time>
      </trkpt>
      <trkpt lat="44.8541" lon="2.92879">
        <ele>888.48</ele>
        <time>2022-08-16T08:05:29Z</time>
      </trkpt>
      <trkpt lat="44.85414" lon="2.92864">
        <ele>887.24</ele>
        <time>2022-08-16T08:05:30Z</time>
      </trkpt>
      <trkpt lat="44.85431" lon="2.92823">
        <ele>884.19</ele>
        <time>2022-08-16T08:05:33Z</time>
      </trkpt>
      <trkpt lat="44.85439" lon="2.92811">
        <ele>884.1</ele>
        <time>2022-08-16T08:05:34Z</time>
      </trkpt>
      <trkpt lat="44.85446" lon="2.92801">
        <ele>882.69</ele>
        <time>2022-08-16T08:05:35Z</time>
      </trkpt>
      <trkpt lat="44.85455" lon="2.92792">
        <ele>881.78</ele>
        <time>2022-08-16T08:05:36Z</time>
      </trkpt>
      <trkpt lat="44.85463" lon="2.92784">
        <ele>880.88</ele>
        <time>2022-08-16T08:05:37Z</time>
      </trkpt>
      <trkpt lat="44.85472" lon="2.92778">
        <ele>880.93</ele>
        <time>2022-08-16T08:05:38Z</time>
      </trkpt>
      <trkpt lat="44.85482" lon="2.92772">
        <ele>880.84</ele>
        <time>2022-08-16T08:05:39Z</time>
      </trkpt>
      <trkpt lat="44.85492" lon="2.92769">
        <ele>879.35</ele>
        <time>2022-08-16T08:05:40Z</time>
      </trkpt>
      <trkpt lat="44.85502" lon="2.92766">
        <ele>878.43</ele>
        <time>2022-08-16T08:05:41Z</time>
      </trkpt>
      <trkpt lat="44.85512" lon="2.92763">
        <ele>876.92</ele>
        <time>2022-08-16T08:05:42Z</time>
      </trkpt>
      <trkpt lat="44.85522" lon="2.92761">
        <ele>876.83</ele>
        <time>2022-08-16T08:05:43Z</time>
      </trkpt>
      <trkpt lat="44.85552" lon="2.92759">
        <ele>874.85</ele>
        <time>2022-08-16T08:05:46Z</time>
      </trkpt>
      <trkpt lat="44.85561" lon="2.92763">
        <ele>873.42</ele>
        <time>2022-08-16T08:05:47Z</time>
      </trkpt>
      <trkpt lat="44.8557" lon="2.92769">
        <ele>872.46</ele>
        <time>2022-08-16T08:05:48Z</time>
      </trkpt>
      <trkpt lat="44.85578" lon="2.92776">
        <ele>872.39</ele>
        <time>2022-08-16T08:05:49Z</time>
      </trkpt>
      <trkpt lat="44.85587" lon="2.92785">
        <ele>871.2</ele>
        <time>2022-08-16T08:05:50Z</time>
      </trkpt>
      <trkpt lat="44.85596" lon="2.92795">
        <ele>871.11</ele>
        <time>2022-08-16T08:05:51Z</time>
      </trkpt>
      <trkpt lat="44.85612" lon="2.92814">
        <ele>869.22</ele>
        <time>2022-08-16T08:05:53Z</time>
      </trkpt>
      <trkpt lat="44.85629" lon="2.92831">
        <ele>868.29</ele>
        <time>2022-08-16T08:05:55Z</time>
      </trkpt>
      <trkpt lat="44.85637" lon="2.92837">
        <ele>866.74</ele>
        <time>2022-08-16T08:05:56Z</time>
      </trkpt>
      <trkpt lat="44.85647" lon="2.9284">
        <ele>866.73</ele>
        <time>2022-08-16T08:05:57Z</time>
      </trkpt>
      <trkpt lat="44.85666" lon="2.92842">
        <ele>865.21</ele>
        <time>2022-08-16T08:05:59Z</time>
      </trkpt>
      <trkpt lat="44.85687" lon="2.92848">
        <ele>863.85</ele>
        <time>2022-08-16T08:06:01Z</time>
      </trkpt>
      <trkpt lat="44.85706" lon="2.92858">
        <ele>862.73</ele>
        <time>2022-08-16T08:06:03Z</time>
      </trkpt>
      <trkpt lat="44.85716" lon="2.92866">
        <ele>861.76</ele>
        <time>2022-08-16T08:06:04Z</time>
      </trkpt>
      <trkpt lat="44.85726" lon="2.92876">
        <ele>861.71</ele>
        <time>2022-08-16T08:06:05Z</time>
      </trkpt>
      <trkpt lat="44.85746" lon="2.92895">
        <ele>860.43</ele>
        <time>2022-08-16T08:06:07Z</time>
      </trkpt>
      <trkpt lat="44.8576" lon="2.92914">
        <ele>858.57</ele>
        <time>2022-08-16T08:06:09Z</time>
      </trkpt>
      <trkpt lat="44.8577" lon="2.92929">
        <ele>857.01</ele>
        <time>2022-08-16T08:06:11Z</time>
      </trkpt>
      <trkpt lat="44.85774" lon="2.92933">
        <ele>855.87</ele>
        <time>2022-08-16T08:06:12Z</time>
      </trkpt>
      <trkpt lat="44.85779" lon="2.92936">
        <ele>855.81</ele>
        <time>2022-08-16T08:06:13Z</time>
      </trkpt>
      <trkpt lat="44.85785" lon="2.92938">
        <ele>855.85</ele>
        <time>2022-08-16T08:06:14Z</time>
      </trkpt>
      <trkpt lat="44.85788" lon="2.92931">
        <ele>854.66</ele>
        <time>2022-08-16T08:06:15Z</time>
      </trkpt>
      <trkpt lat="44.85789" lon="2.92921">
        <ele>854.56</ele>
        <time>2022-08-16T08:06:16Z</time>
      </trkpt>
      <trkpt lat="44.8579" lon="2.92909">
        <ele>854.58</ele>
        <time>2022-08-16T08:06:17Z</time>
      </trkpt>
      <trkpt lat="44.85791" lon="2.92894">
        <ele>854.6</ele>
        <time>2022-08-16T08:06:18Z</time>
      </trkpt>
      <trkpt lat="44.85792" lon="2.92878">
        <ele>854.98</ele>
        <time>2022-08-16T08:06:19Z</time>
      </trkpt>
      <trkpt lat="44.85795" lon="2.9286">
        <ele>853.26</ele>
        <time>2022-08-16T08:06:20Z</time>
      </trkpt>
      <trkpt lat="44.85797" lon="2.92843">
        <ele>853.23</ele>
        <time>2022-08-16T08:06:21Z</time>
      </trkpt>
      <trkpt lat="44.85797" lon="2.92827">
        <ele>853.23</ele>
        <time>2022-08-16T08:06:22Z</time>
      </trkpt>
      <trkpt lat="44.85795" lon="2.92813">
        <ele>853.17</ele>
        <time>2022-08-16T08:06:23Z</time>
      </trkpt>
      <trkpt lat="44.85794" lon="2.92788">
        <ele>851.17</ele>
        <time>2022-08-16T08:06:25Z</time>
      </trkpt>
      <trkpt lat="44.85797" lon="2.92777">
        <ele>851.18</ele>
        <time>2022-08-16T08:06:26Z</time>
      </trkpt>
      <trkpt lat="44.85803" lon="2.92768">
        <ele>851.13</ele>
        <time>2022-08-16T08:06:27Z</time>
      </trkpt>
      <trkpt lat="44.8581" lon="2.92758">
        <ele>849.69</ele>
        <time>2022-08-16T08:06:28Z</time>
      </trkpt>
      <trkpt lat="44.85818" lon="2.9275">
        <ele>849.69</ele>
        <time>2022-08-16T08:06:29Z</time>
      </trkpt>
      <trkpt lat="44.85827" lon="2.92744">
        <ele>848.08</ele>
        <time>2022-08-16T08:06:30Z</time>
      </trkpt>
      <trkpt lat="44.85836" lon="2.92737">
        <ele>848.05</ele>
        <time>2022-08-16T08:06:31Z</time>
      </trkpt>
      <trkpt lat="44.85849" lon="2.92722">
        <ele>847.08</ele>
        <time>2022-08-16T08:06:33Z</time>
      </trkpt>
      <trkpt lat="44.85851" lon="2.92712">
        <ele>845.32</ele>
        <time>2022-08-16T08:06:34Z</time>
      </trkpt>
      <trkpt lat="44.85851" lon="2.92702">
        <ele>845.25</ele>
        <time>2022-08-16T08:06:35Z</time>
      </trkpt>
      <trkpt lat="44.8585" lon="2.92693">
        <ele>845.19</ele>
        <time>2022-08-16T08:06:36Z</time>
      </trkpt>
      <trkpt lat="44.85847" lon="2.92684">
        <ele>845.18</ele>
        <time>2022-08-16T08:06:37Z</time>
      </trkpt>
      <trkpt lat="44.85841" lon="2.92678">
        <ele>845.11</ele>
        <time>2022-08-16T08:06:38Z</time>
      </trkpt>
      <trkpt lat="44.85829" lon="2.92677">
        <ele>845.16</ele>
        <time>2022-08-16T08:06:39Z</time>
      </trkpt>
      <trkpt lat="44.85818" lon="2.92676">
        <ele>843.74</ele>
        <time>2022-08-16T08:06:40Z</time>
      </trkpt>
      <trkpt lat="44.85808" lon="2.92674">
        <ele>843.79</ele>
        <time>2022-08-16T08:06:41Z</time>
      </trkpt>
      <trkpt lat="44.85797" lon="2.92672">
        <ele>842.73</ele>
        <time>2022-08-16T08:06:42Z</time>
      </trkpt>
      <trkpt lat="44.85786" lon="2.92667">
        <ele>841.89</ele>
        <time>2022-08-16T08:06:43Z</time>
      </trkpt>
      <trkpt lat="44.85777" lon="2.9266">
        <ele>840.46</ele>
        <time>2022-08-16T08:06:44Z</time>
      </trkpt>
      <trkpt lat="44.8577" lon="2.92651">
        <ele>839.41</ele>
        <time>2022-08-16T08:06:45Z</time>
      </trkpt>
      <trkpt lat="44.85764" lon="2.9264">
        <ele>838.34</ele>
        <time>2022-08-16T08:06:46Z</time>
      </trkpt>
      <trkpt lat="44.85758" lon="2.92628">
        <ele>838.32</ele>
        <time>2022-08-16T08:06:47Z</time>
      </trkpt>
      <trkpt lat="44.85747" lon="2.92599">
        <ele>836.72</ele>
        <time>2022-08-16T08:06:49Z</time>
      </trkpt>
      <trkpt lat="44.85742" lon="2.92583">
        <ele>836.7</ele>
        <time>2022-08-16T08:06:50Z</time>
      </trkpt>
      <trkpt lat="44.85738" lon="2.92567">
        <ele>836.64</ele>
        <time>2022-08-16T08:06:51Z</time>
      </trkpt>
      <trkpt lat="44.85733" lon="2.92552">
        <ele>834.46</ele>
        <time>2022-08-16T08:06:52Z</time>
      </trkpt>
      <trkpt lat="44.85728" lon="2.92538">
        <ele>833.67</ele>
        <time>2022-08-16T08:06:53Z</time>
      </trkpt>
      <trkpt lat="44.85718" lon="2.92511">
        <ele>832.68</ele>
        <time>2022-08-16T08:06:55Z</time>
      </trkpt>
      <trkpt lat="44.8571" lon="2.92485">
        <ele>829.62</ele>
        <time>2022-08-16T08:06:57Z</time>
      </trkpt>
      <trkpt lat="44.85707" lon="2.92471">
        <ele>828.56</ele>
        <time>2022-08-16T08:06:58Z</time>
      </trkpt>
      <trkpt lat="44.85706" lon="2.92458">
        <ele>827.6</ele>
        <time>2022-08-16T08:06:59Z</time>
      </trkpt>
      <trkpt lat="44.85706" lon="2.92445">
        <ele>826.46</ele>
        <time>2022-08-16T08:07:00Z</time>
      </trkpt>
      <trkpt lat="44.85708" lon="2.92432">
        <ele>826.33</ele>
        <time>2022-08-16T08:07:01Z</time>
      </trkpt>
      <trkpt lat="44.85711" lon="2.92421">
        <ele>825</ele>
        <time>2022-08-16T08:07:02Z</time>
      </trkpt>
      <trkpt lat="44.85714" lon="2.92409">
        <ele>824.96</ele>
        <time>2022-08-16T08:07:03Z</time>
      </trkpt>
      <trkpt lat="44.8572" lon="2.92388">
        <ele>822.77</ele>
        <time>2022-08-16T08:07:05Z</time>
      </trkpt>
      <trkpt lat="44.85721" lon="2.92377">
        <ele>822.73</ele>
        <time>2022-08-16T08:07:06Z</time>
      </trkpt>
      <trkpt lat="44.85717" lon="2.92368">
        <ele>821.37</ele>
        <time>2022-08-16T08:07:07Z</time>
      </trkpt>
      <trkpt lat="44.85711" lon="2.92361">
        <ele>821.41</ele>
        <time>2022-08-16T08:07:08Z</time>
      </trkpt>
      <trkpt lat="44.85701" lon="2.92359">
        <ele>822.01</ele>
        <time>2022-08-16T08:07:09Z</time>
      </trkpt>
      <trkpt lat="44.8569" lon="2.92357">
        <ele>821.29</ele>
        <time>2022-08-16T08:07:10Z</time>
      </trkpt>
      <trkpt lat="44.85649" lon="2.9235">
        <ele>819.05</ele>
        <time>2022-08-16T08:07:14Z</time>
      </trkpt>
      <trkpt lat="44.85639" lon="2.92347">
        <ele>818.98</ele>
        <time>2022-08-16T08:07:15Z</time>
      </trkpt>
      <trkpt lat="44.85631" lon="2.92342">
        <ele>817.42</ele>
        <time>2022-08-16T08:07:16Z</time>
      </trkpt>
      <trkpt lat="44.85624" lon="2.92335">
        <ele>817.41</ele>
        <time>2022-08-16T08:07:17Z</time>
      </trkpt>
      <trkpt lat="44.85617" lon="2.92325">
        <ele>817.37</ele>
        <time>2022-08-16T08:07:18Z</time>
      </trkpt>
      <trkpt lat="44.85611" lon="2.92313">
        <ele>815.98</ele>
        <time>2022-08-16T08:07:19Z</time>
      </trkpt>
      <trkpt lat="44.85605" lon="2.92301">
        <ele>814.67</ele>
        <time>2022-08-16T08:07:20Z</time>
      </trkpt>
      <trkpt lat="44.85598" lon="2.92292">
        <ele>814.62</ele>
        <time>2022-08-16T08:07:21Z</time>
      </trkpt>
      <trkpt lat="44.8559" lon="2.92285">
        <ele>813.37</ele>
        <time>2022-08-16T08:07:22Z</time>
      </trkpt>
      <trkpt lat="44.85582" lon="2.92278">
        <ele>812.49</ele>
        <time>2022-08-16T08:07:23Z</time>
      </trkpt>
      <trkpt lat="44.85575" lon="2.9227">
        <ele>812.47</ele>
        <time>2022-08-16T08:07:24Z</time>
      </trkpt>
      <trkpt lat="44.85572" lon="2.92261">
        <ele>811.22</ele>
        <time>2022-08-16T08:07:25Z</time>
      </trkpt>
      <trkpt lat="44.85571" lon="2.9225">
        <ele>811.19</ele>
        <time>2022-08-16T08:07:26Z</time>
      </trkpt>
      <trkpt lat="44.85573" lon="2.92237">
        <ele>810.27</ele>
        <time>2022-08-16T08:07:27Z</time>
      </trkpt>
      <trkpt lat="44.85578" lon="2.92224">
        <ele>810.27</ele>
        <time>2022-08-16T08:07:28Z</time>
      </trkpt>
      <trkpt lat="44.85583" lon="2.9221">
        <ele>810.26</ele>
        <time>2022-08-16T08:07:29Z</time>
      </trkpt>
      <trkpt lat="44.85594" lon="2.92182">
        <ele>808.67</ele>
        <time>2022-08-16T08:07:31Z</time>
      </trkpt>
      <trkpt lat="44.85603" lon="2.92155">
        <ele>807.1</ele>
        <time>2022-08-16T08:07:33Z</time>
      </trkpt>
      <trkpt lat="44.8561" lon="2.92128">
        <ele>803.57</ele>
        <time>2022-08-16T08:07:35Z</time>
      </trkpt>
      <trkpt lat="44.85613" lon="2.92115">
        <ele>803.57</ele>
        <time>2022-08-16T08:07:36Z</time>
      </trkpt>
      <trkpt lat="44.85618" lon="2.92089">
        <ele>801.6</ele>
        <time>2022-08-16T08:07:38Z</time>
      </trkpt>
      <trkpt lat="44.85622" lon="2.92061">
        <ele>799.09</ele>
        <time>2022-08-16T08:07:40Z</time>
      </trkpt>
      <trkpt lat="44.85623" lon="2.92045">
        <ele>799.09</ele>
        <time>2022-08-16T08:07:41Z</time>
      </trkpt>
      <trkpt lat="44.85621" lon="2.92029">
        <ele>797.99</ele>
        <time>2022-08-16T08:07:42Z</time>
      </trkpt>
      <trkpt lat="44.85616" lon="2.91983">
        <ele>796.29</ele>
        <time>2022-08-16T08:07:45Z</time>
      </trkpt>
      <trkpt lat="44.85614" lon="2.91954">
        <ele>793.76</ele>
        <time>2022-08-16T08:07:47Z</time>
      </trkpt>
      <trkpt lat="44.85611" lon="2.91941">
        <ele>792.11</ele>
        <time>2022-08-16T08:07:48Z</time>
      </trkpt>
      <trkpt lat="44.85607" lon="2.91929">
        <ele>791.17</ele>
        <time>2022-08-16T08:07:49Z</time>
      </trkpt>
      <trkpt lat="44.85602" lon="2.91917">
        <ele>791.28</ele>
        <time>2022-08-16T08:07:50Z</time>
      </trkpt>
      <trkpt lat="44.85595" lon="2.91891">
        <ele>789.25</ele>
        <time>2022-08-16T08:07:52Z</time>
      </trkpt>
      <trkpt lat="44.85593" lon="2.91877">
        <ele>788.12</ele>
        <time>2022-08-16T08:07:53Z</time>
      </trkpt>
      <trkpt lat="44.85593" lon="2.91862">
        <ele>788.06</ele>
        <time>2022-08-16T08:07:54Z</time>
      </trkpt>
      <trkpt lat="44.85593" lon="2.91847">
        <ele>786.07</ele>
        <time>2022-08-16T08:07:55Z</time>
      </trkpt>
      <trkpt lat="44.85595" lon="2.91832">
        <ele>786.17</ele>
        <time>2022-08-16T08:07:56Z</time>
      </trkpt>
      <trkpt lat="44.85597" lon="2.91817">
        <ele>784.17</ele>
        <time>2022-08-16T08:07:57Z</time>
      </trkpt>
      <trkpt lat="44.85597" lon="2.91802">
        <ele>783.41</ele>
        <time>2022-08-16T08:07:58Z</time>
      </trkpt>
      <trkpt lat="44.85596" lon="2.91786">
        <ele>783.03</ele>
        <time>2022-08-16T08:07:59Z</time>
      </trkpt>
      <trkpt lat="44.85593" lon="2.9177">
        <ele>782.04</ele>
        <time>2022-08-16T08:08:00Z</time>
      </trkpt>
      <trkpt lat="44.8559" lon="2.91754">
        <ele>781.96</ele>
        <time>2022-08-16T08:08:01Z</time>
      </trkpt>
      <trkpt lat="44.85584" lon="2.91723">
        <ele>778.87</ele>
        <time>2022-08-16T08:08:03Z</time>
      </trkpt>
      <trkpt lat="44.85581" lon="2.91708">
        <ele>778.87</ele>
        <time>2022-08-16T08:08:04Z</time>
      </trkpt>
      <trkpt lat="44.85576" lon="2.91665">
        <ele>776.2</ele>
        <time>2022-08-16T08:08:07Z</time>
      </trkpt>
      <trkpt lat="44.85575" lon="2.91636">
        <ele>774.22</ele>
        <time>2022-08-16T08:08:09Z</time>
      </trkpt>
      <trkpt lat="44.85576" lon="2.91621">
        <ele>774.14</ele>
        <time>2022-08-16T08:08:10Z</time>
      </trkpt>
      <trkpt lat="44.85578" lon="2.91606">
        <ele>773.14</ele>
        <time>2022-08-16T08:08:11Z</time>
      </trkpt>
      <trkpt lat="44.85584" lon="2.9156">
        <ele>769.95</ele>
        <time>2022-08-16T08:08:14Z</time>
      </trkpt>
      <trkpt lat="44.85584" lon="2.91545">
        <ele>768.76</ele>
        <time>2022-08-16T08:08:15Z</time>
      </trkpt>
      <trkpt lat="44.85585" lon="2.91503">
        <ele>765.94</ele>
        <time>2022-08-16T08:08:18Z</time>
      </trkpt>
      <trkpt lat="44.85586" lon="2.91489">
        <ele>765.88</ele>
        <time>2022-08-16T08:08:19Z</time>
      </trkpt>
      <trkpt lat="44.85589" lon="2.91476">
        <ele>764.65</ele>
        <time>2022-08-16T08:08:20Z</time>
      </trkpt>
      <trkpt lat="44.85594" lon="2.91448">
        <ele>762.73</ele>
        <time>2022-08-16T08:08:22Z</time>
      </trkpt>
      <trkpt lat="44.85595" lon="2.91435">
        <ele>761.74</ele>
        <time>2022-08-16T08:08:23Z</time>
      </trkpt>
      <trkpt lat="44.85598" lon="2.91411">
        <ele>759.52</ele>
        <time>2022-08-16T08:08:25Z</time>
      </trkpt>
      <trkpt lat="44.85602" lon="2.91403">
        <ele>759.51</ele>
        <time>2022-08-16T08:08:26Z</time>
      </trkpt>
      <trkpt lat="44.85607" lon="2.91398">
        <ele>758.13</ele>
        <time>2022-08-16T08:08:27Z</time>
      </trkpt>
      <trkpt lat="44.85614" lon="2.91395">
        <ele>756.87</ele>
        <time>2022-08-16T08:08:28Z</time>
      </trkpt>
      <trkpt lat="44.85621" lon="2.91395">
        <ele>756.86</ele>
        <time>2022-08-16T08:08:29Z</time>
      </trkpt>
      <trkpt lat="44.85628" lon="2.91398">
        <ele>756.77</ele>
        <time>2022-08-16T08:08:30Z</time>
      </trkpt>
      <trkpt lat="44.85634" lon="2.91401">
        <ele>756.69</ele>
        <time>2022-08-16T08:08:31Z</time>
      </trkpt>
      <trkpt lat="44.85641" lon="2.91401">
        <ele>755.63</ele>
        <time>2022-08-16T08:08:32Z</time>
      </trkpt>
      <trkpt lat="44.85647" lon="2.91397">
        <ele>755.65</ele>
        <time>2022-08-16T08:08:33Z</time>
      </trkpt>
      <trkpt lat="44.85653" lon="2.91389">
        <ele>754.41</ele>
        <time>2022-08-16T08:08:34Z</time>
      </trkpt>
      <trkpt lat="44.85657" lon="2.91376">
        <ele>754.34</ele>
        <time>2022-08-16T08:08:35Z</time>
      </trkpt>
      <trkpt lat="44.85661" lon="2.91361">
        <ele>754.38</ele>
        <time>2022-08-16T08:08:36Z</time>
      </trkpt>
      <trkpt lat="44.85679" lon="2.91296">
        <ele>750.86</ele>
        <time>2022-08-16T08:08:40Z</time>
      </trkpt>
      <trkpt lat="44.85689" lon="2.9125">
        <ele>747.67</ele>
        <time>2022-08-16T08:08:43Z</time>
      </trkpt>
      <trkpt lat="44.85694" lon="2.91222">
        <ele>745.75</ele>
        <time>2022-08-16T08:08:45Z</time>
      </trkpt>
      <trkpt lat="44.85699" lon="2.91209">
        <ele>745.66</ele>
        <time>2022-08-16T08:08:46Z</time>
      </trkpt>
      <trkpt lat="44.85704" lon="2.91198">
        <ele>743.47</ele>
        <time>2022-08-16T08:08:47Z</time>
      </trkpt>
      <trkpt lat="44.85711" lon="2.91187">
        <ele>742.33</ele>
        <time>2022-08-16T08:08:48Z</time>
      </trkpt>
      <trkpt lat="44.85719" lon="2.91178">
        <ele>743.04</ele>
        <time>2022-08-16T08:08:49Z</time>
      </trkpt>
      <trkpt lat="44.85729" lon="2.9117">
        <ele>741.37</ele>
        <time>2022-08-16T08:08:50Z</time>
      </trkpt>
      <trkpt lat="44.85739" lon="2.91161">
        <ele>740.72</ele>
        <time>2022-08-16T08:08:51Z</time>
      </trkpt>
      <trkpt lat="44.85751" lon="2.91152">
        <ele>740.66</ele>
        <time>2022-08-16T08:08:52Z</time>
      </trkpt>
      <trkpt lat="44.85804" lon="2.91114">
        <ele>736.2</ele>
        <time>2022-08-16T08:08:56Z</time>
      </trkpt>
      <trkpt lat="44.85842" lon="2.91088">
        <ele>732.58</ele>
        <time>2022-08-16T08:08:59Z</time>
      </trkpt>
      <trkpt lat="44.85865" lon="2.91076">
        <ele>729.63</ele>
        <time>2022-08-16T08:09:01Z</time>
      </trkpt>
      <trkpt lat="44.85875" lon="2.91074">
        <ele>728.45</ele>
        <time>2022-08-16T08:09:02Z</time>
      </trkpt>
      <trkpt lat="44.85884" lon="2.91075">
        <ele>728.44</ele>
        <time>2022-08-16T08:09:03Z</time>
      </trkpt>
      <trkpt lat="44.85894" lon="2.91083">
        <ele>728.33</ele>
        <time>2022-08-16T08:09:04Z</time>
      </trkpt>
      <trkpt lat="44.85903" lon="2.91094">
        <ele>728.26</ele>
        <time>2022-08-16T08:09:05Z</time>
      </trkpt>
      <trkpt lat="44.85912" lon="2.91108">
        <ele>727.3</ele>
        <time>2022-08-16T08:09:06Z</time>
      </trkpt>
      <trkpt lat="44.85941" lon="2.91154">
        <ele>723.86</ele>
        <time>2022-08-16T08:09:09Z</time>
      </trkpt>
      <trkpt lat="44.85949" lon="2.91168">
        <ele>723.94</ele>
        <time>2022-08-16T08:09:10Z</time>
      </trkpt>
      <trkpt lat="44.85965" lon="2.91195">
        <ele>719.77</ele>
        <time>2022-08-16T08:09:12Z</time>
      </trkpt>
      <trkpt lat="44.85985" lon="2.91224">
        <ele>715.71</ele>
        <time>2022-08-16T08:09:15Z</time>
      </trkpt>
      <trkpt lat="44.85997" lon="2.91236">
        <ele>714.99</ele>
        <time>2022-08-16T08:09:17Z</time>
      </trkpt>
      <trkpt lat="44.86001" lon="2.91237">
        <ele>713.96</ele>
        <time>2022-08-16T08:09:18Z</time>
      </trkpt>
      <trkpt lat="44.86006" lon="2.91235">
        <ele>713.99</ele>
        <time>2022-08-16T08:09:19Z</time>
      </trkpt>
      <trkpt lat="44.86012" lon="2.91229">
        <ele>713.4</ele>
        <time>2022-08-16T08:09:20Z</time>
      </trkpt>
      <trkpt lat="44.86014" lon="2.91221">
        <ele>713.98</ele>
        <time>2022-08-16T08:09:21Z</time>
      </trkpt>
      <trkpt lat="44.86014" lon="2.91207">
        <ele>713.89</ele>
        <time>2022-08-16T08:09:22Z</time>
      </trkpt>
      <trkpt lat="44.86011" lon="2.91191">
        <ele>713.88</ele>
        <time>2022-08-16T08:09:23Z</time>
      </trkpt>
      <trkpt lat="44.86" lon="2.9113">
        <ele>710.86</ele>
        <time>2022-08-16T08:09:26Z</time>
      </trkpt>
      <trkpt lat="44.85989" lon="2.91075">
        <ele>707.58</ele>
        <time>2022-08-16T08:09:29Z</time>
      </trkpt>
      <trkpt lat="44.85985" lon="2.91041">
        <ele>705.33</ele>
        <time>2022-08-16T08:09:31Z</time>
      </trkpt>
      <trkpt lat="44.8598" lon="2.90994">
        <ele>702.68</ele>
        <time>2022-08-16T08:09:34Z</time>
      </trkpt>
      <trkpt lat="44.85977" lon="2.9098">
        <ele>701.7</ele>
        <time>2022-08-16T08:09:35Z</time>
      </trkpt>
      <trkpt lat="44.85973" lon="2.90967">
        <ele>701.57</ele>
        <time>2022-08-16T08:09:36Z</time>
      </trkpt>
      <trkpt lat="44.85966" lon="2.90944">
        <ele>699.92</ele>
        <time>2022-08-16T08:09:38Z</time>
      </trkpt>
      <trkpt lat="44.85964" lon="2.90932">
        <ele>698.84</ele>
        <time>2022-08-16T08:09:39Z</time>
      </trkpt>
      <trkpt lat="44.85965" lon="2.90921">
        <ele>697.6</ele>
        <time>2022-08-16T08:09:40Z</time>
      </trkpt>
      <trkpt lat="44.85969" lon="2.90911">
        <ele>697.49</ele>
        <time>2022-08-16T08:09:41Z</time>
      </trkpt>
      <trkpt lat="44.85975" lon="2.90903">
        <ele>696.37</ele>
        <time>2022-08-16T08:09:42Z</time>
      </trkpt>
      <trkpt lat="44.85981" lon="2.90895">
        <ele>696.32</ele>
        <time>2022-08-16T08:09:43Z</time>
      </trkpt>
      <trkpt lat="44.85987" lon="2.90884">
        <ele>697.11</ele>
        <time>2022-08-16T08:09:44Z</time>
      </trkpt>
      <trkpt lat="44.85991" lon="2.90869">
        <ele>697.1</ele>
        <time>2022-08-16T08:09:45Z</time>
      </trkpt>
      <trkpt lat="44.85991" lon="2.90853">
        <ele>695.58</ele>
        <time>2022-08-16T08:09:46Z</time>
      </trkpt>
      <trkpt lat="44.85992" lon="2.90837">
        <ele>695.52</ele>
        <time>2022-08-16T08:09:47Z</time>
      </trkpt>
      <trkpt lat="44.85993" lon="2.90823">
        <ele>694.27</ele>
        <time>2022-08-16T08:09:48Z</time>
      </trkpt>
      <trkpt lat="44.85996" lon="2.90809">
        <ele>694.21</ele>
        <time>2022-08-16T08:09:49Z</time>
      </trkpt>
      <trkpt lat="44.86001" lon="2.90798">
        <ele>692.53</ele>
        <time>2022-08-16T08:09:50Z</time>
      </trkpt>
      <trkpt lat="44.86009" lon="2.90789">
        <ele>692.53</ele>
        <time>2022-08-16T08:09:51Z</time>
      </trkpt>
      <trkpt lat="44.86018" lon="2.90782">
        <ele>692.32</ele>
        <time>2022-08-16T08:09:52Z</time>
      </trkpt>
      <trkpt lat="44.86033" lon="2.90768">
        <ele>690.15</ele>
        <time>2022-08-16T08:09:54Z</time>
      </trkpt>
      <trkpt lat="44.86038" lon="2.90759">
        <ele>689.11</ele>
        <time>2022-08-16T08:09:55Z</time>
      </trkpt>
      <trkpt lat="44.86039" lon="2.90749">
        <ele>689.04</ele>
        <time>2022-08-16T08:09:56Z</time>
      </trkpt>
      <trkpt lat="44.86039" lon="2.90739">
        <ele>687.73</ele>
        <time>2022-08-16T08:09:57Z</time>
      </trkpt>
      <trkpt lat="44.86035" lon="2.90731">
        <ele>687.78</ele>
        <time>2022-08-16T08:09:58Z</time>
      </trkpt>
      <trkpt lat="44.86027" lon="2.90725">
        <ele>687.74</ele>
        <time>2022-08-16T08:09:59Z</time>
      </trkpt>
      <trkpt lat="44.86021" lon="2.90719">
        <ele>687.67</ele>
        <time>2022-08-16T08:10:00Z</time>
      </trkpt>
      <trkpt lat="44.86015" lon="2.90711">
        <ele>686.49</ele>
        <time>2022-08-16T08:10:01Z</time>
      </trkpt>
      <trkpt lat="44.86011" lon="2.907">
        <ele>686.46</ele>
        <time>2022-08-16T08:10:02Z</time>
      </trkpt>
      <trkpt lat="44.86009" lon="2.90687">
        <ele>685.36</ele>
        <time>2022-08-16T08:10:03Z</time>
      </trkpt>
      <trkpt lat="44.8601" lon="2.90671">
        <ele>685.35</ele>
        <time>2022-08-16T08:10:04Z</time>
      </trkpt>
      <trkpt lat="44.86015" lon="2.90652">
        <ele>685.34</ele>
        <time>2022-08-16T08:10:05Z</time>
      </trkpt>
      <trkpt lat="44.8602" lon="2.90632">
        <ele>685.32</ele>
        <time>2022-08-16T08:10:06Z</time>
      </trkpt>
      <trkpt lat="44.86039" lon="2.90565">
        <ele>680.88</ele>
        <time>2022-08-16T08:10:10Z</time>
      </trkpt>
      <trkpt lat="44.86047" lon="2.90554">
        <ele>680.87</ele>
        <time>2022-08-16T08:10:11Z</time>
      </trkpt>
      <trkpt lat="44.86062" lon="2.90536">
        <ele>678.24</ele>
        <time>2022-08-16T08:10:13Z</time>
      </trkpt>
      <trkpt lat="44.86066" lon="2.90526">
        <ele>678.24</ele>
        <time>2022-08-16T08:10:14Z</time>
      </trkpt>
      <trkpt lat="44.86066" lon="2.90515">
        <ele>677</ele>
        <time>2022-08-16T08:10:15Z</time>
      </trkpt>
      <trkpt lat="44.86063" lon="2.90506">
        <ele>677.04</ele>
        <time>2022-08-16T08:10:16Z</time>
      </trkpt>
      <trkpt lat="44.86058" lon="2.90499">
        <ele>676.21</ele>
        <time>2022-08-16T08:10:17Z</time>
      </trkpt>
      <trkpt lat="44.86051" lon="2.90497">
        <ele>676.15</ele>
        <time>2022-08-16T08:10:18Z</time>
      </trkpt>
      <trkpt lat="44.86044" lon="2.905">
        <ele>674.76</ele>
        <time>2022-08-16T08:10:19Z</time>
      </trkpt>
      <trkpt lat="44.86037" lon="2.90508">
        <ele>674.77</ele>
        <time>2022-08-16T08:10:20Z</time>
      </trkpt>
      <trkpt lat="44.86033" lon="2.90521">
        <ele>674.71</ele>
        <time>2022-08-16T08:10:21Z</time>
      </trkpt>
      <trkpt lat="44.86029" lon="2.90536">
        <ele>674.67</ele>
        <time>2022-08-16T08:10:22Z</time>
      </trkpt>
      <trkpt lat="44.86025" lon="2.90552">
        <ele>674.64</ele>
        <time>2022-08-16T08:10:23Z</time>
      </trkpt>
      <trkpt lat="44.85999" lon="2.90635">
        <ele>673.64</ele>
        <time>2022-08-16T08:10:28Z</time>
      </trkpt>
      <trkpt lat="44.85992" lon="2.90649">
        <ele>672.42</ele>
        <time>2022-08-16T08:10:29Z</time>
      </trkpt>
      <trkpt lat="44.85985" lon="2.90661">
        <ele>671.48</ele>
        <time>2022-08-16T08:10:30Z</time>
      </trkpt>
      <trkpt lat="44.85979" lon="2.90673">
        <ele>671.46</ele>
        <time>2022-08-16T08:10:31Z</time>
      </trkpt>
      <trkpt lat="44.85973" lon="2.90685">
        <ele>671.47</ele>
        <time>2022-08-16T08:10:32Z</time>
      </trkpt>
      <trkpt lat="44.85969" lon="2.90698">
        <ele>669.89</ele>
        <time>2022-08-16T08:10:33Z</time>
      </trkpt>
      <trkpt lat="44.85966" lon="2.90712">
        <ele>669.95</ele>
        <time>2022-08-16T08:10:34Z</time>
      </trkpt>
      <trkpt lat="44.85964" lon="2.90726">
        <ele>668.41</ele>
        <time>2022-08-16T08:10:35Z</time>
      </trkpt>
      <trkpt lat="44.8596" lon="2.90741">
        <ele>668.41</ele>
        <time>2022-08-16T08:10:36Z</time>
      </trkpt>
      <trkpt lat="44.85955" lon="2.90756">
        <ele>667.37</ele>
        <time>2022-08-16T08:10:37Z</time>
      </trkpt>
      <trkpt lat="44.8593" lon="2.90821">
        <ele>664.06</ele>
        <time>2022-08-16T08:10:41Z</time>
      </trkpt>
      <trkpt lat="44.85924" lon="2.90836">
        <ele>663.99</ele>
        <time>2022-08-16T08:10:42Z</time>
      </trkpt>
      <trkpt lat="44.85908" lon="2.90877">
        <ele>662.54</ele>
        <time>2022-08-16T08:10:45Z</time>
      </trkpt>
      <trkpt lat="44.85881" lon="2.90929">
        <ele>662.35</ele>
        <time>2022-08-16T08:10:49Z</time>
      </trkpt>
      <trkpt lat="44.85872" lon="2.9094">
        <ele>662.33</ele>
        <time>2022-08-16T08:10:50Z</time>
      </trkpt>
      <trkpt lat="44.85863" lon="2.90949">
        <ele>662.3</ele>
        <time>2022-08-16T08:10:51Z</time>
      </trkpt>
      <trkpt lat="44.85845" lon="2.90965">
        <ele>662.36</ele>
        <time>2022-08-16T08:10:53Z</time>
      </trkpt>
      <trkpt lat="44.85838" lon="2.90973">
        <ele>662.33</ele>
        <time>2022-08-16T08:10:54Z</time>
      </trkpt>
      <trkpt lat="44.85826" lon="2.90985">
        <ele>662.29</ele>
        <time>2022-08-16T08:10:56Z</time>
      </trkpt>
      <trkpt lat="44.8582" lon="2.90988">
        <ele>661.49</ele>
        <time>2022-08-16T08:10:57Z</time>
      </trkpt>
      <trkpt lat="44.85814" lon="2.90987">
        <ele>661.48</ele>
        <time>2022-08-16T08:10:58Z</time>
      </trkpt>
      <trkpt lat="44.8581" lon="2.90983">
        <ele>660.16</ele>
        <time>2022-08-16T08:10:59Z</time>
      </trkpt>
      <trkpt lat="44.85807" lon="2.90978">
        <ele>660.31</ele>
        <time>2022-08-16T08:11:00Z</time>
      </trkpt>
      <trkpt lat="44.85805" lon="2.90974">
        <ele>660.29</ele>
        <time>2022-08-16T08:11:01Z</time>
      </trkpt>
      <trkpt lat="44.85803" lon="2.90969">
        <ele>659.13</ele>
        <time>2022-08-16T08:11:02Z</time>
      </trkpt>
      <trkpt lat="44.85801" lon="2.90966">
        <ele>659.09</ele>
        <time>2022-08-16T08:11:03Z</time>
      </trkpt>
      <trkpt lat="44.85784" lon="2.90915">
        <ele>658.88</ele>
        <time>2022-08-16T08:11:10Z</time>
      </trkpt>
      <trkpt lat="44.85783" lon="2.90904">
        <ele>658.83</ele>
        <time>2022-08-16T08:11:11Z</time>
      </trkpt>
      <trkpt lat="44.85785" lon="2.90894">
        <ele>658.79</ele>
        <time>2022-08-16T08:11:12Z</time>
      </trkpt>
      <trkpt lat="44.85787" lon="2.90885">
        <ele>658.8</ele>
        <time>2022-08-16T08:11:13Z</time>
      </trkpt>
      <trkpt lat="44.85793" lon="2.9088">
        <ele>661.57</ele>
        <time>2022-08-16T08:11:14Z</time>
      </trkpt>
      <trkpt lat="44.85799" lon="2.90874">
        <ele>661.57</ele>
        <time>2022-08-16T08:11:15Z</time>
      </trkpt>
      <trkpt lat="44.85812" lon="2.90859">
        <ele>662.39</ele>
        <time>2022-08-16T08:11:17Z</time>
      </trkpt>
      <trkpt lat="44.85819" lon="2.90848">
        <ele>662.39</ele>
        <time>2022-08-16T08:11:18Z</time>
      </trkpt>
      <trkpt lat="44.85825" lon="2.90836">
        <ele>662.4</ele>
        <time>2022-08-16T08:11:19Z</time>
      </trkpt>
      <trkpt lat="44.8583" lon="2.90821">
        <ele>663.28</ele>
        <time>2022-08-16T08:11:20Z</time>
      </trkpt>
      <trkpt lat="44.85833" lon="2.90805">
        <ele>663.34</ele>
        <time>2022-08-16T08:11:21Z</time>
      </trkpt>
      <trkpt lat="44.85836" lon="2.90788">
        <ele>664.25</ele>
        <time>2022-08-16T08:11:22Z</time>
      </trkpt>
      <trkpt lat="44.85839" lon="2.9077">
        <ele>664.32</ele>
        <time>2022-08-16T08:11:23Z</time>
      </trkpt>
      <trkpt lat="44.85841" lon="2.90732">
        <ele>665.82</ele>
        <time>2022-08-16T08:11:25Z</time>
      </trkpt>
      <trkpt lat="44.8584" lon="2.90711">
        <ele>665.8</ele>
        <time>2022-08-16T08:11:26Z</time>
      </trkpt>
      <trkpt lat="44.85833" lon="2.90634">
        <ele>665.72</ele>
        <time>2022-08-16T08:11:30Z</time>
      </trkpt>
      <trkpt lat="44.85833" lon="2.90603">
        <ele>665.66</ele>
        <time>2022-08-16T08:11:32Z</time>
      </trkpt>
      <trkpt lat="44.85831" lon="2.90588">
        <ele>665.64</ele>
        <time>2022-08-16T08:11:33Z</time>
      </trkpt>
      <trkpt lat="44.85826" lon="2.90573">
        <ele>665.64</ele>
        <time>2022-08-16T08:11:34Z</time>
      </trkpt>
      <trkpt lat="44.85821" lon="2.90557">
        <ele>665.65</ele>
        <time>2022-08-16T08:11:35Z</time>
      </trkpt>
      <trkpt lat="44.85819" lon="2.90541">
        <ele>665.63</ele>
        <time>2022-08-16T08:11:36Z</time>
      </trkpt>
      <trkpt lat="44.85818" lon="2.90524">
        <ele>665.63</ele>
        <time>2022-08-16T08:11:37Z</time>
      </trkpt>
      <trkpt lat="44.85818" lon="2.90506">
        <ele>665.59</ele>
        <time>2022-08-16T08:11:38Z</time>
      </trkpt>
      <trkpt lat="44.85819" lon="2.90488">
        <ele>665.57</ele>
        <time>2022-08-16T08:11:39Z</time>
      </trkpt>
      <trkpt lat="44.85822" lon="2.90404">
        <ele>665.26</ele>
        <time>2022-08-16T08:11:44Z</time>
      </trkpt>
      <trkpt lat="44.85825" lon="2.90389">
        <ele>662.89</ele>
        <time>2022-08-16T08:11:45Z</time>
      </trkpt>
      <trkpt lat="44.85831" lon="2.90375">
        <ele>662.77</ele>
        <time>2022-08-16T08:11:46Z</time>
      </trkpt>
      <trkpt lat="44.85836" lon="2.9036">
        <ele>662.74</ele>
        <time>2022-08-16T08:11:47Z</time>
      </trkpt>
      <trkpt lat="44.85841" lon="2.90345">
        <ele>662.75</ele>
        <time>2022-08-16T08:11:48Z</time>
      </trkpt>
      <trkpt lat="44.85844" lon="2.9033">
        <ele>662.93</ele>
        <time>2022-08-16T08:11:49Z</time>
      </trkpt>
      <trkpt lat="44.85846" lon="2.90313">
        <ele>662.93</ele>
        <time>2022-08-16T08:11:50Z</time>
      </trkpt>
      <trkpt lat="44.85848" lon="2.90296">
        <ele>662.91</ele>
        <time>2022-08-16T08:11:51Z</time>
      </trkpt>
      <trkpt lat="44.85852" lon="2.90244">
        <ele>666.64</ele>
        <time>2022-08-16T08:11:54Z</time>
      </trkpt>
      <trkpt lat="44.85854" lon="2.90227">
        <ele>667.77</ele>
        <time>2022-08-16T08:11:55Z</time>
      </trkpt>
      <trkpt lat="44.85857" lon="2.90211">
        <ele>667.76</ele>
        <time>2022-08-16T08:11:56Z</time>
      </trkpt>
      <trkpt lat="44.85868" lon="2.90161">
        <ele>670.9</ele>
        <time>2022-08-16T08:11:59Z</time>
      </trkpt>
      <trkpt lat="44.85882" lon="2.90092">
        <ele>674.75</ele>
        <time>2022-08-16T08:12:03Z</time>
      </trkpt>
      <trkpt lat="44.85884" lon="2.90074">
        <ele>675.76</ele>
        <time>2022-08-16T08:12:04Z</time>
      </trkpt>
      <trkpt lat="44.85885" lon="2.90058">
        <ele>675.83</ele>
        <time>2022-08-16T08:12:05Z</time>
      </trkpt>
      <trkpt lat="44.85892" lon="2.90003">
        <ele>676.02</ele>
        <time>2022-08-16T08:12:09Z</time>
      </trkpt>
      <trkpt lat="44.85896" lon="2.89992">
        <ele>675.98</ele>
        <time>2022-08-16T08:12:10Z</time>
      </trkpt>
      <trkpt lat="44.85901" lon="2.8998">
        <ele>676</ele>
        <time>2022-08-16T08:12:11Z</time>
      </trkpt>
      <trkpt lat="44.85914" lon="2.89957">
        <ele>677.42</ele>
        <time>2022-08-16T08:12:13Z</time>
      </trkpt>
      <trkpt lat="44.85935" lon="2.89914">
        <ele>679.64</ele>
        <time>2022-08-16T08:12:17Z</time>
      </trkpt>
      <trkpt lat="44.85937" lon="2.89905">
        <ele>680.48</ele>
        <time>2022-08-16T08:12:18Z</time>
      </trkpt>
      <trkpt lat="44.85936" lon="2.89893">
        <ele>680.5</ele>
        <time>2022-08-16T08:12:19Z</time>
      </trkpt>
      <trkpt lat="44.85934" lon="2.89882">
        <ele>680.49</ele>
        <time>2022-08-16T08:12:20Z</time>
      </trkpt>
      <trkpt lat="44.85929" lon="2.89871">
        <ele>680.5</ele>
        <time>2022-08-16T08:12:21Z</time>
      </trkpt>
      <trkpt lat="44.85923" lon="2.89863">
        <ele>680.46</ele>
        <time>2022-08-16T08:12:22Z</time>
      </trkpt>
      <trkpt lat="44.85914" lon="2.89858">
        <ele>680.49</ele>
        <time>2022-08-16T08:12:23Z</time>
      </trkpt>
      <trkpt lat="44.85902" lon="2.89857">
        <ele>680.49</ele>
        <time>2022-08-16T08:12:24Z</time>
      </trkpt>
      <trkpt lat="44.85885" lon="2.89861">
        <ele>680.47</ele>
        <time>2022-08-16T08:12:25Z</time>
      </trkpt>
      <trkpt lat="44.8587" lon="2.89864">
        <ele>680.46</ele>
        <time>2022-08-16T08:12:26Z</time>
      </trkpt>
      <trkpt lat="44.85856" lon="2.89865">
        <ele>680.49</ele>
        <time>2022-08-16T08:12:27Z</time>
      </trkpt>
      <trkpt lat="44.85844" lon="2.89865">
        <ele>678.16</ele>
        <time>2022-08-16T08:12:28Z</time>
      </trkpt>
      <trkpt lat="44.85831" lon="2.89864">
        <ele>676.97</ele>
        <time>2022-08-16T08:12:29Z</time>
      </trkpt>
      <trkpt lat="44.8582" lon="2.89863">
        <ele>676.92</ele>
        <time>2022-08-16T08:12:30Z</time>
      </trkpt>
      <trkpt lat="44.85799" lon="2.89859">
        <ele>675.43</ele>
        <time>2022-08-16T08:12:32Z</time>
      </trkpt>
      <trkpt lat="44.85781" lon="2.89855">
        <ele>674.45</ele>
        <time>2022-08-16T08:12:34Z</time>
      </trkpt>
      <trkpt lat="44.85774" lon="2.89849">
        <ele>673.62</ele>
        <time>2022-08-16T08:12:35Z</time>
      </trkpt>
      <trkpt lat="44.85768" lon="2.89841">
        <ele>673.53</ele>
        <time>2022-08-16T08:12:36Z</time>
      </trkpt>
      <trkpt lat="44.85765" lon="2.89832">
        <ele>672.29</ele>
        <time>2022-08-16T08:12:37Z</time>
      </trkpt>
      <trkpt lat="44.85764" lon="2.89823">
        <ele>672.27</ele>
        <time>2022-08-16T08:12:38Z</time>
      </trkpt>
      <trkpt lat="44.85764" lon="2.89813">
        <ele>672.62</ele>
        <time>2022-08-16T08:12:39Z</time>
      </trkpt>
      <trkpt lat="44.85768" lon="2.89802">
        <ele>671.83</ele>
        <time>2022-08-16T08:12:40Z</time>
      </trkpt>
      <trkpt lat="44.85773" lon="2.89792">
        <ele>671.78</ele>
        <time>2022-08-16T08:12:41Z</time>
      </trkpt>
      <trkpt lat="44.85779" lon="2.89783">
        <ele>670.98</ele>
        <time>2022-08-16T08:12:42Z</time>
      </trkpt>
      <trkpt lat="44.85786" lon="2.89775">
        <ele>670.98</ele>
        <time>2022-08-16T08:12:43Z</time>
      </trkpt>
      <trkpt lat="44.85799" lon="2.89772">
        <ele>670.94</ele>
        <time>2022-08-16T08:12:44Z</time>
      </trkpt>
      <trkpt lat="44.8581" lon="2.89768">
        <ele>670.94</ele>
        <time>2022-08-16T08:12:45Z</time>
      </trkpt>
      <trkpt lat="44.85822" lon="2.89764">
        <ele>670.89</ele>
        <time>2022-08-16T08:12:46Z</time>
      </trkpt>
      <trkpt lat="44.85834" lon="2.89759">
        <ele>669.61</ele>
        <time>2022-08-16T08:12:47Z</time>
      </trkpt>
      <trkpt lat="44.85845" lon="2.89752">
        <ele>669.59</ele>
        <time>2022-08-16T08:12:48Z</time>
      </trkpt>
      <trkpt lat="44.85856" lon="2.89742">
        <ele>669.6</ele>
        <time>2022-08-16T08:12:49Z</time>
      </trkpt>
      <trkpt lat="44.85932" lon="2.89687">
        <ele>667.1</ele>
        <time>2022-08-16T08:12:55Z</time>
      </trkpt>
      <trkpt lat="44.85972" lon="2.89659">
        <ele>663.31</ele>
        <time>2022-08-16T08:12:58Z</time>
      </trkpt>
      <trkpt lat="44.85984" lon="2.89651">
        <ele>663.3</ele>
        <time>2022-08-16T08:12:59Z</time>
      </trkpt>
      <trkpt lat="44.86006" lon="2.89636">
        <ele>662.32</ele>
        <time>2022-08-16T08:13:01Z</time>
      </trkpt>
      <trkpt lat="44.86025" lon="2.89618">
        <ele>661.88</ele>
        <time>2022-08-16T08:13:03Z</time>
      </trkpt>
      <trkpt lat="44.86031" lon="2.89607">
        <ele>661.86</ele>
        <time>2022-08-16T08:13:04Z</time>
      </trkpt>
      <trkpt lat="44.86034" lon="2.89595">
        <ele>661.81</ele>
        <time>2022-08-16T08:13:05Z</time>
      </trkpt>
      <trkpt lat="44.86036" lon="2.89584">
        <ele>660.86</ele>
        <time>2022-08-16T08:13:06Z</time>
      </trkpt>
      <trkpt lat="44.86035" lon="2.89572">
        <ele>660.81</ele>
        <time>2022-08-16T08:13:07Z</time>
      </trkpt>
      <trkpt lat="44.86036" lon="2.89562">
        <ele>660.81</ele>
        <time>2022-08-16T08:13:08Z</time>
      </trkpt>
      <trkpt lat="44.86038" lon="2.89551">
        <ele>660.76</ele>
        <time>2022-08-16T08:13:09Z</time>
      </trkpt>
      <trkpt lat="44.86042" lon="2.89541">
        <ele>660.77</ele>
        <time>2022-08-16T08:13:10Z</time>
      </trkpt>
      <trkpt lat="44.86048" lon="2.89532">
        <ele>660.77</ele>
        <time>2022-08-16T08:13:11Z</time>
      </trkpt>
      <trkpt lat="44.86056" lon="2.89527">
        <ele>660.74</ele>
        <time>2022-08-16T08:13:12Z</time>
      </trkpt>
      <trkpt lat="44.86064" lon="2.89522">
        <ele>660.71</ele>
        <time>2022-08-16T08:13:13Z</time>
      </trkpt>
      <trkpt lat="44.86073" lon="2.89516">
        <ele>660.72</ele>
        <time>2022-08-16T08:13:14Z</time>
      </trkpt>
      <trkpt lat="44.86079" lon="2.89507">
        <ele>660.7</ele>
        <time>2022-08-16T08:13:15Z</time>
      </trkpt>
      <trkpt lat="44.86082" lon="2.89496">
        <ele>660.67</ele>
        <time>2022-08-16T08:13:16Z</time>
      </trkpt>
      <trkpt lat="44.86089" lon="2.89478">
        <ele>659.74</ele>
        <time>2022-08-16T08:13:18Z</time>
      </trkpt>
      <trkpt lat="44.86094" lon="2.89471">
        <ele>662.06</ele>
        <time>2022-08-16T08:13:19Z</time>
      </trkpt>
      <trkpt lat="44.861" lon="2.89466">
        <ele>662.04</ele>
        <time>2022-08-16T08:13:20Z</time>
      </trkpt>
      <trkpt lat="44.86107" lon="2.89463">
        <ele>661.99</ele>
        <time>2022-08-16T08:13:21Z</time>
      </trkpt>
      <trkpt lat="44.86115" lon="2.8946">
        <ele>662.02</ele>
        <time>2022-08-16T08:13:22Z</time>
      </trkpt>
      <trkpt lat="44.86125" lon="2.89456">
        <ele>662.05</ele>
        <time>2022-08-16T08:13:23Z</time>
      </trkpt>
      <trkpt lat="44.86177" lon="2.89428">
        <ele>662.95</ele>
        <time>2022-08-16T08:13:28Z</time>
      </trkpt>
      <trkpt lat="44.86187" lon="2.89426">
        <ele>662.76</ele>
        <time>2022-08-16T08:13:29Z</time>
      </trkpt>
      <trkpt lat="44.86198" lon="2.89427">
        <ele>662.76</ele>
        <time>2022-08-16T08:13:30Z</time>
      </trkpt>
      <trkpt lat="44.86209" lon="2.89428">
        <ele>662.76</ele>
        <time>2022-08-16T08:13:31Z</time>
      </trkpt>
      <trkpt lat="44.86218" lon="2.89431">
        <ele>662.75</ele>
        <time>2022-08-16T08:13:32Z</time>
      </trkpt>
      <trkpt lat="44.86226" lon="2.89435">
        <ele>662.74</ele>
        <time>2022-08-16T08:13:33Z</time>
      </trkpt>
      <trkpt lat="44.86233" lon="2.8944">
        <ele>662.71</ele>
        <time>2022-08-16T08:13:34Z</time>
      </trkpt>
      <trkpt lat="44.86239" lon="2.89447">
        <ele>662.71</ele>
        <time>2022-08-16T08:13:35Z</time>
      </trkpt>
      <trkpt lat="44.86244" lon="2.89454">
        <ele>662.7</ele>
        <time>2022-08-16T08:13:36Z</time>
      </trkpt>
      <trkpt lat="44.86249" lon="2.89463">
        <ele>662.68</ele>
        <time>2022-08-16T08:13:37Z</time>
      </trkpt>
      <trkpt lat="44.86253" lon="2.89471">
        <ele>662.68</ele>
        <time>2022-08-16T08:13:38Z</time>
      </trkpt>
      <trkpt lat="44.86262" lon="2.89489">
        <ele>662.65</ele>
        <time>2022-08-16T08:13:40Z</time>
      </trkpt>
      <trkpt lat="44.86267" lon="2.89497">
        <ele>662.64</ele>
        <time>2022-08-16T08:13:41Z</time>
      </trkpt>
      <trkpt lat="44.86271" lon="2.89504">
        <ele>662.61</ele>
        <time>2022-08-16T08:13:42Z</time>
      </trkpt>
      <trkpt lat="44.86277" lon="2.8951">
        <ele>662.6</ele>
        <time>2022-08-16T08:13:43Z</time>
      </trkpt>
      <trkpt lat="44.86282" lon="2.89516">
        <ele>662.56</ele>
        <time>2022-08-16T08:13:44Z</time>
      </trkpt>
      <trkpt lat="44.86288" lon="2.89521">
        <ele>662.55</ele>
        <time>2022-08-16T08:13:45Z</time>
      </trkpt>
      <trkpt lat="44.86293" lon="2.89525">
        <ele>662.51</ele>
        <time>2022-08-16T08:13:46Z</time>
      </trkpt>
      <trkpt lat="44.86298" lon="2.89528">
        <ele>662.5</ele>
        <time>2022-08-16T08:13:47Z</time>
      </trkpt>
      <trkpt lat="44.86304" lon="2.8953">
        <ele>662.49</ele>
        <time>2022-08-16T08:13:48Z</time>
      </trkpt>
      <trkpt lat="44.8631" lon="2.8953">
        <ele>662.43</ele>
        <time>2022-08-16T08:13:49Z</time>
      </trkpt>
      <trkpt lat="44.86317" lon="2.89529">
        <ele>662.42</ele>
        <time>2022-08-16T08:13:50Z</time>
      </trkpt>
      <trkpt lat="44.86323" lon="2.89525">
        <ele>662.39</ele>
        <time>2022-08-16T08:13:51Z</time>
      </trkpt>
      <trkpt lat="44.8633" lon="2.89518">
        <ele>662.43</ele>
        <time>2022-08-16T08:13:52Z</time>
      </trkpt>
      <trkpt lat="44.86336" lon="2.89509">
        <ele>660.11</ele>
        <time>2022-08-16T08:13:53Z</time>
      </trkpt>
      <trkpt lat="44.86341" lon="2.89499">
        <ele>660.1</ele>
        <time>2022-08-16T08:13:54Z</time>
      </trkpt>
      <trkpt lat="44.86347" lon="2.89488">
        <ele>660.1</ele>
        <time>2022-08-16T08:13:55Z</time>
      </trkpt>
      <trkpt lat="44.86373" lon="2.89432">
        <ele>660.03</ele>
        <time>2022-08-16T08:14:00Z</time>
      </trkpt>
      <trkpt lat="44.86376" lon="2.89421">
        <ele>660.01</ele>
        <time>2022-08-16T08:14:01Z</time>
      </trkpt>
      <trkpt lat="44.86378" lon="2.89407">
        <ele>659.99</ele>
        <time>2022-08-16T08:14:02Z</time>
      </trkpt>
      <trkpt lat="44.86384" lon="2.89343">
        <ele>659.96</ele>
        <time>2022-08-16T08:14:06Z</time>
      </trkpt>
      <trkpt lat="44.86399" lon="2.89283">
        <ele>659.07</ele>
        <time>2022-08-16T08:14:10Z</time>
      </trkpt>
      <trkpt lat="44.86422" lon="2.89231">
        <ele>656.92</ele>
        <time>2022-08-16T08:14:16Z</time>
      </trkpt>
      <trkpt lat="44.86425" lon="2.89229">
        <ele>656.88</ele>
        <time>2022-08-16T08:14:17Z</time>
      </trkpt>
      <trkpt lat="44.86427" lon="2.89229">
        <ele>656.06</ele>
        <time>2022-08-16T08:14:18Z</time>
      </trkpt>
      <trkpt lat="44.86428" lon="2.89231">
        <ele>656.04</ele>
        <time>2022-08-16T08:14:19Z</time>
      </trkpt>
      <trkpt lat="44.86427" lon="2.89233">
        <ele>656.05</ele>
        <time>2022-08-16T08:14:20Z</time>
      </trkpt>
      <trkpt lat="44.86425" lon="2.89238">
        <ele>656</ele>
        <time>2022-08-16T08:14:21Z</time>
      </trkpt>
      <trkpt lat="44.86422" lon="2.89243">
        <ele>656.02</ele>
        <time>2022-08-16T08:14:22Z</time>
      </trkpt>
      <trkpt lat="44.86413" lon="2.89259">
        <ele>655.9</ele>
        <time>2022-08-16T08:14:24Z</time>
      </trkpt>
      <trkpt lat="44.8641" lon="2.89268">
        <ele>654.85</ele>
        <time>2022-08-16T08:14:25Z</time>
      </trkpt>
      <trkpt lat="44.86407" lon="2.89277">
        <ele>654.81</ele>
        <time>2022-08-16T08:14:26Z</time>
      </trkpt>
      <trkpt lat="44.864" lon="2.89302">
        <ele>653.56</ele>
        <time>2022-08-16T08:14:29Z</time>
      </trkpt>
      <trkpt lat="44.86398" lon="2.89308">
        <ele>651.8</ele>
        <time>2022-08-16T08:14:30Z</time>
      </trkpt>
      <trkpt lat="44.86398" lon="2.89312">
        <ele>651.75</ele>
        <time>2022-08-16T08:14:31Z</time>
      </trkpt>
      <trkpt lat="44.86399" lon="2.89315">
        <ele>651.74</ele>
        <time>2022-08-16T08:14:32Z</time>
      </trkpt>
      <trkpt lat="44.86401" lon="2.89315">
        <ele>650.68</ele>
        <time>2022-08-16T08:14:33Z</time>
      </trkpt>
      <trkpt lat="44.86403" lon="2.89313">
        <ele>650.66</ele>
        <time>2022-08-16T08:14:34Z</time>
      </trkpt>
      <trkpt lat="44.86405" lon="2.89308">
        <ele>650.65</ele>
        <time>2022-08-16T08:14:35Z</time>
      </trkpt>
      <trkpt lat="44.86408" lon="2.89301">
        <ele>650.67</ele>
        <time>2022-08-16T08:14:36Z</time>
      </trkpt>
      <trkpt lat="44.86411" lon="2.89294">
        <ele>650.64</ele>
        <time>2022-08-16T08:14:37Z</time>
      </trkpt>
      <trkpt lat="44.86413" lon="2.89287">
        <ele>649.64</ele>
        <time>2022-08-16T08:14:38Z</time>
      </trkpt>
      <trkpt lat="44.86416" lon="2.89281">
        <ele>649.57</ele>
        <time>2022-08-16T08:14:39Z</time>
      </trkpt>
      <trkpt lat="44.86418" lon="2.89276">
        <ele>649.6</ele>
        <time>2022-08-16T08:14:40Z</time>
      </trkpt>
      <trkpt lat="44.8642" lon="2.89273">
        <ele>649.55</ele>
        <time>2022-08-16T08:14:41Z</time>
      </trkpt>
      <trkpt lat="44.86423" lon="2.8927">
        <ele>649.78</ele>
        <time>2022-08-16T08:14:42Z</time>
      </trkpt>
      <trkpt lat="44.86426" lon="2.89267">
        <ele>649.77</ele>
        <time>2022-08-16T08:14:43Z</time>
      </trkpt>
      <trkpt lat="44.86429" lon="2.89265">
        <ele>648.9</ele>
        <time>2022-08-16T08:14:44Z</time>
      </trkpt>
      <trkpt lat="44.86432" lon="2.89263">
        <ele>648.85</ele>
        <time>2022-08-16T08:14:45Z</time>
      </trkpt>
      <trkpt lat="44.86435" lon="2.89262">
        <ele>648.86</ele>
        <time>2022-08-16T08:14:46Z</time>
      </trkpt>
      <trkpt lat="44.86437" lon="2.89262">
        <ele>648.85</ele>
        <time>2022-08-16T08:14:47Z</time>
      </trkpt>
      <trkpt lat="44.8644" lon="2.89262">
        <ele>647.83</ele>
        <time>2022-08-16T08:14:57Z</time>
      </trkpt>
      <trkpt lat="44.86443" lon="2.89265">
        <ele>647.32</ele>
        <time>2022-08-16T08:15:41Z</time>
      </trkpt>
      <trkpt lat="44.86444" lon="2.89263">
        <ele>647.16</ele>
        <time>2022-08-16T08:16:00Z</time>
      </trkpt>
      <trkpt lat="44.86445" lon="2.8926">
        <ele>647.15</ele>
        <time>2022-08-16T08:16:01Z</time>
      </trkpt>
      <trkpt lat="44.86445" lon="2.89257">
        <ele>646.33</ele>
        <time>2022-08-16T08:16:02Z</time>
      </trkpt>
      <trkpt lat="44.86441" lon="2.89253">
        <ele>646.32</ele>
        <time>2022-08-16T08:16:04Z</time>
      </trkpt>
      <trkpt lat="44.86438" lon="2.89254">
        <ele>646.33</ele>
        <time>2022-08-16T08:16:05Z</time>
      </trkpt>
      <trkpt lat="44.86435" lon="2.89256">
        <ele>646.32</ele>
        <time>2022-08-16T08:16:06Z</time>
      </trkpt>
      <trkpt lat="44.86431" lon="2.8926">
        <ele>646.32</ele>
        <time>2022-08-16T08:16:07Z</time>
      </trkpt>
      <trkpt lat="44.86427" lon="2.89266">
        <ele>646.32</ele>
        <time>2022-08-16T08:16:08Z</time>
      </trkpt>
      <trkpt lat="44.86412" lon="2.89289">
        <ele>648.64</ele>
        <time>2022-08-16T08:16:11Z</time>
      </trkpt>
      <trkpt lat="44.86408" lon="2.89299">
        <ele>648.69</ele>
        <time>2022-08-16T08:16:12Z</time>
      </trkpt>
      <trkpt lat="44.86406" lon="2.89308">
        <ele>648.67</ele>
        <time>2022-08-16T08:16:13Z</time>
      </trkpt>
      <trkpt lat="44.86399" lon="2.89325">
        <ele>649.8</ele>
        <time>2022-08-16T08:16:16Z</time>
      </trkpt>
      <trkpt lat="44.86397" lon="2.89324">
        <ele>649.82</ele>
        <time>2022-08-16T08:16:17Z</time>
      </trkpt>
      <trkpt lat="44.86396" lon="2.89322">
        <ele>649.8</ele>
        <time>2022-08-16T08:16:18Z</time>
      </trkpt>
      <trkpt lat="44.86396" lon="2.89317">
        <ele>650.54</ele>
        <time>2022-08-16T08:16:19Z</time>
      </trkpt>
      <trkpt lat="44.86398" lon="2.8931">
        <ele>651.57</ele>
        <time>2022-08-16T08:16:20Z</time>
      </trkpt>
      <trkpt lat="44.86401" lon="2.89301">
        <ele>651.6</ele>
        <time>2022-08-16T08:16:21Z</time>
      </trkpt>
      <trkpt lat="44.86412" lon="2.89263">
        <ele>654.84</ele>
        <time>2022-08-16T08:16:24Z</time>
      </trkpt>
      <trkpt lat="44.86417" lon="2.89251">
        <ele>654.9</ele>
        <time>2022-08-16T08:16:25Z</time>
      </trkpt>
      <trkpt lat="44.86427" lon="2.89229">
        <ele>656</ele>
        <time>2022-08-16T08:16:27Z</time>
      </trkpt>
      <trkpt lat="44.86444" lon="2.8919">
        <ele>659.6</ele>
        <time>2022-08-16T08:16:30Z</time>
      </trkpt>
      <trkpt lat="44.8645" lon="2.89177">
        <ele>659.59</ele>
        <time>2022-08-16T08:16:31Z</time>
      </trkpt>
      <trkpt lat="44.86464" lon="2.89149">
        <ele>661.34</ele>
        <time>2022-08-16T08:16:33Z</time>
      </trkpt>
      <trkpt lat="44.8649" lon="2.89093">
        <ele>664.49</ele>
        <time>2022-08-16T08:16:37Z</time>
      </trkpt>
      <trkpt lat="44.86506" lon="2.89067">
        <ele>665.4</ele>
        <time>2022-08-16T08:16:39Z</time>
      </trkpt>
      <trkpt lat="44.86521" lon="2.8904">
        <ele>666.93</ele>
        <time>2022-08-16T08:16:41Z</time>
      </trkpt>
      <trkpt lat="44.86528" lon="2.89025">
        <ele>668.25</ele>
        <time>2022-08-16T08:16:42Z</time>
      </trkpt>
      <trkpt lat="44.86533" lon="2.8901">
        <ele>669.39</ele>
        <time>2022-08-16T08:16:43Z</time>
      </trkpt>
      <trkpt lat="44.86536" lon="2.88993">
        <ele>669.37</ele>
        <time>2022-08-16T08:16:44Z</time>
      </trkpt>
      <trkpt lat="44.86538" lon="2.88976">
        <ele>670.91</ele>
        <time>2022-08-16T08:16:45Z</time>
      </trkpt>
      <trkpt lat="44.86539" lon="2.88959">
        <ele>671.69</ele>
        <time>2022-08-16T08:16:46Z</time>
      </trkpt>
      <trkpt lat="44.8654" lon="2.88943">
        <ele>671.76</ele>
        <time>2022-08-16T08:16:47Z</time>
      </trkpt>
      <trkpt lat="44.86542" lon="2.88928">
        <ele>671.75</ele>
        <time>2022-08-16T08:16:48Z</time>
      </trkpt>
      <trkpt lat="44.86547" lon="2.88915">
        <ele>671.74</ele>
        <time>2022-08-16T08:16:49Z</time>
      </trkpt>
      <trkpt lat="44.86553" lon="2.88903">
        <ele>672.68</ele>
        <time>2022-08-16T08:16:50Z</time>
      </trkpt>
      <trkpt lat="44.86562" lon="2.88896">
        <ele>673.52</ele>
        <time>2022-08-16T08:16:51Z</time>
      </trkpt>
      <trkpt lat="44.86572" lon="2.88893">
        <ele>674.45</ele>
        <time>2022-08-16T08:16:52Z</time>
      </trkpt>
      <trkpt lat="44.86583" lon="2.88893">
        <ele>674.47</ele>
        <time>2022-08-16T08:16:53Z</time>
      </trkpt>
      <trkpt lat="44.86593" lon="2.88896">
        <ele>675.58</ele>
        <time>2022-08-16T08:16:54Z</time>
      </trkpt>
      <trkpt lat="44.86603" lon="2.889">
        <ele>676.5</ele>
        <time>2022-08-16T08:16:55Z</time>
      </trkpt>
      <trkpt lat="44.86613" lon="2.88905">
        <ele>677.48</ele>
        <time>2022-08-16T08:16:56Z</time>
      </trkpt>
      <trkpt lat="44.86623" lon="2.8891">
        <ele>677.54</ele>
        <time>2022-08-16T08:16:57Z</time>
      </trkpt>
      <trkpt lat="44.86633" lon="2.88911">
        <ele>678.47</ele>
        <time>2022-08-16T08:16:58Z</time>
      </trkpt>
      <trkpt lat="44.86644" lon="2.88911">
        <ele>679.48</ele>
        <time>2022-08-16T08:16:59Z</time>
      </trkpt>
      <trkpt lat="44.86654" lon="2.88908">
        <ele>680.45</ele>
        <time>2022-08-16T08:17:00Z</time>
      </trkpt>
      <trkpt lat="44.86677" lon="2.88901">
        <ele>681.43</ele>
        <time>2022-08-16T08:17:02Z</time>
      </trkpt>
      <trkpt lat="44.86688" lon="2.88896">
        <ele>682.61</ele>
        <time>2022-08-16T08:17:03Z</time>
      </trkpt>
      <trkpt lat="44.8671" lon="2.88882">
        <ele>684.01</ele>
        <time>2022-08-16T08:17:05Z</time>
      </trkpt>
      <trkpt lat="44.86744" lon="2.88861">
        <ele>687.51</ele>
        <time>2022-08-16T08:17:08Z</time>
      </trkpt>
      <trkpt lat="44.86753" lon="2.88855">
        <ele>687.5</ele>
        <time>2022-08-16T08:17:09Z</time>
      </trkpt>
      <trkpt lat="44.86762" lon="2.88849">
        <ele>688.38</ele>
        <time>2022-08-16T08:17:10Z</time>
      </trkpt>
      <trkpt lat="44.86767" lon="2.8884">
        <ele>688.42</ele>
        <time>2022-08-16T08:17:11Z</time>
      </trkpt>
      <trkpt lat="44.86771" lon="2.88831">
        <ele>688.42</ele>
        <time>2022-08-16T08:17:12Z</time>
      </trkpt>
      <trkpt lat="44.86771" lon="2.8882">
        <ele>688.41</ele>
        <time>2022-08-16T08:17:13Z</time>
      </trkpt>
      <trkpt lat="44.86769" lon="2.88809">
        <ele>690.12</ele>
        <time>2022-08-16T08:17:14Z</time>
      </trkpt>
      <trkpt lat="44.86764" lon="2.88798">
        <ele>690.09</ele>
        <time>2022-08-16T08:17:15Z</time>
      </trkpt>
      <trkpt lat="44.86757" lon="2.88787">
        <ele>691.65</ele>
        <time>2022-08-16T08:17:16Z</time>
      </trkpt>
      <trkpt lat="44.86748" lon="2.88775">
        <ele>692.62</ele>
        <time>2022-08-16T08:17:17Z</time>
      </trkpt>
      <trkpt lat="44.86739" lon="2.88762">
        <ele>692.87</ele>
        <time>2022-08-16T08:17:18Z</time>
      </trkpt>
      <trkpt lat="44.86721" lon="2.88736">
        <ele>694.85</ele>
        <time>2022-08-16T08:17:20Z</time>
      </trkpt>
      <trkpt lat="44.8671" lon="2.88725">
        <ele>696.04</ele>
        <time>2022-08-16T08:17:21Z</time>
      </trkpt>
      <trkpt lat="44.86699" lon="2.88715">
        <ele>696.08</ele>
        <time>2022-08-16T08:17:22Z</time>
      </trkpt>
      <trkpt lat="44.86665" lon="2.88688">
        <ele>698.63</ele>
        <time>2022-08-16T08:17:25Z</time>
      </trkpt>
      <trkpt lat="44.86656" lon="2.88677">
        <ele>699.6</ele>
        <time>2022-08-16T08:17:26Z</time>
      </trkpt>
      <trkpt lat="44.8665" lon="2.88664">
        <ele>699.6</ele>
        <time>2022-08-16T08:17:27Z</time>
      </trkpt>
      <trkpt lat="44.86638" lon="2.88632">
        <ele>700.43</ele>
        <time>2022-08-16T08:17:30Z</time>
      </trkpt>
      <trkpt lat="44.86633" lon="2.88624">
        <ele>701.29</ele>
        <time>2022-08-16T08:17:31Z</time>
      </trkpt>
      <trkpt lat="44.86598" lon="2.88576">
        <ele>701.23</ele>
        <time>2022-08-16T08:17:37Z</time>
      </trkpt>
      <trkpt lat="44.86534" lon="2.88521">
        <ele>699.74</ele>
        <time>2022-08-16T08:17:44Z</time>
      </trkpt>
      <trkpt lat="44.86506" lon="2.88501">
        <ele>697.9</ele>
        <time>2022-08-16T08:17:47Z</time>
      </trkpt>
      <trkpt lat="44.86498" lon="2.88494">
        <ele>696.75</ele>
        <time>2022-08-16T08:17:48Z</time>
      </trkpt>
      <trkpt lat="44.86493" lon="2.88486">
        <ele>695.83</ele>
        <time>2022-08-16T08:17:49Z</time>
      </trkpt>
      <trkpt lat="44.86491" lon="2.88474">
        <ele>695.81</ele>
        <time>2022-08-16T08:17:50Z</time>
      </trkpt>
      <trkpt lat="44.86495" lon="2.8846">
        <ele>694.81</ele>
        <time>2022-08-16T08:17:51Z</time>
      </trkpt>
      <trkpt lat="44.86498" lon="2.8845">
        <ele>694.82</ele>
        <time>2022-08-16T08:17:52Z</time>
      </trkpt>
      <trkpt lat="44.86505" lon="2.88442">
        <ele>694.82</ele>
        <time>2022-08-16T08:17:53Z</time>
      </trkpt>
      <trkpt lat="44.86515" lon="2.88436">
        <ele>693.94</ele>
        <time>2022-08-16T08:17:54Z</time>
      </trkpt>
      <trkpt lat="44.86524" lon="2.88431">
        <ele>693.91</ele>
        <time>2022-08-16T08:17:55Z</time>
      </trkpt>
      <trkpt lat="44.86532" lon="2.88424">
        <ele>693.91</ele>
        <time>2022-08-16T08:17:56Z</time>
      </trkpt>
      <trkpt lat="44.86539" lon="2.88415">
        <ele>692.91</ele>
        <time>2022-08-16T08:17:57Z</time>
      </trkpt>
      <trkpt lat="44.86545" lon="2.88404">
        <ele>692.91</ele>
        <time>2022-08-16T08:17:58Z</time>
      </trkpt>
      <trkpt lat="44.86549" lon="2.8839">
        <ele>692.85</ele>
        <time>2022-08-16T08:17:59Z</time>
      </trkpt>
      <trkpt lat="44.86552" lon="2.88376">
        <ele>692.87</ele>
        <time>2022-08-16T08:18:00Z</time>
      </trkpt>
      <trkpt lat="44.86557" lon="2.88363">
        <ele>691.42</ele>
        <time>2022-08-16T08:18:01Z</time>
      </trkpt>
      <trkpt lat="44.86562" lon="2.88354">
        <ele>690.5</ele>
        <time>2022-08-16T08:18:02Z</time>
      </trkpt>
      <trkpt lat="44.86567" lon="2.88349">
        <ele>690.53</ele>
        <time>2022-08-16T08:18:03Z</time>
      </trkpt>
      <trkpt lat="44.86575" lon="2.88343">
        <ele>690.5</ele>
        <time>2022-08-16T08:18:04Z</time>
      </trkpt>
      <trkpt lat="44.86583" lon="2.88333">
        <ele>690.5</ele>
        <time>2022-08-16T08:18:05Z</time>
      </trkpt>
      <trkpt lat="44.86588" lon="2.88321">
        <ele>690.54</ele>
        <time>2022-08-16T08:18:06Z</time>
      </trkpt>
      <trkpt lat="44.86592" lon="2.88307">
        <ele>690.52</ele>
        <time>2022-08-16T08:18:07Z</time>
      </trkpt>
      <trkpt lat="44.86595" lon="2.88292">
        <ele>690.8</ele>
        <time>2022-08-16T08:18:08Z</time>
      </trkpt>
      <trkpt lat="44.86597" lon="2.88275">
        <ele>689.98</ele>
        <time>2022-08-16T08:18:09Z</time>
      </trkpt>
      <trkpt lat="44.86613" lon="2.88165">
        <ele>687.28</ele>
        <time>2022-08-16T08:18:17Z</time>
      </trkpt>
      <trkpt lat="44.86613" lon="2.88157">
        <ele>687.25</ele>
        <time>2022-08-16T08:18:18Z</time>
      </trkpt>
      <trkpt lat="44.86611" lon="2.88149">
        <ele>687.25</ele>
        <time>2022-08-16T08:18:19Z</time>
      </trkpt>
      <trkpt lat="44.86607" lon="2.8814">
        <ele>686.17</ele>
        <time>2022-08-16T08:18:20Z</time>
      </trkpt>
      <trkpt lat="44.86602" lon="2.88132">
        <ele>686.15</ele>
        <time>2022-08-16T08:18:21Z</time>
      </trkpt>
      <trkpt lat="44.86596" lon="2.88124">
        <ele>686.13</ele>
        <time>2022-08-16T08:18:22Z</time>
      </trkpt>
      <trkpt lat="44.86591" lon="2.88116">
        <ele>686.12</ele>
        <time>2022-08-16T08:18:23Z</time>
      </trkpt>
      <trkpt lat="44.86588" lon="2.88107">
        <ele>685.18</ele>
        <time>2022-08-16T08:18:24Z</time>
      </trkpt>
      <trkpt lat="44.86587" lon="2.88098">
        <ele>685.13</ele>
        <time>2022-08-16T08:18:25Z</time>
      </trkpt>
      <trkpt lat="44.8659" lon="2.88091">
        <ele>683.85</ele>
        <time>2022-08-16T08:18:26Z</time>
      </trkpt>
      <trkpt lat="44.86596" lon="2.88086">
        <ele>683.85</ele>
        <time>2022-08-16T08:18:27Z</time>
      </trkpt>
      <trkpt lat="44.86606" lon="2.88086">
        <ele>683.84</ele>
        <time>2022-08-16T08:18:28Z</time>
      </trkpt>
      <trkpt lat="44.86616" lon="2.88086">
        <ele>683.84</ele>
        <time>2022-08-16T08:18:29Z</time>
      </trkpt>
      <trkpt lat="44.86628" lon="2.88088">
        <ele>683.87</ele>
        <time>2022-08-16T08:18:30Z</time>
      </trkpt>
      <trkpt lat="44.8665" lon="2.88096">
        <ele>683.03</ele>
        <time>2022-08-16T08:18:32Z</time>
      </trkpt>
      <trkpt lat="44.8666" lon="2.881">
        <ele>683.03</ele>
        <time>2022-08-16T08:18:33Z</time>
      </trkpt>
      <trkpt lat="44.8667" lon="2.88104">
        <ele>682.16</ele>
        <time>2022-08-16T08:18:34Z</time>
      </trkpt>
      <trkpt lat="44.8668" lon="2.88106">
        <ele>682.16</ele>
        <time>2022-08-16T08:18:35Z</time>
      </trkpt>
      <trkpt lat="44.86688" lon="2.88103">
        <ele>682.12</ele>
        <time>2022-08-16T08:18:36Z</time>
      </trkpt>
      <trkpt lat="44.86696" lon="2.88096">
        <ele>682.13</ele>
        <time>2022-08-16T08:18:37Z</time>
      </trkpt>
      <trkpt lat="44.86703" lon="2.88087">
        <ele>682.13</ele>
        <time>2022-08-16T08:18:38Z</time>
      </trkpt>
      <trkpt lat="44.86709" lon="2.88079">
        <ele>680.79</ele>
        <time>2022-08-16T08:18:39Z</time>
      </trkpt>
      <trkpt lat="44.86716" lon="2.88072">
        <ele>680.78</ele>
        <time>2022-08-16T08:18:40Z</time>
      </trkpt>
      <trkpt lat="44.86721" lon="2.88064">
        <ele>679.71</ele>
        <time>2022-08-16T08:18:41Z</time>
      </trkpt>
      <trkpt lat="44.86725" lon="2.88056">
        <ele>679.72</ele>
        <time>2022-08-16T08:18:42Z</time>
      </trkpt>
      <trkpt lat="44.86728" lon="2.88045">
        <ele>679.68</ele>
        <time>2022-08-16T08:18:43Z</time>
      </trkpt>
      <trkpt lat="44.86733" lon="2.88018">
        <ele>678.22</ele>
        <time>2022-08-16T08:18:45Z</time>
      </trkpt>
      <trkpt lat="44.86738" lon="2.88007">
        <ele>676.88</ele>
        <time>2022-08-16T08:18:46Z</time>
      </trkpt>
      <trkpt lat="44.86743" lon="2.88">
        <ele>676.02</ele>
        <time>2022-08-16T08:18:47Z</time>
      </trkpt>
      <trkpt lat="44.8675" lon="2.87997">
        <ele>675.93</ele>
        <time>2022-08-16T08:18:48Z</time>
      </trkpt>
      <trkpt lat="44.86758" lon="2.87996">
        <ele>674.71</ele>
        <time>2022-08-16T08:18:49Z</time>
      </trkpt>
      <trkpt lat="44.86765" lon="2.87998">
        <ele>673.8</ele>
        <time>2022-08-16T08:18:50Z</time>
      </trkpt>
      <trkpt lat="44.86773" lon="2.87996">
        <ele>672.57</ele>
        <time>2022-08-16T08:18:51Z</time>
      </trkpt>
      <trkpt lat="44.86781" lon="2.87992">
        <ele>672.65</ele>
        <time>2022-08-16T08:18:52Z</time>
      </trkpt>
      <trkpt lat="44.86787" lon="2.87984">
        <ele>672.55</ele>
        <time>2022-08-16T08:18:53Z</time>
      </trkpt>
      <trkpt lat="44.8679" lon="2.87973">
        <ele>671.37</ele>
        <time>2022-08-16T08:18:54Z</time>
      </trkpt>
      <trkpt lat="44.86789" lon="2.8796">
        <ele>671.28</ele>
        <time>2022-08-16T08:18:55Z</time>
      </trkpt>
      <trkpt lat="44.86787" lon="2.87946">
        <ele>670.37</ele>
        <time>2022-08-16T08:18:56Z</time>
      </trkpt>
      <trkpt lat="44.86785" lon="2.87933">
        <ele>669.45</ele>
        <time>2022-08-16T08:18:57Z</time>
      </trkpt>
      <trkpt lat="44.86786" lon="2.87919">
        <ele>669.44</ele>
        <time>2022-08-16T08:18:58Z</time>
      </trkpt>
      <trkpt lat="44.86789" lon="2.87908">
        <ele>668.51</ele>
        <time>2022-08-16T08:18:59Z</time>
      </trkpt>
      <trkpt lat="44.86793" lon="2.87898">
        <ele>668.51</ele>
        <time>2022-08-16T08:19:00Z</time>
      </trkpt>
      <trkpt lat="44.86798" lon="2.8789">
        <ele>668.47</ele>
        <time>2022-08-16T08:19:01Z</time>
      </trkpt>
      <trkpt lat="44.86805" lon="2.87882">
        <ele>668.42</ele>
        <time>2022-08-16T08:19:02Z</time>
      </trkpt>
      <trkpt lat="44.86813" lon="2.87874">
        <ele>668.43</ele>
        <time>2022-08-16T08:19:03Z</time>
      </trkpt>
      <trkpt lat="44.86821" lon="2.87866">
        <ele>668.29</ele>
        <time>2022-08-16T08:19:04Z</time>
      </trkpt>
      <trkpt lat="44.86828" lon="2.87856">
        <ele>668.34</ele>
        <time>2022-08-16T08:19:05Z</time>
      </trkpt>
      <trkpt lat="44.86834" lon="2.87843">
        <ele>668.37</ele>
        <time>2022-08-16T08:19:06Z</time>
      </trkpt>
      <trkpt lat="44.86839" lon="2.87829">
        <ele>670.7</ele>
        <time>2022-08-16T08:19:07Z</time>
      </trkpt>
      <trkpt lat="44.86844" lon="2.87815">
        <ele>670.74</ele>
        <time>2022-08-16T08:19:08Z</time>
      </trkpt>
      <trkpt lat="44.86867" lon="2.87739">
        <ele>671.66</ele>
        <time>2022-08-16T08:19:13Z</time>
      </trkpt>
      <trkpt lat="44.86867" lon="2.87724">
        <ele>671.66</ele>
        <time>2022-08-16T08:19:14Z</time>
      </trkpt>
      <trkpt lat="44.86863" lon="2.87711">
        <ele>671.7</ele>
        <time>2022-08-16T08:19:15Z</time>
      </trkpt>
      <trkpt lat="44.86856" lon="2.87685">
        <ele>671.72</ele>
        <time>2022-08-16T08:19:17Z</time>
      </trkpt>
      <trkpt lat="44.86858" lon="2.87671">
        <ele>673.01</ele>
        <time>2022-08-16T08:19:18Z</time>
      </trkpt>
      <trkpt lat="44.86861" lon="2.87658">
        <ele>673.05</ele>
        <time>2022-08-16T08:19:19Z</time>
      </trkpt>
      <trkpt lat="44.86875" lon="2.87612">
        <ele>673.62</ele>
        <time>2022-08-16T08:19:22Z</time>
      </trkpt>
      <trkpt lat="44.86887" lon="2.87567">
        <ele>673.57</ele>
        <time>2022-08-16T08:19:25Z</time>
      </trkpt>
      <trkpt lat="44.86893" lon="2.87556">
        <ele>673.56</ele>
        <time>2022-08-16T08:19:26Z</time>
      </trkpt>
      <trkpt lat="44.86899" lon="2.87545">
        <ele>673.52</ele>
        <time>2022-08-16T08:19:27Z</time>
      </trkpt>
      <trkpt lat="44.86904" lon="2.87531">
        <ele>673.48</ele>
        <time>2022-08-16T08:19:28Z</time>
      </trkpt>
      <trkpt lat="44.86908" lon="2.87515">
        <ele>673.46</ele>
        <time>2022-08-16T08:19:29Z</time>
      </trkpt>
      <trkpt lat="44.86913" lon="2.875">
        <ele>673.45</ele>
        <time>2022-08-16T08:19:30Z</time>
      </trkpt>
      <trkpt lat="44.86919" lon="2.87484">
        <ele>673.46</ele>
        <time>2022-08-16T08:19:31Z</time>
      </trkpt>
      <trkpt lat="44.8694" lon="2.87427">
        <ele>673.33</ele>
        <time>2022-08-16T08:19:35Z</time>
      </trkpt>
      <trkpt lat="44.86948" lon="2.87419">
        <ele>673.24</ele>
        <time>2022-08-16T08:19:36Z</time>
      </trkpt>
      <trkpt lat="44.86957" lon="2.87412">
        <ele>673.21</ele>
        <time>2022-08-16T08:19:37Z</time>
      </trkpt>
      <trkpt lat="44.86966" lon="2.87404">
        <ele>673.18</ele>
        <time>2022-08-16T08:19:38Z</time>
      </trkpt>
      <trkpt lat="44.86973" lon="2.87393">
        <ele>673.15</ele>
        <time>2022-08-16T08:19:39Z</time>
      </trkpt>
      <trkpt lat="44.86977" lon="2.87379">
        <ele>673.12</ele>
        <time>2022-08-16T08:19:40Z</time>
      </trkpt>
      <trkpt lat="44.86988" lon="2.87353">
        <ele>674.33</ele>
        <time>2022-08-16T08:19:42Z</time>
      </trkpt>
      <trkpt lat="44.86994" lon="2.87344">
        <ele>674.3</ele>
        <time>2022-08-16T08:19:43Z</time>
      </trkpt>
      <trkpt lat="44.87002" lon="2.87338">
        <ele>674.32</ele>
        <time>2022-08-16T08:19:44Z</time>
      </trkpt>
      <trkpt lat="44.8701" lon="2.87329">
        <ele>674.12</ele>
        <time>2022-08-16T08:19:45Z</time>
      </trkpt>
      <trkpt lat="44.87016" lon="2.87318">
        <ele>674.09</ele>
        <time>2022-08-16T08:19:46Z</time>
      </trkpt>
      <trkpt lat="44.87022" lon="2.87304">
        <ele>674.09</ele>
        <time>2022-08-16T08:19:47Z</time>
      </trkpt>
      <trkpt lat="44.87026" lon="2.87288">
        <ele>674.08</ele>
        <time>2022-08-16T08:19:48Z</time>
      </trkpt>
      <trkpt lat="44.87028" lon="2.8727">
        <ele>674.84</ele>
        <time>2022-08-16T08:19:49Z</time>
      </trkpt>
      <trkpt lat="44.8703" lon="2.87252">
        <ele>674.83</ele>
        <time>2022-08-16T08:19:50Z</time>
      </trkpt>
      <trkpt lat="44.87038" lon="2.872">
        <ele>675.97</ele>
        <time>2022-08-16T08:19:53Z</time>
      </trkpt>
      <trkpt lat="44.87047" lon="2.87158">
        <ele>676.87</ele>
        <time>2022-08-16T08:19:56Z</time>
      </trkpt>
      <trkpt lat="44.87046" lon="2.87145">
        <ele>676.85</ele>
        <time>2022-08-16T08:19:57Z</time>
      </trkpt>
      <trkpt lat="44.87043" lon="2.87133">
        <ele>676.81</ele>
        <time>2022-08-16T08:19:58Z</time>
      </trkpt>
      <trkpt lat="44.87037" lon="2.87124">
        <ele>676.75</ele>
        <time>2022-08-16T08:19:59Z</time>
      </trkpt>
      <trkpt lat="44.87034" lon="2.87113">
        <ele>676.7</ele>
        <time>2022-08-16T08:20:00Z</time>
      </trkpt>
      <trkpt lat="44.87032" lon="2.871">
        <ele>676.65</ele>
        <time>2022-08-16T08:20:01Z</time>
      </trkpt>
      <trkpt lat="44.87032" lon="2.87088">
        <ele>674.03</ele>
        <time>2022-08-16T08:20:02Z</time>
      </trkpt>
      <trkpt lat="44.87038" lon="2.87077">
        <ele>673.93</ele>
        <time>2022-08-16T08:20:03Z</time>
      </trkpt>
      <trkpt lat="44.87045" lon="2.87068">
        <ele>673.9</ele>
        <time>2022-08-16T08:20:04Z</time>
      </trkpt>
      <trkpt lat="44.87052" lon="2.87062">
        <ele>672.74</ele>
        <time>2022-08-16T08:20:05Z</time>
      </trkpt>
      <trkpt lat="44.87062" lon="2.8706">
        <ele>671.35</ele>
        <time>2022-08-16T08:20:06Z</time>
      </trkpt>
      <trkpt lat="44.87072" lon="2.8706">
        <ele>671.31</ele>
        <time>2022-08-16T08:20:07Z</time>
      </trkpt>
      <trkpt lat="44.87092" lon="2.87056">
        <ele>669.75</ele>
        <time>2022-08-16T08:20:09Z</time>
      </trkpt>
      <trkpt lat="44.87101" lon="2.8705">
        <ele>669.68</ele>
        <time>2022-08-16T08:20:10Z</time>
      </trkpt>
      <trkpt lat="44.87107" lon="2.87039">
        <ele>669.97</ele>
        <time>2022-08-16T08:20:11Z</time>
      </trkpt>
      <trkpt lat="44.87111" lon="2.87023">
        <ele>668.62</ele>
        <time>2022-08-16T08:20:12Z</time>
      </trkpt>
      <trkpt lat="44.87114" lon="2.87006">
        <ele>668.59</ele>
        <time>2022-08-16T08:20:13Z</time>
      </trkpt>
      <trkpt lat="44.87116" lon="2.86989">
        <ele>667.48</ele>
        <time>2022-08-16T08:20:14Z</time>
      </trkpt>
      <trkpt lat="44.87126" lon="2.86883">
        <ele>664.93</ele>
        <time>2022-08-16T08:20:20Z</time>
      </trkpt>
      <trkpt lat="44.87127" lon="2.8685">
        <ele>663.43</ele>
        <time>2022-08-16T08:20:22Z</time>
      </trkpt>
      <trkpt lat="44.87129" lon="2.86835">
        <ele>662.18</ele>
        <time>2022-08-16T08:20:23Z</time>
      </trkpt>
      <trkpt lat="44.87131" lon="2.86821">
        <ele>662.16</ele>
        <time>2022-08-16T08:20:24Z</time>
      </trkpt>
      <trkpt lat="44.8714" lon="2.86772">
        <ele>659.73</ele>
        <time>2022-08-16T08:20:28Z</time>
      </trkpt>
      <trkpt lat="44.87147" lon="2.86745">
        <ele>658.44</ele>
        <time>2022-08-16T08:20:31Z</time>
      </trkpt>
      <trkpt lat="44.87159" lon="2.86698">
        <ele>654.71</ele>
        <time>2022-08-16T08:20:39Z</time>
      </trkpt>
      <trkpt lat="44.87162" lon="2.867">
        <ele>654.56</ele>
        <time>2022-08-16T08:20:42Z</time>
      </trkpt>
      <trkpt lat="44.87163" lon="2.867">
        <ele>654.55</ele>
        <time>2022-08-16T08:20:43Z</time>
      </trkpt>
      <trkpt lat="44.87168" lon="2.86704">
        <ele>654.45</ele>
        <time>2022-08-16T08:20:52Z</time>
      </trkpt>
      <trkpt lat="44.87184" lon="2.86707">
        <ele>653.78</ele>
        <time>2022-08-16T08:21:32Z</time>
      </trkpt>
      <trkpt lat="44.87192" lon="2.86707">
        <ele>653.37</ele>
        <time>2022-08-16T08:22:19Z</time>
      </trkpt>
      <trkpt lat="44.87196" lon="2.86709">
        <ele>653.2</ele>
        <time>2022-08-16T08:22:58Z</time>
      </trkpt>
      <trkpt lat="44.872" lon="2.86711">
        <ele>653.25</ele>
        <time>2022-08-16T08:23:44Z</time>
      </trkpt>
      <trkpt lat="44.87202" lon="2.86713">
        <ele>653.41</ele>
        <time>2022-08-16T08:24:21Z</time>
      </trkpt>
      <trkpt lat="44.87197" lon="2.86712">
        <ele>653.58</ele>
        <time>2022-08-16T08:24:59Z</time>
      </trkpt>
      <trkpt lat="44.87194" lon="2.8671">
        <ele>653.72</ele>
        <time>2022-08-16T08:25:29Z</time>
      </trkpt>
      <trkpt lat="44.87194" lon="2.86707">
        <ele>653.79</ele>
        <time>2022-08-16T08:25:37Z</time>
      </trkpt>
      <trkpt lat="44.87194" lon="2.86695">
        <ele>653.8</ele>
        <time>2022-08-16T08:25:41Z</time>
      </trkpt>
      <trkpt lat="44.87196" lon="2.86691">
        <ele>653.77</ele>
        <time>2022-08-16T08:25:42Z</time>
      </trkpt>
      <trkpt lat="44.872" lon="2.8669">
        <ele>653.77</ele>
        <time>2022-08-16T08:25:43Z</time>
      </trkpt>
      <trkpt lat="44.87204" lon="2.86691">
        <ele>653.79</ele>
        <time>2022-08-16T08:25:44Z</time>
      </trkpt>
      <trkpt lat="44.87209" lon="2.86693">
        <ele>653.79</ele>
        <time>2022-08-16T08:25:45Z</time>
      </trkpt>
      <trkpt lat="44.87214" lon="2.86695">
        <ele>653.8</ele>
        <time>2022-08-16T08:25:46Z</time>
      </trkpt>
      <trkpt lat="44.8722" lon="2.86698">
        <ele>653.8</ele>
        <time>2022-08-16T08:25:47Z</time>
      </trkpt>
      <trkpt lat="44.87303" lon="2.86736">
        <ele>653.84</ele>
        <time>2022-08-16T08:25:58Z</time>
      </trkpt>
      <trkpt lat="44.87346" lon="2.86755">
        <ele>653.84</ele>
        <time>2022-08-16T08:26:05Z</time>
      </trkpt>
      <trkpt lat="44.8735" lon="2.86759">
        <ele>653.8</ele>
        <time>2022-08-16T08:26:06Z</time>
      </trkpt>
      <trkpt lat="44.87356" lon="2.86771">
        <ele>653.8</ele>
        <time>2022-08-16T08:26:08Z</time>
      </trkpt>
      <trkpt lat="44.87358" lon="2.86779">
        <ele>653.85</ele>
        <time>2022-08-16T08:26:09Z</time>
      </trkpt>
      <trkpt lat="44.87358" lon="2.86787">
        <ele>653.86</ele>
        <time>2022-08-16T08:26:10Z</time>
      </trkpt>
      <trkpt lat="44.87357" lon="2.86806">
        <ele>653.86</ele>
        <time>2022-08-16T08:26:12Z</time>
      </trkpt>
      <trkpt lat="44.87356" lon="2.86827">
        <ele>656.64</ele>
        <time>2022-08-16T08:26:14Z</time>
      </trkpt>
      <trkpt lat="44.87357" lon="2.86837">
        <ele>656.66</ele>
        <time>2022-08-16T08:26:15Z</time>
      </trkpt>
      <trkpt lat="44.87361" lon="2.86846">
        <ele>657.68</ele>
        <time>2022-08-16T08:26:16Z</time>
      </trkpt>
      <trkpt lat="44.87367" lon="2.86853">
        <ele>657.71</ele>
        <time>2022-08-16T08:26:17Z</time>
      </trkpt>
      <trkpt lat="44.87375" lon="2.86858">
        <ele>658.53</ele>
        <time>2022-08-16T08:26:18Z</time>
      </trkpt>
      <trkpt lat="44.87384" lon="2.8686">
        <ele>658.55</ele>
        <time>2022-08-16T08:26:19Z</time>
      </trkpt>
      <trkpt lat="44.87394" lon="2.86863">
        <ele>658.55</ele>
        <time>2022-08-16T08:26:20Z</time>
      </trkpt>
      <trkpt lat="44.87406" lon="2.86867">
        <ele>658.59</ele>
        <time>2022-08-16T08:26:21Z</time>
      </trkpt>
      <trkpt lat="44.87417" lon="2.86873">
        <ele>658.57</ele>
        <time>2022-08-16T08:26:22Z</time>
      </trkpt>
      <trkpt lat="44.87429" lon="2.86882">
        <ele>658.61</ele>
        <time>2022-08-16T08:26:23Z</time>
      </trkpt>
      <trkpt lat="44.87551" lon="2.86999">
        <ele>658.41</ele>
        <time>2022-08-16T08:26:33Z</time>
      </trkpt>
      <trkpt lat="44.87561" lon="2.87009">
        <ele>658.41</ele>
        <time>2022-08-16T08:26:34Z</time>
      </trkpt>
      <trkpt lat="44.8757" lon="2.87021">
        <ele>658.4</ele>
        <time>2022-08-16T08:26:35Z</time>
      </trkpt>
      <trkpt lat="44.87577" lon="2.87034">
        <ele>658.39</ele>
        <time>2022-08-16T08:26:36Z</time>
      </trkpt>
      <trkpt lat="44.87583" lon="2.8705">
        <ele>658.38</ele>
        <time>2022-08-16T08:26:37Z</time>
      </trkpt>
      <trkpt lat="44.87587" lon="2.87066">
        <ele>658.37</ele>
        <time>2022-08-16T08:26:38Z</time>
      </trkpt>
      <trkpt lat="44.8759" lon="2.87084">
        <ele>658.37</ele>
        <time>2022-08-16T08:26:39Z</time>
      </trkpt>
      <trkpt lat="44.87592" lon="2.87102">
        <ele>658.37</ele>
        <time>2022-08-16T08:26:40Z</time>
      </trkpt>
      <trkpt lat="44.87593" lon="2.8712">
        <ele>658.36</ele>
        <time>2022-08-16T08:26:41Z</time>
      </trkpt>
      <trkpt lat="44.87595" lon="2.87139">
        <ele>658.34</ele>
        <time>2022-08-16T08:26:42Z</time>
      </trkpt>
      <trkpt lat="44.87598" lon="2.87158">
        <ele>658.33</ele>
        <time>2022-08-16T08:26:43Z</time>
      </trkpt>
      <trkpt lat="44.87619" lon="2.87278">
        <ele>658.3</ele>
        <time>2022-08-16T08:26:49Z</time>
      </trkpt>
      <trkpt lat="44.87621" lon="2.87297">
        <ele>658.29</ele>
        <time>2022-08-16T08:26:50Z</time>
      </trkpt>
      <trkpt lat="44.87621" lon="2.87314">
        <ele>655.77</ele>
        <time>2022-08-16T08:26:51Z</time>
      </trkpt>
      <trkpt lat="44.87621" lon="2.8733">
        <ele>655.77</ele>
        <time>2022-08-16T08:26:52Z</time>
      </trkpt>
      <trkpt lat="44.87623" lon="2.87343">
        <ele>655.79</ele>
        <time>2022-08-16T08:26:53Z</time>
      </trkpt>
      <trkpt lat="44.87628" lon="2.87354">
        <ele>655.79</ele>
        <time>2022-08-16T08:26:54Z</time>
      </trkpt>
      <trkpt lat="44.87635" lon="2.87361">
        <ele>655.78</ele>
        <time>2022-08-16T08:26:55Z</time>
      </trkpt>
      <trkpt lat="44.87644" lon="2.87363">
        <ele>655.77</ele>
        <time>2022-08-16T08:26:56Z</time>
      </trkpt>
      <trkpt lat="44.87654" lon="2.87363">
        <ele>655.78</ele>
        <time>2022-08-16T08:26:57Z</time>
      </trkpt>
      <trkpt lat="44.87664" lon="2.87361">
        <ele>655.76</ele>
        <time>2022-08-16T08:26:58Z</time>
      </trkpt>
      <trkpt lat="44.87736" lon="2.8736">
        <ele>653.52</ele>
        <time>2022-08-16T08:27:04Z</time>
      </trkpt>
      <trkpt lat="44.87745" lon="2.87366">
        <ele>653.69</ele>
        <time>2022-08-16T08:27:05Z</time>
      </trkpt>
      <trkpt lat="44.87754" lon="2.87377">
        <ele>653.68</ele>
        <time>2022-08-16T08:27:06Z</time>
      </trkpt>
      <trkpt lat="44.87802" lon="2.87446">
        <ele>657.54</ele>
        <time>2022-08-16T08:27:11Z</time>
      </trkpt>
      <trkpt lat="44.87819" lon="2.87473">
        <ele>658.36</ele>
        <time>2022-08-16T08:27:13Z</time>
      </trkpt>
      <trkpt lat="44.87831" lon="2.87496">
        <ele>660.32</ele>
        <time>2022-08-16T08:27:15Z</time>
      </trkpt>
      <trkpt lat="44.87834" lon="2.87509">
        <ele>660.32</ele>
        <time>2022-08-16T08:27:16Z</time>
      </trkpt>
      <trkpt lat="44.87835" lon="2.87523">
        <ele>661.69</ele>
        <time>2022-08-16T08:27:17Z</time>
      </trkpt>
      <trkpt lat="44.87834" lon="2.87538">
        <ele>661.75</ele>
        <time>2022-08-16T08:27:18Z</time>
      </trkpt>
      <trkpt lat="44.87833" lon="2.87553">
        <ele>663</ele>
        <time>2022-08-16T08:27:19Z</time>
      </trkpt>
      <trkpt lat="44.87833" lon="2.87585">
        <ele>664.93</ele>
        <time>2022-08-16T08:27:21Z</time>
      </trkpt>
      <trkpt lat="44.87836" lon="2.876">
        <ele>665.02</ele>
        <time>2022-08-16T08:27:22Z</time>
      </trkpt>
      <trkpt lat="44.8784" lon="2.87615">
        <ele>666.25</ele>
        <time>2022-08-16T08:27:23Z</time>
      </trkpt>
      <trkpt lat="44.87846" lon="2.87627">
        <ele>666.23</ele>
        <time>2022-08-16T08:27:24Z</time>
      </trkpt>
      <trkpt lat="44.87854" lon="2.87636">
        <ele>666.33</ele>
        <time>2022-08-16T08:27:25Z</time>
      </trkpt>
      <trkpt lat="44.87863" lon="2.87642">
        <ele>667.81</ele>
        <time>2022-08-16T08:27:26Z</time>
      </trkpt>
      <trkpt lat="44.87872" lon="2.87647">
        <ele>668.65</ele>
        <time>2022-08-16T08:27:27Z</time>
      </trkpt>
      <trkpt lat="44.87881" lon="2.87655">
        <ele>668.69</ele>
        <time>2022-08-16T08:27:28Z</time>
      </trkpt>
      <trkpt lat="44.87887" lon="2.87665">
        <ele>669.82</ele>
        <time>2022-08-16T08:27:29Z</time>
      </trkpt>
      <trkpt lat="44.87889" lon="2.87678">
        <ele>670.54</ele>
        <time>2022-08-16T08:27:30Z</time>
      </trkpt>
      <trkpt lat="44.87891" lon="2.87691">
        <ele>670.53</ele>
        <time>2022-08-16T08:27:31Z</time>
      </trkpt>
      <trkpt lat="44.87893" lon="2.87705">
        <ele>672.59</ele>
        <time>2022-08-16T08:27:32Z</time>
      </trkpt>
      <trkpt lat="44.87894" lon="2.87718">
        <ele>672.71</ele>
        <time>2022-08-16T08:27:33Z</time>
      </trkpt>
      <trkpt lat="44.87893" lon="2.87732">
        <ele>672.64</ele>
        <time>2022-08-16T08:27:34Z</time>
      </trkpt>
      <trkpt lat="44.87892" lon="2.87746">
        <ele>674.07</ele>
        <time>2022-08-16T08:27:35Z</time>
      </trkpt>
      <trkpt lat="44.87891" lon="2.87759">
        <ele>674.07</ele>
        <time>2022-08-16T08:27:36Z</time>
      </trkpt>
      <trkpt lat="44.87888" lon="2.87773">
        <ele>675.46</ele>
        <time>2022-08-16T08:27:37Z</time>
      </trkpt>
      <trkpt lat="44.87886" lon="2.87786">
        <ele>676.26</ele>
        <time>2022-08-16T08:27:38Z</time>
      </trkpt>
      <trkpt lat="44.87883" lon="2.87798">
        <ele>676.24</ele>
        <time>2022-08-16T08:27:39Z</time>
      </trkpt>
      <trkpt lat="44.8787" lon="2.87834">
        <ele>678.64</ele>
        <time>2022-08-16T08:27:42Z</time>
      </trkpt>
      <trkpt lat="44.87865" lon="2.87846">
        <ele>680.17</ele>
        <time>2022-08-16T08:27:43Z</time>
      </trkpt>
      <trkpt lat="44.8786" lon="2.87857">
        <ele>680.14</ele>
        <time>2022-08-16T08:27:44Z</time>
      </trkpt>
      <trkpt lat="44.87846" lon="2.87892">
        <ele>683.15</ele>
        <time>2022-08-16T08:27:47Z</time>
      </trkpt>
      <trkpt lat="44.87838" lon="2.87914">
        <ele>684.54</ele>
        <time>2022-08-16T08:27:49Z</time>
      </trkpt>
      <trkpt lat="44.87832" lon="2.8793">
        <ele>685.59</ele>
        <time>2022-08-16T08:27:51Z</time>
      </trkpt>
      <trkpt lat="44.87829" lon="2.87936">
        <ele>685.58</ele>
        <time>2022-08-16T08:27:52Z</time>
      </trkpt>
      <trkpt lat="44.87824" lon="2.8794">
        <ele>685.64</ele>
        <time>2022-08-16T08:27:53Z</time>
      </trkpt>
      <trkpt lat="44.87817" lon="2.87941">
        <ele>685.51</ele>
        <time>2022-08-16T08:27:54Z</time>
      </trkpt>
      <trkpt lat="44.87809" lon="2.87939">
        <ele>686.31</ele>
        <time>2022-08-16T08:27:55Z</time>
      </trkpt>
      <trkpt lat="44.87801" lon="2.87933">
        <ele>686.88</ele>
        <time>2022-08-16T08:27:56Z</time>
      </trkpt>
      <trkpt lat="44.87795" lon="2.87924">
        <ele>686.3</ele>
        <time>2022-08-16T08:27:57Z</time>
      </trkpt>
      <trkpt lat="44.87788" lon="2.87912">
        <ele>687.78</ele>
        <time>2022-08-16T08:27:58Z</time>
      </trkpt>
      <trkpt lat="44.87786" lon="2.87899">
        <ele>689.14</ele>
        <time>2022-08-16T08:27:59Z</time>
      </trkpt>
      <trkpt lat="44.87785" lon="2.87886">
        <ele>689.13</ele>
        <time>2022-08-16T08:28:00Z</time>
      </trkpt>
      <trkpt lat="44.87787" lon="2.87873">
        <ele>690.68</ele>
        <time>2022-08-16T08:28:01Z</time>
      </trkpt>
      <trkpt lat="44.87789" lon="2.87859">
        <ele>690.72</ele>
        <time>2022-08-16T08:28:02Z</time>
      </trkpt>
      <trkpt lat="44.87792" lon="2.87844">
        <ele>692.63</ele>
        <time>2022-08-16T08:28:03Z</time>
      </trkpt>
      <trkpt lat="44.87796" lon="2.87828">
        <ele>692.61</ele>
        <time>2022-08-16T08:28:04Z</time>
      </trkpt>
      <trkpt lat="44.87808" lon="2.87779">
        <ele>696.17</ele>
        <time>2022-08-16T08:28:07Z</time>
      </trkpt>
      <trkpt lat="44.87811" lon="2.87764">
        <ele>696.22</ele>
        <time>2022-08-16T08:28:08Z</time>
      </trkpt>
      <trkpt lat="44.87811" lon="2.8775">
        <ele>697.09</ele>
        <time>2022-08-16T08:28:09Z</time>
      </trkpt>
      <trkpt lat="44.8781" lon="2.87738">
        <ele>697.17</ele>
        <time>2022-08-16T08:28:10Z</time>
      </trkpt>
      <trkpt lat="44.87804" lon="2.87728">
        <ele>698.18</ele>
        <time>2022-08-16T08:28:11Z</time>
      </trkpt>
      <trkpt lat="44.87797" lon="2.87719">
        <ele>699.45</ele>
        <time>2022-08-16T08:28:12Z</time>
      </trkpt>
      <trkpt lat="44.87788" lon="2.87711">
        <ele>699.49</ele>
        <time>2022-08-16T08:28:13Z</time>
      </trkpt>
      <trkpt lat="44.87778" lon="2.87703">
        <ele>700.9</ele>
        <time>2022-08-16T08:28:14Z</time>
      </trkpt>
      <trkpt lat="44.87767" lon="2.87694">
        <ele>701.99</ele>
        <time>2022-08-16T08:28:15Z</time>
      </trkpt>
      <trkpt lat="44.87757" lon="2.87682">
        <ele>703.29</ele>
        <time>2022-08-16T08:28:16Z</time>
      </trkpt>
      <trkpt lat="44.8775" lon="2.87667">
        <ele>704.06</ele>
        <time>2022-08-16T08:28:17Z</time>
      </trkpt>
      <trkpt lat="44.87744" lon="2.87651">
        <ele>705.42</ele>
        <time>2022-08-16T08:28:18Z</time>
      </trkpt>
      <trkpt lat="44.87739" lon="2.87633">
        <ele>706.77</ele>
        <time>2022-08-16T08:28:19Z</time>
      </trkpt>
      <trkpt lat="44.87735" lon="2.87617">
        <ele>706.67</ele>
        <time>2022-08-16T08:28:20Z</time>
      </trkpt>
      <trkpt lat="44.87731" lon="2.87603">
        <ele>707.22</ele>
        <time>2022-08-16T08:28:21Z</time>
      </trkpt>
      <trkpt lat="44.87729" lon="2.87589">
        <ele>707.3</ele>
        <time>2022-08-16T08:28:22Z</time>
      </trkpt>
      <trkpt lat="44.87726" lon="2.87578">
        <ele>708.5</ele>
        <time>2022-08-16T08:28:23Z</time>
      </trkpt>
      <trkpt lat="44.87721" lon="2.8757">
        <ele>708.5</ele>
        <time>2022-08-16T08:28:24Z</time>
      </trkpt>
      <trkpt lat="44.87714" lon="2.87567">
        <ele>709.31</ele>
        <time>2022-08-16T08:28:25Z</time>
      </trkpt>
      <trkpt lat="44.87706" lon="2.87569">
        <ele>709.25</ele>
        <time>2022-08-16T08:28:26Z</time>
      </trkpt>
      <trkpt lat="44.87697" lon="2.87576">
        <ele>711.18</ele>
        <time>2022-08-16T08:28:27Z</time>
      </trkpt>
      <trkpt lat="44.87687" lon="2.87584">
        <ele>711.26</ele>
        <time>2022-08-16T08:28:28Z</time>
      </trkpt>
      <trkpt lat="44.87666" lon="2.87604">
        <ele>714.33</ele>
        <time>2022-08-16T08:28:30Z</time>
      </trkpt>
      <trkpt lat="44.87654" lon="2.87613">
        <ele>715.96</ele>
        <time>2022-08-16T08:28:31Z</time>
      </trkpt>
      <trkpt lat="44.87627" lon="2.87624">
        <ele>717.16</ele>
        <time>2022-08-16T08:28:33Z</time>
      </trkpt>
      <trkpt lat="44.87614" lon="2.87624">
        <ele>718.74</ele>
        <time>2022-08-16T08:28:34Z</time>
      </trkpt>
      <trkpt lat="44.876" lon="2.87621">
        <ele>719.65</ele>
        <time>2022-08-16T08:28:35Z</time>
      </trkpt>
      <trkpt lat="44.87585" lon="2.87617">
        <ele>719.72</ele>
        <time>2022-08-16T08:28:36Z</time>
      </trkpt>
      <trkpt lat="44.87571" lon="2.87615">
        <ele>721.56</ele>
        <time>2022-08-16T08:28:37Z</time>
      </trkpt>
      <trkpt lat="44.87541" lon="2.87609">
        <ele>723.46</ele>
        <time>2022-08-16T08:28:39Z</time>
      </trkpt>
      <trkpt lat="44.87527" lon="2.87603">
        <ele>725.17</ele>
        <time>2022-08-16T08:28:40Z</time>
      </trkpt>
      <trkpt lat="44.87488" lon="2.87582">
        <ele>727.21</ele>
        <time>2022-08-16T08:28:43Z</time>
      </trkpt>
      <trkpt lat="44.87455" lon="2.87556">
        <ele>729.72</ele>
        <time>2022-08-16T08:28:46Z</time>
      </trkpt>
      <trkpt lat="44.87442" lon="2.87553">
        <ele>729.72</ele>
        <time>2022-08-16T08:28:47Z</time>
      </trkpt>
      <trkpt lat="44.8743" lon="2.8755">
        <ele>731.23</ele>
        <time>2022-08-16T08:28:48Z</time>
      </trkpt>
      <trkpt lat="44.87418" lon="2.87548">
        <ele>731.39</ele>
        <time>2022-08-16T08:28:49Z</time>
      </trkpt>
      <trkpt lat="44.87406" lon="2.87543">
        <ele>732.32</ele>
        <time>2022-08-16T08:28:50Z</time>
      </trkpt>
      <trkpt lat="44.87396" lon="2.87536">
        <ele>732.4</ele>
        <time>2022-08-16T08:28:51Z</time>
      </trkpt>
      <trkpt lat="44.8739" lon="2.87525">
        <ele>733.49</ele>
        <time>2022-08-16T08:28:52Z</time>
      </trkpt>
      <trkpt lat="44.87384" lon="2.87517">
        <ele>733.51</ele>
        <time>2022-08-16T08:28:53Z</time>
      </trkpt>
      <trkpt lat="44.87377" lon="2.87513">
        <ele>735.07</ele>
        <time>2022-08-16T08:28:54Z</time>
      </trkpt>
      <trkpt lat="44.87369" lon="2.87514">
        <ele>735.14</ele>
        <time>2022-08-16T08:28:55Z</time>
      </trkpt>
      <trkpt lat="44.87362" lon="2.8752">
        <ele>735.13</ele>
        <time>2022-08-16T08:28:56Z</time>
      </trkpt>
      <trkpt lat="44.87356" lon="2.8753">
        <ele>736.21</ele>
        <time>2022-08-16T08:28:57Z</time>
      </trkpt>
      <trkpt lat="44.87351" lon="2.87544">
        <ele>737.8</ele>
        <time>2022-08-16T08:28:58Z</time>
      </trkpt>
      <trkpt lat="44.87347" lon="2.87559">
        <ele>737.83</ele>
        <time>2022-08-16T08:28:59Z</time>
      </trkpt>
      <trkpt lat="44.87327" lon="2.87608">
        <ele>741.83</ele>
        <time>2022-08-16T08:29:02Z</time>
      </trkpt>
      <trkpt lat="44.87318" lon="2.87624">
        <ele>743.19</ele>
        <time>2022-08-16T08:29:03Z</time>
      </trkpt>
      <trkpt lat="44.87307" lon="2.87639">
        <ele>743.25</ele>
        <time>2022-08-16T08:29:04Z</time>
      </trkpt>
      <trkpt lat="44.87288" lon="2.87669">
        <ele>746.79</ele>
        <time>2022-08-16T08:29:06Z</time>
      </trkpt>
      <trkpt lat="44.87279" lon="2.87682">
        <ele>746.76</ele>
        <time>2022-08-16T08:29:07Z</time>
      </trkpt>
      <trkpt lat="44.8727" lon="2.8769">
        <ele>747.86</ele>
        <time>2022-08-16T08:29:08Z</time>
      </trkpt>
      <trkpt lat="44.8726" lon="2.87693">
        <ele>747.89</ele>
        <time>2022-08-16T08:29:09Z</time>
      </trkpt>
      <trkpt lat="44.8725" lon="2.87692">
        <ele>748.71</ele>
        <time>2022-08-16T08:29:10Z</time>
      </trkpt>
      <trkpt lat="44.87241" lon="2.87686">
        <ele>749.6</ele>
        <time>2022-08-16T08:29:11Z</time>
      </trkpt>
      <trkpt lat="44.87233" lon="2.87681">
        <ele>749.6</ele>
        <time>2022-08-16T08:29:12Z</time>
      </trkpt>
      <trkpt lat="44.87225" lon="2.87678">
        <ele>750.5</ele>
        <time>2022-08-16T08:29:13Z</time>
      </trkpt>
      <trkpt lat="44.87218" lon="2.87681">
        <ele>750.5</ele>
        <time>2022-08-16T08:29:14Z</time>
      </trkpt>
      <trkpt lat="44.87213" lon="2.87688">
        <ele>750.61</ele>
        <time>2022-08-16T08:29:15Z</time>
      </trkpt>
      <trkpt lat="44.87211" lon="2.87698">
        <ele>750.57</ele>
        <time>2022-08-16T08:29:16Z</time>
      </trkpt>
      <trkpt lat="44.87214" lon="2.87707">
        <ele>750.57</ele>
        <time>2022-08-16T08:29:17Z</time>
      </trkpt>
      <trkpt lat="44.8722" lon="2.87715">
        <ele>751.55</ele>
        <time>2022-08-16T08:29:18Z</time>
      </trkpt>
      <trkpt lat="44.87229" lon="2.8772">
        <ele>751.59</ele>
        <time>2022-08-16T08:29:19Z</time>
      </trkpt>
      <trkpt lat="44.8724" lon="2.87724">
        <ele>753.51</ele>
        <time>2022-08-16T08:29:20Z</time>
      </trkpt>
      <trkpt lat="44.87251" lon="2.87728">
        <ele>753.57</ele>
        <time>2022-08-16T08:29:21Z</time>
      </trkpt>
      <trkpt lat="44.87262" lon="2.8773">
        <ele>755.24</ele>
        <time>2022-08-16T08:29:22Z</time>
      </trkpt>
      <trkpt lat="44.87272" lon="2.8773">
        <ele>755.22</ele>
        <time>2022-08-16T08:29:23Z</time>
      </trkpt>
      <trkpt lat="44.8728" lon="2.87728">
        <ele>755.22</ele>
        <time>2022-08-16T08:29:24Z</time>
      </trkpt>
      <trkpt lat="44.87286" lon="2.87725">
        <ele>756.18</ele>
        <time>2022-08-16T08:29:25Z</time>
      </trkpt>
      <trkpt lat="44.87291" lon="2.87721">
        <ele>756.2</ele>
        <time>2022-08-16T08:29:26Z</time>
      </trkpt>
      <trkpt lat="44.87294" lon="2.87718">
        <ele>756.24</ele>
        <time>2022-08-16T08:29:27Z</time>
      </trkpt>
      <trkpt lat="44.873" lon="2.87712">
        <ele>757.05</ele>
        <time>2022-08-16T08:29:35Z</time>
      </trkpt>
      <trkpt lat="44.87308" lon="2.87706">
        <ele>756.85</ele>
        <time>2022-08-16T08:30:18Z</time>
      </trkpt>
      <trkpt lat="44.87313" lon="2.87702">
        <ele>756.88</ele>
        <time>2022-08-16T08:30:19Z</time>
      </trkpt>
      <trkpt lat="44.87343" lon="2.8768">
        <ele>759.89</ele>
        <time>2022-08-16T08:30:23Z</time>
      </trkpt>
      <trkpt lat="44.87352" lon="2.87674">
        <ele>759.96</ele>
        <time>2022-08-16T08:30:24Z</time>
      </trkpt>
      <trkpt lat="44.8737" lon="2.87664">
        <ele>763.27</ele>
        <time>2022-08-16T08:30:26Z</time>
      </trkpt>
      <trkpt lat="44.8738" lon="2.87661">
        <ele>763.31</ele>
        <time>2022-08-16T08:30:27Z</time>
      </trkpt>
      <trkpt lat="44.8739" lon="2.8766">
        <ele>765.26</ele>
        <time>2022-08-16T08:30:28Z</time>
      </trkpt>
      <trkpt lat="44.87401" lon="2.87661">
        <ele>765.33</ele>
        <time>2022-08-16T08:30:29Z</time>
      </trkpt>
      <trkpt lat="44.87413" lon="2.87664">
        <ele>767.51</ele>
        <time>2022-08-16T08:30:30Z</time>
      </trkpt>
      <trkpt lat="44.87424" lon="2.87668">
        <ele>767.59</ele>
        <time>2022-08-16T08:30:31Z</time>
      </trkpt>
      <trkpt lat="44.87448" lon="2.87676">
        <ele>769.56</ele>
        <time>2022-08-16T08:30:33Z</time>
      </trkpt>
      <trkpt lat="44.87483" lon="2.87688">
        <ele>773.11</ele>
        <time>2022-08-16T08:30:36Z</time>
      </trkpt>
      <trkpt lat="44.87494" lon="2.87694">
        <ele>774.64</ele>
        <time>2022-08-16T08:30:37Z</time>
      </trkpt>
      <trkpt lat="44.87505" lon="2.87702">
        <ele>776</ele>
        <time>2022-08-16T08:30:38Z</time>
      </trkpt>
      <trkpt lat="44.87526" lon="2.87721">
        <ele>777.12</ele>
        <time>2022-08-16T08:30:40Z</time>
      </trkpt>
      <trkpt lat="44.87551" lon="2.87738">
        <ele>781.52</ele>
        <time>2022-08-16T08:30:42Z</time>
      </trkpt>
      <trkpt lat="44.87563" lon="2.87746">
        <ele>781.62</ele>
        <time>2022-08-16T08:30:43Z</time>
      </trkpt>
      <trkpt lat="44.87588" lon="2.87762">
        <ele>784.74</ele>
        <time>2022-08-16T08:30:45Z</time>
      </trkpt>
      <trkpt lat="44.876" lon="2.8777">
        <ele>784.77</ele>
        <time>2022-08-16T08:30:46Z</time>
      </trkpt>
      <trkpt lat="44.87611" lon="2.87778">
        <ele>786.07</ele>
        <time>2022-08-16T08:30:47Z</time>
      </trkpt>
      <trkpt lat="44.87621" lon="2.87788">
        <ele>786.96</ele>
        <time>2022-08-16T08:30:48Z</time>
      </trkpt>
      <trkpt lat="44.87628" lon="2.87799">
        <ele>787.36</ele>
        <time>2022-08-16T08:30:49Z</time>
      </trkpt>
      <trkpt lat="44.87632" lon="2.87813">
        <ele>788.2</ele>
        <time>2022-08-16T08:30:50Z</time>
      </trkpt>
      <trkpt lat="44.87635" lon="2.87827">
        <ele>790.54</ele>
        <time>2022-08-16T08:30:51Z</time>
      </trkpt>
      <trkpt lat="44.87637" lon="2.87843">
        <ele>790.53</ele>
        <time>2022-08-16T08:30:52Z</time>
      </trkpt>
      <trkpt lat="44.87637" lon="2.8786">
        <ele>791.99</ele>
        <time>2022-08-16T08:30:53Z</time>
      </trkpt>
      <trkpt lat="44.87636" lon="2.87879">
        <ele>793.46</ele>
        <time>2022-08-16T08:30:54Z</time>
      </trkpt>
      <trkpt lat="44.87636" lon="2.87938">
        <ele>797.75</ele>
        <time>2022-08-16T08:30:57Z</time>
      </trkpt>
      <trkpt lat="44.87635" lon="2.87959">
        <ele>797.86</ele>
        <time>2022-08-16T08:30:58Z</time>
      </trkpt>
      <trkpt lat="44.87635" lon="2.8798">
        <ele>799.86</ele>
        <time>2022-08-16T08:30:59Z</time>
      </trkpt>
      <trkpt lat="44.87635" lon="2.88041">
        <ele>803.23</ele>
        <time>2022-08-16T08:31:02Z</time>
      </trkpt>
      <trkpt lat="44.87635" lon="2.88059">
        <ele>803.19</ele>
        <time>2022-08-16T08:31:03Z</time>
      </trkpt>
      <trkpt lat="44.87634" lon="2.8809">
        <ele>804.43</ele>
        <time>2022-08-16T08:31:05Z</time>
      </trkpt>
      <trkpt lat="44.87632" lon="2.88104">
        <ele>805.19</ele>
        <time>2022-08-16T08:31:06Z</time>
      </trkpt>
      <trkpt lat="44.87628" lon="2.88117">
        <ele>805.22</ele>
        <time>2022-08-16T08:31:07Z</time>
      </trkpt>
      <trkpt lat="44.87622" lon="2.8813">
        <ele>807.27</ele>
        <time>2022-08-16T08:31:08Z</time>
      </trkpt>
      <trkpt lat="44.87614" lon="2.88142">
        <ele>808.68</ele>
        <time>2022-08-16T08:31:09Z</time>
      </trkpt>
      <trkpt lat="44.87606" lon="2.88154">
        <ele>809.79</ele>
        <time>2022-08-16T08:31:10Z</time>
      </trkpt>
      <trkpt lat="44.87601" lon="2.88169">
        <ele>809.89</ele>
        <time>2022-08-16T08:31:11Z</time>
      </trkpt>
      <trkpt lat="44.87598" lon="2.88186">
        <ele>811.9</ele>
        <time>2022-08-16T08:31:12Z</time>
      </trkpt>
      <trkpt lat="44.87597" lon="2.88204">
        <ele>812.7</ele>
        <time>2022-08-16T08:31:13Z</time>
      </trkpt>
      <trkpt lat="44.87597" lon="2.88222">
        <ele>813.99</ele>
        <time>2022-08-16T08:31:14Z</time>
      </trkpt>
      <trkpt lat="44.87599" lon="2.8824">
        <ele>815.42</ele>
        <time>2022-08-16T08:31:15Z</time>
      </trkpt>
      <trkpt lat="44.87601" lon="2.88259">
        <ele>816.79</ele>
        <time>2022-08-16T08:31:16Z</time>
      </trkpt>
      <trkpt lat="44.87602" lon="2.88315">
        <ele>819.43</ele>
        <time>2022-08-16T08:31:19Z</time>
      </trkpt>
      <trkpt lat="44.87603" lon="2.88366">
        <ele>821.75</ele>
        <time>2022-08-16T08:31:22Z</time>
      </trkpt>
      <trkpt lat="44.87606" lon="2.88403">
        <ele>822.62</ele>
        <time>2022-08-16T08:31:25Z</time>
      </trkpt>
      <trkpt lat="44.87609" lon="2.88415">
        <ele>823.78</ele>
        <time>2022-08-16T08:31:26Z</time>
      </trkpt>
      <trkpt lat="44.87614" lon="2.88424">
        <ele>823.74</ele>
        <time>2022-08-16T08:31:27Z</time>
      </trkpt>
      <trkpt lat="44.8762" lon="2.88431">
        <ele>823.71</ele>
        <time>2022-08-16T08:31:28Z</time>
      </trkpt>
      <trkpt lat="44.87625" lon="2.88435">
        <ele>823.73</ele>
        <time>2022-08-16T08:31:29Z</time>
      </trkpt>
      <trkpt lat="44.8763" lon="2.88439">
        <ele>823.75</ele>
        <time>2022-08-16T08:31:30Z</time>
      </trkpt>
      <trkpt lat="44.87635" lon="2.88441">
        <ele>823.77</ele>
        <time>2022-08-16T08:31:31Z</time>
      </trkpt>
      <trkpt lat="44.87645" lon="2.88444">
        <ele>824.46</ele>
        <time>2022-08-16T08:31:33Z</time>
      </trkpt>
      <trkpt lat="44.87664" lon="2.88445">
        <ele>825.68</ele>
        <time>2022-08-16T08:31:36Z</time>
      </trkpt>
      <trkpt lat="44.87669" lon="2.88447">
        <ele>826.38</ele>
        <time>2022-08-16T08:31:37Z</time>
      </trkpt>
      <trkpt lat="44.87675" lon="2.88449">
        <ele>826.62</ele>
        <time>2022-08-16T08:31:38Z</time>
      </trkpt>
      <trkpt lat="44.87696" lon="2.88463">
        <ele>829.19</ele>
        <time>2022-08-16T08:31:42Z</time>
      </trkpt>
      <trkpt lat="44.87701" lon="2.88467">
        <ele>829.19</ele>
        <time>2022-08-16T08:31:43Z</time>
      </trkpt>
      <trkpt lat="44.87704" lon="2.88473">
        <ele>830.16</ele>
        <time>2022-08-16T08:31:44Z</time>
      </trkpt>
      <trkpt lat="44.87729" lon="2.88547">
        <ele>831.39</ele>
        <time>2022-08-16T08:31:55Z</time>
      </trkpt>
      <trkpt lat="44.87732" lon="2.88552">
        <ele>831.34</ele>
        <time>2022-08-16T08:31:56Z</time>
      </trkpt>
      <trkpt lat="44.87736" lon="2.88563">
        <ele>831.35</ele>
        <time>2022-08-16T08:31:58Z</time>
      </trkpt>
      <trkpt lat="44.87738" lon="2.88568">
        <ele>831.34</ele>
        <time>2022-08-16T08:31:59Z</time>
      </trkpt>
      <trkpt lat="44.87747" lon="2.88603">
        <ele>832.09</ele>
        <time>2022-08-16T08:32:06Z</time>
      </trkpt>
      <trkpt lat="44.87749" lon="2.8861">
        <ele>832.12</ele>
        <time>2022-08-16T08:32:07Z</time>
      </trkpt>
      <trkpt lat="44.87767" lon="2.88668">
        <ele>835.36</ele>
        <time>2022-08-16T08:32:15Z</time>
      </trkpt>
      <trkpt lat="44.87769" lon="2.88675">
        <ele>835.34</ele>
        <time>2022-08-16T08:32:16Z</time>
      </trkpt>
      <trkpt lat="44.87773" lon="2.88686">
        <ele>835.39</ele>
        <time>2022-08-16T08:32:18Z</time>
      </trkpt>
      <trkpt lat="44.87774" lon="2.88691">
        <ele>836.39</ele>
        <time>2022-08-16T08:32:19Z</time>
      </trkpt>
      <trkpt lat="44.87772" lon="2.88696">
        <ele>836.41</ele>
        <time>2022-08-16T08:32:20Z</time>
      </trkpt>
      <trkpt lat="44.87771" lon="2.88701">
        <ele>837.35</ele>
        <time>2022-08-16T08:32:21Z</time>
      </trkpt>
      <trkpt lat="44.87769" lon="2.88706">
        <ele>837.34</ele>
        <time>2022-08-16T08:32:22Z</time>
      </trkpt>
      <trkpt lat="44.87766" lon="2.8871">
        <ele>837.34</ele>
        <time>2022-08-16T08:32:23Z</time>
      </trkpt>
      <trkpt lat="44.87763" lon="2.88714">
        <ele>837.38</ele>
        <time>2022-08-16T08:32:24Z</time>
      </trkpt>
      <trkpt lat="44.87751" lon="2.88736">
        <ele>837.12</ele>
        <time>2022-08-16T08:32:30Z</time>
      </trkpt>
      <trkpt lat="44.8775" lon="2.88739">
        <ele>837.14</ele>
        <time>2022-08-16T08:32:31Z</time>
      </trkpt>
      <trkpt lat="44.87749" lon="2.88741">
        <ele>834.82</ele>
        <time>2022-08-16T08:32:32Z</time>
      </trkpt>
      <trkpt lat="44.87747" lon="2.88743">
        <ele>834.82</ele>
        <time>2022-08-16T08:32:33Z</time>
      </trkpt>
      <trkpt lat="44.87737" lon="2.88749">
        <ele>834.79</ele>
        <time>2022-08-16T08:32:37Z</time>
      </trkpt>
      <trkpt lat="44.87736" lon="2.8875">
        <ele>834.81</ele>
        <time>2022-08-16T08:32:38Z</time>
      </trkpt>
      <trkpt lat="44.87735" lon="2.88752">
        <ele>834.78</ele>
        <time>2022-08-16T08:32:39Z</time>
      </trkpt>
      <trkpt lat="44.87736" lon="2.88753">
        <ele>834.8</ele>
        <time>2022-08-16T08:32:40Z</time>
      </trkpt>
      <trkpt lat="44.87736" lon="2.88755">
        <ele>833.98</ele>
        <time>2022-08-16T08:32:47Z</time>
      </trkpt>
      <trkpt lat="44.87738" lon="2.88754">
        <ele>833.99</ele>
        <time>2022-08-16T08:32:48Z</time>
      </trkpt>
      <trkpt lat="44.87741" lon="2.8875">
        <ele>833.98</ele>
        <time>2022-08-16T08:32:49Z</time>
      </trkpt>
      <trkpt lat="44.87754" lon="2.8873">
        <ele>834.02</ele>
        <time>2022-08-16T08:32:52Z</time>
      </trkpt>
      <trkpt lat="44.87771" lon="2.88702">
        <ele>834.1</ele>
        <time>2022-08-16T08:32:56Z</time>
      </trkpt>
      <trkpt lat="44.87784" lon="2.88688">
        <ele>836.47</ele>
        <time>2022-08-16T08:33:00Z</time>
      </trkpt>
      <trkpt lat="44.87789" lon="2.88688">
        <ele>836.48</ele>
        <time>2022-08-16T08:33:01Z</time>
      </trkpt>
      <trkpt lat="44.87794" lon="2.88689">
        <ele>836.49</ele>
        <time>2022-08-16T08:33:02Z</time>
      </trkpt>
      <trkpt lat="44.87813" lon="2.88696">
        <ele>837.32</ele>
        <time>2022-08-16T08:33:05Z</time>
      </trkpt>
      <trkpt lat="44.87881" lon="2.8871">
        <ele>840.53</ele>
        <time>2022-08-16T08:33:12Z</time>
      </trkpt>
      <trkpt lat="44.87893" lon="2.8871">
        <ele>840.55</ele>
        <time>2022-08-16T08:33:13Z</time>
      </trkpt>
      <trkpt lat="44.87905" lon="2.88709">
        <ele>841.45</ele>
        <time>2022-08-16T08:33:14Z</time>
      </trkpt>
      <trkpt lat="44.87981" lon="2.88708">
        <ele>844.9</ele>
        <time>2022-08-16T08:33:20Z</time>
      </trkpt>
      <trkpt lat="44.88017" lon="2.88718">
        <ele>845.76</ele>
        <time>2022-08-16T08:33:23Z</time>
      </trkpt>
      <trkpt lat="44.88027" lon="2.88725">
        <ele>845.81</ele>
        <time>2022-08-16T08:33:24Z</time>
      </trkpt>
      <trkpt lat="44.88038" lon="2.88734">
        <ele>846.25</ele>
        <time>2022-08-16T08:33:25Z</time>
      </trkpt>
      <trkpt lat="44.88048" lon="2.88743">
        <ele>846.25</ele>
        <time>2022-08-16T08:33:26Z</time>
      </trkpt>
      <trkpt lat="44.88057" lon="2.88753">
        <ele>847.15</ele>
        <time>2022-08-16T08:33:27Z</time>
      </trkpt>
      <trkpt lat="44.88094" lon="2.88797">
        <ele>848.45</ele>
        <time>2022-08-16T08:33:31Z</time>
      </trkpt>
      <trkpt lat="44.88169" lon="2.88874">
        <ele>852.3</ele>
        <time>2022-08-16T08:33:39Z</time>
      </trkpt>
      <trkpt lat="44.88197" lon="2.88902">
        <ele>853.75</ele>
        <time>2022-08-16T08:33:42Z</time>
      </trkpt>
      <trkpt lat="44.88207" lon="2.88908">
        <ele>855.64</ele>
        <time>2022-08-16T08:33:43Z</time>
      </trkpt>
      <trkpt lat="44.88218" lon="2.88911">
        <ele>855.58</ele>
        <time>2022-08-16T08:33:44Z</time>
      </trkpt>
      <trkpt lat="44.8823" lon="2.88912">
        <ele>856.41</ele>
        <time>2022-08-16T08:33:45Z</time>
      </trkpt>
      <trkpt lat="44.88242" lon="2.88912">
        <ele>856.5</ele>
        <time>2022-08-16T08:33:46Z</time>
      </trkpt>
      <trkpt lat="44.88254" lon="2.88905">
        <ele>857.79</ele>
        <time>2022-08-16T08:33:47Z</time>
      </trkpt>
      <trkpt lat="44.88264" lon="2.88896">
        <ele>858.59</ele>
        <time>2022-08-16T08:33:48Z</time>
      </trkpt>
      <trkpt lat="44.88275" lon="2.88886">
        <ele>858.59</ele>
        <time>2022-08-16T08:33:49Z</time>
      </trkpt>
      <trkpt lat="44.88284" lon="2.88876">
        <ele>859.71</ele>
        <time>2022-08-16T08:33:50Z</time>
      </trkpt>
      <trkpt lat="44.8829" lon="2.88861">
        <ele>859.77</ele>
        <time>2022-08-16T08:33:51Z</time>
      </trkpt>
      <trkpt lat="44.88292" lon="2.88844">
        <ele>859.78</ele>
        <time>2022-08-16T08:33:52Z</time>
      </trkpt>
      <trkpt lat="44.88292" lon="2.88825">
        <ele>859.65</ele>
        <time>2022-08-16T08:33:53Z</time>
      </trkpt>
      <trkpt lat="44.88291" lon="2.88806">
        <ele>860.81</ele>
        <time>2022-08-16T08:33:54Z</time>
      </trkpt>
      <trkpt lat="44.88289" lon="2.88751">
        <ele>860.87</ele>
        <time>2022-08-16T08:33:57Z</time>
      </trkpt>
      <trkpt lat="44.88291" lon="2.88733">
        <ele>861.9</ele>
        <time>2022-08-16T08:33:58Z</time>
      </trkpt>
      <trkpt lat="44.88296" lon="2.88715">
        <ele>861.89</ele>
        <time>2022-08-16T08:33:59Z</time>
      </trkpt>
      <trkpt lat="44.88302" lon="2.88698">
        <ele>862.78</ele>
        <time>2022-08-16T08:34:00Z</time>
      </trkpt>
      <trkpt lat="44.88309" lon="2.88682">
        <ele>862.86</ele>
        <time>2022-08-16T08:34:01Z</time>
      </trkpt>
      <trkpt lat="44.88318" lon="2.88667">
        <ele>863.72</ele>
        <time>2022-08-16T08:34:02Z</time>
      </trkpt>
      <trkpt lat="44.88328" lon="2.88654">
        <ele>863.75</ele>
        <time>2022-08-16T08:34:03Z</time>
      </trkpt>
      <trkpt lat="44.88338" lon="2.88642">
        <ele>863.74</ele>
        <time>2022-08-16T08:34:04Z</time>
      </trkpt>
      <trkpt lat="44.88348" lon="2.88632">
        <ele>863.75</ele>
        <time>2022-08-16T08:34:05Z</time>
      </trkpt>
      <trkpt lat="44.88359" lon="2.88624">
        <ele>863.77</ele>
        <time>2022-08-16T08:34:06Z</time>
      </trkpt>
      <trkpt lat="44.8837" lon="2.88619">
        <ele>863.75</ele>
        <time>2022-08-16T08:34:07Z</time>
      </trkpt>
      <trkpt lat="44.88382" lon="2.88618">
        <ele>863.72</ele>
        <time>2022-08-16T08:34:08Z</time>
      </trkpt>
      <trkpt lat="44.88395" lon="2.88617">
        <ele>865.12</ele>
        <time>2022-08-16T08:34:09Z</time>
      </trkpt>
      <trkpt lat="44.88423" lon="2.88616">
        <ele>865.99</ele>
        <time>2022-08-16T08:34:11Z</time>
      </trkpt>
      <trkpt lat="44.88485" lon="2.8862">
        <ele>868.94</ele>
        <time>2022-08-16T08:34:15Z</time>
      </trkpt>
      <trkpt lat="44.88516" lon="2.88624">
        <ele>870.24</ele>
        <time>2022-08-16T08:34:17Z</time>
      </trkpt>
      <trkpt lat="44.88542" lon="2.88633">
        <ele>870.29</ele>
        <time>2022-08-16T08:34:19Z</time>
      </trkpt>
      <trkpt lat="44.88553" lon="2.8864">
        <ele>870.24</ele>
        <time>2022-08-16T08:34:20Z</time>
      </trkpt>
      <trkpt lat="44.88564" lon="2.88646">
        <ele>870.27</ele>
        <time>2022-08-16T08:34:21Z</time>
      </trkpt>
      <trkpt lat="44.88574" lon="2.88648">
        <ele>871.1</ele>
        <time>2022-08-16T08:34:22Z</time>
      </trkpt>
      <trkpt lat="44.88584" lon="2.88644">
        <ele>871.12</ele>
        <time>2022-08-16T08:34:23Z</time>
      </trkpt>
      <trkpt lat="44.88595" lon="2.88639">
        <ele>872.14</ele>
        <time>2022-08-16T08:34:24Z</time>
      </trkpt>
      <trkpt lat="44.88606" lon="2.88637">
        <ele>873.41</ele>
        <time>2022-08-16T08:34:25Z</time>
      </trkpt>
      <trkpt lat="44.88617" lon="2.88641">
        <ele>873.38</ele>
        <time>2022-08-16T08:34:26Z</time>
      </trkpt>
      <trkpt lat="44.88629" lon="2.88651">
        <ele>875.09</ele>
        <time>2022-08-16T08:34:27Z</time>
      </trkpt>
      <trkpt lat="44.88639" lon="2.88662">
        <ele>876.35</ele>
        <time>2022-08-16T08:34:28Z</time>
      </trkpt>
      <trkpt lat="44.88648" lon="2.88676">
        <ele>877.6</ele>
        <time>2022-08-16T08:34:29Z</time>
      </trkpt>
      <trkpt lat="44.88665" lon="2.88702">
        <ele>879.6</ele>
        <time>2022-08-16T08:34:31Z</time>
      </trkpt>
      <trkpt lat="44.88672" lon="2.88711">
        <ele>879.56</ele>
        <time>2022-08-16T08:34:32Z</time>
      </trkpt>
      <trkpt lat="44.88679" lon="2.88717">
        <ele>880.6</ele>
        <time>2022-08-16T08:34:33Z</time>
      </trkpt>
      <trkpt lat="44.88686" lon="2.88719">
        <ele>880.61</ele>
        <time>2022-08-16T08:34:34Z</time>
      </trkpt>
      <trkpt lat="44.88695" lon="2.88717">
        <ele>881.87</ele>
        <time>2022-08-16T08:34:35Z</time>
      </trkpt>
      <trkpt lat="44.88708" lon="2.88697">
        <ele>882.96</ele>
        <time>2022-08-16T08:34:36Z</time>
      </trkpt>
      <trkpt lat="44.88717" lon="2.88682">
        <ele>883.56</ele>
        <time>2022-08-16T08:34:37Z</time>
      </trkpt>
      <trkpt lat="44.88727" lon="2.88667">
        <ele>884.14</ele>
        <time>2022-08-16T08:34:38Z</time>
      </trkpt>
      <trkpt lat="44.88755" lon="2.88623">
        <ele>885.63</ele>
        <time>2022-08-16T08:34:41Z</time>
      </trkpt>
      <trkpt lat="44.88766" lon="2.88612">
        <ele>885.81</ele>
        <time>2022-08-16T08:34:42Z</time>
      </trkpt>
      <trkpt lat="44.88777" lon="2.88602">
        <ele>887.04</ele>
        <time>2022-08-16T08:34:43Z</time>
      </trkpt>
      <trkpt lat="44.8879" lon="2.88597">
        <ele>886.99</ele>
        <time>2022-08-16T08:34:44Z</time>
      </trkpt>
      <trkpt lat="44.88804" lon="2.88595">
        <ele>888.07</ele>
        <time>2022-08-16T08:34:45Z</time>
      </trkpt>
      <trkpt lat="44.88818" lon="2.88596">
        <ele>888.12</ele>
        <time>2022-08-16T08:34:46Z</time>
      </trkpt>
      <trkpt lat="44.8883" lon="2.88599">
        <ele>888.89</ele>
        <time>2022-08-16T08:34:47Z</time>
      </trkpt>
      <trkpt lat="44.88839" lon="2.88606">
        <ele>888.92</ele>
        <time>2022-08-16T08:34:48Z</time>
      </trkpt>
      <trkpt lat="44.88846" lon="2.88615">
        <ele>888.92</ele>
        <time>2022-08-16T08:34:49Z</time>
      </trkpt>
      <trkpt lat="44.88851" lon="2.88628">
        <ele>890.29</ele>
        <time>2022-08-16T08:34:50Z</time>
      </trkpt>
      <trkpt lat="44.88855" lon="2.88643">
        <ele>890.36</ele>
        <time>2022-08-16T08:34:51Z</time>
      </trkpt>
      <trkpt lat="44.88858" lon="2.8866">
        <ele>892.38</ele>
        <time>2022-08-16T08:34:52Z</time>
      </trkpt>
      <trkpt lat="44.8886" lon="2.88678">
        <ele>893.57</ele>
        <time>2022-08-16T08:34:53Z</time>
      </trkpt>
      <trkpt lat="44.8886" lon="2.88697">
        <ele>894.73</ele>
        <time>2022-08-16T08:34:54Z</time>
      </trkpt>
      <trkpt lat="44.88861" lon="2.88717">
        <ele>895.82</ele>
        <time>2022-08-16T08:34:55Z</time>
      </trkpt>
      <trkpt lat="44.88863" lon="2.88737">
        <ele>896.91</ele>
        <time>2022-08-16T08:34:56Z</time>
      </trkpt>
      <trkpt lat="44.8887" lon="2.88755">
        <ele>898.66</ele>
        <time>2022-08-16T08:34:57Z</time>
      </trkpt>
      <trkpt lat="44.88878" lon="2.88772">
        <ele>898.64</ele>
        <time>2022-08-16T08:34:58Z</time>
      </trkpt>
      <trkpt lat="44.88888" lon="2.88788">
        <ele>900.21</ele>
        <time>2022-08-16T08:34:59Z</time>
      </trkpt>
      <trkpt lat="44.88898" lon="2.88801">
        <ele>900.24</ele>
        <time>2022-08-16T08:35:00Z</time>
      </trkpt>
      <trkpt lat="44.8891" lon="2.88812">
        <ele>901.63</ele>
        <time>2022-08-16T08:35:01Z</time>
      </trkpt>
      <trkpt lat="44.88922" lon="2.8882">
        <ele>903.23</ele>
        <time>2022-08-16T08:35:02Z</time>
      </trkpt>
      <trkpt lat="44.88935" lon="2.88823">
        <ele>904.27</ele>
        <time>2022-08-16T08:35:03Z</time>
      </trkpt>
      <trkpt lat="44.8895" lon="2.88823">
        <ele>904.36</ele>
        <time>2022-08-16T08:35:04Z</time>
      </trkpt>
      <trkpt lat="44.88965" lon="2.88819">
        <ele>906.02</ele>
        <time>2022-08-16T08:35:05Z</time>
      </trkpt>
      <trkpt lat="44.88978" lon="2.88814">
        <ele>906.81</ele>
        <time>2022-08-16T08:35:06Z</time>
      </trkpt>
      <trkpt lat="44.88991" lon="2.88807">
        <ele>907.65</ele>
        <time>2022-08-16T08:35:07Z</time>
      </trkpt>
      <trkpt lat="44.89005" lon="2.88801">
        <ele>907.65</ele>
        <time>2022-08-16T08:35:08Z</time>
      </trkpt>
      <trkpt lat="44.89051" lon="2.88789">
        <ele>908.7</ele>
        <time>2022-08-16T08:35:12Z</time>
      </trkpt>
      <trkpt lat="44.89061" lon="2.88793">
        <ele>909.93</ele>
        <time>2022-08-16T08:35:13Z</time>
      </trkpt>
      <trkpt lat="44.8907" lon="2.888">
        <ele>909.84</ele>
        <time>2022-08-16T08:35:14Z</time>
      </trkpt>
      <trkpt lat="44.89092" lon="2.8882">
        <ele>913.86</ele>
        <time>2022-08-16T08:35:16Z</time>
      </trkpt>
      <trkpt lat="44.89105" lon="2.88829">
        <ele>914.65</ele>
        <time>2022-08-16T08:35:17Z</time>
      </trkpt>
      <trkpt lat="44.89117" lon="2.88836">
        <ele>915.94</ele>
        <time>2022-08-16T08:35:18Z</time>
      </trkpt>
      <trkpt lat="44.8913" lon="2.88841">
        <ele>916.01</ele>
        <time>2022-08-16T08:35:19Z</time>
      </trkpt>
      <trkpt lat="44.89143" lon="2.88843">
        <ele>917.4</ele>
        <time>2022-08-16T08:35:20Z</time>
      </trkpt>
      <trkpt lat="44.89156" lon="2.88844">
        <ele>917.56</ele>
        <time>2022-08-16T08:35:21Z</time>
      </trkpt>
      <trkpt lat="44.89169" lon="2.88842">
        <ele>918.25</ele>
        <time>2022-08-16T08:35:22Z</time>
      </trkpt>
      <trkpt lat="44.89181" lon="2.8884">
        <ele>918.23</ele>
        <time>2022-08-16T08:35:23Z</time>
      </trkpt>
      <trkpt lat="44.89192" lon="2.8884">
        <ele>918.23</ele>
        <time>2022-08-16T08:35:24Z</time>
      </trkpt>
      <trkpt lat="44.89202" lon="2.88844">
        <ele>918.21</ele>
        <time>2022-08-16T08:35:25Z</time>
      </trkpt>
      <trkpt lat="44.89211" lon="2.88852">
        <ele>918.8</ele>
        <time>2022-08-16T08:35:26Z</time>
      </trkpt>
      <trkpt lat="44.89223" lon="2.88857">
        <ele>918.8</ele>
        <time>2022-08-16T08:35:27Z</time>
      </trkpt>
      <trkpt lat="44.89236" lon="2.88859">
        <ele>920.07</ele>
        <time>2022-08-16T08:35:28Z</time>
      </trkpt>
      <trkpt lat="44.89248" lon="2.88859">
        <ele>920.09</ele>
        <time>2022-08-16T08:35:29Z</time>
      </trkpt>
      <trkpt lat="44.8926" lon="2.88855">
        <ele>920.09</ele>
        <time>2022-08-16T08:35:30Z</time>
      </trkpt>
      <trkpt lat="44.89271" lon="2.88847">
        <ele>921.22</ele>
        <time>2022-08-16T08:35:31Z</time>
      </trkpt>
      <trkpt lat="44.8928" lon="2.88834">
        <ele>921.18</ele>
        <time>2022-08-16T08:35:32Z</time>
      </trkpt>
      <trkpt lat="44.89287" lon="2.88818">
        <ele>921.22</ele>
        <time>2022-08-16T08:35:33Z</time>
      </trkpt>
      <trkpt lat="44.89294" lon="2.88801">
        <ele>921.21</ele>
        <time>2022-08-16T08:35:34Z</time>
      </trkpt>
      <trkpt lat="44.89306" lon="2.88768">
        <ele>921.23</ele>
        <time>2022-08-16T08:35:36Z</time>
      </trkpt>
      <trkpt lat="44.8931" lon="2.88752">
        <ele>921.23</ele>
        <time>2022-08-16T08:35:37Z</time>
      </trkpt>
      <trkpt lat="44.89311" lon="2.88736">
        <ele>918.38</ele>
        <time>2022-08-16T08:35:38Z</time>
      </trkpt>
      <trkpt lat="44.89309" lon="2.8872">
        <ele>917.41</ele>
        <time>2022-08-16T08:35:39Z</time>
      </trkpt>
      <trkpt lat="44.89306" lon="2.88705">
        <ele>917.41</ele>
        <time>2022-08-16T08:35:40Z</time>
      </trkpt>
      <trkpt lat="44.89303" lon="2.8869">
        <ele>917.42</ele>
        <time>2022-08-16T08:35:41Z</time>
      </trkpt>
      <trkpt lat="44.89303" lon="2.88674">
        <ele>917.42</ele>
        <time>2022-08-16T08:35:42Z</time>
      </trkpt>
      <trkpt lat="44.89306" lon="2.88659">
        <ele>916.25</ele>
        <time>2022-08-16T08:35:43Z</time>
      </trkpt>
      <trkpt lat="44.89311" lon="2.88644">
        <ele>916.25</ele>
        <time>2022-08-16T08:35:44Z</time>
      </trkpt>
      <trkpt lat="44.89318" lon="2.88631">
        <ele>916.24</ele>
        <time>2022-08-16T08:35:45Z</time>
      </trkpt>
      <trkpt lat="44.89328" lon="2.8862">
        <ele>916.25</ele>
        <time>2022-08-16T08:35:46Z</time>
      </trkpt>
      <trkpt lat="44.89339" lon="2.88608">
        <ele>916.25</ele>
        <time>2022-08-16T08:35:47Z</time>
      </trkpt>
      <trkpt lat="44.89378" lon="2.8856">
        <ele>916.15</ele>
        <time>2022-08-16T08:35:51Z</time>
      </trkpt>
      <trkpt lat="44.89387" lon="2.88551">
        <ele>916.3</ele>
        <time>2022-08-16T08:35:52Z</time>
      </trkpt>
      <trkpt lat="44.89396" lon="2.88545">
        <ele>916.35</ele>
        <time>2022-08-16T08:35:53Z</time>
      </trkpt>
      <trkpt lat="44.89405" lon="2.88543">
        <ele>916.35</ele>
        <time>2022-08-16T08:35:54Z</time>
      </trkpt>
      <trkpt lat="44.89413" lon="2.88545">
        <ele>916.35</ele>
        <time>2022-08-16T08:35:55Z</time>
      </trkpt>
      <trkpt lat="44.89422" lon="2.88549">
        <ele>916.37</ele>
        <time>2022-08-16T08:35:56Z</time>
      </trkpt>
      <trkpt lat="44.8943" lon="2.88554">
        <ele>916.38</ele>
        <time>2022-08-16T08:35:57Z</time>
      </trkpt>
      <trkpt lat="44.89439" lon="2.8856">
        <ele>916.39</ele>
        <time>2022-08-16T08:35:58Z</time>
      </trkpt>
      <trkpt lat="44.89447" lon="2.88567">
        <ele>918.88</ele>
        <time>2022-08-16T08:35:59Z</time>
      </trkpt>
      <trkpt lat="44.89455" lon="2.88577">
        <ele>918.92</ele>
        <time>2022-08-16T08:36:00Z</time>
      </trkpt>
      <trkpt lat="44.89476" lon="2.88609">
        <ele>920.41</ele>
        <time>2022-08-16T08:36:03Z</time>
      </trkpt>
      <trkpt lat="44.89485" lon="2.88617">
        <ele>920.39</ele>
        <time>2022-08-16T08:36:04Z</time>
      </trkpt>
      <trkpt lat="44.89494" lon="2.88624">
        <ele>922</ele>
        <time>2022-08-16T08:36:05Z</time>
      </trkpt>
      <trkpt lat="44.89504" lon="2.88629">
        <ele>922</ele>
        <time>2022-08-16T08:36:06Z</time>
      </trkpt>
      <trkpt lat="44.89514" lon="2.88633">
        <ele>922.01</ele>
        <time>2022-08-16T08:36:07Z</time>
      </trkpt>
      <trkpt lat="44.89524" lon="2.88637">
        <ele>923.67</ele>
        <time>2022-08-16T08:36:08Z</time>
      </trkpt>
      <trkpt lat="44.89534" lon="2.88638">
        <ele>923.7</ele>
        <time>2022-08-16T08:36:09Z</time>
      </trkpt>
      <trkpt lat="44.89546" lon="2.8864">
        <ele>923.75</ele>
        <time>2022-08-16T08:36:10Z</time>
      </trkpt>
      <trkpt lat="44.89568" lon="2.88645">
        <ele>925.84</ele>
        <time>2022-08-16T08:36:12Z</time>
      </trkpt>
      <trkpt lat="44.89579" lon="2.8865">
        <ele>927.13</ele>
        <time>2022-08-16T08:36:13Z</time>
      </trkpt>
      <trkpt lat="44.89613" lon="2.8867">
        <ele>929.45</ele>
        <time>2022-08-16T08:36:16Z</time>
      </trkpt>
      <trkpt lat="44.89652" lon="2.88689">
        <ele>933.65</ele>
        <time>2022-08-16T08:36:19Z</time>
      </trkpt>
      <trkpt lat="44.89694" lon="2.8871">
        <ele>937.17</ele>
        <time>2022-08-16T08:36:22Z</time>
      </trkpt>
      <trkpt lat="44.89723" lon="2.88725">
        <ele>938.79</ele>
        <time>2022-08-16T08:36:24Z</time>
      </trkpt>
      <trkpt lat="44.89751" lon="2.8874">
        <ele>942.43</ele>
        <time>2022-08-16T08:36:26Z</time>
      </trkpt>
      <trkpt lat="44.89766" lon="2.88748">
        <ele>942.63</ele>
        <time>2022-08-16T08:36:27Z</time>
      </trkpt>
      <trkpt lat="44.89811" lon="2.88769">
        <ele>946.71</ele>
        <time>2022-08-16T08:36:30Z</time>
      </trkpt>
      <trkpt lat="44.89855" lon="2.88791">
        <ele>950.28</ele>
        <time>2022-08-16T08:36:33Z</time>
      </trkpt>
      <trkpt lat="44.89885" lon="2.88806">
        <ele>951.9</ele>
        <time>2022-08-16T08:36:35Z</time>
      </trkpt>
      <trkpt lat="44.8993" lon="2.88828">
        <ele>955.86</ele>
        <time>2022-08-16T08:36:38Z</time>
      </trkpt>
      <trkpt lat="44.89944" lon="2.88836">
        <ele>955.87</ele>
        <time>2022-08-16T08:36:39Z</time>
      </trkpt>
      <trkpt lat="44.89974" lon="2.8885">
        <ele>958.08</ele>
        <time>2022-08-16T08:36:41Z</time>
      </trkpt>
      <trkpt lat="44.90017" lon="2.88873">
        <ele>960.82</ele>
        <time>2022-08-16T08:36:44Z</time>
      </trkpt>
      <trkpt lat="44.9003" lon="2.88883">
        <ele>963.06</ele>
        <time>2022-08-16T08:36:45Z</time>
      </trkpt>
      <trkpt lat="44.90042" lon="2.88895">
        <ele>963.89</ele>
        <time>2022-08-16T08:36:46Z</time>
      </trkpt>
      <trkpt lat="44.90053" lon="2.88908">
        <ele>963.89</ele>
        <time>2022-08-16T08:36:47Z</time>
      </trkpt>
      <trkpt lat="44.90085" lon="2.88949">
        <ele>966.82</ele>
        <time>2022-08-16T08:36:50Z</time>
      </trkpt>
      <trkpt lat="44.90117" lon="2.88991">
        <ele>969.3</ele>
        <time>2022-08-16T08:36:53Z</time>
      </trkpt>
      <trkpt lat="44.90151" lon="2.89035">
        <ele>970.9</ele>
        <time>2022-08-16T08:36:56Z</time>
      </trkpt>
      <trkpt lat="44.90164" lon="2.89047">
        <ele>970.89</ele>
        <time>2022-08-16T08:36:57Z</time>
      </trkpt>
      <trkpt lat="44.90178" lon="2.89058">
        <ele>970.88</ele>
        <time>2022-08-16T08:36:58Z</time>
      </trkpt>
      <trkpt lat="44.9022" lon="2.89088">
        <ele>972.89</ele>
        <time>2022-08-16T08:37:01Z</time>
      </trkpt>
      <trkpt lat="44.90292" lon="2.89146">
        <ele>974.9</ele>
        <time>2022-08-16T08:37:07Z</time>
      </trkpt>
      <trkpt lat="44.903" lon="2.89157">
        <ele>974.83</ele>
        <time>2022-08-16T08:37:08Z</time>
      </trkpt>
      <trkpt lat="44.90314" lon="2.89178">
        <ele>974.52</ele>
        <time>2022-08-16T08:37:10Z</time>
      </trkpt>
      <trkpt lat="44.90323" lon="2.89186">
        <ele>974.52</ele>
        <time>2022-08-16T08:37:11Z</time>
      </trkpt>
      <trkpt lat="44.90333" lon="2.89189">
        <ele>974.52</ele>
        <time>2022-08-16T08:37:12Z</time>
      </trkpt>
      <trkpt lat="44.90344" lon="2.89187">
        <ele>974.54</ele>
        <time>2022-08-16T08:37:13Z</time>
      </trkpt>
      <trkpt lat="44.90355" lon="2.89182">
        <ele>974.55</ele>
        <time>2022-08-16T08:37:14Z</time>
      </trkpt>
      <trkpt lat="44.90364" lon="2.89173">
        <ele>976.01</ele>
        <time>2022-08-16T08:37:15Z</time>
      </trkpt>
      <trkpt lat="44.90371" lon="2.8916">
        <ele>976.04</ele>
        <time>2022-08-16T08:37:16Z</time>
      </trkpt>
      <trkpt lat="44.90375" lon="2.89143">
        <ele>976.03</ele>
        <time>2022-08-16T08:37:17Z</time>
      </trkpt>
      <trkpt lat="44.90377" lon="2.89125">
        <ele>977.89</ele>
        <time>2022-08-16T08:37:18Z</time>
      </trkpt>
      <trkpt lat="44.90381" lon="2.89105">
        <ele>977.92</ele>
        <time>2022-08-16T08:37:19Z</time>
      </trkpt>
      <trkpt lat="44.90386" lon="2.89087">
        <ele>979.15</ele>
        <time>2022-08-16T08:37:20Z</time>
      </trkpt>
      <trkpt lat="44.90409" lon="2.89031">
        <ele>980.95</ele>
        <time>2022-08-16T08:37:23Z</time>
      </trkpt>
      <trkpt lat="44.90429" lon="2.88984">
        <ele>980.98</ele>
        <time>2022-08-16T08:37:26Z</time>
      </trkpt>
      <trkpt lat="44.90438" lon="2.88971">
        <ele>981.01</ele>
        <time>2022-08-16T08:37:27Z</time>
      </trkpt>
      <trkpt lat="44.90447" lon="2.88959">
        <ele>981.02</ele>
        <time>2022-08-16T08:37:28Z</time>
      </trkpt>
      <trkpt lat="44.9048" lon="2.88927">
        <ele>982.93</ele>
        <time>2022-08-16T08:37:31Z</time>
      </trkpt>
      <trkpt lat="44.90492" lon="2.88921">
        <ele>982.91</ele>
        <time>2022-08-16T08:37:32Z</time>
      </trkpt>
      <trkpt lat="44.90506" lon="2.8892">
        <ele>983.07</ele>
        <time>2022-08-16T08:37:33Z</time>
      </trkpt>
      <trkpt lat="44.90521" lon="2.88922">
        <ele>984.52</ele>
        <time>2022-08-16T08:37:34Z</time>
      </trkpt>
      <trkpt lat="44.90536" lon="2.88928">
        <ele>984.99</ele>
        <time>2022-08-16T08:37:35Z</time>
      </trkpt>
      <trkpt lat="44.90551" lon="2.88934">
        <ele>984.99</ele>
        <time>2022-08-16T08:37:36Z</time>
      </trkpt>
      <trkpt lat="44.90606" lon="2.88956">
        <ele>985.04</ele>
        <time>2022-08-16T08:37:40Z</time>
      </trkpt>
      <trkpt lat="44.90618" lon="2.88957">
        <ele>985.05</ele>
        <time>2022-08-16T08:37:41Z</time>
      </trkpt>
      <trkpt lat="44.90631" lon="2.88956">
        <ele>986.09</ele>
        <time>2022-08-16T08:37:42Z</time>
      </trkpt>
      <trkpt lat="44.90656" lon="2.88955">
        <ele>986.11</ele>
        <time>2022-08-16T08:37:44Z</time>
      </trkpt>
      <trkpt lat="44.90668" lon="2.88958">
        <ele>986.95</ele>
        <time>2022-08-16T08:37:45Z</time>
      </trkpt>
      <trkpt lat="44.90734" lon="2.88972">
        <ele>989.39</ele>
        <time>2022-08-16T08:37:50Z</time>
      </trkpt>
      <trkpt lat="44.90848" lon="2.8899">
        <ele>990.54</ele>
        <time>2022-08-16T08:37:58Z</time>
      </trkpt>
      <trkpt lat="44.9086" lon="2.88988">
        <ele>987.98</ele>
        <time>2022-08-16T08:37:59Z</time>
      </trkpt>
      <trkpt lat="44.90871" lon="2.88983">
        <ele>987.72</ele>
        <time>2022-08-16T08:38:00Z</time>
      </trkpt>
      <trkpt lat="44.90882" lon="2.88974">
        <ele>987.74</ele>
        <time>2022-08-16T08:38:01Z</time>
      </trkpt>
      <trkpt lat="44.90892" lon="2.88963">
        <ele>987.74</ele>
        <time>2022-08-16T08:38:02Z</time>
      </trkpt>
      <trkpt lat="44.90903" lon="2.8895">
        <ele>987.74</ele>
        <time>2022-08-16T08:38:03Z</time>
      </trkpt>
      <trkpt lat="44.90995" lon="2.88816">
        <ele>990.15</ele>
        <time>2022-08-16T08:38:12Z</time>
      </trkpt>
      <trkpt lat="44.91005" lon="2.88799">
        <ele>990.18</ele>
        <time>2022-08-16T08:38:13Z</time>
      </trkpt>
      <trkpt lat="44.91035" lon="2.88751">
        <ele>992.29</ele>
        <time>2022-08-16T08:38:16Z</time>
      </trkpt>
      <trkpt lat="44.91057" lon="2.88717">
        <ele>994.11</ele>
        <time>2022-08-16T08:38:18Z</time>
      </trkpt>
      <trkpt lat="44.91089" lon="2.88667">
        <ele>995.5</ele>
        <time>2022-08-16T08:38:21Z</time>
      </trkpt>
      <trkpt lat="44.9121" lon="2.88551">
        <ele>997.7</ele>
        <time>2022-08-16T08:38:30Z</time>
      </trkpt>
      <trkpt lat="44.91224" lon="2.88539">
        <ele>997.73</ele>
        <time>2022-08-16T08:38:31Z</time>
      </trkpt>
      <trkpt lat="44.91282" lon="2.88496">
        <ele>999.63</ele>
        <time>2022-08-16T08:38:35Z</time>
      </trkpt>
      <trkpt lat="44.91298" lon="2.88491">
        <ele>999.72</ele>
        <time>2022-08-16T08:38:36Z</time>
      </trkpt>
      <trkpt lat="44.91313" lon="2.88488">
        <ele>1001.47</ele>
        <time>2022-08-16T08:38:37Z</time>
      </trkpt>
      <trkpt lat="44.91359" lon="2.88484">
        <ele>1005.12</ele>
        <time>2022-08-16T08:38:40Z</time>
      </trkpt>
      <trkpt lat="44.91405" lon="2.88484">
        <ele>1009.88</ele>
        <time>2022-08-16T08:38:43Z</time>
      </trkpt>
      <trkpt lat="44.91452" lon="2.88479">
        <ele>1014.6</ele>
        <time>2022-08-16T08:38:46Z</time>
      </trkpt>
      <trkpt lat="44.915" lon="2.88472">
        <ele>1018.25</ele>
        <time>2022-08-16T08:38:49Z</time>
      </trkpt>
      <trkpt lat="44.9155" lon="2.8847">
        <ele>1022.17</ele>
        <time>2022-08-16T08:38:52Z</time>
      </trkpt>
      <trkpt lat="44.91599" lon="2.88479">
        <ele>1026.07</ele>
        <time>2022-08-16T08:38:55Z</time>
      </trkpt>
      <trkpt lat="44.9165" lon="2.8849">
        <ele>1030.2</ele>
        <time>2022-08-16T08:38:58Z</time>
      </trkpt>
      <trkpt lat="44.917" lon="2.88496">
        <ele>1033.61</ele>
        <time>2022-08-16T08:39:01Z</time>
      </trkpt>
      <trkpt lat="44.91717" lon="2.88495">
        <ele>1034.17</ele>
        <time>2022-08-16T08:39:02Z</time>
      </trkpt>
      <trkpt lat="44.91734" lon="2.88491">
        <ele>1035.74</ele>
        <time>2022-08-16T08:39:03Z</time>
      </trkpt>
      <trkpt lat="44.91751" lon="2.88484">
        <ele>1035.65</ele>
        <time>2022-08-16T08:39:04Z</time>
      </trkpt>
      <trkpt lat="44.91768" lon="2.88475">
        <ele>1037.18</ele>
        <time>2022-08-16T08:39:05Z</time>
      </trkpt>
      <trkpt lat="44.91784" lon="2.88464">
        <ele>1038.02</ele>
        <time>2022-08-16T08:39:06Z</time>
      </trkpt>
      <trkpt lat="44.91799" lon="2.88452">
        <ele>1039.14</ele>
        <time>2022-08-16T08:39:07Z</time>
      </trkpt>
      <trkpt lat="44.91814" lon="2.88441">
        <ele>1039.25</ele>
        <time>2022-08-16T08:39:08Z</time>
      </trkpt>
      <trkpt lat="44.91884" lon="2.88414">
        <ele>1042.27</ele>
        <time>2022-08-16T08:39:13Z</time>
      </trkpt>
      <trkpt lat="44.91927" lon="2.88398">
        <ele>1045.12</ele>
        <time>2022-08-16T08:39:16Z</time>
      </trkpt>
      <trkpt lat="44.91941" lon="2.88389">
        <ele>1045.11</ele>
        <time>2022-08-16T08:39:17Z</time>
      </trkpt>
      <trkpt lat="44.91954" lon="2.88377">
        <ele>1046.38</ele>
        <time>2022-08-16T08:39:18Z</time>
      </trkpt>
      <trkpt lat="44.9198" lon="2.88349">
        <ele>1047.31</ele>
        <time>2022-08-16T08:39:20Z</time>
      </trkpt>
      <trkpt lat="44.92018" lon="2.88313">
        <ele>1048.39</ele>
        <time>2022-08-16T08:39:23Z</time>
      </trkpt>
      <trkpt lat="44.92032" lon="2.88305">
        <ele>1048.39</ele>
        <time>2022-08-16T08:39:24Z</time>
      </trkpt>
      <trkpt lat="44.92045" lon="2.883">
        <ele>1048.5</ele>
        <time>2022-08-16T08:39:25Z</time>
      </trkpt>
      <trkpt lat="44.9206" lon="2.88298">
        <ele>1048.46</ele>
        <time>2022-08-16T08:39:26Z</time>
      </trkpt>
      <trkpt lat="44.92074" lon="2.88296">
        <ele>1048.49</ele>
        <time>2022-08-16T08:39:27Z</time>
      </trkpt>
      <trkpt lat="44.92144" lon="2.88293">
        <ele>1045.67</ele>
        <time>2022-08-16T08:39:32Z</time>
      </trkpt>
      <trkpt lat="44.92179" lon="2.88291">
        <ele>1044.34</ele>
        <time>2022-08-16T08:39:35Z</time>
      </trkpt>
      <trkpt lat="44.92272" lon="2.88275">
        <ele>1047.15</ele>
        <time>2022-08-16T08:39:42Z</time>
      </trkpt>
      <trkpt lat="44.92313" lon="2.88267">
        <ele>1048.51</ele>
        <time>2022-08-16T08:39:45Z</time>
      </trkpt>
      <trkpt lat="44.92354" lon="2.88259">
        <ele>1051.19</ele>
        <time>2022-08-16T08:39:48Z</time>
      </trkpt>
      <trkpt lat="44.92395" lon="2.88258">
        <ele>1053.65</ele>
        <time>2022-08-16T08:39:51Z</time>
      </trkpt>
      <trkpt lat="44.92424" lon="2.88259">
        <ele>1055.08</ele>
        <time>2022-08-16T08:39:53Z</time>
      </trkpt>
      <trkpt lat="44.92454" lon="2.88259">
        <ele>1056.46</ele>
        <time>2022-08-16T08:39:55Z</time>
      </trkpt>
      <trkpt lat="44.92485" lon="2.88256">
        <ele>1057.64</ele>
        <time>2022-08-16T08:39:57Z</time>
      </trkpt>
      <trkpt lat="44.925" lon="2.88252">
        <ele>1057.59</ele>
        <time>2022-08-16T08:39:58Z</time>
      </trkpt>
      <trkpt lat="44.92717" lon="2.88193">
        <ele>1061.06</ele>
        <time>2022-08-16T08:40:11Z</time>
      </trkpt>
      <trkpt lat="44.92821" lon="2.88199">
        <ele>1064.34</ele>
        <time>2022-08-16T08:40:17Z</time>
      </trkpt>
      <trkpt lat="44.92856" lon="2.882">
        <ele>1065.43</ele>
        <time>2022-08-16T08:40:19Z</time>
      </trkpt>
      <trkpt lat="44.9289" lon="2.88195">
        <ele>1067.97</ele>
        <time>2022-08-16T08:40:21Z</time>
      </trkpt>
      <trkpt lat="44.92907" lon="2.88189">
        <ele>1068.01</ele>
        <time>2022-08-16T08:40:22Z</time>
      </trkpt>
      <trkpt lat="44.92989" lon="2.88155">
        <ele>1070.47</ele>
        <time>2022-08-16T08:40:27Z</time>
      </trkpt>
      <trkpt lat="44.93056" lon="2.8814">
        <ele>1074.05</ele>
        <time>2022-08-16T08:40:31Z</time>
      </trkpt>
      <trkpt lat="44.93073" lon="2.88136">
        <ele>1074.05</ele>
        <time>2022-08-16T08:40:32Z</time>
      </trkpt>
      <trkpt lat="44.93139" lon="2.88123">
        <ele>1076.11</ele>
        <time>2022-08-16T08:40:36Z</time>
      </trkpt>
      <trkpt lat="44.9325" lon="2.88113">
        <ele>1076.21</ele>
        <time>2022-08-16T08:40:44Z</time>
      </trkpt>
      <trkpt lat="44.93364" lon="2.88079">
        <ele>1072.64</ele>
        <time>2022-08-16T08:40:52Z</time>
      </trkpt>
      <trkpt lat="44.93377" lon="2.88072">
        <ele>1072.61</ele>
        <time>2022-08-16T08:40:53Z</time>
      </trkpt>
      <trkpt lat="44.93415" lon="2.88046">
        <ele>1070.44</ele>
        <time>2022-08-16T08:40:56Z</time>
      </trkpt>
      <trkpt lat="44.93592" lon="2.8789">
        <ele>1068.79</ele>
        <time>2022-08-16T08:41:10Z</time>
      </trkpt>
      <trkpt lat="44.9367" lon="2.87831">
        <ele>1067.91</ele>
        <time>2022-08-16T08:41:16Z</time>
      </trkpt>
      <trkpt lat="44.93681" lon="2.8782">
        <ele>1067.95</ele>
        <time>2022-08-16T08:41:17Z</time>
      </trkpt>
      <trkpt lat="44.93692" lon="2.87808">
        <ele>1067.98</ele>
        <time>2022-08-16T08:41:18Z</time>
      </trkpt>
      <trkpt lat="44.93724" lon="2.8777">
        <ele>1067.99</ele>
        <time>2022-08-16T08:41:21Z</time>
      </trkpt>
      <trkpt lat="44.93736" lon="2.87761">
        <ele>1067.99</ele>
        <time>2022-08-16T08:41:22Z</time>
      </trkpt>
      <trkpt lat="44.93782" lon="2.87731">
        <ele>1064.9</ele>
        <time>2022-08-16T08:41:26Z</time>
      </trkpt>
      <trkpt lat="44.93822" lon="2.87704">
        <ele>1061.06</ele>
        <time>2022-08-16T08:41:30Z</time>
      </trkpt>
      <trkpt lat="44.9383" lon="2.87699">
        <ele>1061.01</ele>
        <time>2022-08-16T08:41:31Z</time>
      </trkpt>
      <trkpt lat="44.93855" lon="2.8768">
        <ele>1058.99</ele>
        <time>2022-08-16T08:41:36Z</time>
      </trkpt>
      <trkpt lat="44.9386" lon="2.87676">
        <ele>1058.91</ele>
        <time>2022-08-16T08:41:40Z</time>
      </trkpt>
      <trkpt lat="44.93904" lon="2.8764">
        <ele>1059.03</ele>
        <time>2022-08-16T08:41:45Z</time>
      </trkpt>
      <trkpt lat="44.93933" lon="2.87623">
        <ele>1062.08</ele>
        <time>2022-08-16T08:41:47Z</time>
      </trkpt>
      <trkpt lat="44.93977" lon="2.87592">
        <ele>1064.52</ele>
        <time>2022-08-16T08:41:50Z</time>
      </trkpt>
      <trkpt lat="44.94005" lon="2.87579">
        <ele>1064.53</ele>
        <time>2022-08-16T08:41:52Z</time>
      </trkpt>
      <trkpt lat="44.94019" lon="2.87577">
        <ele>1064.53</ele>
        <time>2022-08-16T08:41:53Z</time>
      </trkpt>
      <trkpt lat="44.94032" lon="2.87578">
        <ele>1064.56</ele>
        <time>2022-08-16T08:41:54Z</time>
      </trkpt>
      <trkpt lat="44.94044" lon="2.87581">
        <ele>1064.56</ele>
        <time>2022-08-16T08:41:55Z</time>
      </trkpt>
      <trkpt lat="44.94055" lon="2.87586">
        <ele>1064.59</ele>
        <time>2022-08-16T08:41:56Z</time>
      </trkpt>
      <trkpt lat="44.94067" lon="2.87592">
        <ele>1064.56</ele>
        <time>2022-08-16T08:41:57Z</time>
      </trkpt>
      <trkpt lat="44.94079" lon="2.876">
        <ele>1064.59</ele>
        <time>2022-08-16T08:41:58Z</time>
      </trkpt>
      <trkpt lat="44.94134" lon="2.87626">
        <ele>1061.33</ele>
        <time>2022-08-16T08:42:02Z</time>
      </trkpt>
      <trkpt lat="44.94148" lon="2.87631">
        <ele>1061.27</ele>
        <time>2022-08-16T08:42:03Z</time>
      </trkpt>
      <trkpt lat="44.94176" lon="2.87636">
        <ele>1059.3</ele>
        <time>2022-08-16T08:42:05Z</time>
      </trkpt>
      <trkpt lat="44.9419" lon="2.87633">
        <ele>1059.22</ele>
        <time>2022-08-16T08:42:06Z</time>
      </trkpt>
      <trkpt lat="44.94202" lon="2.87626">
        <ele>1059.19</ele>
        <time>2022-08-16T08:42:07Z</time>
      </trkpt>
      <trkpt lat="44.94235" lon="2.87598">
        <ele>1058.38</ele>
        <time>2022-08-16T08:42:10Z</time>
      </trkpt>
      <trkpt lat="44.94246" lon="2.87586">
        <ele>1058.4</ele>
        <time>2022-08-16T08:42:11Z</time>
      </trkpt>
      <trkpt lat="44.94256" lon="2.87573">
        <ele>1058.3</ele>
        <time>2022-08-16T08:42:12Z</time>
      </trkpt>
      <trkpt lat="44.94265" lon="2.87557">
        <ele>1058.31</ele>
        <time>2022-08-16T08:42:13Z</time>
      </trkpt>
      <trkpt lat="44.94274" lon="2.8754">
        <ele>1058.27</ele>
        <time>2022-08-16T08:42:14Z</time>
      </trkpt>
      <trkpt lat="44.94295" lon="2.87508">
        <ele>1058.59</ele>
        <time>2022-08-16T08:42:16Z</time>
      </trkpt>
      <trkpt lat="44.94433" lon="2.87371">
        <ele>1058.65</ele>
        <time>2022-08-16T08:42:26Z</time>
      </trkpt>
      <trkpt lat="44.94537" lon="2.87241">
        <ele>1058.65</ele>
        <time>2022-08-16T08:42:34Z</time>
      </trkpt>
      <trkpt lat="44.94584" lon="2.87181">
        <ele>1060.91</ele>
        <time>2022-08-16T08:42:38Z</time>
      </trkpt>
      <trkpt lat="44.94598" lon="2.8717">
        <ele>1061.71</ele>
        <time>2022-08-16T08:42:39Z</time>
      </trkpt>
      <trkpt lat="44.94613" lon="2.8716">
        <ele>1061.71</ele>
        <time>2022-08-16T08:42:40Z</time>
      </trkpt>
      <trkpt lat="44.94675" lon="2.8713">
        <ele>1062.49</ele>
        <time>2022-08-16T08:42:44Z</time>
      </trkpt>
      <trkpt lat="44.94692" lon="2.87126">
        <ele>1062.5</ele>
        <time>2022-08-16T08:42:45Z</time>
      </trkpt>
      <trkpt lat="44.94777" lon="2.8712">
        <ele>1060.03</ele>
        <time>2022-08-16T08:42:50Z</time>
      </trkpt>
      <trkpt lat="44.94966" lon="2.87157">
        <ele>1058.64</ele>
        <time>2022-08-16T08:43:01Z</time>
      </trkpt>
      <trkpt lat="44.95014" lon="2.87164">
        <ele>1055.32</ele>
        <time>2022-08-16T08:43:04Z</time>
      </trkpt>
      <trkpt lat="44.95029" lon="2.87166">
        <ele>1055.32</ele>
        <time>2022-08-16T08:43:05Z</time>
      </trkpt>
      <trkpt lat="44.95071" lon="2.87178">
        <ele>1052.35</ele>
        <time>2022-08-16T08:43:08Z</time>
      </trkpt>
      <trkpt lat="44.95084" lon="2.87186">
        <ele>1051.44</ele>
        <time>2022-08-16T08:43:09Z</time>
      </trkpt>
      <trkpt lat="44.95096" lon="2.87199">
        <ele>1051.46</ele>
        <time>2022-08-16T08:43:10Z</time>
      </trkpt>
      <trkpt lat="44.95119" lon="2.87226">
        <ele>1051.41</ele>
        <time>2022-08-16T08:43:12Z</time>
      </trkpt>
      <trkpt lat="44.95132" lon="2.87237">
        <ele>1050.59</ele>
        <time>2022-08-16T08:43:13Z</time>
      </trkpt>
      <trkpt lat="44.95146" lon="2.87247">
        <ele>1049.7</ele>
        <time>2022-08-16T08:43:14Z</time>
      </trkpt>
      <trkpt lat="44.9516" lon="2.87256">
        <ele>1049.61</ele>
        <time>2022-08-16T08:43:15Z</time>
      </trkpt>
      <trkpt lat="44.95187" lon="2.87269">
        <ele>1047.72</ele>
        <time>2022-08-16T08:43:17Z</time>
      </trkpt>
      <trkpt lat="44.95201" lon="2.87272">
        <ele>1046.78</ele>
        <time>2022-08-16T08:43:18Z</time>
      </trkpt>
      <trkpt lat="44.95215" lon="2.87271">
        <ele>1046.67</ele>
        <time>2022-08-16T08:43:19Z</time>
      </trkpt>
      <trkpt lat="44.95228" lon="2.87269">
        <ele>1045.43</ele>
        <time>2022-08-16T08:43:20Z</time>
      </trkpt>
      <trkpt lat="44.95241" lon="2.87265">
        <ele>1044.33</ele>
        <time>2022-08-16T08:43:21Z</time>
      </trkpt>
      <trkpt lat="44.95254" lon="2.87262">
        <ele>1044.37</ele>
        <time>2022-08-16T08:43:22Z</time>
      </trkpt>
      <trkpt lat="44.95277" lon="2.87256">
        <ele>1042.93</ele>
        <time>2022-08-16T08:43:24Z</time>
      </trkpt>
      <trkpt lat="44.95303" lon="2.87252">
        <ele>1040.47</ele>
        <time>2022-08-16T08:43:27Z</time>
      </trkpt>
      <trkpt lat="44.95307" lon="2.87254">
        <ele>1041.03</ele>
        <time>2022-08-16T08:43:28Z</time>
      </trkpt>
      <trkpt lat="44.9531" lon="2.87258">
        <ele>1040</ele>
        <time>2022-08-16T08:43:29Z</time>
      </trkpt>
      <trkpt lat="44.95313" lon="2.87265">
        <ele>1040.02</ele>
        <time>2022-08-16T08:43:30Z</time>
      </trkpt>
      <trkpt lat="44.95314" lon="2.87275">
        <ele>1040.02</ele>
        <time>2022-08-16T08:43:31Z</time>
      </trkpt>
      <trkpt lat="44.95315" lon="2.87288">
        <ele>1040.02</ele>
        <time>2022-08-16T08:43:32Z</time>
      </trkpt>
      <trkpt lat="44.95316" lon="2.87303">
        <ele>1039.97</ele>
        <time>2022-08-16T08:43:33Z</time>
      </trkpt>
      <trkpt lat="44.95329" lon="2.8741">
        <ele>1039.07</ele>
        <time>2022-08-16T08:43:39Z</time>
      </trkpt>
      <trkpt lat="44.95336" lon="2.87427">
        <ele>1039.09</ele>
        <time>2022-08-16T08:43:40Z</time>
      </trkpt>
      <trkpt lat="44.95346" lon="2.87442">
        <ele>1039.11</ele>
        <time>2022-08-16T08:43:41Z</time>
      </trkpt>
      <trkpt lat="44.95356" lon="2.87456">
        <ele>1039.1</ele>
        <time>2022-08-16T08:43:42Z</time>
      </trkpt>
      <trkpt lat="44.95368" lon="2.87469">
        <ele>1039.1</ele>
        <time>2022-08-16T08:43:43Z</time>
      </trkpt>
      <trkpt lat="44.95382" lon="2.87479">
        <ele>1039.1</ele>
        <time>2022-08-16T08:43:44Z</time>
      </trkpt>
      <trkpt lat="44.95396" lon="2.87487">
        <ele>1039.1</ele>
        <time>2022-08-16T08:43:45Z</time>
      </trkpt>
      <trkpt lat="44.95412" lon="2.87493">
        <ele>1037.88</ele>
        <time>2022-08-16T08:43:46Z</time>
      </trkpt>
      <trkpt lat="44.95427" lon="2.87501">
        <ele>1037.87</ele>
        <time>2022-08-16T08:43:47Z</time>
      </trkpt>
      <trkpt lat="44.95482" lon="2.87535">
        <ele>1035.73</ele>
        <time>2022-08-16T08:43:51Z</time>
      </trkpt>
      <trkpt lat="44.95516" lon="2.87568">
        <ele>1033.3</ele>
        <time>2022-08-16T08:43:54Z</time>
      </trkpt>
      <trkpt lat="44.95539" lon="2.8759">
        <ele>1033.26</ele>
        <time>2022-08-16T08:43:56Z</time>
      </trkpt>
      <trkpt lat="44.95552" lon="2.87598">
        <ele>1033.22</ele>
        <time>2022-08-16T08:43:57Z</time>
      </trkpt>
      <trkpt lat="44.95566" lon="2.87602">
        <ele>1033.22</ele>
        <time>2022-08-16T08:43:58Z</time>
      </trkpt>
      <trkpt lat="44.95582" lon="2.87603">
        <ele>1032.19</ele>
        <time>2022-08-16T08:43:59Z</time>
      </trkpt>
      <trkpt lat="44.95598" lon="2.87605">
        <ele>1032.15</ele>
        <time>2022-08-16T08:44:00Z</time>
      </trkpt>
      <trkpt lat="44.95719" lon="2.87629">
        <ele>1028.77</ele>
        <time>2022-08-16T08:44:07Z</time>
      </trkpt>
      <trkpt lat="44.95735" lon="2.87632">
        <ele>1028.81</ele>
        <time>2022-08-16T08:44:08Z</time>
      </trkpt>
      <trkpt lat="44.95825" lon="2.87666">
        <ele>1026.41</ele>
        <time>2022-08-16T08:44:14Z</time>
      </trkpt>
      <trkpt lat="44.95852" lon="2.87681">
        <ele>1025.21</ele>
        <time>2022-08-16T08:44:16Z</time>
      </trkpt>
      <trkpt lat="44.95865" lon="2.87691">
        <ele>1025.19</ele>
        <time>2022-08-16T08:44:17Z</time>
      </trkpt>
      <trkpt lat="44.95877" lon="2.87704">
        <ele>1024.09</ele>
        <time>2022-08-16T08:44:18Z</time>
      </trkpt>
      <trkpt lat="44.95888" lon="2.87718">
        <ele>1023.97</ele>
        <time>2022-08-16T08:44:19Z</time>
      </trkpt>
      <trkpt lat="44.95908" lon="2.8775">
        <ele>1024.02</ele>
        <time>2022-08-16T08:44:21Z</time>
      </trkpt>
      <trkpt lat="44.95917" lon="2.87769">
        <ele>1022.61</ele>
        <time>2022-08-16T08:44:22Z</time>
      </trkpt>
      <trkpt lat="44.95924" lon="2.87787">
        <ele>1022.62</ele>
        <time>2022-08-16T08:44:23Z</time>
      </trkpt>
      <trkpt lat="44.95945" lon="2.87839">
        <ele>1021.2</ele>
        <time>2022-08-16T08:44:26Z</time>
      </trkpt>
      <trkpt lat="44.95954" lon="2.87855">
        <ele>1021.17</ele>
        <time>2022-08-16T08:44:27Z</time>
      </trkpt>
      <trkpt lat="44.95965" lon="2.8787">
        <ele>1020.18</ele>
        <time>2022-08-16T08:44:28Z</time>
      </trkpt>
      <trkpt lat="44.95976" lon="2.87883">
        <ele>1020.16</ele>
        <time>2022-08-16T08:44:29Z</time>
      </trkpt>
      <trkpt lat="44.95988" lon="2.87894">
        <ele>1018.71</ele>
        <time>2022-08-16T08:44:30Z</time>
      </trkpt>
      <trkpt lat="44.96001" lon="2.87903">
        <ele>1018.64</ele>
        <time>2022-08-16T08:44:31Z</time>
      </trkpt>
      <trkpt lat="44.96017" lon="2.87908">
        <ele>1018.71</ele>
        <time>2022-08-16T08:44:32Z</time>
      </trkpt>
      <trkpt lat="44.96033" lon="2.87912">
        <ele>1018.72</ele>
        <time>2022-08-16T08:44:33Z</time>
      </trkpt>
      <trkpt lat="44.96049" lon="2.87917">
        <ele>1017.84</ele>
        <time>2022-08-16T08:44:34Z</time>
      </trkpt>
      <trkpt lat="44.96121" lon="2.87951">
        <ele>1015.96</ele>
        <time>2022-08-16T08:44:39Z</time>
      </trkpt>
      <trkpt lat="44.96219" lon="2.87982">
        <ele>1012.95</ele>
        <time>2022-08-16T08:44:46Z</time>
      </trkpt>
      <trkpt lat="44.96255" lon="2.87996">
        <ele>1011.3</ele>
        <time>2022-08-16T08:44:49Z</time>
      </trkpt>
      <trkpt lat="44.96267" lon="2.87998">
        <ele>1010.16</ele>
        <time>2022-08-16T08:44:50Z</time>
      </trkpt>
      <trkpt lat="44.96278" lon="2.87996">
        <ele>1010.16</ele>
        <time>2022-08-16T08:44:51Z</time>
      </trkpt>
      <trkpt lat="44.9629" lon="2.87991">
        <ele>1010.16</ele>
        <time>2022-08-16T08:44:52Z</time>
      </trkpt>
      <trkpt lat="44.96301" lon="2.87983">
        <ele>1010.12</ele>
        <time>2022-08-16T08:44:53Z</time>
      </trkpt>
      <trkpt lat="44.9631" lon="2.87973">
        <ele>1009.04</ele>
        <time>2022-08-16T08:44:54Z</time>
      </trkpt>
      <trkpt lat="44.96318" lon="2.87961">
        <ele>1008.23</ele>
        <time>2022-08-16T08:44:55Z</time>
      </trkpt>
      <trkpt lat="44.96324" lon="2.8795">
        <ele>1008.24</ele>
        <time>2022-08-16T08:44:56Z</time>
      </trkpt>
      <trkpt lat="44.96337" lon="2.87926">
        <ele>1007.24</ele>
        <time>2022-08-16T08:44:58Z</time>
      </trkpt>
      <trkpt lat="44.96341" lon="2.8791">
        <ele>1007.24</ele>
        <time>2022-08-16T08:44:59Z</time>
      </trkpt>
      <trkpt lat="44.96343" lon="2.87892">
        <ele>1007.23</ele>
        <time>2022-08-16T08:45:00Z</time>
      </trkpt>
      <trkpt lat="44.96352" lon="2.8783">
        <ele>1011.55</ele>
        <time>2022-08-16T08:45:03Z</time>
      </trkpt>
      <trkpt lat="44.96356" lon="2.87809">
        <ele>1011.54</ele>
        <time>2022-08-16T08:45:04Z</time>
      </trkpt>
      <trkpt lat="44.96365" lon="2.87768">
        <ele>1013.38</ele>
        <time>2022-08-16T08:45:06Z</time>
      </trkpt>
      <trkpt lat="44.96377" lon="2.87712">
        <ele>1014.85</ele>
        <time>2022-08-16T08:45:09Z</time>
      </trkpt>
      <trkpt lat="44.9639" lon="2.87659">
        <ele>1016.61</ele>
        <time>2022-08-16T08:45:12Z</time>
      </trkpt>
      <trkpt lat="44.96396" lon="2.87642">
        <ele>1017.22</ele>
        <time>2022-08-16T08:45:13Z</time>
      </trkpt>
      <trkpt lat="44.96404" lon="2.87627">
        <ele>1018.4</ele>
        <time>2022-08-16T08:45:14Z</time>
      </trkpt>
      <trkpt lat="44.96414" lon="2.87613">
        <ele>1018.4</ele>
        <time>2022-08-16T08:45:15Z</time>
      </trkpt>
      <trkpt lat="44.96439" lon="2.87585">
        <ele>1021.48</ele>
        <time>2022-08-16T08:45:17Z</time>
      </trkpt>
      <trkpt lat="44.9648" lon="2.87539">
        <ele>1023.44</ele>
        <time>2022-08-16T08:45:20Z</time>
      </trkpt>
      <trkpt lat="44.96518" lon="2.87499">
        <ele>1025.02</ele>
        <time>2022-08-16T08:45:23Z</time>
      </trkpt>
      <trkpt lat="44.96558" lon="2.87465">
        <ele>1027.36</ele>
        <time>2022-08-16T08:45:26Z</time>
      </trkpt>
      <trkpt lat="44.96572" lon="2.87457">
        <ele>1027.42</ele>
        <time>2022-08-16T08:45:27Z</time>
      </trkpt>
      <trkpt lat="44.9662" lon="2.87433">
        <ele>1031.68</ele>
        <time>2022-08-16T08:45:30Z</time>
      </trkpt>
      <trkpt lat="44.96636" lon="2.87424">
        <ele>1031.77</ele>
        <time>2022-08-16T08:45:31Z</time>
      </trkpt>
      <trkpt lat="44.96681" lon="2.87388">
        <ele>1033.04</ele>
        <time>2022-08-16T08:45:34Z</time>
      </trkpt>
      <trkpt lat="44.96694" lon="2.87372">
        <ele>1033.78</ele>
        <time>2022-08-16T08:45:35Z</time>
      </trkpt>
      <trkpt lat="44.96705" lon="2.87353">
        <ele>1033.69</ele>
        <time>2022-08-16T08:45:36Z</time>
      </trkpt>
      <trkpt lat="44.96714" lon="2.87333">
        <ele>1034.79</ele>
        <time>2022-08-16T08:45:37Z</time>
      </trkpt>
      <trkpt lat="44.96722" lon="2.87312">
        <ele>1036.48</ele>
        <time>2022-08-16T08:45:38Z</time>
      </trkpt>
      <trkpt lat="44.9673" lon="2.87291">
        <ele>1037.62</ele>
        <time>2022-08-16T08:45:39Z</time>
      </trkpt>
      <trkpt lat="44.96738" lon="2.8727">
        <ele>1037.61</ele>
        <time>2022-08-16T08:45:40Z</time>
      </trkpt>
      <trkpt lat="44.9676" lon="2.87205">
        <ele>1040.46</ele>
        <time>2022-08-16T08:45:43Z</time>
      </trkpt>
      <trkpt lat="44.96771" lon="2.87165">
        <ele>1040.43</ele>
        <time>2022-08-16T08:45:45Z</time>
      </trkpt>
      <trkpt lat="44.96775" lon="2.87147">
        <ele>1040.48</ele>
        <time>2022-08-16T08:45:46Z</time>
      </trkpt>
      <trkpt lat="44.96776" lon="2.87128">
        <ele>1040.47</ele>
        <time>2022-08-16T08:45:47Z</time>
      </trkpt>
      <trkpt lat="44.96775" lon="2.87109">
        <ele>1041.93</ele>
        <time>2022-08-16T08:45:48Z</time>
      </trkpt>
      <trkpt lat="44.9677" lon="2.87089">
        <ele>1041.98</ele>
        <time>2022-08-16T08:45:49Z</time>
      </trkpt>
      <trkpt lat="44.96764" lon="2.87069">
        <ele>1043.33</ele>
        <time>2022-08-16T08:45:50Z</time>
      </trkpt>
      <trkpt lat="44.96756" lon="2.87049">
        <ele>1043.41</ele>
        <time>2022-08-16T08:45:51Z</time>
      </trkpt>
      <trkpt lat="44.96746" lon="2.87029">
        <ele>1045.4</ele>
        <time>2022-08-16T08:45:52Z</time>
      </trkpt>
      <trkpt lat="44.96736" lon="2.87009">
        <ele>1046.46</ele>
        <time>2022-08-16T08:45:53Z</time>
      </trkpt>
      <trkpt lat="44.96725" lon="2.86989">
        <ele>1046.54</ele>
        <time>2022-08-16T08:45:54Z</time>
      </trkpt>
      <trkpt lat="44.96699" lon="2.86935">
        <ele>1047.83</ele>
        <time>2022-08-16T08:45:57Z</time>
      </trkpt>
      <trkpt lat="44.96694" lon="2.86917">
        <ele>1047.77</ele>
        <time>2022-08-16T08:45:58Z</time>
      </trkpt>
      <trkpt lat="44.96692" lon="2.86899">
        <ele>1047.7</ele>
        <time>2022-08-16T08:45:59Z</time>
      </trkpt>
      <trkpt lat="44.96691" lon="2.86879">
        <ele>1047.68</ele>
        <time>2022-08-16T08:46:00Z</time>
      </trkpt>
      <trkpt lat="44.96692" lon="2.8686">
        <ele>1049.52</ele>
        <time>2022-08-16T08:46:01Z</time>
      </trkpt>
      <trkpt lat="44.96693" lon="2.8684">
        <ele>1049.52</ele>
        <time>2022-08-16T08:46:02Z</time>
      </trkpt>
      <trkpt lat="44.96698" lon="2.86775">
        <ele>1051.94</ele>
        <time>2022-08-16T08:46:05Z</time>
      </trkpt>
      <trkpt lat="44.96703" lon="2.86708">
        <ele>1054.48</ele>
        <time>2022-08-16T08:46:08Z</time>
      </trkpt>
      <trkpt lat="44.96707" lon="2.8664">
        <ele>1057.06</ele>
        <time>2022-08-16T08:46:11Z</time>
      </trkpt>
      <trkpt lat="44.96711" lon="2.86573">
        <ele>1059.28</ele>
        <time>2022-08-16T08:46:14Z</time>
      </trkpt>
      <trkpt lat="44.96714" lon="2.8653">
        <ele>1060.69</ele>
        <time>2022-08-16T08:46:16Z</time>
      </trkpt>
      <trkpt lat="44.9672" lon="2.86448">
        <ele>1064.66</ele>
        <time>2022-08-16T08:46:20Z</time>
      </trkpt>
      <trkpt lat="44.96725" lon="2.86382">
        <ele>1068.06</ele>
        <time>2022-08-16T08:46:23Z</time>
      </trkpt>
      <trkpt lat="44.96726" lon="2.86342">
        <ele>1069.39</ele>
        <time>2022-08-16T08:46:25Z</time>
      </trkpt>
      <trkpt lat="44.96723" lon="2.86323">
        <ele>1070.18</ele>
        <time>2022-08-16T08:46:26Z</time>
      </trkpt>
      <trkpt lat="44.96717" lon="2.86305">
        <ele>1071.76</ele>
        <time>2022-08-16T08:46:27Z</time>
      </trkpt>
      <trkpt lat="44.96701" lon="2.86269">
        <ele>1075.07</ele>
        <time>2022-08-16T08:46:29Z</time>
      </trkpt>
      <trkpt lat="44.96694" lon="2.8625">
        <ele>1076.28</ele>
        <time>2022-08-16T08:46:30Z</time>
      </trkpt>
      <trkpt lat="44.96689" lon="2.8623">
        <ele>1077.77</ele>
        <time>2022-08-16T08:46:31Z</time>
      </trkpt>
      <trkpt lat="44.9668" lon="2.86187">
        <ele>1080.77</ele>
        <time>2022-08-16T08:46:33Z</time>
      </trkpt>
      <trkpt lat="44.96671" lon="2.8614">
        <ele>1084.08</ele>
        <time>2022-08-16T08:46:35Z</time>
      </trkpt>
      <trkpt lat="44.96661" lon="2.86089">
        <ele>1087.71</ele>
        <time>2022-08-16T08:46:37Z</time>
      </trkpt>
      <trkpt lat="44.96651" lon="2.86035">
        <ele>1090.88</ele>
        <time>2022-08-16T08:46:39Z</time>
      </trkpt>
      <trkpt lat="44.96641" lon="2.85983">
        <ele>1091.88</ele>
        <time>2022-08-16T08:46:41Z</time>
      </trkpt>
      <trkpt lat="44.96626" lon="2.85906">
        <ele>1094.25</ele>
        <time>2022-08-16T08:46:44Z</time>
      </trkpt>
      <trkpt lat="44.96611" lon="2.85834">
        <ele>1096.36</ele>
        <time>2022-08-16T08:46:47Z</time>
      </trkpt>
      <trkpt lat="44.96597" lon="2.85763">
        <ele>1098.17</ele>
        <time>2022-08-16T08:46:50Z</time>
      </trkpt>
      <trkpt lat="44.96569" lon="2.85647">
        <ele>1101.16</ele>
        <time>2022-08-16T08:46:55Z</time>
      </trkpt>
      <trkpt lat="44.96507" lon="2.8546">
        <ele>1105.13</ele>
        <time>2022-08-16T08:47:03Z</time>
      </trkpt>
      <trkpt lat="44.96499" lon="2.85436">
        <ele>1105.07</ele>
        <time>2022-08-16T08:47:04Z</time>
      </trkpt>
      <trkpt lat="44.9645" lon="2.8532">
        <ele>1107.53</ele>
        <time>2022-08-16T08:47:09Z</time>
      </trkpt>
      <trkpt lat="44.96364" lon="2.85107">
        <ele>1110.77</ele>
        <time>2022-08-16T08:47:18Z</time>
      </trkpt>
      <trkpt lat="44.96305" lon="2.8486">
        <ele>1108.06</ele>
        <time>2022-08-16T08:47:28Z</time>
      </trkpt>
      <trkpt lat="44.96301" lon="2.84839">
        <ele>1108.03</ele>
        <time>2022-08-16T08:47:29Z</time>
      </trkpt>
      <trkpt lat="44.96294" lon="2.848">
        <ele>1106.8</ele>
        <time>2022-08-16T08:47:31Z</time>
      </trkpt>
      <trkpt lat="44.96284" lon="2.8475">
        <ele>1103.37</ele>
        <time>2022-08-16T08:47:34Z</time>
      </trkpt>
      <trkpt lat="44.96282" lon="2.84737">
        <ele>1103.32</ele>
        <time>2022-08-16T08:47:35Z</time>
      </trkpt>
      <trkpt lat="44.96277" lon="2.84714">
        <ele>1101.9</ele>
        <time>2022-08-16T08:47:37Z</time>
      </trkpt>
      <trkpt lat="44.96274" lon="2.847">
        <ele>1100.87</ele>
        <time>2022-08-16T08:47:39Z</time>
      </trkpt>
      <trkpt lat="44.96274" lon="2.84695">
        <ele>1100.9</ele>
        <time>2022-08-16T08:47:40Z</time>
      </trkpt>
      <trkpt lat="44.96275" lon="2.84692">
        <ele>1100.55</ele>
        <time>2022-08-16T08:47:41Z</time>
      </trkpt>
      <trkpt lat="44.96278" lon="2.8469">
        <ele>1099.18</ele>
        <time>2022-08-16T08:47:42Z</time>
      </trkpt>
      <trkpt lat="44.96283" lon="2.84689">
        <ele>1099.18</ele>
        <time>2022-08-16T08:47:43Z</time>
      </trkpt>
      <trkpt lat="44.9629" lon="2.84689">
        <ele>1099.26</ele>
        <time>2022-08-16T08:47:44Z</time>
      </trkpt>
      <trkpt lat="44.96298" lon="2.84691">
        <ele>1099.15</ele>
        <time>2022-08-16T08:47:45Z</time>
      </trkpt>
      <trkpt lat="44.96308" lon="2.84693">
        <ele>1099.17</ele>
        <time>2022-08-16T08:47:46Z</time>
      </trkpt>
      <trkpt lat="44.96374" lon="2.84706">
        <ele>1101.59</ele>
        <time>2022-08-16T08:47:51Z</time>
      </trkpt>
      <trkpt lat="44.96545" lon="2.84737">
        <ele>1101.82</ele>
        <time>2022-08-16T08:48:01Z</time>
      </trkpt>
      <trkpt lat="44.96577" lon="2.84743">
        <ele>1098.18</ele>
        <time>2022-08-16T08:48:03Z</time>
      </trkpt>
      <trkpt lat="44.9661" lon="2.84747">
        <ele>1097.06</ele>
        <time>2022-08-16T08:48:05Z</time>
      </trkpt>
      <trkpt lat="44.96661" lon="2.84744">
        <ele>1094.99</ele>
        <time>2022-08-16T08:48:08Z</time>
      </trkpt>
      <trkpt lat="44.96808" lon="2.84686">
        <ele>1093.86</ele>
        <time>2022-08-16T08:48:17Z</time>
      </trkpt>
      <trkpt lat="44.96855" lon="2.84666">
        <ele>1093.91</ele>
        <time>2022-08-16T08:48:20Z</time>
      </trkpt>
      <trkpt lat="44.96871" lon="2.84663">
        <ele>1093.89</ele>
        <time>2022-08-16T08:48:21Z</time>
      </trkpt>
      <trkpt lat="44.96888" lon="2.84662">
        <ele>1093.94</ele>
        <time>2022-08-16T08:48:22Z</time>
      </trkpt>
      <trkpt lat="44.96904" lon="2.84662">
        <ele>1093.93</ele>
        <time>2022-08-16T08:48:23Z</time>
      </trkpt>
      <trkpt lat="44.9692" lon="2.84664">
        <ele>1093.95</ele>
        <time>2022-08-16T08:48:24Z</time>
      </trkpt>
      <trkpt lat="44.97018" lon="2.84689">
        <ele>1094.03</ele>
        <time>2022-08-16T08:48:30Z</time>
      </trkpt>
      <trkpt lat="44.97033" lon="2.84697">
        <ele>1094.03</ele>
        <time>2022-08-16T08:48:31Z</time>
      </trkpt>
      <trkpt lat="44.97121" lon="2.84767">
        <ele>1094.11</ele>
        <time>2022-08-16T08:48:37Z</time>
      </trkpt>
      <trkpt lat="44.97134" lon="2.84784">
        <ele>1094.11</ele>
        <time>2022-08-16T08:48:38Z</time>
      </trkpt>
      <trkpt lat="44.97234" lon="2.84916">
        <ele>1093.35</ele>
        <time>2022-08-16T08:48:47Z</time>
      </trkpt>
      <trkpt lat="44.97307" lon="2.84965">
        <ele>1091.52</ele>
        <time>2022-08-16T08:48:52Z</time>
      </trkpt>
      <trkpt lat="44.97354" lon="2.84993">
        <ele>1090.29</ele>
        <time>2022-08-16T08:48:55Z</time>
      </trkpt>
      <trkpt lat="44.97431" lon="2.85052">
        <ele>1087.33</ele>
        <time>2022-08-16T08:49:00Z</time>
      </trkpt>
      <trkpt lat="44.97459" lon="2.85076">
        <ele>1085.71</ele>
        <time>2022-08-16T08:49:02Z</time>
      </trkpt>
      <trkpt lat="44.97486" lon="2.85099">
        <ele>1083.79</ele>
        <time>2022-08-16T08:49:04Z</time>
      </trkpt>
      <trkpt lat="44.97521" lon="2.85135">
        <ele>1080.33</ele>
        <time>2022-08-16T08:49:07Z</time>
      </trkpt>
      <trkpt lat="44.97549" lon="2.85165">
        <ele>1077.44</ele>
        <time>2022-08-16T08:49:10Z</time>
      </trkpt>
      <trkpt lat="44.97558" lon="2.85172">
        <ele>1076.35</ele>
        <time>2022-08-16T08:49:11Z</time>
      </trkpt>
      <trkpt lat="44.97569" lon="2.85174">
        <ele>1075.34</ele>
        <time>2022-08-16T08:49:12Z</time>
      </trkpt>
      <trkpt lat="44.9758" lon="2.85173">
        <ele>1074.39</ele>
        <time>2022-08-16T08:49:13Z</time>
      </trkpt>
      <trkpt lat="44.97591" lon="2.8517">
        <ele>1074.45</ele>
        <time>2022-08-16T08:49:14Z</time>
      </trkpt>
      <trkpt lat="44.97602" lon="2.85167">
        <ele>1072.95</ele>
        <time>2022-08-16T08:49:15Z</time>
      </trkpt>
      <trkpt lat="44.97613" lon="2.85165">
        <ele>1072.98</ele>
        <time>2022-08-16T08:49:16Z</time>
      </trkpt>
      <trkpt lat="44.97624" lon="2.85164">
        <ele>1071.86</ele>
        <time>2022-08-16T08:49:17Z</time>
      </trkpt>
      <trkpt lat="44.97634" lon="2.85166">
        <ele>1070.67</ele>
        <time>2022-08-16T08:49:18Z</time>
      </trkpt>
      <trkpt lat="44.97644" lon="2.85172">
        <ele>1070.58</ele>
        <time>2022-08-16T08:49:19Z</time>
      </trkpt>
      <trkpt lat="44.97653" lon="2.8518">
        <ele>1069.61</ele>
        <time>2022-08-16T08:49:20Z</time>
      </trkpt>
      <trkpt lat="44.97662" lon="2.8519">
        <ele>1069.7</ele>
        <time>2022-08-16T08:49:21Z</time>
      </trkpt>
      <trkpt lat="44.977" lon="2.85231">
        <ele>1070.43</ele>
        <time>2022-08-16T08:49:25Z</time>
      </trkpt>
      <trkpt lat="44.97711" lon="2.85237">
        <ele>1070.43</ele>
        <time>2022-08-16T08:49:26Z</time>
      </trkpt>
      <trkpt lat="44.97723" lon="2.8524">
        <ele>1069.62</ele>
        <time>2022-08-16T08:49:27Z</time>
      </trkpt>
      <trkpt lat="44.97736" lon="2.85241">
        <ele>1069.62</ele>
        <time>2022-08-16T08:49:28Z</time>
      </trkpt>
      <trkpt lat="44.97748" lon="2.85242">
        <ele>1069.63</ele>
        <time>2022-08-16T08:49:29Z</time>
      </trkpt>
      <trkpt lat="44.97796" lon="2.85249">
        <ele>1069.61</ele>
        <time>2022-08-16T08:49:33Z</time>
      </trkpt>
      <trkpt lat="44.97807" lon="2.85254">
        <ele>1069.61</ele>
        <time>2022-08-16T08:49:34Z</time>
      </trkpt>
      <trkpt lat="44.97816" lon="2.85261">
        <ele>1069.6</ele>
        <time>2022-08-16T08:49:35Z</time>
      </trkpt>
      <trkpt lat="44.97823" lon="2.85271">
        <ele>1069.61</ele>
        <time>2022-08-16T08:49:36Z</time>
      </trkpt>
      <trkpt lat="44.97829" lon="2.85282">
        <ele>1069.59</ele>
        <time>2022-08-16T08:49:37Z</time>
      </trkpt>
      <trkpt lat="44.97835" lon="2.85294">
        <ele>1069.65</ele>
        <time>2022-08-16T08:49:38Z</time>
      </trkpt>
      <trkpt lat="44.97857" lon="2.85334">
        <ele>1069.72</ele>
        <time>2022-08-16T08:49:41Z</time>
      </trkpt>
      <trkpt lat="44.97866" lon="2.85346">
        <ele>1069.69</ele>
        <time>2022-08-16T08:49:42Z</time>
      </trkpt>
      <trkpt lat="44.97877" lon="2.85356">
        <ele>1069.74</ele>
        <time>2022-08-16T08:49:43Z</time>
      </trkpt>
      <trkpt lat="44.97889" lon="2.85365">
        <ele>1069.74</ele>
        <time>2022-08-16T08:49:44Z</time>
      </trkpt>
      <trkpt lat="44.97902" lon="2.85373">
        <ele>1072.17</ele>
        <time>2022-08-16T08:49:45Z</time>
      </trkpt>
      <trkpt lat="44.97916" lon="2.85381">
        <ele>1072.19</ele>
        <time>2022-08-16T08:49:46Z</time>
      </trkpt>
      <trkpt lat="44.98004" lon="2.85421">
        <ele>1075.19</ele>
        <time>2022-08-16T08:49:52Z</time>
      </trkpt>
      <trkpt lat="44.98034" lon="2.85434">
        <ele>1076.59</ele>
        <time>2022-08-16T08:49:54Z</time>
      </trkpt>
      <trkpt lat="44.98064" lon="2.85447">
        <ele>1078.35</ele>
        <time>2022-08-16T08:49:56Z</time>
      </trkpt>
      <trkpt lat="44.98089" lon="2.85457">
        <ele>1079.69</ele>
        <time>2022-08-16T08:49:58Z</time>
      </trkpt>
      <trkpt lat="44.98173" lon="2.85494">
        <ele>1079.66</ele>
        <time>2022-08-16T08:50:07Z</time>
      </trkpt>
      <trkpt lat="44.98216" lon="2.85527">
        <ele>1079.55</ele>
        <time>2022-08-16T08:50:13Z</time>
      </trkpt>
      <trkpt lat="44.98241" lon="2.85556">
        <ele>1079.61</ele>
        <time>2022-08-16T08:50:17Z</time>
      </trkpt>
      <trkpt lat="44.98248" lon="2.85561">
        <ele>1079.61</ele>
        <time>2022-08-16T08:50:18Z</time>
      </trkpt>
      <trkpt lat="44.98256" lon="2.85562">
        <ele>1080.82</ele>
        <time>2022-08-16T08:50:19Z</time>
      </trkpt>
      <trkpt lat="44.98263" lon="2.85561">
        <ele>1081.88</ele>
        <time>2022-08-16T08:50:20Z</time>
      </trkpt>
      <trkpt lat="44.98271" lon="2.85558">
        <ele>1081.89</ele>
        <time>2022-08-16T08:50:21Z</time>
      </trkpt>
      <trkpt lat="44.98278" lon="2.85554">
        <ele>1081.9</ele>
        <time>2022-08-16T08:50:22Z</time>
      </trkpt>
      <trkpt lat="44.98292" lon="2.85546">
        <ele>1083.27</ele>
        <time>2022-08-16T08:50:24Z</time>
      </trkpt>
      <trkpt lat="44.98311" lon="2.85534">
        <ele>1084.79</ele>
        <time>2022-08-16T08:50:27Z</time>
      </trkpt>
      <trkpt lat="44.9835" lon="2.8551">
        <ele>1087.87</ele>
        <time>2022-08-16T08:50:33Z</time>
      </trkpt>
      <trkpt lat="44.9837" lon="2.855">
        <ele>1089.1</ele>
        <time>2022-08-16T08:50:36Z</time>
      </trkpt>
      <trkpt lat="44.98407" lon="2.85485">
        <ele>1092.27</ele>
        <time>2022-08-16T08:50:41Z</time>
      </trkpt>
      <trkpt lat="44.98439" lon="2.85479">
        <ele>1094.77</ele>
        <time>2022-08-16T08:50:45Z</time>
      </trkpt>
      <trkpt lat="44.98447" lon="2.85482">
        <ele>1094.62</ele>
        <time>2022-08-16T08:50:46Z</time>
      </trkpt>
      <trkpt lat="44.98453" lon="2.85488">
        <ele>1095.98</ele>
        <time>2022-08-16T08:50:47Z</time>
      </trkpt>
      <trkpt lat="44.98457" lon="2.85496">
        <ele>1096.04</ele>
        <time>2022-08-16T08:50:48Z</time>
      </trkpt>
      <trkpt lat="44.98458" lon="2.85506">
        <ele>1097.06</ele>
        <time>2022-08-16T08:50:49Z</time>
      </trkpt>
      <trkpt lat="44.98456" lon="2.85516">
        <ele>1097.91</ele>
        <time>2022-08-16T08:50:50Z</time>
      </trkpt>
      <trkpt lat="44.98453" lon="2.85525">
        <ele>1098.89</ele>
        <time>2022-08-16T08:50:51Z</time>
      </trkpt>
      <trkpt lat="44.9845" lon="2.85535">
        <ele>1100.02</ele>
        <time>2022-08-16T08:50:52Z</time>
      </trkpt>
      <trkpt lat="44.98445" lon="2.85543">
        <ele>1101.2</ele>
        <time>2022-08-16T08:50:53Z</time>
      </trkpt>
      <trkpt lat="44.98439" lon="2.8555">
        <ele>1101.24</ele>
        <time>2022-08-16T08:50:54Z</time>
      </trkpt>
      <trkpt lat="44.98432" lon="2.85556">
        <ele>1102.81</ele>
        <time>2022-08-16T08:50:55Z</time>
      </trkpt>
      <trkpt lat="44.98425" lon="2.85561">
        <ele>1103.99</ele>
        <time>2022-08-16T08:50:56Z</time>
      </trkpt>
      <trkpt lat="44.98419" lon="2.85567">
        <ele>1104.9</ele>
        <time>2022-08-16T08:50:57Z</time>
      </trkpt>
      <trkpt lat="44.98416" lon="2.85574">
        <ele>1104.84</ele>
        <time>2022-08-16T08:50:58Z</time>
      </trkpt>
      <trkpt lat="44.98415" lon="2.85583">
        <ele>1106.17</ele>
        <time>2022-08-16T08:50:59Z</time>
      </trkpt>
      <trkpt lat="44.98416" lon="2.8559">
        <ele>1106.18</ele>
        <time>2022-08-16T08:51:00Z</time>
      </trkpt>
      <trkpt lat="44.98419" lon="2.85597">
        <ele>1106.18</ele>
        <time>2022-08-16T08:51:01Z</time>
      </trkpt>
      <trkpt lat="44.98422" lon="2.85605">
        <ele>1107.15</ele>
        <time>2022-08-16T08:51:02Z</time>
      </trkpt>
      <trkpt lat="44.98426" lon="2.85611">
        <ele>1108.14</ele>
        <time>2022-08-16T08:51:03Z</time>
      </trkpt>
      <trkpt lat="44.98431" lon="2.85614">
        <ele>1107.92</ele>
        <time>2022-08-16T08:51:04Z</time>
      </trkpt>
      <trkpt lat="44.98437" lon="2.85616">
        <ele>1108.3</ele>
        <time>2022-08-16T08:51:05Z</time>
      </trkpt>
      <trkpt lat="44.98443" lon="2.85615">
        <ele>1109.7</ele>
        <time>2022-08-16T08:51:06Z</time>
      </trkpt>
      <trkpt lat="44.98448" lon="2.85613">
        <ele>1109.68</ele>
        <time>2022-08-16T08:51:07Z</time>
      </trkpt>
      <trkpt lat="44.98453" lon="2.8561">
        <ele>1110.78</ele>
        <time>2022-08-16T08:51:08Z</time>
      </trkpt>
      <trkpt lat="44.98458" lon="2.85605">
        <ele>1110.86</ele>
        <time>2022-08-16T08:51:09Z</time>
      </trkpt>
      <trkpt lat="44.98464" lon="2.856">
        <ele>1110.72</ele>
        <time>2022-08-16T08:51:10Z</time>
      </trkpt>
      <trkpt lat="44.9847" lon="2.85596">
        <ele>1111.29</ele>
        <time>2022-08-16T08:51:11Z</time>
      </trkpt>
      <trkpt lat="44.98477" lon="2.85593">
        <ele>1112.57</ele>
        <time>2022-08-16T08:51:12Z</time>
      </trkpt>
      <trkpt lat="44.98485" lon="2.85591">
        <ele>1112.7</ele>
        <time>2022-08-16T08:51:13Z</time>
      </trkpt>
      <trkpt lat="44.98494" lon="2.8559">
        <ele>1113.88</ele>
        <time>2022-08-16T08:51:14Z</time>
      </trkpt>
      <trkpt lat="44.98503" lon="2.8559">
        <ele>1114.69</ele>
        <time>2022-08-16T08:51:15Z</time>
      </trkpt>
      <trkpt lat="44.98512" lon="2.85592">
        <ele>1114.75</ele>
        <time>2022-08-16T08:51:16Z</time>
      </trkpt>
      <trkpt lat="44.98522" lon="2.85596">
        <ele>1116.28</ele>
        <time>2022-08-16T08:51:17Z</time>
      </trkpt>
      <trkpt lat="44.98532" lon="2.85601">
        <ele>1117.58</ele>
        <time>2022-08-16T08:51:18Z</time>
      </trkpt>
      <trkpt lat="44.98543" lon="2.85607">
        <ele>1118.62</ele>
        <time>2022-08-16T08:51:19Z</time>
      </trkpt>
      <trkpt lat="44.98564" lon="2.85621">
        <ele>1119.39</ele>
        <time>2022-08-16T08:51:21Z</time>
      </trkpt>
      <trkpt lat="44.98575" lon="2.8563">
        <ele>1121.15</ele>
        <time>2022-08-16T08:51:22Z</time>
      </trkpt>
      <trkpt lat="44.98584" lon="2.85641">
        <ele>1122.27</ele>
        <time>2022-08-16T08:51:23Z</time>
      </trkpt>
      <trkpt lat="44.98603" lon="2.85662">
        <ele>1123.7</ele>
        <time>2022-08-16T08:51:25Z</time>
      </trkpt>
      <trkpt lat="44.98625" lon="2.85679">
        <ele>1125</ele>
        <time>2022-08-16T08:51:27Z</time>
      </trkpt>
      <trkpt lat="44.98637" lon="2.85685">
        <ele>1126.48</ele>
        <time>2022-08-16T08:51:28Z</time>
      </trkpt>
      <trkpt lat="44.9865" lon="2.85689">
        <ele>1127.38</ele>
        <time>2022-08-16T08:51:29Z</time>
      </trkpt>
      <trkpt lat="44.98689" lon="2.85699">
        <ele>1130.6</ele>
        <time>2022-08-16T08:51:32Z</time>
      </trkpt>
      <trkpt lat="44.98731" lon="2.85707">
        <ele>1133.42</ele>
        <time>2022-08-16T08:51:35Z</time>
      </trkpt>
      <trkpt lat="44.98773" lon="2.85715">
        <ele>1137.37</ele>
        <time>2022-08-16T08:51:38Z</time>
      </trkpt>
      <trkpt lat="44.98815" lon="2.8572">
        <ele>1140.46</ele>
        <time>2022-08-16T08:51:41Z</time>
      </trkpt>
      <trkpt lat="44.98829" lon="2.85725">
        <ele>1141.39</ele>
        <time>2022-08-16T08:51:42Z</time>
      </trkpt>
      <trkpt lat="44.98841" lon="2.85731">
        <ele>1142.31</ele>
        <time>2022-08-16T08:51:43Z</time>
      </trkpt>
      <trkpt lat="44.98866" lon="2.85745">
        <ele>1143.39</ele>
        <time>2022-08-16T08:51:45Z</time>
      </trkpt>
      <trkpt lat="44.98902" lon="2.85757">
        <ele>1145.75</ele>
        <time>2022-08-16T08:51:48Z</time>
      </trkpt>
      <trkpt lat="44.98914" lon="2.85757">
        <ele>1147.45</ele>
        <time>2022-08-16T08:51:49Z</time>
      </trkpt>
      <trkpt lat="44.98925" lon="2.85753">
        <ele>1148.34</ele>
        <time>2022-08-16T08:51:50Z</time>
      </trkpt>
      <trkpt lat="44.98936" lon="2.85745">
        <ele>1148.54</ele>
        <time>2022-08-16T08:51:51Z</time>
      </trkpt>
      <trkpt lat="44.98946" lon="2.85735">
        <ele>1150.32</ele>
        <time>2022-08-16T08:51:52Z</time>
      </trkpt>
      <trkpt lat="44.98954" lon="2.85722">
        <ele>1150.37</ele>
        <time>2022-08-16T08:51:53Z</time>
      </trkpt>
      <trkpt lat="44.98961" lon="2.85708">
        <ele>1151.74</ele>
        <time>2022-08-16T08:51:54Z</time>
      </trkpt>
      <trkpt lat="44.98968" lon="2.85694">
        <ele>1151.82</ele>
        <time>2022-08-16T08:51:55Z</time>
      </trkpt>
      <trkpt lat="44.98984" lon="2.85673">
        <ele>1153.79</ele>
        <time>2022-08-16T08:51:57Z</time>
      </trkpt>
      <trkpt lat="44.98993" lon="2.85667">
        <ele>1153.96</ele>
        <time>2022-08-16T08:51:58Z</time>
      </trkpt>
      <trkpt lat="44.99002" lon="2.85663">
        <ele>1155.14</ele>
        <time>2022-08-16T08:51:59Z</time>
      </trkpt>
      <trkpt lat="44.99012" lon="2.85663">
        <ele>1156.02</ele>
        <time>2022-08-16T08:52:00Z</time>
      </trkpt>
      <trkpt lat="44.99021" lon="2.85666">
        <ele>1156.99</ele>
        <time>2022-08-16T08:52:01Z</time>
      </trkpt>
      <trkpt lat="44.99031" lon="2.8567">
        <ele>1157.74</ele>
        <time>2022-08-16T08:52:02Z</time>
      </trkpt>
      <trkpt lat="44.9904" lon="2.85677">
        <ele>1157.75</ele>
        <time>2022-08-16T08:52:03Z</time>
      </trkpt>
      <trkpt lat="44.99049" lon="2.85685">
        <ele>1158.85</ele>
        <time>2022-08-16T08:52:04Z</time>
      </trkpt>
      <trkpt lat="44.99057" lon="2.85694">
        <ele>1160.03</ele>
        <time>2022-08-16T08:52:05Z</time>
      </trkpt>
      <trkpt lat="44.99066" lon="2.85703">
        <ele>1159.98</ele>
        <time>2022-08-16T08:52:06Z</time>
      </trkpt>
      <trkpt lat="44.99076" lon="2.85712">
        <ele>1160.4</ele>
        <time>2022-08-16T08:52:07Z</time>
      </trkpt>
      <trkpt lat="44.99087" lon="2.85718">
        <ele>1161.07</ele>
        <time>2022-08-16T08:52:08Z</time>
      </trkpt>
      <trkpt lat="44.99098" lon="2.85722">
        <ele>1161.86</ele>
        <time>2022-08-16T08:52:09Z</time>
      </trkpt>
      <trkpt lat="44.99111" lon="2.85724">
        <ele>1161.87</ele>
        <time>2022-08-16T08:52:10Z</time>
      </trkpt>
      <trkpt lat="44.99123" lon="2.85724">
        <ele>1163.06</ele>
        <time>2022-08-16T08:52:11Z</time>
      </trkpt>
      <trkpt lat="44.99137" lon="2.85722">
        <ele>1163.05</ele>
        <time>2022-08-16T08:52:12Z</time>
      </trkpt>
      <trkpt lat="44.99238" lon="2.85709">
        <ele>1165.09</ele>
        <time>2022-08-16T08:52:19Z</time>
      </trkpt>
      <trkpt lat="44.99251" lon="2.85704">
        <ele>1166.08</ele>
        <time>2022-08-16T08:52:20Z</time>
      </trkpt>
      <trkpt lat="44.99297" lon="2.85682">
        <ele>1169.13</ele>
        <time>2022-08-16T08:52:23Z</time>
      </trkpt>
      <trkpt lat="44.99313" lon="2.85675">
        <ele>1169.18</ele>
        <time>2022-08-16T08:52:24Z</time>
      </trkpt>
      <trkpt lat="44.99329" lon="2.85667">
        <ele>1170.1</ele>
        <time>2022-08-16T08:52:25Z</time>
      </trkpt>
      <trkpt lat="44.99361" lon="2.85644">
        <ele>1171.47</ele>
        <time>2022-08-16T08:52:27Z</time>
      </trkpt>
      <trkpt lat="44.99391" lon="2.85618">
        <ele>1173.5</ele>
        <time>2022-08-16T08:52:29Z</time>
      </trkpt>
      <trkpt lat="44.99481" lon="2.85545">
        <ele>1175.51</ele>
        <time>2022-08-16T08:52:36Z</time>
      </trkpt>
      <trkpt lat="44.99494" lon="2.85534">
        <ele>1176.53</ele>
        <time>2022-08-16T08:52:37Z</time>
      </trkpt>
      <trkpt lat="44.99504" lon="2.85519">
        <ele>1177.6</ele>
        <time>2022-08-16T08:52:38Z</time>
      </trkpt>
      <trkpt lat="44.99514" lon="2.85502">
        <ele>1178.63</ele>
        <time>2022-08-16T08:52:39Z</time>
      </trkpt>
      <trkpt lat="44.99522" lon="2.85485">
        <ele>1178.62</ele>
        <time>2022-08-16T08:52:40Z</time>
      </trkpt>
      <trkpt lat="44.99548" lon="2.85443">
        <ele>1180.61</ele>
        <time>2022-08-16T08:52:43Z</time>
      </trkpt>
      <trkpt lat="44.99559" lon="2.85433">
        <ele>1181.79</ele>
        <time>2022-08-16T08:52:44Z</time>
      </trkpt>
      <trkpt lat="44.99571" lon="2.85424">
        <ele>1182.58</ele>
        <time>2022-08-16T08:52:45Z</time>
      </trkpt>
      <trkpt lat="44.99584" lon="2.85415">
        <ele>1182.59</ele>
        <time>2022-08-16T08:52:46Z</time>
      </trkpt>
      <trkpt lat="44.99626" lon="2.85391">
        <ele>1185.23</ele>
        <time>2022-08-16T08:52:49Z</time>
      </trkpt>
      <trkpt lat="44.99641" lon="2.85386">
        <ele>1186.23</ele>
        <time>2022-08-16T08:52:50Z</time>
      </trkpt>
      <trkpt lat="44.99657" lon="2.85382">
        <ele>1187.49</ele>
        <time>2022-08-16T08:52:51Z</time>
      </trkpt>
      <trkpt lat="44.99705" lon="2.85374">
        <ele>1190.55</ele>
        <time>2022-08-16T08:52:54Z</time>
      </trkpt>
      <trkpt lat="44.99721" lon="2.85374">
        <ele>1190.64</ele>
        <time>2022-08-16T08:52:55Z</time>
      </trkpt>
      <trkpt lat="44.99737" lon="2.85376">
        <ele>1191.51</ele>
        <time>2022-08-16T08:52:56Z</time>
      </trkpt>
      <trkpt lat="44.99754" lon="2.85381">
        <ele>1191.5</ele>
        <time>2022-08-16T08:52:57Z</time>
      </trkpt>
      <trkpt lat="44.99806" lon="2.85399">
        <ele>1193.62</ele>
        <time>2022-08-16T08:53:00Z</time>
      </trkpt>
      <trkpt lat="44.99851" lon="2.85424">
        <ele>1194.46</ele>
        <time>2022-08-16T08:53:04Z</time>
      </trkpt>
      <trkpt lat="44.9986" lon="2.85436">
        <ele>1194.45</ele>
        <time>2022-08-16T08:53:05Z</time>
      </trkpt>
      <trkpt lat="44.99868" lon="2.85451">
        <ele>1195.62</ele>
        <time>2022-08-16T08:53:06Z</time>
      </trkpt>
      <trkpt lat="44.99876" lon="2.85469">
        <ele>1195.67</ele>
        <time>2022-08-16T08:53:07Z</time>
      </trkpt>
      <trkpt lat="44.99884" lon="2.85487">
        <ele>1195.66</ele>
        <time>2022-08-16T08:53:08Z</time>
      </trkpt>
      <trkpt lat="44.99918" lon="2.85553">
        <ele>1195.63</ele>
        <time>2022-08-16T08:53:12Z</time>
      </trkpt>
      <trkpt lat="44.99929" lon="2.85563">
        <ele>1195.68</ele>
        <time>2022-08-16T08:53:13Z</time>
      </trkpt>
      <trkpt lat="44.99941" lon="2.8557">
        <ele>1195.65</ele>
        <time>2022-08-16T08:53:14Z</time>
      </trkpt>
      <trkpt lat="44.99955" lon="2.85571">
        <ele>1195.7</ele>
        <time>2022-08-16T08:53:15Z</time>
      </trkpt>
      <trkpt lat="44.9997" lon="2.85568">
        <ele>1195.68</ele>
        <time>2022-08-16T08:53:16Z</time>
      </trkpt>
      <trkpt lat="44.99985" lon="2.85562">
        <ele>1195.68</ele>
        <time>2022-08-16T08:53:17Z</time>
      </trkpt>
      <trkpt lat="45.00001" lon="2.85554">
        <ele>1195.7</ele>
        <time>2022-08-16T08:53:18Z</time>
      </trkpt>
      <trkpt lat="45.0007" lon="2.85521">
        <ele>1197.13</ele>
        <time>2022-08-16T08:53:22Z</time>
      </trkpt>
      <trkpt lat="45.00226" lon="2.85444">
        <ele>1197.99</ele>
        <time>2022-08-16T08:53:32Z</time>
      </trkpt>
      <trkpt lat="45.0024" lon="2.85432">
        <ele>1198</ele>
        <time>2022-08-16T08:53:33Z</time>
      </trkpt>
      <trkpt lat="45.00253" lon="2.85418">
        <ele>1199.02</ele>
        <time>2022-08-16T08:53:34Z</time>
      </trkpt>
      <trkpt lat="45.0031" lon="2.85352">
        <ele>1201.42</ele>
        <time>2022-08-16T08:53:38Z</time>
      </trkpt>
      <trkpt lat="45.00368" lon="2.85285">
        <ele>1205.75</ele>
        <time>2022-08-16T08:53:42Z</time>
      </trkpt>
      <trkpt lat="45.00383" lon="2.85268">
        <ele>1205.81</ele>
        <time>2022-08-16T08:53:43Z</time>
      </trkpt>
      <trkpt lat="45.00412" lon="2.85234">
        <ele>1207.31</ele>
        <time>2022-08-16T08:53:45Z</time>
      </trkpt>
      <trkpt lat="45.00468" lon="2.8517">
        <ele>1209.39</ele>
        <time>2022-08-16T08:53:49Z</time>
      </trkpt>
      <trkpt lat="45.00525" lon="2.85098">
        <ele>1212.54</ele>
        <time>2022-08-16T08:53:54Z</time>
      </trkpt>
      <trkpt lat="45.00534" lon="2.85081">
        <ele>1212.53</ele>
        <time>2022-08-16T08:53:55Z</time>
      </trkpt>
      <trkpt lat="45.00542" lon="2.85064">
        <ele>1213.44</ele>
        <time>2022-08-16T08:53:56Z</time>
      </trkpt>
      <trkpt lat="45.00548" lon="2.85047">
        <ele>1213.49</ele>
        <time>2022-08-16T08:53:57Z</time>
      </trkpt>
      <trkpt lat="45.00552" lon="2.8503">
        <ele>1213.49</ele>
        <time>2022-08-16T08:53:58Z</time>
      </trkpt>
      <trkpt lat="45.00554" lon="2.85013">
        <ele>1213.53</ele>
        <time>2022-08-16T08:53:59Z</time>
      </trkpt>
      <trkpt lat="45.00555" lon="2.84995">
        <ele>1213.52</ele>
        <time>2022-08-16T08:54:00Z</time>
      </trkpt>
      <trkpt lat="45.00558" lon="2.84917">
        <ele>1217.01</ele>
        <time>2022-08-16T08:54:04Z</time>
      </trkpt>
      <trkpt lat="45.00557" lon="2.84895">
        <ele>1216.96</ele>
        <time>2022-08-16T08:54:05Z</time>
      </trkpt>
      <trkpt lat="45.00555" lon="2.84873">
        <ele>1217.78</ele>
        <time>2022-08-16T08:54:06Z</time>
      </trkpt>
      <trkpt lat="45.00545" lon="2.84689">
        <ele>1215.19</ele>
        <time>2022-08-16T08:54:14Z</time>
      </trkpt>
      <trkpt lat="45.00547" lon="2.84555">
        <ele>1213.6</ele>
        <time>2022-08-16T08:54:21Z</time>
      </trkpt>
      <trkpt lat="45.00552" lon="2.84491">
        <ele>1210.99</ele>
        <time>2022-08-16T08:54:25Z</time>
      </trkpt>
      <trkpt lat="45.00577" lon="2.84382">
        <ele>1209.02</ele>
        <time>2022-08-16T08:54:34Z</time>
      </trkpt>
      <trkpt lat="45.00606" lon="2.84325">
        <ele>1209.1</ele>
        <time>2022-08-16T08:54:40Z</time>
      </trkpt>
      <trkpt lat="45.00613" lon="2.84318">
        <ele>1209.18</ele>
        <time>2022-08-16T08:54:41Z</time>
      </trkpt>
      <trkpt lat="45.00648" lon="2.84289">
        <ele>1211.58</ele>
        <time>2022-08-16T08:54:45Z</time>
      </trkpt>
      <trkpt lat="45.0069" lon="2.84258">
        <ele>1213.4</ele>
        <time>2022-08-16T08:54:49Z</time>
      </trkpt>
      <trkpt lat="45.00714" lon="2.84245">
        <ele>1214.43</ele>
        <time>2022-08-16T08:54:51Z</time>
      </trkpt>
      <trkpt lat="45.00728" lon="2.84243">
        <ele>1215.38</ele>
        <time>2022-08-16T08:54:52Z</time>
      </trkpt>
      <trkpt lat="45.00742" lon="2.84245">
        <ele>1216.27</ele>
        <time>2022-08-16T08:54:53Z</time>
      </trkpt>
      <trkpt lat="45.00757" lon="2.84249">
        <ele>1216.23</ele>
        <time>2022-08-16T08:54:54Z</time>
      </trkpt>
      <trkpt lat="45.00773" lon="2.84253">
        <ele>1216.32</ele>
        <time>2022-08-16T08:54:55Z</time>
      </trkpt>
      <trkpt lat="45.00873" lon="2.84278">
        <ele>1217.9</ele>
        <time>2022-08-16T08:55:01Z</time>
      </trkpt>
      <trkpt lat="45.00891" lon="2.84286">
        <ele>1217.95</ele>
        <time>2022-08-16T08:55:02Z</time>
      </trkpt>
      <trkpt lat="45.00909" lon="2.84296">
        <ele>1219.76</ele>
        <time>2022-08-16T08:55:03Z</time>
      </trkpt>
      <trkpt lat="45.00927" lon="2.84308">
        <ele>1221.15</ele>
        <time>2022-08-16T08:55:04Z</time>
      </trkpt>
      <trkpt lat="45.00943" lon="2.84321">
        <ele>1221.18</ele>
        <time>2022-08-16T08:55:05Z</time>
      </trkpt>
      <trkpt lat="45.0099" lon="2.84361">
        <ele>1225.84</ele>
        <time>2022-08-16T08:55:08Z</time>
      </trkpt>
      <trkpt lat="45.01029" lon="2.84408">
        <ele>1229.67</ele>
        <time>2022-08-16T08:55:11Z</time>
      </trkpt>
      <trkpt lat="45.01063" lon="2.8446">
        <ele>1231.92</ele>
        <time>2022-08-16T08:55:14Z</time>
      </trkpt>
      <trkpt lat="45.01074" lon="2.84477">
        <ele>1232.01</ele>
        <time>2022-08-16T08:55:15Z</time>
      </trkpt>
      <trkpt lat="45.01086" lon="2.84493">
        <ele>1232.84</ele>
        <time>2022-08-16T08:55:16Z</time>
      </trkpt>
      <trkpt lat="45.01165" lon="2.84574">
        <ele>1230.08</ele>
        <time>2022-08-16T08:55:23Z</time>
      </trkpt>
      <trkpt lat="45.01177" lon="2.8458">
        <ele>1230.05</ele>
        <time>2022-08-16T08:55:24Z</time>
      </trkpt>
      <trkpt lat="45.0119" lon="2.84584">
        <ele>1229.98</ele>
        <time>2022-08-16T08:55:25Z</time>
      </trkpt>
      <trkpt lat="45.01293" lon="2.84605">
        <ele>1233.43</ele>
        <time>2022-08-16T08:55:33Z</time>
      </trkpt>
      <trkpt lat="45.01306" lon="2.8461">
        <ele>1233.45</ele>
        <time>2022-08-16T08:55:34Z</time>
      </trkpt>
      <trkpt lat="45.01345" lon="2.84621">
        <ele>1234.57</ele>
        <time>2022-08-16T08:55:37Z</time>
      </trkpt>
      <trkpt lat="45.01358" lon="2.84619">
        <ele>1234.62</ele>
        <time>2022-08-16T08:55:38Z</time>
      </trkpt>
      <trkpt lat="45.01372" lon="2.84615">
        <ele>1234.64</ele>
        <time>2022-08-16T08:55:39Z</time>
      </trkpt>
      <trkpt lat="45.01508" lon="2.84539">
        <ele>1237.52</ele>
        <time>2022-08-16T08:55:49Z</time>
      </trkpt>
      <trkpt lat="45.01536" lon="2.84526">
        <ele>1238.66</ele>
        <time>2022-08-16T08:55:51Z</time>
      </trkpt>
      <trkpt lat="45.01551" lon="2.84525">
        <ele>1238.63</ele>
        <time>2022-08-16T08:55:52Z</time>
      </trkpt>
      <trkpt lat="45.01566" lon="2.84527">
        <ele>1238.64</ele>
        <time>2022-08-16T08:55:53Z</time>
      </trkpt>
      <trkpt lat="45.01612" lon="2.84537">
        <ele>1240.51</ele>
        <time>2022-08-16T08:55:56Z</time>
      </trkpt>
      <trkpt lat="45.01627" lon="2.84538">
        <ele>1240.3</ele>
        <time>2022-08-16T08:55:57Z</time>
      </trkpt>
      <trkpt lat="45.01642" lon="2.84533">
        <ele>1241.11</ele>
        <time>2022-08-16T08:55:58Z</time>
      </trkpt>
      <trkpt lat="45.01655" lon="2.84522">
        <ele>1241.16</ele>
        <time>2022-08-16T08:55:59Z</time>
      </trkpt>
      <trkpt lat="45.01693" lon="2.8448">
        <ele>1244.64</ele>
        <time>2022-08-16T08:56:02Z</time>
      </trkpt>
      <trkpt lat="45.01733" lon="2.84444">
        <ele>1247.89</ele>
        <time>2022-08-16T08:56:05Z</time>
      </trkpt>
      <trkpt lat="45.01756" lon="2.84428">
        <ele>1249.37</ele>
        <time>2022-08-16T08:56:07Z</time>
      </trkpt>
      <trkpt lat="45.01767" lon="2.84419">
        <ele>1249.27</ele>
        <time>2022-08-16T08:56:08Z</time>
      </trkpt>
      <trkpt lat="45.01779" lon="2.84408">
        <ele>1249.36</ele>
        <time>2022-08-16T08:56:09Z</time>
      </trkpt>
      <trkpt lat="45.01789" lon="2.84394">
        <ele>1250.65</ele>
        <time>2022-08-16T08:56:10Z</time>
      </trkpt>
      <trkpt lat="45.01798" lon="2.84379">
        <ele>1250.65</ele>
        <time>2022-08-16T08:56:11Z</time>
      </trkpt>
      <trkpt lat="45.01824" lon="2.84329">
        <ele>1250.8</ele>
        <time>2022-08-16T08:56:14Z</time>
      </trkpt>
      <trkpt lat="45.0183" lon="2.8431">
        <ele>1250.71</ele>
        <time>2022-08-16T08:56:15Z</time>
      </trkpt>
      <trkpt lat="45.01835" lon="2.84289">
        <ele>1250.74</ele>
        <time>2022-08-16T08:56:16Z</time>
      </trkpt>
      <trkpt lat="45.01852" lon="2.84206">
        <ele>1252.97</ele>
        <time>2022-08-16T08:56:20Z</time>
      </trkpt>
      <trkpt lat="45.01864" lon="2.8415">
        <ele>1256.67</ele>
        <time>2022-08-16T08:56:23Z</time>
      </trkpt>
      <trkpt lat="45.0187" lon="2.84132">
        <ele>1256.67</ele>
        <time>2022-08-16T08:56:24Z</time>
      </trkpt>
      <trkpt lat="45.01881" lon="2.84096">
        <ele>1258.69</ele>
        <time>2022-08-16T08:56:26Z</time>
      </trkpt>
      <trkpt lat="45.01905" lon="2.84026">
        <ele>1262.03</ele>
        <time>2022-08-16T08:56:30Z</time>
      </trkpt>
      <trkpt lat="45.01911" lon="2.84008">
        <ele>1262.17</ele>
        <time>2022-08-16T08:56:31Z</time>
      </trkpt>
      <trkpt lat="45.01936" lon="2.83936">
        <ele>1264.4</ele>
        <time>2022-08-16T08:56:35Z</time>
      </trkpt>
      <trkpt lat="45.01958" lon="2.83885">
        <ele>1266.43</ele>
        <time>2022-08-16T08:56:38Z</time>
      </trkpt>
      <trkpt lat="45.01969" lon="2.83873">
        <ele>1267.87</ele>
        <time>2022-08-16T08:56:39Z</time>
      </trkpt>
      <trkpt lat="45.01981" lon="2.83865">
        <ele>1267.92</ele>
        <time>2022-08-16T08:56:40Z</time>
      </trkpt>
      <trkpt lat="45.02008" lon="2.83853">
        <ele>1271.47</ele>
        <time>2022-08-16T08:56:42Z</time>
      </trkpt>
      <trkpt lat="45.02048" lon="2.83828">
        <ele>1275.56</ele>
        <time>2022-08-16T08:56:45Z</time>
      </trkpt>
      <trkpt lat="45.02061" lon="2.83816">
        <ele>1276.67</ele>
        <time>2022-08-16T08:56:46Z</time>
      </trkpt>
      <trkpt lat="45.02083" lon="2.83792">
        <ele>1279.81</ele>
        <time>2022-08-16T08:56:48Z</time>
      </trkpt>
      <trkpt lat="45.02106" lon="2.83767">
        <ele>1282.72</ele>
        <time>2022-08-16T08:56:50Z</time>
      </trkpt>
      <trkpt lat="45.02117" lon="2.83752">
        <ele>1284.03</ele>
        <time>2022-08-16T08:56:51Z</time>
      </trkpt>
      <trkpt lat="45.02126" lon="2.83735">
        <ele>1285.34</ele>
        <time>2022-08-16T08:56:52Z</time>
      </trkpt>
      <trkpt lat="45.02135" lon="2.83716">
        <ele>1285.47</ele>
        <time>2022-08-16T08:56:53Z</time>
      </trkpt>
      <trkpt lat="45.02152" lon="2.83677">
        <ele>1287.59</ele>
        <time>2022-08-16T08:56:55Z</time>
      </trkpt>
      <trkpt lat="45.02183" lon="2.8362">
        <ele>1290.84</ele>
        <time>2022-08-16T08:56:58Z</time>
      </trkpt>
      <trkpt lat="45.02194" lon="2.83601">
        <ele>1290.81</ele>
        <time>2022-08-16T08:56:59Z</time>
      </trkpt>
      <trkpt lat="45.02215" lon="2.83563">
        <ele>1292.42</ele>
        <time>2022-08-16T08:57:01Z</time>
      </trkpt>
      <trkpt lat="45.02298" lon="2.83393">
        <ele>1289.19</ele>
        <time>2022-08-16T08:57:10Z</time>
      </trkpt>
      <trkpt lat="45.02306" lon="2.8338">
        <ele>1289.19</ele>
        <time>2022-08-16T08:57:11Z</time>
      </trkpt>
      <trkpt lat="45.02354" lon="2.8331">
        <ele>1289.18</ele>
        <time>2022-08-16T08:57:18Z</time>
      </trkpt>
      <trkpt lat="45.0237" lon="2.83293">
        <ele>1289.18</ele>
        <time>2022-08-16T08:57:20Z</time>
      </trkpt>
      <trkpt lat="45.0238" lon="2.83285">
        <ele>1289.16</ele>
        <time>2022-08-16T08:57:21Z</time>
      </trkpt>
      <trkpt lat="45.02392" lon="2.83278">
        <ele>1289.17</ele>
        <time>2022-08-16T08:57:22Z</time>
      </trkpt>
      <trkpt lat="45.02404" lon="2.83274">
        <ele>1288.31</ele>
        <time>2022-08-16T08:57:23Z</time>
      </trkpt>
      <trkpt lat="45.02415" lon="2.83271">
        <ele>1288.33</ele>
        <time>2022-08-16T08:57:24Z</time>
      </trkpt>
      <trkpt lat="45.02426" lon="2.83269">
        <ele>1286.64</ele>
        <time>2022-08-16T08:57:25Z</time>
      </trkpt>
      <trkpt lat="45.02436" lon="2.83268">
        <ele>1285.67</ele>
        <time>2022-08-16T08:57:26Z</time>
      </trkpt>
      <trkpt lat="45.0246" lon="2.83264">
        <ele>1284.04</ele>
        <time>2022-08-16T08:57:28Z</time>
      </trkpt>
      <trkpt lat="45.02471" lon="2.8326">
        <ele>1283.06</ele>
        <time>2022-08-16T08:57:29Z</time>
      </trkpt>
      <trkpt lat="45.02481" lon="2.83256">
        <ele>1281.35</ele>
        <time>2022-08-16T08:57:30Z</time>
      </trkpt>
      <trkpt lat="45.02491" lon="2.83248">
        <ele>1280.31</ele>
        <time>2022-08-16T08:57:31Z</time>
      </trkpt>
      <trkpt lat="45.02499" lon="2.83239">
        <ele>1279.1</ele>
        <time>2022-08-16T08:57:32Z</time>
      </trkpt>
      <trkpt lat="45.02507" lon="2.83228">
        <ele>1277.92</ele>
        <time>2022-08-16T08:57:33Z</time>
      </trkpt>
      <trkpt lat="45.02515" lon="2.83215">
        <ele>1277.9</ele>
        <time>2022-08-16T08:57:34Z</time>
      </trkpt>
      <trkpt lat="45.02543" lon="2.83178">
        <ele>1273.42</ele>
        <time>2022-08-16T08:57:37Z</time>
      </trkpt>
      <trkpt lat="45.0257" lon="2.83141">
        <ele>1269.75</ele>
        <time>2022-08-16T08:57:40Z</time>
      </trkpt>
      <trkpt lat="45.02584" lon="2.83114">
        <ele>1268.37</ele>
        <time>2022-08-16T08:57:42Z</time>
      </trkpt>
      <trkpt lat="45.02607" lon="2.83074">
        <ele>1263.52</ele>
        <time>2022-08-16T08:57:45Z</time>
      </trkpt>
      <trkpt lat="45.02614" lon="2.83061">
        <ele>1263.63</ele>
        <time>2022-08-16T08:57:46Z</time>
      </trkpt>
      <trkpt lat="45.02636" lon="2.83019">
        <ele>1259.72</ele>
        <time>2022-08-16T08:57:49Z</time>
      </trkpt>
      <trkpt lat="45.02656" lon="2.82977">
        <ele>1256.71</ele>
        <time>2022-08-16T08:57:52Z</time>
      </trkpt>
      <trkpt lat="45.02676" lon="2.82934">
        <ele>1253.62</ele>
        <time>2022-08-16T08:57:55Z</time>
      </trkpt>
      <trkpt lat="45.02692" lon="2.82891">
        <ele>1249.87</ele>
        <time>2022-08-16T08:57:58Z</time>
      </trkpt>
      <trkpt lat="45.02705" lon="2.82862">
        <ele>1249.18</ele>
        <time>2022-08-16T08:58:00Z</time>
      </trkpt>
      <trkpt lat="45.02713" lon="2.82848">
        <ele>1247.79</ele>
        <time>2022-08-16T08:58:01Z</time>
      </trkpt>
      <trkpt lat="45.02723" lon="2.82836">
        <ele>1247.79</ele>
        <time>2022-08-16T08:58:02Z</time>
      </trkpt>
      <trkpt lat="45.02736" lon="2.82826">
        <ele>1246.21</ele>
        <time>2022-08-16T08:58:03Z</time>
      </trkpt>
      <trkpt lat="45.02749" lon="2.82817">
        <ele>1246.11</ele>
        <time>2022-08-16T08:58:04Z</time>
      </trkpt>
      <trkpt lat="45.02762" lon="2.82808">
        <ele>1245.13</ele>
        <time>2022-08-16T08:58:05Z</time>
      </trkpt>
      <trkpt lat="45.02774" lon="2.82797">
        <ele>1245.13</ele>
        <time>2022-08-16T08:58:06Z</time>
      </trkpt>
      <trkpt lat="45.02787" lon="2.82785">
        <ele>1243.27</ele>
        <time>2022-08-16T08:58:07Z</time>
      </trkpt>
      <trkpt lat="45.02799" lon="2.82772">
        <ele>1242.37</ele>
        <time>2022-08-16T08:58:08Z</time>
      </trkpt>
      <trkpt lat="45.02838" lon="2.82733">
        <ele>1238.07</ele>
        <time>2022-08-16T08:58:11Z</time>
      </trkpt>
      <trkpt lat="45.02862" lon="2.82707">
        <ele>1236.51</ele>
        <time>2022-08-16T08:58:13Z</time>
      </trkpt>
      <trkpt lat="45.02873" lon="2.82692">
        <ele>1235.66</ele>
        <time>2022-08-16T08:58:14Z</time>
      </trkpt>
      <trkpt lat="45.02885" lon="2.82676">
        <ele>1234.8</ele>
        <time>2022-08-16T08:58:15Z</time>
      </trkpt>
      <trkpt lat="45.02898" lon="2.8266">
        <ele>1233.27</ele>
        <time>2022-08-16T08:58:16Z</time>
      </trkpt>
      <trkpt lat="45.02912" lon="2.82645">
        <ele>1232.25</ele>
        <time>2022-08-16T08:58:17Z</time>
      </trkpt>
      <trkpt lat="45.0295" lon="2.826">
        <ele>1228.65</ele>
        <time>2022-08-16T08:58:20Z</time>
      </trkpt>
      <trkpt lat="45.02988" lon="2.82561">
        <ele>1224.95</ele>
        <time>2022-08-16T08:58:23Z</time>
      </trkpt>
      <trkpt lat="45.03027" lon="2.82532">
        <ele>1221.97</ele>
        <time>2022-08-16T08:58:26Z</time>
      </trkpt>
      <trkpt lat="45.03043" lon="2.82525">
        <ele>1221.17</ele>
        <time>2022-08-16T08:58:27Z</time>
      </trkpt>
      <trkpt lat="45.03059" lon="2.82519">
        <ele>1221.22</ele>
        <time>2022-08-16T08:58:28Z</time>
      </trkpt>
      <trkpt lat="45.03093" lon="2.82506">
        <ele>1217.7</ele>
        <time>2022-08-16T08:58:30Z</time>
      </trkpt>
      <trkpt lat="45.03141" lon="2.82492">
        <ele>1213.62</ele>
        <time>2022-08-16T08:58:33Z</time>
      </trkpt>
      <trkpt lat="45.03187" lon="2.82484">
        <ele>1209.36</ele>
        <time>2022-08-16T08:58:36Z</time>
      </trkpt>
      <trkpt lat="45.032" lon="2.82479">
        <ele>1207.91</ele>
        <time>2022-08-16T08:58:37Z</time>
      </trkpt>
      <trkpt lat="45.03212" lon="2.82472">
        <ele>1206.84</ele>
        <time>2022-08-16T08:58:38Z</time>
      </trkpt>
      <trkpt lat="45.03224" lon="2.82463">
        <ele>1205.98</ele>
        <time>2022-08-16T08:58:39Z</time>
      </trkpt>
      <trkpt lat="45.03234" lon="2.82452">
        <ele>1204.8</ele>
        <time>2022-08-16T08:58:40Z</time>
      </trkpt>
      <trkpt lat="45.03243" lon="2.82441">
        <ele>1203.79</ele>
        <time>2022-08-16T08:58:41Z</time>
      </trkpt>
      <trkpt lat="45.03252" lon="2.82429">
        <ele>1203.79</ele>
        <time>2022-08-16T08:58:42Z</time>
      </trkpt>
      <trkpt lat="45.03275" lon="2.82399">
        <ele>1200.62</ele>
        <time>2022-08-16T08:58:45Z</time>
      </trkpt>
      <trkpt lat="45.03282" lon="2.8239">
        <ele>1200.61</ele>
        <time>2022-08-16T08:58:46Z</time>
      </trkpt>
      <trkpt lat="45.03291" lon="2.82382">
        <ele>1198.84</ele>
        <time>2022-08-16T08:58:47Z</time>
      </trkpt>
      <trkpt lat="45.03299" lon="2.82375">
        <ele>1198.88</ele>
        <time>2022-08-16T08:58:48Z</time>
      </trkpt>
      <trkpt lat="45.03327" lon="2.82359">
        <ele>1196.63</ele>
        <time>2022-08-16T08:58:51Z</time>
      </trkpt>
      <trkpt lat="45.03368" lon="2.82334">
        <ele>1193.35</ele>
        <time>2022-08-16T08:58:55Z</time>
      </trkpt>
      <trkpt lat="45.03406" lon="2.82316">
        <ele>1190.64</ele>
        <time>2022-08-16T08:58:59Z</time>
      </trkpt>
      <trkpt lat="45.03413" lon="2.82315">
        <ele>1190.57</ele>
        <time>2022-08-16T08:59:00Z</time>
      </trkpt>
      <trkpt lat="45.0342" lon="2.82316">
        <ele>1189.19</ele>
        <time>2022-08-16T08:59:01Z</time>
      </trkpt>
      <trkpt lat="45.03428" lon="2.82317">
        <ele>1189.21</ele>
        <time>2022-08-16T08:59:02Z</time>
      </trkpt>
      <trkpt lat="45.03438" lon="2.82318">
        <ele>1189.24</ele>
        <time>2022-08-16T08:59:03Z</time>
      </trkpt>
      <trkpt lat="45.0345" lon="2.82318">
        <ele>1189.18</ele>
        <time>2022-08-16T08:59:04Z</time>
      </trkpt>
      <trkpt lat="45.0349" lon="2.82315">
        <ele>1192.17</ele>
        <time>2022-08-16T08:59:07Z</time>
      </trkpt>
      <trkpt lat="45.03505" lon="2.82309">
        <ele>1193.19</ele>
        <time>2022-08-16T08:59:08Z</time>
      </trkpt>
      <trkpt lat="45.03518" lon="2.82302">
        <ele>1193.19</ele>
        <time>2022-08-16T08:59:09Z</time>
      </trkpt>
      <trkpt lat="45.03542" lon="2.82289">
        <ele>1194.44</ele>
        <time>2022-08-16T08:59:11Z</time>
      </trkpt>
      <trkpt lat="45.03564" lon="2.82277">
        <ele>1195.87</ele>
        <time>2022-08-16T08:59:13Z</time>
      </trkpt>
      <trkpt lat="45.03584" lon="2.82265">
        <ele>1197.73</ele>
        <time>2022-08-16T08:59:15Z</time>
      </trkpt>
      <trkpt lat="45.0361" lon="2.82243">
        <ele>1200.53</ele>
        <time>2022-08-16T08:59:18Z</time>
      </trkpt>
      <trkpt lat="45.03618" lon="2.82235">
        <ele>1201.17</ele>
        <time>2022-08-16T08:59:19Z</time>
      </trkpt>
      <trkpt lat="45.03624" lon="2.82226">
        <ele>1201.72</ele>
        <time>2022-08-16T08:59:20Z</time>
      </trkpt>
      <trkpt lat="45.0363" lon="2.82216">
        <ele>1202.33</ele>
        <time>2022-08-16T08:59:21Z</time>
      </trkpt>
      <trkpt lat="45.03636" lon="2.82207">
        <ele>1202.34</ele>
        <time>2022-08-16T08:59:22Z</time>
      </trkpt>
      <trkpt lat="45.03642" lon="2.82198">
        <ele>1203.7</ele>
        <time>2022-08-16T08:59:23Z</time>
      </trkpt>
      <trkpt lat="45.03655" lon="2.82181">
        <ele>1204.72</ele>
        <time>2022-08-16T08:59:25Z</time>
      </trkpt>
      <trkpt lat="45.0367" lon="2.82165">
        <ele>1206.21</ele>
        <time>2022-08-16T08:59:27Z</time>
      </trkpt>
      <trkpt lat="45.03694" lon="2.82142">
        <ele>1208.91</ele>
        <time>2022-08-16T08:59:30Z</time>
      </trkpt>
      <trkpt lat="45.03721" lon="2.82118">
        <ele>1210.86</ele>
        <time>2022-08-16T08:59:33Z</time>
      </trkpt>
      <trkpt lat="45.03739" lon="2.821">
        <ele>1212.28</ele>
        <time>2022-08-16T08:59:35Z</time>
      </trkpt>
      <trkpt lat="45.03769" lon="2.82073">
        <ele>1214.59</ele>
        <time>2022-08-16T08:59:38Z</time>
      </trkpt>
      <trkpt lat="45.0381" lon="2.82033">
        <ele>1218.29</ele>
        <time>2022-08-16T08:59:42Z</time>
      </trkpt>
      <trkpt lat="45.03821" lon="2.82023">
        <ele>1218.42</ele>
        <time>2022-08-16T08:59:43Z</time>
      </trkpt>
      <trkpt lat="45.03853" lon="2.81994">
        <ele>1221.01</ele>
        <time>2022-08-16T08:59:46Z</time>
      </trkpt>
      <trkpt lat="45.03886" lon="2.81964">
        <ele>1223.81</ele>
        <time>2022-08-16T08:59:49Z</time>
      </trkpt>
      <trkpt lat="45.03908" lon="2.81945">
        <ele>1225.42</ele>
        <time>2022-08-16T08:59:51Z</time>
      </trkpt>
      <trkpt lat="45.03942" lon="2.81918">
        <ele>1228.03</ele>
        <time>2022-08-16T08:59:54Z</time>
      </trkpt>
      <trkpt lat="45.03985" lon="2.81882">
        <ele>1231.08</ele>
        <time>2022-08-16T08:59:58Z</time>
      </trkpt>
      <trkpt lat="45.03995" lon="2.8187">
        <ele>1231.16</ele>
        <time>2022-08-16T08:59:59Z</time>
      </trkpt>
      <trkpt lat="45.04012" lon="2.81845">
        <ele>1232.88</ele>
        <time>2022-08-16T09:00:01Z</time>
      </trkpt>
      <trkpt lat="45.04037" lon="2.81807">
        <ele>1236.62</ele>
        <time>2022-08-16T09:00:04Z</time>
      </trkpt>
      <trkpt lat="45.04045" lon="2.81795">
        <ele>1236.63</ele>
        <time>2022-08-16T09:00:05Z</time>
      </trkpt>
      <trkpt lat="45.04064" lon="2.81769">
        <ele>1238.16</ele>
        <time>2022-08-16T09:00:07Z</time>
      </trkpt>
      <trkpt lat="45.04084" lon="2.81743">
        <ele>1239.43</ele>
        <time>2022-08-16T09:00:09Z</time>
      </trkpt>
      <trkpt lat="45.04119" lon="2.81705">
        <ele>1243.46</ele>
        <time>2022-08-16T09:00:12Z</time>
      </trkpt>
      <trkpt lat="45.04157" lon="2.81665">
        <ele>1247.67</ele>
        <time>2022-08-16T09:00:15Z</time>
      </trkpt>
      <trkpt lat="45.04183" lon="2.81635">
        <ele>1251.24</ele>
        <time>2022-08-16T09:00:17Z</time>
      </trkpt>
      <trkpt lat="45.04218" lon="2.8158">
        <ele>1255.16</ele>
        <time>2022-08-16T09:00:20Z</time>
      </trkpt>
      <trkpt lat="45.04253" lon="2.81521">
        <ele>1258.82</ele>
        <time>2022-08-16T09:00:23Z</time>
      </trkpt>
      <trkpt lat="45.04276" lon="2.8148">
        <ele>1261.91</ele>
        <time>2022-08-16T09:00:25Z</time>
      </trkpt>
      <trkpt lat="45.04288" lon="2.81459">
        <ele>1262.04</ele>
        <time>2022-08-16T09:00:26Z</time>
      </trkpt>
      <trkpt lat="45.04312" lon="2.81418">
        <ele>1265.65</ele>
        <time>2022-08-16T09:00:28Z</time>
      </trkpt>
      <trkpt lat="45.04335" lon="2.81377">
        <ele>1266.51</ele>
        <time>2022-08-16T09:00:30Z</time>
      </trkpt>
      <trkpt lat="45.04358" lon="2.81335">
        <ele>1268.94</ele>
        <time>2022-08-16T09:00:32Z</time>
      </trkpt>
      <trkpt lat="45.04391" lon="2.81266">
        <ele>1272.89</ele>
        <time>2022-08-16T09:00:35Z</time>
      </trkpt>
      <trkpt lat="45.04423" lon="2.81193">
        <ele>1275.87</ele>
        <time>2022-08-16T09:00:38Z</time>
      </trkpt>
      <trkpt lat="45.04444" lon="2.81144">
        <ele>1279.26</ele>
        <time>2022-08-16T09:00:40Z</time>
      </trkpt>
      <trkpt lat="45.04463" lon="2.81095">
        <ele>1280.83</ele>
        <time>2022-08-16T09:00:42Z</time>
      </trkpt>
      <trkpt lat="45.04486" lon="2.81034">
        <ele>1283.24</ele>
        <time>2022-08-16T09:00:45Z</time>
      </trkpt>
      <trkpt lat="45.045" lon="2.81">
        <ele>1284.41</ele>
        <time>2022-08-16T09:00:47Z</time>
      </trkpt>
      <trkpt lat="45.04524" lon="2.80937">
        <ele>1287.02</ele>
        <time>2022-08-16T09:00:51Z</time>
      </trkpt>
      <trkpt lat="45.0455" lon="2.80862">
        <ele>1289.98</ele>
        <time>2022-08-16T09:00:58Z</time>
      </trkpt>
      <trkpt lat="45.04564" lon="2.80824">
        <ele>1291.18</ele>
        <time>2022-08-16T09:01:07Z</time>
      </trkpt>
      <trkpt lat="45.04562" lon="2.80827">
        <ele>1291.52</ele>
        <time>2022-08-16T09:01:42Z</time>
      </trkpt>
      <trkpt lat="45.04561" lon="2.80828">
        <ele>1291.84</ele>
        <time>2022-08-16T09:02:09Z</time>
      </trkpt>
      <trkpt lat="45.04563" lon="2.80826">
        <ele>1291.92</ele>
        <time>2022-08-16T09:02:10Z</time>
      </trkpt>
      <trkpt lat="45.04567" lon="2.80821">
        <ele>1291.94</ele>
        <time>2022-08-16T09:02:11Z</time>
      </trkpt>
      <trkpt lat="45.04571" lon="2.80814">
        <ele>1293.2</ele>
        <time>2022-08-16T09:02:12Z</time>
      </trkpt>
      <trkpt lat="45.04576" lon="2.80804">
        <ele>1294.23</ele>
        <time>2022-08-16T09:02:13Z</time>
      </trkpt>
      <trkpt lat="45.04599" lon="2.80765">
        <ele>1297.35</ele>
        <time>2022-08-16T09:02:16Z</time>
      </trkpt>
      <trkpt lat="45.04618" lon="2.80731">
        <ele>1301.23</ele>
        <time>2022-08-16T09:02:18Z</time>
      </trkpt>
      <trkpt lat="45.04637" lon="2.80693">
        <ele>1304.48</ele>
        <time>2022-08-16T09:02:20Z</time>
      </trkpt>
      <trkpt lat="45.0467" lon="2.80629">
        <ele>1307.58</ele>
        <time>2022-08-16T09:02:23Z</time>
      </trkpt>
      <trkpt lat="45.047" lon="2.80555">
        <ele>1312.1</ele>
        <time>2022-08-16T09:02:26Z</time>
      </trkpt>
      <trkpt lat="45.04727" lon="2.80477">
        <ele>1315.58</ele>
        <time>2022-08-16T09:02:29Z</time>
      </trkpt>
      <trkpt lat="45.04751" lon="2.80426">
        <ele>1319.83</ele>
        <time>2022-08-16T09:02:31Z</time>
      </trkpt>
      <trkpt lat="45.04778" lon="2.80372">
        <ele>1324.36</ele>
        <time>2022-08-16T09:02:33Z</time>
      </trkpt>
      <trkpt lat="45.04804" lon="2.80317">
        <ele>1327.47</ele>
        <time>2022-08-16T09:02:35Z</time>
      </trkpt>
      <trkpt lat="45.04837" lon="2.80235">
        <ele>1331.13</ele>
        <time>2022-08-16T09:02:38Z</time>
      </trkpt>
      <trkpt lat="45.04863" lon="2.80145">
        <ele>1336</ele>
        <time>2022-08-16T09:02:41Z</time>
      </trkpt>
      <trkpt lat="45.04898" lon="2.80025">
        <ele>1337.65</ele>
        <time>2022-08-16T09:02:46Z</time>
      </trkpt>
      <trkpt lat="45.04921" lon="2.79979">
        <ele>1340.5</ele>
        <time>2022-08-16T09:02:49Z</time>
      </trkpt>
      <trkpt lat="45.04959" lon="2.79917">
        <ele>1344.31</ele>
        <time>2022-08-16T09:02:56Z</time>
      </trkpt>
      <trkpt lat="45.04965" lon="2.79908">
        <ele>1344.3</ele>
        <time>2022-08-16T09:02:57Z</time>
      </trkpt>
      <trkpt lat="45.04987" lon="2.79874">
        <ele>1347.75</ele>
        <time>2022-08-16T09:03:00Z</time>
      </trkpt>
      <trkpt lat="45.05015" lon="2.7983">
        <ele>1351.58</ele>
        <time>2022-08-16T09:03:03Z</time>
      </trkpt>
      <trkpt lat="45.05046" lon="2.79781">
        <ele>1355.76</ele>
        <time>2022-08-16T09:03:06Z</time>
      </trkpt>
      <trkpt lat="45.05075" lon="2.79725">
        <ele>1359.74</ele>
        <time>2022-08-16T09:03:09Z</time>
      </trkpt>
      <trkpt lat="45.05093" lon="2.79684">
        <ele>1360.72</ele>
        <time>2022-08-16T09:03:11Z</time>
      </trkpt>
      <trkpt lat="45.0512" lon="2.79623">
        <ele>1364.11</ele>
        <time>2022-08-16T09:03:14Z</time>
      </trkpt>
      <trkpt lat="45.05146" lon="2.79562">
        <ele>1367.83</ele>
        <time>2022-08-16T09:03:17Z</time>
      </trkpt>
      <trkpt lat="45.05152" lon="2.7954">
        <ele>1369.22</ele>
        <time>2022-08-16T09:03:18Z</time>
      </trkpt>
      <trkpt lat="45.05156" lon="2.79519">
        <ele>1370.22</ele>
        <time>2022-08-16T09:03:19Z</time>
      </trkpt>
      <trkpt lat="45.05158" lon="2.79497">
        <ele>1370.84</ele>
        <time>2022-08-16T09:03:20Z</time>
      </trkpt>
      <trkpt lat="45.05161" lon="2.79459">
        <ele>1371.73</ele>
        <time>2022-08-16T09:03:22Z</time>
      </trkpt>
      <trkpt lat="45.05164" lon="2.79443">
        <ele>1373.08</ele>
        <time>2022-08-16T09:03:23Z</time>
      </trkpt>
      <trkpt lat="45.05169" lon="2.79431">
        <ele>1373.1</ele>
        <time>2022-08-16T09:03:24Z</time>
      </trkpt>
      <trkpt lat="45.05175" lon="2.7942">
        <ele>1374.6</ele>
        <time>2022-08-16T09:03:25Z</time>
      </trkpt>
      <trkpt lat="45.05183" lon="2.79413">
        <ele>1374.56</ele>
        <time>2022-08-16T09:03:26Z</time>
      </trkpt>
      <trkpt lat="45.05192" lon="2.79409">
        <ele>1374.63</ele>
        <time>2022-08-16T09:03:27Z</time>
      </trkpt>
      <trkpt lat="45.052" lon="2.79407">
        <ele>1374.62</ele>
        <time>2022-08-16T09:03:28Z</time>
      </trkpt>
      <trkpt lat="45.0521" lon="2.79409">
        <ele>1375.59</ele>
        <time>2022-08-16T09:03:29Z</time>
      </trkpt>
      <trkpt lat="45.05221" lon="2.79411">
        <ele>1376.66</ele>
        <time>2022-08-16T09:03:30Z</time>
      </trkpt>
      <trkpt lat="45.05232" lon="2.79411">
        <ele>1376.01</ele>
        <time>2022-08-16T09:03:31Z</time>
      </trkpt>
      <trkpt lat="45.05243" lon="2.79408">
        <ele>1376.65</ele>
        <time>2022-08-16T09:03:32Z</time>
      </trkpt>
      <trkpt lat="45.05253" lon="2.79401">
        <ele>1376.1</ele>
        <time>2022-08-16T09:03:33Z</time>
      </trkpt>
      <trkpt lat="45.05262" lon="2.79392">
        <ele>1376.04</ele>
        <time>2022-08-16T09:03:34Z</time>
      </trkpt>
      <trkpt lat="45.0527" lon="2.79383">
        <ele>1376.1</ele>
        <time>2022-08-16T09:03:35Z</time>
      </trkpt>
      <trkpt lat="45.05294" lon="2.79359">
        <ele>1373.71</ele>
        <time>2022-08-16T09:03:38Z</time>
      </trkpt>
      <trkpt lat="45.05303" lon="2.79355">
        <ele>1372.08</ele>
        <time>2022-08-16T09:03:39Z</time>
      </trkpt>
      <trkpt lat="45.05313" lon="2.79355">
        <ele>1370.98</ele>
        <time>2022-08-16T09:03:40Z</time>
      </trkpt>
      <trkpt lat="45.05321" lon="2.79358">
        <ele>1370.93</ele>
        <time>2022-08-16T09:03:41Z</time>
      </trkpt>
      <trkpt lat="45.0533" lon="2.79364">
        <ele>1369.5</ele>
        <time>2022-08-16T09:03:42Z</time>
      </trkpt>
      <trkpt lat="45.05337" lon="2.79371">
        <ele>1368.49</ele>
        <time>2022-08-16T09:03:43Z</time>
      </trkpt>
      <trkpt lat="45.05345" lon="2.79379">
        <ele>1368.51</ele>
        <time>2022-08-16T09:03:44Z</time>
      </trkpt>
      <trkpt lat="45.0536" lon="2.79394">
        <ele>1367.5</ele>
        <time>2022-08-16T09:03:46Z</time>
      </trkpt>
      <trkpt lat="45.05368" lon="2.79398">
        <ele>1366.03</ele>
        <time>2022-08-16T09:03:47Z</time>
      </trkpt>
      <trkpt lat="45.05376" lon="2.794">
        <ele>1366</ele>
        <time>2022-08-16T09:03:48Z</time>
      </trkpt>
      <trkpt lat="45.05385" lon="2.79401">
        <ele>1364.06</ele>
        <time>2022-08-16T09:03:49Z</time>
      </trkpt>
      <trkpt lat="45.05394" lon="2.79401">
        <ele>1364.09</ele>
        <time>2022-08-16T09:03:50Z</time>
      </trkpt>
      <trkpt lat="45.05402" lon="2.79399">
        <ele>1363.14</ele>
        <time>2022-08-16T09:03:51Z</time>
      </trkpt>
      <trkpt lat="45.05412" lon="2.79395">
        <ele>1363.08</ele>
        <time>2022-08-16T09:03:52Z</time>
      </trkpt>
      <trkpt lat="45.05456" lon="2.79382">
        <ele>1359.87</ele>
        <time>2022-08-16T09:03:56Z</time>
      </trkpt>
      <trkpt lat="45.05468" lon="2.79384">
        <ele>1358.65</ele>
        <time>2022-08-16T09:03:57Z</time>
      </trkpt>
      <trkpt lat="45.05479" lon="2.7939">
        <ele>1358.66</ele>
        <time>2022-08-16T09:03:58Z</time>
      </trkpt>
      <trkpt lat="45.05488" lon="2.79399">
        <ele>1356.95</ele>
        <time>2022-08-16T09:03:59Z</time>
      </trkpt>
      <trkpt lat="45.05497" lon="2.79412">
        <ele>1356.96</ele>
        <time>2022-08-16T09:04:00Z</time>
      </trkpt>
      <trkpt lat="45.05505" lon="2.79427">
        <ele>1355.46</ele>
        <time>2022-08-16T09:04:01Z</time>
      </trkpt>
      <trkpt lat="45.05522" lon="2.79459">
        <ele>1354.38</ele>
        <time>2022-08-16T09:04:03Z</time>
      </trkpt>
      <trkpt lat="45.05539" lon="2.79492">
        <ele>1352.09</ele>
        <time>2022-08-16T09:04:05Z</time>
      </trkpt>
      <trkpt lat="45.05568" lon="2.79567">
        <ele>1348.96</ele>
        <time>2022-08-16T09:04:09Z</time>
      </trkpt>
      <trkpt lat="45.05576" lon="2.79586">
        <ele>1347.73</ele>
        <time>2022-08-16T09:04:10Z</time>
      </trkpt>
      <trkpt lat="45.05585" lon="2.79605">
        <ele>1347.74</ele>
        <time>2022-08-16T09:04:11Z</time>
      </trkpt>
      <trkpt lat="45.05595" lon="2.79623">
        <ele>1346.43</ele>
        <time>2022-08-16T09:04:12Z</time>
      </trkpt>
      <trkpt lat="45.05618" lon="2.79661">
        <ele>1345.57</ele>
        <time>2022-08-16T09:04:14Z</time>
      </trkpt>
      <trkpt lat="45.05644" lon="2.79699">
        <ele>1342.13</ele>
        <time>2022-08-16T09:04:16Z</time>
      </trkpt>
      <trkpt lat="45.05669" lon="2.79737">
        <ele>1338.9</ele>
        <time>2022-08-16T09:04:18Z</time>
      </trkpt>
      <trkpt lat="45.05709" lon="2.79788">
        <ele>1335.9</ele>
        <time>2022-08-16T09:04:21Z</time>
      </trkpt>
      <trkpt lat="45.05739" lon="2.79819">
        <ele>1332.58</ele>
        <time>2022-08-16T09:04:23Z</time>
      </trkpt>
      <trkpt lat="45.05785" lon="2.79863">
        <ele>1328.36</ele>
        <time>2022-08-16T09:04:26Z</time>
      </trkpt>
      <trkpt lat="45.05829" lon="2.79903">
        <ele>1323.27</ele>
        <time>2022-08-16T09:04:29Z</time>
      </trkpt>
      <trkpt lat="45.05873" lon="2.79939">
        <ele>1319.15</ele>
        <time>2022-08-16T09:04:32Z</time>
      </trkpt>
      <trkpt lat="45.05902" lon="2.79962">
        <ele>1315.08</ele>
        <time>2022-08-16T09:04:34Z</time>
      </trkpt>
      <trkpt lat="45.05929" lon="2.79988">
        <ele>1313.15</ele>
        <time>2022-08-16T09:04:36Z</time>
      </trkpt>
      <trkpt lat="45.05967" lon="2.80032">
        <ele>1308.78</ele>
        <time>2022-08-16T09:04:39Z</time>
      </trkpt>
      <trkpt lat="45.06001" lon="2.8008">
        <ele>1305.14</ele>
        <time>2022-08-16T09:04:42Z</time>
      </trkpt>
      <trkpt lat="45.06029" lon="2.80134">
        <ele>1301.43</ele>
        <time>2022-08-16T09:04:45Z</time>
      </trkpt>
      <trkpt lat="45.06055" lon="2.80191">
        <ele>1297.85</ele>
        <time>2022-08-16T09:04:48Z</time>
      </trkpt>
      <trkpt lat="45.06083" lon="2.80251">
        <ele>1294.65</ele>
        <time>2022-08-16T09:04:51Z</time>
      </trkpt>
      <trkpt lat="45.06093" lon="2.80271">
        <ele>1294.63</ele>
        <time>2022-08-16T09:04:52Z</time>
      </trkpt>
      <trkpt lat="45.06112" lon="2.80312">
        <ele>1291.48</ele>
        <time>2022-08-16T09:04:54Z</time>
      </trkpt>
      <trkpt lat="45.06129" lon="2.80356">
        <ele>1289.7</ele>
        <time>2022-08-16T09:04:56Z</time>
      </trkpt>
      <trkpt lat="45.0615" lon="2.80424">
        <ele>1285.76</ele>
        <time>2022-08-16T09:04:59Z</time>
      </trkpt>
      <trkpt lat="45.06155" lon="2.80447">
        <ele>1284.25</ele>
        <time>2022-08-16T09:05:00Z</time>
      </trkpt>
      <trkpt lat="45.06158" lon="2.80469">
        <ele>1282.17</ele>
        <time>2022-08-16T09:05:01Z</time>
      </trkpt>
      <trkpt lat="45.06162" lon="2.80509">
        <ele>1278.06</ele>
        <time>2022-08-16T09:05:03Z</time>
      </trkpt>
      <trkpt lat="45.06166" lon="2.80526">
        <ele>1276.56</ele>
        <time>2022-08-16T09:05:04Z</time>
      </trkpt>
      <trkpt lat="45.06173" lon="2.80541">
        <ele>1274.89</ele>
        <time>2022-08-16T09:05:05Z</time>
      </trkpt>
      <trkpt lat="45.06183" lon="2.80552">
        <ele>1273.31</ele>
        <time>2022-08-16T09:05:06Z</time>
      </trkpt>
      <trkpt lat="45.06193" lon="2.80557">
        <ele>1273.15</ele>
        <time>2022-08-16T09:05:07Z</time>
      </trkpt>
      <trkpt lat="45.06205" lon="2.80556">
        <ele>1272.4</ele>
        <time>2022-08-16T09:05:08Z</time>
      </trkpt>
      <trkpt lat="45.06216" lon="2.80549">
        <ele>1271.36</ele>
        <time>2022-08-16T09:05:09Z</time>
      </trkpt>
      <trkpt lat="45.06224" lon="2.80537">
        <ele>1271.35</ele>
        <time>2022-08-16T09:05:10Z</time>
      </trkpt>
      <trkpt lat="45.0623" lon="2.80519">
        <ele>1271.45</ele>
        <time>2022-08-16T09:05:11Z</time>
      </trkpt>
      <trkpt lat="45.06233" lon="2.80499">
        <ele>1270.01</ele>
        <time>2022-08-16T09:05:12Z</time>
      </trkpt>
      <trkpt lat="45.06236" lon="2.80479">
        <ele>1268.32</ele>
        <time>2022-08-16T09:05:13Z</time>
      </trkpt>
      <trkpt lat="45.06241" lon="2.80461">
        <ele>1268.32</ele>
        <time>2022-08-16T09:05:14Z</time>
      </trkpt>
      <trkpt lat="45.06247" lon="2.80445">
        <ele>1268.22</ele>
        <time>2022-08-16T09:05:15Z</time>
      </trkpt>
      <trkpt lat="45.06256" lon="2.80432">
        <ele>1266.83</ele>
        <time>2022-08-16T09:05:16Z</time>
      </trkpt>
      <trkpt lat="45.06267" lon="2.80423">
        <ele>1266.42</ele>
        <time>2022-08-16T09:05:17Z</time>
      </trkpt>
      <trkpt lat="45.06279" lon="2.80417">
        <ele>1265.79</ele>
        <time>2022-08-16T09:05:18Z</time>
      </trkpt>
      <trkpt lat="45.06293" lon="2.80415">
        <ele>1264.57</ele>
        <time>2022-08-16T09:05:19Z</time>
      </trkpt>
      <trkpt lat="45.06307" lon="2.80417">
        <ele>1264.58</ele>
        <time>2022-08-16T09:05:20Z</time>
      </trkpt>
      <trkpt lat="45.06321" lon="2.80423">
        <ele>1263.61</ele>
        <time>2022-08-16T09:05:21Z</time>
      </trkpt>
      <trkpt lat="45.06333" lon="2.80434">
        <ele>1263.64</ele>
        <time>2022-08-16T09:05:22Z</time>
      </trkpt>
      <trkpt lat="45.06342" lon="2.8045">
        <ele>1262.54</ele>
        <time>2022-08-16T09:05:23Z</time>
      </trkpt>
      <trkpt lat="45.0635" lon="2.8047">
        <ele>1262.49</ele>
        <time>2022-08-16T09:05:24Z</time>
      </trkpt>
      <trkpt lat="45.06357" lon="2.80491">
        <ele>1261.55</ele>
        <time>2022-08-16T09:05:25Z</time>
      </trkpt>
      <trkpt lat="45.06377" lon="2.8056">
        <ele>1258.49</ele>
        <time>2022-08-16T09:05:28Z</time>
      </trkpt>
      <trkpt lat="45.06384" lon="2.80584">
        <ele>1258.48</ele>
        <time>2022-08-16T09:05:29Z</time>
      </trkpt>
      <trkpt lat="45.06407" lon="2.80654">
        <ele>1255.14</ele>
        <time>2022-08-16T09:05:32Z</time>
      </trkpt>
      <trkpt lat="45.06436" lon="2.80719">
        <ele>1250.85</ele>
        <time>2022-08-16T09:05:35Z</time>
      </trkpt>
      <trkpt lat="45.06447" lon="2.80739">
        <ele>1247.64</ele>
        <time>2022-08-16T09:05:36Z</time>
      </trkpt>
      <trkpt lat="45.06459" lon="2.80759">
        <ele>1247.54</ele>
        <time>2022-08-16T09:05:37Z</time>
      </trkpt>
      <trkpt lat="45.06504" lon="2.80842">
        <ele>1242.71</ele>
        <time>2022-08-16T09:05:41Z</time>
      </trkpt>
      <trkpt lat="45.06512" lon="2.80865">
        <ele>1241.32</ele>
        <time>2022-08-16T09:05:42Z</time>
      </trkpt>
      <trkpt lat="45.06518" lon="2.8089">
        <ele>1240.46</ele>
        <time>2022-08-16T09:05:43Z</time>
      </trkpt>
      <trkpt lat="45.06524" lon="2.80916">
        <ele>1240.46</ele>
        <time>2022-08-16T09:05:44Z</time>
      </trkpt>
      <trkpt lat="45.0654" lon="2.80997">
        <ele>1235.7</ele>
        <time>2022-08-16T09:05:47Z</time>
      </trkpt>
      <trkpt lat="45.06551" lon="2.81048">
        <ele>1234.73</ele>
        <time>2022-08-16T09:05:49Z</time>
      </trkpt>
      <trkpt lat="45.06563" lon="2.81097">
        <ele>1230.48</ele>
        <time>2022-08-16T09:05:51Z</time>
      </trkpt>
      <trkpt lat="45.06576" lon="2.81144">
        <ele>1229.45</ele>
        <time>2022-08-16T09:05:53Z</time>
      </trkpt>
      <trkpt lat="45.06587" lon="2.8119">
        <ele>1227.56</ele>
        <time>2022-08-16T09:05:55Z</time>
      </trkpt>
      <trkpt lat="45.06598" lon="2.81235">
        <ele>1223.76</ele>
        <time>2022-08-16T09:05:57Z</time>
      </trkpt>
      <trkpt lat="45.06618" lon="2.81298">
        <ele>1220.73</ele>
        <time>2022-08-16T09:06:00Z</time>
      </trkpt>
      <trkpt lat="45.06625" lon="2.81318">
        <ele>1220.54</ele>
        <time>2022-08-16T09:06:01Z</time>
      </trkpt>
      <trkpt lat="45.06645" lon="2.81376">
        <ele>1218.59</ele>
        <time>2022-08-16T09:06:04Z</time>
      </trkpt>
      <trkpt lat="45.0667" lon="2.81432">
        <ele>1215.27</ele>
        <time>2022-08-16T09:06:07Z</time>
      </trkpt>
      <trkpt lat="45.06679" lon="2.81451">
        <ele>1215.29</ele>
        <time>2022-08-16T09:06:08Z</time>
      </trkpt>
      <trkpt lat="45.06701" lon="2.81488">
        <ele>1213.99</ele>
        <time>2022-08-16T09:06:10Z</time>
      </trkpt>
      <trkpt lat="45.06737" lon="2.81545">
        <ele>1211.5</ele>
        <time>2022-08-16T09:06:13Z</time>
      </trkpt>
      <trkpt lat="45.06763" lon="2.81585">
        <ele>1207.81</ele>
        <time>2022-08-16T09:06:15Z</time>
      </trkpt>
      <trkpt lat="45.0679" lon="2.81624">
        <ele>1204.53</ele>
        <time>2022-08-16T09:06:17Z</time>
      </trkpt>
      <trkpt lat="45.06817" lon="2.81663">
        <ele>1200.76</ele>
        <time>2022-08-16T09:06:19Z</time>
      </trkpt>
      <trkpt lat="45.06844" lon="2.81701">
        <ele>1196.46</ele>
        <time>2022-08-16T09:06:21Z</time>
      </trkpt>
      <trkpt lat="45.06869" lon="2.81738">
        <ele>1192.98</ele>
        <time>2022-08-16T09:06:23Z</time>
      </trkpt>
      <trkpt lat="45.06894" lon="2.81776">
        <ele>1189.28</ele>
        <time>2022-08-16T09:06:25Z</time>
      </trkpt>
      <trkpt lat="45.0692" lon="2.81811">
        <ele>1186.24</ele>
        <time>2022-08-16T09:06:27Z</time>
      </trkpt>
      <trkpt lat="45.06961" lon="2.81864">
        <ele>1182.32</ele>
        <time>2022-08-16T09:06:30Z</time>
      </trkpt>
      <trkpt lat="45.07003" lon="2.81924">
        <ele>1178.21</ele>
        <time>2022-08-16T09:06:33Z</time>
      </trkpt>
      <trkpt lat="45.0703" lon="2.81967">
        <ele>1174.92</ele>
        <time>2022-08-16T09:06:35Z</time>
      </trkpt>
      <trkpt lat="45.07057" lon="2.82011">
        <ele>1173.2</ele>
        <time>2022-08-16T09:06:37Z</time>
      </trkpt>
      <trkpt lat="45.07097" lon="2.82077">
        <ele>1169.52</ele>
        <time>2022-08-16T09:06:40Z</time>
      </trkpt>
      <trkpt lat="45.07122" lon="2.82123">
        <ele>1168.55</ele>
        <time>2022-08-16T09:06:42Z</time>
      </trkpt>
      <trkpt lat="45.07157" lon="2.82192">
        <ele>1165.27</ele>
        <time>2022-08-16T09:06:45Z</time>
      </trkpt>
      <trkpt lat="45.07193" lon="2.82258">
        <ele>1160.96</ele>
        <time>2022-08-16T09:06:48Z</time>
      </trkpt>
      <trkpt lat="45.07224" lon="2.82326">
        <ele>1157.65</ele>
        <time>2022-08-16T09:06:51Z</time>
      </trkpt>
      <trkpt lat="45.07252" lon="2.82396">
        <ele>1154.8</ele>
        <time>2022-08-16T09:06:54Z</time>
      </trkpt>
      <trkpt lat="45.07259" lon="2.8242">
        <ele>1151.86</ele>
        <time>2022-08-16T09:06:55Z</time>
      </trkpt>
      <trkpt lat="45.07265" lon="2.82445">
        <ele>1150.84</ele>
        <time>2022-08-16T09:06:56Z</time>
      </trkpt>
      <trkpt lat="45.07269" lon="2.8247">
        <ele>1150.54</ele>
        <time>2022-08-16T09:06:57Z</time>
      </trkpt>
      <trkpt lat="45.07274" lon="2.82522">
        <ele>1147.05</ele>
        <time>2022-08-16T09:06:59Z</time>
      </trkpt>
      <trkpt lat="45.07277" lon="2.82572">
        <ele>1143.67</ele>
        <time>2022-08-16T09:07:01Z</time>
      </trkpt>
      <trkpt lat="45.07277" lon="2.82619">
        <ele>1139.13</ele>
        <time>2022-08-16T09:07:03Z</time>
      </trkpt>
      <trkpt lat="45.07279" lon="2.82664">
        <ele>1135.86</ele>
        <time>2022-08-16T09:07:05Z</time>
      </trkpt>
      <trkpt lat="45.07282" lon="2.82686">
        <ele>1134.4</ele>
        <time>2022-08-16T09:07:06Z</time>
      </trkpt>
      <trkpt lat="45.07286" lon="2.82708">
        <ele>1132.19</ele>
        <time>2022-08-16T09:07:07Z</time>
      </trkpt>
      <trkpt lat="45.07294" lon="2.82728">
        <ele>1130.56</ele>
        <time>2022-08-16T09:07:08Z</time>
      </trkpt>
      <trkpt lat="45.07303" lon="2.82746">
        <ele>1128.94</ele>
        <time>2022-08-16T09:07:09Z</time>
      </trkpt>
      <trkpt lat="45.07314" lon="2.82762">
        <ele>1127.93</ele>
        <time>2022-08-16T09:07:10Z</time>
      </trkpt>
      <trkpt lat="45.07326" lon="2.82777">
        <ele>1125.98</ele>
        <time>2022-08-16T09:07:11Z</time>
      </trkpt>
      <trkpt lat="45.07349" lon="2.82807">
        <ele>1123.9</ele>
        <time>2022-08-16T09:07:13Z</time>
      </trkpt>
      <trkpt lat="45.07371" lon="2.82839">
        <ele>1119.98</ele>
        <time>2022-08-16T09:07:15Z</time>
      </trkpt>
      <trkpt lat="45.07381" lon="2.82856">
        <ele>1118.66</ele>
        <time>2022-08-16T09:07:16Z</time>
      </trkpt>
      <trkpt lat="45.07389" lon="2.82875">
        <ele>1117.4</ele>
        <time>2022-08-16T09:07:17Z</time>
      </trkpt>
      <trkpt lat="45.07395" lon="2.82894">
        <ele>1116.18</ele>
        <time>2022-08-16T09:07:18Z</time>
      </trkpt>
      <trkpt lat="45.074" lon="2.82915">
        <ele>1114.46</ele>
        <time>2022-08-16T09:07:19Z</time>
      </trkpt>
      <trkpt lat="45.07405" lon="2.82935">
        <ele>1114.59</ele>
        <time>2022-08-16T09:07:20Z</time>
      </trkpt>
      <trkpt lat="45.07408" lon="2.82955">
        <ele>1113</ele>
        <time>2022-08-16T09:07:21Z</time>
      </trkpt>
      <trkpt lat="45.07409" lon="2.82976">
        <ele>1112.12</ele>
        <time>2022-08-16T09:07:22Z</time>
      </trkpt>
      <trkpt lat="45.07407" lon="2.82996">
        <ele>1110.01</ele>
        <time>2022-08-16T09:07:23Z</time>
      </trkpt>
      <trkpt lat="45.07405" lon="2.83015">
        <ele>1108.64</ele>
        <time>2022-08-16T09:07:24Z</time>
      </trkpt>
      <trkpt lat="45.07402" lon="2.83034">
        <ele>1107.4</ele>
        <time>2022-08-16T09:07:25Z</time>
      </trkpt>
      <trkpt lat="45.07393" lon="2.8309">
        <ele>1104.16</ele>
        <time>2022-08-16T09:07:28Z</time>
      </trkpt>
      <trkpt lat="45.07392" lon="2.83109">
        <ele>1103.33</ele>
        <time>2022-08-16T09:07:29Z</time>
      </trkpt>
      <trkpt lat="45.07393" lon="2.83128">
        <ele>1102.4</ele>
        <time>2022-08-16T09:07:30Z</time>
      </trkpt>
      <trkpt lat="45.07395" lon="2.83147">
        <ele>1100.94</ele>
        <time>2022-08-16T09:07:31Z</time>
      </trkpt>
      <trkpt lat="45.07399" lon="2.83166">
        <ele>1099.59</ele>
        <time>2022-08-16T09:07:32Z</time>
      </trkpt>
      <trkpt lat="45.07403" lon="2.83184">
        <ele>1098.57</ele>
        <time>2022-08-16T09:07:33Z</time>
      </trkpt>
      <trkpt lat="45.07408" lon="2.83202">
        <ele>1097.77</ele>
        <time>2022-08-16T09:07:34Z</time>
      </trkpt>
      <trkpt lat="45.07414" lon="2.83219">
        <ele>1096.52</ele>
        <time>2022-08-16T09:07:35Z</time>
      </trkpt>
      <trkpt lat="45.07421" lon="2.83236">
        <ele>1094.89</ele>
        <time>2022-08-16T09:07:36Z</time>
      </trkpt>
      <trkpt lat="45.0743" lon="2.8325">
        <ele>1093.45</ele>
        <time>2022-08-16T09:07:37Z</time>
      </trkpt>
      <trkpt lat="45.07439" lon="2.83264">
        <ele>1092.1</ele>
        <time>2022-08-16T09:07:38Z</time>
      </trkpt>
      <trkpt lat="45.0745" lon="2.83276">
        <ele>1090.45</ele>
        <time>2022-08-16T09:07:39Z</time>
      </trkpt>
      <trkpt lat="45.07462" lon="2.83286">
        <ele>1090.34</ele>
        <time>2022-08-16T09:07:40Z</time>
      </trkpt>
      <trkpt lat="45.07473" lon="2.83296">
        <ele>1088.99</ele>
        <time>2022-08-16T09:07:41Z</time>
      </trkpt>
      <trkpt lat="45.07509" lon="2.8332">
        <ele>1084.92</ele>
        <time>2022-08-16T09:07:44Z</time>
      </trkpt>
      <trkpt lat="45.07523" lon="2.83325">
        <ele>1083.79</ele>
        <time>2022-08-16T09:07:45Z</time>
      </trkpt>
      <trkpt lat="45.07537" lon="2.83325">
        <ele>1082.61</ele>
        <time>2022-08-16T09:07:46Z</time>
      </trkpt>
      <trkpt lat="45.0755" lon="2.83322">
        <ele>1081.26</ele>
        <time>2022-08-16T09:07:47Z</time>
      </trkpt>
      <trkpt lat="45.07564" lon="2.83314">
        <ele>1080.11</ele>
        <time>2022-08-16T09:07:48Z</time>
      </trkpt>
      <trkpt lat="45.07576" lon="2.83304">
        <ele>1078.33</ele>
        <time>2022-08-16T09:07:49Z</time>
      </trkpt>
      <trkpt lat="45.07586" lon="2.8329">
        <ele>1076.84</ele>
        <time>2022-08-16T09:07:50Z</time>
      </trkpt>
      <trkpt lat="45.07596" lon="2.83276">
        <ele>1075.24</ele>
        <time>2022-08-16T09:07:51Z</time>
      </trkpt>
      <trkpt lat="45.07605" lon="2.8326">
        <ele>1073.94</ele>
        <time>2022-08-16T09:07:52Z</time>
      </trkpt>
      <trkpt lat="45.07612" lon="2.83243">
        <ele>1073.04</ele>
        <time>2022-08-16T09:07:53Z</time>
      </trkpt>
      <trkpt lat="45.07619" lon="2.83226">
        <ele>1071.19</ele>
        <time>2022-08-16T09:07:54Z</time>
      </trkpt>
      <trkpt lat="45.07625" lon="2.83208">
        <ele>1071.05</ele>
        <time>2022-08-16T09:07:55Z</time>
      </trkpt>
      <trkpt lat="45.07639" lon="2.83175">
        <ele>1068.1</ele>
        <time>2022-08-16T09:07:57Z</time>
      </trkpt>
      <trkpt lat="45.07648" lon="2.8316">
        <ele>1066.95</ele>
        <time>2022-08-16T09:07:58Z</time>
      </trkpt>
      <trkpt lat="45.07676" lon="2.83123">
        <ele>1062.7</ele>
        <time>2022-08-16T09:08:01Z</time>
      </trkpt>
      <trkpt lat="45.07695" lon="2.83101">
        <ele>1059.49</ele>
        <time>2022-08-16T09:08:03Z</time>
      </trkpt>
      <trkpt lat="45.07722" lon="2.83076">
        <ele>1056.39</ele>
        <time>2022-08-16T09:08:06Z</time>
      </trkpt>
      <trkpt lat="45.0773" lon="2.83068">
        <ele>1054.83</ele>
        <time>2022-08-16T09:08:07Z</time>
      </trkpt>
      <trkpt lat="45.07736" lon="2.8306">
        <ele>1053.48</ele>
        <time>2022-08-16T09:08:08Z</time>
      </trkpt>
      <trkpt lat="45.07745" lon="2.83042">
        <ele>1050.95</ele>
        <time>2022-08-16T09:08:10Z</time>
      </trkpt>
      <trkpt lat="45.07751" lon="2.83036">
        <ele>1051</ele>
        <time>2022-08-16T09:08:11Z</time>
      </trkpt>
      <trkpt lat="45.07757" lon="2.83033">
        <ele>1051.16</ele>
        <time>2022-08-16T09:08:12Z</time>
      </trkpt>
      <trkpt lat="45.07763" lon="2.83034">
        <ele>1049.72</ele>
        <time>2022-08-16T09:08:13Z</time>
      </trkpt>
      <trkpt lat="45.07769" lon="2.83037">
        <ele>1049.72</ele>
        <time>2022-08-16T09:08:14Z</time>
      </trkpt>
      <trkpt lat="45.07774" lon="2.83043">
        <ele>1049.59</ele>
        <time>2022-08-16T09:08:15Z</time>
      </trkpt>
      <trkpt lat="45.07779" lon="2.83049">
        <ele>1048.5</ele>
        <time>2022-08-16T09:08:16Z</time>
      </trkpt>
      <trkpt lat="45.07783" lon="2.83056">
        <ele>1047.51</ele>
        <time>2022-08-16T09:08:17Z</time>
      </trkpt>
      <trkpt lat="45.07786" lon="2.83063">
        <ele>1047.41</ele>
        <time>2022-08-16T09:08:18Z</time>
      </trkpt>
      <trkpt lat="45.07812" lon="2.83119">
        <ele>1045.92</ele>
        <time>2022-08-16T09:08:25Z</time>
      </trkpt>
      <trkpt lat="45.07815" lon="2.83131">
        <ele>1045.94</ele>
        <time>2022-08-16T09:08:26Z</time>
      </trkpt>
      <trkpt lat="45.07818" lon="2.83142">
        <ele>1045.97</ele>
        <time>2022-08-16T09:08:27Z</time>
      </trkpt>
      <trkpt lat="45.07827" lon="2.83205">
        <ele>1046.01</ele>
        <time>2022-08-16T09:08:33Z</time>
      </trkpt>
      <trkpt lat="45.07829" lon="2.83212">
        <ele>1046.03</ele>
        <time>2022-08-16T09:08:34Z</time>
      </trkpt>
      <trkpt lat="45.07833" lon="2.83217">
        <ele>1046.16</ele>
        <time>2022-08-16T09:08:35Z</time>
      </trkpt>
      <trkpt lat="45.07838" lon="2.8322">
        <ele>1046.16</ele>
        <time>2022-08-16T09:08:36Z</time>
      </trkpt>
      <trkpt lat="45.07843" lon="2.83222">
        <ele>1046.16</ele>
        <time>2022-08-16T09:08:37Z</time>
      </trkpt>
      <trkpt lat="45.0785" lon="2.83224">
        <ele>1046.16</ele>
        <time>2022-08-16T09:08:38Z</time>
      </trkpt>
      <trkpt lat="45.07857" lon="2.83227">
        <ele>1046.16</ele>
        <time>2022-08-16T09:08:39Z</time>
      </trkpt>
      <trkpt lat="45.07871" lon="2.83236">
        <ele>1046.17</ele>
        <time>2022-08-16T09:08:41Z</time>
      </trkpt>
      <trkpt lat="45.07976" lon="2.83313">
        <ele>1046.15</ele>
        <time>2022-08-16T09:08:53Z</time>
      </trkpt>
      <trkpt lat="45.08081" lon="2.83381">
        <ele>1043.96</ele>
        <time>2022-08-16T09:09:01Z</time>
      </trkpt>
      <trkpt lat="45.08115" lon="2.83404">
        <ele>1043.12</ele>
        <time>2022-08-16T09:09:03Z</time>
      </trkpt>
      <trkpt lat="45.0815" lon="2.83431">
        <ele>1041.83</ele>
        <time>2022-08-16T09:09:05Z</time>
      </trkpt>
      <trkpt lat="45.08183" lon="2.8346">
        <ele>1040.31</ele>
        <time>2022-08-16T09:09:07Z</time>
      </trkpt>
      <trkpt lat="45.08213" lon="2.83488">
        <ele>1038.63</ele>
        <time>2022-08-16T09:09:09Z</time>
      </trkpt>
      <trkpt lat="45.08257" lon="2.8353">
        <ele>1036.52</ele>
        <time>2022-08-16T09:09:12Z</time>
      </trkpt>
      <trkpt lat="45.08357" lon="2.83637">
        <ele>1032.74</ele>
        <time>2022-08-16T09:09:19Z</time>
      </trkpt>
      <trkpt lat="45.0842" lon="2.83731">
        <ele>1030.29</ele>
        <time>2022-08-16T09:09:24Z</time>
      </trkpt>
      <trkpt lat="45.08522" lon="2.83841">
        <ele>1026.84</ele>
        <time>2022-08-16T09:09:31Z</time>
      </trkpt>
      <trkpt lat="45.08601" lon="2.83919">
        <ele>1024.29</ele>
        <time>2022-08-16T09:09:36Z</time>
      </trkpt>
      <trkpt lat="45.08649" lon="2.8397">
        <ele>1022.24</ele>
        <time>2022-08-16T09:09:39Z</time>
      </trkpt>
      <trkpt lat="45.08698" lon="2.8402">
        <ele>1019.86</ele>
        <time>2022-08-16T09:09:42Z</time>
      </trkpt>
      <trkpt lat="45.08749" lon="2.84062">
        <ele>1017.57</ele>
        <time>2022-08-16T09:09:45Z</time>
      </trkpt>
      <trkpt lat="45.08784" lon="2.84087">
        <ele>1016.09</ele>
        <time>2022-08-16T09:09:47Z</time>
      </trkpt>
      <trkpt lat="45.08855" lon="2.84137">
        <ele>1012.5</ele>
        <time>2022-08-16T09:09:51Z</time>
      </trkpt>
      <trkpt lat="45.08927" lon="2.84187">
        <ele>1009.52</ele>
        <time>2022-08-16T09:09:55Z</time>
      </trkpt>
      <trkpt lat="45.08993" lon="2.8425">
        <ele>1006.1</ele>
        <time>2022-08-16T09:09:59Z</time>
      </trkpt>
      <trkpt lat="45.09009" lon="2.84267">
        <ele>1006.1</ele>
        <time>2022-08-16T09:10:00Z</time>
      </trkpt>
      <trkpt lat="45.09087" lon="2.84347">
        <ele>1004.36</ele>
        <time>2022-08-16T09:10:05Z</time>
      </trkpt>
      <trkpt lat="45.09178" lon="2.84437">
        <ele>1001.73</ele>
        <time>2022-08-16T09:10:11Z</time>
      </trkpt>
      <trkpt lat="45.09243" lon="2.84492">
        <ele>998.6</ele>
        <time>2022-08-16T09:10:15Z</time>
      </trkpt>
      <trkpt lat="45.09292" lon="2.84535">
        <ele>994.51</ele>
        <time>2022-08-16T09:10:18Z</time>
      </trkpt>
      <trkpt lat="45.0932" lon="2.84568">
        <ele>990.07</ele>
        <time>2022-08-16T09:10:20Z</time>
      </trkpt>
      <trkpt lat="45.09332" lon="2.84588">
        <ele>988.75</ele>
        <time>2022-08-16T09:10:21Z</time>
      </trkpt>
      <trkpt lat="45.09344" lon="2.84609">
        <ele>988.39</ele>
        <time>2022-08-16T09:10:22Z</time>
      </trkpt>
      <trkpt lat="45.09374" lon="2.84676">
        <ele>985.13</ele>
        <time>2022-08-16T09:10:25Z</time>
      </trkpt>
      <trkpt lat="45.09382" lon="2.84699">
        <ele>985.13</ele>
        <time>2022-08-16T09:10:26Z</time>
      </trkpt>
      <trkpt lat="45.09392" lon="2.8472">
        <ele>983.12</ele>
        <time>2022-08-16T09:10:27Z</time>
      </trkpt>
      <trkpt lat="45.09403" lon="2.8474">
        <ele>983.13</ele>
        <time>2022-08-16T09:10:28Z</time>
      </trkpt>
      <trkpt lat="45.09418" lon="2.84758">
        <ele>981.48</ele>
        <time>2022-08-16T09:10:29Z</time>
      </trkpt>
      <trkpt lat="45.09434" lon="2.84774">
        <ele>980.42</ele>
        <time>2022-08-16T09:10:30Z</time>
      </trkpt>
      <trkpt lat="45.09451" lon="2.84789">
        <ele>978.34</ele>
        <time>2022-08-16T09:10:31Z</time>
      </trkpt>
      <trkpt lat="45.09485" lon="2.84818">
        <ele>974.96</ele>
        <time>2022-08-16T09:10:33Z</time>
      </trkpt>
      <trkpt lat="45.09517" lon="2.84849">
        <ele>970.78</ele>
        <time>2022-08-16T09:10:35Z</time>
      </trkpt>
      <trkpt lat="45.09549" lon="2.84878">
        <ele>967.09</ele>
        <time>2022-08-16T09:10:37Z</time>
      </trkpt>
      <trkpt lat="45.09582" lon="2.84904">
        <ele>962.92</ele>
        <time>2022-08-16T09:10:39Z</time>
      </trkpt>
      <trkpt lat="45.09616" lon="2.84926">
        <ele>959.54</ele>
        <time>2022-08-16T09:10:41Z</time>
      </trkpt>
      <trkpt lat="45.0965" lon="2.84944">
        <ele>955.81</ele>
        <time>2022-08-16T09:10:43Z</time>
      </trkpt>
      <trkpt lat="45.09684" lon="2.84963">
        <ele>952.08</ele>
        <time>2022-08-16T09:10:45Z</time>
      </trkpt>
      <trkpt lat="45.09717" lon="2.84984">
        <ele>948.4</ele>
        <time>2022-08-16T09:10:47Z</time>
      </trkpt>
      <trkpt lat="45.09747" lon="2.85007">
        <ele>944.49</ele>
        <time>2022-08-16T09:10:49Z</time>
      </trkpt>
      <trkpt lat="45.09775" lon="2.85033">
        <ele>939.89</ele>
        <time>2022-08-16T09:10:51Z</time>
      </trkpt>
      <trkpt lat="45.09797" lon="2.85061">
        <ele>937.01</ele>
        <time>2022-08-16T09:10:53Z</time>
      </trkpt>
      <trkpt lat="45.09804" lon="2.85076">
        <ele>934.53</ele>
        <time>2022-08-16T09:10:54Z</time>
      </trkpt>
      <trkpt lat="45.09809" lon="2.85092">
        <ele>932.73</ele>
        <time>2022-08-16T09:10:55Z</time>
      </trkpt>
      <trkpt lat="45.09812" lon="2.85108">
        <ele>931.15</ele>
        <time>2022-08-16T09:10:56Z</time>
      </trkpt>
      <trkpt lat="45.09811" lon="2.85124">
        <ele>930.16</ele>
        <time>2022-08-16T09:10:57Z</time>
      </trkpt>
      <trkpt lat="45.09809" lon="2.8514">
        <ele>929.07</ele>
        <time>2022-08-16T09:10:58Z</time>
      </trkpt>
      <trkpt lat="45.09809" lon="2.85154">
        <ele>928.88</ele>
        <time>2022-08-16T09:10:59Z</time>
      </trkpt>
      <trkpt lat="45.09813" lon="2.85166">
        <ele>927.91</ele>
        <time>2022-08-16T09:11:00Z</time>
      </trkpt>
      <trkpt lat="45.09819" lon="2.85177">
        <ele>927.88</ele>
        <time>2022-08-16T09:11:01Z</time>
      </trkpt>
      <trkpt lat="45.09826" lon="2.85187">
        <ele>926.63</ele>
        <time>2022-08-16T09:11:02Z</time>
      </trkpt>
      <trkpt lat="45.09834" lon="2.85195">
        <ele>925.51</ele>
        <time>2022-08-16T09:11:03Z</time>
      </trkpt>
      <trkpt lat="45.09842" lon="2.85204">
        <ele>925.66</ele>
        <time>2022-08-16T09:11:04Z</time>
      </trkpt>
      <trkpt lat="45.09856" lon="2.85222">
        <ele>923.44</ele>
        <time>2022-08-16T09:11:06Z</time>
      </trkpt>
      <trkpt lat="45.0986" lon="2.85232">
        <ele>923.39</ele>
        <time>2022-08-16T09:11:07Z</time>
      </trkpt>
      <trkpt lat="45.09863" lon="2.85244">
        <ele>922.41</ele>
        <time>2022-08-16T09:11:08Z</time>
      </trkpt>
      <trkpt lat="45.09869" lon="2.8527">
        <ele>920.87</ele>
        <time>2022-08-16T09:11:10Z</time>
      </trkpt>
      <trkpt lat="45.09874" lon="2.85282">
        <ele>919.58</ele>
        <time>2022-08-16T09:11:11Z</time>
      </trkpt>
      <trkpt lat="45.0988" lon="2.85294">
        <ele>919.58</ele>
        <time>2022-08-16T09:11:12Z</time>
      </trkpt>
      <trkpt lat="45.09893" lon="2.85317">
        <ele>917.37</ele>
        <time>2022-08-16T09:11:14Z</time>
      </trkpt>
      <trkpt lat="45.09899" lon="2.85329">
        <ele>915.87</ele>
        <time>2022-08-16T09:11:15Z</time>
      </trkpt>
      <trkpt lat="45.09904" lon="2.85342">
        <ele>914.73</ele>
        <time>2022-08-16T09:11:16Z</time>
      </trkpt>
      <trkpt lat="45.09907" lon="2.85357">
        <ele>913.33</ele>
        <time>2022-08-16T09:11:17Z</time>
      </trkpt>
      <trkpt lat="45.09916" lon="2.85403">
        <ele>910.35</ele>
        <time>2022-08-16T09:11:20Z</time>
      </trkpt>
      <trkpt lat="45.09922" lon="2.85416">
        <ele>908.93</ele>
        <time>2022-08-16T09:11:21Z</time>
      </trkpt>
      <trkpt lat="45.09929" lon="2.85428">
        <ele>908.02</ele>
        <time>2022-08-16T09:11:22Z</time>
      </trkpt>
      <trkpt lat="45.09939" lon="2.85436">
        <ele>907.92</ele>
        <time>2022-08-16T09:11:23Z</time>
      </trkpt>
      <trkpt lat="45.0995" lon="2.85442">
        <ele>906.91</ele>
        <time>2022-08-16T09:11:24Z</time>
      </trkpt>
      <trkpt lat="45.09962" lon="2.85444">
        <ele>906.81</ele>
        <time>2022-08-16T09:11:25Z</time>
      </trkpt>
      <trkpt lat="45.09974" lon="2.85443">
        <ele>906.88</ele>
        <time>2022-08-16T09:11:26Z</time>
      </trkpt>
      <trkpt lat="45.09985" lon="2.85441">
        <ele>906.75</ele>
        <time>2022-08-16T09:11:27Z</time>
      </trkpt>
      <trkpt lat="45.10018" lon="2.85435">
        <ele>904.97</ele>
        <time>2022-08-16T09:11:30Z</time>
      </trkpt>
      <trkpt lat="45.10041" lon="2.85434">
        <ele>902.79</ele>
        <time>2022-08-16T09:11:32Z</time>
      </trkpt>
      <trkpt lat="45.10053" lon="2.85437">
        <ele>901.68</ele>
        <time>2022-08-16T09:11:33Z</time>
      </trkpt>
      <trkpt lat="45.10063" lon="2.85441">
        <ele>900.82</ele>
        <time>2022-08-16T09:11:34Z</time>
      </trkpt>
      <trkpt lat="45.10073" lon="2.85447">
        <ele>899.79</ele>
        <time>2022-08-16T09:11:35Z</time>
      </trkpt>
      <trkpt lat="45.10082" lon="2.85455">
        <ele>898.7</ele>
        <time>2022-08-16T09:11:36Z</time>
      </trkpt>
      <trkpt lat="45.10092" lon="2.85463">
        <ele>898.7</ele>
        <time>2022-08-16T09:11:37Z</time>
      </trkpt>
      <trkpt lat="45.10167" lon="2.85545">
        <ele>895.47</ele>
        <time>2022-08-16T09:11:44Z</time>
      </trkpt>
      <trkpt lat="45.10178" lon="2.85558">
        <ele>895.34</ele>
        <time>2022-08-16T09:11:45Z</time>
      </trkpt>
      <trkpt lat="45.10243" lon="2.85634">
        <ele>895.32</ele>
        <time>2022-08-16T09:11:51Z</time>
      </trkpt>
      <trkpt lat="45.10252" lon="2.85648">
        <ele>895.36</ele>
        <time>2022-08-16T09:11:52Z</time>
      </trkpt>
      <trkpt lat="45.10259" lon="2.85662">
        <ele>895.33</ele>
        <time>2022-08-16T09:11:53Z</time>
      </trkpt>
      <trkpt lat="45.10266" lon="2.85678">
        <ele>895.35</ele>
        <time>2022-08-16T09:11:54Z</time>
      </trkpt>
      <trkpt lat="45.10272" lon="2.85693">
        <ele>894.57</ele>
        <time>2022-08-16T09:11:55Z</time>
      </trkpt>
      <trkpt lat="45.1029" lon="2.85735">
        <ele>894.7</ele>
        <time>2022-08-16T09:11:58Z</time>
      </trkpt>
      <trkpt lat="45.10297" lon="2.85743">
        <ele>894.75</ele>
        <time>2022-08-16T09:11:59Z</time>
      </trkpt>
      <trkpt lat="45.10307" lon="2.85748">
        <ele>894.73</ele>
        <time>2022-08-16T09:12:00Z</time>
      </trkpt>
      <trkpt lat="45.10317" lon="2.8575">
        <ele>894.81</ele>
        <time>2022-08-16T09:12:01Z</time>
      </trkpt>
      <trkpt lat="45.10327" lon="2.85751">
        <ele>894.81</ele>
        <time>2022-08-16T09:12:02Z</time>
      </trkpt>
      <trkpt lat="45.10336" lon="2.85755">
        <ele>894.8</ele>
        <time>2022-08-16T09:12:03Z</time>
      </trkpt>
      <trkpt lat="45.10344" lon="2.85763">
        <ele>894.8</ele>
        <time>2022-08-16T09:12:04Z</time>
      </trkpt>
      <trkpt lat="45.1035" lon="2.85774">
        <ele>894.8</ele>
        <time>2022-08-16T09:12:05Z</time>
      </trkpt>
      <trkpt lat="45.10353" lon="2.8579">
        <ele>894.79</ele>
        <time>2022-08-16T09:12:06Z</time>
      </trkpt>
      <trkpt lat="45.10354" lon="2.85809">
        <ele>897.17</ele>
        <time>2022-08-16T09:12:07Z</time>
      </trkpt>
      <trkpt lat="45.10354" lon="2.85828">
        <ele>897.18</ele>
        <time>2022-08-16T09:12:08Z</time>
      </trkpt>
      <trkpt lat="45.10356" lon="2.85849">
        <ele>898.15</ele>
        <time>2022-08-16T09:12:09Z</time>
      </trkpt>
      <trkpt lat="45.10359" lon="2.8587">
        <ele>898.17</ele>
        <time>2022-08-16T09:12:10Z</time>
      </trkpt>
      <trkpt lat="45.10363" lon="2.85891">
        <ele>899.01</ele>
        <time>2022-08-16T09:12:11Z</time>
      </trkpt>
      <trkpt lat="45.10378" lon="2.85955">
        <ele>900.37</ele>
        <time>2022-08-16T09:12:14Z</time>
      </trkpt>
      <trkpt lat="45.10385" lon="2.85974">
        <ele>900.43</ele>
        <time>2022-08-16T09:12:15Z</time>
      </trkpt>
      <trkpt lat="45.10395" lon="2.85992">
        <ele>901.41</ele>
        <time>2022-08-16T09:12:16Z</time>
      </trkpt>
      <trkpt lat="45.10407" lon="2.86007">
        <ele>901.42</ele>
        <time>2022-08-16T09:12:17Z</time>
      </trkpt>
      <trkpt lat="45.10421" lon="2.86021">
        <ele>902.68</ele>
        <time>2022-08-16T09:12:18Z</time>
      </trkpt>
      <trkpt lat="45.10448" lon="2.86051">
        <ele>903.92</ele>
        <time>2022-08-16T09:12:20Z</time>
      </trkpt>
      <trkpt lat="45.10546" lon="2.86135">
        <ele>904.37</ele>
        <time>2022-08-16T09:12:28Z</time>
      </trkpt>
      <trkpt lat="45.10572" lon="2.86154">
        <ele>904.39</ele>
        <time>2022-08-16T09:12:31Z</time>
      </trkpt>
      <trkpt lat="45.10579" lon="2.86156">
        <ele>904.37</ele>
        <time>2022-08-16T09:12:32Z</time>
      </trkpt>
      <trkpt lat="45.10585" lon="2.86156">
        <ele>904.32</ele>
        <time>2022-08-16T09:12:33Z</time>
      </trkpt>
      <trkpt lat="45.10589" lon="2.86155">
        <ele>904.3</ele>
        <time>2022-08-16T09:12:34Z</time>
      </trkpt>
      <trkpt lat="45.10593" lon="2.86153">
        <ele>901.98</ele>
        <time>2022-08-16T09:12:35Z</time>
      </trkpt>
      <trkpt lat="45.10595" lon="2.8615">
        <ele>901.97</ele>
        <time>2022-08-16T09:12:36Z</time>
      </trkpt>
      <trkpt lat="45.10597" lon="2.86149">
        <ele>901.94</ele>
        <time>2022-08-16T09:12:37Z</time>
      </trkpt>
      <trkpt lat="45.10597" lon="2.86144">
        <ele>901.97</ele>
        <time>2022-08-16T09:12:50Z</time>
      </trkpt>
      <trkpt lat="45.10599" lon="2.86141">
        <ele>901.97</ele>
        <time>2022-08-16T09:12:51Z</time>
      </trkpt>
      <trkpt lat="45.10602" lon="2.86134">
        <ele>901.97</ele>
        <time>2022-08-16T09:12:52Z</time>
      </trkpt>
      <trkpt lat="45.10605" lon="2.86125">
        <ele>901.97</ele>
        <time>2022-08-16T09:12:53Z</time>
      </trkpt>
      <trkpt lat="45.10608" lon="2.86114">
        <ele>901.96</ele>
        <time>2022-08-16T09:12:54Z</time>
      </trkpt>
      <trkpt lat="45.10612" lon="2.86104">
        <ele>901.96</ele>
        <time>2022-08-16T09:12:55Z</time>
      </trkpt>
      <trkpt lat="45.10619" lon="2.86094">
        <ele>901.96</ele>
        <time>2022-08-16T09:12:56Z</time>
      </trkpt>
      <trkpt lat="45.10627" lon="2.86085">
        <ele>901.96</ele>
        <time>2022-08-16T09:12:57Z</time>
      </trkpt>
      <trkpt lat="45.10721" lon="2.85983">
        <ele>902</ele>
        <time>2022-08-16T09:13:07Z</time>
      </trkpt>
      <trkpt lat="45.10761" lon="2.85939">
        <ele>904.67</ele>
        <time>2022-08-16T09:13:11Z</time>
      </trkpt>
      <trkpt lat="45.10783" lon="2.85915">
        <ele>908.17</ele>
        <time>2022-08-16T09:13:13Z</time>
      </trkpt>
      <trkpt lat="45.10819" lon="2.85876">
        <ele>912.01</ele>
        <time>2022-08-16T09:13:16Z</time>
      </trkpt>
      <trkpt lat="45.10858" lon="2.85837">
        <ele>915.52</ele>
        <time>2022-08-16T09:13:19Z</time>
      </trkpt>
      <trkpt lat="45.10884" lon="2.85811">
        <ele>916.49</ele>
        <time>2022-08-16T09:13:21Z</time>
      </trkpt>
      <trkpt lat="45.10897" lon="2.858">
        <ele>917.66</ele>
        <time>2022-08-16T09:13:22Z</time>
      </trkpt>
      <trkpt lat="45.1091" lon="2.85791">
        <ele>917.74</ele>
        <time>2022-08-16T09:13:23Z</time>
      </trkpt>
      <trkpt lat="45.10923" lon="2.85785">
        <ele>918.94</ele>
        <time>2022-08-16T09:13:24Z</time>
      </trkpt>
      <trkpt lat="45.10935" lon="2.8578">
        <ele>919</ele>
        <time>2022-08-16T09:13:25Z</time>
      </trkpt>
      <trkpt lat="45.10947" lon="2.85778">
        <ele>919.02</ele>
        <time>2022-08-16T09:13:26Z</time>
      </trkpt>
      <trkpt lat="45.10959" lon="2.85777">
        <ele>919.02</ele>
        <time>2022-08-16T09:13:27Z</time>
      </trkpt>
      <trkpt lat="45.10971" lon="2.85777">
        <ele>919.08</ele>
        <time>2022-08-16T09:13:28Z</time>
      </trkpt>
      <trkpt lat="45.10984" lon="2.8578">
        <ele>919.05</ele>
        <time>2022-08-16T09:13:29Z</time>
      </trkpt>
      <trkpt lat="45.10997" lon="2.85784">
        <ele>919.04</ele>
        <time>2022-08-16T09:13:30Z</time>
      </trkpt>
      <trkpt lat="45.1101" lon="2.8579">
        <ele>919.05</ele>
        <time>2022-08-16T09:13:31Z</time>
      </trkpt>
      <trkpt lat="45.11023" lon="2.85797">
        <ele>919</ele>
        <time>2022-08-16T09:13:32Z</time>
      </trkpt>
      <trkpt lat="45.11122" lon="2.85848">
        <ele>920.73</ele>
        <time>2022-08-16T09:13:39Z</time>
      </trkpt>
      <trkpt lat="45.11138" lon="2.85849">
        <ele>921.69</ele>
        <time>2022-08-16T09:13:40Z</time>
      </trkpt>
      <trkpt lat="45.11153" lon="2.85847">
        <ele>921.69</ele>
        <time>2022-08-16T09:13:41Z</time>
      </trkpt>
      <trkpt lat="45.11169" lon="2.8584">
        <ele>923.64</ele>
        <time>2022-08-16T09:13:42Z</time>
      </trkpt>
      <trkpt lat="45.11184" lon="2.85831">
        <ele>923.64</ele>
        <time>2022-08-16T09:13:43Z</time>
      </trkpt>
      <trkpt lat="45.112" lon="2.8582">
        <ele>926.1</ele>
        <time>2022-08-16T09:13:44Z</time>
      </trkpt>
      <trkpt lat="45.11216" lon="2.85807">
        <ele>927.26</ele>
        <time>2022-08-16T09:13:45Z</time>
      </trkpt>
      <trkpt lat="45.11246" lon="2.85779">
        <ele>930.97</ele>
        <time>2022-08-16T09:13:47Z</time>
      </trkpt>
      <trkpt lat="45.1128" lon="2.85746">
        <ele>936.29</ele>
        <time>2022-08-16T09:13:49Z</time>
      </trkpt>
      <trkpt lat="45.11319" lon="2.85716">
        <ele>940.71</ele>
        <time>2022-08-16T09:13:51Z</time>
      </trkpt>
      <trkpt lat="45.11358" lon="2.8569">
        <ele>943.74</ele>
        <time>2022-08-16T09:13:53Z</time>
      </trkpt>
      <trkpt lat="45.11392" lon="2.85669">
        <ele>944.97</ele>
        <time>2022-08-16T09:13:55Z</time>
      </trkpt>
      <trkpt lat="45.11423" lon="2.85653">
        <ele>946.17</ele>
        <time>2022-08-16T09:13:57Z</time>
      </trkpt>
      <trkpt lat="45.11438" lon="2.85649">
        <ele>947.68</ele>
        <time>2022-08-16T09:13:58Z</time>
      </trkpt>
      <trkpt lat="45.11452" lon="2.85652">
        <ele>949.11</ele>
        <time>2022-08-16T09:13:59Z</time>
      </trkpt>
      <trkpt lat="45.11466" lon="2.85659">
        <ele>950.55</ele>
        <time>2022-08-16T09:14:00Z</time>
      </trkpt>
      <trkpt lat="45.1148" lon="2.8567">
        <ele>952.25</ele>
        <time>2022-08-16T09:14:01Z</time>
      </trkpt>
      <trkpt lat="45.11491" lon="2.85685">
        <ele>953.53</ele>
        <time>2022-08-16T09:14:02Z</time>
      </trkpt>
      <trkpt lat="45.11499" lon="2.85704">
        <ele>954.96</ele>
        <time>2022-08-16T09:14:03Z</time>
      </trkpt>
      <trkpt lat="45.11504" lon="2.85726">
        <ele>956.2</ele>
        <time>2022-08-16T09:14:04Z</time>
      </trkpt>
      <trkpt lat="45.11506" lon="2.85748">
        <ele>957.17</ele>
        <time>2022-08-16T09:14:05Z</time>
      </trkpt>
      <trkpt lat="45.11503" lon="2.85772">
        <ele>958.76</ele>
        <time>2022-08-16T09:14:06Z</time>
      </trkpt>
      <trkpt lat="45.11498" lon="2.85796">
        <ele>960.2</ele>
        <time>2022-08-16T09:14:07Z</time>
      </trkpt>
      <trkpt lat="45.11492" lon="2.85821">
        <ele>962.88</ele>
        <time>2022-08-16T09:14:08Z</time>
      </trkpt>
      <trkpt lat="45.11483" lon="2.85848">
        <ele>964.58</ele>
        <time>2022-08-16T09:14:09Z</time>
      </trkpt>
      <trkpt lat="45.11474" lon="2.85875">
        <ele>967.01</ele>
        <time>2022-08-16T09:14:10Z</time>
      </trkpt>
      <trkpt lat="45.11464" lon="2.85904">
        <ele>971.11</ele>
        <time>2022-08-16T09:14:11Z</time>
      </trkpt>
      <trkpt lat="45.11453" lon="2.85934">
        <ele>974.55</ele>
        <time>2022-08-16T09:14:12Z</time>
      </trkpt>
      <trkpt lat="45.1143" lon="2.85997">
        <ele>979.95</ele>
        <time>2022-08-16T09:14:14Z</time>
      </trkpt>
      <trkpt lat="45.11395" lon="2.86087">
        <ele>982.64</ele>
        <time>2022-08-16T09:14:17Z</time>
      </trkpt>
      <trkpt lat="45.11377" lon="2.86138">
        <ele>985.38</ele>
        <time>2022-08-16T09:14:19Z</time>
      </trkpt>
      <trkpt lat="45.11364" lon="2.86187">
        <ele>986.27</ele>
        <time>2022-08-16T09:14:21Z</time>
      </trkpt>
      <trkpt lat="45.1136" lon="2.86211">
        <ele>987.42</ele>
        <time>2022-08-16T09:14:22Z</time>
      </trkpt>
      <trkpt lat="45.11361" lon="2.86234">
        <ele>987.43</ele>
        <time>2022-08-16T09:14:23Z</time>
      </trkpt>
      <trkpt lat="45.11366" lon="2.86255">
        <ele>988.5</ele>
        <time>2022-08-16T09:14:24Z</time>
      </trkpt>
      <trkpt lat="45.11372" lon="2.86274">
        <ele>988.61</ele>
        <time>2022-08-16T09:14:25Z</time>
      </trkpt>
      <trkpt lat="45.11379" lon="2.8629">
        <ele>988.2</ele>
        <time>2022-08-16T09:14:26Z</time>
      </trkpt>
      <trkpt lat="45.11387" lon="2.86302">
        <ele>988.19</ele>
        <time>2022-08-16T09:14:27Z</time>
      </trkpt>
      <trkpt lat="45.11395" lon="2.86312">
        <ele>988.18</ele>
        <time>2022-08-16T09:14:28Z</time>
      </trkpt>
      <trkpt lat="45.11403" lon="2.8632">
        <ele>988.04</ele>
        <time>2022-08-16T09:14:29Z</time>
      </trkpt>
      <trkpt lat="45.11411" lon="2.86329">
        <ele>988.05</ele>
        <time>2022-08-16T09:14:30Z</time>
      </trkpt>
      <trkpt lat="45.11424" lon="2.86348">
        <ele>987.88</ele>
        <time>2022-08-16T09:14:32Z</time>
      </trkpt>
      <trkpt lat="45.11432" lon="2.86354">
        <ele>987.89</ele>
        <time>2022-08-16T09:14:33Z</time>
      </trkpt>
      <trkpt lat="45.1144" lon="2.86355">
        <ele>987.84</ele>
        <time>2022-08-16T09:14:34Z</time>
      </trkpt>
      <trkpt lat="45.11448" lon="2.8635">
        <ele>987.83</ele>
        <time>2022-08-16T09:14:35Z</time>
      </trkpt>
      <trkpt lat="45.11457" lon="2.86342">
        <ele>987.62</ele>
        <time>2022-08-16T09:14:36Z</time>
      </trkpt>
      <trkpt lat="45.11467" lon="2.86333">
        <ele>987.64</ele>
        <time>2022-08-16T09:14:37Z</time>
      </trkpt>
      <trkpt lat="45.11479" lon="2.86324">
        <ele>987.65</ele>
        <time>2022-08-16T09:14:38Z</time>
      </trkpt>
      <trkpt lat="45.11492" lon="2.86312">
        <ele>989.29</ele>
        <time>2022-08-16T09:14:39Z</time>
      </trkpt>
      <trkpt lat="45.11504" lon="2.86297">
        <ele>990.22</ele>
        <time>2022-08-16T09:14:40Z</time>
      </trkpt>
      <trkpt lat="45.11516" lon="2.86278">
        <ele>992.22</ele>
        <time>2022-08-16T09:14:41Z</time>
      </trkpt>
      <trkpt lat="45.11526" lon="2.86256">
        <ele>992.98</ele>
        <time>2022-08-16T09:14:42Z</time>
      </trkpt>
      <trkpt lat="45.11535" lon="2.86232">
        <ele>994.32</ele>
        <time>2022-08-16T09:14:43Z</time>
      </trkpt>
      <trkpt lat="45.11551" lon="2.86181">
        <ele>997.72</ele>
        <time>2022-08-16T09:14:45Z</time>
      </trkpt>
      <trkpt lat="45.11578" lon="2.86107">
        <ele>1000.44</ele>
        <time>2022-08-16T09:14:48Z</time>
      </trkpt>
      <trkpt lat="45.11596" lon="2.86061">
        <ele>1003.9</ele>
        <time>2022-08-16T09:14:50Z</time>
      </trkpt>
      <trkpt lat="45.11616" lon="2.86018">
        <ele>1005.34</ele>
        <time>2022-08-16T09:14:52Z</time>
      </trkpt>
      <trkpt lat="45.11633" lon="2.85975">
        <ele>1006.72</ele>
        <time>2022-08-16T09:14:54Z</time>
      </trkpt>
      <trkpt lat="45.11653" lon="2.8591">
        <ele>1010.76</ele>
        <time>2022-08-16T09:14:57Z</time>
      </trkpt>
      <trkpt lat="45.11659" lon="2.85889">
        <ele>1010.63</ele>
        <time>2022-08-16T09:14:58Z</time>
      </trkpt>
      <trkpt lat="45.11685" lon="2.85804">
        <ele>1013.71</ele>
        <time>2022-08-16T09:15:02Z</time>
      </trkpt>
      <trkpt lat="45.11693" lon="2.85783">
        <ele>1013.9</ele>
        <time>2022-08-16T09:15:03Z</time>
      </trkpt>
      <trkpt lat="45.11712" lon="2.85742">
        <ele>1015.06</ele>
        <time>2022-08-16T09:15:05Z</time>
      </trkpt>
      <trkpt lat="45.11774" lon="2.85645">
        <ele>1018.97</ele>
        <time>2022-08-16T09:15:10Z</time>
      </trkpt>
      <trkpt lat="45.11795" lon="2.85601">
        <ele>1020.08</ele>
        <time>2022-08-16T09:15:12Z</time>
      </trkpt>
      <trkpt lat="45.11804" lon="2.85577">
        <ele>1021.12</ele>
        <time>2022-08-16T09:15:13Z</time>
      </trkpt>
      <trkpt lat="45.11812" lon="2.85551">
        <ele>1022.03</ele>
        <time>2022-08-16T09:15:14Z</time>
      </trkpt>
      <trkpt lat="45.11831" lon="2.85472">
        <ele>1025.54</ele>
        <time>2022-08-16T09:15:17Z</time>
      </trkpt>
      <trkpt lat="45.11844" lon="2.85418">
        <ele>1026.51</ele>
        <time>2022-08-16T09:15:19Z</time>
      </trkpt>
      <trkpt lat="45.11857" lon="2.85365">
        <ele>1028.11</ele>
        <time>2022-08-16T09:15:21Z</time>
      </trkpt>
      <trkpt lat="45.11882" lon="2.85288">
        <ele>1031.57</ele>
        <time>2022-08-16T09:15:24Z</time>
      </trkpt>
      <trkpt lat="45.11944" lon="2.85176">
        <ele>1034.78</ele>
        <time>2022-08-16T09:15:29Z</time>
      </trkpt>
      <trkpt lat="45.11959" lon="2.85156">
        <ele>1034.69</ele>
        <time>2022-08-16T09:15:30Z</time>
      </trkpt>
      <trkpt lat="45.1199" lon="2.85122">
        <ele>1036.72</ele>
        <time>2022-08-16T09:15:32Z</time>
      </trkpt>
      <trkpt lat="45.12024" lon="2.85093">
        <ele>1040.13</ele>
        <time>2022-08-16T09:15:34Z</time>
      </trkpt>
      <trkpt lat="45.12041" lon="2.85081">
        <ele>1040.16</ele>
        <time>2022-08-16T09:15:35Z</time>
      </trkpt>
      <trkpt lat="45.12077" lon="2.8506">
        <ele>1043.74</ele>
        <time>2022-08-16T09:15:37Z</time>
      </trkpt>
      <trkpt lat="45.12132" lon="2.8504">
        <ele>1047.47</ele>
        <time>2022-08-16T09:15:40Z</time>
      </trkpt>
      <trkpt lat="45.12189" lon="2.85033">
        <ele>1052.09</ele>
        <time>2022-08-16T09:15:43Z</time>
      </trkpt>
      <trkpt lat="45.12228" lon="2.85032">
        <ele>1055.28</ele>
        <time>2022-08-16T09:15:45Z</time>
      </trkpt>
      <trkpt lat="45.12268" lon="2.85031">
        <ele>1058.32</ele>
        <time>2022-08-16T09:15:47Z</time>
      </trkpt>
      <trkpt lat="45.12308" lon="2.8503">
        <ele>1061.54</ele>
        <time>2022-08-16T09:15:49Z</time>
      </trkpt>
      <trkpt lat="45.12348" lon="2.85029">
        <ele>1065.38</ele>
        <time>2022-08-16T09:15:51Z</time>
      </trkpt>
      <trkpt lat="45.12389" lon="2.85029">
        <ele>1068.41</ele>
        <time>2022-08-16T09:15:53Z</time>
      </trkpt>
      <trkpt lat="45.1245" lon="2.85028">
        <ele>1071.86</ele>
        <time>2022-08-16T09:15:56Z</time>
      </trkpt>
      <trkpt lat="45.12509" lon="2.85017">
        <ele>1075.38</ele>
        <time>2022-08-16T09:15:59Z</time>
      </trkpt>
      <trkpt lat="45.12528" lon="2.85007">
        <ele>1075.38</ele>
        <time>2022-08-16T09:16:00Z</time>
      </trkpt>
      <trkpt lat="45.12545" lon="2.84994">
        <ele>1077.63</ele>
        <time>2022-08-16T09:16:01Z</time>
      </trkpt>
      <trkpt lat="45.12562" lon="2.84978">
        <ele>1079.43</ele>
        <time>2022-08-16T09:16:02Z</time>
      </trkpt>
      <trkpt lat="45.12577" lon="2.8496">
        <ele>1080.83</ele>
        <time>2022-08-16T09:16:03Z</time>
      </trkpt>
      <trkpt lat="45.12591" lon="2.84939">
        <ele>1082.34</ele>
        <time>2022-08-16T09:16:04Z</time>
      </trkpt>
      <trkpt lat="45.12604" lon="2.84916">
        <ele>1082.39</ele>
        <time>2022-08-16T09:16:05Z</time>
      </trkpt>
      <trkpt lat="45.12628" lon="2.8487">
        <ele>1084.63</ele>
        <time>2022-08-16T09:16:07Z</time>
      </trkpt>
      <trkpt lat="45.12653" lon="2.84826">
        <ele>1085.99</ele>
        <time>2022-08-16T09:16:09Z</time>
      </trkpt>
      <trkpt lat="45.12668" lon="2.84805">
        <ele>1087.62</ele>
        <time>2022-08-16T09:16:10Z</time>
      </trkpt>
      <trkpt lat="45.12683" lon="2.84787">
        <ele>1087.72</ele>
        <time>2022-08-16T09:16:11Z</time>
      </trkpt>
      <trkpt lat="45.12731" lon="2.84734">
        <ele>1090.61</ele>
        <time>2022-08-16T09:16:14Z</time>
      </trkpt>
      <trkpt lat="45.12764" lon="2.84698">
        <ele>1091.94</ele>
        <time>2022-08-16T09:16:16Z</time>
      </trkpt>
      <trkpt lat="45.12797" lon="2.84662">
        <ele>1095.05</ele>
        <time>2022-08-16T09:16:18Z</time>
      </trkpt>
      <trkpt lat="45.1283" lon="2.84625">
        <ele>1095.88</ele>
        <time>2022-08-16T09:16:20Z</time>
      </trkpt>
      <trkpt lat="45.1288" lon="2.84569">
        <ele>1099.11</ele>
        <time>2022-08-16T09:16:23Z</time>
      </trkpt>
      <trkpt lat="45.1293" lon="2.84513">
        <ele>1103.26</ele>
        <time>2022-08-16T09:16:26Z</time>
      </trkpt>
      <trkpt lat="45.12963" lon="2.84476">
        <ele>1104.48</ele>
        <time>2022-08-16T09:16:28Z</time>
      </trkpt>
      <trkpt lat="45.13005" lon="2.84425">
        <ele>1105.83</ele>
        <time>2022-08-16T09:16:31Z</time>
      </trkpt>
      <trkpt lat="45.13062" lon="2.84312">
        <ele>1105.15</ele>
        <time>2022-08-16T09:16:38Z</time>
      </trkpt>
      <trkpt lat="45.13074" lon="2.84283">
        <ele>1102.34</ele>
        <time>2022-08-16T09:16:40Z</time>
      </trkpt>
      <trkpt lat="45.13115" lon="2.84201">
        <ele>1106.57</ele>
        <time>2022-08-16T09:16:45Z</time>
      </trkpt>
      <trkpt lat="45.13141" lon="2.8414">
        <ele>1110.46</ele>
        <time>2022-08-16T09:16:48Z</time>
      </trkpt>
      <trkpt lat="45.13168" lon="2.84076">
        <ele>1113.7</ele>
        <time>2022-08-16T09:16:51Z</time>
      </trkpt>
      <trkpt lat="45.13186" lon="2.84029">
        <ele>1116.79</ele>
        <time>2022-08-16T09:16:53Z</time>
      </trkpt>
      <trkpt lat="45.13208" lon="2.83949">
        <ele>1121.25</ele>
        <time>2022-08-16T09:16:56Z</time>
      </trkpt>
      <trkpt lat="45.13221" lon="2.83888">
        <ele>1126.07</ele>
        <time>2022-08-16T09:16:58Z</time>
      </trkpt>
      <trkpt lat="45.13241" lon="2.83794">
        <ele>1130.47</ele>
        <time>2022-08-16T09:17:01Z</time>
      </trkpt>
      <trkpt lat="45.13254" lon="2.83729">
        <ele>1134.04</ele>
        <time>2022-08-16T09:17:03Z</time>
      </trkpt>
      <trkpt lat="45.13269" lon="2.83663">
        <ele>1137.1</ele>
        <time>2022-08-16T09:17:05Z</time>
      </trkpt>
      <trkpt lat="45.13285" lon="2.83596">
        <ele>1141</ele>
        <time>2022-08-16T09:17:07Z</time>
      </trkpt>
      <trkpt lat="45.13309" lon="2.83497">
        <ele>1144.79</ele>
        <time>2022-08-16T09:17:10Z</time>
      </trkpt>
      <trkpt lat="45.13325" lon="2.83432">
        <ele>1148.23</ele>
        <time>2022-08-16T09:17:12Z</time>
      </trkpt>
      <trkpt lat="45.13342" lon="2.83368">
        <ele>1151.8</ele>
        <time>2022-08-16T09:17:14Z</time>
      </trkpt>
      <trkpt lat="45.13366" lon="2.83272">
        <ele>1155.67</ele>
        <time>2022-08-16T09:17:17Z</time>
      </trkpt>
      <trkpt lat="45.13384" lon="2.83209">
        <ele>1158.86</ele>
        <time>2022-08-16T09:17:19Z</time>
      </trkpt>
      <trkpt lat="45.1342" lon="2.83123">
        <ele>1163.16</ele>
        <time>2022-08-16T09:17:22Z</time>
      </trkpt>
      <trkpt lat="45.13468" lon="2.83049">
        <ele>1167.19</ele>
        <time>2022-08-16T09:17:25Z</time>
      </trkpt>
      <trkpt lat="45.13486" lon="2.83028">
        <ele>1168.45</ele>
        <time>2022-08-16T09:17:26Z</time>
      </trkpt>
      <trkpt lat="45.13506" lon="2.83009">
        <ele>1169.08</ele>
        <time>2022-08-16T09:17:27Z</time>
      </trkpt>
      <trkpt lat="45.13526" lon="2.82992">
        <ele>1169.08</ele>
        <time>2022-08-16T09:17:28Z</time>
      </trkpt>
      <trkpt lat="45.13564" lon="2.82965">
        <ele>1170.31</ele>
        <time>2022-08-16T09:17:30Z</time>
      </trkpt>
      <trkpt lat="45.13634" lon="2.82918">
        <ele>1171.96</ele>
        <time>2022-08-16T09:17:34Z</time>
      </trkpt>
      <trkpt lat="45.13668" lon="2.82895">
        <ele>1173.38</ele>
        <time>2022-08-16T09:17:36Z</time>
      </trkpt>
      <trkpt lat="45.13732" lon="2.82843">
        <ele>1175.28</ele>
        <time>2022-08-16T09:17:40Z</time>
      </trkpt>
      <trkpt lat="45.13862" lon="2.82691">
        <ele>1177.66</ele>
        <time>2022-08-16T09:17:49Z</time>
      </trkpt>
      <trkpt lat="45.13901" lon="2.82635">
        <ele>1177.88</ele>
        <time>2022-08-16T09:17:52Z</time>
      </trkpt>
      <trkpt lat="45.13911" lon="2.82615">
        <ele>1177.9</ele>
        <time>2022-08-16T09:17:53Z</time>
      </trkpt>
      <trkpt lat="45.13929" lon="2.82572">
        <ele>1179.32</ele>
        <time>2022-08-16T09:17:55Z</time>
      </trkpt>
      <trkpt lat="45.13981" lon="2.8241">
        <ele>1181.74</ele>
        <time>2022-08-16T09:18:02Z</time>
      </trkpt>
      <trkpt lat="45.14081" lon="2.82143">
        <ele>1185.26</ele>
        <time>2022-08-16T09:18:14Z</time>
      </trkpt>
      <trkpt lat="45.14123" lon="2.82092">
        <ele>1186.61</ele>
        <time>2022-08-16T09:18:17Z</time>
      </trkpt>
      <trkpt lat="45.14251" lon="2.81955">
        <ele>1190.13</ele>
        <time>2022-08-16T09:18:25Z</time>
      </trkpt>
      <trkpt lat="45.14284" lon="2.81918">
        <ele>1190.97</ele>
        <time>2022-08-16T09:18:27Z</time>
      </trkpt>
      <trkpt lat="45.14472" lon="2.81717">
        <ele>1193.67</ele>
        <time>2022-08-16T09:18:38Z</time>
      </trkpt>
      <trkpt lat="45.14519" lon="2.81664">
        <ele>1196.32</ele>
        <time>2022-08-16T09:18:41Z</time>
      </trkpt>
      <trkpt lat="45.1455" lon="2.8163">
        <ele>1197.58</ele>
        <time>2022-08-16T09:18:43Z</time>
      </trkpt>
      <trkpt lat="45.14581" lon="2.81597">
        <ele>1201.78</ele>
        <time>2022-08-16T09:18:45Z</time>
      </trkpt>
      <trkpt lat="45.14613" lon="2.81566">
        <ele>1203.44</ele>
        <time>2022-08-16T09:18:47Z</time>
      </trkpt>
      <trkpt lat="45.14664" lon="2.81521">
        <ele>1205.39</ele>
        <time>2022-08-16T09:18:50Z</time>
      </trkpt>
      <trkpt lat="45.14803" lon="2.81378">
        <ele>1201.53</ele>
        <time>2022-08-16T09:18:58Z</time>
      </trkpt>
      <trkpt lat="45.14854" lon="2.81314">
        <ele>1197.51</ele>
        <time>2022-08-16T09:19:01Z</time>
      </trkpt>
      <trkpt lat="45.14891" lon="2.81276">
        <ele>1195.96</ele>
        <time>2022-08-16T09:19:03Z</time>
      </trkpt>
      <trkpt lat="45.14929" lon="2.81242">
        <ele>1194.51</ele>
        <time>2022-08-16T09:19:05Z</time>
      </trkpt>
      <trkpt lat="45.1497" lon="2.81214">
        <ele>1191.19</ele>
        <time>2022-08-16T09:19:07Z</time>
      </trkpt>
      <trkpt lat="45.14991" lon="2.81203">
        <ele>1190.45</ele>
        <time>2022-08-16T09:19:08Z</time>
      </trkpt>
      <trkpt lat="45.15013" lon="2.81196">
        <ele>1189.08</ele>
        <time>2022-08-16T09:19:09Z</time>
      </trkpt>
      <trkpt lat="45.15035" lon="2.81192">
        <ele>1187.84</ele>
        <time>2022-08-16T09:19:10Z</time>
      </trkpt>
      <trkpt lat="45.15057" lon="2.81191">
        <ele>1187.43</ele>
        <time>2022-08-16T09:19:11Z</time>
      </trkpt>
      <trkpt lat="45.15078" lon="2.81193">
        <ele>1186.57</ele>
        <time>2022-08-16T09:19:12Z</time>
      </trkpt>
      <trkpt lat="45.15101" lon="2.81197">
        <ele>1185.12</ele>
        <time>2022-08-16T09:19:13Z</time>
      </trkpt>
      <trkpt lat="45.15122" lon="2.81205">
        <ele>1185.12</ele>
        <time>2022-08-16T09:19:14Z</time>
      </trkpt>
      <trkpt lat="45.15142" lon="2.81216">
        <ele>1183.87</ele>
        <time>2022-08-16T09:19:15Z</time>
      </trkpt>
      <trkpt lat="45.15161" lon="2.81229">
        <ele>1182.61</ele>
        <time>2022-08-16T09:19:16Z</time>
      </trkpt>
      <trkpt lat="45.15179" lon="2.81244">
        <ele>1181.3</ele>
        <time>2022-08-16T09:19:17Z</time>
      </trkpt>
      <trkpt lat="45.15196" lon="2.81261">
        <ele>1181.2</ele>
        <time>2022-08-16T09:19:18Z</time>
      </trkpt>
      <trkpt lat="45.15211" lon="2.81279">
        <ele>1179.6</ele>
        <time>2022-08-16T09:19:19Z</time>
      </trkpt>
      <trkpt lat="45.15224" lon="2.81299">
        <ele>1178.53</ele>
        <time>2022-08-16T09:19:20Z</time>
      </trkpt>
      <trkpt lat="45.15236" lon="2.8132">
        <ele>1177.22</ele>
        <time>2022-08-16T09:19:21Z</time>
      </trkpt>
      <trkpt lat="45.15246" lon="2.81341">
        <ele>1177.3</ele>
        <time>2022-08-16T09:19:22Z</time>
      </trkpt>
      <trkpt lat="45.15256" lon="2.81362">
        <ele>1175.77</ele>
        <time>2022-08-16T09:19:23Z</time>
      </trkpt>
      <trkpt lat="45.15264" lon="2.81384">
        <ele>1174.83</ele>
        <time>2022-08-16T09:19:24Z</time>
      </trkpt>
      <trkpt lat="45.15271" lon="2.81407">
        <ele>1174.87</ele>
        <time>2022-08-16T09:19:25Z</time>
      </trkpt>
      <trkpt lat="45.15319" lon="2.81553">
        <ele>1172.71</ele>
        <time>2022-08-16T09:19:31Z</time>
      </trkpt>
      <trkpt lat="45.15371" lon="2.8171">
        <ele>1168.91</ele>
        <time>2022-08-16T09:19:37Z</time>
      </trkpt>
      <trkpt lat="45.15398" lon="2.81792">
        <ele>1166.97</ele>
        <time>2022-08-16T09:19:40Z</time>
      </trkpt>
      <trkpt lat="45.15411" lon="2.8185">
        <ele>1165.68</ele>
        <time>2022-08-16T09:19:42Z</time>
      </trkpt>
      <trkpt lat="45.15414" lon="2.81879">
        <ele>1164.65</ele>
        <time>2022-08-16T09:19:43Z</time>
      </trkpt>
      <trkpt lat="45.15416" lon="2.81909">
        <ele>1163.8</ele>
        <time>2022-08-16T09:19:44Z</time>
      </trkpt>
      <trkpt lat="45.15415" lon="2.81939">
        <ele>1163.8</ele>
        <time>2022-08-16T09:19:45Z</time>
      </trkpt>
      <trkpt lat="45.15413" lon="2.81968">
        <ele>1162.85</ele>
        <time>2022-08-16T09:19:46Z</time>
      </trkpt>
      <trkpt lat="45.15409" lon="2.81998">
        <ele>1162.78</ele>
        <time>2022-08-16T09:19:47Z</time>
      </trkpt>
      <trkpt lat="45.15404" lon="2.82027">
        <ele>1161.69</ele>
        <time>2022-08-16T09:19:48Z</time>
      </trkpt>
      <trkpt lat="45.15395" lon="2.82084">
        <ele>1160.62</ele>
        <time>2022-08-16T09:19:50Z</time>
      </trkpt>
      <trkpt lat="45.15388" lon="2.82142">
        <ele>1158.58</ele>
        <time>2022-08-16T09:19:52Z</time>
      </trkpt>
      <trkpt lat="45.15385" lon="2.822">
        <ele>1157.14</ele>
        <time>2022-08-16T09:19:54Z</time>
      </trkpt>
      <trkpt lat="45.15388" lon="2.82229">
        <ele>1155.2</ele>
        <time>2022-08-16T09:19:55Z</time>
      </trkpt>
      <trkpt lat="45.15392" lon="2.82257">
        <ele>1155.23</ele>
        <time>2022-08-16T09:19:56Z</time>
      </trkpt>
      <trkpt lat="45.15399" lon="2.82284">
        <ele>1153.29</ele>
        <time>2022-08-16T09:19:57Z</time>
      </trkpt>
      <trkpt lat="45.15409" lon="2.82309">
        <ele>1151.99</ele>
        <time>2022-08-16T09:19:58Z</time>
      </trkpt>
      <trkpt lat="45.15421" lon="2.82332">
        <ele>1150.92</ele>
        <time>2022-08-16T09:19:59Z</time>
      </trkpt>
      <trkpt lat="45.15435" lon="2.82353">
        <ele>1149.1</ele>
        <time>2022-08-16T09:20:00Z</time>
      </trkpt>
      <trkpt lat="45.1545" lon="2.82371">
        <ele>1147.99</ele>
        <time>2022-08-16T09:20:01Z</time>
      </trkpt>
      <trkpt lat="45.15467" lon="2.82387">
        <ele>1146.55</ele>
        <time>2022-08-16T09:20:02Z</time>
      </trkpt>
      <trkpt lat="45.15485" lon="2.824">
        <ele>1146.48</ele>
        <time>2022-08-16T09:20:03Z</time>
      </trkpt>
      <trkpt lat="45.15504" lon="2.82412">
        <ele>1145.44</ele>
        <time>2022-08-16T09:20:04Z</time>
      </trkpt>
      <trkpt lat="45.15561" lon="2.82448">
        <ele>1143.92</ele>
        <time>2022-08-16T09:20:07Z</time>
      </trkpt>
      <trkpt lat="45.15639" lon="2.82497">
        <ele>1141.91</ele>
        <time>2022-08-16T09:20:11Z</time>
      </trkpt>
      <trkpt lat="45.157" lon="2.82534">
        <ele>1138.23</ele>
        <time>2022-08-16T09:20:14Z</time>
      </trkpt>
      <trkpt lat="45.15721" lon="2.82547">
        <ele>1138.26</ele>
        <time>2022-08-16T09:20:15Z</time>
      </trkpt>
      <trkpt lat="45.15761" lon="2.82573">
        <ele>1136.96</ele>
        <time>2022-08-16T09:20:17Z</time>
      </trkpt>
      <trkpt lat="45.15801" lon="2.82604">
        <ele>1135.63</ele>
        <time>2022-08-16T09:20:19Z</time>
      </trkpt>
      <trkpt lat="45.15888" lon="2.82709">
        <ele>1132.15</ele>
        <time>2022-08-16T09:20:24Z</time>
      </trkpt>
      <trkpt lat="45.15936" lon="2.82779">
        <ele>1128.91</ele>
        <time>2022-08-16T09:20:27Z</time>
      </trkpt>
      <trkpt lat="45.15952" lon="2.82801">
        <ele>1128.91</ele>
        <time>2022-08-16T09:20:28Z</time>
      </trkpt>
      <trkpt lat="45.16003" lon="2.82867">
        <ele>1125.84</ele>
        <time>2022-08-16T09:20:31Z</time>
      </trkpt>
      <trkpt lat="45.16038" lon="2.82906">
        <ele>1124.69</ele>
        <time>2022-08-16T09:20:33Z</time>
      </trkpt>
      <trkpt lat="45.16095" lon="2.82958">
        <ele>1121.64</ele>
        <time>2022-08-16T09:20:36Z</time>
      </trkpt>
      <trkpt lat="45.16135" lon="2.82988">
        <ele>1120.76</ele>
        <time>2022-08-16T09:20:38Z</time>
      </trkpt>
      <trkpt lat="45.16175" lon="2.83018">
        <ele>1118.98</ele>
        <time>2022-08-16T09:20:40Z</time>
      </trkpt>
      <trkpt lat="45.16216" lon="2.83047">
        <ele>1116.98</ele>
        <time>2022-08-16T09:20:42Z</time>
      </trkpt>
      <trkpt lat="45.16276" lon="2.8309">
        <ele>1113.06</ele>
        <time>2022-08-16T09:20:45Z</time>
      </trkpt>
      <trkpt lat="45.16338" lon="2.83132">
        <ele>1109.84</ele>
        <time>2022-08-16T09:20:48Z</time>
      </trkpt>
      <trkpt lat="45.16399" lon="2.83174">
        <ele>1108.35</ele>
        <time>2022-08-16T09:20:51Z</time>
      </trkpt>
      <trkpt lat="45.1644" lon="2.83204">
        <ele>1106.68</ele>
        <time>2022-08-16T09:20:53Z</time>
      </trkpt>
      <trkpt lat="45.16478" lon="2.83235">
        <ele>1104.89</ele>
        <time>2022-08-16T09:20:55Z</time>
      </trkpt>
      <trkpt lat="45.16515" lon="2.83268">
        <ele>1103.2</ele>
        <time>2022-08-16T09:20:57Z</time>
      </trkpt>
      <trkpt lat="45.16567" lon="2.83322">
        <ele>1099.16</ele>
        <time>2022-08-16T09:21:00Z</time>
      </trkpt>
      <trkpt lat="45.16599" lon="2.83363">
        <ele>1098.17</ele>
        <time>2022-08-16T09:21:02Z</time>
      </trkpt>
      <trkpt lat="45.16663" lon="2.83445">
        <ele>1096.33</ele>
        <time>2022-08-16T09:21:06Z</time>
      </trkpt>
      <trkpt lat="45.16731" lon="2.83514">
        <ele>1092.75</ele>
        <time>2022-08-16T09:21:10Z</time>
      </trkpt>
      <trkpt lat="45.16781" lon="2.83554">
        <ele>1088.7</ele>
        <time>2022-08-16T09:21:13Z</time>
      </trkpt>
      <trkpt lat="45.16798" lon="2.83567">
        <ele>1088.78</ele>
        <time>2022-08-16T09:21:14Z</time>
      </trkpt>
      <trkpt lat="45.16871" lon="2.8361">
        <ele>1086.53</ele>
        <time>2022-08-16T09:21:18Z</time>
      </trkpt>
      <trkpt lat="45.1693" lon="2.83636">
        <ele>1084.54</ele>
        <time>2022-08-16T09:21:21Z</time>
      </trkpt>
      <trkpt lat="45.16972" lon="2.83651">
        <ele>1083.35</ele>
        <time>2022-08-16T09:21:23Z</time>
      </trkpt>
      <trkpt lat="45.17146" lon="2.83695">
        <ele>1079.47</ele>
        <time>2022-08-16T09:21:31Z</time>
      </trkpt>
      <trkpt lat="45.17168" lon="2.83694">
        <ele>1079.43</ele>
        <time>2022-08-16T09:21:32Z</time>
      </trkpt>
      <trkpt lat="45.17212" lon="2.8369">
        <ele>1077.65</ele>
        <time>2022-08-16T09:21:34Z</time>
      </trkpt>
      <trkpt lat="45.17255" lon="2.83686">
        <ele>1075.59</ele>
        <time>2022-08-16T09:21:36Z</time>
      </trkpt>
      <trkpt lat="45.17297" lon="2.83686">
        <ele>1073.86</ele>
        <time>2022-08-16T09:21:38Z</time>
      </trkpt>
      <trkpt lat="45.1736" lon="2.83694">
        <ele>1071.56</ele>
        <time>2022-08-16T09:21:41Z</time>
      </trkpt>
      <trkpt lat="45.17401" lon="2.83702">
        <ele>1069.79</ele>
        <time>2022-08-16T09:21:43Z</time>
      </trkpt>
      <trkpt lat="45.17441" lon="2.83711">
        <ele>1068.4</ele>
        <time>2022-08-16T09:21:45Z</time>
      </trkpt>
      <trkpt lat="45.175" lon="2.83725">
        <ele>1066.36</ele>
        <time>2022-08-16T09:21:48Z</time>
      </trkpt>
      <trkpt lat="45.17555" lon="2.83743">
        <ele>1064.38</ele>
        <time>2022-08-16T09:21:51Z</time>
      </trkpt>
      <trkpt lat="45.1759" lon="2.83755">
        <ele>1062.97</ele>
        <time>2022-08-16T09:21:53Z</time>
      </trkpt>
      <trkpt lat="45.17623" lon="2.83769">
        <ele>1061.48</ele>
        <time>2022-08-16T09:21:55Z</time>
      </trkpt>
      <trkpt lat="45.17655" lon="2.83784">
        <ele>1060.29</ele>
        <time>2022-08-16T09:21:57Z</time>
      </trkpt>
      <trkpt lat="45.17686" lon="2.838">
        <ele>1058.59</ele>
        <time>2022-08-16T09:21:59Z</time>
      </trkpt>
      <trkpt lat="45.1775" lon="2.83837">
        <ele>1056.31</ele>
        <time>2022-08-16T09:22:03Z</time>
      </trkpt>
      <trkpt lat="45.17798" lon="2.83867">
        <ele>1054.41</ele>
        <time>2022-08-16T09:22:06Z</time>
      </trkpt>
      <trkpt lat="45.17879" lon="2.83918">
        <ele>1051.31</ele>
        <time>2022-08-16T09:22:11Z</time>
      </trkpt>
      <trkpt lat="45.17931" lon="2.83948">
        <ele>1049.88</ele>
        <time>2022-08-16T09:22:14Z</time>
      </trkpt>
      <trkpt lat="45.17986" lon="2.83971">
        <ele>1048.94</ele>
        <time>2022-08-16T09:22:17Z</time>
      </trkpt>
      <trkpt lat="45.18005" lon="2.83974">
        <ele>1048.16</ele>
        <time>2022-08-16T09:22:18Z</time>
      </trkpt>
      <trkpt lat="45.18025" lon="2.83974">
        <ele>1048.1</ele>
        <time>2022-08-16T09:22:19Z</time>
      </trkpt>
      <trkpt lat="45.18044" lon="2.83972">
        <ele>1045.86</ele>
        <time>2022-08-16T09:22:20Z</time>
      </trkpt>
      <trkpt lat="45.18064" lon="2.83967">
        <ele>1045.91</ele>
        <time>2022-08-16T09:22:21Z</time>
      </trkpt>
      <trkpt lat="45.18083" lon="2.8396">
        <ele>1045.83</ele>
        <time>2022-08-16T09:22:22Z</time>
      </trkpt>
      <trkpt lat="45.18102" lon="2.8395">
        <ele>1044.78</ele>
        <time>2022-08-16T09:22:23Z</time>
      </trkpt>
      <trkpt lat="45.18119" lon="2.83937">
        <ele>1044.79</ele>
        <time>2022-08-16T09:22:24Z</time>
      </trkpt>
      <trkpt lat="45.18136" lon="2.83923">
        <ele>1045.19</ele>
        <time>2022-08-16T09:22:25Z</time>
      </trkpt>
      <trkpt lat="45.18151" lon="2.83906">
        <ele>1045.19</ele>
        <time>2022-08-16T09:22:26Z</time>
      </trkpt>
      <trkpt lat="45.18166" lon="2.83889">
        <ele>1045.19</ele>
        <time>2022-08-16T09:22:27Z</time>
      </trkpt>
      <trkpt lat="45.18178" lon="2.8387">
        <ele>1043.69</ele>
        <time>2022-08-16T09:22:28Z</time>
      </trkpt>
      <trkpt lat="45.18189" lon="2.83852">
        <ele>1043.65</ele>
        <time>2022-08-16T09:22:29Z</time>
      </trkpt>
      <trkpt lat="45.18198" lon="2.83833">
        <ele>1043.69</ele>
        <time>2022-08-16T09:22:30Z</time>
      </trkpt>
      <trkpt lat="45.18207" lon="2.83813">
        <ele>1043.62</ele>
        <time>2022-08-16T09:22:31Z</time>
      </trkpt>
      <trkpt lat="45.18327" lon="2.83606">
        <ele>1042.84</ele>
        <time>2022-08-16T09:22:43Z</time>
      </trkpt>
      <trkpt lat="45.18439" lon="2.83532">
        <ele>1042.84</ele>
        <time>2022-08-16T09:22:49Z</time>
      </trkpt>
      <trkpt lat="45.18651" lon="2.83381">
        <ele>1041.08</ele>
        <time>2022-08-16T09:23:01Z</time>
      </trkpt>
      <trkpt lat="45.18936" lon="2.83102">
        <ele>1037.91</ele>
        <time>2022-08-16T09:23:19Z</time>
      </trkpt>
      <trkpt lat="45.18951" lon="2.83085">
        <ele>1037.89</ele>
        <time>2022-08-16T09:23:20Z</time>
      </trkpt>
      <trkpt lat="45.19086" lon="2.82939">
        <ele>1036.23</ele>
        <time>2022-08-16T09:23:29Z</time>
      </trkpt>
      <trkpt lat="45.19102" lon="2.82928">
        <ele>1036.23</ele>
        <time>2022-08-16T09:23:30Z</time>
      </trkpt>
      <trkpt lat="45.19239" lon="2.82833">
        <ele>1035.25</ele>
        <time>2022-08-16T09:23:39Z</time>
      </trkpt>
      <trkpt lat="45.19319" lon="2.82698">
        <ele>1032.24</ele>
        <time>2022-08-16T09:23:46Z</time>
      </trkpt>
      <trkpt lat="45.19412" lon="2.8255">
        <ele>1031.59</ele>
        <time>2022-08-16T09:23:55Z</time>
      </trkpt>
      <trkpt lat="45.19465" lon="2.8248">
        <ele>1033.9</ele>
        <time>2022-08-16T09:23:59Z</time>
      </trkpt>
      <trkpt lat="45.19607" lon="2.82249">
        <ele>1034.99</ele>
        <time>2022-08-16T09:24:10Z</time>
      </trkpt>
      <trkpt lat="45.19651" lon="2.82154">
        <ele>1031.99</ele>
        <time>2022-08-16T09:24:14Z</time>
      </trkpt>
      <trkpt lat="45.19664" lon="2.82134">
        <ele>1031.98</ele>
        <time>2022-08-16T09:24:15Z</time>
      </trkpt>
      <trkpt lat="45.19679" lon="2.82117">
        <ele>1031.97</ele>
        <time>2022-08-16T09:24:16Z</time>
      </trkpt>
      <trkpt lat="45.19694" lon="2.82101">
        <ele>1031.96</ele>
        <time>2022-08-16T09:24:17Z</time>
      </trkpt>
      <trkpt lat="45.1971" lon="2.82087">
        <ele>1030.32</ele>
        <time>2022-08-16T09:24:18Z</time>
      </trkpt>
      <trkpt lat="45.19727" lon="2.82075">
        <ele>1030.3</ele>
        <time>2022-08-16T09:24:19Z</time>
      </trkpt>
      <trkpt lat="45.19745" lon="2.82066">
        <ele>1030.3</ele>
        <time>2022-08-16T09:24:20Z</time>
      </trkpt>
      <trkpt lat="45.19763" lon="2.8206">
        <ele>1030.26</ele>
        <time>2022-08-16T09:24:21Z</time>
      </trkpt>
      <trkpt lat="45.19782" lon="2.82056">
        <ele>1030.26</ele>
        <time>2022-08-16T09:24:22Z</time>
      </trkpt>
      <trkpt lat="45.19801" lon="2.82054">
        <ele>1030.27</ele>
        <time>2022-08-16T09:24:23Z</time>
      </trkpt>
      <trkpt lat="45.1982" lon="2.82055">
        <ele>1030.25</ele>
        <time>2022-08-16T09:24:24Z</time>
      </trkpt>
      <trkpt lat="45.19839" lon="2.82058">
        <ele>1030.22</ele>
        <time>2022-08-16T09:24:25Z</time>
      </trkpt>
      <trkpt lat="45.19857" lon="2.82064">
        <ele>1030.26</ele>
        <time>2022-08-16T09:24:26Z</time>
      </trkpt>
      <trkpt lat="45.19875" lon="2.82073">
        <ele>1030.29</ele>
        <time>2022-08-16T09:24:27Z</time>
      </trkpt>
      <trkpt lat="45.19892" lon="2.82085">
        <ele>1030.31</ele>
        <time>2022-08-16T09:24:28Z</time>
      </trkpt>
      <trkpt lat="45.19908" lon="2.82098">
        <ele>1030.31</ele>
        <time>2022-08-16T09:24:29Z</time>
      </trkpt>
      <trkpt lat="45.19923" lon="2.82114">
        <ele>1030.28</ele>
        <time>2022-08-16T09:24:30Z</time>
      </trkpt>
      <trkpt lat="45.19938" lon="2.82131">
        <ele>1030.28</ele>
        <time>2022-08-16T09:24:31Z</time>
      </trkpt>
      <trkpt lat="45.19952" lon="2.82149">
        <ele>1030.31</ele>
        <time>2022-08-16T09:24:32Z</time>
      </trkpt>
      <trkpt lat="45.20083" lon="2.8226">
        <ele>1029.44</ele>
        <time>2022-08-16T09:24:40Z</time>
      </trkpt>
      <trkpt lat="45.20225" lon="2.82293">
        <ele>1026.67</ele>
        <time>2022-08-16T09:24:47Z</time>
      </trkpt>
      <trkpt lat="45.20334" lon="2.82314">
        <ele>1029.33</ele>
        <time>2022-08-16T09:24:52Z</time>
      </trkpt>
      <trkpt lat="45.20585" lon="2.82336">
        <ele>1029.29</ele>
        <time>2022-08-16T09:25:04Z</time>
      </trkpt>
      <trkpt lat="45.20831" lon="2.82283">
        <ele>1029.26</ele>
        <time>2022-08-16T09:25:16Z</time>
      </trkpt>
      <trkpt lat="45.20851" lon="2.82286">
        <ele>1026.31</ele>
        <time>2022-08-16T09:25:17Z</time>
      </trkpt>
      <trkpt lat="45.20871" lon="2.82291">
        <ele>1026.31</ele>
        <time>2022-08-16T09:25:18Z</time>
      </trkpt>
      <trkpt lat="45.21064" lon="2.82363">
        <ele>1025.14</ele>
        <time>2022-08-16T09:25:28Z</time>
      </trkpt>
      <trkpt lat="45.21084" lon="2.82364">
        <ele>1025.13</ele>
        <time>2022-08-16T09:25:29Z</time>
      </trkpt>
      <trkpt lat="45.21104" lon="2.82362">
        <ele>1025.1</ele>
        <time>2022-08-16T09:25:30Z</time>
      </trkpt>
      <trkpt lat="45.21123" lon="2.82359">
        <ele>1025.08</ele>
        <time>2022-08-16T09:25:31Z</time>
      </trkpt>
      <trkpt lat="45.21143" lon="2.82355">
        <ele>1025.09</ele>
        <time>2022-08-16T09:25:32Z</time>
      </trkpt>
      <trkpt lat="45.21202" lon="2.82338">
        <ele>1023.79</ele>
        <time>2022-08-16T09:25:35Z</time>
      </trkpt>
      <trkpt lat="45.2142" lon="2.8228">
        <ele>1020.5</ele>
        <time>2022-08-16T09:25:46Z</time>
      </trkpt>
      <trkpt lat="45.2144" lon="2.82274">
        <ele>1020.53</ele>
        <time>2022-08-16T09:25:47Z</time>
      </trkpt>
      <trkpt lat="45.21686" lon="2.82175">
        <ele>1022.25</ele>
        <time>2022-08-16T09:26:00Z</time>
      </trkpt>
      <trkpt lat="45.2177" lon="2.82109">
        <ele>1024.68</ele>
        <time>2022-08-16T09:26:05Z</time>
      </trkpt>
      <trkpt lat="45.21803" lon="2.82078">
        <ele>1026.3</ele>
        <time>2022-08-16T09:26:07Z</time>
      </trkpt>
      <trkpt lat="45.21852" lon="2.8203">
        <ele>1028.62</ele>
        <time>2022-08-16T09:26:10Z</time>
      </trkpt>
      <trkpt lat="45.21984" lon="2.81902">
        <ele>1030.74</ele>
        <time>2022-08-16T09:26:18Z</time>
      </trkpt>
      <trkpt lat="45.22049" lon="2.81838">
        <ele>1032.51</ele>
        <time>2022-08-16T09:26:22Z</time>
      </trkpt>
      <trkpt lat="45.22128" lon="2.81763">
        <ele>1035.43</ele>
        <time>2022-08-16T09:26:27Z</time>
      </trkpt>
      <trkpt lat="45.22175" lon="2.81718">
        <ele>1037.43</ele>
        <time>2022-08-16T09:26:30Z</time>
      </trkpt>
      <trkpt lat="45.22206" lon="2.81688">
        <ele>1038.98</ele>
        <time>2022-08-16T09:26:32Z</time>
      </trkpt>
      <trkpt lat="45.22252" lon="2.81643">
        <ele>1042.02</ele>
        <time>2022-08-16T09:26:35Z</time>
      </trkpt>
      <trkpt lat="45.22268" lon="2.81627">
        <ele>1042.04</ele>
        <time>2022-08-16T09:26:36Z</time>
      </trkpt>
      <trkpt lat="45.2233" lon="2.81552">
        <ele>1044.6</ele>
        <time>2022-08-16T09:26:40Z</time>
      </trkpt>
      <trkpt lat="45.22398" lon="2.81437">
        <ele>1047.48</ele>
        <time>2022-08-16T09:26:45Z</time>
      </trkpt>
      <trkpt lat="45.22463" lon="2.81259">
        <ele>1049.7</ele>
        <time>2022-08-16T09:26:52Z</time>
      </trkpt>
      <trkpt lat="45.22487" lon="2.81153">
        <ele>1052.73</ele>
        <time>2022-08-16T09:26:56Z</time>
      </trkpt>
      <trkpt lat="45.22493" lon="2.81127">
        <ele>1052.77</ele>
        <time>2022-08-16T09:26:57Z</time>
      </trkpt>
      <trkpt lat="45.22517" lon="2.81023">
        <ele>1056.32</ele>
        <time>2022-08-16T09:27:01Z</time>
      </trkpt>
      <trkpt lat="45.22523" lon="2.80997">
        <ele>1056.29</ele>
        <time>2022-08-16T09:27:02Z</time>
      </trkpt>
      <trkpt lat="45.22542" lon="2.80918">
        <ele>1058.16</ele>
        <time>2022-08-16T09:27:05Z</time>
      </trkpt>
      <trkpt lat="45.2256" lon="2.80839">
        <ele>1060.88</ele>
        <time>2022-08-16T09:27:08Z</time>
      </trkpt>
      <trkpt lat="45.22578" lon="2.80761">
        <ele>1064.38</ele>
        <time>2022-08-16T09:27:11Z</time>
      </trkpt>
      <trkpt lat="45.22597" lon="2.80682">
        <ele>1068.14</ele>
        <time>2022-08-16T09:27:14Z</time>
      </trkpt>
      <trkpt lat="45.2262" lon="2.80606">
        <ele>1070.9</ele>
        <time>2022-08-16T09:27:17Z</time>
      </trkpt>
      <trkpt lat="45.22638" lon="2.80558">
        <ele>1072.94</ele>
        <time>2022-08-16T09:27:19Z</time>
      </trkpt>
      <trkpt lat="45.2266" lon="2.80509">
        <ele>1076.49</ele>
        <time>2022-08-16T09:27:21Z</time>
      </trkpt>
      <trkpt lat="45.22672" lon="2.80485">
        <ele>1076.47</ele>
        <time>2022-08-16T09:27:22Z</time>
      </trkpt>
      <trkpt lat="45.22697" lon="2.80437">
        <ele>1078.58</ele>
        <time>2022-08-16T09:27:24Z</time>
      </trkpt>
      <trkpt lat="45.22722" lon="2.80388">
        <ele>1082.15</ele>
        <time>2022-08-16T09:27:26Z</time>
      </trkpt>
      <trkpt lat="45.22772" lon="2.80292">
        <ele>1086.03</ele>
        <time>2022-08-16T09:27:30Z</time>
      </trkpt>
      <trkpt lat="45.22785" lon="2.80268">
        <ele>1086.18</ele>
        <time>2022-08-16T09:27:31Z</time>
      </trkpt>
      <trkpt lat="45.2281" lon="2.8022">
        <ele>1090.23</ele>
        <time>2022-08-16T09:27:33Z</time>
      </trkpt>
      <trkpt lat="45.22848" lon="2.80147">
        <ele>1093.45</ele>
        <time>2022-08-16T09:27:36Z</time>
      </trkpt>
      <trkpt lat="45.22885" lon="2.80076">
        <ele>1097.35</ele>
        <time>2022-08-16T09:27:39Z</time>
      </trkpt>
      <trkpt lat="45.22923" lon="2.80004">
        <ele>1099.4</ele>
        <time>2022-08-16T09:27:42Z</time>
      </trkpt>
      <trkpt lat="45.22947" lon="2.79957">
        <ele>1102.47</ele>
        <time>2022-08-16T09:27:44Z</time>
      </trkpt>
      <trkpt lat="45.22984" lon="2.79887">
        <ele>1105.89</ele>
        <time>2022-08-16T09:27:47Z</time>
      </trkpt>
      <trkpt lat="45.23019" lon="2.79816">
        <ele>1108.57</ele>
        <time>2022-08-16T09:27:50Z</time>
      </trkpt>
      <trkpt lat="45.23029" lon="2.79791">
        <ele>1109.9</ele>
        <time>2022-08-16T09:27:51Z</time>
      </trkpt>
      <trkpt lat="45.23035" lon="2.79764">
        <ele>1109.9</ele>
        <time>2022-08-16T09:27:52Z</time>
      </trkpt>
      <trkpt lat="45.2304" lon="2.79736">
        <ele>1111.14</ele>
        <time>2022-08-16T09:27:53Z</time>
      </trkpt>
      <trkpt lat="45.23041" lon="2.79708">
        <ele>1112.09</ele>
        <time>2022-08-16T09:27:54Z</time>
      </trkpt>
      <trkpt lat="45.23039" lon="2.79679">
        <ele>1112.15</ele>
        <time>2022-08-16T09:27:55Z</time>
      </trkpt>
      <trkpt lat="45.23034" lon="2.79651">
        <ele>1113.28</ele>
        <time>2022-08-16T09:27:56Z</time>
      </trkpt>
      <trkpt lat="45.23026" lon="2.79624">
        <ele>1114.42</ele>
        <time>2022-08-16T09:27:57Z</time>
      </trkpt>
      <trkpt lat="45.23015" lon="2.79599">
        <ele>1115.74</ele>
        <time>2022-08-16T09:27:58Z</time>
      </trkpt>
      <trkpt lat="45.23002" lon="2.79577">
        <ele>1116.54</ele>
        <time>2022-08-16T09:27:59Z</time>
      </trkpt>
      <trkpt lat="45.22986" lon="2.79556">
        <ele>1116.47</ele>
        <time>2022-08-16T09:28:00Z</time>
      </trkpt>
      <trkpt lat="45.22969" lon="2.79538">
        <ele>1117.38</ele>
        <time>2022-08-16T09:28:01Z</time>
      </trkpt>
      <trkpt lat="45.22952" lon="2.7952">
        <ele>1118.21</ele>
        <time>2022-08-16T09:28:02Z</time>
      </trkpt>
      <trkpt lat="45.22933" lon="2.79503">
        <ele>1118.2</ele>
        <time>2022-08-16T09:28:03Z</time>
      </trkpt>
      <trkpt lat="45.2288" lon="2.79452">
        <ele>1119.59</ele>
        <time>2022-08-16T09:28:06Z</time>
      </trkpt>
      <trkpt lat="45.22815" lon="2.79382">
        <ele>1119.56</ele>
        <time>2022-08-16T09:28:10Z</time>
      </trkpt>
      <trkpt lat="45.22801" lon="2.79362">
        <ele>1119.58</ele>
        <time>2022-08-16T09:28:11Z</time>
      </trkpt>
      <trkpt lat="45.2279" lon="2.7934">
        <ele>1119.55</ele>
        <time>2022-08-16T09:28:12Z</time>
      </trkpt>
      <trkpt lat="45.2268" lon="2.79146">
        <ele>1121.63</ele>
        <time>2022-08-16T09:28:21Z</time>
      </trkpt>
      <trkpt lat="45.22566" lon="2.78978">
        <ele>1121.4</ele>
        <time>2022-08-16T09:28:29Z</time>
      </trkpt>
      <trkpt lat="45.22556" lon="2.78952">
        <ele>1121.43</ele>
        <time>2022-08-16T09:28:30Z</time>
      </trkpt>
      <trkpt lat="45.22549" lon="2.78925">
        <ele>1121.42</ele>
        <time>2022-08-16T09:28:31Z</time>
      </trkpt>
      <trkpt lat="45.22486" lon="2.78603">
        <ele>1121.46</ele>
        <time>2022-08-16T09:28:43Z</time>
      </trkpt>
      <trkpt lat="45.22485" lon="2.78576">
        <ele>1121.44</ele>
        <time>2022-08-16T09:28:44Z</time>
      </trkpt>
      <trkpt lat="45.22485" lon="2.78548">
        <ele>1121.41</ele>
        <time>2022-08-16T09:28:45Z</time>
      </trkpt>
      <trkpt lat="45.22486" lon="2.78521">
        <ele>1118.35</ele>
        <time>2022-08-16T09:28:46Z</time>
      </trkpt>
      <trkpt lat="45.22487" lon="2.78494">
        <ele>1118.34</ele>
        <time>2022-08-16T09:28:47Z</time>
      </trkpt>
      <trkpt lat="45.22486" lon="2.78467">
        <ele>1118.29</ele>
        <time>2022-08-16T09:28:48Z</time>
      </trkpt>
      <trkpt lat="45.22483" lon="2.7844">
        <ele>1117.1</ele>
        <time>2022-08-16T09:28:49Z</time>
      </trkpt>
      <trkpt lat="45.22476" lon="2.78416">
        <ele>1117.05</ele>
        <time>2022-08-16T09:28:50Z</time>
      </trkpt>
      <trkpt lat="45.22465" lon="2.78394">
        <ele>1117</ele>
        <time>2022-08-16T09:28:51Z</time>
      </trkpt>
      <trkpt lat="45.22453" lon="2.78374">
        <ele>1117</ele>
        <time>2022-08-16T09:28:52Z</time>
      </trkpt>
      <trkpt lat="45.22438" lon="2.78358">
        <ele>1115.99</ele>
        <time>2022-08-16T09:28:53Z</time>
      </trkpt>
      <trkpt lat="45.22422" lon="2.78345">
        <ele>1115.93</ele>
        <time>2022-08-16T09:28:54Z</time>
      </trkpt>
      <trkpt lat="45.22405" lon="2.78336">
        <ele>1115.08</ele>
        <time>2022-08-16T09:28:55Z</time>
      </trkpt>
      <trkpt lat="45.22387" lon="2.78329">
        <ele>1114.2</ele>
        <time>2022-08-16T09:28:56Z</time>
      </trkpt>
      <trkpt lat="45.22351" lon="2.78316">
        <ele>1112.96</ele>
        <time>2022-08-16T09:28:58Z</time>
      </trkpt>
      <trkpt lat="45.22297" lon="2.78296">
        <ele>1111.66</ele>
        <time>2022-08-16T09:29:01Z</time>
      </trkpt>
      <trkpt lat="45.2228" lon="2.78285">
        <ele>1109.91</ele>
        <time>2022-08-16T09:29:02Z</time>
      </trkpt>
      <trkpt lat="45.22265" lon="2.7827">
        <ele>1108.44</ele>
        <time>2022-08-16T09:29:03Z</time>
      </trkpt>
      <trkpt lat="45.22251" lon="2.78252">
        <ele>1106.72</ele>
        <time>2022-08-16T09:29:04Z</time>
      </trkpt>
      <trkpt lat="45.22239" lon="2.78231">
        <ele>1105.63</ele>
        <time>2022-08-16T09:29:05Z</time>
      </trkpt>
      <trkpt lat="45.22231" lon="2.78207">
        <ele>1104.95</ele>
        <time>2022-08-16T09:29:06Z</time>
      </trkpt>
      <trkpt lat="45.22225" lon="2.78181">
        <ele>1103.24</ele>
        <time>2022-08-16T09:29:07Z</time>
      </trkpt>
      <trkpt lat="45.22224" lon="2.78154">
        <ele>1101.71</ele>
        <time>2022-08-16T09:29:08Z</time>
      </trkpt>
      <trkpt lat="45.22226" lon="2.78127">
        <ele>1100.33</ele>
        <time>2022-08-16T09:29:09Z</time>
      </trkpt>
      <trkpt lat="45.22232" lon="2.78101">
        <ele>1098.66</ele>
        <time>2022-08-16T09:29:10Z</time>
      </trkpt>
      <trkpt lat="45.22241" lon="2.78075">
        <ele>1097.64</ele>
        <time>2022-08-16T09:29:11Z</time>
      </trkpt>
      <trkpt lat="45.22251" lon="2.78051">
        <ele>1096.4</ele>
        <time>2022-08-16T09:29:12Z</time>
      </trkpt>
      <trkpt lat="45.22262" lon="2.78027">
        <ele>1094.91</ele>
        <time>2022-08-16T09:29:13Z</time>
      </trkpt>
      <trkpt lat="45.22273" lon="2.78003">
        <ele>1094.91</ele>
        <time>2022-08-16T09:29:14Z</time>
      </trkpt>
      <trkpt lat="45.22403" lon="2.77705">
        <ele>1099.48</ele>
        <time>2022-08-16T09:29:26Z</time>
      </trkpt>
      <trkpt lat="45.22427" lon="2.77615">
        <ele>1102.96</ele>
        <time>2022-08-16T09:29:29Z</time>
      </trkpt>
      <trkpt lat="45.22448" lon="2.77524">
        <ele>1105.31</ele>
        <time>2022-08-16T09:29:32Z</time>
      </trkpt>
      <trkpt lat="45.22466" lon="2.77432">
        <ele>1109.92</ele>
        <time>2022-08-16T09:29:35Z</time>
      </trkpt>
      <trkpt lat="45.22476" lon="2.7737">
        <ele>1110.89</ele>
        <time>2022-08-16T09:29:37Z</time>
      </trkpt>
      <trkpt lat="45.22481" lon="2.7734">
        <ele>1114.01</ele>
        <time>2022-08-16T09:29:38Z</time>
      </trkpt>
      <trkpt lat="45.22485" lon="2.7731">
        <ele>1114.12</ele>
        <time>2022-08-16T09:29:39Z</time>
      </trkpt>
      <trkpt lat="45.22494" lon="2.7725">
        <ele>1115.99</ele>
        <time>2022-08-16T09:29:41Z</time>
      </trkpt>
      <trkpt lat="45.22503" lon="2.77192">
        <ele>1119.39</ele>
        <time>2022-08-16T09:29:43Z</time>
      </trkpt>
      <trkpt lat="45.22511" lon="2.77136">
        <ele>1120.63</ele>
        <time>2022-08-16T09:29:45Z</time>
      </trkpt>
      <trkpt lat="45.22527" lon="2.77024">
        <ele>1123.99</ele>
        <time>2022-08-16T09:29:49Z</time>
      </trkpt>
      <trkpt lat="45.22535" lon="2.76969">
        <ele>1127.22</ele>
        <time>2022-08-16T09:29:51Z</time>
      </trkpt>
      <trkpt lat="45.22543" lon="2.76914">
        <ele>1130.77</ele>
        <time>2022-08-16T09:29:53Z</time>
      </trkpt>
      <trkpt lat="45.22556" lon="2.76833">
        <ele>1134.08</ele>
        <time>2022-08-16T09:29:56Z</time>
      </trkpt>
      <trkpt lat="45.22568" lon="2.76779">
        <ele>1135.9</ele>
        <time>2022-08-16T09:29:58Z</time>
      </trkpt>
      <trkpt lat="45.22576" lon="2.76754">
        <ele>1136.93</ele>
        <time>2022-08-16T09:29:59Z</time>
      </trkpt>
      <trkpt lat="45.22587" lon="2.7673">
        <ele>1137.69</ele>
        <time>2022-08-16T09:30:00Z</time>
      </trkpt>
      <trkpt lat="45.22599" lon="2.76708">
        <ele>1137.97</ele>
        <time>2022-08-16T09:30:01Z</time>
      </trkpt>
      <trkpt lat="45.22613" lon="2.76687">
        <ele>1140.12</ele>
        <time>2022-08-16T09:30:02Z</time>
      </trkpt>
      <trkpt lat="45.22628" lon="2.76668">
        <ele>1140.21</ele>
        <time>2022-08-16T09:30:03Z</time>
      </trkpt>
      <trkpt lat="45.22645" lon="2.76652">
        <ele>1141.45</ele>
        <time>2022-08-16T09:30:04Z</time>
      </trkpt>
      <trkpt lat="45.22663" lon="2.76638">
        <ele>1143.11</ele>
        <time>2022-08-16T09:30:05Z</time>
      </trkpt>
      <trkpt lat="45.22682" lon="2.76627">
        <ele>1144.1</ele>
        <time>2022-08-16T09:30:06Z</time>
      </trkpt>
      <trkpt lat="45.22701" lon="2.76618">
        <ele>1145.82</ele>
        <time>2022-08-16T09:30:07Z</time>
      </trkpt>
      <trkpt lat="45.22722" lon="2.76612">
        <ele>1145.81</ele>
        <time>2022-08-16T09:30:08Z</time>
      </trkpt>
      <trkpt lat="45.22741" lon="2.76608">
        <ele>1147.34</ele>
        <time>2022-08-16T09:30:09Z</time>
      </trkpt>
      <trkpt lat="45.2276" lon="2.76607">
        <ele>1148.22</ele>
        <time>2022-08-16T09:30:10Z</time>
      </trkpt>
      <trkpt lat="45.22778" lon="2.76605">
        <ele>1148.2</ele>
        <time>2022-08-16T09:30:11Z</time>
      </trkpt>
      <trkpt lat="45.22816" lon="2.76601">
        <ele>1151.43</ele>
        <time>2022-08-16T09:30:13Z</time>
      </trkpt>
      <trkpt lat="45.22876" lon="2.76593">
        <ele>1153.65</ele>
        <time>2022-08-16T09:30:16Z</time>
      </trkpt>
      <trkpt lat="45.22896" lon="2.76586">
        <ele>1155.31</ele>
        <time>2022-08-16T09:30:17Z</time>
      </trkpt>
      <trkpt lat="45.22916" lon="2.76576">
        <ele>1156.78</ele>
        <time>2022-08-16T09:30:18Z</time>
      </trkpt>
      <trkpt lat="45.22935" lon="2.76563">
        <ele>1158</ele>
        <time>2022-08-16T09:30:19Z</time>
      </trkpt>
      <trkpt lat="45.22952" lon="2.76548">
        <ele>1157.79</ele>
        <time>2022-08-16T09:30:20Z</time>
      </trkpt>
      <trkpt lat="45.22969" lon="2.7653">
        <ele>1159.44</ele>
        <time>2022-08-16T09:30:21Z</time>
      </trkpt>
      <trkpt lat="45.22984" lon="2.76509">
        <ele>1160.25</ele>
        <time>2022-08-16T09:30:22Z</time>
      </trkpt>
      <trkpt lat="45.22997" lon="2.76487">
        <ele>1160.35</ele>
        <time>2022-08-16T09:30:23Z</time>
      </trkpt>
      <trkpt lat="45.23009" lon="2.76463">
        <ele>1161.65</ele>
        <time>2022-08-16T09:30:24Z</time>
      </trkpt>
      <trkpt lat="45.2302" lon="2.76438">
        <ele>1161.74</ele>
        <time>2022-08-16T09:30:25Z</time>
      </trkpt>
      <trkpt lat="45.2303" lon="2.76412">
        <ele>1161.74</ele>
        <time>2022-08-16T09:30:26Z</time>
      </trkpt>
      <trkpt lat="45.23037" lon="2.76385">
        <ele>1162.72</ele>
        <time>2022-08-16T09:30:27Z</time>
      </trkpt>
      <trkpt lat="45.23044" lon="2.76357">
        <ele>1162.7</ele>
        <time>2022-08-16T09:30:28Z</time>
      </trkpt>
      <trkpt lat="45.23086" lon="2.76159">
        <ele>1164.17</ele>
        <time>2022-08-16T09:30:35Z</time>
      </trkpt>
      <trkpt lat="45.23101" lon="2.76014">
        <ele>1161.51</ele>
        <time>2022-08-16T09:30:40Z</time>
      </trkpt>
      <trkpt lat="45.2308" lon="2.75812">
        <ele>1157.34</ele>
        <time>2022-08-16T09:30:47Z</time>
      </trkpt>
      <trkpt lat="45.23066" lon="2.75725">
        <ele>1153.4</ele>
        <time>2022-08-16T09:30:50Z</time>
      </trkpt>
      <trkpt lat="45.23058" lon="2.7567">
        <ele>1151.85</ele>
        <time>2022-08-16T09:30:52Z</time>
      </trkpt>
      <trkpt lat="45.23054" lon="2.75615">
        <ele>1148.39</ele>
        <time>2022-08-16T09:30:54Z</time>
      </trkpt>
      <trkpt lat="45.23056" lon="2.75587">
        <ele>1147.11</ele>
        <time>2022-08-16T09:30:55Z</time>
      </trkpt>
      <trkpt lat="45.2306" lon="2.75559">
        <ele>1146.24</ele>
        <time>2022-08-16T09:30:56Z</time>
      </trkpt>
      <trkpt lat="45.23066" lon="2.75531">
        <ele>1143.84</ele>
        <time>2022-08-16T09:30:57Z</time>
      </trkpt>
      <trkpt lat="45.23076" lon="2.75504">
        <ele>1142.73</ele>
        <time>2022-08-16T09:30:58Z</time>
      </trkpt>
      <trkpt lat="45.23087" lon="2.75478">
        <ele>1141.39</ele>
        <time>2022-08-16T09:30:59Z</time>
      </trkpt>
      <trkpt lat="45.23101" lon="2.75454">
        <ele>1141.41</ele>
        <time>2022-08-16T09:31:00Z</time>
      </trkpt>
      <trkpt lat="45.23117" lon="2.75434">
        <ele>1139.26</ele>
        <time>2022-08-16T09:31:01Z</time>
      </trkpt>
      <trkpt lat="45.23136" lon="2.75417">
        <ele>1138.38</ele>
        <time>2022-08-16T09:31:02Z</time>
      </trkpt>
      <trkpt lat="45.23156" lon="2.75403">
        <ele>1138.24</ele>
        <time>2022-08-16T09:31:03Z</time>
      </trkpt>
      <trkpt lat="45.23391" lon="2.7525">
        <ele>1137.11</ele>
        <time>2022-08-16T09:31:14Z</time>
      </trkpt>
      <trkpt lat="45.23428" lon="2.7522">
        <ele>1137.11</ele>
        <time>2022-08-16T09:31:16Z</time>
      </trkpt>
      <trkpt lat="45.23445" lon="2.75202">
        <ele>1137.09</ele>
        <time>2022-08-16T09:31:17Z</time>
      </trkpt>
      <trkpt lat="45.2346" lon="2.75183">
        <ele>1137.11</ele>
        <time>2022-08-16T09:31:18Z</time>
      </trkpt>
      <trkpt lat="45.23473" lon="2.75162">
        <ele>1137.09</ele>
        <time>2022-08-16T09:31:19Z</time>
      </trkpt>
      <trkpt lat="45.23485" lon="2.75139">
        <ele>1137.13</ele>
        <time>2022-08-16T09:31:20Z</time>
      </trkpt>
      <trkpt lat="45.23496" lon="2.75115">
        <ele>1137.14</ele>
        <time>2022-08-16T09:31:21Z</time>
      </trkpt>
      <trkpt lat="45.23504" lon="2.7509">
        <ele>1137.18</ele>
        <time>2022-08-16T09:31:22Z</time>
      </trkpt>
      <trkpt lat="45.23512" lon="2.75063">
        <ele>1137.21</ele>
        <time>2022-08-16T09:31:23Z</time>
      </trkpt>
      <trkpt lat="45.23517" lon="2.75035">
        <ele>1137.21</ele>
        <time>2022-08-16T09:31:24Z</time>
      </trkpt>
      <trkpt lat="45.23521" lon="2.75007">
        <ele>1137.17</ele>
        <time>2022-08-16T09:31:25Z</time>
      </trkpt>
      <trkpt lat="45.23523" lon="2.74977">
        <ele>1137.14</ele>
        <time>2022-08-16T09:31:26Z</time>
      </trkpt>
      <trkpt lat="45.23522" lon="2.74947">
        <ele>1137.14</ele>
        <time>2022-08-16T09:31:27Z</time>
      </trkpt>
      <trkpt lat="45.2352" lon="2.74917">
        <ele>1137.18</ele>
        <time>2022-08-16T09:31:28Z</time>
      </trkpt>
      <trkpt lat="45.23517" lon="2.74886">
        <ele>1135.75</ele>
        <time>2022-08-16T09:31:29Z</time>
      </trkpt>
      <trkpt lat="45.23506" lon="2.74798">
        <ele>1131.46</ele>
        <time>2022-08-16T09:31:32Z</time>
      </trkpt>
      <trkpt lat="45.23504" lon="2.74742">
        <ele>1128.81</ele>
        <time>2022-08-16T09:31:34Z</time>
      </trkpt>
      <trkpt lat="45.23506" lon="2.74716">
        <ele>1126.92</ele>
        <time>2022-08-16T09:31:35Z</time>
      </trkpt>
      <trkpt lat="45.2351" lon="2.74689">
        <ele>1124.78</ele>
        <time>2022-08-16T09:31:36Z</time>
      </trkpt>
      <trkpt lat="45.23516" lon="2.74664">
        <ele>1122.32</ele>
        <time>2022-08-16T09:31:37Z</time>
      </trkpt>
      <trkpt lat="45.23524" lon="2.74639">
        <ele>1120.98</ele>
        <time>2022-08-16T09:31:38Z</time>
      </trkpt>
      <trkpt lat="45.23533" lon="2.74613">
        <ele>1119.37</ele>
        <time>2022-08-16T09:31:39Z</time>
      </trkpt>
      <trkpt lat="45.23544" lon="2.74588">
        <ele>1118.36</ele>
        <time>2022-08-16T09:31:40Z</time>
      </trkpt>
      <trkpt lat="45.23566" lon="2.74536">
        <ele>1114.87</ele>
        <time>2022-08-16T09:31:42Z</time>
      </trkpt>
      <trkpt lat="45.2359" lon="2.74482">
        <ele>1111.62</ele>
        <time>2022-08-16T09:31:44Z</time>
      </trkpt>
      <trkpt lat="45.23628" lon="2.74396">
        <ele>1107.23</ele>
        <time>2022-08-16T09:31:47Z</time>
      </trkpt>
      <trkpt lat="45.23666" lon="2.7431">
        <ele>1101.11</ele>
        <time>2022-08-16T09:31:50Z</time>
      </trkpt>
      <trkpt lat="45.2369" lon="2.74256">
        <ele>1096.08</ele>
        <time>2022-08-16T09:31:52Z</time>
      </trkpt>
      <trkpt lat="45.23712" lon="2.74205">
        <ele>1092.03</ele>
        <time>2022-08-16T09:31:54Z</time>
      </trkpt>
      <trkpt lat="45.23728" lon="2.74153">
        <ele>1088.46</ele>
        <time>2022-08-16T09:31:56Z</time>
      </trkpt>
      <trkpt lat="45.2374" lon="2.74102">
        <ele>1085.17</ele>
        <time>2022-08-16T09:31:58Z</time>
      </trkpt>
      <trkpt lat="45.23753" lon="2.74055">
        <ele>1081.73</ele>
        <time>2022-08-16T09:32:00Z</time>
      </trkpt>
      <trkpt lat="45.23763" lon="2.74035">
        <ele>1080.12</ele>
        <time>2022-08-16T09:32:01Z</time>
      </trkpt>
      <trkpt lat="45.23784" lon="2.73999">
        <ele>1077.3</ele>
        <time>2022-08-16T09:32:03Z</time>
      </trkpt>
      <trkpt lat="45.23792" lon="2.73979">
        <ele>1075.72</ele>
        <time>2022-08-16T09:32:04Z</time>
      </trkpt>
      <trkpt lat="45.23797" lon="2.73956">
        <ele>1075.66</ele>
        <time>2022-08-16T09:32:05Z</time>
      </trkpt>
      <trkpt lat="45.238" lon="2.73933">
        <ele>1074.35</ele>
        <time>2022-08-16T09:32:06Z</time>
      </trkpt>
      <trkpt lat="45.23801" lon="2.73909">
        <ele>1073.21</ele>
        <time>2022-08-16T09:32:07Z</time>
      </trkpt>
      <trkpt lat="45.23799" lon="2.73884">
        <ele>1073.21</ele>
        <time>2022-08-16T09:32:08Z</time>
      </trkpt>
      <trkpt lat="45.23796" lon="2.73861">
        <ele>1072.92</ele>
        <time>2022-08-16T09:32:09Z</time>
      </trkpt>
      <trkpt lat="45.23792" lon="2.73838">
        <ele>1073.08</ele>
        <time>2022-08-16T09:32:10Z</time>
      </trkpt>
      <trkpt lat="45.23784" lon="2.73795">
        <ele>1069.96</ele>
        <time>2022-08-16T09:32:12Z</time>
      </trkpt>
      <trkpt lat="45.2378" lon="2.73773">
        <ele>1069.99</ele>
        <time>2022-08-16T09:32:13Z</time>
      </trkpt>
      <trkpt lat="45.23769" lon="2.73734">
        <ele>1068.54</ele>
        <time>2022-08-16T09:32:15Z</time>
      </trkpt>
      <trkpt lat="45.23763" lon="2.73716">
        <ele>1067.7</ele>
        <time>2022-08-16T09:32:16Z</time>
      </trkpt>
      <trkpt lat="45.23754" lon="2.737">
        <ele>1067.78</ele>
        <time>2022-08-16T09:32:17Z</time>
      </trkpt>
      <trkpt lat="45.23744" lon="2.73685">
        <ele>1066.75</ele>
        <time>2022-08-16T09:32:18Z</time>
      </trkpt>
      <trkpt lat="45.23731" lon="2.73673">
        <ele>1065.59</ele>
        <time>2022-08-16T09:32:19Z</time>
      </trkpt>
      <trkpt lat="45.23717" lon="2.73663">
        <ele>1065.67</ele>
        <time>2022-08-16T09:32:20Z</time>
      </trkpt>
      <trkpt lat="45.23702" lon="2.73657">
        <ele>1065.09</ele>
        <time>2022-08-16T09:32:21Z</time>
      </trkpt>
      <trkpt lat="45.23685" lon="2.73652">
        <ele>1063.67</ele>
        <time>2022-08-16T09:32:22Z</time>
      </trkpt>
      <trkpt lat="45.23668" lon="2.73648">
        <ele>1062.61</ele>
        <time>2022-08-16T09:32:23Z</time>
      </trkpt>
      <trkpt lat="45.23614" lon="2.73632">
        <ele>1060.93</ele>
        <time>2022-08-16T09:32:26Z</time>
      </trkpt>
      <trkpt lat="45.23598" lon="2.7362">
        <ele>1058.68</ele>
        <time>2022-08-16T09:32:27Z</time>
      </trkpt>
      <trkpt lat="45.23583" lon="2.73605">
        <ele>1057.52</ele>
        <time>2022-08-16T09:32:28Z</time>
      </trkpt>
      <trkpt lat="45.23568" lon="2.73588">
        <ele>1056.1</ele>
        <time>2022-08-16T09:32:29Z</time>
      </trkpt>
      <trkpt lat="45.23555" lon="2.73571">
        <ele>1054.75</ele>
        <time>2022-08-16T09:32:30Z</time>
      </trkpt>
      <trkpt lat="45.23543" lon="2.73552">
        <ele>1053.07</ele>
        <time>2022-08-16T09:32:31Z</time>
      </trkpt>
      <trkpt lat="45.2352" lon="2.73516">
        <ele>1049.69</ele>
        <time>2022-08-16T09:32:33Z</time>
      </trkpt>
      <trkpt lat="45.235" lon="2.73482">
        <ele>1046.21</ele>
        <time>2022-08-16T09:32:35Z</time>
      </trkpt>
      <trkpt lat="45.23493" lon="2.73463">
        <ele>1044.83</ele>
        <time>2022-08-16T09:32:36Z</time>
      </trkpt>
      <trkpt lat="45.23487" lon="2.73444">
        <ele>1043.86</ele>
        <time>2022-08-16T09:32:37Z</time>
      </trkpt>
      <trkpt lat="45.23484" lon="2.73424">
        <ele>1042.6</ele>
        <time>2022-08-16T09:32:38Z</time>
      </trkpt>
      <trkpt lat="45.23482" lon="2.73403">
        <ele>1041.61</ele>
        <time>2022-08-16T09:32:39Z</time>
      </trkpt>
      <trkpt lat="45.23483" lon="2.73383">
        <ele>1040.05</ele>
        <time>2022-08-16T09:32:40Z</time>
      </trkpt>
      <trkpt lat="45.23485" lon="2.73362">
        <ele>1039.26</ele>
        <time>2022-08-16T09:32:41Z</time>
      </trkpt>
      <trkpt lat="45.23488" lon="2.73339">
        <ele>1039.25</ele>
        <time>2022-08-16T09:32:42Z</time>
      </trkpt>
      <trkpt lat="45.23499" lon="2.73266">
        <ele>1036.72</ele>
        <time>2022-08-16T09:32:45Z</time>
      </trkpt>
      <trkpt lat="45.23506" lon="2.73219">
        <ele>1033.04</ele>
        <time>2022-08-16T09:32:47Z</time>
      </trkpt>
      <trkpt lat="45.2351" lon="2.73149">
        <ele>1028.97</ele>
        <time>2022-08-16T09:32:50Z</time>
      </trkpt>
      <trkpt lat="45.23506" lon="2.73103">
        <ele>1025.93</ele>
        <time>2022-08-16T09:32:52Z</time>
      </trkpt>
      <trkpt lat="45.23499" lon="2.73055">
        <ele>1024.84</ele>
        <time>2022-08-16T09:32:54Z</time>
      </trkpt>
      <trkpt lat="45.2349" lon="2.73004">
        <ele>1021.82</ele>
        <time>2022-08-16T09:32:56Z</time>
      </trkpt>
      <trkpt lat="45.23485" lon="2.72953">
        <ele>1018.73</ele>
        <time>2022-08-16T09:32:58Z</time>
      </trkpt>
      <trkpt lat="45.23486" lon="2.72928">
        <ele>1016.98</ele>
        <time>2022-08-16T09:32:59Z</time>
      </trkpt>
      <trkpt lat="45.2349" lon="2.72904">
        <ele>1015.66</ele>
        <time>2022-08-16T09:33:00Z</time>
      </trkpt>
      <trkpt lat="45.23497" lon="2.72881">
        <ele>1014.46</ele>
        <time>2022-08-16T09:33:01Z</time>
      </trkpt>
      <trkpt lat="45.23505" lon="2.72858">
        <ele>1014.46</ele>
        <time>2022-08-16T09:33:02Z</time>
      </trkpt>
      <trkpt lat="45.23514" lon="2.72835">
        <ele>1012.49</ele>
        <time>2022-08-16T09:33:03Z</time>
      </trkpt>
      <trkpt lat="45.23525" lon="2.72812">
        <ele>1012.49</ele>
        <time>2022-08-16T09:33:04Z</time>
      </trkpt>
      <trkpt lat="45.23558" lon="2.72747">
        <ele>1009.38</ele>
        <time>2022-08-16T09:33:07Z</time>
      </trkpt>
      <trkpt lat="45.23571" lon="2.7273">
        <ele>1008.49</ele>
        <time>2022-08-16T09:33:08Z</time>
      </trkpt>
      <trkpt lat="45.23585" lon="2.72715">
        <ele>1007.58</ele>
        <time>2022-08-16T09:33:09Z</time>
      </trkpt>
      <trkpt lat="45.236" lon="2.72701">
        <ele>1007.65</ele>
        <time>2022-08-16T09:33:10Z</time>
      </trkpt>
      <trkpt lat="45.23631" lon="2.72671">
        <ele>1005.99</ele>
        <time>2022-08-16T09:33:12Z</time>
      </trkpt>
      <trkpt lat="45.23694" lon="2.72612">
        <ele>1003.97</ele>
        <time>2022-08-16T09:33:16Z</time>
      </trkpt>
      <trkpt lat="45.23761" lon="2.72549">
        <ele>1000.22</ele>
        <time>2022-08-16T09:33:20Z</time>
      </trkpt>
      <trkpt lat="45.23815" lon="2.72509">
        <ele>996.75</ele>
        <time>2022-08-16T09:33:23Z</time>
      </trkpt>
      <trkpt lat="45.23865" lon="2.72472">
        <ele>994.59</ele>
        <time>2022-08-16T09:33:26Z</time>
      </trkpt>
      <trkpt lat="45.2388" lon="2.72454">
        <ele>993.31</ele>
        <time>2022-08-16T09:33:27Z</time>
      </trkpt>
      <trkpt lat="45.23892" lon="2.72432">
        <ele>993.39</ele>
        <time>2022-08-16T09:33:28Z</time>
      </trkpt>
      <trkpt lat="45.23903" lon="2.72408">
        <ele>993.32</ele>
        <time>2022-08-16T09:33:29Z</time>
      </trkpt>
      <trkpt lat="45.23914" lon="2.72382">
        <ele>992.11</ele>
        <time>2022-08-16T09:33:30Z</time>
      </trkpt>
      <trkpt lat="45.23935" lon="2.72331">
        <ele>991.08</ele>
        <time>2022-08-16T09:33:32Z</time>
      </trkpt>
      <trkpt lat="45.23955" lon="2.72283">
        <ele>989.71</ele>
        <time>2022-08-16T09:33:34Z</time>
      </trkpt>
      <trkpt lat="45.23983" lon="2.72217">
        <ele>985.91</ele>
        <time>2022-08-16T09:33:37Z</time>
      </trkpt>
      <trkpt lat="45.23993" lon="2.72196">
        <ele>984.75</ele>
        <time>2022-08-16T09:33:38Z</time>
      </trkpt>
      <trkpt lat="45.24005" lon="2.72177">
        <ele>983.33</ele>
        <time>2022-08-16T09:33:39Z</time>
      </trkpt>
      <trkpt lat="45.2402" lon="2.72162">
        <ele>982.59</ele>
        <time>2022-08-16T09:33:40Z</time>
      </trkpt>
      <trkpt lat="45.24037" lon="2.7215">
        <ele>982.5</ele>
        <time>2022-08-16T09:33:41Z</time>
      </trkpt>
      <trkpt lat="45.24057" lon="2.72142">
        <ele>981.47</ele>
        <time>2022-08-16T09:33:42Z</time>
      </trkpt>
      <trkpt lat="45.24079" lon="2.72136">
        <ele>982.14</ele>
        <time>2022-08-16T09:33:43Z</time>
      </trkpt>
      <trkpt lat="45.24139" lon="2.72112">
        <ele>978.74</ele>
        <time>2022-08-16T09:33:46Z</time>
      </trkpt>
      <trkpt lat="45.24158" lon="2.72099">
        <ele>978.74</ele>
        <time>2022-08-16T09:33:47Z</time>
      </trkpt>
      <trkpt lat="45.24177" lon="2.72083">
        <ele>977.72</ele>
        <time>2022-08-16T09:33:48Z</time>
      </trkpt>
      <trkpt lat="45.24257" lon="2.72009">
        <ele>973.35</ele>
        <time>2022-08-16T09:33:52Z</time>
      </trkpt>
      <trkpt lat="45.24293" lon="2.71974">
        <ele>970.34</ele>
        <time>2022-08-16T09:33:54Z</time>
      </trkpt>
      <trkpt lat="45.24327" lon="2.71941">
        <ele>968.76</ele>
        <time>2022-08-16T09:33:56Z</time>
      </trkpt>
      <trkpt lat="45.24384" lon="2.71899">
        <ele>966.47</ele>
        <time>2022-08-16T09:33:59Z</time>
      </trkpt>
      <trkpt lat="45.24444" lon="2.7186">
        <ele>962.5</ele>
        <time>2022-08-16T09:34:02Z</time>
      </trkpt>
      <trkpt lat="45.24485" lon="2.71834">
        <ele>961.79</ele>
        <time>2022-08-16T09:34:04Z</time>
      </trkpt>
      <trkpt lat="45.24545" lon="2.7179">
        <ele>958.47</ele>
        <time>2022-08-16T09:34:07Z</time>
      </trkpt>
      <trkpt lat="45.24604" lon="2.7174">
        <ele>954.78</ele>
        <time>2022-08-16T09:34:10Z</time>
      </trkpt>
      <trkpt lat="45.24624" lon="2.71726">
        <ele>953.89</ele>
        <time>2022-08-16T09:34:11Z</time>
      </trkpt>
      <trkpt lat="45.24646" lon="2.71716">
        <ele>952.32</ele>
        <time>2022-08-16T09:34:12Z</time>
      </trkpt>
      <trkpt lat="45.24667" lon="2.71709">
        <ele>950.86</ele>
        <time>2022-08-16T09:34:13Z</time>
      </trkpt>
      <trkpt lat="45.24726" lon="2.71691">
        <ele>947.26</ele>
        <time>2022-08-16T09:34:16Z</time>
      </trkpt>
      <trkpt lat="45.24744" lon="2.71681">
        <ele>945.78</ele>
        <time>2022-08-16T09:34:17Z</time>
      </trkpt>
      <trkpt lat="45.24759" lon="2.71667">
        <ele>944.09</ele>
        <time>2022-08-16T09:34:18Z</time>
      </trkpt>
      <trkpt lat="45.24772" lon="2.7165">
        <ele>942.99</ele>
        <time>2022-08-16T09:34:19Z</time>
      </trkpt>
      <trkpt lat="45.24783" lon="2.71629">
        <ele>941.65</ele>
        <time>2022-08-16T09:34:20Z</time>
      </trkpt>
      <trkpt lat="45.24792" lon="2.71605">
        <ele>941.42</ele>
        <time>2022-08-16T09:34:21Z</time>
      </trkpt>
      <trkpt lat="45.248" lon="2.71581">
        <ele>939.76</ele>
        <time>2022-08-16T09:34:22Z</time>
      </trkpt>
      <trkpt lat="45.24807" lon="2.71555">
        <ele>938.6</ele>
        <time>2022-08-16T09:34:23Z</time>
      </trkpt>
      <trkpt lat="45.24828" lon="2.71474">
        <ele>934.58</ele>
        <time>2022-08-16T09:34:26Z</time>
      </trkpt>
      <trkpt lat="45.24842" lon="2.71421">
        <ele>931</ele>
        <time>2022-08-16T09:34:28Z</time>
      </trkpt>
      <trkpt lat="45.24851" lon="2.71368">
        <ele>927.78</ele>
        <time>2022-08-16T09:34:30Z</time>
      </trkpt>
      <trkpt lat="45.24851" lon="2.71341">
        <ele>925.52</ele>
        <time>2022-08-16T09:34:31Z</time>
      </trkpt>
      <trkpt lat="45.24847" lon="2.71313">
        <ele>925.51</ele>
        <time>2022-08-16T09:34:32Z</time>
      </trkpt>
      <trkpt lat="45.24835" lon="2.71254">
        <ele>921.68</ele>
        <time>2022-08-16T09:34:34Z</time>
      </trkpt>
      <trkpt lat="45.24829" lon="2.71223">
        <ele>921.75</ele>
        <time>2022-08-16T09:34:35Z</time>
      </trkpt>
      <trkpt lat="45.24823" lon="2.71193">
        <ele>918.25</ele>
        <time>2022-08-16T09:34:36Z</time>
      </trkpt>
      <trkpt lat="45.24811" lon="2.71135">
        <ele>914.46</ele>
        <time>2022-08-16T09:34:38Z</time>
      </trkpt>
      <trkpt lat="45.248" lon="2.71079">
        <ele>910.41</ele>
        <time>2022-08-16T09:34:40Z</time>
      </trkpt>
      <trkpt lat="45.24791" lon="2.71025">
        <ele>907.62</ele>
        <time>2022-08-16T09:34:42Z</time>
      </trkpt>
      <trkpt lat="45.24791" lon="2.70999">
        <ele>906.52</ele>
        <time>2022-08-16T09:34:43Z</time>
      </trkpt>
      <trkpt lat="45.24794" lon="2.70973">
        <ele>905.3</ele>
        <time>2022-08-16T09:34:44Z</time>
      </trkpt>
      <trkpt lat="45.24799" lon="2.70947">
        <ele>905.34</ele>
        <time>2022-08-16T09:34:45Z</time>
      </trkpt>
      <trkpt lat="45.24806" lon="2.7092">
        <ele>905.22</ele>
        <time>2022-08-16T09:34:46Z</time>
      </trkpt>
      <trkpt lat="45.24822" lon="2.70863">
        <ele>908.87</ele>
        <time>2022-08-16T09:34:48Z</time>
      </trkpt>
      <trkpt lat="45.2484" lon="2.70802">
        <ele>912.5</ele>
        <time>2022-08-16T09:34:50Z</time>
      </trkpt>
      <trkpt lat="45.24867" lon="2.7071">
        <ele>916.13</ele>
        <time>2022-08-16T09:34:53Z</time>
      </trkpt>
      <trkpt lat="45.24884" lon="2.70655">
        <ele>919.33</ele>
        <time>2022-08-16T09:34:55Z</time>
      </trkpt>
      <trkpt lat="45.24893" lon="2.7063">
        <ele>919.5</ele>
        <time>2022-08-16T09:34:56Z</time>
      </trkpt>
      <trkpt lat="45.24904" lon="2.70608">
        <ele>920.96</ele>
        <time>2022-08-16T09:34:57Z</time>
      </trkpt>
      <trkpt lat="45.24917" lon="2.70588">
        <ele>920.95</ele>
        <time>2022-08-16T09:34:58Z</time>
      </trkpt>
      <trkpt lat="45.24932" lon="2.70572">
        <ele>922.34</ele>
        <time>2022-08-16T09:34:59Z</time>
      </trkpt>
      <trkpt lat="45.2495" lon="2.7056">
        <ele>924.48</ele>
        <time>2022-08-16T09:35:00Z</time>
      </trkpt>
      <trkpt lat="45.24969" lon="2.70554">
        <ele>925.68</ele>
        <time>2022-08-16T09:35:01Z</time>
      </trkpt>
      <trkpt lat="45.24988" lon="2.70552">
        <ele>926.7</ele>
        <time>2022-08-16T09:35:02Z</time>
      </trkpt>
      <trkpt lat="45.25009" lon="2.70555">
        <ele>928.85</ele>
        <time>2022-08-16T09:35:03Z</time>
      </trkpt>
      <trkpt lat="45.25031" lon="2.70562">
        <ele>930.5</ele>
        <time>2022-08-16T09:35:04Z</time>
      </trkpt>
      <trkpt lat="45.25052" lon="2.70572">
        <ele>931.94</ele>
        <time>2022-08-16T09:35:05Z</time>
      </trkpt>
      <trkpt lat="45.25074" lon="2.70583">
        <ele>933.22</ele>
        <time>2022-08-16T09:35:06Z</time>
      </trkpt>
      <trkpt lat="45.2512" lon="2.70607">
        <ele>936.67</ele>
        <time>2022-08-16T09:35:08Z</time>
      </trkpt>
      <trkpt lat="45.25167" lon="2.70633">
        <ele>937.96</ele>
        <time>2022-08-16T09:35:10Z</time>
      </trkpt>
      <trkpt lat="45.2523" lon="2.70667">
        <ele>940.56</ele>
        <time>2022-08-16T09:35:13Z</time>
      </trkpt>
      <trkpt lat="45.25294" lon="2.70687">
        <ele>943.95</ele>
        <time>2022-08-16T09:35:16Z</time>
      </trkpt>
      <trkpt lat="45.25316" lon="2.70687">
        <ele>945.66</ele>
        <time>2022-08-16T09:35:17Z</time>
      </trkpt>
      <trkpt lat="45.25338" lon="2.70682">
        <ele>946.82</ele>
        <time>2022-08-16T09:35:18Z</time>
      </trkpt>
      <trkpt lat="45.25362" lon="2.70672">
        <ele>948.52</ele>
        <time>2022-08-16T09:35:19Z</time>
      </trkpt>
      <trkpt lat="45.25385" lon="2.70659">
        <ele>950.27</ele>
        <time>2022-08-16T09:35:20Z</time>
      </trkpt>
      <trkpt lat="45.25453" lon="2.70618">
        <ele>954.4</ele>
        <time>2022-08-16T09:35:23Z</time>
      </trkpt>
      <trkpt lat="45.25494" lon="2.70589">
        <ele>955.06</ele>
        <time>2022-08-16T09:35:25Z</time>
      </trkpt>
      <trkpt lat="45.25512" lon="2.70571">
        <ele>955.05</ele>
        <time>2022-08-16T09:35:26Z</time>
      </trkpt>
      <trkpt lat="45.25528" lon="2.70549">
        <ele>955.14</ele>
        <time>2022-08-16T09:35:27Z</time>
      </trkpt>
      <trkpt lat="45.2554" lon="2.70523">
        <ele>956.46</ele>
        <time>2022-08-16T09:35:28Z</time>
      </trkpt>
      <trkpt lat="45.25548" lon="2.70497">
        <ele>956.56</ele>
        <time>2022-08-16T09:35:29Z</time>
      </trkpt>
      <trkpt lat="45.25553" lon="2.70469">
        <ele>956.55</ele>
        <time>2022-08-16T09:35:30Z</time>
      </trkpt>
      <trkpt lat="45.25554" lon="2.70443">
        <ele>957.5</ele>
        <time>2022-08-16T09:35:31Z</time>
      </trkpt>
      <trkpt lat="45.25552" lon="2.70419">
        <ele>957.57</ele>
        <time>2022-08-16T09:35:32Z</time>
      </trkpt>
      <trkpt lat="45.25547" lon="2.70395">
        <ele>957.59</ele>
        <time>2022-08-16T09:35:33Z</time>
      </trkpt>
      <trkpt lat="45.25542" lon="2.70372">
        <ele>958.32</ele>
        <time>2022-08-16T09:35:34Z</time>
      </trkpt>
      <trkpt lat="45.25529" lon="2.70303">
        <ele>960.64</ele>
        <time>2022-08-16T09:35:37Z</time>
      </trkpt>
      <trkpt lat="45.25528" lon="2.70279">
        <ele>961.39</ele>
        <time>2022-08-16T09:35:38Z</time>
      </trkpt>
      <trkpt lat="45.2553" lon="2.70256">
        <ele>961.4</ele>
        <time>2022-08-16T09:35:39Z</time>
      </trkpt>
      <trkpt lat="45.25535" lon="2.70233">
        <ele>961.38</ele>
        <time>2022-08-16T09:35:40Z</time>
      </trkpt>
      <trkpt lat="45.25541" lon="2.70211">
        <ele>962.21</ele>
        <time>2022-08-16T09:35:41Z</time>
      </trkpt>
      <trkpt lat="45.2555" lon="2.70191">
        <ele>962.22</ele>
        <time>2022-08-16T09:35:42Z</time>
      </trkpt>
      <trkpt lat="45.25561" lon="2.70172">
        <ele>963.74</ele>
        <time>2022-08-16T09:35:43Z</time>
      </trkpt>
      <trkpt lat="45.25573" lon="2.70155">
        <ele>964.71</ele>
        <time>2022-08-16T09:35:44Z</time>
      </trkpt>
      <trkpt lat="45.25587" lon="2.70138">
        <ele>966.06</ele>
        <time>2022-08-16T09:35:45Z</time>
      </trkpt>
      <trkpt lat="45.25629" lon="2.70086">
        <ele>969.73</ele>
        <time>2022-08-16T09:35:48Z</time>
      </trkpt>
      <trkpt lat="45.2567" lon="2.70025">
        <ele>971.98</ele>
        <time>2022-08-16T09:35:51Z</time>
      </trkpt>
      <trkpt lat="45.25695" lon="2.69978">
        <ele>973.32</ele>
        <time>2022-08-16T09:35:53Z</time>
      </trkpt>
      <trkpt lat="45.25721" lon="2.69931">
        <ele>974.9</ele>
        <time>2022-08-16T09:35:55Z</time>
      </trkpt>
      <trkpt lat="45.25748" lon="2.69883">
        <ele>976.27</ele>
        <time>2022-08-16T09:35:57Z</time>
      </trkpt>
      <trkpt lat="45.25815" lon="2.6976">
        <ele>978.33</ele>
        <time>2022-08-16T09:36:02Z</time>
      </trkpt>
      <trkpt lat="45.25886" lon="2.69598">
        <ele>978.24</ele>
        <time>2022-08-16T09:36:09Z</time>
      </trkpt>
      <trkpt lat="45.25922" lon="2.69484">
        <ele>981.65</ele>
        <time>2022-08-16T09:36:13Z</time>
      </trkpt>
      <trkpt lat="45.25932" lon="2.69455">
        <ele>981.62</ele>
        <time>2022-08-16T09:36:14Z</time>
      </trkpt>
      <trkpt lat="45.25971" lon="2.69335">
        <ele>983.1</ele>
        <time>2022-08-16T09:36:18Z</time>
      </trkpt>
      <trkpt lat="45.26015" lon="2.69221">
        <ele>985.1</ele>
        <time>2022-08-16T09:36:22Z</time>
      </trkpt>
      <trkpt lat="45.26031" lon="2.69197">
        <ele>986.24</ele>
        <time>2022-08-16T09:36:23Z</time>
      </trkpt>
      <trkpt lat="45.26081" lon="2.69133">
        <ele>989.55</ele>
        <time>2022-08-16T09:36:26Z</time>
      </trkpt>
      <trkpt lat="45.26114" lon="2.69089">
        <ele>990.4</ele>
        <time>2022-08-16T09:36:28Z</time>
      </trkpt>
      <trkpt lat="45.26144" lon="2.6904">
        <ele>992.34</ele>
        <time>2022-08-16T09:36:30Z</time>
      </trkpt>
      <trkpt lat="45.26158" lon="2.69013">
        <ele>992.33</ele>
        <time>2022-08-16T09:36:31Z</time>
      </trkpt>
      <trkpt lat="45.26233" lon="2.68846">
        <ele>995.51</ele>
        <time>2022-08-16T09:36:37Z</time>
      </trkpt>
      <trkpt lat="45.26245" lon="2.68818">
        <ele>995.45</ele>
        <time>2022-08-16T09:36:38Z</time>
      </trkpt>
      <trkpt lat="45.26342" lon="2.6861">
        <ele>997.73</ele>
        <time>2022-08-16T09:36:47Z</time>
      </trkpt>
      <trkpt lat="45.26354" lon="2.68591">
        <ele>997.74</ele>
        <time>2022-08-16T09:36:48Z</time>
      </trkpt>
      <trkpt lat="45.26394" lon="2.68535">
        <ele>999.01</ele>
        <time>2022-08-16T09:36:51Z</time>
      </trkpt>
      <trkpt lat="45.2642" lon="2.68496">
        <ele>1000.5</ele>
        <time>2022-08-16T09:36:53Z</time>
      </trkpt>
      <trkpt lat="45.26442" lon="2.68453">
        <ele>1000.45</ele>
        <time>2022-08-16T09:36:55Z</time>
      </trkpt>
      <trkpt lat="45.26452" lon="2.68429">
        <ele>1000.42</ele>
        <time>2022-08-16T09:36:56Z</time>
      </trkpt>
      <trkpt lat="45.26592" lon="2.68039">
        <ele>1000.27</ele>
        <time>2022-08-16T09:37:11Z</time>
      </trkpt>
      <trkpt lat="45.26599" lon="2.6801">
        <ele>1000.26</ele>
        <time>2022-08-16T09:37:12Z</time>
      </trkpt>
      <trkpt lat="45.26623" lon="2.6787">
        <ele>997.56</ele>
        <time>2022-08-16T09:37:17Z</time>
      </trkpt>
      <trkpt lat="45.26635" lon="2.67796">
        <ele>995.58</ele>
        <time>2022-08-16T09:37:20Z</time>
      </trkpt>
      <trkpt lat="45.26641" lon="2.67718">
        <ele>992.58</ele>
        <time>2022-08-16T09:37:23Z</time>
      </trkpt>
      <trkpt lat="45.26639" lon="2.67692">
        <ele>991.33</ele>
        <time>2022-08-16T09:37:24Z</time>
      </trkpt>
      <trkpt lat="45.26633" lon="2.67666">
        <ele>989.95</ele>
        <time>2022-08-16T09:37:25Z</time>
      </trkpt>
      <trkpt lat="45.26624" lon="2.67641">
        <ele>988.23</ele>
        <time>2022-08-16T09:37:26Z</time>
      </trkpt>
      <trkpt lat="45.26612" lon="2.6762">
        <ele>986.76</ele>
        <time>2022-08-16T09:37:27Z</time>
      </trkpt>
      <trkpt lat="45.26598" lon="2.67601">
        <ele>985.01</ele>
        <time>2022-08-16T09:37:28Z</time>
      </trkpt>
      <trkpt lat="45.26582" lon="2.67586">
        <ele>982.13</ele>
        <time>2022-08-16T09:37:29Z</time>
      </trkpt>
      <trkpt lat="45.26565" lon="2.67573">
        <ele>982.01</ele>
        <time>2022-08-16T09:37:30Z</time>
      </trkpt>
      <trkpt lat="45.26549" lon="2.67561">
        <ele>981.04</ele>
        <time>2022-08-16T09:37:31Z</time>
      </trkpt>
      <trkpt lat="45.265" lon="2.67527">
        <ele>975.09</ele>
        <time>2022-08-16T09:37:34Z</time>
      </trkpt>
      <trkpt lat="45.26486" lon="2.67513">
        <ele>974.95</ele>
        <time>2022-08-16T09:37:35Z</time>
      </trkpt>
      <trkpt lat="45.26474" lon="2.67497">
        <ele>973.98</ele>
        <time>2022-08-16T09:37:36Z</time>
      </trkpt>
      <trkpt lat="45.26463" lon="2.67479">
        <ele>972.45</ele>
        <time>2022-08-16T09:37:37Z</time>
      </trkpt>
      <trkpt lat="45.26455" lon="2.67459">
        <ele>971.63</ele>
        <time>2022-08-16T09:37:38Z</time>
      </trkpt>
      <trkpt lat="45.2645" lon="2.67437">
        <ele>971.36</ele>
        <time>2022-08-16T09:37:39Z</time>
      </trkpt>
      <trkpt lat="45.26446" lon="2.67414">
        <ele>969.84</ele>
        <time>2022-08-16T09:37:40Z</time>
      </trkpt>
      <trkpt lat="45.26445" lon="2.6739">
        <ele>968.63</ele>
        <time>2022-08-16T09:37:41Z</time>
      </trkpt>
      <trkpt lat="45.26446" lon="2.67365">
        <ele>968.63</ele>
        <time>2022-08-16T09:37:42Z</time>
      </trkpt>
      <trkpt lat="45.26448" lon="2.67339">
        <ele>966.82</ele>
        <time>2022-08-16T09:37:43Z</time>
      </trkpt>
      <trkpt lat="45.26451" lon="2.67314">
        <ele>966.93</ele>
        <time>2022-08-16T09:37:44Z</time>
      </trkpt>
      <trkpt lat="45.26463" lon="2.6724">
        <ele>963.02</ele>
        <time>2022-08-16T09:37:47Z</time>
      </trkpt>
      <trkpt lat="45.26471" lon="2.67218">
        <ele>962.23</ele>
        <time>2022-08-16T09:37:48Z</time>
      </trkpt>
      <trkpt lat="45.26481" lon="2.67199">
        <ele>961</ele>
        <time>2022-08-16T09:37:49Z</time>
      </trkpt>
      <trkpt lat="45.26493" lon="2.67181">
        <ele>959.86</ele>
        <time>2022-08-16T09:37:50Z</time>
      </trkpt>
      <trkpt lat="45.26506" lon="2.67166">
        <ele>958.8</ele>
        <time>2022-08-16T09:37:51Z</time>
      </trkpt>
      <trkpt lat="45.26521" lon="2.67153">
        <ele>957.97</ele>
        <time>2022-08-16T09:37:52Z</time>
      </trkpt>
      <trkpt lat="45.26538" lon="2.6714">
        <ele>956.61</ele>
        <time>2022-08-16T09:37:53Z</time>
      </trkpt>
      <trkpt lat="45.26554" lon="2.67128">
        <ele>956.56</ele>
        <time>2022-08-16T09:37:54Z</time>
      </trkpt>
      <trkpt lat="45.26605" lon="2.67093">
        <ele>953.54</ele>
        <time>2022-08-16T09:37:57Z</time>
      </trkpt>
      <trkpt lat="45.26657" lon="2.67057">
        <ele>949.81</ele>
        <time>2022-08-16T09:38:00Z</time>
      </trkpt>
      <trkpt lat="45.26706" lon="2.67013">
        <ele>947.48</ele>
        <time>2022-08-16T09:38:03Z</time>
      </trkpt>
      <trkpt lat="45.26755" lon="2.66966">
        <ele>943.42</ele>
        <time>2022-08-16T09:38:06Z</time>
      </trkpt>
      <trkpt lat="45.26804" lon="2.66919">
        <ele>939.77</ele>
        <time>2022-08-16T09:38:09Z</time>
      </trkpt>
      <trkpt lat="45.26853" lon="2.6687">
        <ele>935.4</ele>
        <time>2022-08-16T09:38:12Z</time>
      </trkpt>
      <trkpt lat="45.26868" lon="2.66852">
        <ele>934.57</ele>
        <time>2022-08-16T09:38:13Z</time>
      </trkpt>
      <trkpt lat="45.26882" lon="2.66831">
        <ele>933.03</ele>
        <time>2022-08-16T09:38:14Z</time>
      </trkpt>
      <trkpt lat="45.26894" lon="2.66809">
        <ele>931.83</ele>
        <time>2022-08-16T09:38:15Z</time>
      </trkpt>
      <trkpt lat="45.26904" lon="2.66785">
        <ele>930.29</ele>
        <time>2022-08-16T09:38:16Z</time>
      </trkpt>
      <trkpt lat="45.26913" lon="2.66761">
        <ele>928.56</ele>
        <time>2022-08-16T09:38:17Z</time>
      </trkpt>
      <trkpt lat="45.2692" lon="2.66736">
        <ele>927.12</ele>
        <time>2022-08-16T09:38:18Z</time>
      </trkpt>
      <trkpt lat="45.26934" lon="2.66687">
        <ele>925.86</ele>
        <time>2022-08-16T09:38:20Z</time>
      </trkpt>
      <trkpt lat="45.26952" lon="2.66644">
        <ele>922.28</ele>
        <time>2022-08-16T09:38:22Z</time>
      </trkpt>
      <trkpt lat="45.26963" lon="2.66626">
        <ele>920.76</ele>
        <time>2022-08-16T09:38:23Z</time>
      </trkpt>
      <trkpt lat="45.26976" lon="2.6661">
        <ele>919.8</ele>
        <time>2022-08-16T09:38:24Z</time>
      </trkpt>
      <trkpt lat="45.26989" lon="2.66597">
        <ele>918.04</ele>
        <time>2022-08-16T09:38:25Z</time>
      </trkpt>
      <trkpt lat="45.27004" lon="2.66587">
        <ele>917.02</ele>
        <time>2022-08-16T09:38:26Z</time>
      </trkpt>
      <trkpt lat="45.27019" lon="2.6658">
        <ele>915.79</ele>
        <time>2022-08-16T09:38:27Z</time>
      </trkpt>
      <trkpt lat="45.27034" lon="2.66576">
        <ele>915.06</ele>
        <time>2022-08-16T09:38:28Z</time>
      </trkpt>
      <trkpt lat="45.2705" lon="2.66575">
        <ele>914.93</ele>
        <time>2022-08-16T09:38:29Z</time>
      </trkpt>
      <trkpt lat="45.27068" lon="2.66575">
        <ele>913.69</ele>
        <time>2022-08-16T09:38:30Z</time>
      </trkpt>
      <trkpt lat="45.27085" lon="2.66574">
        <ele>913.8</ele>
        <time>2022-08-16T09:38:31Z</time>
      </trkpt>
      <trkpt lat="45.27136" lon="2.66574">
        <ele>909.46</ele>
        <time>2022-08-16T09:38:34Z</time>
      </trkpt>
      <trkpt lat="45.27152" lon="2.66576">
        <ele>909.39</ele>
        <time>2022-08-16T09:38:35Z</time>
      </trkpt>
      <trkpt lat="45.27183" lon="2.66585">
        <ele>905.84</ele>
        <time>2022-08-16T09:38:37Z</time>
      </trkpt>
      <trkpt lat="45.27198" lon="2.66594">
        <ele>905.8</ele>
        <time>2022-08-16T09:38:38Z</time>
      </trkpt>
      <trkpt lat="45.27241" lon="2.66624">
        <ele>902.55</ele>
        <time>2022-08-16T09:38:41Z</time>
      </trkpt>
      <trkpt lat="45.27269" lon="2.6664">
        <ele>901.69</ele>
        <time>2022-08-16T09:38:43Z</time>
      </trkpt>
      <trkpt lat="45.27284" lon="2.66645">
        <ele>899.96</ele>
        <time>2022-08-16T09:38:44Z</time>
      </trkpt>
      <trkpt lat="45.27299" lon="2.66647">
        <ele>898.8</ele>
        <time>2022-08-16T09:38:45Z</time>
      </trkpt>
      <trkpt lat="45.27313" lon="2.66646">
        <ele>897.95</ele>
        <time>2022-08-16T09:38:46Z</time>
      </trkpt>
      <trkpt lat="45.27341" lon="2.66642">
        <ele>894.71</ele>
        <time>2022-08-16T09:38:48Z</time>
      </trkpt>
      <trkpt lat="45.27355" lon="2.6664">
        <ele>894.61</ele>
        <time>2022-08-16T09:38:49Z</time>
      </trkpt>
      <trkpt lat="45.27399" lon="2.66639">
        <ele>892.46</ele>
        <time>2022-08-16T09:38:52Z</time>
      </trkpt>
      <trkpt lat="45.27413" lon="2.66641">
        <ele>891.46</ele>
        <time>2022-08-16T09:38:53Z</time>
      </trkpt>
      <trkpt lat="45.27428" lon="2.66647">
        <ele>891.36</ele>
        <time>2022-08-16T09:38:54Z</time>
      </trkpt>
      <trkpt lat="45.27441" lon="2.66655">
        <ele>890.11</ele>
        <time>2022-08-16T09:38:55Z</time>
      </trkpt>
      <trkpt lat="45.27454" lon="2.66665">
        <ele>890.02</ele>
        <time>2022-08-16T09:38:56Z</time>
      </trkpt>
      <trkpt lat="45.27467" lon="2.66678">
        <ele>888.68</ele>
        <time>2022-08-16T09:38:57Z</time>
      </trkpt>
      <trkpt lat="45.27478" lon="2.66693">
        <ele>888.62</ele>
        <time>2022-08-16T09:38:58Z</time>
      </trkpt>
      <trkpt lat="45.27488" lon="2.6671">
        <ele>886.99</ele>
        <time>2022-08-16T09:38:59Z</time>
      </trkpt>
      <trkpt lat="45.27496" lon="2.66729">
        <ele>886.82</ele>
        <time>2022-08-16T09:39:00Z</time>
      </trkpt>
      <trkpt lat="45.27504" lon="2.66749">
        <ele>884.61</ele>
        <time>2022-08-16T09:39:01Z</time>
      </trkpt>
      <trkpt lat="45.2752" lon="2.66789">
        <ele>883.43</ele>
        <time>2022-08-16T09:39:03Z</time>
      </trkpt>
      <trkpt lat="45.27529" lon="2.66808">
        <ele>882.18</ele>
        <time>2022-08-16T09:39:04Z</time>
      </trkpt>
      <trkpt lat="45.2754" lon="2.66824">
        <ele>880.73</ele>
        <time>2022-08-16T09:39:05Z</time>
      </trkpt>
      <trkpt lat="45.27552" lon="2.66837">
        <ele>879.95</ele>
        <time>2022-08-16T09:39:06Z</time>
      </trkpt>
      <trkpt lat="45.27565" lon="2.66847">
        <ele>878.06</ele>
        <time>2022-08-16T09:39:07Z</time>
      </trkpt>
      <trkpt lat="45.2758" lon="2.66853">
        <ele>877.09</ele>
        <time>2022-08-16T09:39:08Z</time>
      </trkpt>
      <trkpt lat="45.27595" lon="2.66855">
        <ele>875.71</ele>
        <time>2022-08-16T09:39:09Z</time>
      </trkpt>
      <trkpt lat="45.27611" lon="2.66854">
        <ele>874.54</ele>
        <time>2022-08-16T09:39:10Z</time>
      </trkpt>
      <trkpt lat="45.27626" lon="2.6685">
        <ele>873.28</ele>
        <time>2022-08-16T09:39:11Z</time>
      </trkpt>
      <trkpt lat="45.27675" lon="2.66839">
        <ele>869.71</ele>
        <time>2022-08-16T09:39:14Z</time>
      </trkpt>
      <trkpt lat="45.27692" lon="2.66833">
        <ele>869.55</ele>
        <time>2022-08-16T09:39:15Z</time>
      </trkpt>
      <trkpt lat="45.27708" lon="2.66824">
        <ele>869.55</ele>
        <time>2022-08-16T09:39:16Z</time>
      </trkpt>
      <trkpt lat="45.27724" lon="2.66814">
        <ele>868.06</ele>
        <time>2022-08-16T09:39:17Z</time>
      </trkpt>
      <trkpt lat="45.2777" lon="2.6678">
        <ele>865.87</ele>
        <time>2022-08-16T09:39:20Z</time>
      </trkpt>
      <trkpt lat="45.27814" lon="2.66752">
        <ele>862.02</ele>
        <time>2022-08-16T09:39:23Z</time>
      </trkpt>
      <trkpt lat="45.27843" lon="2.66736">
        <ele>858.87</ele>
        <time>2022-08-16T09:39:25Z</time>
      </trkpt>
      <trkpt lat="45.27869" lon="2.66717">
        <ele>855.68</ele>
        <time>2022-08-16T09:39:27Z</time>
      </trkpt>
      <trkpt lat="45.27879" lon="2.66705">
        <ele>854.32</ele>
        <time>2022-08-16T09:39:28Z</time>
      </trkpt>
      <trkpt lat="45.27887" lon="2.66691">
        <ele>853.49</ele>
        <time>2022-08-16T09:39:29Z</time>
      </trkpt>
      <trkpt lat="45.27894" lon="2.66676">
        <ele>852.42</ele>
        <time>2022-08-16T09:39:30Z</time>
      </trkpt>
      <trkpt lat="45.279" lon="2.6666">
        <ele>851.39</ele>
        <time>2022-08-16T09:39:31Z</time>
      </trkpt>
      <trkpt lat="45.27918" lon="2.66618">
        <ele>848.94</ele>
        <time>2022-08-16T09:39:34Z</time>
      </trkpt>
      <trkpt lat="45.27934" lon="2.66578">
        <ele>846.68</ele>
        <time>2022-08-16T09:39:37Z</time>
      </trkpt>
      <trkpt lat="45.27947" lon="2.66545">
        <ele>845.33</ele>
        <time>2022-08-16T09:39:40Z</time>
      </trkpt>
      <trkpt lat="45.27955" lon="2.66523">
        <ele>843.66</ele>
        <time>2022-08-16T09:39:43Z</time>
      </trkpt>
      <trkpt lat="45.27956" lon="2.66517">
        <ele>843.74</ele>
        <time>2022-08-16T09:39:44Z</time>
      </trkpt>
      <trkpt lat="45.27959" lon="2.66503">
        <ele>842.51</ele>
        <time>2022-08-16T09:39:47Z</time>
      </trkpt>
      <trkpt lat="45.27965" lon="2.66457">
        <ele>841.75</ele>
        <time>2022-08-16T09:40:03Z</time>
      </trkpt>
      <trkpt lat="45.27976" lon="2.66446">
        <ele>841.07</ele>
        <time>2022-08-16T09:40:08Z</time>
      </trkpt>
      <trkpt lat="45.27981" lon="2.66445">
        <ele>841.07</ele>
        <time>2022-08-16T09:40:09Z</time>
      </trkpt>
      <trkpt lat="45.27994" lon="2.66442">
        <ele>841.06</ele>
        <time>2022-08-16T09:40:11Z</time>
      </trkpt>
      <trkpt lat="45.27999" lon="2.66438">
        <ele>841.05</ele>
        <time>2022-08-16T09:40:12Z</time>
      </trkpt>
      <trkpt lat="45.28004" lon="2.66432">
        <ele>841.04</ele>
        <time>2022-08-16T09:40:13Z</time>
      </trkpt>
      <trkpt lat="45.28006" lon="2.66423">
        <ele>841.04</ele>
        <time>2022-08-16T09:40:14Z</time>
      </trkpt>
      <trkpt lat="45.28006" lon="2.66413">
        <ele>841.04</ele>
        <time>2022-08-16T09:40:15Z</time>
      </trkpt>
      <trkpt lat="45.28005" lon="2.66403">
        <ele>841.03</ele>
        <time>2022-08-16T09:40:16Z</time>
      </trkpt>
      <trkpt lat="45.28002" lon="2.66297">
        <ele>841.07</ele>
        <time>2022-08-16T09:40:25Z</time>
      </trkpt>
      <trkpt lat="45.28002" lon="2.66179">
        <ele>843.33</ele>
        <time>2022-08-16T09:40:34Z</time>
      </trkpt>
      <trkpt lat="45.28006" lon="2.66118">
        <ele>844.18</ele>
        <time>2022-08-16T09:40:39Z</time>
      </trkpt>
      <trkpt lat="45.28009" lon="2.66109">
        <ele>844.19</ele>
        <time>2022-08-16T09:40:40Z</time>
      </trkpt>
      <trkpt lat="45.28014" lon="2.661">
        <ele>845</ele>
        <time>2022-08-16T09:40:41Z</time>
      </trkpt>
      <trkpt lat="45.2802" lon="2.66092">
        <ele>844.99</ele>
        <time>2022-08-16T09:40:42Z</time>
      </trkpt>
      <trkpt lat="45.28027" lon="2.66084">
        <ele>845.02</ele>
        <time>2022-08-16T09:40:43Z</time>
      </trkpt>
      <trkpt lat="45.28089" lon="2.66009">
        <ele>846.79</ele>
        <time>2022-08-16T09:40:54Z</time>
      </trkpt>
      <trkpt lat="45.28095" lon="2.66004">
        <ele>846.53</ele>
        <time>2022-08-16T09:40:55Z</time>
      </trkpt>
      <trkpt lat="45.28104" lon="2.65998">
        <ele>846.54</ele>
        <time>2022-08-16T09:40:57Z</time>
      </trkpt>
      <trkpt lat="45.28106" lon="2.65995">
        <ele>846.53</ele>
        <time>2022-08-16T09:40:58Z</time>
      </trkpt>
      <trkpt lat="45.2811" lon="2.65992">
        <ele>846.52</ele>
        <time>2022-08-16T09:41:01Z</time>
      </trkpt>
      <trkpt lat="45.28114" lon="2.65992">
        <ele>846.52</ele>
        <time>2022-08-16T09:41:02Z</time>
      </trkpt>
      <trkpt lat="45.28118" lon="2.65991">
        <ele>846.51</ele>
        <time>2022-08-16T09:41:03Z</time>
      </trkpt>
      <trkpt lat="45.28122" lon="2.65991">
        <ele>846.51</ele>
        <time>2022-08-16T09:41:04Z</time>
      </trkpt>
      <trkpt lat="45.28127" lon="2.65991">
        <ele>846.5</ele>
        <time>2022-08-16T09:41:05Z</time>
      </trkpt>
      <trkpt lat="45.28132" lon="2.6599">
        <ele>846.5</ele>
        <time>2022-08-16T09:41:06Z</time>
      </trkpt>
      <trkpt lat="45.28136" lon="2.65989">
        <ele>846.49</ele>
        <time>2022-08-16T09:41:07Z</time>
      </trkpt>
      <trkpt lat="45.2814" lon="2.65987">
        <ele>846.47</ele>
        <time>2022-08-16T09:41:08Z</time>
      </trkpt>
      <trkpt lat="45.28145" lon="2.65985">
        <ele>846.46</ele>
        <time>2022-08-16T09:41:09Z</time>
      </trkpt>
      <trkpt lat="45.28149" lon="2.65981">
        <ele>846.47</ele>
        <time>2022-08-16T09:41:10Z</time>
      </trkpt>
      <trkpt lat="45.28153" lon="2.65977">
        <ele>846.44</ele>
        <time>2022-08-16T09:41:11Z</time>
      </trkpt>
      <trkpt lat="45.28156" lon="2.65972">
        <ele>846.42</ele>
        <time>2022-08-16T09:41:12Z</time>
      </trkpt>
      <trkpt lat="45.28159" lon="2.65968">
        <ele>846.41</ele>
        <time>2022-08-16T09:41:13Z</time>
      </trkpt>
      <trkpt lat="45.28163" lon="2.65964">
        <ele>846.4</ele>
        <time>2022-08-16T09:41:14Z</time>
      </trkpt>
      <trkpt lat="45.28172" lon="2.65953">
        <ele>846.43</ele>
        <time>2022-08-16T09:41:17Z</time>
      </trkpt>
      <trkpt lat="45.28175" lon="2.6595">
        <ele>846.4</ele>
        <time>2022-08-16T09:41:18Z</time>
      </trkpt>
      <trkpt lat="45.28177" lon="2.65947">
        <ele>846.42</ele>
        <time>2022-08-16T09:41:19Z</time>
      </trkpt>
      <trkpt lat="45.28179" lon="2.65944">
        <ele>846.38</ele>
        <time>2022-08-16T09:41:20Z</time>
      </trkpt>
      <trkpt lat="45.28182" lon="2.65943">
        <ele>846.37</ele>
        <time>2022-08-16T09:41:21Z</time>
      </trkpt>
      <trkpt lat="45.28185" lon="2.65941">
        <ele>846.33</ele>
        <time>2022-08-16T09:41:22Z</time>
      </trkpt>
      <trkpt lat="45.28188" lon="2.6594">
        <ele>846.35</ele>
        <time>2022-08-16T09:41:23Z</time>
      </trkpt>
      <trkpt lat="45.2822" lon="2.65925">
        <ele>846.25</ele>
        <time>2022-08-16T09:41:35Z</time>
      </trkpt>
      <trkpt lat="45.28249" lon="2.65911">
        <ele>846.16</ele>
        <time>2022-08-16T09:41:45Z</time>
      </trkpt>
      <trkpt lat="45.2826" lon="2.65905">
        <ele>846.14</ele>
        <time>2022-08-16T09:41:48Z</time>
      </trkpt>
      <trkpt lat="45.28264" lon="2.65904">
        <ele>846.16</ele>
        <time>2022-08-16T09:41:49Z</time>
      </trkpt>
      <trkpt lat="45.28267" lon="2.65903">
        <ele>846.12</ele>
        <time>2022-08-16T09:41:50Z</time>
      </trkpt>
      <trkpt lat="45.28271" lon="2.65905">
        <ele>846.09</ele>
        <time>2022-08-16T09:41:51Z</time>
      </trkpt>
      <trkpt lat="45.28275" lon="2.65907">
        <ele>846.1</ele>
        <time>2022-08-16T09:41:52Z</time>
      </trkpt>
      <trkpt lat="45.28279" lon="2.65909">
        <ele>846.09</ele>
        <time>2022-08-16T09:41:53Z</time>
      </trkpt>
      <trkpt lat="45.28283" lon="2.6591">
        <ele>846.06</ele>
        <time>2022-08-16T09:41:54Z</time>
      </trkpt>
      <trkpt lat="45.28287" lon="2.6591">
        <ele>846.06</ele>
        <time>2022-08-16T09:41:55Z</time>
      </trkpt>
      <trkpt lat="45.28293" lon="2.65908">
        <ele>846.05</ele>
        <time>2022-08-16T09:41:56Z</time>
      </trkpt>
      <trkpt lat="45.28299" lon="2.65904">
        <ele>846.04</ele>
        <time>2022-08-16T09:41:57Z</time>
      </trkpt>
      <trkpt lat="45.28305" lon="2.659">
        <ele>846.04</ele>
        <time>2022-08-16T09:41:58Z</time>
      </trkpt>
      <trkpt lat="45.28313" lon="2.65898">
        <ele>846.02</ele>
        <time>2022-08-16T09:41:59Z</time>
      </trkpt>
      <trkpt lat="45.2834" lon="2.65888">
        <ele>843.63</ele>
        <time>2022-08-16T09:42:04Z</time>
      </trkpt>
      <trkpt lat="45.28399" lon="2.65869">
        <ele>843.6</ele>
        <time>2022-08-16T09:42:13Z</time>
      </trkpt>
      <trkpt lat="45.28408" lon="2.65864">
        <ele>843.64</ele>
        <time>2022-08-16T09:42:14Z</time>
      </trkpt>
      <trkpt lat="45.28469" lon="2.65812">
        <ele>843.54</ele>
        <time>2022-08-16T09:42:22Z</time>
      </trkpt>
      <trkpt lat="45.2848" lon="2.65797">
        <ele>843.54</ele>
        <time>2022-08-16T09:42:24Z</time>
      </trkpt>
      <trkpt lat="45.28486" lon="2.65792">
        <ele>843.55</ele>
        <time>2022-08-16T09:42:25Z</time>
      </trkpt>
      <trkpt lat="45.28491" lon="2.6579">
        <ele>843.53</ele>
        <time>2022-08-16T09:42:26Z</time>
      </trkpt>
      <trkpt lat="45.28497" lon="2.65791">
        <ele>843.55</ele>
        <time>2022-08-16T09:42:27Z</time>
      </trkpt>
      <trkpt lat="45.28504" lon="2.65793">
        <ele>843.54</ele>
        <time>2022-08-16T09:42:28Z</time>
      </trkpt>
      <trkpt lat="45.28511" lon="2.65793">
        <ele>843.57</ele>
        <time>2022-08-16T09:42:29Z</time>
      </trkpt>
      <trkpt lat="45.28516" lon="2.65792">
        <ele>843.55</ele>
        <time>2022-08-16T09:42:30Z</time>
      </trkpt>
      <trkpt lat="45.28521" lon="2.65787">
        <ele>843.56</ele>
        <time>2022-08-16T09:42:31Z</time>
      </trkpt>
      <trkpt lat="45.28524" lon="2.65779">
        <ele>843.54</ele>
        <time>2022-08-16T09:42:32Z</time>
      </trkpt>
      <trkpt lat="45.28523" lon="2.65771">
        <ele>843.56</ele>
        <time>2022-08-16T09:42:33Z</time>
      </trkpt>
      <trkpt lat="45.28521" lon="2.65764">
        <ele>843.54</ele>
        <time>2022-08-16T09:42:34Z</time>
      </trkpt>
      <trkpt lat="45.28517" lon="2.65759">
        <ele>843.56</ele>
        <time>2022-08-16T09:42:35Z</time>
      </trkpt>
      <trkpt lat="45.28512" lon="2.65754">
        <ele>843.54</ele>
        <time>2022-08-16T09:42:36Z</time>
      </trkpt>
      <trkpt lat="45.28508" lon="2.65747">
        <ele>843.52</ele>
        <time>2022-08-16T09:42:37Z</time>
      </trkpt>
      <trkpt lat="45.28504" lon="2.65738">
        <ele>843.52</ele>
        <time>2022-08-16T09:42:38Z</time>
      </trkpt>
      <trkpt lat="45.28501" lon="2.65728">
        <ele>843.55</ele>
        <time>2022-08-16T09:42:39Z</time>
      </trkpt>
      <trkpt lat="45.285" lon="2.65717">
        <ele>843.55</ele>
        <time>2022-08-16T09:42:40Z</time>
      </trkpt>
      <trkpt lat="45.28499" lon="2.65704">
        <ele>843.58</ele>
        <time>2022-08-16T09:42:41Z</time>
      </trkpt>
      <trkpt lat="45.28494" lon="2.6564">
        <ele>845.83</ele>
        <time>2022-08-16T09:42:45Z</time>
      </trkpt>
      <trkpt lat="45.28498" lon="2.65402">
        <ele>848.46</ele>
        <time>2022-08-16T09:42:56Z</time>
      </trkpt>
      <trkpt lat="45.285" lon="2.65375">
        <ele>848.51</ele>
        <time>2022-08-16T09:42:57Z</time>
      </trkpt>
      <trkpt lat="45.28509" lon="2.6523">
        <ele>848.34</ele>
        <time>2022-08-16T09:43:03Z</time>
      </trkpt>
      <trkpt lat="45.28505" lon="2.65212">
        <ele>848.33</ele>
        <time>2022-08-16T09:43:04Z</time>
      </trkpt>
      <trkpt lat="45.285" lon="2.65194">
        <ele>848.33</ele>
        <time>2022-08-16T09:43:05Z</time>
      </trkpt>
      <trkpt lat="45.28495" lon="2.65177">
        <ele>848.31</ele>
        <time>2022-08-16T09:43:06Z</time>
      </trkpt>
      <trkpt lat="45.28491" lon="2.65159">
        <ele>848.3</ele>
        <time>2022-08-16T09:43:07Z</time>
      </trkpt>
      <trkpt lat="45.28489" lon="2.65139">
        <ele>848.31</ele>
        <time>2022-08-16T09:43:08Z</time>
      </trkpt>
      <trkpt lat="45.2849" lon="2.6512">
        <ele>848.31</ele>
        <time>2022-08-16T09:43:09Z</time>
      </trkpt>
      <trkpt lat="45.28492" lon="2.651">
        <ele>848.3</ele>
        <time>2022-08-16T09:43:10Z</time>
      </trkpt>
      <trkpt lat="45.28495" lon="2.65081">
        <ele>849.57</ele>
        <time>2022-08-16T09:43:11Z</time>
      </trkpt>
      <trkpt lat="45.285" lon="2.65038">
        <ele>850.35</ele>
        <time>2022-08-16T09:43:13Z</time>
      </trkpt>
      <trkpt lat="45.28533" lon="2.64846">
        <ele>852.46</ele>
        <time>2022-08-16T09:43:22Z</time>
      </trkpt>
      <trkpt lat="45.28542" lon="2.64714">
        <ele>853.59</ele>
        <time>2022-08-16T09:43:30Z</time>
      </trkpt>
      <trkpt lat="45.28541" lon="2.647">
        <ele>853.54</ele>
        <time>2022-08-16T09:43:31Z</time>
      </trkpt>
      <trkpt lat="45.28536" lon="2.64686">
        <ele>853.56</ele>
        <time>2022-08-16T09:43:32Z</time>
      </trkpt>
      <trkpt lat="45.28531" lon="2.64674">
        <ele>853.37</ele>
        <time>2022-08-16T09:43:33Z</time>
      </trkpt>
      <trkpt lat="45.28527" lon="2.64659">
        <ele>853.37</ele>
        <time>2022-08-16T09:43:34Z</time>
      </trkpt>
      <trkpt lat="45.28525" lon="2.64644">
        <ele>853.36</ele>
        <time>2022-08-16T09:43:35Z</time>
      </trkpt>
      <trkpt lat="45.28523" lon="2.64627">
        <ele>853.37</ele>
        <time>2022-08-16T09:43:36Z</time>
      </trkpt>
      <trkpt lat="45.28523" lon="2.64609">
        <ele>853.39</ele>
        <time>2022-08-16T09:43:37Z</time>
      </trkpt>
      <trkpt lat="45.2853" lon="2.64384">
        <ele>855.15</ele>
        <time>2022-08-16T09:43:48Z</time>
      </trkpt>
      <trkpt lat="45.28531" lon="2.64361">
        <ele>855.16</ele>
        <time>2022-08-16T09:43:49Z</time>
      </trkpt>
      <trkpt lat="45.28556" lon="2.6421">
        <ele>857.68</ele>
        <time>2022-08-16T09:43:56Z</time>
      </trkpt>
      <trkpt lat="45.28555" lon="2.64078">
        <ele>860.07</ele>
        <time>2022-08-16T09:44:02Z</time>
      </trkpt>
      <trkpt lat="45.28545" lon="2.63989">
        <ele>860.87</ele>
        <time>2022-08-16T09:44:06Z</time>
      </trkpt>
      <trkpt lat="45.28546" lon="2.63967">
        <ele>860.87</ele>
        <time>2022-08-16T09:44:07Z</time>
      </trkpt>
      <trkpt lat="45.28548" lon="2.63944">
        <ele>860.89</ele>
        <time>2022-08-16T09:44:08Z</time>
      </trkpt>
      <trkpt lat="45.28553" lon="2.63923">
        <ele>860.87</ele>
        <time>2022-08-16T09:44:09Z</time>
      </trkpt>
      <trkpt lat="45.28559" lon="2.63902">
        <ele>860.87</ele>
        <time>2022-08-16T09:44:10Z</time>
      </trkpt>
      <trkpt lat="45.28567" lon="2.63881">
        <ele>860.86</ele>
        <time>2022-08-16T09:44:11Z</time>
      </trkpt>
      <trkpt lat="45.28607" lon="2.63778">
        <ele>863.79</ele>
        <time>2022-08-16T09:44:16Z</time>
      </trkpt>
      <trkpt lat="45.28648" lon="2.63672">
        <ele>866.05</ele>
        <time>2022-08-16T09:44:21Z</time>
      </trkpt>
      <trkpt lat="45.28704" lon="2.63544">
        <ele>868.83</ele>
        <time>2022-08-16T09:44:27Z</time>
      </trkpt>
      <trkpt lat="45.28716" lon="2.63526">
        <ele>870.24</ele>
        <time>2022-08-16T09:44:28Z</time>
      </trkpt>
      <trkpt lat="45.2873" lon="2.63509">
        <ele>870.24</ele>
        <time>2022-08-16T09:44:29Z</time>
      </trkpt>
      <trkpt lat="45.28745" lon="2.63494">
        <ele>871.23</ele>
        <time>2022-08-16T09:44:30Z</time>
      </trkpt>
      <trkpt lat="45.28761" lon="2.63481">
        <ele>872.36</ele>
        <time>2022-08-16T09:44:31Z</time>
      </trkpt>
      <trkpt lat="45.28777" lon="2.6347">
        <ele>872.4</ele>
        <time>2022-08-16T09:44:32Z</time>
      </trkpt>
      <trkpt lat="45.28838" lon="2.6342">
        <ele>874.36</ele>
        <time>2022-08-16T09:44:36Z</time>
      </trkpt>
      <trkpt lat="45.28851" lon="2.63403">
        <ele>874.41</ele>
        <time>2022-08-16T09:44:37Z</time>
      </trkpt>
      <trkpt lat="45.29014" lon="2.63137">
        <ele>874.22</ele>
        <time>2022-08-16T09:44:50Z</time>
      </trkpt>
      <trkpt lat="45.2905" lon="2.63076">
        <ele>871.72</ele>
        <time>2022-08-16T09:44:53Z</time>
      </trkpt>
      <trkpt lat="45.29198" lon="2.62815">
        <ele>870.95</ele>
        <time>2022-08-16T09:45:06Z</time>
      </trkpt>
      <trkpt lat="45.29261" lon="2.6261">
        <ele>870.92</ele>
        <time>2022-08-16T09:45:15Z</time>
      </trkpt>
      <trkpt lat="45.2932" lon="2.62381">
        <ele>869.72</ele>
        <time>2022-08-16T09:45:24Z</time>
      </trkpt>
      <trkpt lat="45.29331" lon="2.62357">
        <ele>868.66</ele>
        <time>2022-08-16T09:45:25Z</time>
      </trkpt>
      <trkpt lat="45.29343" lon="2.62334">
        <ele>867.77</ele>
        <time>2022-08-16T09:45:26Z</time>
      </trkpt>
      <trkpt lat="45.29357" lon="2.62312">
        <ele>866.62</ele>
        <time>2022-08-16T09:45:27Z</time>
      </trkpt>
      <trkpt lat="45.29373" lon="2.62292">
        <ele>865.78</ele>
        <time>2022-08-16T09:45:28Z</time>
      </trkpt>
      <trkpt lat="45.29389" lon="2.62274">
        <ele>865.75</ele>
        <time>2022-08-16T09:45:29Z</time>
      </trkpt>
      <trkpt lat="45.29407" lon="2.62258">
        <ele>864.49</ele>
        <time>2022-08-16T09:45:30Z</time>
      </trkpt>
      <trkpt lat="45.29426" lon="2.62245">
        <ele>864.4</ele>
        <time>2022-08-16T09:45:31Z</time>
      </trkpt>
      <trkpt lat="45.29446" lon="2.62234">
        <ele>862.94</ele>
        <time>2022-08-16T09:45:32Z</time>
      </trkpt>
      <trkpt lat="45.29466" lon="2.62223">
        <ele>862.96</ele>
        <time>2022-08-16T09:45:33Z</time>
      </trkpt>
      <trkpt lat="45.29523" lon="2.62191">
        <ele>859.94</ele>
        <time>2022-08-16T09:45:36Z</time>
      </trkpt>
      <trkpt lat="45.29541" lon="2.62177">
        <ele>858.86</ele>
        <time>2022-08-16T09:45:37Z</time>
      </trkpt>
      <trkpt lat="45.29558" lon="2.62161">
        <ele>858.89</ele>
        <time>2022-08-16T09:45:38Z</time>
      </trkpt>
      <trkpt lat="45.29573" lon="2.62143">
        <ele>857.88</ele>
        <time>2022-08-16T09:45:39Z</time>
      </trkpt>
      <trkpt lat="45.29616" lon="2.62087">
        <ele>855.32</ele>
        <time>2022-08-16T09:45:42Z</time>
      </trkpt>
      <trkpt lat="45.29656" lon="2.6203">
        <ele>852.93</ele>
        <time>2022-08-16T09:45:45Z</time>
      </trkpt>
      <trkpt lat="45.29749" lon="2.619">
        <ele>850.04</ele>
        <time>2022-08-16T09:45:52Z</time>
      </trkpt>
      <trkpt lat="45.29784" lon="2.61838">
        <ele>848.71</ele>
        <time>2022-08-16T09:45:55Z</time>
      </trkpt>
      <trkpt lat="45.29851" lon="2.61677">
        <ele>852.35</ele>
        <time>2022-08-16T09:46:02Z</time>
      </trkpt>
      <trkpt lat="45.29861" lon="2.61655">
        <ele>852.32</ele>
        <time>2022-08-16T09:46:03Z</time>
      </trkpt>
      <trkpt lat="45.29918" lon="2.61518">
        <ele>849.8</ele>
        <time>2022-08-16T09:46:09Z</time>
      </trkpt>
      <trkpt lat="45.29933" lon="2.61474">
        <ele>848.4</ele>
        <time>2022-08-16T09:46:11Z</time>
      </trkpt>
      <trkpt lat="45.29938" lon="2.6145">
        <ele>848.38</ele>
        <time>2022-08-16T09:46:12Z</time>
      </trkpt>
      <trkpt lat="45.29941" lon="2.61426">
        <ele>848.61</ele>
        <time>2022-08-16T09:46:13Z</time>
      </trkpt>
      <trkpt lat="45.29953" lon="2.61253">
        <ele>848.55</ele>
        <time>2022-08-16T09:46:20Z</time>
      </trkpt>
      <trkpt lat="45.29959" lon="2.61231">
        <ele>848.52</ele>
        <time>2022-08-16T09:46:21Z</time>
      </trkpt>
      <trkpt lat="45.29966" lon="2.6121">
        <ele>848.55</ele>
        <time>2022-08-16T09:46:22Z</time>
      </trkpt>
      <trkpt lat="45.29975" lon="2.61192">
        <ele>848.52</ele>
        <time>2022-08-16T09:46:23Z</time>
      </trkpt>
      <trkpt lat="45.29985" lon="2.61175">
        <ele>848.51</ele>
        <time>2022-08-16T09:46:24Z</time>
      </trkpt>
      <trkpt lat="45.30074" lon="2.61018">
        <ele>846.88</ele>
        <time>2022-08-16T09:46:32Z</time>
      </trkpt>
      <trkpt lat="45.30111" lon="2.60953">
        <ele>845.59</ele>
        <time>2022-08-16T09:46:35Z</time>
      </trkpt>
      <trkpt lat="45.30161" lon="2.60867">
        <ele>842.98</ele>
        <time>2022-08-16T09:46:39Z</time>
      </trkpt>
      <trkpt lat="45.30276" lon="2.60733">
        <ele>842.87</ele>
        <time>2022-08-16T09:46:47Z</time>
      </trkpt>
      <trkpt lat="45.30448" lon="2.60613">
        <ele>842.92</ele>
        <time>2022-08-16T09:46:57Z</time>
      </trkpt>
      <trkpt lat="45.30504" lon="2.60574">
        <ele>839.43</ele>
        <time>2022-08-16T09:47:00Z</time>
      </trkpt>
      <trkpt lat="45.30523" lon="2.60561">
        <ele>839.42</ele>
        <time>2022-08-16T09:47:01Z</time>
      </trkpt>
      <trkpt lat="45.30561" lon="2.60535">
        <ele>836.06</ele>
        <time>2022-08-16T09:47:03Z</time>
      </trkpt>
      <trkpt lat="45.30599" lon="2.60516">
        <ele>833.7</ele>
        <time>2022-08-16T09:47:05Z</time>
      </trkpt>
      <trkpt lat="45.30618" lon="2.60511">
        <ele>832.67</ele>
        <time>2022-08-16T09:47:06Z</time>
      </trkpt>
      <trkpt lat="45.30637" lon="2.60508">
        <ele>831.11</ele>
        <time>2022-08-16T09:47:07Z</time>
      </trkpt>
      <trkpt lat="45.30656" lon="2.60508">
        <ele>831.18</ele>
        <time>2022-08-16T09:47:08Z</time>
      </trkpt>
      <trkpt lat="45.30675" lon="2.6051">
        <ele>829.68</ele>
        <time>2022-08-16T09:47:09Z</time>
      </trkpt>
      <trkpt lat="45.30693" lon="2.60515">
        <ele>828.54</ele>
        <time>2022-08-16T09:47:10Z</time>
      </trkpt>
      <trkpt lat="45.30713" lon="2.60524">
        <ele>827.04</ele>
        <time>2022-08-16T09:47:11Z</time>
      </trkpt>
      <trkpt lat="45.30733" lon="2.60535">
        <ele>825.7</ele>
        <time>2022-08-16T09:47:12Z</time>
      </trkpt>
      <trkpt lat="45.30751" lon="2.60548">
        <ele>824.32</ele>
        <time>2022-08-16T09:47:13Z</time>
      </trkpt>
      <trkpt lat="45.30769" lon="2.60563">
        <ele>823.42</ele>
        <time>2022-08-16T09:47:14Z</time>
      </trkpt>
      <trkpt lat="45.30784" lon="2.60582">
        <ele>822.42</ele>
        <time>2022-08-16T09:47:15Z</time>
      </trkpt>
      <trkpt lat="45.30798" lon="2.60603">
        <ele>820.99</ele>
        <time>2022-08-16T09:47:16Z</time>
      </trkpt>
      <trkpt lat="45.30812" lon="2.60624">
        <ele>820.97</ele>
        <time>2022-08-16T09:47:17Z</time>
      </trkpt>
      <trkpt lat="45.30838" lon="2.60668">
        <ele>819.71</ele>
        <time>2022-08-16T09:47:19Z</time>
      </trkpt>
      <trkpt lat="45.30865" lon="2.60705">
        <ele>816.76</ele>
        <time>2022-08-16T09:47:21Z</time>
      </trkpt>
      <trkpt lat="45.30882" lon="2.60716">
        <ele>815.2</ele>
        <time>2022-08-16T09:47:22Z</time>
      </trkpt>
      <trkpt lat="45.30898" lon="2.60719">
        <ele>813.43</ele>
        <time>2022-08-16T09:47:23Z</time>
      </trkpt>
      <trkpt lat="45.30915" lon="2.60715">
        <ele>812.29</ele>
        <time>2022-08-16T09:47:24Z</time>
      </trkpt>
      <trkpt lat="45.30929" lon="2.60703">
        <ele>812.4</ele>
        <time>2022-08-16T09:47:25Z</time>
      </trkpt>
      <trkpt lat="45.3094" lon="2.60686">
        <ele>811.63</ele>
        <time>2022-08-16T09:47:26Z</time>
      </trkpt>
      <trkpt lat="45.30947" lon="2.60663">
        <ele>811.51</ele>
        <time>2022-08-16T09:47:27Z</time>
      </trkpt>
      <trkpt lat="45.30952" lon="2.60636">
        <ele>811.51</ele>
        <time>2022-08-16T09:47:28Z</time>
      </trkpt>
      <trkpt lat="45.30955" lon="2.60608">
        <ele>811.38</ele>
        <time>2022-08-16T09:47:29Z</time>
      </trkpt>
      <trkpt lat="45.30976" lon="2.60405">
        <ele>807.28</ele>
        <time>2022-08-16T09:47:36Z</time>
      </trkpt>
      <trkpt lat="45.30989" lon="2.60328">
        <ele>805.12</ele>
        <time>2022-08-16T09:47:39Z</time>
      </trkpt>
      <trkpt lat="45.31013" lon="2.60249">
        <ele>802.53</ele>
        <time>2022-08-16T09:47:42Z</time>
      </trkpt>
      <trkpt lat="45.31067" lon="2.60104">
        <ele>798.55</ele>
        <time>2022-08-16T09:47:47Z</time>
      </trkpt>
      <trkpt lat="45.31078" lon="2.60073">
        <ele>799.21</ele>
        <time>2022-08-16T09:47:48Z</time>
      </trkpt>
      <trkpt lat="45.31184" lon="2.5982">
        <ele>796.19</ele>
        <time>2022-08-16T09:47:57Z</time>
      </trkpt>
      <trkpt lat="45.31319" lon="2.59616">
        <ele>792.76</ele>
        <time>2022-08-16T09:48:06Z</time>
      </trkpt>
      <trkpt lat="45.31371" lon="2.5957">
        <ele>789.49</ele>
        <time>2022-08-16T09:48:09Z</time>
      </trkpt>
      <trkpt lat="45.31391" lon="2.59558">
        <ele>788.63</ele>
        <time>2022-08-16T09:48:10Z</time>
      </trkpt>
      <trkpt lat="45.31411" lon="2.5955">
        <ele>788.47</ele>
        <time>2022-08-16T09:48:11Z</time>
      </trkpt>
      <trkpt lat="45.31451" lon="2.59537">
        <ele>784.8</ele>
        <time>2022-08-16T09:48:13Z</time>
      </trkpt>
      <trkpt lat="45.3149" lon="2.59529">
        <ele>781.21</ele>
        <time>2022-08-16T09:48:15Z</time>
      </trkpt>
      <trkpt lat="45.3151" lon="2.59527">
        <ele>779.68</ele>
        <time>2022-08-16T09:48:16Z</time>
      </trkpt>
      <trkpt lat="45.31529" lon="2.59528">
        <ele>777.84</ele>
        <time>2022-08-16T09:48:17Z</time>
      </trkpt>
      <trkpt lat="45.31548" lon="2.59532">
        <ele>777.07</ele>
        <time>2022-08-16T09:48:18Z</time>
      </trkpt>
      <trkpt lat="45.31566" lon="2.59538">
        <ele>775.47</ele>
        <time>2022-08-16T09:48:19Z</time>
      </trkpt>
      <trkpt lat="45.31585" lon="2.59547">
        <ele>774.45</ele>
        <time>2022-08-16T09:48:20Z</time>
      </trkpt>
      <trkpt lat="45.31603" lon="2.59559">
        <ele>772.92</ele>
        <time>2022-08-16T09:48:21Z</time>
      </trkpt>
      <trkpt lat="45.31621" lon="2.59572">
        <ele>771.59</ele>
        <time>2022-08-16T09:48:22Z</time>
      </trkpt>
      <trkpt lat="45.31638" lon="2.59587">
        <ele>770.61</ele>
        <time>2022-08-16T09:48:23Z</time>
      </trkpt>
      <trkpt lat="45.31654" lon="2.59605">
        <ele>769.33</ele>
        <time>2022-08-16T09:48:24Z</time>
      </trkpt>
      <trkpt lat="45.31671" lon="2.59624">
        <ele>769.33</ele>
        <time>2022-08-16T09:48:25Z</time>
      </trkpt>
      <trkpt lat="45.31703" lon="2.59663">
        <ele>765.51</ele>
        <time>2022-08-16T09:48:27Z</time>
      </trkpt>
      <trkpt lat="45.31736" lon="2.59703">
        <ele>762.12</ele>
        <time>2022-08-16T09:48:29Z</time>
      </trkpt>
      <trkpt lat="45.31769" lon="2.59743">
        <ele>758.38</ele>
        <time>2022-08-16T09:48:31Z</time>
      </trkpt>
      <trkpt lat="45.31802" lon="2.59783">
        <ele>755.13</ele>
        <time>2022-08-16T09:48:33Z</time>
      </trkpt>
      <trkpt lat="45.3185" lon="2.59842">
        <ele>751.08</ele>
        <time>2022-08-16T09:48:36Z</time>
      </trkpt>
      <trkpt lat="45.31883" lon="2.59879">
        <ele>747.26</ele>
        <time>2022-08-16T09:48:38Z</time>
      </trkpt>
      <trkpt lat="45.31901" lon="2.59894">
        <ele>745.62</ele>
        <time>2022-08-16T09:48:39Z</time>
      </trkpt>
      <trkpt lat="45.31919" lon="2.59907">
        <ele>743.69</ele>
        <time>2022-08-16T09:48:40Z</time>
      </trkpt>
      <trkpt lat="45.31938" lon="2.59917">
        <ele>741.29</ele>
        <time>2022-08-16T09:48:41Z</time>
      </trkpt>
      <trkpt lat="45.31958" lon="2.59923">
        <ele>739.8</ele>
        <time>2022-08-16T09:48:42Z</time>
      </trkpt>
      <trkpt lat="45.31979" lon="2.59926">
        <ele>738.43</ele>
        <time>2022-08-16T09:48:43Z</time>
      </trkpt>
      <trkpt lat="45.32001" lon="2.59927">
        <ele>738.44</ele>
        <time>2022-08-16T09:48:44Z</time>
      </trkpt>
      <trkpt lat="45.32023" lon="2.59926">
        <ele>736.9</ele>
        <time>2022-08-16T09:48:45Z</time>
      </trkpt>
      <trkpt lat="45.32088" lon="2.59928">
        <ele>732.63</ele>
        <time>2022-08-16T09:48:48Z</time>
      </trkpt>
      <trkpt lat="45.32154" lon="2.59947">
        <ele>728.42</ele>
        <time>2022-08-16T09:48:51Z</time>
      </trkpt>
      <trkpt lat="45.32224" lon="2.59969">
        <ele>724.29</ele>
        <time>2022-08-16T09:48:54Z</time>
      </trkpt>
      <trkpt lat="45.32295" lon="2.59993">
        <ele>720.22</ele>
        <time>2022-08-16T09:48:57Z</time>
      </trkpt>
      <trkpt lat="45.32342" lon="2.60011">
        <ele>717.19</ele>
        <time>2022-08-16T09:48:59Z</time>
      </trkpt>
      <trkpt lat="45.3241" lon="2.60039">
        <ele>712.65</ele>
        <time>2022-08-16T09:49:02Z</time>
      </trkpt>
      <trkpt lat="45.32454" lon="2.60058">
        <ele>709.36</ele>
        <time>2022-08-16T09:49:04Z</time>
      </trkpt>
      <trkpt lat="45.32495" lon="2.60076">
        <ele>705.61</ele>
        <time>2022-08-16T09:49:06Z</time>
      </trkpt>
      <trkpt lat="45.32533" lon="2.60094">
        <ele>702.31</ele>
        <time>2022-08-16T09:49:08Z</time>
      </trkpt>
      <trkpt lat="45.3257" lon="2.60111">
        <ele>698.91</ele>
        <time>2022-08-16T09:49:10Z</time>
      </trkpt>
      <trkpt lat="45.32588" lon="2.60119">
        <ele>698.91</ele>
        <time>2022-08-16T09:49:11Z</time>
      </trkpt>
      <trkpt lat="45.32622" lon="2.60133">
        <ele>696.67</ele>
        <time>2022-08-16T09:49:13Z</time>
      </trkpt>
      <trkpt lat="45.32639" lon="2.60137">
        <ele>694.31</ele>
        <time>2022-08-16T09:49:14Z</time>
      </trkpt>
      <trkpt lat="45.32655" lon="2.60134">
        <ele>692.64</ele>
        <time>2022-08-16T09:49:15Z</time>
      </trkpt>
      <trkpt lat="45.32668" lon="2.60124">
        <ele>691.32</ele>
        <time>2022-08-16T09:49:16Z</time>
      </trkpt>
      <trkpt lat="45.32677" lon="2.60106">
        <ele>689.49</ele>
        <time>2022-08-16T09:49:17Z</time>
      </trkpt>
      <trkpt lat="45.32681" lon="2.60087">
        <ele>688.45</ele>
        <time>2022-08-16T09:49:18Z</time>
      </trkpt>
      <trkpt lat="45.32679" lon="2.60068">
        <ele>687.42</ele>
        <time>2022-08-16T09:49:19Z</time>
      </trkpt>
      <trkpt lat="45.32671" lon="2.60053">
        <ele>686.43</ele>
        <time>2022-08-16T09:49:20Z</time>
      </trkpt>
      <trkpt lat="45.32657" lon="2.60042">
        <ele>686.42</ele>
        <time>2022-08-16T09:49:21Z</time>
      </trkpt>
      <trkpt lat="45.32641" lon="2.60035">
        <ele>685.48</ele>
        <time>2022-08-16T09:49:22Z</time>
      </trkpt>
      <trkpt lat="45.32623" lon="2.6003">
        <ele>684.34</ele>
        <time>2022-08-16T09:49:23Z</time>
      </trkpt>
      <trkpt lat="45.32605" lon="2.60027">
        <ele>684.49</ele>
        <time>2022-08-16T09:49:24Z</time>
      </trkpt>
      <trkpt lat="45.32568" lon="2.60021">
        <ele>683.02</ele>
        <time>2022-08-16T09:49:26Z</time>
      </trkpt>
      <trkpt lat="45.32532" lon="2.60009">
        <ele>679.82</ele>
        <time>2022-08-16T09:49:28Z</time>
      </trkpt>
      <trkpt lat="45.32515" lon="2.59999">
        <ele>678.76</ele>
        <time>2022-08-16T09:49:29Z</time>
      </trkpt>
      <trkpt lat="45.32498" lon="2.59988">
        <ele>677.61</ele>
        <time>2022-08-16T09:49:30Z</time>
      </trkpt>
      <trkpt lat="45.32483" lon="2.59975">
        <ele>676.18</ele>
        <time>2022-08-16T09:49:31Z</time>
      </trkpt>
      <trkpt lat="45.32468" lon="2.59958">
        <ele>675.07</ele>
        <time>2022-08-16T09:49:32Z</time>
      </trkpt>
      <trkpt lat="45.32454" lon="2.59939">
        <ele>673.31</ele>
        <time>2022-08-16T09:49:33Z</time>
      </trkpt>
      <trkpt lat="45.3244" lon="2.59918">
        <ele>673.31</ele>
        <time>2022-08-16T09:49:34Z</time>
      </trkpt>
      <trkpt lat="45.32427" lon="2.59896">
        <ele>671.2</ele>
        <time>2022-08-16T09:49:35Z</time>
      </trkpt>
      <trkpt lat="45.324" lon="2.59851">
        <ele>668.2</ele>
        <time>2022-08-16T09:49:37Z</time>
      </trkpt>
      <trkpt lat="45.32374" lon="2.59808">
        <ele>663.91</ele>
        <time>2022-08-16T09:49:39Z</time>
      </trkpt>
      <trkpt lat="45.32349" lon="2.59767">
        <ele>660.67</ele>
        <time>2022-08-16T09:49:41Z</time>
      </trkpt>
      <trkpt lat="45.32325" lon="2.59727">
        <ele>657.37</ele>
        <time>2022-08-16T09:49:43Z</time>
      </trkpt>
      <trkpt lat="45.32294" lon="2.59667">
        <ele>652.5</ele>
        <time>2022-08-16T09:49:46Z</time>
      </trkpt>
      <trkpt lat="45.32287" lon="2.59646">
        <ele>650.5</ele>
        <time>2022-08-16T09:49:47Z</time>
      </trkpt>
      <trkpt lat="45.32271" lon="2.59573">
        <ele>646.24</ele>
        <time>2022-08-16T09:49:50Z</time>
      </trkpt>
      <trkpt lat="45.32269" lon="2.59546">
        <ele>644.88</ele>
        <time>2022-08-16T09:49:51Z</time>
      </trkpt>
      <trkpt lat="45.32269" lon="2.59519">
        <ele>643.47</ele>
        <time>2022-08-16T09:49:52Z</time>
      </trkpt>
      <trkpt lat="45.32271" lon="2.59491">
        <ele>642.07</ele>
        <time>2022-08-16T09:49:53Z</time>
      </trkpt>
      <trkpt lat="45.32277" lon="2.59464">
        <ele>640.58</ele>
        <time>2022-08-16T09:49:54Z</time>
      </trkpt>
      <trkpt lat="45.32284" lon="2.59436">
        <ele>638.75</ele>
        <time>2022-08-16T09:49:55Z</time>
      </trkpt>
      <trkpt lat="45.3231" lon="2.59357">
        <ele>633.89</ele>
        <time>2022-08-16T09:49:58Z</time>
      </trkpt>
      <trkpt lat="45.32338" lon="2.59274">
        <ele>632.03</ele>
        <time>2022-08-16T09:50:01Z</time>
      </trkpt>
      <trkpt lat="45.32359" lon="2.59215">
        <ele>628.73</ele>
        <time>2022-08-16T09:50:03Z</time>
      </trkpt>
      <trkpt lat="45.32378" lon="2.59159">
        <ele>625.17</ele>
        <time>2022-08-16T09:50:05Z</time>
      </trkpt>
      <trkpt lat="45.32398" lon="2.59104">
        <ele>621.89</ele>
        <time>2022-08-16T09:50:07Z</time>
      </trkpt>
      <trkpt lat="45.32419" lon="2.59048">
        <ele>618.81</ele>
        <time>2022-08-16T09:50:09Z</time>
      </trkpt>
      <trkpt lat="45.32429" lon="2.5902">
        <ele>618.94</ele>
        <time>2022-08-16T09:50:10Z</time>
      </trkpt>
      <trkpt lat="45.3245" lon="2.58963">
        <ele>615.09</ele>
        <time>2022-08-16T09:50:12Z</time>
      </trkpt>
      <trkpt lat="45.32473" lon="2.58911">
        <ele>610.92</ele>
        <time>2022-08-16T09:50:14Z</time>
      </trkpt>
      <trkpt lat="45.32486" lon="2.58888">
        <ele>609.5</ele>
        <time>2022-08-16T09:50:15Z</time>
      </trkpt>
      <trkpt lat="45.325" lon="2.58867">
        <ele>607.67</ele>
        <time>2022-08-16T09:50:16Z</time>
      </trkpt>
      <trkpt lat="45.32515" lon="2.58848">
        <ele>605.94</ele>
        <time>2022-08-16T09:50:17Z</time>
      </trkpt>
      <trkpt lat="45.3253" lon="2.58832">
        <ele>604.18</ele>
        <time>2022-08-16T09:50:18Z</time>
      </trkpt>
      <trkpt lat="45.32548" lon="2.58818">
        <ele>602.04</ele>
        <time>2022-08-16T09:50:19Z</time>
      </trkpt>
      <trkpt lat="45.32565" lon="2.58805">
        <ele>600.7</ele>
        <time>2022-08-16T09:50:20Z</time>
      </trkpt>
      <trkpt lat="45.32583" lon="2.58792">
        <ele>600.69</ele>
        <time>2022-08-16T09:50:21Z</time>
      </trkpt>
      <trkpt lat="45.32636" lon="2.58749">
        <ele>597.06</ele>
        <time>2022-08-16T09:50:24Z</time>
      </trkpt>
      <trkpt lat="45.32692" lon="2.58706">
        <ele>593.44</ele>
        <time>2022-08-16T09:50:27Z</time>
      </trkpt>
      <trkpt lat="45.32752" lon="2.5867">
        <ele>589.99</ele>
        <time>2022-08-16T09:50:30Z</time>
      </trkpt>
      <trkpt lat="45.32822" lon="2.58647">
        <ele>586.23</ele>
        <time>2022-08-16T09:50:33Z</time>
      </trkpt>
      <trkpt lat="45.32891" lon="2.58639">
        <ele>582.48</ele>
        <time>2022-08-16T09:50:36Z</time>
      </trkpt>
      <trkpt lat="45.32934" lon="2.58642">
        <ele>580.85</ele>
        <time>2022-08-16T09:50:38Z</time>
      </trkpt>
      <trkpt lat="45.32998" lon="2.58657">
        <ele>578.46</ele>
        <time>2022-08-16T09:50:41Z</time>
      </trkpt>
      <trkpt lat="45.33041" lon="2.58671">
        <ele>577.12</ele>
        <time>2022-08-16T09:50:43Z</time>
      </trkpt>
      <trkpt lat="45.33189" lon="2.58679">
        <ele>573.17</ele>
        <time>2022-08-16T09:50:50Z</time>
      </trkpt>
      <trkpt lat="45.3321" lon="2.58673">
        <ele>573.09</ele>
        <time>2022-08-16T09:50:51Z</time>
      </trkpt>
      <trkpt lat="45.33355" lon="2.58596">
        <ele>572.01</ele>
        <time>2022-08-16T09:50:58Z</time>
      </trkpt>
      <trkpt lat="45.3348" lon="2.58505">
        <ele>572.07</ele>
        <time>2022-08-16T09:51:05Z</time>
      </trkpt>
      <trkpt lat="45.33508" lon="2.58465">
        <ele>574.91</ele>
        <time>2022-08-16T09:51:07Z</time>
      </trkpt>
      <trkpt lat="45.33519" lon="2.58442">
        <ele>574.93</ele>
        <time>2022-08-16T09:51:08Z</time>
      </trkpt>
      <trkpt lat="45.33529" lon="2.58416">
        <ele>574.94</ele>
        <time>2022-08-16T09:51:09Z</time>
      </trkpt>
      <trkpt lat="45.33535" lon="2.58387">
        <ele>576.02</ele>
        <time>2022-08-16T09:51:10Z</time>
      </trkpt>
      <trkpt lat="45.33539" lon="2.58357">
        <ele>576.83</ele>
        <time>2022-08-16T09:51:11Z</time>
      </trkpt>
      <trkpt lat="45.3354" lon="2.58325">
        <ele>578.21</ele>
        <time>2022-08-16T09:51:12Z</time>
      </trkpt>
      <trkpt lat="45.33537" lon="2.58293">
        <ele>579.58</ele>
        <time>2022-08-16T09:51:13Z</time>
      </trkpt>
      <trkpt lat="45.33532" lon="2.5826">
        <ele>581.09</ele>
        <time>2022-08-16T09:51:14Z</time>
      </trkpt>
      <trkpt lat="45.33525" lon="2.58226">
        <ele>581.1</ele>
        <time>2022-08-16T09:51:15Z</time>
      </trkpt>
      <trkpt lat="45.33465" lon="2.58052">
        <ele>577.13</ele>
        <time>2022-08-16T09:51:21Z</time>
      </trkpt>
      <trkpt lat="45.33448" lon="2.57998">
        <ele>573.82</ele>
        <time>2022-08-16T09:51:23Z</time>
      </trkpt>
      <trkpt lat="45.33442" lon="2.57971">
        <ele>571.62</ele>
        <time>2022-08-16T09:51:24Z</time>
      </trkpt>
      <trkpt lat="45.33438" lon="2.57943">
        <ele>569.9</ele>
        <time>2022-08-16T09:51:25Z</time>
      </trkpt>
      <trkpt lat="45.33435" lon="2.57914">
        <ele>568.5</ele>
        <time>2022-08-16T09:51:26Z</time>
      </trkpt>
      <trkpt lat="45.33435" lon="2.57884">
        <ele>566.96</ele>
        <time>2022-08-16T09:51:27Z</time>
      </trkpt>
      <trkpt lat="45.33437" lon="2.57853">
        <ele>565.91</ele>
        <time>2022-08-16T09:51:28Z</time>
      </trkpt>
      <trkpt lat="45.33441" lon="2.57822">
        <ele>564.33</ele>
        <time>2022-08-16T09:51:29Z</time>
      </trkpt>
      <trkpt lat="45.33448" lon="2.57792">
        <ele>562.64</ele>
        <time>2022-08-16T09:51:30Z</time>
      </trkpt>
      <trkpt lat="45.33455" lon="2.57761">
        <ele>562.47</ele>
        <time>2022-08-16T09:51:31Z</time>
      </trkpt>
      <trkpt lat="45.33482" lon="2.57668">
        <ele>559.92</ele>
        <time>2022-08-16T09:51:34Z</time>
      </trkpt>
      <trkpt lat="45.33494" lon="2.57639">
        <ele>558.41</ele>
        <time>2022-08-16T09:51:35Z</time>
      </trkpt>
      <trkpt lat="45.3351" lon="2.5761">
        <ele>559.27</ele>
        <time>2022-08-16T09:51:36Z</time>
      </trkpt>
      <trkpt lat="45.33614" lon="2.57397">
        <ele>558.2</ele>
        <time>2022-08-16T09:51:43Z</time>
      </trkpt>
      <trkpt lat="45.33659" lon="2.57267">
        <ele>554.15</ele>
        <time>2022-08-16T09:51:47Z</time>
      </trkpt>
      <trkpt lat="45.3368" lon="2.57208">
        <ele>553.05</ele>
        <time>2022-08-16T09:51:49Z</time>
      </trkpt>
      <trkpt lat="45.33767" lon="2.56978">
        <ele>556.96</ele>
        <time>2022-08-16T09:51:57Z</time>
      </trkpt>
      <trkpt lat="45.33779" lon="2.56949">
        <ele>556.95</ele>
        <time>2022-08-16T09:51:58Z</time>
      </trkpt>
      <trkpt lat="45.33856" lon="2.56729">
        <ele>552.65</ele>
        <time>2022-08-16T09:52:05Z</time>
      </trkpt>
      <trkpt lat="45.33868" lon="2.56682">
        <ele>552.6</ele>
        <time>2022-08-16T09:52:06Z</time>
      </trkpt>
      <trkpt lat="45.33883" lon="2.56625">
        <ele>550.77</ele>
        <time>2022-08-16T09:52:08Z</time>
      </trkpt>
      <trkpt lat="45.33907" lon="2.56518">
        <ele>548.6</ele>
        <time>2022-08-16T09:52:11Z</time>
      </trkpt>
      <trkpt lat="45.33942" lon="2.5635">
        <ele>552.65</ele>
        <time>2022-08-16T09:52:16Z</time>
      </trkpt>
      <trkpt lat="45.33957" lon="2.56252">
        <ele>555.73</ele>
        <time>2022-08-16T09:52:19Z</time>
      </trkpt>
      <trkpt lat="45.3396" lon="2.56218">
        <ele>555.86</ele>
        <time>2022-08-16T09:52:20Z</time>
      </trkpt>
      <trkpt lat="45.33966" lon="2.56149">
        <ele>557.97</ele>
        <time>2022-08-16T09:52:22Z</time>
      </trkpt>
      <trkpt lat="45.33954" lon="2.55893">
        <ele>558.42</ele>
        <time>2022-08-16T09:52:29Z</time>
      </trkpt>
      <trkpt lat="45.33951" lon="2.55717">
        <ele>555.92</ele>
        <time>2022-08-16T09:52:34Z</time>
      </trkpt>
      <trkpt lat="45.33949" lon="2.55615">
        <ele>553.43</ele>
        <time>2022-08-16T09:52:37Z</time>
      </trkpt>
      <trkpt lat="45.33948" lon="2.55546">
        <ele>551.03</ele>
        <time>2022-08-16T09:52:39Z</time>
      </trkpt>
      <trkpt lat="45.33949" lon="2.55478">
        <ele>547.65</ele>
        <time>2022-08-16T09:52:41Z</time>
      </trkpt>
      <trkpt lat="45.33955" lon="2.5541">
        <ele>544.82</ele>
        <time>2022-08-16T09:52:43Z</time>
      </trkpt>
      <trkpt lat="45.3396" lon="2.55378">
        <ele>544.8</ele>
        <time>2022-08-16T09:52:44Z</time>
      </trkpt>
      <trkpt lat="45.33971" lon="2.55314">
        <ele>543.33</ele>
        <time>2022-08-16T09:52:46Z</time>
      </trkpt>
      <trkpt lat="45.33982" lon="2.55158">
        <ele>542.77</ele>
        <time>2022-08-16T09:52:51Z</time>
      </trkpt>
      <trkpt lat="45.33979" lon="2.55127">
        <ele>541.33</ele>
        <time>2022-08-16T09:52:52Z</time>
      </trkpt>
      <trkpt lat="45.33974" lon="2.55097">
        <ele>539.27</ele>
        <time>2022-08-16T09:52:53Z</time>
      </trkpt>
      <trkpt lat="45.33969" lon="2.55067">
        <ele>539.23</ele>
        <time>2022-08-16T09:52:54Z</time>
      </trkpt>
      <trkpt lat="45.33958" lon="2.55006">
        <ele>536.13</ele>
        <time>2022-08-16T09:52:56Z</time>
      </trkpt>
      <trkpt lat="45.33941" lon="2.54914">
        <ele>532.74</ele>
        <time>2022-08-16T09:52:59Z</time>
      </trkpt>
      <trkpt lat="45.33923" lon="2.54821">
        <ele>528.81</ele>
        <time>2022-08-16T09:53:02Z</time>
      </trkpt>
      <trkpt lat="45.33912" lon="2.54758">
        <ele>525.1</ele>
        <time>2022-08-16T09:53:04Z</time>
      </trkpt>
      <trkpt lat="45.33899" lon="2.54696">
        <ele>521.98</ele>
        <time>2022-08-16T09:53:06Z</time>
      </trkpt>
      <trkpt lat="45.33893" lon="2.54666">
        <ele>521.9</ele>
        <time>2022-08-16T09:53:07Z</time>
      </trkpt>
      <trkpt lat="45.33877" lon="2.54582">
        <ele>518.06</ele>
        <time>2022-08-16T09:53:10Z</time>
      </trkpt>
      <trkpt lat="45.33873" lon="2.54555">
        <ele>517.98</ele>
        <time>2022-08-16T09:53:11Z</time>
      </trkpt>
      <trkpt lat="45.33865" lon="2.54445">
        <ele>517.89</ele>
        <time>2022-08-16T09:53:15Z</time>
      </trkpt>
      <trkpt lat="45.33884" lon="2.54323">
        <ele>517.88</ele>
        <time>2022-08-16T09:53:19Z</time>
      </trkpt>
      <trkpt lat="45.33894" lon="2.54293">
        <ele>517.97</ele>
        <time>2022-08-16T09:53:20Z</time>
      </trkpt>
      <trkpt lat="45.33905" lon="2.54263">
        <ele>518.44</ele>
        <time>2022-08-16T09:53:21Z</time>
      </trkpt>
      <trkpt lat="45.33919" lon="2.54235">
        <ele>518.42</ele>
        <time>2022-08-16T09:53:22Z</time>
      </trkpt>
      <trkpt lat="45.33935" lon="2.54207">
        <ele>518.41</ele>
        <time>2022-08-16T09:53:23Z</time>
      </trkpt>
      <trkpt lat="45.34079" lon="2.53951">
        <ele>515.34</ele>
        <time>2022-08-16T09:53:32Z</time>
      </trkpt>
      <trkpt lat="45.34118" lon="2.53881">
        <ele>511.63</ele>
        <time>2022-08-16T09:53:35Z</time>
      </trkpt>
      <trkpt lat="45.3413" lon="2.5386">
        <ele>511.57</ele>
        <time>2022-08-16T09:53:36Z</time>
      </trkpt>
      <trkpt lat="45.3416" lon="2.53799">
        <ele>509.05</ele>
        <time>2022-08-16T09:53:39Z</time>
      </trkpt>
      <trkpt lat="45.34181" lon="2.5374">
        <ele>507.25</ele>
        <time>2022-08-16T09:53:42Z</time>
      </trkpt>
      <trkpt lat="45.34227" lon="2.5353">
        <ele>506.78</ele>
        <time>2022-08-16T09:53:51Z</time>
      </trkpt>
      <trkpt lat="45.34263" lon="2.53212">
        <ele>506.68</ele>
        <time>2022-08-16T09:54:02Z</time>
      </trkpt>
      <trkpt lat="45.34269" lon="2.53184">
        <ele>506.67</ele>
        <time>2022-08-16T09:54:03Z</time>
      </trkpt>
      <trkpt lat="45.34276" lon="2.53157">
        <ele>506.63</ele>
        <time>2022-08-16T09:54:04Z</time>
      </trkpt>
      <trkpt lat="45.34286" lon="2.53131">
        <ele>506.59</ele>
        <time>2022-08-16T09:54:05Z</time>
      </trkpt>
      <trkpt lat="45.34401" lon="2.52908">
        <ele>506.45</ele>
        <time>2022-08-16T09:54:14Z</time>
      </trkpt>
      <trkpt lat="45.34458" lon="2.52819">
        <ele>509.74</ele>
        <time>2022-08-16T09:54:18Z</time>
      </trkpt>
      <trkpt lat="45.34505" lon="2.52762">
        <ele>511.84</ele>
        <time>2022-08-16T09:54:21Z</time>
      </trkpt>
      <trkpt lat="45.34614" lon="2.5267">
        <ele>514.21</ele>
        <time>2022-08-16T09:54:27Z</time>
      </trkpt>
      <trkpt lat="45.34916" lon="2.52418">
        <ele>516.49</ele>
        <time>2022-08-16T09:54:43Z</time>
      </trkpt>
      <trkpt lat="45.35121" lon="2.52199">
        <ele>517.65</ele>
        <time>2022-08-16T09:54:54Z</time>
      </trkpt>
      <trkpt lat="45.35291" lon="2.52042">
        <ele>518.18</ele>
        <time>2022-08-16T09:55:03Z</time>
      </trkpt>
      <trkpt lat="45.35399" lon="2.51933">
        <ele>518.12</ele>
        <time>2022-08-16T09:55:11Z</time>
      </trkpt>
      <trkpt lat="45.35486" lon="2.51787">
        <ele>518.08</ele>
        <time>2022-08-16T09:55:18Z</time>
      </trkpt>
      <trkpt lat="45.3555" lon="2.51602">
        <ele>514.56</ele>
        <time>2022-08-16T09:55:25Z</time>
      </trkpt>
      <trkpt lat="45.35558" lon="2.51574">
        <ele>514.53</ele>
        <time>2022-08-16T09:55:26Z</time>
      </trkpt>
      <trkpt lat="45.35575" lon="2.51517">
        <ele>512.52</ele>
        <time>2022-08-16T09:55:28Z</time>
      </trkpt>
      <trkpt lat="45.35601" lon="2.51429">
        <ele>510.37</ele>
        <time>2022-08-16T09:55:31Z</time>
      </trkpt>
      <trkpt lat="45.35618" lon="2.51368">
        <ele>508.65</ele>
        <time>2022-08-16T09:55:33Z</time>
      </trkpt>
      <trkpt lat="45.35644" lon="2.51277">
        <ele>505.53</ele>
        <time>2022-08-16T09:55:36Z</time>
      </trkpt>
      <trkpt lat="45.3567" lon="2.51186">
        <ele>503.01</ele>
        <time>2022-08-16T09:55:39Z</time>
      </trkpt>
      <trkpt lat="45.35692" lon="2.51094">
        <ele>499.39</ele>
        <time>2022-08-16T09:55:42Z</time>
      </trkpt>
      <trkpt lat="45.35698" lon="2.51063">
        <ele>499.39</ele>
        <time>2022-08-16T09:55:43Z</time>
      </trkpt>
      <trkpt lat="45.3571" lon="2.50937">
        <ele>494.92</ele>
        <time>2022-08-16T09:55:47Z</time>
      </trkpt>
      <trkpt lat="45.35712" lon="2.50875">
        <ele>494.02</ele>
        <time>2022-08-16T09:55:49Z</time>
      </trkpt>
      <trkpt lat="45.35708" lon="2.50752">
        <ele>492.05</ele>
        <time>2022-08-16T09:55:53Z</time>
      </trkpt>
      <trkpt lat="45.35695" lon="2.50446">
        <ele>489.58</ele>
        <time>2022-08-16T09:56:03Z</time>
      </trkpt>
      <trkpt lat="45.35697" lon="2.49934">
        <ele>488.49</ele>
        <time>2022-08-16T09:56:20Z</time>
      </trkpt>
      <trkpt lat="45.3571" lon="2.49776">
        <ele>490.94</ele>
        <time>2022-08-16T09:56:25Z</time>
      </trkpt>
      <trkpt lat="45.35763" lon="2.49107">
        <ele>492.64</ele>
        <time>2022-08-16T09:56:45Z</time>
      </trkpt>
      <trkpt lat="45.35765" lon="2.4904">
        <ele>493.88</ele>
        <time>2022-08-16T09:56:47Z</time>
      </trkpt>
      <trkpt lat="45.35771" lon="2.4874">
        <ele>496.65</ele>
        <time>2022-08-16T09:56:56Z</time>
      </trkpt>
      <trkpt lat="45.35771" lon="2.48604">
        <ele>499.34</ele>
        <time>2022-08-16T09:57:00Z</time>
      </trkpt>
      <trkpt lat="45.35765" lon="2.48532">
        <ele>503.72</ele>
        <time>2022-08-16T09:57:02Z</time>
      </trkpt>
      <trkpt lat="45.35753" lon="2.4846">
        <ele>507</ele>
        <time>2022-08-16T09:57:04Z</time>
      </trkpt>
      <trkpt lat="45.35737" lon="2.48388">
        <ele>511.86</ele>
        <time>2022-08-16T09:57:06Z</time>
      </trkpt>
      <trkpt lat="45.35719" lon="2.48314">
        <ele>514.12</ele>
        <time>2022-08-16T09:57:08Z</time>
      </trkpt>
      <trkpt lat="45.35704" lon="2.48248">
        <ele>515.59</ele>
        <time>2022-08-16T09:57:10Z</time>
      </trkpt>
      <trkpt lat="45.35688" lon="2.48126">
        <ele>515.74</ele>
        <time>2022-08-16T09:57:14Z</time>
      </trkpt>
      <trkpt lat="45.35689" lon="2.48096">
        <ele>515.74</ele>
        <time>2022-08-16T09:57:15Z</time>
      </trkpt>
      <trkpt lat="45.35707" lon="2.47909">
        <ele>519.44</ele>
        <time>2022-08-16T09:57:21Z</time>
      </trkpt>
      <trkpt lat="45.35715" lon="2.47844">
        <ele>521.21</ele>
        <time>2022-08-16T09:57:23Z</time>
      </trkpt>
      <trkpt lat="45.35762" lon="2.47582">
        <ele>524.71</ele>
        <time>2022-08-16T09:57:31Z</time>
      </trkpt>
      <trkpt lat="45.35772" lon="2.47551">
        <ele>524.71</ele>
        <time>2022-08-16T09:57:32Z</time>
      </trkpt>
      <trkpt lat="45.35854" lon="2.47358">
        <ele>525.62</ele>
        <time>2022-08-16T09:57:39Z</time>
      </trkpt>
      <trkpt lat="45.35925" lon="2.47242">
        <ele>521.41</ele>
        <time>2022-08-16T09:57:44Z</time>
      </trkpt>
      <trkpt lat="45.3594" lon="2.47223">
        <ele>521.43</ele>
        <time>2022-08-16T09:57:45Z</time>
      </trkpt>
      <trkpt lat="45.35968" lon="2.47189">
        <ele>519.34</ele>
        <time>2022-08-16T09:57:47Z</time>
      </trkpt>
      <trkpt lat="45.35984" lon="2.47176">
        <ele>519.26</ele>
        <time>2022-08-16T09:57:48Z</time>
      </trkpt>
      <trkpt lat="45.35999" lon="2.47165">
        <ele>517.04</ele>
        <time>2022-08-16T09:57:49Z</time>
      </trkpt>
      <trkpt lat="45.36045" lon="2.47142">
        <ele>513.43</ele>
        <time>2022-08-16T09:57:52Z</time>
      </trkpt>
      <trkpt lat="45.36058" lon="2.47135">
        <ele>512.02</ele>
        <time>2022-08-16T09:57:53Z</time>
      </trkpt>
      <trkpt lat="45.36068" lon="2.47126">
        <ele>510.68</ele>
        <time>2022-08-16T09:57:54Z</time>
      </trkpt>
      <trkpt lat="45.36077" lon="2.47116">
        <ele>510.58</ele>
        <time>2022-08-16T09:57:55Z</time>
      </trkpt>
      <trkpt lat="45.36085" lon="2.47107">
        <ele>509.08</ele>
        <time>2022-08-16T09:57:56Z</time>
      </trkpt>
      <trkpt lat="45.36094" lon="2.47099">
        <ele>508.97</ele>
        <time>2022-08-16T09:57:57Z</time>
      </trkpt>
      <trkpt lat="45.36105" lon="2.47093">
        <ele>508.97</ele>
        <time>2022-08-16T09:57:58Z</time>
      </trkpt>
      <trkpt lat="45.36117" lon="2.47089">
        <ele>508.96</ele>
        <time>2022-08-16T09:57:59Z</time>
      </trkpt>
      <trkpt lat="45.3613" lon="2.47087">
        <ele>508.85</ele>
        <time>2022-08-16T09:58:00Z</time>
      </trkpt>
      <trkpt lat="45.36144" lon="2.47088">
        <ele>508.85</ele>
        <time>2022-08-16T09:58:01Z</time>
      </trkpt>
      <trkpt lat="45.36159" lon="2.47093">
        <ele>508.87</ele>
        <time>2022-08-16T09:58:02Z</time>
      </trkpt>
      <trkpt lat="45.36176" lon="2.471">
        <ele>508.77</ele>
        <time>2022-08-16T09:58:03Z</time>
      </trkpt>
      <trkpt lat="45.36287" lon="2.47141">
        <ele>511.29</ele>
        <time>2022-08-16T09:58:09Z</time>
      </trkpt>
      <trkpt lat="45.36503" lon="2.47167">
        <ele>512.32</ele>
        <time>2022-08-16T09:58:19Z</time>
      </trkpt>
      <trkpt lat="45.36544" lon="2.47171">
        <ele>513.5</ele>
        <time>2022-08-16T09:58:21Z</time>
      </trkpt>
      <trkpt lat="45.36584" lon="2.47177">
        <ele>514.8</ele>
        <time>2022-08-16T09:58:23Z</time>
      </trkpt>
      <trkpt lat="45.36624" lon="2.47189">
        <ele>515.67</ele>
        <time>2022-08-16T09:58:25Z</time>
      </trkpt>
      <trkpt lat="45.36644" lon="2.47199">
        <ele>515.65</ele>
        <time>2022-08-16T09:58:26Z</time>
      </trkpt>
      <trkpt lat="45.36662" lon="2.47212">
        <ele>516.46</ele>
        <time>2022-08-16T09:58:27Z</time>
      </trkpt>
      <trkpt lat="45.3668" lon="2.47228">
        <ele>516.42</ele>
        <time>2022-08-16T09:58:28Z</time>
      </trkpt>
      <trkpt lat="45.36697" lon="2.47246">
        <ele>516.48</ele>
        <time>2022-08-16T09:58:29Z</time>
      </trkpt>
      <trkpt lat="45.36713" lon="2.47267">
        <ele>516.48</ele>
        <time>2022-08-16T09:58:30Z</time>
      </trkpt>
      <trkpt lat="45.36728" lon="2.47289">
        <ele>516.47</ele>
        <time>2022-08-16T09:58:31Z</time>
      </trkpt>
      <trkpt lat="45.36743" lon="2.47313">
        <ele>516.49</ele>
        <time>2022-08-16T09:58:32Z</time>
      </trkpt>
      <trkpt lat="45.36788" lon="2.47381">
        <ele>513.23</ele>
        <time>2022-08-16T09:58:35Z</time>
      </trkpt>
      <trkpt lat="45.36805" lon="2.474">
        <ele>511.96</ele>
        <time>2022-08-16T09:58:36Z</time>
      </trkpt>
      <trkpt lat="45.36823" lon="2.47417">
        <ele>511.9</ele>
        <time>2022-08-16T09:58:37Z</time>
      </trkpt>
      <trkpt lat="45.36843" lon="2.47431">
        <ele>509.39</ele>
        <time>2022-08-16T09:58:38Z</time>
      </trkpt>
      <trkpt lat="45.36883" lon="2.47456">
        <ele>505.98</ele>
        <time>2022-08-16T09:58:40Z</time>
      </trkpt>
      <trkpt lat="45.36924" lon="2.4748">
        <ele>502.67</ele>
        <time>2022-08-16T09:58:42Z</time>
      </trkpt>
      <trkpt lat="45.36964" lon="2.47504">
        <ele>497.95</ele>
        <time>2022-08-16T09:58:44Z</time>
      </trkpt>
      <trkpt lat="45.37004" lon="2.47527">
        <ele>494.31</ele>
        <time>2022-08-16T09:58:46Z</time>
      </trkpt>
      <trkpt lat="45.37041" lon="2.47549">
        <ele>491.24</ele>
        <time>2022-08-16T09:58:48Z</time>
      </trkpt>
      <trkpt lat="45.37097" lon="2.47577">
        <ele>486.49</ele>
        <time>2022-08-16T09:58:51Z</time>
      </trkpt>
      <trkpt lat="45.37155" lon="2.47592">
        <ele>482.09</ele>
        <time>2022-08-16T09:58:54Z</time>
      </trkpt>
      <trkpt lat="45.37195" lon="2.47596">
        <ele>478.97</ele>
        <time>2022-08-16T09:58:56Z</time>
      </trkpt>
      <trkpt lat="45.37252" lon="2.47597">
        <ele>473.97</ele>
        <time>2022-08-16T09:58:59Z</time>
      </trkpt>
      <trkpt lat="45.37286" lon="2.47596">
        <ele>470.36</ele>
        <time>2022-08-16T09:59:01Z</time>
      </trkpt>
      <trkpt lat="45.37319" lon="2.47594">
        <ele>467.24</ele>
        <time>2022-08-16T09:59:03Z</time>
      </trkpt>
      <trkpt lat="45.37365" lon="2.47591">
        <ele>463.34</ele>
        <time>2022-08-16T09:59:06Z</time>
      </trkpt>
      <trkpt lat="45.37408" lon="2.47596">
        <ele>459.84</ele>
        <time>2022-08-16T09:59:09Z</time>
      </trkpt>
      <trkpt lat="45.3745" lon="2.47615">
        <ele>456.29</ele>
        <time>2022-08-16T09:59:12Z</time>
      </trkpt>
      <trkpt lat="45.37463" lon="2.47625">
        <ele>456.17</ele>
        <time>2022-08-16T09:59:13Z</time>
      </trkpt>
      <trkpt lat="45.3749" lon="2.47646">
        <ele>455.01</ele>
        <time>2022-08-16T09:59:15Z</time>
      </trkpt>
      <trkpt lat="45.37516" lon="2.47668">
        <ele>453.46</ele>
        <time>2022-08-16T09:59:17Z</time>
      </trkpt>
      <trkpt lat="45.37556" lon="2.47702">
        <ele>449.53</ele>
        <time>2022-08-16T09:59:20Z</time>
      </trkpt>
      <trkpt lat="45.37606" lon="2.47747">
        <ele>446.57</ele>
        <time>2022-08-16T09:59:24Z</time>
      </trkpt>
      <trkpt lat="45.37631" lon="2.47771">
        <ele>445.2</ele>
        <time>2022-08-16T09:59:26Z</time>
      </trkpt>
      <trkpt lat="45.37642" lon="2.47785">
        <ele>445.12</ele>
        <time>2022-08-16T09:59:27Z</time>
      </trkpt>
      <trkpt lat="45.37652" lon="2.478">
        <ele>444.22</ele>
        <time>2022-08-16T09:59:28Z</time>
      </trkpt>
      <trkpt lat="45.37661" lon="2.47817">
        <ele>444.15</ele>
        <time>2022-08-16T09:59:29Z</time>
      </trkpt>
      <trkpt lat="45.37668" lon="2.47835">
        <ele>444.22</ele>
        <time>2022-08-16T09:59:30Z</time>
      </trkpt>
      <trkpt lat="45.37676" lon="2.47853">
        <ele>443.31</ele>
        <time>2022-08-16T09:59:31Z</time>
      </trkpt>
      <trkpt lat="45.37782" lon="2.48128">
        <ele>444.92</ele>
        <time>2022-08-16T09:59:46Z</time>
      </trkpt>
      <trkpt lat="45.37811" lon="2.48203">
        <ele>447.32</ele>
        <time>2022-08-16T09:59:49Z</time>
      </trkpt>
      <trkpt lat="45.37935" lon="2.48505">
        <ele>445.62</ele>
        <time>2022-08-16T10:00:01Z</time>
      </trkpt>
      <trkpt lat="45.38016" lon="2.4865">
        <ele>442.65</ele>
        <time>2022-08-16T10:00:10Z</time>
      </trkpt>
      <trkpt lat="45.3804" lon="2.48683">
        <ele>441.29</ele>
        <time>2022-08-16T10:00:13Z</time>
      </trkpt>
      <trkpt lat="45.38048" lon="2.48688">
        <ele>441.28</ele>
        <time>2022-08-16T10:00:14Z</time>
      </trkpt>
      <trkpt lat="45.38057" lon="2.4869">
        <ele>441.26</ele>
        <time>2022-08-16T10:00:15Z</time>
      </trkpt>
      <trkpt lat="45.38068" lon="2.4869">
        <ele>441.29</ele>
        <time>2022-08-16T10:00:16Z</time>
      </trkpt>
      <trkpt lat="45.3808" lon="2.48688">
        <ele>441.24</ele>
        <time>2022-08-16T10:00:17Z</time>
      </trkpt>
      <trkpt lat="45.38169" lon="2.48679">
        <ele>443.83</ele>
        <time>2022-08-16T10:00:24Z</time>
      </trkpt>
      <trkpt lat="45.3819" lon="2.48682">
        <ele>444.67</ele>
        <time>2022-08-16T10:00:26Z</time>
      </trkpt>
      <trkpt lat="45.38209" lon="2.48689">
        <ele>446.89</ele>
        <time>2022-08-16T10:00:28Z</time>
      </trkpt>
      <trkpt lat="45.38218" lon="2.48694">
        <ele>446.88</ele>
        <time>2022-08-16T10:00:29Z</time>
      </trkpt>
      <trkpt lat="45.38316" lon="2.48765">
        <ele>448.93</ele>
        <time>2022-08-16T10:00:38Z</time>
      </trkpt>
      <trkpt lat="45.38377" lon="2.48805">
        <ele>450.83</ele>
        <time>2022-08-16T10:00:42Z</time>
      </trkpt>
      <trkpt lat="45.38449" lon="2.48851">
        <ele>452.31</ele>
        <time>2022-08-16T10:00:46Z</time>
      </trkpt>
      <trkpt lat="45.38573" lon="2.48927">
        <ele>452.04</ele>
        <time>2022-08-16T10:00:54Z</time>
      </trkpt>
      <trkpt lat="45.38587" lon="2.48939">
        <ele>452.05</ele>
        <time>2022-08-16T10:00:55Z</time>
      </trkpt>
      <trkpt lat="45.38723" lon="2.49052">
        <ele>451.95</ele>
        <time>2022-08-16T10:01:05Z</time>
      </trkpt>
      <trkpt lat="45.38736" lon="2.49061">
        <ele>451.94</ele>
        <time>2022-08-16T10:01:06Z</time>
      </trkpt>
      <trkpt lat="45.38748" lon="2.49071">
        <ele>451.92</ele>
        <time>2022-08-16T10:01:07Z</time>
      </trkpt>
      <trkpt lat="45.38759" lon="2.49082">
        <ele>451.93</ele>
        <time>2022-08-16T10:01:08Z</time>
      </trkpt>
      <trkpt lat="45.38768" lon="2.49094">
        <ele>451.92</ele>
        <time>2022-08-16T10:01:09Z</time>
      </trkpt>
      <trkpt lat="45.38775" lon="2.49108">
        <ele>451.91</ele>
        <time>2022-08-16T10:01:10Z</time>
      </trkpt>
      <trkpt lat="45.38782" lon="2.49124">
        <ele>449.45</ele>
        <time>2022-08-16T10:01:11Z</time>
      </trkpt>
      <trkpt lat="45.38787" lon="2.4914">
        <ele>448.57</ele>
        <time>2022-08-16T10:01:12Z</time>
      </trkpt>
      <trkpt lat="45.38791" lon="2.49157">
        <ele>447.74</ele>
        <time>2022-08-16T10:01:13Z</time>
      </trkpt>
      <trkpt lat="45.38795" lon="2.49173">
        <ele>447.67</ele>
        <time>2022-08-16T10:01:14Z</time>
      </trkpt>
      <trkpt lat="45.38801" lon="2.49188">
        <ele>446.12</ele>
        <time>2022-08-16T10:01:15Z</time>
      </trkpt>
      <trkpt lat="45.38813" lon="2.49212">
        <ele>445.28</ele>
        <time>2022-08-16T10:01:17Z</time>
      </trkpt>
      <trkpt lat="45.3882" lon="2.49223">
        <ele>444.35</ele>
        <time>2022-08-16T10:01:18Z</time>
      </trkpt>
      <trkpt lat="45.38828" lon="2.49233">
        <ele>444.35</ele>
        <time>2022-08-16T10:01:19Z</time>
      </trkpt>
      <trkpt lat="45.38902" lon="2.49343">
        <ele>444.22</ele>
        <time>2022-08-16T10:01:27Z</time>
      </trkpt>
      <trkpt lat="45.3895" lon="2.49411">
        <ele>444.24</ele>
        <time>2022-08-16T10:01:32Z</time>
      </trkpt>
      <trkpt lat="45.38961" lon="2.49421">
        <ele>444.23</ele>
        <time>2022-08-16T10:01:33Z</time>
      </trkpt>
      <trkpt lat="45.38973" lon="2.4943">
        <ele>444.23</ele>
        <time>2022-08-16T10:01:34Z</time>
      </trkpt>
      <trkpt lat="45.39034" lon="2.49468">
        <ele>444.23</ele>
        <time>2022-08-16T10:01:39Z</time>
      </trkpt>
      <trkpt lat="45.39141" lon="2.49554">
        <ele>444.18</ele>
        <time>2022-08-16T10:01:48Z</time>
      </trkpt>
      <trkpt lat="45.39246" lon="2.49589">
        <ele>442.27</ele>
        <time>2022-08-16T10:01:58Z</time>
      </trkpt>
      <trkpt lat="45.39248" lon="2.49591">
        <ele>442.27</ele>
        <time>2022-08-16T10:01:59Z</time>
      </trkpt>
      <trkpt lat="45.39284" lon="2.49614">
        <ele>442.24</ele>
        <time>2022-08-16T10:02:05Z</time>
      </trkpt>
      <trkpt lat="45.39391" lon="2.49669">
        <ele>442.28</ele>
        <time>2022-08-16T10:02:14Z</time>
      </trkpt>
      <trkpt lat="45.39542" lon="2.49726">
        <ele>442.19</ele>
        <time>2022-08-16T10:02:26Z</time>
      </trkpt>
      <trkpt lat="45.39602" lon="2.49738">
        <ele>442.12</ele>
        <time>2022-08-16T10:02:31Z</time>
      </trkpt>
      <trkpt lat="45.39719" lon="2.49804">
        <ele>442.1</ele>
        <time>2022-08-16T10:02:42Z</time>
      </trkpt>
      <trkpt lat="45.39893" lon="2.49907">
        <ele>442.04</ele>
        <time>2022-08-16T10:03:00Z</time>
      </trkpt>
      <trkpt lat="45.39959" lon="2.49942">
        <ele>441.99</ele>
        <time>2022-08-16T10:03:09Z</time>
      </trkpt>
      <trkpt lat="45.39966" lon="2.49946">
        <ele>441.99</ele>
        <time>2022-08-16T10:03:10Z</time>
      </trkpt>
      <trkpt lat="45.4002" lon="2.4997">
        <ele>441.91</ele>
        <time>2022-08-16T10:03:19Z</time>
      </trkpt>
      <trkpt lat="45.40033" lon="2.49974">
        <ele>441.86</ele>
        <time>2022-08-16T10:03:22Z</time>
      </trkpt>
      <trkpt lat="45.40037" lon="2.49974">
        <ele>441.89</ele>
        <time>2022-08-16T10:03:23Z</time>
      </trkpt>
      <trkpt lat="45.4004" lon="2.49972">
        <ele>440.75</ele>
        <time>2022-08-16T10:03:24Z</time>
      </trkpt>
      <trkpt lat="45.40042" lon="2.49968">
        <ele>440.74</ele>
        <time>2022-08-16T10:03:25Z</time>
      </trkpt>
      <trkpt lat="45.40042" lon="2.49962">
        <ele>440.77</ele>
        <time>2022-08-16T10:03:26Z</time>
      </trkpt>
      <trkpt lat="45.40043" lon="2.49957">
        <ele>440.76</ele>
        <time>2022-08-16T10:03:27Z</time>
      </trkpt>
      <trkpt lat="45.40046" lon="2.49951">
        <ele>440.76</ele>
        <time>2022-08-16T10:03:28Z</time>
      </trkpt>
      <trkpt lat="45.40049" lon="2.49944">
        <ele>440.8</ele>
        <time>2022-08-16T10:03:29Z</time>
      </trkpt>
      <trkpt lat="45.40052" lon="2.49937">
        <ele>440.8</ele>
        <time>2022-08-16T10:03:30Z</time>
      </trkpt>
      <trkpt lat="45.40055" lon="2.49928">
        <ele>440.79</ele>
        <time>2022-08-16T10:03:31Z</time>
      </trkpt>
      <trkpt lat="45.40057" lon="2.4992">
        <ele>440.78</ele>
        <time>2022-08-16T10:03:32Z</time>
      </trkpt>
      <trkpt lat="45.4006" lon="2.49912">
        <ele>440.77</ele>
        <time>2022-08-16T10:03:33Z</time>
      </trkpt>
      <trkpt lat="45.40067" lon="2.4989">
        <ele>440.74</ele>
        <time>2022-08-16T10:03:36Z</time>
      </trkpt>
      <trkpt lat="45.4007" lon="2.49884">
        <ele>440.73</ele>
        <time>2022-08-16T10:03:37Z</time>
      </trkpt>
      <trkpt lat="45.40072" lon="2.49876">
        <ele>440.71</ele>
        <time>2022-08-16T10:03:39Z</time>
      </trkpt>
      <trkpt lat="45.40073" lon="2.49873">
        <ele>440.7</ele>
        <time>2022-08-16T10:03:41Z</time>
      </trkpt>
      <trkpt lat="45.40075" lon="2.49873">
        <ele>440.69</ele>
        <time>2022-08-16T10:03:42Z</time>
      </trkpt>
      <trkpt lat="45.40079" lon="2.49872">
        <ele>440.68</ele>
        <time>2022-08-16T10:03:43Z</time>
      </trkpt>
      <trkpt lat="45.40083" lon="2.49872">
        <ele>440.66</ele>
        <time>2022-08-16T10:03:44Z</time>
      </trkpt>
      <trkpt lat="45.40087" lon="2.49873">
        <ele>440.67</ele>
        <time>2022-08-16T10:03:45Z</time>
      </trkpt>
      <trkpt lat="45.40091" lon="2.49874">
        <ele>440.65</ele>
        <time>2022-08-16T10:03:46Z</time>
      </trkpt>
      <trkpt lat="45.40094" lon="2.49876">
        <ele>440.64</ele>
        <time>2022-08-16T10:03:47Z</time>
      </trkpt>
      <trkpt lat="45.40096" lon="2.49879">
        <ele>440.61</ele>
        <time>2022-08-16T10:03:48Z</time>
      </trkpt>
      <trkpt lat="45.40098" lon="2.49881">
        <ele>440.59</ele>
        <time>2022-08-16T10:03:49Z</time>
      </trkpt>
      <trkpt lat="45.401" lon="2.49883">
        <ele>440.58</ele>
        <time>2022-08-16T10:03:50Z</time>
      </trkpt>
      <trkpt lat="45.40119" lon="2.49895">
        <ele>440.58</ele>
        <time>2022-08-16T10:03:59Z</time>
      </trkpt>
      <trkpt lat="45.40147" lon="2.49913">
        <ele>440.54</ele>
        <time>2022-08-16T10:04:07Z</time>
      </trkpt>
      <trkpt lat="45.40149" lon="2.49913">
        <ele>440.55</ele>
        <time>2022-08-16T10:04:08Z</time>
      </trkpt>
      <trkpt lat="45.40152" lon="2.49912">
        <ele>440.55</ele>
        <time>2022-08-16T10:04:09Z</time>
      </trkpt>
      <trkpt lat="45.40156" lon="2.49904">
        <ele>440.52</ele>
        <time>2022-08-16T10:04:14Z</time>
      </trkpt>
      <trkpt lat="45.40155" lon="2.49902">
        <ele>440.52</ele>
        <time>2022-08-16T10:04:15Z</time>
      </trkpt>
      <trkpt lat="45.40154" lon="2.499">
        <ele>440.51</ele>
        <time>2022-08-16T10:04:16Z</time>
      </trkpt>
      <trkpt lat="45.40153" lon="2.49897">
        <ele>440.45</ele>
        <time>2022-08-16T10:04:17Z</time>
      </trkpt>
      <trkpt lat="45.40148" lon="2.49889">
        <ele>440.37</ele>
        <time>2022-08-16T10:04:27Z</time>
      </trkpt>
      <trkpt lat="45.40148" lon="2.49888">
        <ele>414.81</ele>
        <time>2022-08-16T10:04:33Z</time>
      </trkpt>
      <trkpt lat="45.40112" lon="2.49875">
        <ele>445</ele>
        <time>2022-08-16T10:57:54Z</time>
      </trkpt>
      <trkpt lat="45.40086" lon="2.49867">
        <ele>444.97</ele>
        <time>2022-08-16T10:58:01Z</time>
      </trkpt>
      <trkpt lat="45.4008" lon="2.49864">
        <ele>444.97</ele>
        <time>2022-08-16T10:58:02Z</time>
      </trkpt>
      <trkpt lat="45.40075" lon="2.4986">
        <ele>444.98</ele>
        <time>2022-08-16T10:58:03Z</time>
      </trkpt>
      <trkpt lat="45.4007" lon="2.49855">
        <ele>444.96</ele>
        <time>2022-08-16T10:58:04Z</time>
      </trkpt>
      <trkpt lat="45.40065" lon="2.49852">
        <ele>444.96</ele>
        <time>2022-08-16T10:58:05Z</time>
      </trkpt>
      <trkpt lat="45.4006" lon="2.49848">
        <ele>444.95</ele>
        <time>2022-08-16T10:58:06Z</time>
      </trkpt>
      <trkpt lat="45.40044" lon="2.49837">
        <ele>442.08</ele>
        <time>2022-08-16T10:58:10Z</time>
      </trkpt>
      <trkpt lat="45.40036" lon="2.49829">
        <ele>440.32</ele>
        <time>2022-08-16T10:58:12Z</time>
      </trkpt>
      <trkpt lat="45.40034" lon="2.49824">
        <ele>439.48</ele>
        <time>2022-08-16T10:58:13Z</time>
      </trkpt>
      <trkpt lat="45.40032" lon="2.49818">
        <ele>438.67</ele>
        <time>2022-08-16T10:58:14Z</time>
      </trkpt>
      <trkpt lat="45.40028" lon="2.49809">
        <ele>437.07</ele>
        <time>2022-08-16T10:58:16Z</time>
      </trkpt>
      <trkpt lat="45.40026" lon="2.49807">
        <ele>436.29</ele>
        <time>2022-08-16T10:58:17Z</time>
      </trkpt>
      <trkpt lat="45.40024" lon="2.49807">
        <ele>435.52</ele>
        <time>2022-08-16T10:58:18Z</time>
      </trkpt>
      <trkpt lat="45.40025" lon="2.49807">
        <ele>432.5</ele>
        <time>2022-08-16T10:58:21Z</time>
      </trkpt>
      <trkpt lat="45.40026" lon="2.49809">
        <ele>432.5</ele>
        <time>2022-08-16T10:58:22Z</time>
      </trkpt>
      <trkpt lat="45.40027" lon="2.49814">
        <ele>431.77</ele>
        <time>2022-08-16T10:58:23Z</time>
      </trkpt>
      <trkpt lat="45.40029" lon="2.49821">
        <ele>431.04</ele>
        <time>2022-08-16T10:58:24Z</time>
      </trkpt>
      <trkpt lat="45.40034" lon="2.49826">
        <ele>430.31</ele>
        <time>2022-08-16T10:58:25Z</time>
      </trkpt>
      <trkpt lat="45.40037" lon="2.4983">
        <ele>429.58</ele>
        <time>2022-08-16T10:58:26Z</time>
      </trkpt>
      <trkpt lat="45.40056" lon="2.49848">
        <ele>424.98</ele>
        <time>2022-08-16T10:58:31Z</time>
      </trkpt>
      <trkpt lat="45.40063" lon="2.49852">
        <ele>422.8</ele>
        <time>2022-08-16T10:58:34Z</time>
      </trkpt>
      <trkpt lat="45.40065" lon="2.49856">
        <ele>422.11</ele>
        <time>2022-08-16T10:58:35Z</time>
      </trkpt>
      <trkpt lat="45.40064" lon="2.49861">
        <ele>421.47</ele>
        <time>2022-08-16T10:58:36Z</time>
      </trkpt>
      <trkpt lat="45.40062" lon="2.49867">
        <ele>420.83</ele>
        <time>2022-08-16T10:58:37Z</time>
      </trkpt>
      <trkpt lat="45.40059" lon="2.49873">
        <ele>420.15</ele>
        <time>2022-08-16T10:58:38Z</time>
      </trkpt>
      <trkpt lat="45.40057" lon="2.49881">
        <ele>419.49</ele>
        <time>2022-08-16T10:58:39Z</time>
      </trkpt>
      <trkpt lat="45.40044" lon="2.49921">
        <ele>416.37</ele>
        <time>2022-08-16T10:58:44Z</time>
      </trkpt>
      <trkpt lat="45.40035" lon="2.49945">
        <ele>413.85</ele>
        <time>2022-08-16T10:58:49Z</time>
      </trkpt>
      <trkpt lat="45.40035" lon="2.49946">
        <ele>413.44</ele>
        <time>2022-08-16T10:58:50Z</time>
      </trkpt>
      <trkpt lat="45.40033" lon="2.49948">
        <ele>413.05</ele>
        <time>2022-08-16T10:58:51Z</time>
      </trkpt>
      <trkpt lat="45.40032" lon="2.49953">
        <ele>412.66</ele>
        <time>2022-08-16T10:58:52Z</time>
      </trkpt>
      <trkpt lat="45.40031" lon="2.49958">
        <ele>412.29</ele>
        <time>2022-08-16T10:58:53Z</time>
      </trkpt>
      <trkpt lat="45.40031" lon="2.49962">
        <ele>411.9</ele>
        <time>2022-08-16T10:58:54Z</time>
      </trkpt>
      <trkpt lat="45.40031" lon="2.49965">
        <ele>411.51</ele>
        <time>2022-08-16T10:58:55Z</time>
      </trkpt>
      <trkpt lat="45.40032" lon="2.49967">
        <ele>411.14</ele>
        <time>2022-08-16T10:58:56Z</time>
      </trkpt>
      <trkpt lat="45.40034" lon="2.49966">
        <ele>410.75</ele>
        <time>2022-08-16T10:58:57Z</time>
      </trkpt>
      <trkpt lat="45.40035" lon="2.49964">
        <ele>410.41</ele>
        <time>2022-08-16T10:58:58Z</time>
      </trkpt>
      <trkpt lat="45.40036" lon="2.49958">
        <ele>410.02</ele>
        <time>2022-08-16T10:58:59Z</time>
      </trkpt>
      <trkpt lat="45.40037" lon="2.49952">
        <ele>409.61</ele>
        <time>2022-08-16T10:59:00Z</time>
      </trkpt>
      <trkpt lat="45.40039" lon="2.49945">
        <ele>409.23</ele>
        <time>2022-08-16T10:59:01Z</time>
      </trkpt>
      <trkpt lat="45.40042" lon="2.49938">
        <ele>408.84</ele>
        <time>2022-08-16T10:59:02Z</time>
      </trkpt>
      <trkpt lat="45.40045" lon="2.49931">
        <ele>408.44</ele>
        <time>2022-08-16T10:59:03Z</time>
      </trkpt>
      <trkpt lat="45.40049" lon="2.49922">
        <ele>408.04</ele>
        <time>2022-08-16T10:59:04Z</time>
      </trkpt>
      <trkpt lat="45.40065" lon="2.49883">
        <ele>406.54</ele>
        <time>2022-08-16T10:59:08Z</time>
      </trkpt>
      <trkpt lat="45.40069" lon="2.49875">
        <ele>405.81</ele>
        <time>2022-08-16T10:59:09Z</time>
      </trkpt>
      <trkpt lat="45.40074" lon="2.4987">
        <ele>405.49</ele>
        <time>2022-08-16T10:59:10Z</time>
      </trkpt>
      <trkpt lat="45.4008" lon="2.49866">
        <ele>405.5</ele>
        <time>2022-08-16T10:59:11Z</time>
      </trkpt>
      <trkpt lat="45.40086" lon="2.49865">
        <ele>405.19</ele>
        <time>2022-08-16T10:59:12Z</time>
      </trkpt>
      <trkpt lat="45.40092" lon="2.49865">
        <ele>404.91</ele>
        <time>2022-08-16T10:59:13Z</time>
      </trkpt>
      <trkpt lat="45.40099" lon="2.49866">
        <ele>404.63</ele>
        <time>2022-08-16T10:59:14Z</time>
      </trkpt>
      <trkpt lat="45.40107" lon="2.49868">
        <ele>404.32</ele>
        <time>2022-08-16T10:59:15Z</time>
      </trkpt>
      <trkpt lat="45.40156" lon="2.49883">
        <ele>403.57</ele>
        <time>2022-08-16T10:59:24Z</time>
      </trkpt>
      <trkpt lat="45.40203" lon="2.49894">
        <ele>403.64</ele>
        <time>2022-08-16T10:59:35Z</time>
      </trkpt>
      <trkpt lat="45.4029" lon="2.49914">
        <ele>403.73</ele>
        <time>2022-08-16T10:59:47Z</time>
      </trkpt>
      <trkpt lat="45.40349" lon="2.49931">
        <ele>403.82</ele>
        <time>2022-08-16T10:59:57Z</time>
      </trkpt>
      <trkpt lat="45.40355" lon="2.49941">
        <ele>403.86</ele>
        <time>2022-08-16T11:00:01Z</time>
      </trkpt>
      <trkpt lat="45.40355" lon="2.49945">
        <ele>403.87</ele>
        <time>2022-08-16T11:00:02Z</time>
      </trkpt>
      <trkpt lat="45.4035" lon="2.49996">
        <ele>403.96</ele>
        <time>2022-08-16T11:00:10Z</time>
      </trkpt>
      <trkpt lat="45.40327" lon="2.49995">
        <ele>404.06</ele>
        <time>2022-08-16T11:00:17Z</time>
      </trkpt>
      <trkpt lat="45.4032" lon="2.50004">
        <ele>402.96</ele>
        <time>2022-08-16T11:00:25Z</time>
      </trkpt>
      <trkpt lat="45.40327" lon="2.50007">
        <ele>403.08</ele>
        <time>2022-08-16T11:00:38Z</time>
      </trkpt>
      <trkpt lat="45.40335" lon="2.50012">
        <ele>403.3</ele>
        <time>2022-08-16T11:01:03Z</time>
      </trkpt>
      <trkpt lat="45.40335" lon="2.50013">
        <ele>403.36</ele>
        <time>2022-08-16T11:01:09Z</time>
      </trkpt>
      <trkpt lat="45.40354" lon="2.49952">
        <ele>403.75</ele>
        <time>2022-08-16T11:04:09Z</time>
      </trkpt>
      <trkpt lat="45.40355" lon="2.49939">
        <ele>403.85</ele>
        <time>2022-08-16T11:04:17Z</time>
      </trkpt>
      <trkpt lat="45.40354" lon="2.49935">
        <ele>403.87</ele>
        <time>2022-08-16T11:04:18Z</time>
      </trkpt>
      <trkpt lat="45.40352" lon="2.49931">
        <ele>403.88</ele>
        <time>2022-08-16T11:04:19Z</time>
      </trkpt>
      <trkpt lat="45.40346" lon="2.49929">
        <ele>403.87</ele>
        <time>2022-08-16T11:04:20Z</time>
      </trkpt>
      <trkpt lat="45.40339" lon="2.49926">
        <ele>403.87</ele>
        <time>2022-08-16T11:04:21Z</time>
      </trkpt>
      <trkpt lat="45.40331" lon="2.49923">
        <ele>406.38</ele>
        <time>2022-08-16T11:04:22Z</time>
      </trkpt>
      <trkpt lat="45.40322" lon="2.49921">
        <ele>406.39</ele>
        <time>2022-08-16T11:04:23Z</time>
      </trkpt>
      <trkpt lat="45.40239" lon="2.49898">
        <ele>407.18</ele>
        <time>2022-08-16T11:04:32Z</time>
      </trkpt>
      <trkpt lat="45.40137" lon="2.49878">
        <ele>407.27</ele>
        <time>2022-08-16T11:04:44Z</time>
      </trkpt>
      <trkpt lat="45.40115" lon="2.49877">
        <ele>405.03</ele>
        <time>2022-08-16T11:04:49Z</time>
      </trkpt>
      <trkpt lat="45.40089" lon="2.49869">
        <ele>405.24</ele>
        <time>2022-08-16T11:04:58Z</time>
      </trkpt>
      <trkpt lat="45.40073" lon="2.4986">
        <ele>405.28</ele>
        <time>2022-08-16T11:05:01Z</time>
      </trkpt>
      <trkpt lat="45.40055" lon="2.49845">
        <ele>405.33</ele>
        <time>2022-08-16T11:05:04Z</time>
      </trkpt>
      <trkpt lat="45.40044" lon="2.49835">
        <ele>405.35</ele>
        <time>2022-08-16T11:05:06Z</time>
      </trkpt>
      <trkpt lat="45.40038" lon="2.49831">
        <ele>405.38</ele>
        <time>2022-08-16T11:05:07Z</time>
      </trkpt>
      <trkpt lat="45.40035" lon="2.49824">
        <ele>405.41</ele>
        <time>2022-08-16T11:05:08Z</time>
      </trkpt>
      <trkpt lat="45.40031" lon="2.49815">
        <ele>405.42</ele>
        <time>2022-08-16T11:05:09Z</time>
      </trkpt>
      <trkpt lat="45.40028" lon="2.49804">
        <ele>407.94</ele>
        <time>2022-08-16T11:05:10Z</time>
      </trkpt>
      <trkpt lat="45.40025" lon="2.4979">
        <ele>408</ele>
        <time>2022-08-16T11:05:11Z</time>
      </trkpt>
      <trkpt lat="45.40022" lon="2.49777">
        <ele>409.15</ele>
        <time>2022-08-16T11:05:12Z</time>
      </trkpt>
      <trkpt lat="45.4002" lon="2.49763">
        <ele>409.26</ele>
        <time>2022-08-16T11:05:13Z</time>
      </trkpt>
      <trkpt lat="45.40018" lon="2.49748">
        <ele>409.27</ele>
        <time>2022-08-16T11:05:14Z</time>
      </trkpt>
      <trkpt lat="45.40009" lon="2.49706">
        <ele>410.51</ele>
        <time>2022-08-16T11:05:17Z</time>
      </trkpt>
      <trkpt lat="45.40001" lon="2.49666">
        <ele>410.57</ele>
        <time>2022-08-16T11:05:20Z</time>
      </trkpt>
      <trkpt lat="45.39995" lon="2.49654">
        <ele>411.47</ele>
        <time>2022-08-16T11:05:21Z</time>
      </trkpt>
      <trkpt lat="45.39987" lon="2.49645">
        <ele>411.47</ele>
        <time>2022-08-16T11:05:22Z</time>
      </trkpt>
      <trkpt lat="45.39979" lon="2.49638">
        <ele>411.52</ele>
        <time>2022-08-16T11:05:23Z</time>
      </trkpt>
      <trkpt lat="45.3997" lon="2.49631">
        <ele>411.53</ele>
        <time>2022-08-16T11:05:24Z</time>
      </trkpt>
      <trkpt lat="45.39917" lon="2.49588">
        <ele>414.58</ele>
        <time>2022-08-16T11:05:31Z</time>
      </trkpt>
      <trkpt lat="45.39912" lon="2.49584">
        <ele>414.59</ele>
        <time>2022-08-16T11:05:32Z</time>
      </trkpt>
      <trkpt lat="45.39906" lon="2.49581">
        <ele>414.61</ele>
        <time>2022-08-16T11:05:33Z</time>
      </trkpt>
      <trkpt lat="45.39899" lon="2.49578">
        <ele>414.64</ele>
        <time>2022-08-16T11:05:34Z</time>
      </trkpt>
      <trkpt lat="45.39822" lon="2.49541">
        <ele>416.7</ele>
        <time>2022-08-16T11:05:43Z</time>
      </trkpt>
      <trkpt lat="45.39815" lon="2.49535">
        <ele>416.75</ele>
        <time>2022-08-16T11:05:44Z</time>
      </trkpt>
      <trkpt lat="45.39811" lon="2.49528">
        <ele>416.5</ele>
        <time>2022-08-16T11:05:45Z</time>
      </trkpt>
      <trkpt lat="45.39809" lon="2.49519">
        <ele>416.52</ele>
        <time>2022-08-16T11:05:46Z</time>
      </trkpt>
      <trkpt lat="45.39811" lon="2.49508">
        <ele>416.52</ele>
        <time>2022-08-16T11:05:47Z</time>
      </trkpt>
      <trkpt lat="45.39814" lon="2.49495">
        <ele>416.53</ele>
        <time>2022-08-16T11:05:48Z</time>
      </trkpt>
      <trkpt lat="45.39818" lon="2.49479">
        <ele>416.57</ele>
        <time>2022-08-16T11:05:49Z</time>
      </trkpt>
      <trkpt lat="45.39827" lon="2.49443">
        <ele>417.84</ele>
        <time>2022-08-16T11:05:51Z</time>
      </trkpt>
      <trkpt lat="45.3986" lon="2.4931">
        <ele>419.99</ele>
        <time>2022-08-16T11:05:59Z</time>
      </trkpt>
      <trkpt lat="45.39869" lon="2.49287">
        <ele>422.16</ele>
        <time>2022-08-16T11:06:02Z</time>
      </trkpt>
      <trkpt lat="45.39872" lon="2.49284">
        <ele>422.22</ele>
        <time>2022-08-16T11:06:03Z</time>
      </trkpt>
      <trkpt lat="45.39878" lon="2.49282">
        <ele>423.2</ele>
        <time>2022-08-16T11:06:04Z</time>
      </trkpt>
      <trkpt lat="45.39885" lon="2.49283">
        <ele>423.19</ele>
        <time>2022-08-16T11:06:05Z</time>
      </trkpt>
      <trkpt lat="45.39893" lon="2.49285">
        <ele>424.08</ele>
        <time>2022-08-16T11:06:06Z</time>
      </trkpt>
      <trkpt lat="45.39902" lon="2.49289">
        <ele>424.09</ele>
        <time>2022-08-16T11:06:07Z</time>
      </trkpt>
      <trkpt lat="45.39923" lon="2.49298">
        <ele>425.78</ele>
        <time>2022-08-16T11:06:09Z</time>
      </trkpt>
      <trkpt lat="45.39959" lon="2.49316">
        <ele>427.03</ele>
        <time>2022-08-16T11:06:12Z</time>
      </trkpt>
      <trkpt lat="45.40015" lon="2.49338">
        <ele>428.71</ele>
        <time>2022-08-16T11:06:16Z</time>
      </trkpt>
      <trkpt lat="45.40047" lon="2.49345">
        <ele>430.01</ele>
        <time>2022-08-16T11:06:18Z</time>
      </trkpt>
      <trkpt lat="45.4008" lon="2.49353">
        <ele>431.72</ele>
        <time>2022-08-16T11:06:20Z</time>
      </trkpt>
      <trkpt lat="45.40114" lon="2.4936">
        <ele>432.92</ele>
        <time>2022-08-16T11:06:22Z</time>
      </trkpt>
      <trkpt lat="45.40163" lon="2.49374">
        <ele>436.98</ele>
        <time>2022-08-16T11:06:25Z</time>
      </trkpt>
      <trkpt lat="45.40178" lon="2.49379">
        <ele>436.98</ele>
        <time>2022-08-16T11:06:26Z</time>
      </trkpt>
      <trkpt lat="45.40229" lon="2.49401">
        <ele>439.53</ele>
        <time>2022-08-16T11:06:30Z</time>
      </trkpt>
      <trkpt lat="45.40241" lon="2.4941">
        <ele>441.2</ele>
        <time>2022-08-16T11:06:31Z</time>
      </trkpt>
      <trkpt lat="45.40253" lon="2.49421">
        <ele>442.14</ele>
        <time>2022-08-16T11:06:32Z</time>
      </trkpt>
      <trkpt lat="45.40263" lon="2.49433">
        <ele>443.66</ele>
        <time>2022-08-16T11:06:33Z</time>
      </trkpt>
      <trkpt lat="45.40274" lon="2.49449">
        <ele>444.98</ele>
        <time>2022-08-16T11:06:34Z</time>
      </trkpt>
      <trkpt lat="45.40284" lon="2.49466">
        <ele>446.52</ele>
        <time>2022-08-16T11:06:35Z</time>
      </trkpt>
      <trkpt lat="45.40294" lon="2.49485">
        <ele>448.68</ele>
        <time>2022-08-16T11:06:36Z</time>
      </trkpt>
      <trkpt lat="45.40315" lon="2.49525">
        <ele>451.72</ele>
        <time>2022-08-16T11:06:38Z</time>
      </trkpt>
      <trkpt lat="45.40349" lon="2.49583">
        <ele>455.3</ele>
        <time>2022-08-16T11:06:41Z</time>
      </trkpt>
      <trkpt lat="45.40374" lon="2.49617">
        <ele>458.16</ele>
        <time>2022-08-16T11:06:43Z</time>
      </trkpt>
      <trkpt lat="45.40389" lon="2.49631">
        <ele>459.67</ele>
        <time>2022-08-16T11:06:44Z</time>
      </trkpt>
      <trkpt lat="45.40405" lon="2.49643">
        <ele>461.33</ele>
        <time>2022-08-16T11:06:45Z</time>
      </trkpt>
      <trkpt lat="45.40423" lon="2.49651">
        <ele>462.79</ele>
        <time>2022-08-16T11:06:46Z</time>
      </trkpt>
      <trkpt lat="45.40441" lon="2.49658">
        <ele>464.12</ele>
        <time>2022-08-16T11:06:47Z</time>
      </trkpt>
      <trkpt lat="45.4046" lon="2.49665">
        <ele>465.74</ele>
        <time>2022-08-16T11:06:48Z</time>
      </trkpt>
      <trkpt lat="45.40478" lon="2.49672">
        <ele>469.08</ele>
        <time>2022-08-16T11:06:49Z</time>
      </trkpt>
      <trkpt lat="45.40496" lon="2.4968">
        <ele>469.24</ele>
        <time>2022-08-16T11:06:50Z</time>
      </trkpt>
      <trkpt lat="45.40512" lon="2.49692">
        <ele>465.96</ele>
        <time>2022-08-16T11:06:51Z</time>
      </trkpt>
      <trkpt lat="45.40528" lon="2.49705">
        <ele>473.12</ele>
        <time>2022-08-16T11:06:52Z</time>
      </trkpt>
      <trkpt lat="45.40557" lon="2.49731">
        <ele>468.19</ele>
        <time>2022-08-16T11:06:54Z</time>
      </trkpt>
      <trkpt lat="45.40572" lon="2.49743">
        <ele>472.72</ele>
        <time>2022-08-16T11:06:55Z</time>
      </trkpt>
      <trkpt lat="45.40586" lon="2.49754">
        <ele>484.38</ele>
        <time>2022-08-16T11:06:56Z</time>
      </trkpt>
      <trkpt lat="45.40601" lon="2.49764">
        <ele>480.72</ele>
        <time>2022-08-16T11:06:57Z</time>
      </trkpt>
      <trkpt lat="45.4063" lon="2.49785">
        <ele>479.07</ele>
        <time>2022-08-16T11:06:59Z</time>
      </trkpt>
      <trkpt lat="45.40684" lon="2.49822">
        <ele>481.88</ele>
        <time>2022-08-16T11:07:03Z</time>
      </trkpt>
      <trkpt lat="45.4071" lon="2.4984">
        <ele>484.4</ele>
        <time>2022-08-16T11:07:05Z</time>
      </trkpt>
      <trkpt lat="45.40736" lon="2.49855">
        <ele>485.65</ele>
        <time>2022-08-16T11:07:07Z</time>
      </trkpt>
      <trkpt lat="45.40776" lon="2.49868">
        <ele>488.64</ele>
        <time>2022-08-16T11:07:10Z</time>
      </trkpt>
      <trkpt lat="45.40803" lon="2.49874">
        <ele>490.59</ele>
        <time>2022-08-16T11:07:12Z</time>
      </trkpt>
      <trkpt lat="45.40894" lon="2.49892">
        <ele>499.63</ele>
        <time>2022-08-16T11:07:18Z</time>
      </trkpt>
      <trkpt lat="45.40909" lon="2.49899">
        <ele>500.52</ele>
        <time>2022-08-16T11:07:19Z</time>
      </trkpt>
      <trkpt lat="45.40955" lon="2.49929">
        <ele>504.02</ele>
        <time>2022-08-16T11:07:22Z</time>
      </trkpt>
      <trkpt lat="45.40985" lon="2.49948">
        <ele>507.31</ele>
        <time>2022-08-16T11:07:24Z</time>
      </trkpt>
      <trkpt lat="45.41015" lon="2.49964">
        <ele>510.04</ele>
        <time>2022-08-16T11:07:26Z</time>
      </trkpt>
      <trkpt lat="45.4103" lon="2.49968">
        <ele>510.02</ele>
        <time>2022-08-16T11:07:27Z</time>
      </trkpt>
      <trkpt lat="45.41044" lon="2.4997">
        <ele>511.9</ele>
        <time>2022-08-16T11:07:28Z</time>
      </trkpt>
      <trkpt lat="45.41058" lon="2.49967">
        <ele>512.81</ele>
        <time>2022-08-16T11:07:29Z</time>
      </trkpt>
      <trkpt lat="45.41071" lon="2.49961">
        <ele>512.76</ele>
        <time>2022-08-16T11:07:30Z</time>
      </trkpt>
      <trkpt lat="45.41084" lon="2.4995">
        <ele>514.61</ele>
        <time>2022-08-16T11:07:31Z</time>
      </trkpt>
      <trkpt lat="45.41094" lon="2.49936">
        <ele>515.65</ele>
        <time>2022-08-16T11:07:32Z</time>
      </trkpt>
      <trkpt lat="45.41105" lon="2.49919">
        <ele>516.54</ele>
        <time>2022-08-16T11:07:33Z</time>
      </trkpt>
      <trkpt lat="45.41113" lon="2.49904">
        <ele>516.59</ele>
        <time>2022-08-16T11:07:34Z</time>
      </trkpt>
      <trkpt lat="45.41162" lon="2.4981">
        <ele>516.78</ele>
        <time>2022-08-16T11:07:42Z</time>
      </trkpt>
      <trkpt lat="45.41165" lon="2.49801">
        <ele>516.8</ele>
        <time>2022-08-16T11:07:43Z</time>
      </trkpt>
      <trkpt lat="45.41165" lon="2.49793">
        <ele>516.77</ele>
        <time>2022-08-16T11:07:44Z</time>
      </trkpt>
      <trkpt lat="45.41162" lon="2.49785">
        <ele>516.82</ele>
        <time>2022-08-16T11:07:45Z</time>
      </trkpt>
      <trkpt lat="45.4116" lon="2.49776">
        <ele>516.86</ele>
        <time>2022-08-16T11:07:46Z</time>
      </trkpt>
      <trkpt lat="45.41157" lon="2.49765">
        <ele>516.81</ele>
        <time>2022-08-16T11:07:47Z</time>
      </trkpt>
      <trkpt lat="45.41155" lon="2.49752">
        <ele>516.83</ele>
        <time>2022-08-16T11:07:48Z</time>
      </trkpt>
      <trkpt lat="45.41155" lon="2.49737">
        <ele>516.85</ele>
        <time>2022-08-16T11:07:49Z</time>
      </trkpt>
      <trkpt lat="45.41154" lon="2.49719">
        <ele>516.85</ele>
        <time>2022-08-16T11:07:50Z</time>
      </trkpt>
      <trkpt lat="45.4115" lon="2.49682">
        <ele>518.24</ele>
        <time>2022-08-16T11:07:52Z</time>
      </trkpt>
      <trkpt lat="45.41145" lon="2.49644">
        <ele>519.63</ele>
        <time>2022-08-16T11:07:54Z</time>
      </trkpt>
      <trkpt lat="45.41143" lon="2.49585">
        <ele>522</ele>
        <time>2022-08-16T11:07:57Z</time>
      </trkpt>
      <trkpt lat="45.41138" lon="2.49529">
        <ele>526.59</ele>
        <time>2022-08-16T11:08:00Z</time>
      </trkpt>
      <trkpt lat="45.41132" lon="2.49512">
        <ele>527.54</ele>
        <time>2022-08-16T11:08:01Z</time>
      </trkpt>
      <trkpt lat="45.41125" lon="2.49497">
        <ele>528.94</ele>
        <time>2022-08-16T11:08:02Z</time>
      </trkpt>
      <trkpt lat="45.41117" lon="2.49483">
        <ele>528.96</ele>
        <time>2022-08-16T11:08:03Z</time>
      </trkpt>
      <trkpt lat="45.4109" lon="2.49443">
        <ele>532.75</ele>
        <time>2022-08-16T11:08:06Z</time>
      </trkpt>
      <trkpt lat="45.41081" lon="2.4943">
        <ele>532.85</ele>
        <time>2022-08-16T11:08:07Z</time>
      </trkpt>
      <trkpt lat="45.41056" lon="2.49386">
        <ele>536.76</ele>
        <time>2022-08-16T11:08:10Z</time>
      </trkpt>
      <trkpt lat="45.41048" lon="2.49369">
        <ele>536.86</ele>
        <time>2022-08-16T11:08:11Z</time>
      </trkpt>
      <trkpt lat="45.41043" lon="2.49352">
        <ele>538.83</ele>
        <time>2022-08-16T11:08:12Z</time>
      </trkpt>
      <trkpt lat="45.41026" lon="2.49296">
        <ele>541.24</ele>
        <time>2022-08-16T11:08:15Z</time>
      </trkpt>
      <trkpt lat="45.41016" lon="2.49258">
        <ele>543.64</ele>
        <time>2022-08-16T11:08:17Z</time>
      </trkpt>
      <trkpt lat="45.41007" lon="2.49218">
        <ele>545.87</ele>
        <time>2022-08-16T11:08:19Z</time>
      </trkpt>
      <trkpt lat="45.41003" lon="2.49177">
        <ele>548.73</ele>
        <time>2022-08-16T11:08:21Z</time>
      </trkpt>
      <trkpt lat="45.41006" lon="2.49157">
        <ele>549.89</ele>
        <time>2022-08-16T11:08:22Z</time>
      </trkpt>
      <trkpt lat="45.4101" lon="2.49138">
        <ele>551</ele>
        <time>2022-08-16T11:08:23Z</time>
      </trkpt>
      <trkpt lat="45.41016" lon="2.4912">
        <ele>551.23</ele>
        <time>2022-08-16T11:08:24Z</time>
      </trkpt>
      <trkpt lat="45.41023" lon="2.49101">
        <ele>552.74</ele>
        <time>2022-08-16T11:08:25Z</time>
      </trkpt>
      <trkpt lat="45.41028" lon="2.49083">
        <ele>554.73</ele>
        <time>2022-08-16T11:08:26Z</time>
      </trkpt>
      <trkpt lat="45.41031" lon="2.49064">
        <ele>555.63</ele>
        <time>2022-08-16T11:08:27Z</time>
      </trkpt>
      <trkpt lat="45.41033" lon="2.49044">
        <ele>556.68</ele>
        <time>2022-08-16T11:08:28Z</time>
      </trkpt>
      <trkpt lat="45.41032" lon="2.49024">
        <ele>558.76</ele>
        <time>2022-08-16T11:08:29Z</time>
      </trkpt>
      <trkpt lat="45.4103" lon="2.49004">
        <ele>558.72</ele>
        <time>2022-08-16T11:08:30Z</time>
      </trkpt>
      <trkpt lat="45.41026" lon="2.48985">
        <ele>560.09</ele>
        <time>2022-08-16T11:08:31Z</time>
      </trkpt>
      <trkpt lat="45.41022" lon="2.48966">
        <ele>560.93</ele>
        <time>2022-08-16T11:08:32Z</time>
      </trkpt>
      <trkpt lat="45.41017" lon="2.48948">
        <ele>562.11</ele>
        <time>2022-08-16T11:08:33Z</time>
      </trkpt>
      <trkpt lat="45.41013" lon="2.48928">
        <ele>563.06</ele>
        <time>2022-08-16T11:08:34Z</time>
      </trkpt>
      <trkpt lat="45.41009" lon="2.48909">
        <ele>563.16</ele>
        <time>2022-08-16T11:08:35Z</time>
      </trkpt>
      <trkpt lat="45.41" lon="2.48871">
        <ele>567.5</ele>
        <time>2022-08-16T11:08:37Z</time>
      </trkpt>
      <trkpt lat="45.40994" lon="2.48852">
        <ele>567.57</ele>
        <time>2022-08-16T11:08:38Z</time>
      </trkpt>
      <trkpt lat="45.40978" lon="2.48795">
        <ele>569.96</ele>
        <time>2022-08-16T11:08:41Z</time>
      </trkpt>
      <trkpt lat="45.40972" lon="2.48755">
        <ele>571.54</ele>
        <time>2022-08-16T11:08:43Z</time>
      </trkpt>
      <trkpt lat="45.40972" lon="2.48735">
        <ele>573.57</ele>
        <time>2022-08-16T11:08:44Z</time>
      </trkpt>
      <trkpt lat="45.40974" lon="2.48715">
        <ele>574.56</ele>
        <time>2022-08-16T11:08:45Z</time>
      </trkpt>
      <trkpt lat="45.40978" lon="2.48695">
        <ele>575.98</ele>
        <time>2022-08-16T11:08:46Z</time>
      </trkpt>
      <trkpt lat="45.40982" lon="2.48675">
        <ele>577.13</ele>
        <time>2022-08-16T11:08:47Z</time>
      </trkpt>
      <trkpt lat="45.40996" lon="2.48617">
        <ele>580.57</ele>
        <time>2022-08-16T11:08:50Z</time>
      </trkpt>
      <trkpt lat="45.4101" lon="2.48557">
        <ele>583.33</ele>
        <time>2022-08-16T11:08:53Z</time>
      </trkpt>
      <trkpt lat="45.41022" lon="2.48517">
        <ele>586.46</ele>
        <time>2022-08-16T11:08:55Z</time>
      </trkpt>
      <trkpt lat="45.41042" lon="2.4846">
        <ele>589.27</ele>
        <time>2022-08-16T11:08:58Z</time>
      </trkpt>
      <trkpt lat="45.41063" lon="2.48401">
        <ele>593.4</ele>
        <time>2022-08-16T11:09:01Z</time>
      </trkpt>
      <trkpt lat="45.41085" lon="2.48342">
        <ele>596.42</ele>
        <time>2022-08-16T11:09:04Z</time>
      </trkpt>
      <trkpt lat="45.41097" lon="2.48307">
        <ele>597.55</ele>
        <time>2022-08-16T11:09:06Z</time>
      </trkpt>
      <trkpt lat="45.4111" lon="2.48272">
        <ele>598.98</ele>
        <time>2022-08-16T11:09:08Z</time>
      </trkpt>
      <trkpt lat="45.41181" lon="2.48133">
        <ele>601.3</ele>
        <time>2022-08-16T11:09:18Z</time>
      </trkpt>
      <trkpt lat="45.4119" lon="2.48118">
        <ele>601.34</ele>
        <time>2022-08-16T11:09:19Z</time>
      </trkpt>
      <trkpt lat="45.4129" lon="2.47944">
        <ele>605.3</ele>
        <time>2022-08-16T11:09:29Z</time>
      </trkpt>
      <trkpt lat="45.41392" lon="2.47723">
        <ele>605.33</ele>
        <time>2022-08-16T11:09:39Z</time>
      </trkpt>
      <trkpt lat="45.41415" lon="2.47633">
        <ele>602.46</ele>
        <time>2022-08-16T11:09:43Z</time>
      </trkpt>
      <trkpt lat="45.41418" lon="2.47611">
        <ele>602.46</ele>
        <time>2022-08-16T11:09:44Z</time>
      </trkpt>
      <trkpt lat="45.41419" lon="2.47588">
        <ele>602.47</ele>
        <time>2022-08-16T11:09:45Z</time>
      </trkpt>
      <trkpt lat="45.41418" lon="2.47566">
        <ele>602.49</ele>
        <time>2022-08-16T11:09:46Z</time>
      </trkpt>
      <trkpt lat="45.41415" lon="2.47543">
        <ele>602.47</ele>
        <time>2022-08-16T11:09:47Z</time>
      </trkpt>
      <trkpt lat="45.41412" lon="2.4752">
        <ele>602.49</ele>
        <time>2022-08-16T11:09:48Z</time>
      </trkpt>
      <trkpt lat="45.41408" lon="2.47496">
        <ele>601.49</ele>
        <time>2022-08-16T11:09:49Z</time>
      </trkpt>
      <trkpt lat="45.41378" lon="2.4738">
        <ele>599.99</ele>
        <time>2022-08-16T11:09:54Z</time>
      </trkpt>
      <trkpt lat="45.4132" lon="2.47156">
        <ele>599.29</ele>
        <time>2022-08-16T11:10:03Z</time>
      </trkpt>
      <trkpt lat="45.41254" lon="2.46962">
        <ele>598.61</ele>
        <time>2022-08-16T11:10:11Z</time>
      </trkpt>
      <trkpt lat="45.41248" lon="2.46937">
        <ele>598.62</ele>
        <time>2022-08-16T11:10:12Z</time>
      </trkpt>
      <trkpt lat="45.41245" lon="2.4691">
        <ele>598.62</ele>
        <time>2022-08-16T11:10:13Z</time>
      </trkpt>
      <trkpt lat="45.41244" lon="2.46883">
        <ele>597.81</ele>
        <time>2022-08-16T11:10:14Z</time>
      </trkpt>
      <trkpt lat="45.41247" lon="2.46856">
        <ele>597.85</ele>
        <time>2022-08-16T11:10:15Z</time>
      </trkpt>
      <trkpt lat="45.41253" lon="2.4683">
        <ele>597.85</ele>
        <time>2022-08-16T11:10:16Z</time>
      </trkpt>
      <trkpt lat="45.4126" lon="2.46805">
        <ele>597.88</ele>
        <time>2022-08-16T11:10:17Z</time>
      </trkpt>
      <trkpt lat="45.41269" lon="2.46779">
        <ele>597.88</ele>
        <time>2022-08-16T11:10:18Z</time>
      </trkpt>
      <trkpt lat="45.41278" lon="2.46753">
        <ele>597.87</ele>
        <time>2022-08-16T11:10:19Z</time>
      </trkpt>
      <trkpt lat="45.41353" lon="2.46542">
        <ele>594.11</ele>
        <time>2022-08-16T11:10:27Z</time>
      </trkpt>
      <trkpt lat="45.41385" lon="2.46475">
        <ele>591.49</ele>
        <time>2022-08-16T11:10:30Z</time>
      </trkpt>
      <trkpt lat="45.41398" lon="2.46454">
        <ele>590.51</ele>
        <time>2022-08-16T11:10:31Z</time>
      </trkpt>
      <trkpt lat="45.41414" lon="2.46434">
        <ele>590.49</ele>
        <time>2022-08-16T11:10:32Z</time>
      </trkpt>
      <trkpt lat="45.41595" lon="2.4621">
        <ele>590.57</ele>
        <time>2022-08-16T11:10:44Z</time>
      </trkpt>
      <trkpt lat="45.4166" lon="2.4613">
        <ele>587.37</ele>
        <time>2022-08-16T11:10:48Z</time>
      </trkpt>
      <trkpt lat="45.41712" lon="2.46066">
        <ele>583.4</ele>
        <time>2022-08-16T11:10:51Z</time>
      </trkpt>
      <trkpt lat="45.41748" lon="2.46022">
        <ele>582.2</ele>
        <time>2022-08-16T11:10:53Z</time>
      </trkpt>
      <trkpt lat="45.41929" lon="2.45796">
        <ele>583.73</ele>
        <time>2022-08-16T11:11:04Z</time>
      </trkpt>
      <trkpt lat="45.41959" lon="2.45759">
        <ele>585.05</ele>
        <time>2022-08-16T11:11:06Z</time>
      </trkpt>
      <trkpt lat="45.42037" lon="2.45674">
        <ele>588.23</ele>
        <time>2022-08-16T11:11:12Z</time>
      </trkpt>
      <trkpt lat="45.42052" lon="2.45666">
        <ele>588.25</ele>
        <time>2022-08-16T11:11:13Z</time>
      </trkpt>
      <trkpt lat="45.42068" lon="2.45659">
        <ele>589.92</ele>
        <time>2022-08-16T11:11:14Z</time>
      </trkpt>
      <trkpt lat="45.42085" lon="2.45655">
        <ele>589.92</ele>
        <time>2022-08-16T11:11:15Z</time>
      </trkpt>
      <trkpt lat="45.42102" lon="2.45653">
        <ele>589.98</ele>
        <time>2022-08-16T11:11:16Z</time>
      </trkpt>
      <trkpt lat="45.42119" lon="2.45655">
        <ele>591.25</ele>
        <time>2022-08-16T11:11:17Z</time>
      </trkpt>
      <trkpt lat="45.42137" lon="2.4566">
        <ele>591.33</ele>
        <time>2022-08-16T11:11:18Z</time>
      </trkpt>
      <trkpt lat="45.42154" lon="2.45668">
        <ele>591.33</ele>
        <time>2022-08-16T11:11:19Z</time>
      </trkpt>
      <trkpt lat="45.4217" lon="2.45679">
        <ele>592.29</ele>
        <time>2022-08-16T11:11:20Z</time>
      </trkpt>
      <trkpt lat="45.42186" lon="2.45693">
        <ele>592.35</ele>
        <time>2022-08-16T11:11:21Z</time>
      </trkpt>
      <trkpt lat="45.42202" lon="2.4571">
        <ele>592.35</ele>
        <time>2022-08-16T11:11:22Z</time>
      </trkpt>
      <trkpt lat="45.42216" lon="2.45727">
        <ele>592.34</ele>
        <time>2022-08-16T11:11:23Z</time>
      </trkpt>
      <trkpt lat="45.42361" lon="2.45894">
        <ele>592.48</ele>
        <time>2022-08-16T11:11:33Z</time>
      </trkpt>
      <trkpt lat="45.42378" lon="2.45904">
        <ele>592.47</ele>
        <time>2022-08-16T11:11:34Z</time>
      </trkpt>
      <trkpt lat="45.42395" lon="2.45913">
        <ele>592.48</ele>
        <time>2022-08-16T11:11:35Z</time>
      </trkpt>
      <trkpt lat="45.42413" lon="2.45919">
        <ele>592.44</ele>
        <time>2022-08-16T11:11:36Z</time>
      </trkpt>
      <trkpt lat="45.4243" lon="2.45922">
        <ele>592.45</ele>
        <time>2022-08-16T11:11:37Z</time>
      </trkpt>
      <trkpt lat="45.42448" lon="2.45922">
        <ele>592.47</ele>
        <time>2022-08-16T11:11:38Z</time>
      </trkpt>
      <trkpt lat="45.42466" lon="2.4592">
        <ele>592.48</ele>
        <time>2022-08-16T11:11:39Z</time>
      </trkpt>
      <trkpt lat="45.42484" lon="2.45915">
        <ele>592.48</ele>
        <time>2022-08-16T11:11:40Z</time>
      </trkpt>
      <trkpt lat="45.42502" lon="2.45908">
        <ele>592.5</ele>
        <time>2022-08-16T11:11:41Z</time>
      </trkpt>
      <trkpt lat="45.42519" lon="2.45898">
        <ele>592.51</ele>
        <time>2022-08-16T11:11:42Z</time>
      </trkpt>
      <trkpt lat="45.42536" lon="2.45887">
        <ele>593.38</ele>
        <time>2022-08-16T11:11:43Z</time>
      </trkpt>
      <trkpt lat="45.42553" lon="2.45875">
        <ele>593.4</ele>
        <time>2022-08-16T11:11:44Z</time>
      </trkpt>
      <trkpt lat="45.42793" lon="2.45681">
        <ele>594.44</ele>
        <time>2022-08-16T11:11:58Z</time>
      </trkpt>
      <trkpt lat="45.42999" lon="2.45516">
        <ele>598.15</ele>
        <time>2022-08-16T11:12:10Z</time>
      </trkpt>
      <trkpt lat="45.43016" lon="2.45502">
        <ele>598.18</ele>
        <time>2022-08-16T11:12:11Z</time>
      </trkpt>
      <trkpt lat="45.43151" lon="2.45393">
        <ele>602.52</ele>
        <time>2022-08-16T11:12:19Z</time>
      </trkpt>
      <trkpt lat="45.43168" lon="2.45379">
        <ele>602.54</ele>
        <time>2022-08-16T11:12:20Z</time>
      </trkpt>
      <trkpt lat="45.43203" lon="2.45352">
        <ele>603.79</ele>
        <time>2022-08-16T11:12:22Z</time>
      </trkpt>
      <trkpt lat="45.43289" lon="2.45283">
        <ele>607.16</ele>
        <time>2022-08-16T11:12:27Z</time>
      </trkpt>
      <trkpt lat="45.43306" lon="2.45269">
        <ele>607.16</ele>
        <time>2022-08-16T11:12:28Z</time>
      </trkpt>
      <trkpt lat="45.43428" lon="2.45171">
        <ele>610.2</ele>
        <time>2022-08-16T11:12:35Z</time>
      </trkpt>
      <trkpt lat="45.43496" lon="2.45106">
        <ele>610.33</ele>
        <time>2022-08-16T11:12:39Z</time>
      </trkpt>
      <trkpt lat="45.4351" lon="2.45085">
        <ele>611.28</ele>
        <time>2022-08-16T11:12:40Z</time>
      </trkpt>
      <trkpt lat="45.43649" lon="2.44828">
        <ele>611.3</ele>
        <time>2022-08-16T11:12:51Z</time>
      </trkpt>
      <trkpt lat="45.43731" lon="2.44672">
        <ele>609.04</ele>
        <time>2022-08-16T11:12:58Z</time>
      </trkpt>
      <trkpt lat="45.4376" lon="2.4462">
        <ele>605.47</ele>
        <time>2022-08-16T11:13:01Z</time>
      </trkpt>
      <trkpt lat="45.4377" lon="2.44607">
        <ele>605.47</ele>
        <time>2022-08-16T11:13:02Z</time>
      </trkpt>
      <trkpt lat="45.43781" lon="2.44597">
        <ele>605.47</ele>
        <time>2022-08-16T11:13:03Z</time>
      </trkpt>
      <trkpt lat="45.43793" lon="2.44587">
        <ele>605.49</ele>
        <time>2022-08-16T11:13:04Z</time>
      </trkpt>
      <trkpt lat="45.43807" lon="2.44581">
        <ele>605.5</ele>
        <time>2022-08-16T11:13:05Z</time>
      </trkpt>
      <trkpt lat="45.43823" lon="2.44574">
        <ele>605.51</ele>
        <time>2022-08-16T11:13:06Z</time>
      </trkpt>
      <trkpt lat="45.44013" lon="2.44495">
        <ele>605.66</ele>
        <time>2022-08-16T11:13:17Z</time>
      </trkpt>
      <trkpt lat="45.44125" lon="2.44449">
        <ele>603.96</ele>
        <time>2022-08-16T11:13:24Z</time>
      </trkpt>
      <trkpt lat="45.4417" lon="2.44433">
        <ele>602.85</ele>
        <time>2022-08-16T11:13:28Z</time>
      </trkpt>
      <trkpt lat="45.44179" lon="2.44434">
        <ele>602.86</ele>
        <time>2022-08-16T11:13:29Z</time>
      </trkpt>
      <trkpt lat="45.44188" lon="2.44438">
        <ele>602.88</ele>
        <time>2022-08-16T11:13:30Z</time>
      </trkpt>
      <trkpt lat="45.44195" lon="2.44447">
        <ele>602.89</ele>
        <time>2022-08-16T11:13:31Z</time>
      </trkpt>
      <trkpt lat="45.44202" lon="2.44458">
        <ele>602.91</ele>
        <time>2022-08-16T11:13:32Z</time>
      </trkpt>
      <trkpt lat="45.44208" lon="2.44472">
        <ele>602.92</ele>
        <time>2022-08-16T11:13:33Z</time>
      </trkpt>
      <trkpt lat="45.44248" lon="2.44557">
        <ele>606.72</ele>
        <time>2022-08-16T11:13:38Z</time>
      </trkpt>
      <trkpt lat="45.44268" lon="2.44597">
        <ele>607.92</ele>
        <time>2022-08-16T11:13:40Z</time>
      </trkpt>
      <trkpt lat="45.44288" lon="2.44639">
        <ele>609.65</ele>
        <time>2022-08-16T11:13:42Z</time>
      </trkpt>
      <trkpt lat="45.44318" lon="2.44703">
        <ele>613.11</ele>
        <time>2022-08-16T11:13:45Z</time>
      </trkpt>
      <trkpt lat="45.44347" lon="2.44766">
        <ele>614.58</ele>
        <time>2022-08-16T11:13:48Z</time>
      </trkpt>
      <trkpt lat="45.44356" lon="2.44787">
        <ele>614.58</ele>
        <time>2022-08-16T11:13:49Z</time>
      </trkpt>
      <trkpt lat="45.44363" lon="2.44809">
        <ele>615.86</ele>
        <time>2022-08-16T11:13:50Z</time>
      </trkpt>
      <trkpt lat="45.44369" lon="2.44832">
        <ele>615.95</ele>
        <time>2022-08-16T11:13:51Z</time>
      </trkpt>
      <trkpt lat="45.44381" lon="2.44877">
        <ele>617.26</ele>
        <time>2022-08-16T11:13:53Z</time>
      </trkpt>
      <trkpt lat="45.44397" lon="2.44919">
        <ele>617.34</ele>
        <time>2022-08-16T11:13:55Z</time>
      </trkpt>
      <trkpt lat="45.44408" lon="2.44938">
        <ele>617.34</ele>
        <time>2022-08-16T11:13:56Z</time>
      </trkpt>
      <trkpt lat="45.4442" lon="2.44955">
        <ele>617.36</ele>
        <time>2022-08-16T11:13:57Z</time>
      </trkpt>
      <trkpt lat="45.44491" lon="2.45034">
        <ele>620.92</ele>
        <time>2022-08-16T11:14:02Z</time>
      </trkpt>
      <trkpt lat="45.44506" lon="2.4505">
        <ele>620.94</ele>
        <time>2022-08-16T11:14:03Z</time>
      </trkpt>
      <trkpt lat="45.44613" lon="2.45156">
        <ele>623.77</ele>
        <time>2022-08-16T11:14:10Z</time>
      </trkpt>
      <trkpt lat="45.44662" lon="2.45193">
        <ele>625.06</ele>
        <time>2022-08-16T11:14:13Z</time>
      </trkpt>
      <trkpt lat="45.44958" lon="2.45413">
        <ele>626.2</ele>
        <time>2022-08-16T11:14:30Z</time>
      </trkpt>
      <trkpt lat="45.45317" lon="2.45674">
        <ele>629.11</ele>
        <time>2022-08-16T11:14:50Z</time>
      </trkpt>
      <trkpt lat="45.45453" lon="2.45732">
        <ele>629.2</ele>
        <time>2022-08-16T11:14:57Z</time>
      </trkpt>
      <trkpt lat="45.45562" lon="2.45775">
        <ele>630.52</ele>
        <time>2022-08-16T11:15:04Z</time>
      </trkpt>
      <trkpt lat="45.45575" lon="2.45777">
        <ele>630.53</ele>
        <time>2022-08-16T11:15:05Z</time>
      </trkpt>
      <trkpt lat="45.45587" lon="2.45774">
        <ele>631.63</ele>
        <time>2022-08-16T11:15:06Z</time>
      </trkpt>
      <trkpt lat="45.45599" lon="2.45767">
        <ele>633.18</ele>
        <time>2022-08-16T11:15:07Z</time>
      </trkpt>
      <trkpt lat="45.45612" lon="2.45758">
        <ele>633.18</ele>
        <time>2022-08-16T11:15:08Z</time>
      </trkpt>
      <trkpt lat="45.45656" lon="2.45727">
        <ele>636.61</ele>
        <time>2022-08-16T11:15:11Z</time>
      </trkpt>
      <trkpt lat="45.45671" lon="2.45715">
        <ele>636.68</ele>
        <time>2022-08-16T11:15:12Z</time>
      </trkpt>
      <trkpt lat="45.45806" lon="2.4562">
        <ele>637.94</ele>
        <time>2022-08-16T11:15:21Z</time>
      </trkpt>
      <trkpt lat="45.45881" lon="2.45591">
        <ele>633.92</ele>
        <time>2022-08-16T11:15:26Z</time>
      </trkpt>
      <trkpt lat="45.45894" lon="2.45584">
        <ele>633.9</ele>
        <time>2022-08-16T11:15:27Z</time>
      </trkpt>
      <trkpt lat="45.45933" lon="2.45566">
        <ele>630.32</ele>
        <time>2022-08-16T11:15:30Z</time>
      </trkpt>
      <trkpt lat="45.45947" lon="2.45564">
        <ele>630.26</ele>
        <time>2022-08-16T11:15:31Z</time>
      </trkpt>
      <trkpt lat="45.4596" lon="2.45564">
        <ele>628.04</ele>
        <time>2022-08-16T11:15:32Z</time>
      </trkpt>
      <trkpt lat="45.45973" lon="2.45568">
        <ele>626.72</ele>
        <time>2022-08-16T11:15:33Z</time>
      </trkpt>
      <trkpt lat="45.45985" lon="2.45574">
        <ele>625.98</ele>
        <time>2022-08-16T11:15:34Z</time>
      </trkpt>
      <trkpt lat="45.45998" lon="2.45581">
        <ele>625.19</ele>
        <time>2022-08-16T11:15:35Z</time>
      </trkpt>
      <trkpt lat="45.46044" lon="2.45616">
        <ele>621.13</ele>
        <time>2022-08-16T11:15:39Z</time>
      </trkpt>
      <trkpt lat="45.46057" lon="2.45627">
        <ele>621.14</ele>
        <time>2022-08-16T11:15:40Z</time>
      </trkpt>
      <trkpt lat="45.46081" lon="2.45656">
        <ele>619.85</ele>
        <time>2022-08-16T11:15:42Z</time>
      </trkpt>
      <trkpt lat="45.46091" lon="2.45675">
        <ele>618.4</ele>
        <time>2022-08-16T11:15:43Z</time>
      </trkpt>
      <trkpt lat="45.46127" lon="2.45749">
        <ele>613.64</ele>
        <time>2022-08-16T11:15:47Z</time>
      </trkpt>
      <trkpt lat="45.46136" lon="2.45766">
        <ele>613.67</ele>
        <time>2022-08-16T11:15:48Z</time>
      </trkpt>
      <trkpt lat="45.46146" lon="2.45781">
        <ele>611.73</ele>
        <time>2022-08-16T11:15:49Z</time>
      </trkpt>
      <trkpt lat="45.46157" lon="2.45795">
        <ele>611.66</ele>
        <time>2022-08-16T11:15:50Z</time>
      </trkpt>
      <trkpt lat="45.46171" lon="2.45804">
        <ele>610.52</ele>
        <time>2022-08-16T11:15:51Z</time>
      </trkpt>
      <trkpt lat="45.46188" lon="2.45811">
        <ele>610.54</ele>
        <time>2022-08-16T11:15:52Z</time>
      </trkpt>
      <trkpt lat="45.46205" lon="2.45817">
        <ele>609.58</ele>
        <time>2022-08-16T11:15:53Z</time>
      </trkpt>
      <trkpt lat="45.46252" lon="2.4584">
        <ele>607.89</ele>
        <time>2022-08-16T11:15:56Z</time>
      </trkpt>
      <trkpt lat="45.46333" lon="2.45879">
        <ele>607.72</ele>
        <time>2022-08-16T11:16:01Z</time>
      </trkpt>
      <trkpt lat="45.46348" lon="2.45891">
        <ele>607.68</ele>
        <time>2022-08-16T11:16:02Z</time>
      </trkpt>
      <trkpt lat="45.46376" lon="2.45917">
        <ele>610.06</ele>
        <time>2022-08-16T11:16:04Z</time>
      </trkpt>
      <trkpt lat="45.46392" lon="2.45927">
        <ele>611.32</ele>
        <time>2022-08-16T11:16:05Z</time>
      </trkpt>
      <trkpt lat="45.46407" lon="2.45935">
        <ele>611.35</ele>
        <time>2022-08-16T11:16:06Z</time>
      </trkpt>
      <trkpt lat="45.46439" lon="2.4595">
        <ele>613.56</ele>
        <time>2022-08-16T11:16:08Z</time>
      </trkpt>
      <trkpt lat="45.46453" lon="2.45962">
        <ele>613.6</ele>
        <time>2022-08-16T11:16:09Z</time>
      </trkpt>
      <trkpt lat="45.46464" lon="2.45977">
        <ele>613.64</ele>
        <time>2022-08-16T11:16:10Z</time>
      </trkpt>
      <trkpt lat="45.46473" lon="2.45997">
        <ele>613.71</ele>
        <time>2022-08-16T11:16:11Z</time>
      </trkpt>
      <trkpt lat="45.4648" lon="2.46021">
        <ele>615.37</ele>
        <time>2022-08-16T11:16:12Z</time>
      </trkpt>
      <trkpt lat="45.46487" lon="2.46044">
        <ele>616.45</ele>
        <time>2022-08-16T11:16:13Z</time>
      </trkpt>
      <trkpt lat="45.46496" lon="2.46065">
        <ele>617.37</ele>
        <time>2022-08-16T11:16:14Z</time>
      </trkpt>
      <trkpt lat="45.46508" lon="2.46083">
        <ele>617.42</ele>
        <time>2022-08-16T11:16:15Z</time>
      </trkpt>
      <trkpt lat="45.46523" lon="2.46099">
        <ele>618.4</ele>
        <time>2022-08-16T11:16:16Z</time>
      </trkpt>
      <trkpt lat="45.46542" lon="2.46111">
        <ele>620.3</ele>
        <time>2022-08-16T11:16:17Z</time>
      </trkpt>
      <trkpt lat="45.46563" lon="2.46119">
        <ele>622.03</ele>
        <time>2022-08-16T11:16:18Z</time>
      </trkpt>
      <trkpt lat="45.46584" lon="2.46128">
        <ele>622.12</ele>
        <time>2022-08-16T11:16:19Z</time>
      </trkpt>
      <trkpt lat="45.46605" lon="2.4614">
        <ele>623.19</ele>
        <time>2022-08-16T11:16:20Z</time>
      </trkpt>
      <trkpt lat="45.46625" lon="2.46152">
        <ele>623.22</ele>
        <time>2022-08-16T11:16:21Z</time>
      </trkpt>
      <trkpt lat="45.46647" lon="2.46163">
        <ele>624.24</ele>
        <time>2022-08-16T11:16:22Z</time>
      </trkpt>
      <trkpt lat="45.4667" lon="2.4617">
        <ele>625.72</ele>
        <time>2022-08-16T11:16:23Z</time>
      </trkpt>
      <trkpt lat="45.46713" lon="2.46182">
        <ele>626.63</ele>
        <time>2022-08-16T11:16:25Z</time>
      </trkpt>
      <trkpt lat="45.4679" lon="2.46213">
        <ele>628.62</ele>
        <time>2022-08-16T11:16:29Z</time>
      </trkpt>
      <trkpt lat="45.46809" lon="2.46226">
        <ele>629.72</ele>
        <time>2022-08-16T11:16:30Z</time>
      </trkpt>
      <trkpt lat="45.46859" lon="2.46269">
        <ele>629.78</ele>
        <time>2022-08-16T11:16:33Z</time>
      </trkpt>
      <trkpt lat="45.46872" lon="2.46286">
        <ele>627.13</ele>
        <time>2022-08-16T11:16:34Z</time>
      </trkpt>
      <trkpt lat="45.46908" lon="2.46335">
        <ele>625.04</ele>
        <time>2022-08-16T11:16:37Z</time>
      </trkpt>
      <trkpt lat="45.46921" lon="2.46349">
        <ele>623.74</ele>
        <time>2022-08-16T11:16:38Z</time>
      </trkpt>
      <trkpt lat="45.46935" lon="2.46358">
        <ele>623.72</ele>
        <time>2022-08-16T11:16:39Z</time>
      </trkpt>
      <trkpt lat="45.46952" lon="2.46363">
        <ele>623.72</ele>
        <time>2022-08-16T11:16:40Z</time>
      </trkpt>
      <trkpt lat="45.46972" lon="2.46363">
        <ele>623.71</ele>
        <time>2022-08-16T11:16:41Z</time>
      </trkpt>
      <trkpt lat="45.46994" lon="2.4636">
        <ele>623.71</ele>
        <time>2022-08-16T11:16:42Z</time>
      </trkpt>
      <trkpt lat="45.47033" lon="2.46356">
        <ele>626.04</ele>
        <time>2022-08-16T11:16:44Z</time>
      </trkpt>
      <trkpt lat="45.4712" lon="2.46353">
        <ele>629.33</ele>
        <time>2022-08-16T11:16:49Z</time>
      </trkpt>
      <trkpt lat="45.47137" lon="2.46359">
        <ele>630.55</ele>
        <time>2022-08-16T11:16:50Z</time>
      </trkpt>
      <trkpt lat="45.47156" lon="2.46369">
        <ele>631.62</ele>
        <time>2022-08-16T11:16:51Z</time>
      </trkpt>
      <trkpt lat="45.47196" lon="2.46393">
        <ele>634.77</ele>
        <time>2022-08-16T11:16:53Z</time>
      </trkpt>
      <trkpt lat="45.47216" lon="2.46405">
        <ele>634.85</ele>
        <time>2022-08-16T11:16:54Z</time>
      </trkpt>
      <trkpt lat="45.47253" lon="2.46428">
        <ele>636.14</ele>
        <time>2022-08-16T11:16:56Z</time>
      </trkpt>
      <trkpt lat="45.47378" lon="2.46533">
        <ele>637.82</ele>
        <time>2022-08-16T11:17:04Z</time>
      </trkpt>
      <trkpt lat="45.47395" lon="2.4654">
        <ele>639.27</ele>
        <time>2022-08-16T11:17:05Z</time>
      </trkpt>
      <trkpt lat="45.47414" lon="2.46543">
        <ele>640.34</ele>
        <time>2022-08-16T11:17:06Z</time>
      </trkpt>
      <trkpt lat="45.47433" lon="2.46543">
        <ele>641.13</ele>
        <time>2022-08-16T11:17:07Z</time>
      </trkpt>
      <trkpt lat="45.47452" lon="2.4654">
        <ele>641.16</ele>
        <time>2022-08-16T11:17:08Z</time>
      </trkpt>
      <trkpt lat="45.47468" lon="2.46533">
        <ele>641.17</ele>
        <time>2022-08-16T11:17:09Z</time>
      </trkpt>
      <trkpt lat="45.47483" lon="2.46523">
        <ele>642.01</ele>
        <time>2022-08-16T11:17:10Z</time>
      </trkpt>
      <trkpt lat="45.47497" lon="2.46509">
        <ele>642.01</ele>
        <time>2022-08-16T11:17:11Z</time>
      </trkpt>
      <trkpt lat="45.47568" lon="2.46445">
        <ele>642.53</ele>
        <time>2022-08-16T11:17:16Z</time>
      </trkpt>
      <trkpt lat="45.47584" lon="2.46439">
        <ele>642.51</ele>
        <time>2022-08-16T11:17:17Z</time>
      </trkpt>
      <trkpt lat="45.47602" lon="2.46439">
        <ele>644.83</ele>
        <time>2022-08-16T11:17:18Z</time>
      </trkpt>
      <trkpt lat="45.47621" lon="2.46444">
        <ele>645.77</ele>
        <time>2022-08-16T11:17:19Z</time>
      </trkpt>
      <trkpt lat="45.47642" lon="2.46451">
        <ele>647.31</ele>
        <time>2022-08-16T11:17:20Z</time>
      </trkpt>
      <trkpt lat="45.47684" lon="2.46467">
        <ele>650.4</ele>
        <time>2022-08-16T11:17:22Z</time>
      </trkpt>
      <trkpt lat="45.47705" lon="2.46475">
        <ele>650.44</ele>
        <time>2022-08-16T11:17:23Z</time>
      </trkpt>
      <trkpt lat="45.47798" lon="2.46508">
        <ele>652.04</ele>
        <time>2022-08-16T11:17:28Z</time>
      </trkpt>
      <trkpt lat="45.47854" lon="2.46524">
        <ele>655.79</ele>
        <time>2022-08-16T11:17:31Z</time>
      </trkpt>
      <trkpt lat="45.47893" lon="2.46534">
        <ele>656.92</ele>
        <time>2022-08-16T11:17:33Z</time>
      </trkpt>
      <trkpt lat="45.47933" lon="2.46546">
        <ele>658.23</ele>
        <time>2022-08-16T11:17:35Z</time>
      </trkpt>
      <trkpt lat="45.47992" lon="2.46563">
        <ele>661.62</ele>
        <time>2022-08-16T11:17:38Z</time>
      </trkpt>
      <trkpt lat="45.48032" lon="2.46568">
        <ele>662.3</ele>
        <time>2022-08-16T11:17:40Z</time>
      </trkpt>
      <trkpt lat="45.48053" lon="2.46566">
        <ele>662.37</ele>
        <time>2022-08-16T11:17:41Z</time>
      </trkpt>
      <trkpt lat="45.4812" lon="2.46548">
        <ele>665.8</ele>
        <time>2022-08-16T11:17:44Z</time>
      </trkpt>
      <trkpt lat="45.48143" lon="2.46541">
        <ele>665.96</ele>
        <time>2022-08-16T11:17:45Z</time>
      </trkpt>
      <trkpt lat="45.48209" lon="2.46524">
        <ele>669</ele>
        <time>2022-08-16T11:17:48Z</time>
      </trkpt>
      <trkpt lat="45.48254" lon="2.46511">
        <ele>670.81</ele>
        <time>2022-08-16T11:17:50Z</time>
      </trkpt>
      <trkpt lat="45.4836" lon="2.46474">
        <ele>670.87</ele>
        <time>2022-08-16T11:17:56Z</time>
      </trkpt>
      <trkpt lat="45.48445" lon="2.46435">
        <ele>674.13</ele>
        <time>2022-08-16T11:18:02Z</time>
      </trkpt>
      <trkpt lat="45.48495" lon="2.46412">
        <ele>677.98</ele>
        <time>2022-08-16T11:18:05Z</time>
      </trkpt>
      <trkpt lat="45.48511" lon="2.46404">
        <ele>677.99</ele>
        <time>2022-08-16T11:18:06Z</time>
      </trkpt>
      <trkpt lat="45.48574" lon="2.46379">
        <ele>679.16</ele>
        <time>2022-08-16T11:18:10Z</time>
      </trkpt>
      <trkpt lat="45.4859" lon="2.46379">
        <ele>679.17</ele>
        <time>2022-08-16T11:18:11Z</time>
      </trkpt>
      <trkpt lat="45.48608" lon="2.46384">
        <ele>679.25</ele>
        <time>2022-08-16T11:18:12Z</time>
      </trkpt>
      <trkpt lat="45.48626" lon="2.46392">
        <ele>679.25</ele>
        <time>2022-08-16T11:18:13Z</time>
      </trkpt>
      <trkpt lat="45.48643" lon="2.46403">
        <ele>679.29</ele>
        <time>2022-08-16T11:18:14Z</time>
      </trkpt>
      <trkpt lat="45.4866" lon="2.46415">
        <ele>679.39</ele>
        <time>2022-08-16T11:18:15Z</time>
      </trkpt>
      <trkpt lat="45.48692" lon="2.46437">
        <ele>676.33</ele>
        <time>2022-08-16T11:18:17Z</time>
      </trkpt>
      <trkpt lat="45.48708" lon="2.46448">
        <ele>676.22</ele>
        <time>2022-08-16T11:18:18Z</time>
      </trkpt>
      <trkpt lat="45.48739" lon="2.4647">
        <ele>675.01</ele>
        <time>2022-08-16T11:18:20Z</time>
      </trkpt>
      <trkpt lat="45.48788" lon="2.465">
        <ele>673.65</ele>
        <time>2022-08-16T11:18:23Z</time>
      </trkpt>
      <trkpt lat="45.48806" lon="2.46503">
        <ele>673.64</ele>
        <time>2022-08-16T11:18:24Z</time>
      </trkpt>
      <trkpt lat="45.48826" lon="2.46501">
        <ele>672.48</ele>
        <time>2022-08-16T11:18:25Z</time>
      </trkpt>
      <trkpt lat="45.48943" lon="2.46475">
        <ele>676.41</ele>
        <time>2022-08-16T11:18:30Z</time>
      </trkpt>
      <trkpt lat="45.48985" lon="2.46466">
        <ele>677.21</ele>
        <time>2022-08-16T11:18:32Z</time>
      </trkpt>
      <trkpt lat="45.49096" lon="2.46443">
        <ele>677.47</ele>
        <time>2022-08-16T11:18:39Z</time>
      </trkpt>
      <trkpt lat="45.49175" lon="2.46426">
        <ele>679.93</ele>
        <time>2022-08-16T11:18:45Z</time>
      </trkpt>
      <trkpt lat="45.49233" lon="2.46416">
        <ele>682.86</ele>
        <time>2022-08-16T11:18:49Z</time>
      </trkpt>
      <trkpt lat="45.49264" lon="2.46408">
        <ele>684.76</ele>
        <time>2022-08-16T11:18:51Z</time>
      </trkpt>
      <trkpt lat="45.49312" lon="2.46397">
        <ele>686.79</ele>
        <time>2022-08-16T11:18:54Z</time>
      </trkpt>
      <trkpt lat="45.49397" lon="2.46379">
        <ele>683.44</ele>
        <time>2022-08-16T11:19:00Z</time>
      </trkpt>
      <trkpt lat="45.49428" lon="2.46372">
        <ele>682.29</ele>
        <time>2022-08-16T11:19:02Z</time>
      </trkpt>
      <trkpt lat="45.49482" lon="2.4636">
        <ele>680.35</ele>
        <time>2022-08-16T11:19:05Z</time>
      </trkpt>
      <trkpt lat="45.49547" lon="2.46346">
        <ele>683.57</ele>
        <time>2022-08-16T11:19:08Z</time>
      </trkpt>
      <trkpt lat="45.4957" lon="2.46341">
        <ele>683.59</ele>
        <time>2022-08-16T11:19:09Z</time>
      </trkpt>
      <trkpt lat="45.49615" lon="2.46331">
        <ele>684.99</ele>
        <time>2022-08-16T11:19:11Z</time>
      </trkpt>
      <trkpt lat="45.49703" lon="2.46313">
        <ele>687.68</ele>
        <time>2022-08-16T11:19:15Z</time>
      </trkpt>
      <trkpt lat="45.49767" lon="2.463">
        <ele>690.47</ele>
        <time>2022-08-16T11:19:18Z</time>
      </trkpt>
      <trkpt lat="45.49829" lon="2.46287">
        <ele>694.19</ele>
        <time>2022-08-16T11:19:21Z</time>
      </trkpt>
      <trkpt lat="45.49869" lon="2.46279">
        <ele>695.34</ele>
        <time>2022-08-16T11:19:23Z</time>
      </trkpt>
      <trkpt lat="45.49947" lon="2.46262">
        <ele>698.24</ele>
        <time>2022-08-16T11:19:27Z</time>
      </trkpt>
      <trkpt lat="45.50009" lon="2.46248">
        <ele>699.57</ele>
        <time>2022-08-16T11:19:30Z</time>
      </trkpt>
      <trkpt lat="45.50164" lon="2.46214">
        <ele>695.72</ele>
        <time>2022-08-16T11:19:37Z</time>
      </trkpt>
      <trkpt lat="45.50227" lon="2.46202">
        <ele>691.79</ele>
        <time>2022-08-16T11:19:40Z</time>
      </trkpt>
      <trkpt lat="45.50265" lon="2.46194">
        <ele>690.71</ele>
        <time>2022-08-16T11:19:42Z</time>
      </trkpt>
      <trkpt lat="45.50389" lon="2.46167">
        <ele>693.19</ele>
        <time>2022-08-16T11:19:48Z</time>
      </trkpt>
      <trkpt lat="45.50455" lon="2.46153">
        <ele>696.35</ele>
        <time>2022-08-16T11:19:51Z</time>
      </trkpt>
      <trkpt lat="45.50477" lon="2.46148">
        <ele>696.38</ele>
        <time>2022-08-16T11:19:52Z</time>
      </trkpt>
      <trkpt lat="45.5063" lon="2.46117">
        <ele>698.32</ele>
        <time>2022-08-16T11:20:00Z</time>
      </trkpt>
      <trkpt lat="45.50687" lon="2.46104">
        <ele>700.43</ele>
        <time>2022-08-16T11:20:03Z</time>
      </trkpt>
      <trkpt lat="45.50746" lon="2.46091">
        <ele>703.86</ele>
        <time>2022-08-16T11:20:06Z</time>
      </trkpt>
      <trkpt lat="45.50784" lon="2.46083">
        <ele>704.71</ele>
        <time>2022-08-16T11:20:08Z</time>
      </trkpt>
      <trkpt lat="45.50822" lon="2.46075">
        <ele>706.23</ele>
        <time>2022-08-16T11:20:10Z</time>
      </trkpt>
      <trkpt lat="45.50962" lon="2.46044">
        <ele>707.87</ele>
        <time>2022-08-16T11:20:18Z</time>
      </trkpt>
      <trkpt lat="45.51012" lon="2.46037">
        <ele>708.86</ele>
        <time>2022-08-16T11:20:21Z</time>
      </trkpt>
      <trkpt lat="45.51027" lon="2.46038">
        <ele>708.87</ele>
        <time>2022-08-16T11:20:22Z</time>
      </trkpt>
      <trkpt lat="45.51041" lon="2.46042">
        <ele>708.84</ele>
        <time>2022-08-16T11:20:23Z</time>
      </trkpt>
      <trkpt lat="45.51078" lon="2.4605">
        <ele>710.91</ele>
        <time>2022-08-16T11:20:26Z</time>
      </trkpt>
      <trkpt lat="45.5109" lon="2.46049">
        <ele>710.92</ele>
        <time>2022-08-16T11:20:27Z</time>
      </trkpt>
      <trkpt lat="45.51102" lon="2.46045">
        <ele>711.93</ele>
        <time>2022-08-16T11:20:28Z</time>
      </trkpt>
      <trkpt lat="45.51112" lon="2.46037">
        <ele>711.93</ele>
        <time>2022-08-16T11:20:29Z</time>
      </trkpt>
      <trkpt lat="45.51122" lon="2.46027">
        <ele>712.83</ele>
        <time>2022-08-16T11:20:30Z</time>
      </trkpt>
      <trkpt lat="45.51144" lon="2.4601">
        <ele>714.05</ele>
        <time>2022-08-16T11:20:32Z</time>
      </trkpt>
      <trkpt lat="45.51156" lon="2.46003">
        <ele>714.06</ele>
        <time>2022-08-16T11:20:33Z</time>
      </trkpt>
      <trkpt lat="45.51168" lon="2.45998">
        <ele>714.12</ele>
        <time>2022-08-16T11:20:34Z</time>
      </trkpt>
      <trkpt lat="45.51207" lon="2.45985">
        <ele>715.64</ele>
        <time>2022-08-16T11:20:37Z</time>
      </trkpt>
      <trkpt lat="45.51293" lon="2.45969">
        <ele>715.36</ele>
        <time>2022-08-16T11:20:43Z</time>
      </trkpt>
      <trkpt lat="45.51306" lon="2.45971">
        <ele>715.41</ele>
        <time>2022-08-16T11:20:44Z</time>
      </trkpt>
      <trkpt lat="45.5134" lon="2.45979">
        <ele>715.45</ele>
        <time>2022-08-16T11:20:47Z</time>
      </trkpt>
      <trkpt lat="45.51351" lon="2.45978">
        <ele>715.49</ele>
        <time>2022-08-16T11:20:48Z</time>
      </trkpt>
      <trkpt lat="45.51362" lon="2.45976">
        <ele>715.49</ele>
        <time>2022-08-16T11:20:49Z</time>
      </trkpt>
      <trkpt lat="45.51428" lon="2.45955">
        <ele>715.46</ele>
        <time>2022-08-16T11:20:55Z</time>
      </trkpt>
      <trkpt lat="45.51438" lon="2.45949">
        <ele>715.43</ele>
        <time>2022-08-16T11:20:56Z</time>
      </trkpt>
      <trkpt lat="45.51446" lon="2.45941">
        <ele>715.44</ele>
        <time>2022-08-16T11:20:57Z</time>
      </trkpt>
      <trkpt lat="45.5153" lon="2.45865">
        <ele>713.23</ele>
        <time>2022-08-16T11:21:06Z</time>
      </trkpt>
      <trkpt lat="45.51552" lon="2.45841">
        <ele>712.04</ele>
        <time>2022-08-16T11:21:08Z</time>
      </trkpt>
      <trkpt lat="45.51564" lon="2.45831">
        <ele>710.71</ele>
        <time>2022-08-16T11:21:09Z</time>
      </trkpt>
      <trkpt lat="45.51578" lon="2.45824">
        <ele>710.71</ele>
        <time>2022-08-16T11:21:10Z</time>
      </trkpt>
      <trkpt lat="45.51592" lon="2.45821">
        <ele>708.28</ele>
        <time>2022-08-16T11:21:11Z</time>
      </trkpt>
      <trkpt lat="45.51607" lon="2.45819">
        <ele>707.19</ele>
        <time>2022-08-16T11:21:12Z</time>
      </trkpt>
      <trkpt lat="45.51637" lon="2.45815">
        <ele>705.86</ele>
        <time>2022-08-16T11:21:14Z</time>
      </trkpt>
      <trkpt lat="45.51652" lon="2.45811">
        <ele>704.31</ele>
        <time>2022-08-16T11:21:15Z</time>
      </trkpt>
      <trkpt lat="45.51666" lon="2.45804">
        <ele>703.6</ele>
        <time>2022-08-16T11:21:16Z</time>
      </trkpt>
      <trkpt lat="45.51709" lon="2.45779">
        <ele>701.2</ele>
        <time>2022-08-16T11:21:19Z</time>
      </trkpt>
      <trkpt lat="45.51738" lon="2.45762">
        <ele>697.75</ele>
        <time>2022-08-16T11:21:21Z</time>
      </trkpt>
      <trkpt lat="45.51767" lon="2.45745">
        <ele>694.62</ele>
        <time>2022-08-16T11:21:23Z</time>
      </trkpt>
      <trkpt lat="45.51781" lon="2.45737">
        <ele>694.61</ele>
        <time>2022-08-16T11:21:24Z</time>
      </trkpt>
      <trkpt lat="45.51807" lon="2.45717">
        <ele>691.65</ele>
        <time>2022-08-16T11:21:26Z</time>
      </trkpt>
      <trkpt lat="45.51818" lon="2.45704">
        <ele>689.81</ele>
        <time>2022-08-16T11:21:27Z</time>
      </trkpt>
      <trkpt lat="45.51826" lon="2.45689">
        <ele>689.83</ele>
        <time>2022-08-16T11:21:28Z</time>
      </trkpt>
      <trkpt lat="45.51831" lon="2.45671">
        <ele>687.81</ele>
        <time>2022-08-16T11:21:29Z</time>
      </trkpt>
      <trkpt lat="45.51833" lon="2.45652">
        <ele>686.93</ele>
        <time>2022-08-16T11:21:30Z</time>
      </trkpt>
      <trkpt lat="45.51832" lon="2.45632">
        <ele>686.81</ele>
        <time>2022-08-16T11:21:31Z</time>
      </trkpt>
      <trkpt lat="45.51827" lon="2.45612">
        <ele>685.59</ele>
        <time>2022-08-16T11:21:32Z</time>
      </trkpt>
      <trkpt lat="45.5182" lon="2.45595">
        <ele>684.23</ele>
        <time>2022-08-16T11:21:33Z</time>
      </trkpt>
      <trkpt lat="45.51813" lon="2.45579">
        <ele>684.29</ele>
        <time>2022-08-16T11:21:34Z</time>
      </trkpt>
      <trkpt lat="45.51808" lon="2.45563">
        <ele>682.65</ele>
        <time>2022-08-16T11:21:35Z</time>
      </trkpt>
      <trkpt lat="45.51805" lon="2.45546">
        <ele>681.9</ele>
        <time>2022-08-16T11:21:36Z</time>
      </trkpt>
      <trkpt lat="45.51805" lon="2.4553">
        <ele>680.45</ele>
        <time>2022-08-16T11:21:37Z</time>
      </trkpt>
      <trkpt lat="45.51807" lon="2.45514">
        <ele>678.93</ele>
        <time>2022-08-16T11:21:38Z</time>
      </trkpt>
      <trkpt lat="45.51813" lon="2.455">
        <ele>678.97</ele>
        <time>2022-08-16T11:21:39Z</time>
      </trkpt>
      <trkpt lat="45.51821" lon="2.45489">
        <ele>677.03</ele>
        <time>2022-08-16T11:21:40Z</time>
      </trkpt>
      <trkpt lat="45.51832" lon="2.4548">
        <ele>676.21</ele>
        <time>2022-08-16T11:21:41Z</time>
      </trkpt>
      <trkpt lat="45.51845" lon="2.45476">
        <ele>676.22</ele>
        <time>2022-08-16T11:21:42Z</time>
      </trkpt>
      <trkpt lat="45.5186" lon="2.45477">
        <ele>676.08</ele>
        <time>2022-08-16T11:21:43Z</time>
      </trkpt>
      <trkpt lat="45.51874" lon="2.45484">
        <ele>675.37</ele>
        <time>2022-08-16T11:21:44Z</time>
      </trkpt>
      <trkpt lat="45.51887" lon="2.45494">
        <ele>675.28</ele>
        <time>2022-08-16T11:21:45Z</time>
      </trkpt>
      <trkpt lat="45.519" lon="2.45507">
        <ele>674.28</ele>
        <time>2022-08-16T11:21:46Z</time>
      </trkpt>
      <trkpt lat="45.51911" lon="2.4552">
        <ele>672.97</ele>
        <time>2022-08-16T11:21:47Z</time>
      </trkpt>
      <trkpt lat="45.51921" lon="2.45535">
        <ele>671.79</ele>
        <time>2022-08-16T11:21:48Z</time>
      </trkpt>
      <trkpt lat="45.51931" lon="2.45549">
        <ele>671.74</ele>
        <time>2022-08-16T11:21:49Z</time>
      </trkpt>
      <trkpt lat="45.51941" lon="2.45562">
        <ele>670.76</ele>
        <time>2022-08-16T11:21:50Z</time>
      </trkpt>
      <trkpt lat="45.51952" lon="2.45572">
        <ele>669.61</ele>
        <time>2022-08-16T11:21:51Z</time>
      </trkpt>
      <trkpt lat="45.51963" lon="2.45577">
        <ele>668.59</ele>
        <time>2022-08-16T11:21:52Z</time>
      </trkpt>
      <trkpt lat="45.51975" lon="2.45577">
        <ele>668.51</ele>
        <time>2022-08-16T11:21:53Z</time>
      </trkpt>
      <trkpt lat="45.51988" lon="2.4557">
        <ele>668.51</ele>
        <time>2022-08-16T11:21:54Z</time>
      </trkpt>
      <trkpt lat="45.52001" lon="2.4556">
        <ele>668.53</ele>
        <time>2022-08-16T11:21:55Z</time>
      </trkpt>
      <trkpt lat="45.52013" lon="2.45548">
        <ele>667.39</ele>
        <time>2022-08-16T11:21:56Z</time>
      </trkpt>
      <trkpt lat="45.52044" lon="2.4551">
        <ele>664.21</ele>
        <time>2022-08-16T11:21:59Z</time>
      </trkpt>
      <trkpt lat="45.52051" lon="2.45495">
        <ele>663.26</ele>
        <time>2022-08-16T11:22:00Z</time>
      </trkpt>
      <trkpt lat="45.52057" lon="2.45476">
        <ele>663.27</ele>
        <time>2022-08-16T11:22:01Z</time>
      </trkpt>
      <trkpt lat="45.5206" lon="2.45457">
        <ele>662.38</ele>
        <time>2022-08-16T11:22:02Z</time>
      </trkpt>
      <trkpt lat="45.52063" lon="2.45436">
        <ele>662.29</ele>
        <time>2022-08-16T11:22:03Z</time>
      </trkpt>
      <trkpt lat="45.52066" lon="2.45415">
        <ele>661.43</ele>
        <time>2022-08-16T11:22:04Z</time>
      </trkpt>
      <trkpt lat="45.52073" lon="2.45376">
        <ele>660.48</ele>
        <time>2022-08-16T11:22:06Z</time>
      </trkpt>
      <trkpt lat="45.52079" lon="2.45358">
        <ele>659.2</ele>
        <time>2022-08-16T11:22:07Z</time>
      </trkpt>
      <trkpt lat="45.52089" lon="2.45341">
        <ele>658.4</ele>
        <time>2022-08-16T11:22:08Z</time>
      </trkpt>
      <trkpt lat="45.52102" lon="2.45325">
        <ele>658.39</ele>
        <time>2022-08-16T11:22:09Z</time>
      </trkpt>
      <trkpt lat="45.52215" lon="2.45215">
        <ele>655.92</ele>
        <time>2022-08-16T11:22:16Z</time>
      </trkpt>
      <trkpt lat="45.5223" lon="2.45204">
        <ele>655.91</ele>
        <time>2022-08-16T11:22:17Z</time>
      </trkpt>
      <trkpt lat="45.52274" lon="2.45179">
        <ele>652.05</ele>
        <time>2022-08-16T11:22:20Z</time>
      </trkpt>
      <trkpt lat="45.52287" lon="2.45173">
        <ele>651.93</ele>
        <time>2022-08-16T11:22:21Z</time>
      </trkpt>
      <trkpt lat="45.52327" lon="2.45158">
        <ele>651.04</ele>
        <time>2022-08-16T11:22:24Z</time>
      </trkpt>
      <trkpt lat="45.5234" lon="2.45157">
        <ele>651.04</ele>
        <time>2022-08-16T11:22:25Z</time>
      </trkpt>
      <trkpt lat="45.52353" lon="2.45159">
        <ele>651.05</ele>
        <time>2022-08-16T11:22:26Z</time>
      </trkpt>
      <trkpt lat="45.52366" lon="2.45164">
        <ele>650.98</ele>
        <time>2022-08-16T11:22:27Z</time>
      </trkpt>
      <trkpt lat="45.52379" lon="2.4517">
        <ele>653.5</ele>
        <time>2022-08-16T11:22:28Z</time>
      </trkpt>
      <trkpt lat="45.52417" lon="2.45189">
        <ele>655.62</ele>
        <time>2022-08-16T11:22:31Z</time>
      </trkpt>
      <trkpt lat="45.52429" lon="2.45198">
        <ele>657.14</ele>
        <time>2022-08-16T11:22:32Z</time>
      </trkpt>
      <trkpt lat="45.5244" lon="2.45209">
        <ele>658.27</ele>
        <time>2022-08-16T11:22:33Z</time>
      </trkpt>
      <trkpt lat="45.5245" lon="2.45222">
        <ele>658.33</ele>
        <time>2022-08-16T11:22:34Z</time>
      </trkpt>
      <trkpt lat="45.52459" lon="2.45236">
        <ele>659.84</ele>
        <time>2022-08-16T11:22:35Z</time>
      </trkpt>
      <trkpt lat="45.52468" lon="2.45251">
        <ele>661.2</ele>
        <time>2022-08-16T11:22:36Z</time>
      </trkpt>
      <trkpt lat="45.52496" lon="2.45299">
        <ele>665.09</ele>
        <time>2022-08-16T11:22:39Z</time>
      </trkpt>
      <trkpt lat="45.52515" lon="2.45331">
        <ele>666.19</ele>
        <time>2022-08-16T11:22:41Z</time>
      </trkpt>
      <trkpt lat="45.52535" lon="2.45363">
        <ele>667.53</ele>
        <time>2022-08-16T11:22:43Z</time>
      </trkpt>
      <trkpt lat="45.52546" lon="2.45377">
        <ele>669.29</ele>
        <time>2022-08-16T11:22:44Z</time>
      </trkpt>
      <trkpt lat="45.52558" lon="2.45389">
        <ele>670.45</ele>
        <time>2022-08-16T11:22:45Z</time>
      </trkpt>
      <trkpt lat="45.52571" lon="2.45398">
        <ele>671.35</ele>
        <time>2022-08-16T11:22:46Z</time>
      </trkpt>
      <trkpt lat="45.52598" lon="2.45417">
        <ele>672.63</ele>
        <time>2022-08-16T11:22:48Z</time>
      </trkpt>
      <trkpt lat="45.52611" lon="2.45429">
        <ele>673.61</ele>
        <time>2022-08-16T11:22:49Z</time>
      </trkpt>
      <trkpt lat="45.52623" lon="2.45442">
        <ele>674.78</ele>
        <time>2022-08-16T11:22:50Z</time>
      </trkpt>
      <trkpt lat="45.52657" lon="2.45484">
        <ele>677.52</ele>
        <time>2022-08-16T11:22:53Z</time>
      </trkpt>
      <trkpt lat="45.52667" lon="2.455">
        <ele>678.41</ele>
        <time>2022-08-16T11:22:54Z</time>
      </trkpt>
      <trkpt lat="45.52674" lon="2.45517">
        <ele>679.74</ele>
        <time>2022-08-16T11:22:55Z</time>
      </trkpt>
      <trkpt lat="45.5268" lon="2.45536">
        <ele>680.57</ele>
        <time>2022-08-16T11:22:56Z</time>
      </trkpt>
      <trkpt lat="45.52693" lon="2.45576">
        <ele>682.9</ele>
        <time>2022-08-16T11:22:58Z</time>
      </trkpt>
      <trkpt lat="45.52701" lon="2.45595">
        <ele>684.07</ele>
        <time>2022-08-16T11:22:59Z</time>
      </trkpt>
      <trkpt lat="45.5272" lon="2.45632">
        <ele>685.7</ele>
        <time>2022-08-16T11:23:01Z</time>
      </trkpt>
      <trkpt lat="45.52738" lon="2.45667">
        <ele>688.85</ele>
        <time>2022-08-16T11:23:03Z</time>
      </trkpt>
      <trkpt lat="45.52747" lon="2.45682">
        <ele>690.16</ele>
        <time>2022-08-16T11:23:04Z</time>
      </trkpt>
      <trkpt lat="45.52758" lon="2.45692">
        <ele>690.16</ele>
        <time>2022-08-16T11:23:05Z</time>
      </trkpt>
      <trkpt lat="45.5277" lon="2.45698">
        <ele>692.34</ele>
        <time>2022-08-16T11:23:06Z</time>
      </trkpt>
      <trkpt lat="45.52783" lon="2.45701">
        <ele>693.76</ele>
        <time>2022-08-16T11:23:07Z</time>
      </trkpt>
      <trkpt lat="45.52798" lon="2.45701">
        <ele>695.29</ele>
        <time>2022-08-16T11:23:08Z</time>
      </trkpt>
      <trkpt lat="45.52826" lon="2.45701">
        <ele>696.85</ele>
        <time>2022-08-16T11:23:10Z</time>
      </trkpt>
      <trkpt lat="45.52839" lon="2.45704">
        <ele>698.21</ele>
        <time>2022-08-16T11:23:11Z</time>
      </trkpt>
      <trkpt lat="45.52851" lon="2.4571">
        <ele>698.34</ele>
        <time>2022-08-16T11:23:12Z</time>
      </trkpt>
      <trkpt lat="45.52862" lon="2.45721">
        <ele>698.35</ele>
        <time>2022-08-16T11:23:13Z</time>
      </trkpt>
      <trkpt lat="45.52872" lon="2.45733">
        <ele>700.21</ele>
        <time>2022-08-16T11:23:14Z</time>
      </trkpt>
      <trkpt lat="45.52881" lon="2.45748">
        <ele>700.34</ele>
        <time>2022-08-16T11:23:15Z</time>
      </trkpt>
      <trkpt lat="45.52888" lon="2.45765">
        <ele>701.85</ele>
        <time>2022-08-16T11:23:16Z</time>
      </trkpt>
      <trkpt lat="45.52894" lon="2.45783">
        <ele>703.02</ele>
        <time>2022-08-16T11:23:17Z</time>
      </trkpt>
      <trkpt lat="45.52896" lon="2.45802">
        <ele>703.95</ele>
        <time>2022-08-16T11:23:18Z</time>
      </trkpt>
      <trkpt lat="45.52896" lon="2.45821">
        <ele>705.01</ele>
        <time>2022-08-16T11:23:19Z</time>
      </trkpt>
      <trkpt lat="45.52895" lon="2.45841">
        <ele>705.88</ele>
        <time>2022-08-16T11:23:20Z</time>
      </trkpt>
      <trkpt lat="45.52896" lon="2.45861">
        <ele>707.3</ele>
        <time>2022-08-16T11:23:21Z</time>
      </trkpt>
      <trkpt lat="45.52899" lon="2.45881">
        <ele>708.2</ele>
        <time>2022-08-16T11:23:22Z</time>
      </trkpt>
      <trkpt lat="45.52906" lon="2.45899">
        <ele>708.32</ele>
        <time>2022-08-16T11:23:23Z</time>
      </trkpt>
      <trkpt lat="45.52914" lon="2.45914">
        <ele>709.75</ele>
        <time>2022-08-16T11:23:24Z</time>
      </trkpt>
      <trkpt lat="45.52923" lon="2.45927">
        <ele>709.82</ele>
        <time>2022-08-16T11:23:25Z</time>
      </trkpt>
      <trkpt lat="45.52932" lon="2.45941">
        <ele>711.55</ele>
        <time>2022-08-16T11:23:26Z</time>
      </trkpt>
      <trkpt lat="45.52941" lon="2.45958">
        <ele>712.78</ele>
        <time>2022-08-16T11:23:27Z</time>
      </trkpt>
      <trkpt lat="45.52948" lon="2.45978">
        <ele>714.17</ele>
        <time>2022-08-16T11:23:28Z</time>
      </trkpt>
      <trkpt lat="45.52955" lon="2.45998">
        <ele>715.18</ele>
        <time>2022-08-16T11:23:29Z</time>
      </trkpt>
      <trkpt lat="45.52962" lon="2.46019">
        <ele>715.21</ele>
        <time>2022-08-16T11:23:30Z</time>
      </trkpt>
      <trkpt lat="45.52969" lon="2.46039">
        <ele>717.05</ele>
        <time>2022-08-16T11:23:31Z</time>
      </trkpt>
      <trkpt lat="45.52977" lon="2.46059">
        <ele>717.08</ele>
        <time>2022-08-16T11:23:32Z</time>
      </trkpt>
      <trkpt lat="45.52986" lon="2.46078">
        <ele>719.19</ele>
        <time>2022-08-16T11:23:33Z</time>
      </trkpt>
      <trkpt lat="45.52997" lon="2.46096">
        <ele>719.17</ele>
        <time>2022-08-16T11:23:34Z</time>
      </trkpt>
      <trkpt lat="45.53009" lon="2.46112">
        <ele>720.46</ele>
        <time>2022-08-16T11:23:35Z</time>
      </trkpt>
      <trkpt lat="45.53023" lon="2.46127">
        <ele>721.6</ele>
        <time>2022-08-16T11:23:36Z</time>
      </trkpt>
      <trkpt lat="45.53038" lon="2.46139">
        <ele>723.21</ele>
        <time>2022-08-16T11:23:37Z</time>
      </trkpt>
      <trkpt lat="45.53052" lon="2.4615">
        <ele>723.22</ele>
        <time>2022-08-16T11:23:38Z</time>
      </trkpt>
      <trkpt lat="45.5308" lon="2.46174">
        <ele>725.01</ele>
        <time>2022-08-16T11:23:40Z</time>
      </trkpt>
      <trkpt lat="45.53104" lon="2.46202">
        <ele>726.91</ele>
        <time>2022-08-16T11:23:42Z</time>
      </trkpt>
      <trkpt lat="45.53139" lon="2.46242">
        <ele>729.82</ele>
        <time>2022-08-16T11:23:45Z</time>
      </trkpt>
      <trkpt lat="45.53151" lon="2.46252">
        <ele>730.93</ele>
        <time>2022-08-16T11:23:46Z</time>
      </trkpt>
      <trkpt lat="45.53163" lon="2.46259">
        <ele>732.03</ele>
        <time>2022-08-16T11:23:47Z</time>
      </trkpt>
      <trkpt lat="45.53176" lon="2.46265">
        <ele>732.01</ele>
        <time>2022-08-16T11:23:48Z</time>
      </trkpt>
      <trkpt lat="45.5319" lon="2.46269">
        <ele>733.69</ele>
        <time>2022-08-16T11:23:49Z</time>
      </trkpt>
      <trkpt lat="45.53204" lon="2.46271">
        <ele>734.65</ele>
        <time>2022-08-16T11:23:50Z</time>
      </trkpt>
      <trkpt lat="45.53218" lon="2.46269">
        <ele>735.71</ele>
        <time>2022-08-16T11:23:51Z</time>
      </trkpt>
      <trkpt lat="45.53232" lon="2.46266">
        <ele>736.5</ele>
        <time>2022-08-16T11:23:52Z</time>
      </trkpt>
      <trkpt lat="45.53246" lon="2.4626">
        <ele>737.56</ele>
        <time>2022-08-16T11:23:53Z</time>
      </trkpt>
      <trkpt lat="45.5326" lon="2.46252">
        <ele>737.5</ele>
        <time>2022-08-16T11:23:54Z</time>
      </trkpt>
      <trkpt lat="45.53274" lon="2.46242">
        <ele>738.46</ele>
        <time>2022-08-16T11:23:55Z</time>
      </trkpt>
      <trkpt lat="45.53287" lon="2.46231">
        <ele>738.5</ele>
        <time>2022-08-16T11:23:56Z</time>
      </trkpt>
      <trkpt lat="45.53312" lon="2.46211">
        <ele>739.83</ele>
        <time>2022-08-16T11:23:58Z</time>
      </trkpt>
      <trkpt lat="45.53337" lon="2.46196">
        <ele>739.89</ele>
        <time>2022-08-16T11:24:00Z</time>
      </trkpt>
      <trkpt lat="45.53352" lon="2.46194">
        <ele>741.58</ele>
        <time>2022-08-16T11:24:01Z</time>
      </trkpt>
      <trkpt lat="45.53367" lon="2.46194">
        <ele>741.61</ele>
        <time>2022-08-16T11:24:02Z</time>
      </trkpt>
      <trkpt lat="45.53499" lon="2.46201">
        <ele>743.8</ele>
        <time>2022-08-16T11:24:09Z</time>
      </trkpt>
      <trkpt lat="45.5354" lon="2.46198">
        <ele>745.03</ele>
        <time>2022-08-16T11:24:11Z</time>
      </trkpt>
      <trkpt lat="45.53664" lon="2.46189">
        <ele>747.99</ele>
        <time>2022-08-16T11:24:18Z</time>
      </trkpt>
      <trkpt lat="45.53679" lon="2.4619">
        <ele>748.04</ele>
        <time>2022-08-16T11:24:19Z</time>
      </trkpt>
      <trkpt lat="45.53694" lon="2.46194">
        <ele>747.95</ele>
        <time>2022-08-16T11:24:20Z</time>
      </trkpt>
      <trkpt lat="45.53709" lon="2.46202">
        <ele>749.43</ele>
        <time>2022-08-16T11:24:21Z</time>
      </trkpt>
      <trkpt lat="45.53722" lon="2.46212">
        <ele>749.38</ele>
        <time>2022-08-16T11:24:22Z</time>
      </trkpt>
      <trkpt lat="45.53788" lon="2.4626">
        <ele>751.17</ele>
        <time>2022-08-16T11:24:28Z</time>
      </trkpt>
      <trkpt lat="45.53798" lon="2.46265">
        <ele>751.2</ele>
        <time>2022-08-16T11:24:29Z</time>
      </trkpt>
      <trkpt lat="45.53809" lon="2.46268">
        <ele>751.18</ele>
        <time>2022-08-16T11:24:30Z</time>
      </trkpt>
      <trkpt lat="45.5382" lon="2.4627">
        <ele>751.26</ele>
        <time>2022-08-16T11:24:31Z</time>
      </trkpt>
      <trkpt lat="45.53832" lon="2.46269">
        <ele>752.17</ele>
        <time>2022-08-16T11:24:32Z</time>
      </trkpt>
      <trkpt lat="45.53845" lon="2.46268">
        <ele>752.96</ele>
        <time>2022-08-16T11:24:33Z</time>
      </trkpt>
      <trkpt lat="45.53858" lon="2.46266">
        <ele>752.98</ele>
        <time>2022-08-16T11:24:34Z</time>
      </trkpt>
      <trkpt lat="45.53903" lon="2.46262">
        <ele>756.18</ele>
        <time>2022-08-16T11:24:37Z</time>
      </trkpt>
      <trkpt lat="45.53938" lon="2.46258">
        <ele>757.39</ele>
        <time>2022-08-16T11:24:39Z</time>
      </trkpt>
      <trkpt lat="45.53975" lon="2.46253">
        <ele>758.74</ele>
        <time>2022-08-16T11:24:41Z</time>
      </trkpt>
      <trkpt lat="45.54014" lon="2.46246">
        <ele>759.95</ele>
        <time>2022-08-16T11:24:43Z</time>
      </trkpt>
      <trkpt lat="45.54106" lon="2.46229">
        <ele>757.51</ele>
        <time>2022-08-16T11:24:48Z</time>
      </trkpt>
      <trkpt lat="45.54219" lon="2.46208">
        <ele>755.62</ele>
        <time>2022-08-16T11:24:54Z</time>
      </trkpt>
      <trkpt lat="45.54283" lon="2.46194">
        <ele>753.08</ele>
        <time>2022-08-16T11:24:58Z</time>
      </trkpt>
      <trkpt lat="45.54325" lon="2.46192">
        <ele>752.05</ele>
        <time>2022-08-16T11:25:01Z</time>
      </trkpt>
      <trkpt lat="45.54337" lon="2.46196">
        <ele>752.1</ele>
        <time>2022-08-16T11:25:02Z</time>
      </trkpt>
      <trkpt lat="45.54349" lon="2.46204">
        <ele>752.09</ele>
        <time>2022-08-16T11:25:03Z</time>
      </trkpt>
      <trkpt lat="45.5436" lon="2.46216">
        <ele>752.13</ele>
        <time>2022-08-16T11:25:04Z</time>
      </trkpt>
      <trkpt lat="45.54369" lon="2.4623">
        <ele>752.16</ele>
        <time>2022-08-16T11:25:05Z</time>
      </trkpt>
      <trkpt lat="45.54377" lon="2.46245">
        <ele>752.19</ele>
        <time>2022-08-16T11:25:06Z</time>
      </trkpt>
      <trkpt lat="45.54395" lon="2.46284">
        <ele>752.18</ele>
        <time>2022-08-16T11:25:09Z</time>
      </trkpt>
      <trkpt lat="45.54399" lon="2.46299">
        <ele>752.22</ele>
        <time>2022-08-16T11:25:10Z</time>
      </trkpt>
      <trkpt lat="45.54429" lon="2.46456">
        <ele>752.52</ele>
        <time>2022-08-16T11:25:18Z</time>
      </trkpt>
      <trkpt lat="45.54434" lon="2.46478">
        <ele>755.71</ele>
        <time>2022-08-16T11:25:19Z</time>
      </trkpt>
      <trkpt lat="45.5445" lon="2.46555">
        <ele>758.26</ele>
        <time>2022-08-16T11:25:22Z</time>
      </trkpt>
      <trkpt lat="45.5446" lon="2.46608">
        <ele>758.29</ele>
        <time>2022-08-16T11:25:24Z</time>
      </trkpt>
      <trkpt lat="45.54499" lon="2.46818">
        <ele>756.8</ele>
        <time>2022-08-16T11:25:32Z</time>
      </trkpt>
      <trkpt lat="45.54539" lon="2.47009">
        <ele>759.25</ele>
        <time>2022-08-16T11:25:40Z</time>
      </trkpt>
      <trkpt lat="45.54574" lon="2.47177">
        <ele>757.7</ele>
        <time>2022-08-16T11:25:50Z</time>
      </trkpt>
      <trkpt lat="45.54574" lon="2.47187">
        <ele>757.67</ele>
        <time>2022-08-16T11:25:51Z</time>
      </trkpt>
      <trkpt lat="45.54572" lon="2.47195">
        <ele>756.59</ele>
        <time>2022-08-16T11:25:52Z</time>
      </trkpt>
      <trkpt lat="45.54568" lon="2.47203">
        <ele>756.61</ele>
        <time>2022-08-16T11:25:53Z</time>
      </trkpt>
      <trkpt lat="45.54563" lon="2.47208">
        <ele>756.61</ele>
        <time>2022-08-16T11:25:54Z</time>
      </trkpt>
      <trkpt lat="45.54556" lon="2.47213">
        <ele>756.63</ele>
        <time>2022-08-16T11:25:55Z</time>
      </trkpt>
      <trkpt lat="45.54542" lon="2.47219">
        <ele>756.63</ele>
        <time>2022-08-16T11:25:56Z</time>
      </trkpt>
      <trkpt lat="45.54529" lon="2.47226">
        <ele>756.63</ele>
        <time>2022-08-16T11:25:57Z</time>
      </trkpt>
      <trkpt lat="45.54487" lon="2.4725">
        <ele>756.7</ele>
        <time>2022-08-16T11:26:00Z</time>
      </trkpt>
      <trkpt lat="45.54361" lon="2.47361">
        <ele>756.93</ele>
        <time>2022-08-16T11:26:09Z</time>
      </trkpt>
      <trkpt lat="45.54349" lon="2.47377">
        <ele>756.94</ele>
        <time>2022-08-16T11:26:10Z</time>
      </trkpt>
      <trkpt lat="45.5434" lon="2.47394">
        <ele>756.96</ele>
        <time>2022-08-16T11:26:11Z</time>
      </trkpt>
      <trkpt lat="45.54333" lon="2.47412">
        <ele>756.09</ele>
        <time>2022-08-16T11:26:12Z</time>
      </trkpt>
      <trkpt lat="45.54328" lon="2.47432">
        <ele>756.09</ele>
        <time>2022-08-16T11:26:13Z</time>
      </trkpt>
      <trkpt lat="45.54325" lon="2.47451">
        <ele>756.08</ele>
        <time>2022-08-16T11:26:14Z</time>
      </trkpt>
      <trkpt lat="45.54323" lon="2.47469">
        <ele>756.08</ele>
        <time>2022-08-16T11:26:15Z</time>
      </trkpt>
      <trkpt lat="45.54302" lon="2.47662">
        <ele>755.26</ele>
        <time>2022-08-16T11:26:25Z</time>
      </trkpt>
      <trkpt lat="45.54297" lon="2.47729">
        <ele>758.13</ele>
        <time>2022-08-16T11:26:28Z</time>
      </trkpt>
      <trkpt lat="45.543" lon="2.47796">
        <ele>760.53</ele>
        <time>2022-08-16T11:26:31Z</time>
      </trkpt>
      <trkpt lat="45.54326" lon="2.47954">
        <ele>761.98</ele>
        <time>2022-08-16T11:26:37Z</time>
      </trkpt>
      <trkpt lat="45.54342" lon="2.48045">
        <ele>758.35</ele>
        <time>2022-08-16T11:26:40Z</time>
      </trkpt>
      <trkpt lat="45.54347" lon="2.48072">
        <ele>758.36</ele>
        <time>2022-08-16T11:26:41Z</time>
      </trkpt>
      <trkpt lat="45.54361" lon="2.48153">
        <ele>755.87</ele>
        <time>2022-08-16T11:26:44Z</time>
      </trkpt>
      <trkpt lat="45.54373" lon="2.48227">
        <ele>751.4</ele>
        <time>2022-08-16T11:26:47Z</time>
      </trkpt>
      <trkpt lat="45.54378" lon="2.48252">
        <ele>751.38</ele>
        <time>2022-08-16T11:26:48Z</time>
      </trkpt>
      <trkpt lat="45.54387" lon="2.48304">
        <ele>749.52</ele>
        <time>2022-08-16T11:26:50Z</time>
      </trkpt>
      <trkpt lat="45.54397" lon="2.48358">
        <ele>747.87</ele>
        <time>2022-08-16T11:26:52Z</time>
      </trkpt>
      <trkpt lat="45.54424" lon="2.48516">
        <ele>744.82</ele>
        <time>2022-08-16T11:26:58Z</time>
      </trkpt>
      <trkpt lat="45.54432" lon="2.48562">
        <ele>743.79</ele>
        <time>2022-08-16T11:27:00Z</time>
      </trkpt>
      <trkpt lat="45.54438" lon="2.48626">
        <ele>743.48</ele>
        <time>2022-08-16T11:27:03Z</time>
      </trkpt>
      <trkpt lat="45.5443" lon="2.48741">
        <ele>745.88</ele>
        <time>2022-08-16T11:27:08Z</time>
      </trkpt>
      <trkpt lat="45.54408" lon="2.48903">
        <ele>749.03</ele>
        <time>2022-08-16T11:27:15Z</time>
      </trkpt>
      <trkpt lat="45.54398" lon="2.48979">
        <ele>750.62</ele>
        <time>2022-08-16T11:27:18Z</time>
      </trkpt>
      <trkpt lat="45.5439" lon="2.49036">
        <ele>752.23</ele>
        <time>2022-08-16T11:27:20Z</time>
      </trkpt>
      <trkpt lat="45.54362" lon="2.49243">
        <ele>751.97</ele>
        <time>2022-08-16T11:27:28Z</time>
      </trkpt>
      <trkpt lat="45.54339" lon="2.49433">
        <ele>752.06</ele>
        <time>2022-08-16T11:27:37Z</time>
      </trkpt>
      <trkpt lat="45.54315" lon="2.49621">
        <ele>752.94</ele>
        <time>2022-08-16T11:27:48Z</time>
      </trkpt>
      <trkpt lat="45.54308" lon="2.49651">
        <ele>752.95</ele>
        <time>2022-08-16T11:27:51Z</time>
      </trkpt>
      <trkpt lat="45.54305" lon="2.49657">
        <ele>752.97</ele>
        <time>2022-08-16T11:27:52Z</time>
      </trkpt>
      <trkpt lat="45.543" lon="2.49662">
        <ele>752.97</ele>
        <time>2022-08-16T11:27:53Z</time>
      </trkpt>
      <trkpt lat="45.54294" lon="2.49665">
        <ele>752.98</ele>
        <time>2022-08-16T11:27:54Z</time>
      </trkpt>
      <trkpt lat="45.54287" lon="2.49668">
        <ele>752.99</ele>
        <time>2022-08-16T11:27:55Z</time>
      </trkpt>
      <trkpt lat="45.54201" lon="2.49707">
        <ele>753.08</ele>
        <time>2022-08-16T11:28:03Z</time>
      </trkpt>
      <trkpt lat="45.54058" lon="2.49774">
        <ele>753.27</ele>
        <time>2022-08-16T11:28:16Z</time>
      </trkpt>
      <trkpt lat="45.53976" lon="2.49816">
        <ele>750.94</ele>
        <time>2022-08-16T11:28:23Z</time>
      </trkpt>
      <trkpt lat="45.53849" lon="2.49904">
        <ele>751.13</ele>
        <time>2022-08-16T11:28:35Z</time>
      </trkpt>
      <trkpt lat="45.53718" lon="2.49957">
        <ele>749.33</ele>
        <time>2022-08-16T11:28:45Z</time>
      </trkpt>
      <trkpt lat="45.53634" lon="2.49982">
        <ele>746.22</ele>
        <time>2022-08-16T11:28:52Z</time>
      </trkpt>
      <trkpt lat="45.53529" lon="2.50014">
        <ele>746.36</ele>
        <time>2022-08-16T11:29:01Z</time>
      </trkpt>
      <trkpt lat="45.53468" lon="2.50028">
        <ele>744.36</ele>
        <time>2022-08-16T11:29:06Z</time>
      </trkpt>
      <trkpt lat="45.53457" lon="2.50028">
        <ele>744.38</ele>
        <time>2022-08-16T11:29:07Z</time>
      </trkpt>
      <trkpt lat="45.53447" lon="2.50027">
        <ele>742.96</ele>
        <time>2022-08-16T11:29:08Z</time>
      </trkpt>
      <trkpt lat="45.53439" lon="2.50024">
        <ele>742.96</ele>
        <time>2022-08-16T11:29:09Z</time>
      </trkpt>
      <trkpt lat="45.5343" lon="2.5002">
        <ele>741.88</ele>
        <time>2022-08-16T11:29:10Z</time>
      </trkpt>
      <trkpt lat="45.53377" lon="2.4999">
        <ele>738.18</ele>
        <time>2022-08-16T11:29:15Z</time>
      </trkpt>
      <trkpt lat="45.53355" lon="2.49978">
        <ele>735.55</ele>
        <time>2022-08-16T11:29:17Z</time>
      </trkpt>
      <trkpt lat="45.53344" lon="2.49976">
        <ele>734.69</ele>
        <time>2022-08-16T11:29:18Z</time>
      </trkpt>
      <trkpt lat="45.53333" lon="2.49976">
        <ele>734.63</ele>
        <time>2022-08-16T11:29:19Z</time>
      </trkpt>
      <trkpt lat="45.53322" lon="2.4998">
        <ele>734.62</ele>
        <time>2022-08-16T11:29:20Z</time>
      </trkpt>
      <trkpt lat="45.5331" lon="2.49985">
        <ele>734.65</ele>
        <time>2022-08-16T11:29:21Z</time>
      </trkpt>
      <trkpt lat="45.53299" lon="2.49992">
        <ele>734.69</ele>
        <time>2022-08-16T11:29:22Z</time>
      </trkpt>
      <trkpt lat="45.53288" lon="2.50002">
        <ele>734.71</ele>
        <time>2022-08-16T11:29:23Z</time>
      </trkpt>
      <trkpt lat="45.53276" lon="2.50012">
        <ele>734.72</ele>
        <time>2022-08-16T11:29:24Z</time>
      </trkpt>
      <trkpt lat="45.53165" lon="2.50133">
        <ele>733.51</ele>
        <time>2022-08-16T11:29:36Z</time>
      </trkpt>
      <trkpt lat="45.53109" lon="2.50197">
        <ele>733.61</ele>
        <time>2022-08-16T11:29:45Z</time>
      </trkpt>
      <trkpt lat="45.53073" lon="2.50218">
        <ele>731.29</ele>
        <time>2022-08-16T11:29:54Z</time>
      </trkpt>
      <trkpt lat="45.53045" lon="2.5023">
        <ele>729.4</ele>
        <time>2022-08-16T11:30:00Z</time>
      </trkpt>
      <trkpt lat="45.5304" lon="2.50234">
        <ele>728.22</ele>
        <time>2022-08-16T11:30:01Z</time>
      </trkpt>
      <trkpt lat="45.53011" lon="2.50264">
        <ele>725.57</ele>
        <time>2022-08-16T11:30:06Z</time>
      </trkpt>
      <trkpt lat="45.52991" lon="2.50286">
        <ele>723.34</ele>
        <time>2022-08-16T11:30:09Z</time>
      </trkpt>
      <trkpt lat="45.52945" lon="2.50346">
        <ele>720.8</ele>
        <time>2022-08-16T11:30:15Z</time>
      </trkpt>
      <trkpt lat="45.52913" lon="2.50406">
        <ele>717.27</ele>
        <time>2022-08-16T11:30:21Z</time>
      </trkpt>
      <trkpt lat="45.52902" lon="2.50423">
        <ele>716.11</ele>
        <time>2022-08-16T11:30:23Z</time>
      </trkpt>
      <trkpt lat="45.52872" lon="2.50459">
        <ele>713.67</ele>
        <time>2022-08-16T11:30:28Z</time>
      </trkpt>
      <trkpt lat="45.52861" lon="2.50468">
        <ele>712.27</ele>
        <time>2022-08-16T11:30:30Z</time>
      </trkpt>
      <trkpt lat="45.52855" lon="2.50471">
        <ele>711.1</ele>
        <time>2022-08-16T11:30:31Z</time>
      </trkpt>
      <trkpt lat="45.52849" lon="2.50474">
        <ele>711.09</ele>
        <time>2022-08-16T11:30:32Z</time>
      </trkpt>
      <trkpt lat="45.52836" lon="2.50479">
        <ele>709.87</ele>
        <time>2022-08-16T11:30:34Z</time>
      </trkpt>
      <trkpt lat="45.52829" lon="2.5048">
        <ele>708.93</ele>
        <time>2022-08-16T11:30:35Z</time>
      </trkpt>
      <trkpt lat="45.52822" lon="2.50482">
        <ele>707.4</ele>
        <time>2022-08-16T11:30:36Z</time>
      </trkpt>
      <trkpt lat="45.52795" lon="2.5049">
        <ele>703.61</ele>
        <time>2022-08-16T11:30:39Z</time>
      </trkpt>
      <trkpt lat="45.52775" lon="2.50493">
        <ele>700.49</ele>
        <time>2022-08-16T11:30:41Z</time>
      </trkpt>
      <trkpt lat="45.52754" lon="2.50496">
        <ele>697.05</ele>
        <time>2022-08-16T11:30:43Z</time>
      </trkpt>
      <trkpt lat="45.52744" lon="2.505">
        <ele>695.44</ele>
        <time>2022-08-16T11:30:44Z</time>
      </trkpt>
      <trkpt lat="45.52716" lon="2.50513">
        <ele>691.8</ele>
        <time>2022-08-16T11:30:47Z</time>
      </trkpt>
      <trkpt lat="45.52707" lon="2.50516">
        <ele>690.76</ele>
        <time>2022-08-16T11:30:48Z</time>
      </trkpt>
      <trkpt lat="45.52699" lon="2.50516">
        <ele>690.2</ele>
        <time>2022-08-16T11:30:49Z</time>
      </trkpt>
      <trkpt lat="45.5269" lon="2.50515">
        <ele>688.87</ele>
        <time>2022-08-16T11:30:50Z</time>
      </trkpt>
      <trkpt lat="45.52681" lon="2.50512">
        <ele>688</ele>
        <time>2022-08-16T11:30:51Z</time>
      </trkpt>
      <trkpt lat="45.52673" lon="2.5051">
        <ele>686.96</ele>
        <time>2022-08-16T11:30:52Z</time>
      </trkpt>
      <trkpt lat="45.52664" lon="2.50507">
        <ele>686.97</ele>
        <time>2022-08-16T11:30:53Z</time>
      </trkpt>
      <trkpt lat="45.52638" lon="2.505">
        <ele>684.94</ele>
        <time>2022-08-16T11:30:56Z</time>
      </trkpt>
      <trkpt lat="45.52622" lon="2.50496">
        <ele>683.57</ele>
        <time>2022-08-16T11:30:58Z</time>
      </trkpt>
      <trkpt lat="45.52613" lon="2.50495">
        <ele>681.59</ele>
        <time>2022-08-16T11:30:59Z</time>
      </trkpt>
      <trkpt lat="45.52605" lon="2.50493">
        <ele>681.69</ele>
        <time>2022-08-16T11:31:00Z</time>
      </trkpt>
      <trkpt lat="45.52596" lon="2.50494">
        <ele>680.32</ele>
        <time>2022-08-16T11:31:01Z</time>
      </trkpt>
      <trkpt lat="45.52586" lon="2.50495">
        <ele>680.32</ele>
        <time>2022-08-16T11:31:02Z</time>
      </trkpt>
      <trkpt lat="45.52568" lon="2.50496">
        <ele>678.64</ele>
        <time>2022-08-16T11:31:04Z</time>
      </trkpt>
      <trkpt lat="45.52539" lon="2.50499">
        <ele>674.8</ele>
        <time>2022-08-16T11:31:07Z</time>
      </trkpt>
      <trkpt lat="45.5251" lon="2.50507">
        <ele>671.36</ele>
        <time>2022-08-16T11:31:10Z</time>
      </trkpt>
      <trkpt lat="45.52482" lon="2.50519">
        <ele>667.68</ele>
        <time>2022-08-16T11:31:13Z</time>
      </trkpt>
      <trkpt lat="45.52465" lon="2.50529">
        <ele>663.92</ele>
        <time>2022-08-16T11:31:15Z</time>
      </trkpt>
      <trkpt lat="45.52448" lon="2.50539">
        <ele>660.66</ele>
        <time>2022-08-16T11:31:17Z</time>
      </trkpt>
      <trkpt lat="45.52432" lon="2.50551">
        <ele>657.36</ele>
        <time>2022-08-16T11:31:19Z</time>
      </trkpt>
      <trkpt lat="45.52416" lon="2.50563">
        <ele>655.59</ele>
        <time>2022-08-16T11:31:21Z</time>
      </trkpt>
      <trkpt lat="45.524" lon="2.50577">
        <ele>652.5</ele>
        <time>2022-08-16T11:31:23Z</time>
      </trkpt>
      <trkpt lat="45.52375" lon="2.50603">
        <ele>648.2</ele>
        <time>2022-08-16T11:31:26Z</time>
      </trkpt>
      <trkpt lat="45.5236" lon="2.5062">
        <ele>645.03</ele>
        <time>2022-08-16T11:31:28Z</time>
      </trkpt>
      <trkpt lat="45.52345" lon="2.50637">
        <ele>641.95</ele>
        <time>2022-08-16T11:31:30Z</time>
      </trkpt>
      <trkpt lat="45.52332" lon="2.50657">
        <ele>638.91</ele>
        <time>2022-08-16T11:31:32Z</time>
      </trkpt>
      <trkpt lat="45.52316" lon="2.50689">
        <ele>635.95</ele>
        <time>2022-08-16T11:31:35Z</time>
      </trkpt>
      <trkpt lat="45.52306" lon="2.50714">
        <ele>632.22</ele>
        <time>2022-08-16T11:31:37Z</time>
      </trkpt>
      <trkpt lat="45.52301" lon="2.50729">
        <ele>630.39</ele>
        <time>2022-08-16T11:31:38Z</time>
      </trkpt>
      <trkpt lat="45.52298" lon="2.50745">
        <ele>628.48</ele>
        <time>2022-08-16T11:31:39Z</time>
      </trkpt>
      <trkpt lat="45.52292" lon="2.50776">
        <ele>625.37</ele>
        <time>2022-08-16T11:31:41Z</time>
      </trkpt>
      <trkpt lat="45.52288" lon="2.50804">
        <ele>621.43</ele>
        <time>2022-08-16T11:31:43Z</time>
      </trkpt>
      <trkpt lat="45.52286" lon="2.50831">
        <ele>617.92</ele>
        <time>2022-08-16T11:31:45Z</time>
      </trkpt>
      <trkpt lat="45.52287" lon="2.50844">
        <ele>617.27</ele>
        <time>2022-08-16T11:31:46Z</time>
      </trkpt>
      <trkpt lat="45.52286" lon="2.50855">
        <ele>615.72</ele>
        <time>2022-08-16T11:31:47Z</time>
      </trkpt>
      <trkpt lat="45.52284" lon="2.50867">
        <ele>614.43</ele>
        <time>2022-08-16T11:31:48Z</time>
      </trkpt>
      <trkpt lat="45.52281" lon="2.50879">
        <ele>613.2</ele>
        <time>2022-08-16T11:31:49Z</time>
      </trkpt>
      <trkpt lat="45.52278" lon="2.50891">
        <ele>611.76</ele>
        <time>2022-08-16T11:31:50Z</time>
      </trkpt>
      <trkpt lat="45.52275" lon="2.50903">
        <ele>610.03</ele>
        <time>2022-08-16T11:31:51Z</time>
      </trkpt>
      <trkpt lat="45.52271" lon="2.50915">
        <ele>610.07</ele>
        <time>2022-08-16T11:31:52Z</time>
      </trkpt>
      <trkpt lat="45.52266" lon="2.50926">
        <ele>607.93</ele>
        <time>2022-08-16T11:31:53Z</time>
      </trkpt>
      <trkpt lat="45.5226" lon="2.50936">
        <ele>606.53</ele>
        <time>2022-08-16T11:31:54Z</time>
      </trkpt>
      <trkpt lat="45.52252" lon="2.50944">
        <ele>606.64</ele>
        <time>2022-08-16T11:31:55Z</time>
      </trkpt>
      <trkpt lat="45.52245" lon="2.50951">
        <ele>605.16</ele>
        <time>2022-08-16T11:31:56Z</time>
      </trkpt>
      <trkpt lat="45.52238" lon="2.50959">
        <ele>603.77</ele>
        <time>2022-08-16T11:31:57Z</time>
      </trkpt>
      <trkpt lat="45.52233" lon="2.50968">
        <ele>603.7</ele>
        <time>2022-08-16T11:31:58Z</time>
      </trkpt>
      <trkpt lat="45.52228" lon="2.50979">
        <ele>603.72</ele>
        <time>2022-08-16T11:31:59Z</time>
      </trkpt>
      <trkpt lat="45.5222" lon="2.50999">
        <ele>602.38</ele>
        <time>2022-08-16T11:32:01Z</time>
      </trkpt>
      <trkpt lat="45.52215" lon="2.51008">
        <ele>601.75</ele>
        <time>2022-08-16T11:32:02Z</time>
      </trkpt>
      <trkpt lat="45.52186" lon="2.51065">
        <ele>600.76</ele>
        <time>2022-08-16T11:32:07Z</time>
      </trkpt>
      <trkpt lat="45.52167" lon="2.5111">
        <ele>596.75</ele>
        <time>2022-08-16T11:32:11Z</time>
      </trkpt>
      <trkpt lat="45.52157" lon="2.51141">
        <ele>593.16</ele>
        <time>2022-08-16T11:32:14Z</time>
      </trkpt>
      <trkpt lat="45.52152" lon="2.5115">
        <ele>591.97</ele>
        <time>2022-08-16T11:32:15Z</time>
      </trkpt>
      <trkpt lat="45.52147" lon="2.51158">
        <ele>590.69</ele>
        <time>2022-08-16T11:32:16Z</time>
      </trkpt>
      <trkpt lat="45.52141" lon="2.51166">
        <ele>589.58</ele>
        <time>2022-08-16T11:32:17Z</time>
      </trkpt>
      <trkpt lat="45.52121" lon="2.51191">
        <ele>586.11</ele>
        <time>2022-08-16T11:32:20Z</time>
      </trkpt>
      <trkpt lat="45.52115" lon="2.51197">
        <ele>584.61</ele>
        <time>2022-08-16T11:32:21Z</time>
      </trkpt>
      <trkpt lat="45.5211" lon="2.51202">
        <ele>583.12</ele>
        <time>2022-08-16T11:32:22Z</time>
      </trkpt>
      <trkpt lat="45.52103" lon="2.51205">
        <ele>583.15</ele>
        <time>2022-08-16T11:32:23Z</time>
      </trkpt>
      <trkpt lat="45.52085" lon="2.51218">
        <ele>580.31</ele>
        <time>2022-08-16T11:32:26Z</time>
      </trkpt>
      <trkpt lat="45.5208" lon="2.51223">
        <ele>578.48</ele>
        <time>2022-08-16T11:32:27Z</time>
      </trkpt>
      <trkpt lat="45.52076" lon="2.51229">
        <ele>578.48</ele>
        <time>2022-08-16T11:32:28Z</time>
      </trkpt>
      <trkpt lat="45.52068" lon="2.51239">
        <ele>575.86</ele>
        <time>2022-08-16T11:32:30Z</time>
      </trkpt>
      <trkpt lat="45.52063" lon="2.51241">
        <ele>574.91</ele>
        <time>2022-08-16T11:32:31Z</time>
      </trkpt>
      <trkpt lat="45.52057" lon="2.5124">
        <ele>573.97</ele>
        <time>2022-08-16T11:32:32Z</time>
      </trkpt>
      <trkpt lat="45.52052" lon="2.51237">
        <ele>573.07</ele>
        <time>2022-08-16T11:32:33Z</time>
      </trkpt>
      <trkpt lat="45.52049" lon="2.51231">
        <ele>571.55</ele>
        <time>2022-08-16T11:32:34Z</time>
      </trkpt>
      <trkpt lat="45.52047" lon="2.51224">
        <ele>571.52</ele>
        <time>2022-08-16T11:32:35Z</time>
      </trkpt>
      <trkpt lat="45.52044" lon="2.51218">
        <ele>570.49</ele>
        <time>2022-08-16T11:32:36Z</time>
      </trkpt>
      <trkpt lat="45.52041" lon="2.51216">
        <ele>570.4</ele>
        <time>2022-08-16T11:32:37Z</time>
      </trkpt>
      <trkpt lat="45.52039" lon="2.51218">
        <ele>570.41</ele>
        <time>2022-08-16T11:32:38Z</time>
      </trkpt>
      <trkpt lat="45.52038" lon="2.51223">
        <ele>570.24</ele>
        <time>2022-08-16T11:32:39Z</time>
      </trkpt>
      <trkpt lat="45.52039" lon="2.5123">
        <ele>570.35</ele>
        <time>2022-08-16T11:32:40Z</time>
      </trkpt>
      <trkpt lat="45.5204" lon="2.51236">
        <ele>569.1</ele>
        <time>2022-08-16T11:32:41Z</time>
      </trkpt>
      <trkpt lat="45.52042" lon="2.51243">
        <ele>568.24</ele>
        <time>2022-08-16T11:32:42Z</time>
      </trkpt>
      <trkpt lat="45.52044" lon="2.51251">
        <ele>568.28</ele>
        <time>2022-08-16T11:32:43Z</time>
      </trkpt>
      <trkpt lat="45.52055" lon="2.51288">
        <ele>566.02</ele>
        <time>2022-08-16T11:32:47Z</time>
      </trkpt>
      <trkpt lat="45.52065" lon="2.51319">
        <ele>562.62</ele>
        <time>2022-08-16T11:32:50Z</time>
      </trkpt>
      <trkpt lat="45.52072" lon="2.51338">
        <ele>559.28</ele>
        <time>2022-08-16T11:32:52Z</time>
      </trkpt>
      <trkpt lat="45.52074" lon="2.51346">
        <ele>559.29</ele>
        <time>2022-08-16T11:32:53Z</time>
      </trkpt>
      <trkpt lat="45.52076" lon="2.51355">
        <ele>557.85</ele>
        <time>2022-08-16T11:32:54Z</time>
      </trkpt>
      <trkpt lat="45.52076" lon="2.51362">
        <ele>557.85</ele>
        <time>2022-08-16T11:32:55Z</time>
      </trkpt>
      <trkpt lat="45.52075" lon="2.51368">
        <ele>556.15</ele>
        <time>2022-08-16T11:32:56Z</time>
      </trkpt>
      <trkpt lat="45.52071" lon="2.51374">
        <ele>556.16</ele>
        <time>2022-08-16T11:32:57Z</time>
      </trkpt>
      <trkpt lat="45.52066" lon="2.5138">
        <ele>554.73</ele>
        <time>2022-08-16T11:32:58Z</time>
      </trkpt>
      <trkpt lat="45.52062" lon="2.51386">
        <ele>554.66</ele>
        <time>2022-08-16T11:32:59Z</time>
      </trkpt>
      <trkpt lat="45.52058" lon="2.51393">
        <ele>553.5</ele>
        <time>2022-08-16T11:33:00Z</time>
      </trkpt>
      <trkpt lat="45.52057" lon="2.51401">
        <ele>553.42</ele>
        <time>2022-08-16T11:33:01Z</time>
      </trkpt>
      <trkpt lat="45.52059" lon="2.5141">
        <ele>551.63</ele>
        <time>2022-08-16T11:33:02Z</time>
      </trkpt>
      <trkpt lat="45.5206" lon="2.51418">
        <ele>551.58</ele>
        <time>2022-08-16T11:33:03Z</time>
      </trkpt>
      <trkpt lat="45.52064" lon="2.51425">
        <ele>550.3</ele>
        <time>2022-08-16T11:33:04Z</time>
      </trkpt>
      <trkpt lat="45.52068" lon="2.51431">
        <ele>550.31</ele>
        <time>2022-08-16T11:33:05Z</time>
      </trkpt>
      <trkpt lat="45.52071" lon="2.51437">
        <ele>550.2</ele>
        <time>2022-08-16T11:33:06Z</time>
      </trkpt>
      <trkpt lat="45.52083" lon="2.51454">
        <ele>547.47</ele>
        <time>2022-08-16T11:33:09Z</time>
      </trkpt>
      <trkpt lat="45.52085" lon="2.5146">
        <ele>546.16</ele>
        <time>2022-08-16T11:33:10Z</time>
      </trkpt>
      <trkpt lat="45.52086" lon="2.51466">
        <ele>545.13</ele>
        <time>2022-08-16T11:33:11Z</time>
      </trkpt>
      <trkpt lat="45.52087" lon="2.51471">
        <ele>544.34</ele>
        <time>2022-08-16T11:33:12Z</time>
      </trkpt>
      <trkpt lat="45.52086" lon="2.51475">
        <ele>544.3</ele>
        <time>2022-08-16T11:33:13Z</time>
      </trkpt>
      <trkpt lat="45.52086" lon="2.51477">
        <ele>543</ele>
        <time>2022-08-16T11:33:14Z</time>
      </trkpt>
      <trkpt lat="45.52086" lon="2.51478">
        <ele>542.96</ele>
        <time>2022-08-16T11:33:15Z</time>
      </trkpt>
      <trkpt lat="45.52085" lon="2.51479">
        <ele>542.83</ele>
        <time>2022-08-16T11:33:17Z</time>
      </trkpt>
      <trkpt lat="45.5207" lon="2.51474">
        <ele>541.96</ele>
        <time>2022-08-16T11:33:27Z</time>
      </trkpt>
      <trkpt lat="45.52069" lon="2.5147">
        <ele>541.98</ele>
        <time>2022-08-16T11:33:28Z</time>
      </trkpt>
      <trkpt lat="45.52066" lon="2.51465">
        <ele>541.97</ele>
        <time>2022-08-16T11:33:30Z</time>
      </trkpt>
      <trkpt lat="45.52063" lon="2.51466">
        <ele>540.6</ele>
        <time>2022-08-16T11:33:31Z</time>
      </trkpt>
      <trkpt lat="45.52062" lon="2.5147">
        <ele>540.6</ele>
        <time>2022-08-16T11:33:32Z</time>
      </trkpt>
      <trkpt lat="45.52062" lon="2.51473">
        <ele>540.61</ele>
        <time>2022-08-16T11:33:33Z</time>
      </trkpt>
      <trkpt lat="45.52063" lon="2.51475">
        <ele>540.62</ele>
        <time>2022-08-16T11:33:34Z</time>
      </trkpt>
      <trkpt lat="45.52066" lon="2.51476">
        <ele>540.62</ele>
        <time>2022-08-16T11:33:35Z</time>
      </trkpt>
      <trkpt lat="45.52069" lon="2.51477">
        <ele>540.64</ele>
        <time>2022-08-16T11:33:36Z</time>
      </trkpt>
      <trkpt lat="45.52081" lon="2.51485">
        <ele>540.68</ele>
        <time>2022-08-16T11:33:42Z</time>
      </trkpt>
      <trkpt lat="45.52081" lon="2.51487">
        <ele>540.7</ele>
        <time>2022-08-16T11:33:43Z</time>
      </trkpt>
      <trkpt lat="45.5208" lon="2.5149">
        <ele>540.66</ele>
        <time>2022-08-16T11:33:44Z</time>
      </trkpt>
      <trkpt lat="45.5208" lon="2.51492">
        <ele>540.66</ele>
        <time>2022-08-16T11:33:45Z</time>
      </trkpt>
      <trkpt lat="45.52078" lon="2.51494">
        <ele>540.66</ele>
        <time>2022-08-16T11:33:46Z</time>
      </trkpt>
      <trkpt lat="45.52076" lon="2.51495">
        <ele>540.66</ele>
        <time>2022-08-16T11:33:47Z</time>
      </trkpt>
      <trkpt lat="45.52073" lon="2.51496">
        <ele>540.71</ele>
        <time>2022-08-16T11:33:48Z</time>
      </trkpt>
      <trkpt lat="45.52071" lon="2.51495">
        <ele>540.7</ele>
        <time>2022-08-16T11:33:49Z</time>
      </trkpt>
      <trkpt lat="45.52069" lon="2.51495">
        <ele>540.7</ele>
        <time>2022-08-16T11:33:50Z</time>
      </trkpt>
      <trkpt lat="45.52068" lon="2.51495">
        <ele>539.34</ele>
        <time>2022-08-16T11:33:51Z</time>
      </trkpt>
      <trkpt lat="45.52066" lon="2.51494">
        <ele>539.32</ele>
        <time>2022-08-16T11:33:52Z</time>
      </trkpt>
      <trkpt lat="45.52064" lon="2.51494">
        <ele>538.12</ele>
        <time>2022-08-16T11:33:53Z</time>
      </trkpt>
      <trkpt lat="45.52062" lon="2.51492">
        <ele>538.1</ele>
        <time>2022-08-16T11:33:54Z</time>
      </trkpt>
      <trkpt lat="45.5206" lon="2.51489">
        <ele>536.96</ele>
        <time>2022-08-16T11:33:55Z</time>
      </trkpt>
      <trkpt lat="45.52058" lon="2.51485">
        <ele>536.97</ele>
        <time>2022-08-16T11:33:56Z</time>
      </trkpt>
      <trkpt lat="45.5205" lon="2.51471">
        <ele>535.7</ele>
        <time>2022-08-16T11:33:59Z</time>
      </trkpt>
      <trkpt lat="45.52038" lon="2.51439">
        <ele>532.89</ele>
        <time>2022-08-16T11:34:07Z</time>
      </trkpt>
      <trkpt lat="45.52038" lon="2.51433">
        <ele>532.85</ele>
        <time>2022-08-16T11:34:08Z</time>
      </trkpt>
      <trkpt lat="45.52035" lon="2.51421">
        <ele>532.88</ele>
        <time>2022-08-16T11:34:10Z</time>
      </trkpt>
      <trkpt lat="45.52035" lon="2.51414">
        <ele>532.9</ele>
        <time>2022-08-16T11:34:11Z</time>
      </trkpt>
      <trkpt lat="45.52036" lon="2.51408">
        <ele>533.09</ele>
        <time>2022-08-16T11:34:12Z</time>
      </trkpt>
      <trkpt lat="45.52036" lon="2.51403">
        <ele>532.84</ele>
        <time>2022-08-16T11:34:13Z</time>
      </trkpt>
      <trkpt lat="45.52036" lon="2.51398">
        <ele>532.88</ele>
        <time>2022-08-16T11:34:14Z</time>
      </trkpt>
      <trkpt lat="45.52029" lon="2.51411">
        <ele>533.03</ele>
        <time>2022-08-16T11:34:18Z</time>
      </trkpt>
      <trkpt lat="45.52031" lon="2.51418">
        <ele>533.03</ele>
        <time>2022-08-16T11:34:19Z</time>
      </trkpt>
      <trkpt lat="45.52033" lon="2.51426">
        <ele>533.01</ele>
        <time>2022-08-16T11:34:20Z</time>
      </trkpt>
      <trkpt lat="45.52035" lon="2.51434">
        <ele>533</ele>
        <time>2022-08-16T11:34:21Z</time>
      </trkpt>
      <trkpt lat="45.5204" lon="2.51449">
        <ele>533</ele>
        <time>2022-08-16T11:34:23Z</time>
      </trkpt>
      <trkpt lat="45.52043" lon="2.51456">
        <ele>533</ele>
        <time>2022-08-16T11:34:24Z</time>
      </trkpt>
      <trkpt lat="45.52055" lon="2.5148">
        <ele>532.99</ele>
        <time>2022-08-16T11:34:27Z</time>
      </trkpt>
      <trkpt lat="45.52059" lon="2.51486">
        <ele>535.3</ele>
        <time>2022-08-16T11:34:28Z</time>
      </trkpt>
      <trkpt lat="45.52063" lon="2.5149">
        <ele>536.57</ele>
        <time>2022-08-16T11:34:29Z</time>
      </trkpt>
      <trkpt lat="45.52066" lon="2.51493">
        <ele>536.56</ele>
        <time>2022-08-16T11:34:30Z</time>
      </trkpt>
      <trkpt lat="45.52069" lon="2.51495">
        <ele>537.87</ele>
        <time>2022-08-16T11:34:31Z</time>
      </trkpt>
      <trkpt lat="45.52073" lon="2.51496">
        <ele>537.91</ele>
        <time>2022-08-16T11:34:32Z</time>
      </trkpt>
      <trkpt lat="45.52077" lon="2.51496">
        <ele>539.49</ele>
        <time>2022-08-16T11:34:33Z</time>
      </trkpt>
      <trkpt lat="45.52081" lon="2.51497">
        <ele>539.54</ele>
        <time>2022-08-16T11:34:34Z</time>
      </trkpt>
      <trkpt lat="45.52091" lon="2.51499">
        <ele>541.19</ele>
        <time>2022-08-16T11:34:41Z</time>
      </trkpt>
      <trkpt lat="45.52092" lon="2.51496">
        <ele>541.28</ele>
        <time>2022-08-16T11:35:05Z</time>
      </trkpt>
      <trkpt lat="45.52093" lon="2.51495">
        <ele>565.2</ele>
        <time>2022-08-16T11:35:09Z</time>
      </trkpt>
      <trkpt lat="45.52089" lon="2.51324">
        <ele>563.97</ele>
        <time>2022-08-16T11:43:02Z</time>
      </trkpt>
      <trkpt lat="45.52034" lon="2.5123">
        <ele>570.26</ele>
        <time>2022-08-16T11:43:08Z</time>
      </trkpt>
      <trkpt lat="45.52038" lon="2.51217">
        <ele>571.03</ele>
        <time>2022-08-16T11:43:10Z</time>
      </trkpt>
      <trkpt lat="45.52036" lon="2.51215">
        <ele>570.98</ele>
        <time>2022-08-16T11:43:11Z</time>
      </trkpt>
      <trkpt lat="45.52039" lon="2.51219">
        <ele>571.79</ele>
        <time>2022-08-16T11:43:12Z</time>
      </trkpt>
      <trkpt lat="45.5204" lon="2.51229">
        <ele>571.71</ele>
        <time>2022-08-16T11:43:13Z</time>
      </trkpt>
      <trkpt lat="45.52042" lon="2.51238">
        <ele>571.88</ele>
        <time>2022-08-16T11:43:14Z</time>
      </trkpt>
      <trkpt lat="45.52046" lon="2.51246">
        <ele>573.65</ele>
        <time>2022-08-16T11:43:15Z</time>
      </trkpt>
      <trkpt lat="45.52053" lon="2.51248">
        <ele>573.73</ele>
        <time>2022-08-16T11:43:16Z</time>
      </trkpt>
      <trkpt lat="45.52061" lon="2.51244">
        <ele>575.14</ele>
        <time>2022-08-16T11:43:17Z</time>
      </trkpt>
      <trkpt lat="45.52068" lon="2.51239">
        <ele>576.38</ele>
        <time>2022-08-16T11:43:18Z</time>
      </trkpt>
      <trkpt lat="45.52074" lon="2.5123">
        <ele>577.79</ele>
        <time>2022-08-16T11:43:19Z</time>
      </trkpt>
      <trkpt lat="45.52081" lon="2.5122">
        <ele>578.4</ele>
        <time>2022-08-16T11:43:20Z</time>
      </trkpt>
      <trkpt lat="45.5209" lon="2.51213">
        <ele>580.26</ele>
        <time>2022-08-16T11:43:21Z</time>
      </trkpt>
      <trkpt lat="45.52099" lon="2.51208">
        <ele>581.53</ele>
        <time>2022-08-16T11:43:22Z</time>
      </trkpt>
      <trkpt lat="45.52108" lon="2.51201">
        <ele>582.54</ele>
        <time>2022-08-16T11:43:23Z</time>
      </trkpt>
      <trkpt lat="45.52118" lon="2.51194">
        <ele>584.61</ele>
        <time>2022-08-16T11:43:24Z</time>
      </trkpt>
      <trkpt lat="45.52127" lon="2.51186">
        <ele>585.93</ele>
        <time>2022-08-16T11:43:25Z</time>
      </trkpt>
      <trkpt lat="45.52143" lon="2.51166">
        <ele>589.07</ele>
        <time>2022-08-16T11:43:27Z</time>
      </trkpt>
      <trkpt lat="45.52151" lon="2.51156">
        <ele>590.25</ele>
        <time>2022-08-16T11:43:28Z</time>
      </trkpt>
      <trkpt lat="45.52157" lon="2.51144">
        <ele>592.04</ele>
        <time>2022-08-16T11:43:29Z</time>
      </trkpt>
      <trkpt lat="45.52163" lon="2.51131">
        <ele>593.63</ele>
        <time>2022-08-16T11:43:30Z</time>
      </trkpt>
      <trkpt lat="45.52173" lon="2.51102">
        <ele>597.31</ele>
        <time>2022-08-16T11:43:32Z</time>
      </trkpt>
      <trkpt lat="45.52179" lon="2.51085">
        <ele>599.02</ele>
        <time>2022-08-16T11:43:33Z</time>
      </trkpt>
      <trkpt lat="45.52185" lon="2.51069">
        <ele>600.68</ele>
        <time>2022-08-16T11:43:34Z</time>
      </trkpt>
      <trkpt lat="45.52205" lon="2.51024">
        <ele>603.67</ele>
        <time>2022-08-16T11:43:37Z</time>
      </trkpt>
      <trkpt lat="45.52223" lon="2.50982">
        <ele>605.36</ele>
        <time>2022-08-16T11:43:40Z</time>
      </trkpt>
      <trkpt lat="45.52233" lon="2.50956">
        <ele>605.36</ele>
        <time>2022-08-16T11:43:42Z</time>
      </trkpt>
      <trkpt lat="45.52239" lon="2.50945">
        <ele>606.3</ele>
        <time>2022-08-16T11:43:43Z</time>
      </trkpt>
      <trkpt lat="45.52247" lon="2.50933">
        <ele>606.41</ele>
        <time>2022-08-16T11:43:44Z</time>
      </trkpt>
      <trkpt lat="45.52254" lon="2.50921">
        <ele>607.9</ele>
        <time>2022-08-16T11:43:45Z</time>
      </trkpt>
      <trkpt lat="45.5226" lon="2.50907">
        <ele>609.22</ele>
        <time>2022-08-16T11:43:46Z</time>
      </trkpt>
      <trkpt lat="45.52264" lon="2.50891">
        <ele>611.18</ele>
        <time>2022-08-16T11:43:47Z</time>
      </trkpt>
      <trkpt lat="45.52267" lon="2.50874">
        <ele>613.02</ele>
        <time>2022-08-16T11:43:48Z</time>
      </trkpt>
      <trkpt lat="45.52267" lon="2.50855">
        <ele>615.48</ele>
        <time>2022-08-16T11:43:49Z</time>
      </trkpt>
      <trkpt lat="45.52268" lon="2.50836">
        <ele>617.62</ele>
        <time>2022-08-16T11:43:50Z</time>
      </trkpt>
      <trkpt lat="45.5227" lon="2.50816">
        <ele>619.41</ele>
        <time>2022-08-16T11:43:51Z</time>
      </trkpt>
      <trkpt lat="45.52274" lon="2.50779">
        <ele>623.66</ele>
        <time>2022-08-16T11:43:53Z</time>
      </trkpt>
      <trkpt lat="45.5228" lon="2.50741">
        <ele>628.32</ele>
        <time>2022-08-16T11:43:55Z</time>
      </trkpt>
      <trkpt lat="45.52287" lon="2.50704">
        <ele>632.67</ele>
        <time>2022-08-16T11:43:57Z</time>
      </trkpt>
      <trkpt lat="45.52301" lon="2.50669">
        <ele>637.36</ele>
        <time>2022-08-16T11:43:59Z</time>
      </trkpt>
      <trkpt lat="45.52318" lon="2.50637">
        <ele>642.26</ele>
        <time>2022-08-16T11:44:01Z</time>
      </trkpt>
      <trkpt lat="45.5234" lon="2.50607">
        <ele>647.49</ele>
        <time>2022-08-16T11:44:03Z</time>
      </trkpt>
      <trkpt lat="45.52365" lon="2.50581">
        <ele>652.25</ele>
        <time>2022-08-16T11:44:05Z</time>
      </trkpt>
      <trkpt lat="45.52391" lon="2.50557">
        <ele>656.48</ele>
        <time>2022-08-16T11:44:07Z</time>
      </trkpt>
      <trkpt lat="45.52418" lon="2.50538">
        <ele>660.14</ele>
        <time>2022-08-16T11:44:09Z</time>
      </trkpt>
      <trkpt lat="45.52432" lon="2.5053">
        <ele>663.31</ele>
        <time>2022-08-16T11:44:10Z</time>
      </trkpt>
      <trkpt lat="45.52468" lon="2.5051">
        <ele>668.07</ele>
        <time>2022-08-16T11:44:13Z</time>
      </trkpt>
      <trkpt lat="45.52491" lon="2.505">
        <ele>671.43</ele>
        <time>2022-08-16T11:44:15Z</time>
      </trkpt>
      <trkpt lat="45.52516" lon="2.50495">
        <ele>675.42</ele>
        <time>2022-08-16T11:44:17Z</time>
      </trkpt>
      <trkpt lat="45.52545" lon="2.50491">
        <ele>679.77</ele>
        <time>2022-08-16T11:44:19Z</time>
      </trkpt>
      <trkpt lat="45.52585" lon="2.50493">
        <ele>683.17</ele>
        <time>2022-08-16T11:44:22Z</time>
      </trkpt>
      <trkpt lat="45.52626" lon="2.50502">
        <ele>686.79</ele>
        <time>2022-08-16T11:44:25Z</time>
      </trkpt>
      <trkpt lat="45.52655" lon="2.50509">
        <ele>688.88</ele>
        <time>2022-08-16T11:44:27Z</time>
      </trkpt>
      <trkpt lat="45.5268" lon="2.50513">
        <ele>689.85</ele>
        <time>2022-08-16T11:44:29Z</time>
      </trkpt>
      <trkpt lat="45.52693" lon="2.50512">
        <ele>691.81</ele>
        <time>2022-08-16T11:44:30Z</time>
      </trkpt>
      <trkpt lat="45.52705" lon="2.5051">
        <ele>693.15</ele>
        <time>2022-08-16T11:44:31Z</time>
      </trkpt>
      <trkpt lat="45.52717" lon="2.50505">
        <ele>694.82</ele>
        <time>2022-08-16T11:44:32Z</time>
      </trkpt>
      <trkpt lat="45.52729" lon="2.50499">
        <ele>696.24</ele>
        <time>2022-08-16T11:44:33Z</time>
      </trkpt>
      <trkpt lat="45.52756" lon="2.50488">
        <ele>699.95</ele>
        <time>2022-08-16T11:44:35Z</time>
      </trkpt>
      <trkpt lat="45.5277" lon="2.50485">
        <ele>702.02</ele>
        <time>2022-08-16T11:44:36Z</time>
      </trkpt>
      <trkpt lat="45.52797" lon="2.5048">
        <ele>706.61</ele>
        <time>2022-08-16T11:44:38Z</time>
      </trkpt>
      <trkpt lat="45.52821" lon="2.50474">
        <ele>709.56</ele>
        <time>2022-08-16T11:44:40Z</time>
      </trkpt>
      <trkpt lat="45.52832" lon="2.50469">
        <ele>712.19</ele>
        <time>2022-08-16T11:44:41Z</time>
      </trkpt>
      <trkpt lat="45.52842" lon="2.50463">
        <ele>713.64</ele>
        <time>2022-08-16T11:44:42Z</time>
      </trkpt>
      <trkpt lat="45.52853" lon="2.50454">
        <ele>715.5</ele>
        <time>2022-08-16T11:44:43Z</time>
      </trkpt>
      <trkpt lat="45.52863" lon="2.50444">
        <ele>715.41</ele>
        <time>2022-08-16T11:44:44Z</time>
      </trkpt>
      <trkpt lat="45.52874" lon="2.50432">
        <ele>717.5</ele>
        <time>2022-08-16T11:44:45Z</time>
      </trkpt>
      <trkpt lat="45.52885" lon="2.5042">
        <ele>717.64</ele>
        <time>2022-08-16T11:44:46Z</time>
      </trkpt>
      <trkpt lat="45.52895" lon="2.50405">
        <ele>719.19</ele>
        <time>2022-08-16T11:44:47Z</time>
      </trkpt>
      <trkpt lat="45.52905" lon="2.50388">
        <ele>721.62</ele>
        <time>2022-08-16T11:44:48Z</time>
      </trkpt>
      <trkpt lat="45.52934" lon="2.50339">
        <ele>724.2</ele>
        <time>2022-08-16T11:44:51Z</time>
      </trkpt>
      <trkpt lat="45.53004" lon="2.5026">
        <ele>726.17</ele>
        <time>2022-08-16T11:44:57Z</time>
      </trkpt>
      <trkpt lat="45.5303" lon="2.50238">
        <ele>728.18</ele>
        <time>2022-08-16T11:44:59Z</time>
      </trkpt>
      <trkpt lat="45.5305" lon="2.50224">
        <ele>731.02</ele>
        <time>2022-08-16T11:45:01Z</time>
      </trkpt>
      <trkpt lat="45.53057" lon="2.50221">
        <ele>730.95</ele>
        <time>2022-08-16T11:45:02Z</time>
      </trkpt>
      <trkpt lat="45.53064" lon="2.50218">
        <ele>732.31</ele>
        <time>2022-08-16T11:45:03Z</time>
      </trkpt>
      <trkpt lat="45.5307" lon="2.50217">
        <ele>732.29</ele>
        <time>2022-08-16T11:45:04Z</time>
      </trkpt>
      <trkpt lat="45.53088" lon="2.5021">
        <ele>733.39</ele>
        <time>2022-08-16T11:45:07Z</time>
      </trkpt>
      <trkpt lat="45.5315" lon="2.50156">
        <ele>736.55</ele>
        <time>2022-08-16T11:45:16Z</time>
      </trkpt>
      <trkpt lat="45.53254" lon="2.50035">
        <ele>737.04</ele>
        <time>2022-08-16T11:45:27Z</time>
      </trkpt>
      <trkpt lat="45.53322" lon="2.49978">
        <ele>737.05</ele>
        <time>2022-08-16T11:45:33Z</time>
      </trkpt>
      <trkpt lat="45.53333" lon="2.49974">
        <ele>737.04</ele>
        <time>2022-08-16T11:45:34Z</time>
      </trkpt>
      <trkpt lat="45.53344" lon="2.49972">
        <ele>737.05</ele>
        <time>2022-08-16T11:45:35Z</time>
      </trkpt>
      <trkpt lat="45.53355" lon="2.49973">
        <ele>737.06</ele>
        <time>2022-08-16T11:45:36Z</time>
      </trkpt>
      <trkpt lat="45.53366" lon="2.49975">
        <ele>737.1</ele>
        <time>2022-08-16T11:45:37Z</time>
      </trkpt>
      <trkpt lat="45.53375" lon="2.4998">
        <ele>737.11</ele>
        <time>2022-08-16T11:45:38Z</time>
      </trkpt>
      <trkpt lat="45.53385" lon="2.49986">
        <ele>737.91</ele>
        <time>2022-08-16T11:45:39Z</time>
      </trkpt>
      <trkpt lat="45.53409" lon="2.5">
        <ele>740.39</ele>
        <time>2022-08-16T11:45:41Z</time>
      </trkpt>
      <trkpt lat="45.53441" lon="2.50017">
        <ele>744.03</ele>
        <time>2022-08-16T11:45:44Z</time>
      </trkpt>
      <trkpt lat="45.53451" lon="2.50021">
        <ele>745.18</ele>
        <time>2022-08-16T11:45:45Z</time>
      </trkpt>
      <trkpt lat="45.53462" lon="2.50024">
        <ele>745.22</ele>
        <time>2022-08-16T11:45:46Z</time>
      </trkpt>
      <trkpt lat="45.53485" lon="2.50025">
        <ele>746.46</ele>
        <time>2022-08-16T11:45:48Z</time>
      </trkpt>
      <trkpt lat="45.53512" lon="2.50021">
        <ele>748.17</ele>
        <time>2022-08-16T11:45:50Z</time>
      </trkpt>
      <trkpt lat="45.53627" lon="2.49987">
        <ele>749.6</ele>
        <time>2022-08-16T11:45:59Z</time>
      </trkpt>
      <trkpt lat="45.53723" lon="2.49957">
        <ele>750.09</ele>
        <time>2022-08-16T11:46:08Z</time>
      </trkpt>
      <trkpt lat="45.53768" lon="2.49944">
        <ele>750.21</ele>
        <time>2022-08-16T11:46:17Z</time>
      </trkpt>
      <trkpt lat="45.53765" lon="2.49943">
        <ele>750.41</ele>
        <time>2022-08-16T11:46:35Z</time>
      </trkpt>
      <trkpt lat="45.53767" lon="2.49942">
        <ele>750.48</ele>
        <time>2022-08-16T11:46:42Z</time>
      </trkpt>
      <trkpt lat="45.53772" lon="2.4994">
        <ele>750.5</ele>
        <time>2022-08-16T11:46:43Z</time>
      </trkpt>
      <trkpt lat="45.5379" lon="2.49934">
        <ele>752.01</ele>
        <time>2022-08-16T11:46:45Z</time>
      </trkpt>
      <trkpt lat="45.53833" lon="2.49914">
        <ele>755.64</ele>
        <time>2022-08-16T11:46:48Z</time>
      </trkpt>
      <trkpt lat="45.53864" lon="2.49893">
        <ele>757.1</ele>
        <time>2022-08-16T11:46:50Z</time>
      </trkpt>
      <trkpt lat="45.5398" lon="2.49812">
        <ele>757</ele>
        <time>2022-08-16T11:46:59Z</time>
      </trkpt>
      <trkpt lat="45.54186" lon="2.49709">
        <ele>757.22</ele>
        <time>2022-08-16T11:47:16Z</time>
      </trkpt>
      <trkpt lat="45.54281" lon="2.49663">
        <ele>757.28</ele>
        <time>2022-08-16T11:47:27Z</time>
      </trkpt>
      <trkpt lat="45.54314" lon="2.49652">
        <ele>757.31</ele>
        <time>2022-08-16T11:47:33Z</time>
      </trkpt>
      <trkpt lat="45.54316" lon="2.49656">
        <ele>757.31</ele>
        <time>2022-08-16T11:47:34Z</time>
      </trkpt>
      <trkpt lat="45.54318" lon="2.49662">
        <ele>757.33</ele>
        <time>2022-08-16T11:47:35Z</time>
      </trkpt>
      <trkpt lat="45.5432" lon="2.4967">
        <ele>757.38</ele>
        <time>2022-08-16T11:47:36Z</time>
      </trkpt>
      <trkpt lat="45.54323" lon="2.49679">
        <ele>757.39</ele>
        <time>2022-08-16T11:47:37Z</time>
      </trkpt>
      <trkpt lat="45.54328" lon="2.49688">
        <ele>757.41</ele>
        <time>2022-08-16T11:47:38Z</time>
      </trkpt>
      <trkpt lat="45.54334" lon="2.49697">
        <ele>757.42</ele>
        <time>2022-08-16T11:47:39Z</time>
      </trkpt>
      <trkpt lat="45.54341" lon="2.49708">
        <ele>757.38</ele>
        <time>2022-08-16T11:47:40Z</time>
      </trkpt>
      <trkpt lat="45.54408" lon="2.49796">
        <ele>755</ele>
        <time>2022-08-16T11:47:47Z</time>
      </trkpt>
      <trkpt lat="45.54489" lon="2.49914">
        <ele>751.77</ele>
        <time>2022-08-16T11:47:55Z</time>
      </trkpt>
      <trkpt lat="45.54501" lon="2.49932">
        <ele>751.78</ele>
        <time>2022-08-16T11:47:56Z</time>
      </trkpt>
      <trkpt lat="45.5462" lon="2.50075">
        <ele>750.78</ele>
        <time>2022-08-16T11:48:05Z</time>
      </trkpt>
      <trkpt lat="45.54636" lon="2.50085">
        <ele>750.78</ele>
        <time>2022-08-16T11:48:06Z</time>
      </trkpt>
      <trkpt lat="45.54718" lon="2.50122">
        <ele>748.54</ele>
        <time>2022-08-16T11:48:11Z</time>
      </trkpt>
      <trkpt lat="45.54735" lon="2.50125">
        <ele>748.54</ele>
        <time>2022-08-16T11:48:12Z</time>
      </trkpt>
      <trkpt lat="45.54753" lon="2.50125">
        <ele>748.53</ele>
        <time>2022-08-16T11:48:13Z</time>
      </trkpt>
      <trkpt lat="45.54802" lon="2.50121">
        <ele>745.93</ele>
        <time>2022-08-16T11:48:16Z</time>
      </trkpt>
      <trkpt lat="45.54831" lon="2.50117">
        <ele>743.66</ele>
        <time>2022-08-16T11:48:18Z</time>
      </trkpt>
      <trkpt lat="45.54845" lon="2.5011">
        <ele>743.63</ele>
        <time>2022-08-16T11:48:19Z</time>
      </trkpt>
      <trkpt lat="45.54857" lon="2.50099">
        <ele>743.67</ele>
        <time>2022-08-16T11:48:20Z</time>
      </trkpt>
      <trkpt lat="45.54883" lon="2.50071">
        <ele>743.63</ele>
        <time>2022-08-16T11:48:22Z</time>
      </trkpt>
      <trkpt lat="45.54898" lon="2.50058">
        <ele>743.64</ele>
        <time>2022-08-16T11:48:23Z</time>
      </trkpt>
      <trkpt lat="45.54913" lon="2.50048">
        <ele>743.6</ele>
        <time>2022-08-16T11:48:24Z</time>
      </trkpt>
      <trkpt lat="45.54928" lon="2.50039">
        <ele>743.58</ele>
        <time>2022-08-16T11:48:25Z</time>
      </trkpt>
      <trkpt lat="45.54943" lon="2.50032">
        <ele>742.13</ele>
        <time>2022-08-16T11:48:26Z</time>
      </trkpt>
      <trkpt lat="45.54958" lon="2.50027">
        <ele>742.15</ele>
        <time>2022-08-16T11:48:27Z</time>
      </trkpt>
      <trkpt lat="45.54974" lon="2.50025">
        <ele>742.15</ele>
        <time>2022-08-16T11:48:28Z</time>
      </trkpt>
      <trkpt lat="45.54989" lon="2.50024">
        <ele>740.62</ele>
        <time>2022-08-16T11:48:29Z</time>
      </trkpt>
      <trkpt lat="45.55018" lon="2.50022">
        <ele>739.4</ele>
        <time>2022-08-16T11:48:31Z</time>
      </trkpt>
      <trkpt lat="45.55064" lon="2.50025">
        <ele>735.18</ele>
        <time>2022-08-16T11:48:35Z</time>
      </trkpt>
      <trkpt lat="45.55073" lon="2.50029">
        <ele>735.2</ele>
        <time>2022-08-16T11:48:36Z</time>
      </trkpt>
      <trkpt lat="45.55079" lon="2.50039">
        <ele>734.31</ele>
        <time>2022-08-16T11:48:37Z</time>
      </trkpt>
      <trkpt lat="45.55083" lon="2.5005">
        <ele>734.4</ele>
        <time>2022-08-16T11:48:38Z</time>
      </trkpt>
      <trkpt lat="45.55086" lon="2.50063">
        <ele>734.35</ele>
        <time>2022-08-16T11:48:39Z</time>
      </trkpt>
      <trkpt lat="45.55089" lon="2.50077">
        <ele>733.83</ele>
        <time>2022-08-16T11:48:40Z</time>
      </trkpt>
      <trkpt lat="45.55091" lon="2.50092">
        <ele>733.78</ele>
        <time>2022-08-16T11:48:41Z</time>
      </trkpt>
      <trkpt lat="45.55091" lon="2.50108">
        <ele>732.28</ele>
        <time>2022-08-16T11:48:42Z</time>
      </trkpt>
      <trkpt lat="45.55091" lon="2.50124">
        <ele>732.29</ele>
        <time>2022-08-16T11:48:43Z</time>
      </trkpt>
      <trkpt lat="45.55091" lon="2.50139">
        <ele>731.04</ele>
        <time>2022-08-16T11:48:44Z</time>
      </trkpt>
      <trkpt lat="45.55093" lon="2.50153">
        <ele>731.05</ele>
        <time>2022-08-16T11:48:45Z</time>
      </trkpt>
      <trkpt lat="45.55096" lon="2.50169">
        <ele>731.06</ele>
        <time>2022-08-16T11:48:46Z</time>
      </trkpt>
      <trkpt lat="45.55101" lon="2.50182">
        <ele>729.76</ele>
        <time>2022-08-16T11:48:47Z</time>
      </trkpt>
      <trkpt lat="45.55107" lon="2.50194">
        <ele>728.98</ele>
        <time>2022-08-16T11:48:48Z</time>
      </trkpt>
      <trkpt lat="45.55113" lon="2.50204">
        <ele>728.13</ele>
        <time>2022-08-16T11:48:49Z</time>
      </trkpt>
      <trkpt lat="45.5512" lon="2.50213">
        <ele>728.09</ele>
        <time>2022-08-16T11:48:50Z</time>
      </trkpt>
      <trkpt lat="45.55132" lon="2.50229">
        <ele>726.22</ele>
        <time>2022-08-16T11:48:52Z</time>
      </trkpt>
      <trkpt lat="45.55135" lon="2.50241">
        <ele>725.46</ele>
        <time>2022-08-16T11:48:53Z</time>
      </trkpt>
      <trkpt lat="45.55136" lon="2.50254">
        <ele>724.57</ele>
        <time>2022-08-16T11:48:54Z</time>
      </trkpt>
      <trkpt lat="45.55133" lon="2.50267">
        <ele>724.52</ele>
        <time>2022-08-16T11:48:55Z</time>
      </trkpt>
      <trkpt lat="45.55129" lon="2.5028">
        <ele>724.52</ele>
        <time>2022-08-16T11:48:56Z</time>
      </trkpt>
      <trkpt lat="45.55124" lon="2.50293">
        <ele>723.11</ele>
        <time>2022-08-16T11:48:57Z</time>
      </trkpt>
      <trkpt lat="45.55119" lon="2.50306">
        <ele>723.11</ele>
        <time>2022-08-16T11:48:58Z</time>
      </trkpt>
      <trkpt lat="45.55091" lon="2.50358">
        <ele>721.1</ele>
        <time>2022-08-16T11:49:02Z</time>
      </trkpt>
      <trkpt lat="45.55085" lon="2.50373">
        <ele>719.98</ele>
        <time>2022-08-16T11:49:03Z</time>
      </trkpt>
      <trkpt lat="45.55062" lon="2.50436">
        <ele>718.24</ele>
        <time>2022-08-16T11:49:07Z</time>
      </trkpt>
      <trkpt lat="45.5505" lon="2.50462">
        <ele>716.51</ele>
        <time>2022-08-16T11:49:09Z</time>
      </trkpt>
      <trkpt lat="45.55046" lon="2.50476">
        <ele>715.37</ele>
        <time>2022-08-16T11:49:10Z</time>
      </trkpt>
      <trkpt lat="45.55046" lon="2.5049">
        <ele>715.45</ele>
        <time>2022-08-16T11:49:11Z</time>
      </trkpt>
      <trkpt lat="45.55047" lon="2.50503">
        <ele>714.18</ele>
        <time>2022-08-16T11:49:12Z</time>
      </trkpt>
      <trkpt lat="45.55051" lon="2.50516">
        <ele>714.18</ele>
        <time>2022-08-16T11:49:13Z</time>
      </trkpt>
      <trkpt lat="45.55055" lon="2.50527">
        <ele>713.2</ele>
        <time>2022-08-16T11:49:14Z</time>
      </trkpt>
      <trkpt lat="45.55062" lon="2.50551">
        <ele>711.6</ele>
        <time>2022-08-16T11:49:16Z</time>
      </trkpt>
      <trkpt lat="45.55063" lon="2.50565">
        <ele>711.69</ele>
        <time>2022-08-16T11:49:17Z</time>
      </trkpt>
      <trkpt lat="45.55062" lon="2.50579">
        <ele>711.63</ele>
        <time>2022-08-16T11:49:18Z</time>
      </trkpt>
      <trkpt lat="45.55058" lon="2.50625">
        <ele>709.93</ele>
        <time>2022-08-16T11:49:21Z</time>
      </trkpt>
      <trkpt lat="45.55044" lon="2.50704">
        <ele>706.49</ele>
        <time>2022-08-16T11:49:27Z</time>
      </trkpt>
      <trkpt lat="45.55041" lon="2.50718">
        <ele>705.95</ele>
        <time>2022-08-16T11:49:28Z</time>
      </trkpt>
      <trkpt lat="45.55021" lon="2.50776">
        <ele>704.7</ele>
        <time>2022-08-16T11:49:32Z</time>
      </trkpt>
      <trkpt lat="45.55015" lon="2.50787">
        <ele>703.31</ele>
        <time>2022-08-16T11:49:33Z</time>
      </trkpt>
      <trkpt lat="45.55009" lon="2.50799">
        <ele>703.25</ele>
        <time>2022-08-16T11:49:34Z</time>
      </trkpt>
      <trkpt lat="45.55003" lon="2.50809">
        <ele>701.98</ele>
        <time>2022-08-16T11:49:35Z</time>
      </trkpt>
      <trkpt lat="45.54996" lon="2.50816">
        <ele>701.97</ele>
        <time>2022-08-16T11:49:36Z</time>
      </trkpt>
      <trkpt lat="45.54988" lon="2.50821">
        <ele>701.2</ele>
        <time>2022-08-16T11:49:37Z</time>
      </trkpt>
      <trkpt lat="45.54984" lon="2.50828">
        <ele>701.15</ele>
        <time>2022-08-16T11:49:38Z</time>
      </trkpt>
      <trkpt lat="45.54973" lon="2.50831">
        <ele>701.15</ele>
        <time>2022-08-16T11:49:39Z</time>
      </trkpt>
      <trkpt lat="45.54923" lon="2.50842">
        <ele>699.1</ele>
        <time>2022-08-16T11:49:43Z</time>
      </trkpt>
      <trkpt lat="45.54899" lon="2.50848">
        <ele>697.66</ele>
        <time>2022-08-16T11:49:45Z</time>
      </trkpt>
      <trkpt lat="45.54876" lon="2.50853">
        <ele>694.27</ele>
        <time>2022-08-16T11:49:47Z</time>
      </trkpt>
      <trkpt lat="45.54864" lon="2.50855">
        <ele>694.28</ele>
        <time>2022-08-16T11:49:48Z</time>
      </trkpt>
      <trkpt lat="45.54843" lon="2.50861">
        <ele>692.99</ele>
        <time>2022-08-16T11:49:50Z</time>
      </trkpt>
      <trkpt lat="45.54832" lon="2.50863">
        <ele>691.11</ele>
        <time>2022-08-16T11:49:51Z</time>
      </trkpt>
      <trkpt lat="45.54821" lon="2.50863">
        <ele>691.16</ele>
        <time>2022-08-16T11:49:52Z</time>
      </trkpt>
      <trkpt lat="45.54811" lon="2.50861">
        <ele>690.48</ele>
        <time>2022-08-16T11:49:53Z</time>
      </trkpt>
      <trkpt lat="45.54801" lon="2.50857">
        <ele>690.43</ele>
        <time>2022-08-16T11:49:54Z</time>
      </trkpt>
      <trkpt lat="45.54792" lon="2.50852">
        <ele>689.39</ele>
        <time>2022-08-16T11:49:55Z</time>
      </trkpt>
      <trkpt lat="45.54775" lon="2.50844">
        <ele>688.47</ele>
        <time>2022-08-16T11:49:57Z</time>
      </trkpt>
      <trkpt lat="45.54768" lon="2.50844">
        <ele>687.23</ele>
        <time>2022-08-16T11:49:58Z</time>
      </trkpt>
      <trkpt lat="45.54761" lon="2.50849">
        <ele>687.15</ele>
        <time>2022-08-16T11:49:59Z</time>
      </trkpt>
      <trkpt lat="45.54756" lon="2.50859">
        <ele>687.18</ele>
        <time>2022-08-16T11:50:00Z</time>
      </trkpt>
      <trkpt lat="45.54752" lon="2.50873">
        <ele>687.11</ele>
        <time>2022-08-16T11:50:01Z</time>
      </trkpt>
      <trkpt lat="45.54751" lon="2.5089">
        <ele>686.13</ele>
        <time>2022-08-16T11:50:02Z</time>
      </trkpt>
      <trkpt lat="45.5475" lon="2.50909">
        <ele>686.1</ele>
        <time>2022-08-16T11:50:03Z</time>
      </trkpt>
      <trkpt lat="45.54745" lon="2.51017">
        <ele>683.09</ele>
        <time>2022-08-16T11:50:08Z</time>
      </trkpt>
      <trkpt lat="45.54744" lon="2.51036">
        <ele>683.12</ele>
        <time>2022-08-16T11:50:09Z</time>
      </trkpt>
      <trkpt lat="45.5474" lon="2.51073">
        <ele>680.01</ele>
        <time>2022-08-16T11:50:11Z</time>
      </trkpt>
      <trkpt lat="45.54736" lon="2.51091">
        <ele>679.96</ele>
        <time>2022-08-16T11:50:12Z</time>
      </trkpt>
      <trkpt lat="45.54727" lon="2.51143">
        <ele>676.94</ele>
        <time>2022-08-16T11:50:15Z</time>
      </trkpt>
      <trkpt lat="45.54725" lon="2.5116">
        <ele>676.95</ele>
        <time>2022-08-16T11:50:16Z</time>
      </trkpt>
      <trkpt lat="45.5472" lon="2.51193">
        <ele>674.87</ele>
        <time>2022-08-16T11:50:18Z</time>
      </trkpt>
      <trkpt lat="45.54714" lon="2.51207">
        <ele>673.73</ele>
        <time>2022-08-16T11:50:19Z</time>
      </trkpt>
      <trkpt lat="45.54707" lon="2.51219">
        <ele>673.67</ele>
        <time>2022-08-16T11:50:20Z</time>
      </trkpt>
      <trkpt lat="45.54693" lon="2.51245">
        <ele>672.35</ele>
        <time>2022-08-16T11:50:22Z</time>
      </trkpt>
      <trkpt lat="45.54686" lon="2.51258">
        <ele>671.42</ele>
        <time>2022-08-16T11:50:23Z</time>
      </trkpt>
      <trkpt lat="45.54679" lon="2.51269">
        <ele>669.97</ele>
        <time>2022-08-16T11:50:24Z</time>
      </trkpt>
      <trkpt lat="45.54669" lon="2.51276">
        <ele>670</ele>
        <time>2022-08-16T11:50:25Z</time>
      </trkpt>
      <trkpt lat="45.54633" lon="2.51295">
        <ele>668.55</ele>
        <time>2022-08-16T11:50:28Z</time>
      </trkpt>
      <trkpt lat="45.54608" lon="2.51308">
        <ele>667.31</ele>
        <time>2022-08-16T11:50:30Z</time>
      </trkpt>
      <trkpt lat="45.54572" lon="2.51324">
        <ele>663.6</ele>
        <time>2022-08-16T11:50:33Z</time>
      </trkpt>
      <trkpt lat="45.54562" lon="2.51334">
        <ele>663.61</ele>
        <time>2022-08-16T11:50:34Z</time>
      </trkpt>
      <trkpt lat="45.54544" lon="2.51354">
        <ele>662.12</ele>
        <time>2022-08-16T11:50:36Z</time>
      </trkpt>
      <trkpt lat="45.54534" lon="2.51362">
        <ele>662.04</ele>
        <time>2022-08-16T11:50:37Z</time>
      </trkpt>
      <trkpt lat="45.54517" lon="2.51379">
        <ele>660.72</ele>
        <time>2022-08-16T11:50:39Z</time>
      </trkpt>
      <trkpt lat="45.54502" lon="2.51393">
        <ele>660.25</ele>
        <time>2022-08-16T11:50:41Z</time>
      </trkpt>
      <trkpt lat="45.54493" lon="2.51395">
        <ele>659.4</ele>
        <time>2022-08-16T11:50:42Z</time>
      </trkpt>
      <trkpt lat="45.54484" lon="2.51391">
        <ele>659.35</ele>
        <time>2022-08-16T11:50:43Z</time>
      </trkpt>
      <trkpt lat="45.54439" lon="2.51362">
        <ele>657.87</ele>
        <time>2022-08-16T11:50:47Z</time>
      </trkpt>
      <trkpt lat="45.54428" lon="2.51358">
        <ele>656.37</ele>
        <time>2022-08-16T11:50:48Z</time>
      </trkpt>
      <trkpt lat="45.54416" lon="2.51355">
        <ele>656.34</ele>
        <time>2022-08-16T11:50:49Z</time>
      </trkpt>
      <trkpt lat="45.54405" lon="2.51352">
        <ele>654.78</ele>
        <time>2022-08-16T11:50:50Z</time>
      </trkpt>
      <trkpt lat="45.54395" lon="2.51347">
        <ele>654.74</ele>
        <time>2022-08-16T11:50:51Z</time>
      </trkpt>
      <trkpt lat="45.54387" lon="2.51339">
        <ele>653.94</ele>
        <time>2022-08-16T11:50:52Z</time>
      </trkpt>
      <trkpt lat="45.54381" lon="2.51327">
        <ele>653.92</ele>
        <time>2022-08-16T11:50:53Z</time>
      </trkpt>
      <trkpt lat="45.54375" lon="2.51312">
        <ele>652.89</ele>
        <time>2022-08-16T11:50:54Z</time>
      </trkpt>
      <trkpt lat="45.54367" lon="2.51297">
        <ele>652.91</ele>
        <time>2022-08-16T11:50:55Z</time>
      </trkpt>
      <trkpt lat="45.54358" lon="2.51284">
        <ele>652.97</ele>
        <time>2022-08-16T11:50:56Z</time>
      </trkpt>
      <trkpt lat="45.54348" lon="2.51272">
        <ele>651.06</ele>
        <time>2022-08-16T11:50:57Z</time>
      </trkpt>
      <trkpt lat="45.54338" lon="2.51262">
        <ele>651.06</ele>
        <time>2022-08-16T11:50:58Z</time>
      </trkpt>
      <trkpt lat="45.5433" lon="2.5125">
        <ele>651.07</ele>
        <time>2022-08-16T11:50:59Z</time>
      </trkpt>
      <trkpt lat="45.54323" lon="2.51237">
        <ele>649.28</ele>
        <time>2022-08-16T11:51:00Z</time>
      </trkpt>
      <trkpt lat="45.54317" lon="2.51223">
        <ele>648.3</ele>
        <time>2022-08-16T11:51:01Z</time>
      </trkpt>
      <trkpt lat="45.54311" lon="2.5121">
        <ele>647.17</ele>
        <time>2022-08-16T11:51:02Z</time>
      </trkpt>
      <trkpt lat="45.54304" lon="2.51198">
        <ele>647.1</ele>
        <time>2022-08-16T11:51:03Z</time>
      </trkpt>
      <trkpt lat="45.54295" lon="2.51188">
        <ele>647.11</ele>
        <time>2022-08-16T11:51:04Z</time>
      </trkpt>
      <trkpt lat="45.54287" lon="2.5118">
        <ele>645.67</ele>
        <time>2022-08-16T11:51:05Z</time>
      </trkpt>
      <trkpt lat="45.54277" lon="2.51179">
        <ele>645.68</ele>
        <time>2022-08-16T11:51:06Z</time>
      </trkpt>
      <trkpt lat="45.54266" lon="2.51178">
        <ele>645.32</ele>
        <time>2022-08-16T11:51:07Z</time>
      </trkpt>
      <trkpt lat="45.54255" lon="2.5118">
        <ele>644.56</ele>
        <time>2022-08-16T11:51:08Z</time>
      </trkpt>
      <trkpt lat="45.54245" lon="2.51183">
        <ele>644.51</ele>
        <time>2022-08-16T11:51:09Z</time>
      </trkpt>
      <trkpt lat="45.54233" lon="2.51192">
        <ele>643.64</ele>
        <time>2022-08-16T11:51:10Z</time>
      </trkpt>
      <trkpt lat="45.54222" lon="2.512">
        <ele>643.65</ele>
        <time>2022-08-16T11:51:11Z</time>
      </trkpt>
      <trkpt lat="45.542" lon="2.51214">
        <ele>642.33</ele>
        <time>2022-08-16T11:51:13Z</time>
      </trkpt>
      <trkpt lat="45.54164" lon="2.51242">
        <ele>639.8</ele>
        <time>2022-08-16T11:51:17Z</time>
      </trkpt>
      <trkpt lat="45.54156" lon="2.51245">
        <ele>638.49</ele>
        <time>2022-08-16T11:51:18Z</time>
      </trkpt>
      <trkpt lat="45.54147" lon="2.51244">
        <ele>638.5</ele>
        <time>2022-08-16T11:51:19Z</time>
      </trkpt>
      <trkpt lat="45.54138" lon="2.51238">
        <ele>638.46</ele>
        <time>2022-08-16T11:51:20Z</time>
      </trkpt>
      <trkpt lat="45.54128" lon="2.51233">
        <ele>637.44</ele>
        <time>2022-08-16T11:51:21Z</time>
      </trkpt>
      <trkpt lat="45.54117" lon="2.51229">
        <ele>637.45</ele>
        <time>2022-08-16T11:51:22Z</time>
      </trkpt>
      <trkpt lat="45.54106" lon="2.51229">
        <ele>636.4</ele>
        <time>2022-08-16T11:51:23Z</time>
      </trkpt>
      <trkpt lat="45.54095" lon="2.51231">
        <ele>636.4</ele>
        <time>2022-08-16T11:51:24Z</time>
      </trkpt>
      <trkpt lat="45.54085" lon="2.51231">
        <ele>634.99</ele>
        <time>2022-08-16T11:51:25Z</time>
      </trkpt>
      <trkpt lat="45.54075" lon="2.5123">
        <ele>635.03</ele>
        <time>2022-08-16T11:51:26Z</time>
      </trkpt>
      <trkpt lat="45.54066" lon="2.51228">
        <ele>633.75</ele>
        <time>2022-08-16T11:51:27Z</time>
      </trkpt>
      <trkpt lat="45.54057" lon="2.51225">
        <ele>633.7</ele>
        <time>2022-08-16T11:51:28Z</time>
      </trkpt>
      <trkpt lat="45.5404" lon="2.51219">
        <ele>632.62</ele>
        <time>2022-08-16T11:51:30Z</time>
      </trkpt>
      <trkpt lat="45.54017" lon="2.51212">
        <ele>630.61</ele>
        <time>2022-08-16T11:51:33Z</time>
      </trkpt>
      <trkpt lat="45.54011" lon="2.51207">
        <ele>630.65</ele>
        <time>2022-08-16T11:51:34Z</time>
      </trkpt>
      <trkpt lat="45.54005" lon="2.51198">
        <ele>630.61</ele>
        <time>2022-08-16T11:51:35Z</time>
      </trkpt>
      <trkpt lat="45.54" lon="2.51187">
        <ele>629.11</ele>
        <time>2022-08-16T11:51:36Z</time>
      </trkpt>
      <trkpt lat="45.53997" lon="2.51175">
        <ele>629.01</ele>
        <time>2022-08-16T11:51:37Z</time>
      </trkpt>
      <trkpt lat="45.53995" lon="2.51162">
        <ele>629.09</ele>
        <time>2022-08-16T11:51:38Z</time>
      </trkpt>
      <trkpt lat="45.53993" lon="2.51149">
        <ele>628</ele>
        <time>2022-08-16T11:51:39Z</time>
      </trkpt>
      <trkpt lat="45.53991" lon="2.51136">
        <ele>627.07</ele>
        <time>2022-08-16T11:51:40Z</time>
      </trkpt>
      <trkpt lat="45.53986" lon="2.51125">
        <ele>627.01</ele>
        <time>2022-08-16T11:51:41Z</time>
      </trkpt>
      <trkpt lat="45.53982" lon="2.51115">
        <ele>626.19</ele>
        <time>2022-08-16T11:51:42Z</time>
      </trkpt>
      <trkpt lat="45.53975" lon="2.51108">
        <ele>626.07</ele>
        <time>2022-08-16T11:51:43Z</time>
      </trkpt>
      <trkpt lat="45.53967" lon="2.51104">
        <ele>624.49</ele>
        <time>2022-08-16T11:51:44Z</time>
      </trkpt>
      <trkpt lat="45.53959" lon="2.51104">
        <ele>624.38</ele>
        <time>2022-08-16T11:51:45Z</time>
      </trkpt>
      <trkpt lat="45.53952" lon="2.51109">
        <ele>624.44</ele>
        <time>2022-08-16T11:51:46Z</time>
      </trkpt>
      <trkpt lat="45.53946" lon="2.51115">
        <ele>623.65</ele>
        <time>2022-08-16T11:51:47Z</time>
      </trkpt>
      <trkpt lat="45.53941" lon="2.51124">
        <ele>623.62</ele>
        <time>2022-08-16T11:51:48Z</time>
      </trkpt>
      <trkpt lat="45.53935" lon="2.51133">
        <ele>623.68</ele>
        <time>2022-08-16T11:51:49Z</time>
      </trkpt>
      <trkpt lat="45.53928" lon="2.51142">
        <ele>623.64</ele>
        <time>2022-08-16T11:51:50Z</time>
      </trkpt>
      <trkpt lat="45.53921" lon="2.5115">
        <ele>622.29</ele>
        <time>2022-08-16T11:51:51Z</time>
      </trkpt>
      <trkpt lat="45.53912" lon="2.51155">
        <ele>621.36</ele>
        <time>2022-08-16T11:51:52Z</time>
      </trkpt>
      <trkpt lat="45.53903" lon="2.5116">
        <ele>621.37</ele>
        <time>2022-08-16T11:51:53Z</time>
      </trkpt>
      <trkpt lat="45.53897" lon="2.51165">
        <ele>621.36</ele>
        <time>2022-08-16T11:51:54Z</time>
      </trkpt>
      <trkpt lat="45.53893" lon="2.51171">
        <ele>620.32</ele>
        <time>2022-08-16T11:51:55Z</time>
      </trkpt>
      <trkpt lat="45.53893" lon="2.51178">
        <ele>620.32</ele>
        <time>2022-08-16T11:51:56Z</time>
      </trkpt>
      <trkpt lat="45.53896" lon="2.51184">
        <ele>619.38</ele>
        <time>2022-08-16T11:51:57Z</time>
      </trkpt>
      <trkpt lat="45.53902" lon="2.51184">
        <ele>619.35</ele>
        <time>2022-08-16T11:51:58Z</time>
      </trkpt>
      <trkpt lat="45.53909" lon="2.51179">
        <ele>618.56</ele>
        <time>2022-08-16T11:51:59Z</time>
      </trkpt>
      <trkpt lat="45.53917" lon="2.5117">
        <ele>618.59</ele>
        <time>2022-08-16T11:52:00Z</time>
      </trkpt>
      <trkpt lat="45.53924" lon="2.51161">
        <ele>618.52</ele>
        <time>2022-08-16T11:52:01Z</time>
      </trkpt>
      <trkpt lat="45.5393" lon="2.51152">
        <ele>618.59</ele>
        <time>2022-08-16T11:52:02Z</time>
      </trkpt>
      <trkpt lat="45.53943" lon="2.51136">
        <ele>617.34</ele>
        <time>2022-08-16T11:52:04Z</time>
      </trkpt>
      <trkpt lat="45.53948" lon="2.5113">
        <ele>615.95</ele>
        <time>2022-08-16T11:52:05Z</time>
      </trkpt>
      <trkpt lat="45.53955" lon="2.5113">
        <ele>615.95</ele>
        <time>2022-08-16T11:52:06Z</time>
      </trkpt>
      <trkpt lat="45.53961" lon="2.51135">
        <ele>614.74</ele>
        <time>2022-08-16T11:52:07Z</time>
      </trkpt>
      <trkpt lat="45.53965" lon="2.51145">
        <ele>614.79</ele>
        <time>2022-08-16T11:52:08Z</time>
      </trkpt>
      <trkpt lat="45.53967" lon="2.51157">
        <ele>614.8</ele>
        <time>2022-08-16T11:52:09Z</time>
      </trkpt>
      <trkpt lat="45.53969" lon="2.51171">
        <ele>613.8</ele>
        <time>2022-08-16T11:52:10Z</time>
      </trkpt>
      <trkpt lat="45.53971" lon="2.51185">
        <ele>613.79</ele>
        <time>2022-08-16T11:52:11Z</time>
      </trkpt>
      <trkpt lat="45.53974" lon="2.51198">
        <ele>612.34</ele>
        <time>2022-08-16T11:52:12Z</time>
      </trkpt>
      <trkpt lat="45.53978" lon="2.5121">
        <ele>612.24</ele>
        <time>2022-08-16T11:52:13Z</time>
      </trkpt>
      <trkpt lat="45.53984" lon="2.5122">
        <ele>611.03</ele>
        <time>2022-08-16T11:52:14Z</time>
      </trkpt>
      <trkpt lat="45.5399" lon="2.5123">
        <ele>610.16</ele>
        <time>2022-08-16T11:52:15Z</time>
      </trkpt>
      <trkpt lat="45.53997" lon="2.51238">
        <ele>610.16</ele>
        <time>2022-08-16T11:52:16Z</time>
      </trkpt>
      <trkpt lat="45.54011" lon="2.51254">
        <ele>608.86</ele>
        <time>2022-08-16T11:52:18Z</time>
      </trkpt>
      <trkpt lat="45.54024" lon="2.51269">
        <ele>607.26</ele>
        <time>2022-08-16T11:52:20Z</time>
      </trkpt>
      <trkpt lat="45.54036" lon="2.51271">
        <ele>607.16</ele>
        <time>2022-08-16T11:52:21Z</time>
      </trkpt>
      <trkpt lat="45.54063" lon="2.5128">
        <ele>605.81</ele>
        <time>2022-08-16T11:52:23Z</time>
      </trkpt>
      <trkpt lat="45.54116" lon="2.513">
        <ele>601.92</ele>
        <time>2022-08-16T11:52:27Z</time>
      </trkpt>
      <trkpt lat="45.5414" lon="2.51313">
        <ele>599.76</ele>
        <time>2022-08-16T11:52:29Z</time>
      </trkpt>
      <trkpt lat="45.54153" lon="2.51317">
        <ele>599.73</ele>
        <time>2022-08-16T11:52:30Z</time>
      </trkpt>
      <trkpt lat="45.54167" lon="2.51317">
        <ele>597.04</ele>
        <time>2022-08-16T11:52:31Z</time>
      </trkpt>
      <trkpt lat="45.5418" lon="2.51317">
        <ele>597.12</ele>
        <time>2022-08-16T11:52:32Z</time>
      </trkpt>
      <trkpt lat="45.54216" lon="2.51314">
        <ele>594.62</ele>
        <time>2022-08-16T11:52:35Z</time>
      </trkpt>
      <trkpt lat="45.54236" lon="2.51314">
        <ele>591.51</ele>
        <time>2022-08-16T11:52:37Z</time>
      </trkpt>
      <trkpt lat="45.54244" lon="2.51317">
        <ele>591.6</ele>
        <time>2022-08-16T11:52:38Z</time>
      </trkpt>
      <trkpt lat="45.54253" lon="2.51322">
        <ele>590.25</ele>
        <time>2022-08-16T11:52:39Z</time>
      </trkpt>
      <trkpt lat="45.54262" lon="2.5133">
        <ele>589.08</ele>
        <time>2022-08-16T11:52:40Z</time>
      </trkpt>
      <trkpt lat="45.5427" lon="2.5134">
        <ele>589.09</ele>
        <time>2022-08-16T11:52:41Z</time>
      </trkpt>
      <trkpt lat="45.54278" lon="2.51354">
        <ele>589</ele>
        <time>2022-08-16T11:52:42Z</time>
      </trkpt>
      <trkpt lat="45.54286" lon="2.5137">
        <ele>587.82</ele>
        <time>2022-08-16T11:52:43Z</time>
      </trkpt>
      <trkpt lat="45.54311" lon="2.51421">
        <ele>584.78</ele>
        <time>2022-08-16T11:52:46Z</time>
      </trkpt>
      <trkpt lat="45.54337" lon="2.51466">
        <ele>581.3</ele>
        <time>2022-08-16T11:52:49Z</time>
      </trkpt>
      <trkpt lat="45.54359" lon="2.51515">
        <ele>579.24</ele>
        <time>2022-08-16T11:52:52Z</time>
      </trkpt>
      <trkpt lat="45.54373" lon="2.51545">
        <ele>576.39</ele>
        <time>2022-08-16T11:52:54Z</time>
      </trkpt>
      <trkpt lat="45.54381" lon="2.51558">
        <ele>575.06</ele>
        <time>2022-08-16T11:52:55Z</time>
      </trkpt>
      <trkpt lat="45.5439" lon="2.5157">
        <ele>574.07</ele>
        <time>2022-08-16T11:52:56Z</time>
      </trkpt>
      <trkpt lat="45.54407" lon="2.51592">
        <ele>572.99</ele>
        <time>2022-08-16T11:52:58Z</time>
      </trkpt>
      <trkpt lat="45.54423" lon="2.51614">
        <ele>571.32</ele>
        <time>2022-08-16T11:53:00Z</time>
      </trkpt>
      <trkpt lat="45.5443" lon="2.51626">
        <ele>569.71</ele>
        <time>2022-08-16T11:53:01Z</time>
      </trkpt>
      <trkpt lat="45.54435" lon="2.5164">
        <ele>568.84</ele>
        <time>2022-08-16T11:53:02Z</time>
      </trkpt>
      <trkpt lat="45.54442" lon="2.51669">
        <ele>567.96</ele>
        <time>2022-08-16T11:53:04Z</time>
      </trkpt>
      <trkpt lat="45.54447" lon="2.51682">
        <ele>566.19</ele>
        <time>2022-08-16T11:53:05Z</time>
      </trkpt>
      <trkpt lat="45.54452" lon="2.51696">
        <ele>565.4</ele>
        <time>2022-08-16T11:53:06Z</time>
      </trkpt>
      <trkpt lat="45.54461" lon="2.51704">
        <ele>565.31</ele>
        <time>2022-08-16T11:53:07Z</time>
      </trkpt>
      <trkpt lat="45.5447" lon="2.5171">
        <ele>563.65</ele>
        <time>2022-08-16T11:53:08Z</time>
      </trkpt>
      <trkpt lat="45.54479" lon="2.51714">
        <ele>562.55</ele>
        <time>2022-08-16T11:53:09Z</time>
      </trkpt>
      <trkpt lat="45.54489" lon="2.51717">
        <ele>562.65</ele>
        <time>2022-08-16T11:53:10Z</time>
      </trkpt>
      <trkpt lat="45.54499" lon="2.51722">
        <ele>561.22</ele>
        <time>2022-08-16T11:53:11Z</time>
      </trkpt>
      <trkpt lat="45.54511" lon="2.51724">
        <ele>561.23</ele>
        <time>2022-08-16T11:53:12Z</time>
      </trkpt>
      <trkpt lat="45.54547" lon="2.5173">
        <ele>557.71</ele>
        <time>2022-08-16T11:53:15Z</time>
      </trkpt>
      <trkpt lat="45.5456" lon="2.5173">
        <ele>557.64</ele>
        <time>2022-08-16T11:53:16Z</time>
      </trkpt>
      <trkpt lat="45.54584" lon="2.51728">
        <ele>554.72</ele>
        <time>2022-08-16T11:53:18Z</time>
      </trkpt>
      <trkpt lat="45.54596" lon="2.51726">
        <ele>552.66</ele>
        <time>2022-08-16T11:53:19Z</time>
      </trkpt>
      <trkpt lat="45.54625" lon="2.51724">
        <ele>548.59</ele>
        <time>2022-08-16T11:53:22Z</time>
      </trkpt>
      <trkpt lat="45.54629" lon="2.51729">
        <ele>547.58</ele>
        <time>2022-08-16T11:53:23Z</time>
      </trkpt>
      <trkpt lat="45.54629" lon="2.51737">
        <ele>546.56</ele>
        <time>2022-08-16T11:53:24Z</time>
      </trkpt>
      <trkpt lat="45.54627" lon="2.51744">
        <ele>546.47</ele>
        <time>2022-08-16T11:53:25Z</time>
      </trkpt>
      <trkpt lat="45.54623" lon="2.5175">
        <ele>546.47</ele>
        <time>2022-08-16T11:53:26Z</time>
      </trkpt>
      <trkpt lat="45.54616" lon="2.51755">
        <ele>545.61</ele>
        <time>2022-08-16T11:53:27Z</time>
      </trkpt>
      <trkpt lat="45.54606" lon="2.51757">
        <ele>545.52</ele>
        <time>2022-08-16T11:53:28Z</time>
      </trkpt>
      <trkpt lat="45.54595" lon="2.51756">
        <ele>544.29</ele>
        <time>2022-08-16T11:53:29Z</time>
      </trkpt>
      <trkpt lat="45.54584" lon="2.51756">
        <ele>543.22</ele>
        <time>2022-08-16T11:53:30Z</time>
      </trkpt>
      <trkpt lat="45.54572" lon="2.51758">
        <ele>543.14</ele>
        <time>2022-08-16T11:53:31Z</time>
      </trkpt>
      <trkpt lat="45.5456" lon="2.51761">
        <ele>543.14</ele>
        <time>2022-08-16T11:53:32Z</time>
      </trkpt>
      <trkpt lat="45.54537" lon="2.51764">
        <ele>542.16</ele>
        <time>2022-08-16T11:53:34Z</time>
      </trkpt>
      <trkpt lat="45.54507" lon="2.51764">
        <ele>541.14</ele>
        <time>2022-08-16T11:53:37Z</time>
      </trkpt>
      <trkpt lat="45.54499" lon="2.51763">
        <ele>541.13</ele>
        <time>2022-08-16T11:53:38Z</time>
      </trkpt>
      <trkpt lat="45.54491" lon="2.51765">
        <ele>541.16</ele>
        <time>2022-08-16T11:53:39Z</time>
      </trkpt>
      <trkpt lat="45.54484" lon="2.51769">
        <ele>541.14</ele>
        <time>2022-08-16T11:53:40Z</time>
      </trkpt>
      <trkpt lat="45.54477" lon="2.51775">
        <ele>541.16</ele>
        <time>2022-08-16T11:53:41Z</time>
      </trkpt>
      <trkpt lat="45.54472" lon="2.51783">
        <ele>541.13</ele>
        <time>2022-08-16T11:53:42Z</time>
      </trkpt>
      <trkpt lat="45.54467" lon="2.51793">
        <ele>541.15</ele>
        <time>2022-08-16T11:53:43Z</time>
      </trkpt>
      <trkpt lat="45.54464" lon="2.51803">
        <ele>540</ele>
        <time>2022-08-16T11:53:44Z</time>
      </trkpt>
      <trkpt lat="45.54461" lon="2.51814">
        <ele>539.97</ele>
        <time>2022-08-16T11:53:45Z</time>
      </trkpt>
      <trkpt lat="45.54459" lon="2.51827">
        <ele>539.99</ele>
        <time>2022-08-16T11:53:46Z</time>
      </trkpt>
      <trkpt lat="45.54426" lon="2.52002">
        <ele>540.31</ele>
        <time>2022-08-16T11:53:58Z</time>
      </trkpt>
      <trkpt lat="45.54418" lon="2.52033">
        <ele>540.32</ele>
        <time>2022-08-16T11:54:00Z</time>
      </trkpt>
      <trkpt lat="45.54413" lon="2.52048">
        <ele>542.92</ele>
        <time>2022-08-16T11:54:01Z</time>
      </trkpt>
      <trkpt lat="45.54406" lon="2.52061">
        <ele>542.96</ele>
        <time>2022-08-16T11:54:02Z</time>
      </trkpt>
      <trkpt lat="45.54399" lon="2.52074">
        <ele>542.96</ele>
        <time>2022-08-16T11:54:03Z</time>
      </trkpt>
      <trkpt lat="45.54391" lon="2.52085">
        <ele>542.96</ele>
        <time>2022-08-16T11:54:04Z</time>
      </trkpt>
      <trkpt lat="45.54378" lon="2.5211">
        <ele>543.75</ele>
        <time>2022-08-16T11:54:06Z</time>
      </trkpt>
      <trkpt lat="45.54372" lon="2.52124">
        <ele>544.67</ele>
        <time>2022-08-16T11:54:07Z</time>
      </trkpt>
      <trkpt lat="45.54367" lon="2.5214">
        <ele>544.66</ele>
        <time>2022-08-16T11:54:08Z</time>
      </trkpt>
      <trkpt lat="45.5433" lon="2.52289">
        <ele>546.72</ele>
        <time>2022-08-16T11:54:15Z</time>
      </trkpt>
      <trkpt lat="45.5429" lon="2.5239">
        <ele>546.73</ele>
        <time>2022-08-16T11:54:20Z</time>
      </trkpt>
      <trkpt lat="45.54284" lon="2.52409">
        <ele>546.78</ele>
        <time>2022-08-16T11:54:21Z</time>
      </trkpt>
      <trkpt lat="45.54279" lon="2.52429">
        <ele>546.72</ele>
        <time>2022-08-16T11:54:22Z</time>
      </trkpt>
      <trkpt lat="45.5428" lon="2.52452">
        <ele>546.75</ele>
        <time>2022-08-16T11:54:23Z</time>
      </trkpt>
      <trkpt lat="45.54284" lon="2.52476">
        <ele>546.75</ele>
        <time>2022-08-16T11:54:24Z</time>
      </trkpt>
      <trkpt lat="45.5429" lon="2.52502">
        <ele>549.44</ele>
        <time>2022-08-16T11:54:25Z</time>
      </trkpt>
      <trkpt lat="45.54299" lon="2.52554">
        <ele>552.88</ele>
        <time>2022-08-16T11:54:27Z</time>
      </trkpt>
      <trkpt lat="45.54308" lon="2.52631">
        <ele>555.95</ele>
        <time>2022-08-16T11:54:30Z</time>
      </trkpt>
      <trkpt lat="45.5431" lon="2.52683">
        <ele>557.15</ele>
        <time>2022-08-16T11:54:32Z</time>
      </trkpt>
      <trkpt lat="45.54312" lon="2.52728">
        <ele>559.08</ele>
        <time>2022-08-16T11:54:34Z</time>
      </trkpt>
      <trkpt lat="45.54314" lon="2.52768">
        <ele>560.14</ele>
        <time>2022-08-16T11:54:36Z</time>
      </trkpt>
      <trkpt lat="45.54318" lon="2.52787">
        <ele>560.14</ele>
        <time>2022-08-16T11:54:37Z</time>
      </trkpt>
      <trkpt lat="45.54325" lon="2.52806">
        <ele>559.42</ele>
        <time>2022-08-16T11:54:38Z</time>
      </trkpt>
      <trkpt lat="45.54354" lon="2.52905">
        <ele>561.86</ele>
        <time>2022-08-16T11:54:43Z</time>
      </trkpt>
      <trkpt lat="45.54356" lon="2.52926">
        <ele>561.83</ele>
        <time>2022-08-16T11:54:44Z</time>
      </trkpt>
      <trkpt lat="45.54356" lon="2.52948">
        <ele>562.88</ele>
        <time>2022-08-16T11:54:45Z</time>
      </trkpt>
      <trkpt lat="45.54344" lon="2.53117">
        <ele>563.64</ele>
        <time>2022-08-16T11:54:53Z</time>
      </trkpt>
      <trkpt lat="45.54333" lon="2.53165">
        <ele>564.6</ele>
        <time>2022-08-16T11:54:56Z</time>
      </trkpt>
      <trkpt lat="45.54335" lon="2.5318">
        <ele>564.62</ele>
        <time>2022-08-16T11:54:57Z</time>
      </trkpt>
      <trkpt lat="45.5434" lon="2.53194">
        <ele>564.59</ele>
        <time>2022-08-16T11:54:58Z</time>
      </trkpt>
      <trkpt lat="45.54348" lon="2.53205">
        <ele>564.59</ele>
        <time>2022-08-16T11:54:59Z</time>
      </trkpt>
      <trkpt lat="45.54357" lon="2.53215">
        <ele>564.65</ele>
        <time>2022-08-16T11:55:00Z</time>
      </trkpt>
      <trkpt lat="45.54365" lon="2.53226">
        <ele>564.6</ele>
        <time>2022-08-16T11:55:01Z</time>
      </trkpt>
      <trkpt lat="45.54372" lon="2.5324">
        <ele>564.59</ele>
        <time>2022-08-16T11:55:02Z</time>
      </trkpt>
      <trkpt lat="45.54377" lon="2.53256">
        <ele>564.59</ele>
        <time>2022-08-16T11:55:03Z</time>
      </trkpt>
      <trkpt lat="45.5438" lon="2.53274">
        <ele>565.39</ele>
        <time>2022-08-16T11:55:04Z</time>
      </trkpt>
      <trkpt lat="45.54382" lon="2.53294">
        <ele>565.4</ele>
        <time>2022-08-16T11:55:05Z</time>
      </trkpt>
      <trkpt lat="45.54384" lon="2.53314">
        <ele>566.96</ele>
        <time>2022-08-16T11:55:06Z</time>
      </trkpt>
      <trkpt lat="45.54388" lon="2.53334">
        <ele>566.98</ele>
        <time>2022-08-16T11:55:07Z</time>
      </trkpt>
      <trkpt lat="45.54403" lon="2.53395">
        <ele>569.65</ele>
        <time>2022-08-16T11:55:10Z</time>
      </trkpt>
      <trkpt lat="45.54407" lon="2.53416">
        <ele>569.44</ele>
        <time>2022-08-16T11:55:11Z</time>
      </trkpt>
      <trkpt lat="45.54418" lon="2.53479">
        <ele>571.78</ele>
        <time>2022-08-16T11:55:14Z</time>
      </trkpt>
      <trkpt lat="45.54431" lon="2.53617">
        <ele>573.92</ele>
        <time>2022-08-16T11:55:21Z</time>
      </trkpt>
      <trkpt lat="45.54435" lon="2.53632">
        <ele>573.85</ele>
        <time>2022-08-16T11:55:22Z</time>
      </trkpt>
      <trkpt lat="45.54442" lon="2.53644">
        <ele>574.68</ele>
        <time>2022-08-16T11:55:23Z</time>
      </trkpt>
      <trkpt lat="45.5445" lon="2.53654">
        <ele>574.61</ele>
        <time>2022-08-16T11:55:24Z</time>
      </trkpt>
      <trkpt lat="45.54462" lon="2.53658">
        <ele>576.03</ele>
        <time>2022-08-16T11:55:25Z</time>
      </trkpt>
      <trkpt lat="45.54476" lon="2.53661">
        <ele>576</ele>
        <time>2022-08-16T11:55:26Z</time>
      </trkpt>
      <trkpt lat="45.54489" lon="2.53663">
        <ele>576.02</ele>
        <time>2022-08-16T11:55:27Z</time>
      </trkpt>
      <trkpt lat="45.545" lon="2.53666">
        <ele>576.84</ele>
        <time>2022-08-16T11:55:28Z</time>
      </trkpt>
      <trkpt lat="45.54511" lon="2.5367">
        <ele>576.84</ele>
        <time>2022-08-16T11:55:29Z</time>
      </trkpt>
      <trkpt lat="45.5452" lon="2.53675">
        <ele>576.85</ele>
        <time>2022-08-16T11:55:30Z</time>
      </trkpt>
      <trkpt lat="45.54528" lon="2.53682">
        <ele>576.88</ele>
        <time>2022-08-16T11:55:31Z</time>
      </trkpt>
      <trkpt lat="45.54532" lon="2.53693">
        <ele>576.87</ele>
        <time>2022-08-16T11:55:32Z</time>
      </trkpt>
      <trkpt lat="45.54534" lon="2.53706">
        <ele>576.84</ele>
        <time>2022-08-16T11:55:33Z</time>
      </trkpt>
      <trkpt lat="45.54535" lon="2.5372">
        <ele>576.6</ele>
        <time>2022-08-16T11:55:34Z</time>
      </trkpt>
      <trkpt lat="45.54534" lon="2.53734">
        <ele>576.77</ele>
        <time>2022-08-16T11:55:35Z</time>
      </trkpt>
      <trkpt lat="45.54532" lon="2.53747">
        <ele>576.62</ele>
        <time>2022-08-16T11:55:36Z</time>
      </trkpt>
      <trkpt lat="45.54528" lon="2.53757">
        <ele>577.41</ele>
        <time>2022-08-16T11:55:37Z</time>
      </trkpt>
      <trkpt lat="45.54521" lon="2.53764">
        <ele>577.42</ele>
        <time>2022-08-16T11:55:38Z</time>
      </trkpt>
      <trkpt lat="45.54508" lon="2.53768">
        <ele>577.42</ele>
        <time>2022-08-16T11:55:39Z</time>
      </trkpt>
      <trkpt lat="45.54496" lon="2.53773">
        <ele>579.49</ele>
        <time>2022-08-16T11:55:40Z</time>
      </trkpt>
      <trkpt lat="45.54485" lon="2.53777">
        <ele>579.49</ele>
        <time>2022-08-16T11:55:41Z</time>
      </trkpt>
      <trkpt lat="45.54466" lon="2.53787">
        <ele>579.49</ele>
        <time>2022-08-16T11:55:43Z</time>
      </trkpt>
      <trkpt lat="45.5446" lon="2.53796">
        <ele>579.49</ele>
        <time>2022-08-16T11:55:44Z</time>
      </trkpt>
      <trkpt lat="45.54458" lon="2.53808">
        <ele>580.32</ele>
        <time>2022-08-16T11:55:45Z</time>
      </trkpt>
      <trkpt lat="45.54455" lon="2.53837">
        <ele>581.38</ele>
        <time>2022-08-16T11:55:47Z</time>
      </trkpt>
      <trkpt lat="45.54454" lon="2.53872">
        <ele>582.3</ele>
        <time>2022-08-16T11:55:49Z</time>
      </trkpt>
      <trkpt lat="45.54458" lon="2.53905">
        <ele>583.7</ele>
        <time>2022-08-16T11:55:51Z</time>
      </trkpt>
      <trkpt lat="45.54464" lon="2.53922">
        <ele>584.78</ele>
        <time>2022-08-16T11:55:52Z</time>
      </trkpt>
      <trkpt lat="45.54493" lon="2.53974">
        <ele>587.35</ele>
        <time>2022-08-16T11:55:55Z</time>
      </trkpt>
      <trkpt lat="45.54512" lon="2.54013">
        <ele>589.1</ele>
        <time>2022-08-16T11:55:57Z</time>
      </trkpt>
      <trkpt lat="45.54557" lon="2.54117">
        <ele>588.67</ele>
        <time>2022-08-16T11:56:04Z</time>
      </trkpt>
      <trkpt lat="45.54592" lon="2.54182">
        <ele>589.66</ele>
        <time>2022-08-16T11:56:11Z</time>
      </trkpt>
      <trkpt lat="45.54599" lon="2.5419">
        <ele>589.66</ele>
        <time>2022-08-16T11:56:12Z</time>
      </trkpt>
      <trkpt lat="45.54608" lon="2.54196">
        <ele>589.66</ele>
        <time>2022-08-16T11:56:13Z</time>
      </trkpt>
      <trkpt lat="45.5462" lon="2.542">
        <ele>589.66</ele>
        <time>2022-08-16T11:56:14Z</time>
      </trkpt>
      <trkpt lat="45.54634" lon="2.54204">
        <ele>589.67</ele>
        <time>2022-08-16T11:56:15Z</time>
      </trkpt>
      <trkpt lat="45.54693" lon="2.5422">
        <ele>586.39</ele>
        <time>2022-08-16T11:56:19Z</time>
      </trkpt>
      <trkpt lat="45.54732" lon="2.54233">
        <ele>581.42</ele>
        <time>2022-08-16T11:56:22Z</time>
      </trkpt>
      <trkpt lat="45.54751" lon="2.54245">
        <ele>579.53</ele>
        <time>2022-08-16T11:56:24Z</time>
      </trkpt>
      <trkpt lat="45.54756" lon="2.54256">
        <ele>578.32</ele>
        <time>2022-08-16T11:56:25Z</time>
      </trkpt>
      <trkpt lat="45.54758" lon="2.54268">
        <ele>577.61</ele>
        <time>2022-08-16T11:56:26Z</time>
      </trkpt>
      <trkpt lat="45.54756" lon="2.54281">
        <ele>576.83</ele>
        <time>2022-08-16T11:56:27Z</time>
      </trkpt>
      <trkpt lat="45.5475" lon="2.54292">
        <ele>576.76</ele>
        <time>2022-08-16T11:56:28Z</time>
      </trkpt>
      <trkpt lat="45.5474" lon="2.543">
        <ele>576.77</ele>
        <time>2022-08-16T11:56:29Z</time>
      </trkpt>
      <trkpt lat="45.54727" lon="2.54306">
        <ele>576.71</ele>
        <time>2022-08-16T11:56:30Z</time>
      </trkpt>
      <trkpt lat="45.54713" lon="2.54309">
        <ele>576.65</ele>
        <time>2022-08-16T11:56:31Z</time>
      </trkpt>
      <trkpt lat="45.54698" lon="2.5431">
        <ele>576.72</ele>
        <time>2022-08-16T11:56:32Z</time>
      </trkpt>
      <trkpt lat="45.54639" lon="2.5431">
        <ele>573.33</ele>
        <time>2022-08-16T11:56:36Z</time>
      </trkpt>
      <trkpt lat="45.54624" lon="2.54304">
        <ele>573.27</ele>
        <time>2022-08-16T11:56:37Z</time>
      </trkpt>
      <trkpt lat="45.54581" lon="2.54281">
        <ele>571.19</ele>
        <time>2022-08-16T11:56:40Z</time>
      </trkpt>
      <trkpt lat="45.54555" lon="2.54266">
        <ele>569.25</ele>
        <time>2022-08-16T11:56:42Z</time>
      </trkpt>
      <trkpt lat="45.54518" lon="2.54243">
        <ele>567.34</ele>
        <time>2022-08-16T11:56:45Z</time>
      </trkpt>
      <trkpt lat="45.54507" lon="2.54236">
        <ele>565.89</ele>
        <time>2022-08-16T11:56:46Z</time>
      </trkpt>
      <trkpt lat="45.54496" lon="2.54232">
        <ele>565.89</ele>
        <time>2022-08-16T11:56:47Z</time>
      </trkpt>
      <trkpt lat="45.54485" lon="2.54231">
        <ele>564.8</ele>
        <time>2022-08-16T11:56:48Z</time>
      </trkpt>
      <trkpt lat="45.54475" lon="2.54237">
        <ele>563.74</ele>
        <time>2022-08-16T11:56:49Z</time>
      </trkpt>
      <trkpt lat="45.54467" lon="2.54247">
        <ele>562.8</ele>
        <time>2022-08-16T11:56:50Z</time>
      </trkpt>
      <trkpt lat="45.54462" lon="2.5426">
        <ele>561.43</ele>
        <time>2022-08-16T11:56:51Z</time>
      </trkpt>
      <trkpt lat="45.54459" lon="2.54275">
        <ele>560.4</ele>
        <time>2022-08-16T11:56:52Z</time>
      </trkpt>
      <trkpt lat="45.54456" lon="2.5429">
        <ele>559.55</ele>
        <time>2022-08-16T11:56:53Z</time>
      </trkpt>
      <trkpt lat="45.54451" lon="2.54303">
        <ele>558.54</ele>
        <time>2022-08-16T11:56:54Z</time>
      </trkpt>
      <trkpt lat="45.54444" lon="2.54314">
        <ele>558.45</ele>
        <time>2022-08-16T11:56:55Z</time>
      </trkpt>
      <trkpt lat="45.54436" lon="2.54322">
        <ele>556.77</ele>
        <time>2022-08-16T11:56:56Z</time>
      </trkpt>
      <trkpt lat="45.54426" lon="2.54326">
        <ele>555.82</ele>
        <time>2022-08-16T11:56:57Z</time>
      </trkpt>
      <trkpt lat="45.54415" lon="2.54326">
        <ele>555.73</ele>
        <time>2022-08-16T11:56:58Z</time>
      </trkpt>
      <trkpt lat="45.54405" lon="2.54323">
        <ele>554.41</ele>
        <time>2022-08-16T11:56:59Z</time>
      </trkpt>
      <trkpt lat="45.54396" lon="2.5432">
        <ele>554.42</ele>
        <time>2022-08-16T11:57:00Z</time>
      </trkpt>
      <trkpt lat="45.54377" lon="2.54314">
        <ele>552.74</ele>
        <time>2022-08-16T11:57:02Z</time>
      </trkpt>
      <trkpt lat="45.54334" lon="2.54299">
        <ele>551.62</ele>
        <time>2022-08-16T11:57:09Z</time>
      </trkpt>
      <trkpt lat="45.54329" lon="2.54297">
        <ele>551.71</ele>
        <time>2022-08-16T11:57:10Z</time>
      </trkpt>
      <trkpt lat="45.54325" lon="2.54294">
        <ele>551.75</ele>
        <time>2022-08-16T11:57:11Z</time>
      </trkpt>
      <trkpt lat="45.54323" lon="2.5429">
        <ele>551.72</ele>
        <time>2022-08-16T11:57:12Z</time>
      </trkpt>
      <trkpt lat="45.54322" lon="2.54287">
        <ele>551.79</ele>
        <time>2022-08-16T11:57:13Z</time>
      </trkpt>
      <trkpt lat="45.54322" lon="2.54283">
        <ele>550.78</ele>
        <time>2022-08-16T11:57:14Z</time>
      </trkpt>
      <trkpt lat="45.54322" lon="2.5428">
        <ele>551.12</ele>
        <time>2022-08-16T11:57:15Z</time>
      </trkpt>
      <trkpt lat="45.54322" lon="2.54273">
        <ele>551.13</ele>
        <time>2022-08-16T11:57:26Z</time>
      </trkpt>
      <trkpt lat="45.54322" lon="2.54268">
        <ele>553.16</ele>
        <time>2022-08-16T11:57:52Z</time>
      </trkpt>
      <trkpt lat="45.5428" lon="2.54205">
        <ele>552.94</ele>
        <time>2022-08-16T12:01:52Z</time>
      </trkpt>
      <trkpt lat="45.54288" lon="2.54182">
        <ele>554.38</ele>
        <time>2022-08-16T12:01:59Z</time>
      </trkpt>
      <trkpt lat="45.54295" lon="2.54137">
        <ele>554.81</ele>
        <time>2022-08-16T12:02:11Z</time>
      </trkpt>
      <trkpt lat="45.54307" lon="2.54101">
        <ele>554.58</ele>
        <time>2022-08-16T12:02:21Z</time>
      </trkpt>
      <trkpt lat="45.54334" lon="2.54082">
        <ele>554.6</ele>
        <time>2022-08-16T12:02:30Z</time>
      </trkpt>
      <trkpt lat="45.54336" lon="2.54085">
        <ele>554.6</ele>
        <time>2022-08-16T12:02:31Z</time>
      </trkpt>
      <trkpt lat="45.54338" lon="2.5409">
        <ele>554.6</ele>
        <time>2022-08-16T12:02:32Z</time>
      </trkpt>
      <trkpt lat="45.54338" lon="2.54094">
        <ele>554.61</ele>
        <time>2022-08-16T12:02:33Z</time>
      </trkpt>
      <trkpt lat="45.54337" lon="2.54099">
        <ele>554.61</ele>
        <time>2022-08-16T12:02:34Z</time>
      </trkpt>
      <trkpt lat="45.54336" lon="2.54103">
        <ele>554.6</ele>
        <time>2022-08-16T12:02:35Z</time>
      </trkpt>
      <trkpt lat="45.54335" lon="2.54107">
        <ele>554.61</ele>
        <time>2022-08-16T12:02:36Z</time>
      </trkpt>
      <trkpt lat="45.54334" lon="2.54111">
        <ele>554.6</ele>
        <time>2022-08-16T12:02:37Z</time>
      </trkpt>
      <trkpt lat="45.54333" lon="2.54116">
        <ele>554.6</ele>
        <time>2022-08-16T12:02:38Z</time>
      </trkpt>
      <trkpt lat="45.54326" lon="2.54162">
        <ele>556.18</ele>
        <time>2022-08-16T12:02:50Z</time>
      </trkpt>
      <trkpt lat="45.54324" lon="2.54174">
        <ele>556.19</ele>
        <time>2022-08-16T12:02:53Z</time>
      </trkpt>
      <trkpt lat="45.54325" lon="2.54177">
        <ele>556.15</ele>
        <time>2022-08-16T12:02:54Z</time>
      </trkpt>
      <trkpt lat="45.54328" lon="2.54173">
        <ele>556.15</ele>
        <time>2022-08-16T12:02:57Z</time>
      </trkpt>
      <trkpt lat="45.54328" lon="2.54169">
        <ele>556.14</ele>
        <time>2022-08-16T12:02:58Z</time>
      </trkpt>
      <trkpt lat="45.54328" lon="2.54166">
        <ele>556.14</ele>
        <time>2022-08-16T12:02:59Z</time>
      </trkpt>
      <trkpt lat="45.54334" lon="2.54134">
        <ele>556.11</ele>
        <time>2022-08-16T12:03:08Z</time>
      </trkpt>
      <trkpt lat="45.54341" lon="2.54095">
        <ele>556.03</ele>
        <time>2022-08-16T12:03:20Z</time>
      </trkpt>
      <trkpt lat="45.54353" lon="2.54063">
        <ele>556.07</ele>
        <time>2022-08-16T12:03:28Z</time>
      </trkpt>
      <trkpt lat="45.54352" lon="2.54058">
        <ele>556.06</ele>
        <time>2022-08-16T12:03:29Z</time>
      </trkpt>
      <trkpt lat="45.5435" lon="2.54054">
        <ele>556.07</ele>
        <time>2022-08-16T12:03:30Z</time>
      </trkpt>
      <trkpt lat="45.54348" lon="2.54051">
        <ele>556.07</ele>
        <time>2022-08-16T12:03:31Z</time>
      </trkpt>
      <trkpt lat="45.54345" lon="2.54047">
        <ele>556.05</ele>
        <time>2022-08-16T12:03:32Z</time>
      </trkpt>
      <trkpt lat="45.54343" lon="2.54043">
        <ele>556.03</ele>
        <time>2022-08-16T12:03:33Z</time>
      </trkpt>
      <trkpt lat="45.5434" lon="2.5404">
        <ele>556.05</ele>
        <time>2022-08-16T12:03:34Z</time>
      </trkpt>
      <trkpt lat="45.54338" lon="2.54036">
        <ele>556.02</ele>
        <time>2022-08-16T12:03:35Z</time>
      </trkpt>
      <trkpt lat="45.54336" lon="2.54033">
        <ele>556.04</ele>
        <time>2022-08-16T12:03:36Z</time>
      </trkpt>
      <trkpt lat="45.54334" lon="2.54027">
        <ele>553.74</ele>
        <time>2022-08-16T12:03:38Z</time>
      </trkpt>
      <trkpt lat="45.54333" lon="2.54023">
        <ele>553.73</ele>
        <time>2022-08-16T12:03:40Z</time>
      </trkpt>
      <trkpt lat="45.54332" lon="2.54022">
        <ele>553.75</ele>
        <time>2022-08-16T12:03:41Z</time>
      </trkpt>
      <trkpt lat="45.5433" lon="2.54022">
        <ele>553.7</ele>
        <time>2022-08-16T12:03:42Z</time>
      </trkpt>
      <trkpt lat="45.54331" lon="2.54029">
        <ele>553.71</ele>
        <time>2022-08-16T12:03:45Z</time>
      </trkpt>
      <trkpt lat="45.54333" lon="2.54032">
        <ele>553.79</ele>
        <time>2022-08-16T12:03:46Z</time>
      </trkpt>
      <trkpt lat="45.54349" lon="2.54084">
        <ele>553.68</ele>
        <time>2022-08-16T12:03:57Z</time>
      </trkpt>
      <trkpt lat="45.54362" lon="2.54128">
        <ele>553.67</ele>
        <time>2022-08-16T12:04:07Z</time>
      </trkpt>
      <trkpt lat="45.5436" lon="2.54166">
        <ele>556.09</ele>
        <time>2022-08-16T12:04:16Z</time>
      </trkpt>
      <trkpt lat="45.54359" lon="2.54171">
        <ele>556.08</ele>
        <time>2022-08-16T12:04:17Z</time>
      </trkpt>
      <trkpt lat="45.54342" lon="2.54243">
        <ele>556.89</ele>
        <time>2022-08-16T12:04:31Z</time>
      </trkpt>
      <trkpt lat="45.54339" lon="2.54244">
        <ele>556.86</ele>
        <time>2022-08-16T12:04:32Z</time>
      </trkpt>
      <trkpt lat="45.54336" lon="2.54244">
        <ele>556.86</ele>
        <time>2022-08-16T12:04:33Z</time>
      </trkpt>
      <trkpt lat="45.54332" lon="2.54243">
        <ele>556.86</ele>
        <time>2022-08-16T12:04:34Z</time>
      </trkpt>
      <trkpt lat="45.54328" lon="2.54242">
        <ele>556.86</ele>
        <time>2022-08-16T12:04:35Z</time>
      </trkpt>
      <trkpt lat="45.54324" lon="2.5424">
        <ele>556.85</ele>
        <time>2022-08-16T12:04:36Z</time>
      </trkpt>
      <trkpt lat="45.54312" lon="2.54218">
        <ele>556.77</ele>
        <time>2022-08-16T12:04:44Z</time>
      </trkpt>
      <trkpt lat="45.54322" lon="2.54173">
        <ele>556.68</ele>
        <time>2022-08-16T12:04:57Z</time>
      </trkpt>
      <trkpt lat="45.54329" lon="2.54132">
        <ele>556.67</ele>
        <time>2022-08-16T12:05:09Z</time>
      </trkpt>
      <trkpt lat="45.54333" lon="2.54121">
        <ele>554.29</ele>
        <time>2022-08-16T12:05:13Z</time>
      </trkpt>
      <trkpt lat="45.54336" lon="2.54111">
        <ele>554.19</ele>
        <time>2022-08-16T12:05:26Z</time>
      </trkpt>
      <trkpt lat="45.54337" lon="2.54108">
        <ele>554.14</ele>
        <time>2022-08-16T12:05:32Z</time>
      </trkpt>
      <trkpt lat="45.54337" lon="2.54106">
        <ele>554.08</ele>
        <time>2022-08-16T12:05:46Z</time>
      </trkpt>
      <trkpt lat="45.54338" lon="2.54102">
        <ele>553.68</ele>
        <time>2022-08-16T12:06:55Z</time>
      </trkpt>
      <trkpt lat="45.54336" lon="2.54091">
        <ele>553.67</ele>
        <time>2022-08-16T12:06:57Z</time>
      </trkpt>
      <trkpt lat="45.54334" lon="2.54087">
        <ele>553.66</ele>
        <time>2022-08-16T12:06:58Z</time>
      </trkpt>
      <trkpt lat="45.54331" lon="2.54085">
        <ele>553.65</ele>
        <time>2022-08-16T12:06:59Z</time>
      </trkpt>
      <trkpt lat="45.54328" lon="2.54085">
        <ele>553.64</ele>
        <time>2022-08-16T12:07:00Z</time>
      </trkpt>
      <trkpt lat="45.54325" lon="2.54086">
        <ele>553.62</ele>
        <time>2022-08-16T12:07:01Z</time>
      </trkpt>
      <trkpt lat="45.54323" lon="2.54087">
        <ele>553.61</ele>
        <time>2022-08-16T12:07:02Z</time>
      </trkpt>
      <trkpt lat="45.54308" lon="2.54101">
        <ele>552.74</ele>
        <time>2022-08-16T12:07:09Z</time>
      </trkpt>
      <trkpt lat="45.54307" lon="2.54105">
        <ele>552.7</ele>
        <time>2022-08-16T12:07:21Z</time>
      </trkpt>
      <trkpt lat="45.54309" lon="2.54111">
        <ele>552.47</ele>
        <time>2022-08-16T12:08:33Z</time>
      </trkpt>
      <trkpt lat="45.54309" lon="2.54112">
        <ele>551.4</ele>
        <time>2022-08-16T12:08:47Z</time>
      </trkpt>
      <trkpt lat="45.54285" lon="2.54216">
        <ele>564.36</ele>
        <time>2022-08-16T13:47:10Z</time>
      </trkpt>
      <trkpt lat="45.54306" lon="2.54239">
        <ele>564.05</ele>
        <time>2022-08-16T13:47:17Z</time>
      </trkpt>
      <trkpt lat="45.54307" lon="2.54243">
        <ele>564.15</ele>
        <time>2022-08-16T13:47:18Z</time>
      </trkpt>
      <trkpt lat="45.54307" lon="2.54248">
        <ele>563.2</ele>
        <time>2022-08-16T13:47:19Z</time>
      </trkpt>
      <trkpt lat="45.54306" lon="2.54253">
        <ele>562.85</ele>
        <time>2022-08-16T13:47:20Z</time>
      </trkpt>
      <trkpt lat="45.54304" lon="2.5426">
        <ele>562.53</ele>
        <time>2022-08-16T13:47:22Z</time>
      </trkpt>
      <trkpt lat="45.54306" lon="2.54263">
        <ele>562.22</ele>
        <time>2022-08-16T13:47:23Z</time>
      </trkpt>
      <trkpt lat="45.54309" lon="2.54266">
        <ele>561.95</ele>
        <time>2022-08-16T13:47:24Z</time>
      </trkpt>
      <trkpt lat="45.54313" lon="2.54271">
        <ele>561.65</ele>
        <time>2022-08-16T13:47:25Z</time>
      </trkpt>
      <trkpt lat="45.54315" lon="2.54275">
        <ele>561.35</ele>
        <time>2022-08-16T13:47:26Z</time>
      </trkpt>
      <trkpt lat="45.54315" lon="2.54279">
        <ele>561.91</ele>
        <time>2022-08-16T13:47:27Z</time>
      </trkpt>
      <trkpt lat="45.54313" lon="2.54283">
        <ele>561.67</ele>
        <time>2022-08-16T13:47:28Z</time>
      </trkpt>
      <trkpt lat="45.54308" lon="2.54284">
        <ele>561.49</ele>
        <time>2022-08-16T13:47:29Z</time>
      </trkpt>
      <trkpt lat="45.54303" lon="2.54283">
        <ele>561.58</ele>
        <time>2022-08-16T13:47:30Z</time>
      </trkpt>
      <trkpt lat="45.54298" lon="2.54281">
        <ele>561.61</ele>
        <time>2022-08-16T13:47:31Z</time>
      </trkpt>
      <trkpt lat="45.54244" lon="2.54261">
        <ele>561.6</ele>
        <time>2022-08-16T13:47:39Z</time>
      </trkpt>
      <trkpt lat="45.54236" lon="2.54256">
        <ele>561.58</ele>
        <time>2022-08-16T13:47:40Z</time>
      </trkpt>
      <trkpt lat="45.54229" lon="2.5425">
        <ele>561.57</ele>
        <time>2022-08-16T13:47:41Z</time>
      </trkpt>
      <trkpt lat="45.54222" lon="2.54243">
        <ele>561.58</ele>
        <time>2022-08-16T13:47:42Z</time>
      </trkpt>
      <trkpt lat="45.54215" lon="2.54236">
        <ele>561.6</ele>
        <time>2022-08-16T13:47:43Z</time>
      </trkpt>
      <trkpt lat="45.54209" lon="2.54228">
        <ele>561.64</ele>
        <time>2022-08-16T13:47:44Z</time>
      </trkpt>
      <trkpt lat="45.54202" lon="2.54219">
        <ele>561.63</ele>
        <time>2022-08-16T13:47:45Z</time>
      </trkpt>
      <trkpt lat="45.5419" lon="2.542">
        <ele>564.08</ele>
        <time>2022-08-16T13:47:47Z</time>
      </trkpt>
      <trkpt lat="45.54186" lon="2.5419">
        <ele>565.65</ele>
        <time>2022-08-16T13:47:48Z</time>
      </trkpt>
      <trkpt lat="45.54182" lon="2.54178">
        <ele>565.66</ele>
        <time>2022-08-16T13:47:49Z</time>
      </trkpt>
      <trkpt lat="45.54179" lon="2.54167">
        <ele>566.88</ele>
        <time>2022-08-16T13:47:50Z</time>
      </trkpt>
      <trkpt lat="45.54177" lon="2.54155">
        <ele>566.92</ele>
        <time>2022-08-16T13:47:51Z</time>
      </trkpt>
      <trkpt lat="45.5417" lon="2.5413">
        <ele>567.93</ele>
        <time>2022-08-16T13:47:53Z</time>
      </trkpt>
      <trkpt lat="45.54165" lon="2.54118">
        <ele>567.96</ele>
        <time>2022-08-16T13:47:54Z</time>
      </trkpt>
      <trkpt lat="45.54159" lon="2.54107">
        <ele>568.8</ele>
        <time>2022-08-16T13:47:55Z</time>
      </trkpt>
      <trkpt lat="45.54153" lon="2.54097">
        <ele>568.83</ele>
        <time>2022-08-16T13:47:56Z</time>
      </trkpt>
      <trkpt lat="45.54145" lon="2.54088">
        <ele>568.84</ele>
        <time>2022-08-16T13:47:57Z</time>
      </trkpt>
      <trkpt lat="45.54137" lon="2.5408">
        <ele>568.84</ele>
        <time>2022-08-16T13:47:58Z</time>
      </trkpt>
      <trkpt lat="45.54129" lon="2.54074">
        <ele>568.88</ele>
        <time>2022-08-16T13:47:59Z</time>
      </trkpt>
      <trkpt lat="45.54119" lon="2.54069">
        <ele>570</ele>
        <time>2022-08-16T13:48:00Z</time>
      </trkpt>
      <trkpt lat="45.5411" lon="2.54064">
        <ele>570.03</ele>
        <time>2022-08-16T13:48:01Z</time>
      </trkpt>
      <trkpt lat="45.54078" lon="2.54055">
        <ele>571.1</ele>
        <time>2022-08-16T13:48:04Z</time>
      </trkpt>
      <trkpt lat="45.54067" lon="2.54055">
        <ele>572.77</ele>
        <time>2022-08-16T13:48:05Z</time>
      </trkpt>
      <trkpt lat="45.54056" lon="2.54055">
        <ele>572.8</ele>
        <time>2022-08-16T13:48:06Z</time>
      </trkpt>
      <trkpt lat="45.54046" lon="2.54058">
        <ele>573.71</ele>
        <time>2022-08-16T13:48:07Z</time>
      </trkpt>
      <trkpt lat="45.54036" lon="2.54062">
        <ele>574.94</ele>
        <time>2022-08-16T13:48:08Z</time>
      </trkpt>
      <trkpt lat="45.54026" lon="2.54067">
        <ele>574.95</ele>
        <time>2022-08-16T13:48:09Z</time>
      </trkpt>
      <trkpt lat="45.54008" lon="2.54076">
        <ele>576.8</ele>
        <time>2022-08-16T13:48:11Z</time>
      </trkpt>
      <trkpt lat="45.53998" lon="2.54079">
        <ele>577.66</ele>
        <time>2022-08-16T13:48:12Z</time>
      </trkpt>
      <trkpt lat="45.53988" lon="2.54081">
        <ele>578.67</ele>
        <time>2022-08-16T13:48:13Z</time>
      </trkpt>
      <trkpt lat="45.53967" lon="2.54085">
        <ele>579.97</ele>
        <time>2022-08-16T13:48:15Z</time>
      </trkpt>
      <trkpt lat="45.53945" lon="2.54086">
        <ele>581.42</ele>
        <time>2022-08-16T13:48:17Z</time>
      </trkpt>
      <trkpt lat="45.53924" lon="2.54089">
        <ele>583.74</ele>
        <time>2022-08-16T13:48:19Z</time>
      </trkpt>
      <trkpt lat="45.53891" lon="2.54089">
        <ele>585.61</ele>
        <time>2022-08-16T13:48:22Z</time>
      </trkpt>
      <trkpt lat="45.5388" lon="2.54087">
        <ele>587.23</ele>
        <time>2022-08-16T13:48:23Z</time>
      </trkpt>
      <trkpt lat="45.53869" lon="2.54082">
        <ele>587.29</ele>
        <time>2022-08-16T13:48:24Z</time>
      </trkpt>
      <trkpt lat="45.53859" lon="2.54077">
        <ele>588.7</ele>
        <time>2022-08-16T13:48:25Z</time>
      </trkpt>
      <trkpt lat="45.5385" lon="2.54069">
        <ele>589.69</ele>
        <time>2022-08-16T13:48:26Z</time>
      </trkpt>
      <trkpt lat="45.53842" lon="2.5406">
        <ele>590.98</ele>
        <time>2022-08-16T13:48:27Z</time>
      </trkpt>
      <trkpt lat="45.53834" lon="2.5405">
        <ele>591.99</ele>
        <time>2022-08-16T13:48:28Z</time>
      </trkpt>
      <trkpt lat="45.53827" lon="2.54041">
        <ele>592</ele>
        <time>2022-08-16T13:48:29Z</time>
      </trkpt>
      <trkpt lat="45.53819" lon="2.54035">
        <ele>593.05</ele>
        <time>2022-08-16T13:48:30Z</time>
      </trkpt>
      <trkpt lat="45.53809" lon="2.54031">
        <ele>594.36</ele>
        <time>2022-08-16T13:48:31Z</time>
      </trkpt>
      <trkpt lat="45.53799" lon="2.5403">
        <ele>595.42</ele>
        <time>2022-08-16T13:48:32Z</time>
      </trkpt>
      <trkpt lat="45.53789" lon="2.5403">
        <ele>596.6</ele>
        <time>2022-08-16T13:48:33Z</time>
      </trkpt>
      <trkpt lat="45.53779" lon="2.5403">
        <ele>596.71</ele>
        <time>2022-08-16T13:48:34Z</time>
      </trkpt>
      <trkpt lat="45.53757" lon="2.54031">
        <ele>598.59</ele>
        <time>2022-08-16T13:48:36Z</time>
      </trkpt>
      <trkpt lat="45.53711" lon="2.54035">
        <ele>602.42</ele>
        <time>2022-08-16T13:48:40Z</time>
      </trkpt>
      <trkpt lat="45.537" lon="2.54039">
        <ele>603.63</ele>
        <time>2022-08-16T13:48:41Z</time>
      </trkpt>
      <trkpt lat="45.53689" lon="2.54045">
        <ele>604.64</ele>
        <time>2022-08-16T13:48:42Z</time>
      </trkpt>
      <trkpt lat="45.53669" lon="2.54057">
        <ele>605.75</ele>
        <time>2022-08-16T13:48:44Z</time>
      </trkpt>
      <trkpt lat="45.53658" lon="2.5406">
        <ele>605.75</ele>
        <time>2022-08-16T13:48:45Z</time>
      </trkpt>
      <trkpt lat="45.53648" lon="2.5406">
        <ele>607.73</ele>
        <time>2022-08-16T13:48:46Z</time>
      </trkpt>
      <trkpt lat="45.53638" lon="2.54057">
        <ele>607.93</ele>
        <time>2022-08-16T13:48:47Z</time>
      </trkpt>
      <trkpt lat="45.53628" lon="2.54052">
        <ele>609.63</ele>
        <time>2022-08-16T13:48:48Z</time>
      </trkpt>
      <trkpt lat="45.53618" lon="2.54047">
        <ele>609.71</ele>
        <time>2022-08-16T13:48:49Z</time>
      </trkpt>
      <trkpt lat="45.53608" lon="2.54044">
        <ele>611.8</ele>
        <time>2022-08-16T13:48:50Z</time>
      </trkpt>
      <trkpt lat="45.53598" lon="2.54041">
        <ele>613.08</ele>
        <time>2022-08-16T13:48:51Z</time>
      </trkpt>
      <trkpt lat="45.53587" lon="2.5404">
        <ele>613.09</ele>
        <time>2022-08-16T13:48:52Z</time>
      </trkpt>
      <trkpt lat="45.53566" lon="2.54037">
        <ele>614.41</ele>
        <time>2022-08-16T13:48:54Z</time>
      </trkpt>
      <trkpt lat="45.53544" lon="2.54034">
        <ele>616.17</ele>
        <time>2022-08-16T13:48:56Z</time>
      </trkpt>
      <trkpt lat="45.53509" lon="2.54031">
        <ele>618.93</ele>
        <time>2022-08-16T13:48:59Z</time>
      </trkpt>
      <trkpt lat="45.53487" lon="2.54034">
        <ele>621.17</ele>
        <time>2022-08-16T13:49:01Z</time>
      </trkpt>
      <trkpt lat="45.53476" lon="2.54037">
        <ele>621.11</ele>
        <time>2022-08-16T13:49:02Z</time>
      </trkpt>
      <trkpt lat="45.53465" lon="2.54039">
        <ele>622.64</ele>
        <time>2022-08-16T13:49:03Z</time>
      </trkpt>
      <trkpt lat="45.53454" lon="2.54038">
        <ele>622.64</ele>
        <time>2022-08-16T13:49:04Z</time>
      </trkpt>
      <trkpt lat="45.53444" lon="2.54033">
        <ele>624.18</ele>
        <time>2022-08-16T13:49:05Z</time>
      </trkpt>
      <trkpt lat="45.53427" lon="2.54022">
        <ele>624.94</ele>
        <time>2022-08-16T13:49:07Z</time>
      </trkpt>
      <trkpt lat="45.53418" lon="2.54022">
        <ele>626.63</ele>
        <time>2022-08-16T13:49:08Z</time>
      </trkpt>
      <trkpt lat="45.53409" lon="2.54024">
        <ele>626.7</ele>
        <time>2022-08-16T13:49:09Z</time>
      </trkpt>
      <trkpt lat="45.53389" lon="2.54027">
        <ele>629.51</ele>
        <time>2022-08-16T13:49:11Z</time>
      </trkpt>
      <trkpt lat="45.5338" lon="2.54028">
        <ele>629.51</ele>
        <time>2022-08-16T13:49:12Z</time>
      </trkpt>
      <trkpt lat="45.53369" lon="2.54029">
        <ele>631.36</ele>
        <time>2022-08-16T13:49:13Z</time>
      </trkpt>
      <trkpt lat="45.53359" lon="2.54024">
        <ele>631.36</ele>
        <time>2022-08-16T13:49:14Z</time>
      </trkpt>
      <trkpt lat="45.5335" lon="2.54017">
        <ele>633.1</ele>
        <time>2022-08-16T13:49:15Z</time>
      </trkpt>
      <trkpt lat="45.53342" lon="2.54012">
        <ele>633.96</ele>
        <time>2022-08-16T13:49:16Z</time>
      </trkpt>
      <trkpt lat="45.53334" lon="2.54005">
        <ele>633.96</ele>
        <time>2022-08-16T13:49:17Z</time>
      </trkpt>
      <trkpt lat="45.5331" lon="2.5398">
        <ele>636.64</ele>
        <time>2022-08-16T13:49:20Z</time>
      </trkpt>
      <trkpt lat="45.53296" lon="2.53965">
        <ele>638.27</ele>
        <time>2022-08-16T13:49:22Z</time>
      </trkpt>
      <trkpt lat="45.53286" lon="2.53953">
        <ele>640.3</ele>
        <time>2022-08-16T13:49:24Z</time>
      </trkpt>
      <trkpt lat="45.53283" lon="2.53945">
        <ele>640.36</ele>
        <time>2022-08-16T13:49:25Z</time>
      </trkpt>
      <trkpt lat="45.5328" lon="2.53935">
        <ele>641.54</ele>
        <time>2022-08-16T13:49:26Z</time>
      </trkpt>
      <trkpt lat="45.5328" lon="2.53924">
        <ele>642.63</ele>
        <time>2022-08-16T13:49:27Z</time>
      </trkpt>
      <trkpt lat="45.53284" lon="2.53912">
        <ele>643.78</ele>
        <time>2022-08-16T13:49:28Z</time>
      </trkpt>
      <trkpt lat="45.5329" lon="2.53904">
        <ele>643.78</ele>
        <time>2022-08-16T13:49:29Z</time>
      </trkpt>
      <trkpt lat="45.53298" lon="2.53896">
        <ele>645.3</ele>
        <time>2022-08-16T13:49:30Z</time>
      </trkpt>
      <trkpt lat="45.53304" lon="2.53887">
        <ele>645.3</ele>
        <time>2022-08-16T13:49:31Z</time>
      </trkpt>
      <trkpt lat="45.53307" lon="2.53875">
        <ele>646.15</ele>
        <time>2022-08-16T13:49:32Z</time>
      </trkpt>
      <trkpt lat="45.53305" lon="2.53863">
        <ele>647.29</ele>
        <time>2022-08-16T13:49:33Z</time>
      </trkpt>
      <trkpt lat="45.53301" lon="2.53853">
        <ele>647.28</ele>
        <time>2022-08-16T13:49:34Z</time>
      </trkpt>
      <trkpt lat="45.53295" lon="2.53845">
        <ele>647.34</ele>
        <time>2022-08-16T13:49:35Z</time>
      </trkpt>
      <trkpt lat="45.53287" lon="2.5384">
        <ele>649.42</ele>
        <time>2022-08-16T13:49:36Z</time>
      </trkpt>
      <trkpt lat="45.53279" lon="2.53836">
        <ele>649.48</ele>
        <time>2022-08-16T13:49:37Z</time>
      </trkpt>
      <trkpt lat="45.5327" lon="2.53834">
        <ele>651.1</ele>
        <time>2022-08-16T13:49:38Z</time>
      </trkpt>
      <trkpt lat="45.53261" lon="2.53831">
        <ele>651.15</ele>
        <time>2022-08-16T13:49:39Z</time>
      </trkpt>
      <trkpt lat="45.53252" lon="2.53827">
        <ele>652.93</ele>
        <time>2022-08-16T13:49:40Z</time>
      </trkpt>
      <trkpt lat="45.53244" lon="2.53821">
        <ele>652.94</ele>
        <time>2022-08-16T13:49:41Z</time>
      </trkpt>
      <trkpt lat="45.53237" lon="2.53813">
        <ele>654.28</ele>
        <time>2022-08-16T13:49:42Z</time>
      </trkpt>
      <trkpt lat="45.53233" lon="2.53801">
        <ele>655.17</ele>
        <time>2022-08-16T13:49:43Z</time>
      </trkpt>
      <trkpt lat="45.53234" lon="2.53788">
        <ele>656.58</ele>
        <time>2022-08-16T13:49:44Z</time>
      </trkpt>
      <trkpt lat="45.53236" lon="2.53775">
        <ele>656.61</ele>
        <time>2022-08-16T13:49:45Z</time>
      </trkpt>
      <trkpt lat="45.53241" lon="2.53763">
        <ele>658.43</ele>
        <time>2022-08-16T13:49:46Z</time>
      </trkpt>
      <trkpt lat="45.53248" lon="2.53753">
        <ele>659.23</ele>
        <time>2022-08-16T13:49:47Z</time>
      </trkpt>
      <trkpt lat="45.53256" lon="2.53745">
        <ele>659.3</ele>
        <time>2022-08-16T13:49:48Z</time>
      </trkpt>
      <trkpt lat="45.53261" lon="2.53734">
        <ele>660.41</ele>
        <time>2022-08-16T13:49:49Z</time>
      </trkpt>
      <trkpt lat="45.53264" lon="2.53721">
        <ele>661.2</ele>
        <time>2022-08-16T13:49:50Z</time>
      </trkpt>
      <trkpt lat="45.53262" lon="2.53707">
        <ele>661.3</ele>
        <time>2022-08-16T13:49:51Z</time>
      </trkpt>
      <trkpt lat="45.53256" lon="2.53696">
        <ele>662.57</ele>
        <time>2022-08-16T13:49:52Z</time>
      </trkpt>
      <trkpt lat="45.53247" lon="2.53687">
        <ele>663.61</ele>
        <time>2022-08-16T13:49:53Z</time>
      </trkpt>
      <trkpt lat="45.53238" lon="2.53682">
        <ele>664.43</ele>
        <time>2022-08-16T13:49:54Z</time>
      </trkpt>
      <trkpt lat="45.53227" lon="2.53679">
        <ele>665.61</ele>
        <time>2022-08-16T13:49:55Z</time>
      </trkpt>
      <trkpt lat="45.53195" lon="2.53668">
        <ele>667.78</ele>
        <time>2022-08-16T13:49:58Z</time>
      </trkpt>
      <trkpt lat="45.53176" lon="2.5366">
        <ele>669.37</ele>
        <time>2022-08-16T13:50:00Z</time>
      </trkpt>
      <trkpt lat="45.53169" lon="2.53658">
        <ele>669.35</ele>
        <time>2022-08-16T13:50:01Z</time>
      </trkpt>
      <trkpt lat="45.53163" lon="2.53657">
        <ele>669.42</ele>
        <time>2022-08-16T13:50:02Z</time>
      </trkpt>
      <trkpt lat="45.5316" lon="2.53659">
        <ele>670.32</ele>
        <time>2022-08-16T13:50:03Z</time>
      </trkpt>
      <trkpt lat="45.53149" lon="2.53663">
        <ele>672.39</ele>
        <time>2022-08-16T13:50:08Z</time>
      </trkpt>
      <trkpt lat="45.53144" lon="2.53662">
        <ele>672.33</ele>
        <time>2022-08-16T13:50:09Z</time>
      </trkpt>
      <trkpt lat="45.53136" lon="2.5366">
        <ele>674.24</ele>
        <time>2022-08-16T13:50:11Z</time>
      </trkpt>
      <trkpt lat="45.53131" lon="2.53659">
        <ele>674.17</ele>
        <time>2022-08-16T13:50:12Z</time>
      </trkpt>
      <trkpt lat="45.53127" lon="2.53658">
        <ele>674.21</ele>
        <time>2022-08-16T13:50:13Z</time>
      </trkpt>
      <trkpt lat="45.53123" lon="2.53657">
        <ele>675.32</ele>
        <time>2022-08-16T13:50:14Z</time>
      </trkpt>
      <trkpt lat="45.53119" lon="2.53658">
        <ele>675.36</ele>
        <time>2022-08-16T13:50:15Z</time>
      </trkpt>
      <trkpt lat="45.53116" lon="2.5366">
        <ele>676.67</ele>
        <time>2022-08-16T13:50:16Z</time>
      </trkpt>
      <trkpt lat="45.53115" lon="2.53662">
        <ele>676.64</ele>
        <time>2022-08-16T13:50:17Z</time>
      </trkpt>
      <trkpt lat="45.53114" lon="2.53664">
        <ele>677.2</ele>
        <time>2022-08-16T13:50:18Z</time>
      </trkpt>
      <trkpt lat="45.53115" lon="2.53673">
        <ele>678.08</ele>
        <time>2022-08-16T13:50:26Z</time>
      </trkpt>
      <trkpt lat="45.53117" lon="2.53677">
        <ele>678.21</ele>
        <time>2022-08-16T13:50:27Z</time>
      </trkpt>
      <trkpt lat="45.5312" lon="2.53681">
        <ele>678.09</ele>
        <time>2022-08-16T13:50:28Z</time>
      </trkpt>
      <trkpt lat="45.53125" lon="2.53685">
        <ele>678.07</ele>
        <time>2022-08-16T13:50:29Z</time>
      </trkpt>
      <trkpt lat="45.5313" lon="2.53689">
        <ele>679.24</ele>
        <time>2022-08-16T13:50:30Z</time>
      </trkpt>
      <trkpt lat="45.53135" lon="2.53694">
        <ele>679.22</ele>
        <time>2022-08-16T13:50:31Z</time>
      </trkpt>
      <trkpt lat="45.5314" lon="2.53698">
        <ele>679.24</ele>
        <time>2022-08-16T13:50:32Z</time>
      </trkpt>
      <trkpt lat="45.53144" lon="2.53702">
        <ele>679.23</ele>
        <time>2022-08-16T13:50:33Z</time>
      </trkpt>
      <trkpt lat="45.53155" lon="2.53708">
        <ele>679.21</ele>
        <time>2022-08-16T13:50:36Z</time>
      </trkpt>
      <trkpt lat="45.53158" lon="2.53711">
        <ele>679.17</ele>
        <time>2022-08-16T13:50:37Z</time>
      </trkpt>
      <trkpt lat="45.5316" lon="2.53714">
        <ele>679.13</ele>
        <time>2022-08-16T13:50:38Z</time>
      </trkpt>
      <trkpt lat="45.53162" lon="2.53717">
        <ele>679.13</ele>
        <time>2022-08-16T13:50:39Z</time>
      </trkpt>
      <trkpt lat="45.53164" lon="2.53722">
        <ele>679.08</ele>
        <time>2022-08-16T13:50:40Z</time>
      </trkpt>
      <trkpt lat="45.53165" lon="2.53726">
        <ele>679.07</ele>
        <time>2022-08-16T13:50:41Z</time>
      </trkpt>
      <trkpt lat="45.53165" lon="2.53731">
        <ele>678.99</ele>
        <time>2022-08-16T13:50:42Z</time>
      </trkpt>
      <trkpt lat="45.53165" lon="2.53736">
        <ele>678.99</ele>
        <time>2022-08-16T13:50:43Z</time>
      </trkpt>
      <trkpt lat="45.53164" lon="2.5374">
        <ele>678.98</ele>
        <time>2022-08-16T13:50:44Z</time>
      </trkpt>
      <trkpt lat="45.53163" lon="2.53744">
        <ele>678.99</ele>
        <time>2022-08-16T13:50:45Z</time>
      </trkpt>
      <trkpt lat="45.5316" lon="2.53754">
        <ele>678.96</ele>
        <time>2022-08-16T13:50:47Z</time>
      </trkpt>
      <trkpt lat="45.53158" lon="2.53759">
        <ele>678.96</ele>
        <time>2022-08-16T13:50:48Z</time>
      </trkpt>
      <trkpt lat="45.53156" lon="2.53765">
        <ele>678.95</ele>
        <time>2022-08-16T13:50:49Z</time>
      </trkpt>
      <trkpt lat="45.53155" lon="2.5377">
        <ele>678.94</ele>
        <time>2022-08-16T13:50:50Z</time>
      </trkpt>
      <trkpt lat="45.53153" lon="2.53775">
        <ele>679.74</ele>
        <time>2022-08-16T13:50:51Z</time>
      </trkpt>
      <trkpt lat="45.53152" lon="2.5378">
        <ele>681.04</ele>
        <time>2022-08-16T13:50:52Z</time>
      </trkpt>
      <trkpt lat="45.53151" lon="2.53784">
        <ele>681.04</ele>
        <time>2022-08-16T13:50:53Z</time>
      </trkpt>
      <trkpt lat="45.53138" lon="2.53815">
        <ele>683</ele>
        <time>2022-08-16T13:51:02Z</time>
      </trkpt>
      <trkpt lat="45.53135" lon="2.53835">
        <ele>682.56</ele>
        <time>2022-08-16T13:51:35Z</time>
      </trkpt>
      <trkpt lat="45.53128" lon="2.53855">
        <ele>683.38</ele>
        <time>2022-08-16T13:51:47Z</time>
      </trkpt>
      <trkpt lat="45.53126" lon="2.53865">
        <ele>683.35</ele>
        <time>2022-08-16T13:51:50Z</time>
      </trkpt>
      <trkpt lat="45.53126" lon="2.53871">
        <ele>684.27</ele>
        <time>2022-08-16T13:51:52Z</time>
      </trkpt>
      <trkpt lat="45.53125" lon="2.53874">
        <ele>684.26</ele>
        <time>2022-08-16T13:51:53Z</time>
      </trkpt>
      <trkpt lat="45.53125" lon="2.53878">
        <ele>684.29</ele>
        <time>2022-08-16T13:51:54Z</time>
      </trkpt>
      <trkpt lat="45.53125" lon="2.53883">
        <ele>685.42</ele>
        <time>2022-08-16T13:51:55Z</time>
      </trkpt>
      <trkpt lat="45.53125" lon="2.53888">
        <ele>685.43</ele>
        <time>2022-08-16T13:51:56Z</time>
      </trkpt>
      <trkpt lat="45.53124" lon="2.53894">
        <ele>685.44</ele>
        <time>2022-08-16T13:51:57Z</time>
      </trkpt>
      <trkpt lat="45.53123" lon="2.53905">
        <ele>686.7</ele>
        <time>2022-08-16T13:51:59Z</time>
      </trkpt>
      <trkpt lat="45.53122" lon="2.5392">
        <ele>687.73</ele>
        <time>2022-08-16T13:52:02Z</time>
      </trkpt>
      <trkpt lat="45.53122" lon="2.53925">
        <ele>688.9</ele>
        <time>2022-08-16T13:52:03Z</time>
      </trkpt>
      <trkpt lat="45.53121" lon="2.53934">
        <ele>688.9</ele>
        <time>2022-08-16T13:52:04Z</time>
      </trkpt>
      <trkpt lat="45.53123" lon="2.53939">
        <ele>689.94</ele>
        <time>2022-08-16T13:52:05Z</time>
      </trkpt>
      <trkpt lat="45.53125" lon="2.53945">
        <ele>690.5</ele>
        <time>2022-08-16T13:52:06Z</time>
      </trkpt>
      <trkpt lat="45.53124" lon="2.53953">
        <ele>691.69</ele>
        <time>2022-08-16T13:52:07Z</time>
      </trkpt>
      <trkpt lat="45.53125" lon="2.53961">
        <ele>691.67</ele>
        <time>2022-08-16T13:52:08Z</time>
      </trkpt>
      <trkpt lat="45.53126" lon="2.5397">
        <ele>692.9</ele>
        <time>2022-08-16T13:52:09Z</time>
      </trkpt>
      <trkpt lat="45.53126" lon="2.53978">
        <ele>692.87</ele>
        <time>2022-08-16T13:52:10Z</time>
      </trkpt>
      <trkpt lat="45.53125" lon="2.53987">
        <ele>694.2</ele>
        <time>2022-08-16T13:52:11Z</time>
      </trkpt>
      <trkpt lat="45.53125" lon="2.53995">
        <ele>695</ele>
        <time>2022-08-16T13:52:12Z</time>
      </trkpt>
      <trkpt lat="45.53127" lon="2.54002">
        <ele>695.02</ele>
        <time>2022-08-16T13:52:13Z</time>
      </trkpt>
      <trkpt lat="45.53128" lon="2.54009">
        <ele>695.01</ele>
        <time>2022-08-16T13:52:14Z</time>
      </trkpt>
      <trkpt lat="45.53133" lon="2.54023">
        <ele>696.39</ele>
        <time>2022-08-16T13:52:16Z</time>
      </trkpt>
      <trkpt lat="45.53142" lon="2.54035">
        <ele>697.36</ele>
        <time>2022-08-16T13:52:18Z</time>
      </trkpt>
      <trkpt lat="45.53146" lon="2.54046">
        <ele>698.83</ele>
        <time>2022-08-16T13:52:20Z</time>
      </trkpt>
      <trkpt lat="45.53151" lon="2.54061">
        <ele>699.62</ele>
        <time>2022-08-16T13:52:22Z</time>
      </trkpt>
      <trkpt lat="45.53157" lon="2.54076">
        <ele>701.33</ele>
        <time>2022-08-16T13:52:24Z</time>
      </trkpt>
      <trkpt lat="45.53166" lon="2.54088">
        <ele>703.06</ele>
        <time>2022-08-16T13:52:26Z</time>
      </trkpt>
      <trkpt lat="45.53172" lon="2.54106">
        <ele>705.34</ele>
        <time>2022-08-16T13:52:29Z</time>
      </trkpt>
      <trkpt lat="45.53178" lon="2.54133">
        <ele>708.11</ele>
        <time>2022-08-16T13:52:33Z</time>
      </trkpt>
      <trkpt lat="45.5318" lon="2.54147">
        <ele>710.24</ele>
        <time>2022-08-16T13:52:35Z</time>
      </trkpt>
      <trkpt lat="45.53183" lon="2.54164">
        <ele>712.03</ele>
        <time>2022-08-16T13:52:38Z</time>
      </trkpt>
      <trkpt lat="45.53186" lon="2.5417">
        <ele>713.35</ele>
        <time>2022-08-16T13:52:39Z</time>
      </trkpt>
      <trkpt lat="45.53195" lon="2.54221">
        <ele>716.5</ele>
        <time>2022-08-16T13:52:47Z</time>
      </trkpt>
      <trkpt lat="45.53196" lon="2.54229">
        <ele>717.63</ele>
        <time>2022-08-16T13:52:50Z</time>
      </trkpt>
      <trkpt lat="45.53193" lon="2.54233">
        <ele>718.55</ele>
        <time>2022-08-16T13:52:52Z</time>
      </trkpt>
      <trkpt lat="45.5319" lon="2.54239">
        <ele>718.87</ele>
        <time>2022-08-16T13:53:01Z</time>
      </trkpt>
      <trkpt lat="45.5319" lon="2.54221">
        <ele>719.61</ele>
        <time>2022-08-16T13:53:11Z</time>
      </trkpt>
      <trkpt lat="45.53188" lon="2.54216">
        <ele>719.17</ele>
        <time>2022-08-16T13:54:01Z</time>
      </trkpt>
      <trkpt lat="45.53188" lon="2.54216">
        <ele>716.29</ele>
        <time>2022-08-16T13:54:02Z</time>
      </trkpt>
      <trkpt lat="45.53149" lon="2.54193">
        <ele>718.75</ele>
        <time>2022-08-16T13:57:56Z</time>
      </trkpt>
      <trkpt lat="45.53122" lon="2.54182">
        <ele>719.95</ele>
        <time>2022-08-16T13:58:06Z</time>
      </trkpt>
      <trkpt lat="45.53088" lon="2.54204">
        <ele>720.24</ele>
        <time>2022-08-16T13:58:16Z</time>
      </trkpt>
      <trkpt lat="45.53086" lon="2.54205">
        <ele>720.24</ele>
        <time>2022-08-16T13:58:17Z</time>
      </trkpt>
      <trkpt lat="45.53058" lon="2.5423">
        <ele>719.87</ele>
        <time>2022-08-16T13:58:25Z</time>
      </trkpt>
      <trkpt lat="45.53044" lon="2.54246">
        <ele>718.78</ele>
        <time>2022-08-16T13:58:29Z</time>
      </trkpt>
      <trkpt lat="45.53033" lon="2.54262">
        <ele>717.26</ele>
        <time>2022-08-16T13:58:32Z</time>
      </trkpt>
      <trkpt lat="45.53026" lon="2.54291">
        <ele>713.32</ele>
        <time>2022-08-16T13:58:39Z</time>
      </trkpt>
      <trkpt lat="45.53024" lon="2.543">
        <ele>710.92</ele>
        <time>2022-08-16T13:58:42Z</time>
      </trkpt>
      <trkpt lat="45.53021" lon="2.5431">
        <ele>708.95</ele>
        <time>2022-08-16T13:58:46Z</time>
      </trkpt>
      <trkpt lat="45.53013" lon="2.54321">
        <ele>706.1</ele>
        <time>2022-08-16T13:58:49Z</time>
      </trkpt>
      <trkpt lat="45.53004" lon="2.54329">
        <ele>704.06</ele>
        <time>2022-08-16T13:58:51Z</time>
      </trkpt>
      <trkpt lat="45.52987" lon="2.54341">
        <ele>699.66</ele>
        <time>2022-08-16T13:58:55Z</time>
      </trkpt>
      <trkpt lat="45.52985" lon="2.54343">
        <ele>699.51</ele>
        <time>2022-08-16T13:58:56Z</time>
      </trkpt>
      <trkpt lat="45.52977" lon="2.54351">
        <ele>697.06</ele>
        <time>2022-08-16T13:58:58Z</time>
      </trkpt>
      <trkpt lat="45.52967" lon="2.54369">
        <ele>693.08</ele>
        <time>2022-08-16T13:59:01Z</time>
      </trkpt>
      <trkpt lat="45.52963" lon="2.54375">
        <ele>692.97</ele>
        <time>2022-08-16T13:59:02Z</time>
      </trkpt>
      <trkpt lat="45.52959" lon="2.54379">
        <ele>691.31</ele>
        <time>2022-08-16T13:59:03Z</time>
      </trkpt>
      <trkpt lat="45.5295" lon="2.54391">
        <ele>686.64</ele>
        <time>2022-08-16T13:59:06Z</time>
      </trkpt>
      <trkpt lat="45.52948" lon="2.54395">
        <ele>686.7</ele>
        <time>2022-08-16T13:59:07Z</time>
      </trkpt>
      <trkpt lat="45.52946" lon="2.544">
        <ele>685.81</ele>
        <time>2022-08-16T13:59:08Z</time>
      </trkpt>
      <trkpt lat="45.52944" lon="2.54403">
        <ele>684</ele>
        <time>2022-08-16T13:59:09Z</time>
      </trkpt>
      <trkpt lat="45.52943" lon="2.54408">
        <ele>683.18</ele>
        <time>2022-08-16T13:59:10Z</time>
      </trkpt>
      <trkpt lat="45.52942" lon="2.54412">
        <ele>681.43</ele>
        <time>2022-08-16T13:59:11Z</time>
      </trkpt>
      <trkpt lat="45.5294" lon="2.54416">
        <ele>679.62</ele>
        <time>2022-08-16T13:59:12Z</time>
      </trkpt>
      <trkpt lat="45.52938" lon="2.54421">
        <ele>678.81</ele>
        <time>2022-08-16T13:59:13Z</time>
      </trkpt>
      <trkpt lat="45.52932" lon="2.54435">
        <ele>675.68</ele>
        <time>2022-08-16T13:59:16Z</time>
      </trkpt>
      <trkpt lat="45.5293" lon="2.5444">
        <ele>673.86</ele>
        <time>2022-08-16T13:59:17Z</time>
      </trkpt>
      <trkpt lat="45.52927" lon="2.54446">
        <ele>673.94</ele>
        <time>2022-08-16T13:59:18Z</time>
      </trkpt>
      <trkpt lat="45.52925" lon="2.54451">
        <ele>672.19</ele>
        <time>2022-08-16T13:59:19Z</time>
      </trkpt>
      <trkpt lat="45.52923" lon="2.54458">
        <ele>672.81</ele>
        <time>2022-08-16T13:59:20Z</time>
      </trkpt>
      <trkpt lat="45.52921" lon="2.54465">
        <ele>671.92</ele>
        <time>2022-08-16T13:59:21Z</time>
      </trkpt>
      <trkpt lat="45.52918" lon="2.54471">
        <ele>670.04</ele>
        <time>2022-08-16T13:59:22Z</time>
      </trkpt>
      <trkpt lat="45.52915" lon="2.54475">
        <ele>669.45</ele>
        <time>2022-08-16T13:59:23Z</time>
      </trkpt>
      <trkpt lat="45.52912" lon="2.54479">
        <ele>667.66</ele>
        <time>2022-08-16T13:59:24Z</time>
      </trkpt>
      <trkpt lat="45.52909" lon="2.54482">
        <ele>666.62</ele>
        <time>2022-08-16T13:59:25Z</time>
      </trkpt>
      <trkpt lat="45.52905" lon="2.54486">
        <ele>664.85</ele>
        <time>2022-08-16T13:59:26Z</time>
      </trkpt>
      <trkpt lat="45.52896" lon="2.545">
        <ele>661.33</ele>
        <time>2022-08-16T13:59:28Z</time>
      </trkpt>
      <trkpt lat="45.52892" lon="2.54508">
        <ele>659.7</ele>
        <time>2022-08-16T13:59:29Z</time>
      </trkpt>
      <trkpt lat="45.52888" lon="2.54518">
        <ele>657.06</ele>
        <time>2022-08-16T13:59:30Z</time>
      </trkpt>
      <trkpt lat="45.52879" lon="2.54538">
        <ele>655.58</ele>
        <time>2022-08-16T13:59:32Z</time>
      </trkpt>
      <trkpt lat="45.52864" lon="2.54571">
        <ele>652.32</ele>
        <time>2022-08-16T13:59:35Z</time>
      </trkpt>
      <trkpt lat="45.52857" lon="2.54582">
        <ele>652.03</ele>
        <time>2022-08-16T13:59:36Z</time>
      </trkpt>
      <trkpt lat="45.52844" lon="2.54605">
        <ele>649.89</ele>
        <time>2022-08-16T13:59:38Z</time>
      </trkpt>
      <trkpt lat="45.52765" lon="2.54737">
        <ele>649.9</ele>
        <time>2022-08-16T13:59:49Z</time>
      </trkpt>
      <trkpt lat="45.52748" lon="2.54774">
        <ele>652.91</ele>
        <time>2022-08-16T13:59:52Z</time>
      </trkpt>
      <trkpt lat="45.52736" lon="2.54798">
        <ele>654.37</ele>
        <time>2022-08-16T13:59:54Z</time>
      </trkpt>
      <trkpt lat="45.52717" lon="2.54834">
        <ele>655.77</ele>
        <time>2022-08-16T13:59:57Z</time>
      </trkpt>
      <trkpt lat="45.52692" lon="2.5488">
        <ele>658.36</ele>
        <time>2022-08-16T14:00:01Z</time>
      </trkpt>
      <trkpt lat="45.52679" lon="2.54905">
        <ele>659.23</ele>
        <time>2022-08-16T14:00:03Z</time>
      </trkpt>
      <trkpt lat="45.52672" lon="2.54916">
        <ele>659.22</ele>
        <time>2022-08-16T14:00:04Z</time>
      </trkpt>
      <trkpt lat="45.52665" lon="2.54925">
        <ele>659.22</ele>
        <time>2022-08-16T14:00:05Z</time>
      </trkpt>
      <trkpt lat="45.52651" lon="2.54942">
        <ele>659.27</ele>
        <time>2022-08-16T14:00:07Z</time>
      </trkpt>
      <trkpt lat="45.52645" lon="2.54951">
        <ele>659.22</ele>
        <time>2022-08-16T14:00:08Z</time>
      </trkpt>
      <trkpt lat="45.52641" lon="2.5496">
        <ele>659.24</ele>
        <time>2022-08-16T14:00:09Z</time>
      </trkpt>
      <trkpt lat="45.52635" lon="2.54977">
        <ele>656.83</ele>
        <time>2022-08-16T14:00:11Z</time>
      </trkpt>
      <trkpt lat="45.52629" lon="2.54989">
        <ele>654.41</ele>
        <time>2022-08-16T14:00:14Z</time>
      </trkpt>
      <trkpt lat="45.52626" lon="2.54989">
        <ele>654.35</ele>
        <time>2022-08-16T14:00:27Z</time>
      </trkpt>
      <trkpt lat="45.52623" lon="2.54995">
        <ele>653.88</ele>
        <time>2022-08-16T14:01:20Z</time>
      </trkpt>
      <trkpt lat="45.52622" lon="2.54998">
        <ele>653.89</ele>
        <time>2022-08-16T14:01:21Z</time>
      </trkpt>
      <trkpt lat="45.52629" lon="2.55002">
        <ele>654.01</ele>
        <time>2022-08-16T14:01:26Z</time>
      </trkpt>
      <trkpt lat="45.52631" lon="2.54995">
        <ele>654.05</ele>
        <time>2022-08-16T14:01:27Z</time>
      </trkpt>
      <trkpt lat="45.52634" lon="2.54986">
        <ele>654.07</ele>
        <time>2022-08-16T14:01:28Z</time>
      </trkpt>
      <trkpt lat="45.52637" lon="2.54977">
        <ele>656.63</ele>
        <time>2022-08-16T14:01:29Z</time>
      </trkpt>
      <trkpt lat="45.52642" lon="2.54966">
        <ele>656.67</ele>
        <time>2022-08-16T14:01:30Z</time>
      </trkpt>
      <trkpt lat="45.52647" lon="2.54956">
        <ele>657.51</ele>
        <time>2022-08-16T14:01:31Z</time>
      </trkpt>
      <trkpt lat="45.52654" lon="2.54947">
        <ele>658.47</ele>
        <time>2022-08-16T14:01:32Z</time>
      </trkpt>
      <trkpt lat="45.52669" lon="2.54929">
        <ele>659.17</ele>
        <time>2022-08-16T14:01:34Z</time>
      </trkpt>
      <trkpt lat="45.52676" lon="2.54919">
        <ele>660.3</ele>
        <time>2022-08-16T14:01:35Z</time>
      </trkpt>
      <trkpt lat="45.52682" lon="2.54907">
        <ele>660.32</ele>
        <time>2022-08-16T14:01:36Z</time>
      </trkpt>
      <trkpt lat="45.52737" lon="2.54804">
        <ele>659.08</ele>
        <time>2022-08-16T14:01:44Z</time>
      </trkpt>
      <trkpt lat="45.52749" lon="2.54778">
        <ele>657.6</ele>
        <time>2022-08-16T14:01:46Z</time>
      </trkpt>
      <trkpt lat="45.52775" lon="2.5472">
        <ele>655.23</ele>
        <time>2022-08-16T14:01:50Z</time>
      </trkpt>
      <trkpt lat="45.52792" lon="2.54691">
        <ele>653.48</ele>
        <time>2022-08-16T14:01:52Z</time>
      </trkpt>
      <trkpt lat="45.52869" lon="2.54561">
        <ele>652.45</ele>
        <time>2022-08-16T14:02:01Z</time>
      </trkpt>
      <trkpt lat="45.52894" lon="2.54497">
        <ele>650.97</ele>
        <time>2022-08-16T14:02:05Z</time>
      </trkpt>
      <trkpt lat="45.52899" lon="2.54483">
        <ele>651.01</ele>
        <time>2022-08-16T14:02:06Z</time>
      </trkpt>
      <trkpt lat="45.52902" lon="2.54468">
        <ele>649.51</ele>
        <time>2022-08-16T14:02:07Z</time>
      </trkpt>
      <trkpt lat="45.52903" lon="2.54453">
        <ele>649.53</ele>
        <time>2022-08-16T14:02:08Z</time>
      </trkpt>
      <trkpt lat="45.52901" lon="2.54422">
        <ele>648.75</ele>
        <time>2022-08-16T14:02:10Z</time>
      </trkpt>
      <trkpt lat="45.52896" lon="2.5439">
        <ele>647.44</ele>
        <time>2022-08-16T14:02:12Z</time>
      </trkpt>
      <trkpt lat="45.5289" lon="2.54345">
        <ele>643.9</ele>
        <time>2022-08-16T14:02:15Z</time>
      </trkpt>
      <trkpt lat="45.52888" lon="2.54331">
        <ele>643.86</ele>
        <time>2022-08-16T14:02:16Z</time>
      </trkpt>
      <trkpt lat="45.52886" lon="2.54317">
        <ele>642.55</ele>
        <time>2022-08-16T14:02:17Z</time>
      </trkpt>
      <trkpt lat="45.5289" lon="2.54261">
        <ele>639.15</ele>
        <time>2022-08-16T14:02:22Z</time>
      </trkpt>
      <trkpt lat="45.5289" lon="2.54254">
        <ele>639.18</ele>
        <time>2022-08-16T14:02:23Z</time>
      </trkpt>
      <trkpt lat="45.52883" lon="2.54253">
        <ele>638.23</ele>
        <time>2022-08-16T14:02:28Z</time>
      </trkpt>
      <trkpt lat="45.52872" lon="2.54257">
        <ele>639.22</ele>
        <time>2022-08-16T14:03:00Z</time>
      </trkpt>
      <trkpt lat="45.52854" lon="2.54283">
        <ele>641.84</ele>
        <time>2022-08-16T14:04:00Z</time>
      </trkpt>
      <trkpt lat="45.52853" lon="2.54284">
        <ele>642.7</ele>
        <time>2022-08-16T14:04:16Z</time>
      </trkpt>
      <trkpt lat="45.52852" lon="2.54285">
        <ele>642.79</ele>
        <time>2022-08-16T14:04:18Z</time>
      </trkpt>
      <trkpt lat="45.52836" lon="2.54302">
        <ele>645.9</ele>
        <time>2022-08-16T14:05:05Z</time>
      </trkpt>
      <trkpt lat="45.52836" lon="2.54302">
        <ele>646.45</ele>
        <time>2022-08-16T14:05:13Z</time>
      </trkpt>
      <trkpt lat="45.52836" lon="2.54307">
        <ele>646.66</ele>
        <time>2022-08-16T14:05:15Z</time>
      </trkpt>
      <trkpt lat="45.52836" lon="2.54313">
        <ele>646.73</ele>
        <time>2022-08-16T14:05:16Z</time>
      </trkpt>
      <trkpt lat="45.52836" lon="2.54319">
        <ele>646.73</ele>
        <time>2022-08-16T14:05:17Z</time>
      </trkpt>
      <trkpt lat="45.52835" lon="2.54328">
        <ele>646.8</ele>
        <time>2022-08-16T14:05:18Z</time>
      </trkpt>
      <trkpt lat="45.52833" lon="2.54351">
        <ele>649.43</ele>
        <time>2022-08-16T14:05:20Z</time>
      </trkpt>
      <trkpt lat="45.52833" lon="2.54365">
        <ele>651.24</ele>
        <time>2022-08-16T14:05:21Z</time>
      </trkpt>
      <trkpt lat="45.52835" lon="2.54379">
        <ele>652.11</ele>
        <time>2022-08-16T14:05:22Z</time>
      </trkpt>
      <trkpt lat="45.52837" lon="2.54394">
        <ele>652.21</ele>
        <time>2022-08-16T14:05:23Z</time>
      </trkpt>
      <trkpt lat="45.52844" lon="2.54443">
        <ele>654.03</ele>
        <time>2022-08-16T14:05:26Z</time>
      </trkpt>
      <trkpt lat="45.52848" lon="2.54476">
        <ele>655.81</ele>
        <time>2022-08-16T14:05:28Z</time>
      </trkpt>
      <trkpt lat="45.52851" lon="2.54507">
        <ele>657.13</ele>
        <time>2022-08-16T14:05:30Z</time>
      </trkpt>
      <trkpt lat="45.52852" lon="2.54519">
        <ele>658.07</ele>
        <time>2022-08-16T14:05:31Z</time>
      </trkpt>
      <trkpt lat="45.52851" lon="2.54531">
        <ele>658.15</ele>
        <time>2022-08-16T14:05:32Z</time>
      </trkpt>
      <trkpt lat="45.52848" lon="2.54543">
        <ele>658.2</ele>
        <time>2022-08-16T14:05:33Z</time>
      </trkpt>
      <trkpt lat="45.52844" lon="2.54555">
        <ele>659.33</ele>
        <time>2022-08-16T14:05:34Z</time>
      </trkpt>
      <trkpt lat="45.5284" lon="2.54567">
        <ele>659.44</ele>
        <time>2022-08-16T14:05:35Z</time>
      </trkpt>
      <trkpt lat="45.52762" lon="2.54716">
        <ele>662.41</ele>
        <time>2022-08-16T14:05:46Z</time>
      </trkpt>
      <trkpt lat="45.52727" lon="2.5477">
        <ele>663.79</ele>
        <time>2022-08-16T14:05:50Z</time>
      </trkpt>
      <trkpt lat="45.52684" lon="2.5486">
        <ele>666.78</ele>
        <time>2022-08-16T14:05:56Z</time>
      </trkpt>
      <trkpt lat="45.5267" lon="2.54889">
        <ele>668.74</ele>
        <time>2022-08-16T14:05:58Z</time>
      </trkpt>
      <trkpt lat="45.5264" lon="2.54945">
        <ele>672</ele>
        <time>2022-08-16T14:06:02Z</time>
      </trkpt>
      <trkpt lat="45.52632" lon="2.54959">
        <ele>672.09</ele>
        <time>2022-08-16T14:06:03Z</time>
      </trkpt>
      <trkpt lat="45.52619" lon="2.54984">
        <ele>673.37</ele>
        <time>2022-08-16T14:06:05Z</time>
      </trkpt>
      <trkpt lat="45.52612" lon="2.54995">
        <ele>673.42</ele>
        <time>2022-08-16T14:06:06Z</time>
      </trkpt>
      <trkpt lat="45.52591" lon="2.55021">
        <ele>673.69</ele>
        <time>2022-08-16T14:06:09Z</time>
      </trkpt>
      <trkpt lat="45.52586" lon="2.55031">
        <ele>671.01</ele>
        <time>2022-08-16T14:06:10Z</time>
      </trkpt>
      <trkpt lat="45.52582" lon="2.55039">
        <ele>671.03</ele>
        <time>2022-08-16T14:06:11Z</time>
      </trkpt>
      <trkpt lat="45.52579" lon="2.55048">
        <ele>670.08</ele>
        <time>2022-08-16T14:06:12Z</time>
      </trkpt>
      <trkpt lat="45.52576" lon="2.55055">
        <ele>669.13</ele>
        <time>2022-08-16T14:06:13Z</time>
      </trkpt>
      <trkpt lat="45.52575" lon="2.55061">
        <ele>669.19</ele>
        <time>2022-08-16T14:06:14Z</time>
      </trkpt>
      <trkpt lat="45.52573" lon="2.5507">
        <ele>668.55</ele>
        <time>2022-08-16T14:06:16Z</time>
      </trkpt>
      <trkpt lat="45.52574" lon="2.55074">
        <ele>668.61</ele>
        <time>2022-08-16T14:06:17Z</time>
      </trkpt>
      <trkpt lat="45.52576" lon="2.55078">
        <ele>668.66</ele>
        <time>2022-08-16T14:06:18Z</time>
      </trkpt>
      <trkpt lat="45.5258" lon="2.55082">
        <ele>668.73</ele>
        <time>2022-08-16T14:06:19Z</time>
      </trkpt>
      <trkpt lat="45.52585" lon="2.55086">
        <ele>668.78</ele>
        <time>2022-08-16T14:06:20Z</time>
      </trkpt>
      <trkpt lat="45.52592" lon="2.5509">
        <ele>668.85</ele>
        <time>2022-08-16T14:06:21Z</time>
      </trkpt>
      <trkpt lat="45.52675" lon="2.55148">
        <ele>672.31</ele>
        <time>2022-08-16T14:06:31Z</time>
      </trkpt>
      <trkpt lat="45.52684" lon="2.55155">
        <ele>672.38</ele>
        <time>2022-08-16T14:06:32Z</time>
      </trkpt>
      <trkpt lat="45.52746" lon="2.55226">
        <ele>674.89</ele>
        <time>2022-08-16T14:06:39Z</time>
      </trkpt>
      <trkpt lat="45.52853" lon="2.55381">
        <ele>676.54</ele>
        <time>2022-08-16T14:06:51Z</time>
      </trkpt>
      <trkpt lat="45.52922" lon="2.55465">
        <ele>677.89</ele>
        <time>2022-08-16T14:06:58Z</time>
      </trkpt>
      <trkpt lat="45.5293" lon="2.55478">
        <ele>677.95</ele>
        <time>2022-08-16T14:06:59Z</time>
      </trkpt>
      <trkpt lat="45.52936" lon="2.55492">
        <ele>677.99</ele>
        <time>2022-08-16T14:07:00Z</time>
      </trkpt>
      <trkpt lat="45.53021" lon="2.5571">
        <ele>679</ele>
        <time>2022-08-16T14:07:14Z</time>
      </trkpt>
      <trkpt lat="45.5309" lon="2.55869">
        <ele>681.64</ele>
        <time>2022-08-16T14:07:24Z</time>
      </trkpt>
      <trkpt lat="45.5314" lon="2.55982">
        <ele>684.17</ele>
        <time>2022-08-16T14:07:31Z</time>
      </trkpt>
      <trkpt lat="45.53157" lon="2.56034">
        <ele>684.15</ele>
        <time>2022-08-16T14:07:34Z</time>
      </trkpt>
      <trkpt lat="45.53169" lon="2.56088">
        <ele>686.18</ele>
        <time>2022-08-16T14:07:37Z</time>
      </trkpt>
      <trkpt lat="45.53181" lon="2.56141">
        <ele>687.7</ele>
        <time>2022-08-16T14:07:40Z</time>
      </trkpt>
      <trkpt lat="45.53192" lon="2.56174">
        <ele>688.94</ele>
        <time>2022-08-16T14:07:42Z</time>
      </trkpt>
      <trkpt lat="45.53198" lon="2.56188">
        <ele>689.01</ele>
        <time>2022-08-16T14:07:43Z</time>
      </trkpt>
      <trkpt lat="45.53205" lon="2.562">
        <ele>689.09</ele>
        <time>2022-08-16T14:07:44Z</time>
      </trkpt>
      <trkpt lat="45.53216" lon="2.56221">
        <ele>690.36</ele>
        <time>2022-08-16T14:07:46Z</time>
      </trkpt>
      <trkpt lat="45.53221" lon="2.56229">
        <ele>690.43</ele>
        <time>2022-08-16T14:07:47Z</time>
      </trkpt>
      <trkpt lat="45.53225" lon="2.56234">
        <ele>690.41</ele>
        <time>2022-08-16T14:07:48Z</time>
      </trkpt>
      <trkpt lat="45.53228" lon="2.56236">
        <ele>690.44</ele>
        <time>2022-08-16T14:07:49Z</time>
      </trkpt>
      <trkpt lat="45.53231" lon="2.56234">
        <ele>690.51</ele>
        <time>2022-08-16T14:07:50Z</time>
      </trkpt>
      <trkpt lat="45.53233" lon="2.56231">
        <ele>690.6</ele>
        <time>2022-08-16T14:07:51Z</time>
      </trkpt>
      <trkpt lat="45.53234" lon="2.56225">
        <ele>690.67</ele>
        <time>2022-08-16T14:07:52Z</time>
      </trkpt>
      <trkpt lat="45.53236" lon="2.56218">
        <ele>690.72</ele>
        <time>2022-08-16T14:07:53Z</time>
      </trkpt>
      <trkpt lat="45.53252" lon="2.56117">
        <ele>691.23</ele>
        <time>2022-08-16T14:08:02Z</time>
      </trkpt>
      <trkpt lat="45.53293" lon="2.55974">
        <ele>692.89</ele>
        <time>2022-08-16T14:08:12Z</time>
      </trkpt>
      <trkpt lat="45.53358" lon="2.55824">
        <ele>694.34</ele>
        <time>2022-08-16T14:08:23Z</time>
      </trkpt>
      <trkpt lat="45.53372" lon="2.55794">
        <ele>694.59</ele>
        <time>2022-08-16T14:08:27Z</time>
      </trkpt>
      <trkpt lat="45.53373" lon="2.55788">
        <ele>694.65</ele>
        <time>2022-08-16T14:08:28Z</time>
      </trkpt>
      <trkpt lat="45.53372" lon="2.55783">
        <ele>694.72</ele>
        <time>2022-08-16T14:08:29Z</time>
      </trkpt>
      <trkpt lat="45.5337" lon="2.55779">
        <ele>694.76</ele>
        <time>2022-08-16T14:08:30Z</time>
      </trkpt>
      <trkpt lat="45.53367" lon="2.55777">
        <ele>694.85</ele>
        <time>2022-08-16T14:08:31Z</time>
      </trkpt>
      <trkpt lat="45.53363" lon="2.55777">
        <ele>694.92</ele>
        <time>2022-08-16T14:08:32Z</time>
      </trkpt>
      <trkpt lat="45.53357" lon="2.55777">
        <ele>695</ele>
        <time>2022-08-16T14:08:33Z</time>
      </trkpt>
      <trkpt lat="45.5335" lon="2.55777">
        <ele>695.07</ele>
        <time>2022-08-16T14:08:34Z</time>
      </trkpt>
      <trkpt lat="45.53299" lon="2.55781">
        <ele>697.61</ele>
        <time>2022-08-16T14:08:41Z</time>
      </trkpt>
      <trkpt lat="45.53273" lon="2.55781">
        <ele>698.62</ele>
        <time>2022-08-16T14:08:45Z</time>
      </trkpt>
      <trkpt lat="45.53267" lon="2.55779">
        <ele>698.69</ele>
        <time>2022-08-16T14:08:46Z</time>
      </trkpt>
      <trkpt lat="45.53261" lon="2.55775">
        <ele>698.69</ele>
        <time>2022-08-16T14:08:47Z</time>
      </trkpt>
      <trkpt lat="45.53257" lon="2.55769">
        <ele>698.77</ele>
        <time>2022-08-16T14:08:48Z</time>
      </trkpt>
      <trkpt lat="45.53254" lon="2.55762">
        <ele>698.81</ele>
        <time>2022-08-16T14:08:49Z</time>
      </trkpt>
      <trkpt lat="45.53251" lon="2.55756">
        <ele>698.92</ele>
        <time>2022-08-16T14:08:50Z</time>
      </trkpt>
      <trkpt lat="45.53249" lon="2.5575">
        <ele>698.98</ele>
        <time>2022-08-16T14:08:51Z</time>
      </trkpt>
      <trkpt lat="45.53247" lon="2.55745">
        <ele>699.04</ele>
        <time>2022-08-16T14:08:52Z</time>
      </trkpt>
      <trkpt lat="45.53244" lon="2.55737">
        <ele>699.57</ele>
        <time>2022-08-16T14:09:01Z</time>
      </trkpt>
      <trkpt lat="45.53244" lon="2.55737">
        <ele>702.6</ele>
        <time>2022-08-16T14:09:50Z</time>
      </trkpt>
      <trkpt lat="45.53239" lon="2.55728">
        <ele>703.99</ele>
        <time>2022-08-16T14:10:13Z</time>
      </trkpt>
      <trkpt lat="45.53208" lon="2.55652">
        <ele>704.41</ele>
        <time>2022-08-16T14:10:20Z</time>
      </trkpt>
      <trkpt lat="45.53147" lon="2.55512">
        <ele>702.58</ele>
        <time>2022-08-16T14:10:30Z</time>
      </trkpt>
      <trkpt lat="45.53142" lon="2.555">
        <ele>702.79</ele>
        <time>2022-08-16T14:10:31Z</time>
      </trkpt>
      <trkpt lat="45.53097" lon="2.55395">
        <ele>701.65</ele>
        <time>2022-08-16T14:10:41Z</time>
      </trkpt>
      <trkpt lat="45.53087" lon="2.55374">
        <ele>700.9</ele>
        <time>2022-08-16T14:10:46Z</time>
      </trkpt>
      <trkpt lat="45.53086" lon="2.55374">
        <ele>701.05</ele>
        <time>2022-08-16T14:10:47Z</time>
      </trkpt>
      <trkpt lat="45.53088" lon="2.55376">
        <ele>700.73</ele>
        <time>2022-08-16T14:10:57Z</time>
      </trkpt>
      <trkpt lat="45.53088" lon="2.55377">
        <ele>700.81</ele>
        <time>2022-08-16T14:10:58Z</time>
      </trkpt>
      <trkpt lat="45.53089" lon="2.5538">
        <ele>700.89</ele>
        <time>2022-08-16T14:10:59Z</time>
      </trkpt>
      <trkpt lat="45.53091" lon="2.55383">
        <ele>700.95</ele>
        <time>2022-08-16T14:11:00Z</time>
      </trkpt>
      <trkpt lat="45.53095" lon="2.55388">
        <ele>701.06</ele>
        <time>2022-08-16T14:11:01Z</time>
      </trkpt>
      <trkpt lat="45.53097" lon="2.55394">
        <ele>701.06</ele>
        <time>2022-08-16T14:11:02Z</time>
      </trkpt>
      <trkpt lat="45.531" lon="2.55401">
        <ele>701.18</ele>
        <time>2022-08-16T14:11:03Z</time>
      </trkpt>
      <trkpt lat="45.53119" lon="2.55447">
        <ele>705.46</ele>
        <time>2022-08-16T14:11:07Z</time>
      </trkpt>
      <trkpt lat="45.53126" lon="2.55462">
        <ele>705.46</ele>
        <time>2022-08-16T14:11:08Z</time>
      </trkpt>
      <trkpt lat="45.53191" lon="2.55615">
        <ele>706.92</ele>
        <time>2022-08-16T14:11:19Z</time>
      </trkpt>
      <trkpt lat="45.53248" lon="2.55754">
        <ele>708.39</ele>
        <time>2022-08-16T14:11:31Z</time>
      </trkpt>
      <trkpt lat="45.5326" lon="2.55781">
        <ele>708.59</ele>
        <time>2022-08-16T14:11:34Z</time>
      </trkpt>
      <trkpt lat="45.53265" lon="2.55786">
        <ele>708.63</ele>
        <time>2022-08-16T14:11:35Z</time>
      </trkpt>
      <trkpt lat="45.53271" lon="2.55789">
        <ele>708.69</ele>
        <time>2022-08-16T14:11:36Z</time>
      </trkpt>
      <trkpt lat="45.53278" lon="2.55791">
        <ele>708.74</ele>
        <time>2022-08-16T14:11:37Z</time>
      </trkpt>
      <trkpt lat="45.53287" lon="2.55791">
        <ele>709.7</ele>
        <time>2022-08-16T14:11:38Z</time>
      </trkpt>
      <trkpt lat="45.53297" lon="2.55791">
        <ele>709.77</ele>
        <time>2022-08-16T14:11:39Z</time>
      </trkpt>
      <trkpt lat="45.53361" lon="2.55786">
        <ele>707.43</ele>
        <time>2022-08-16T14:11:47Z</time>
      </trkpt>
      <trkpt lat="45.53373" lon="2.55785">
        <ele>705.45</ele>
        <time>2022-08-16T14:11:50Z</time>
      </trkpt>
      <trkpt lat="45.53435" lon="2.55786">
        <ele>704.18</ele>
        <time>2022-08-16T14:12:00Z</time>
      </trkpt>
      <trkpt lat="45.53484" lon="2.55791">
        <ele>702.98</ele>
        <time>2022-08-16T14:12:07Z</time>
      </trkpt>
      <trkpt lat="45.53539" lon="2.55795">
        <ele>699.61</ele>
        <time>2022-08-16T14:12:16Z</time>
      </trkpt>
      <trkpt lat="45.53579" lon="2.55793">
        <ele>696.41</ele>
        <time>2022-08-16T14:12:27Z</time>
      </trkpt>
      <trkpt lat="45.53579" lon="2.55792">
        <ele>697.34</ele>
        <time>2022-08-16T14:12:43Z</time>
      </trkpt>
      <trkpt lat="45.53578" lon="2.55793">
        <ele>699.61</ele>
        <time>2022-08-16T14:13:26Z</time>
      </trkpt>
      <trkpt lat="45.53605" lon="2.55788">
        <ele>699.88</ele>
        <time>2022-08-16T14:13:31Z</time>
      </trkpt>
      <trkpt lat="45.537" lon="2.55788">
        <ele>698.4</ele>
        <time>2022-08-16T14:13:44Z</time>
      </trkpt>
      <trkpt lat="45.53705" lon="2.55786">
        <ele>698.45</ele>
        <time>2022-08-16T14:13:45Z</time>
      </trkpt>
      <trkpt lat="45.53709" lon="2.55783">
        <ele>698.5</ele>
        <time>2022-08-16T14:13:46Z</time>
      </trkpt>
      <trkpt lat="45.53712" lon="2.55776">
        <ele>698.55</ele>
        <time>2022-08-16T14:13:47Z</time>
      </trkpt>
      <trkpt lat="45.53714" lon="2.55768">
        <ele>698.6</ele>
        <time>2022-08-16T14:13:48Z</time>
      </trkpt>
      <trkpt lat="45.53715" lon="2.55758">
        <ele>698.65</ele>
        <time>2022-08-16T14:13:49Z</time>
      </trkpt>
      <trkpt lat="45.53715" lon="2.55747">
        <ele>698.71</ele>
        <time>2022-08-16T14:13:50Z</time>
      </trkpt>
      <trkpt lat="45.53718" lon="2.55694">
        <ele>699.13</ele>
        <time>2022-08-16T14:13:58Z</time>
      </trkpt>
      <trkpt lat="45.5372" lon="2.55691">
        <ele>699.25</ele>
        <time>2022-08-16T14:14:00Z</time>
      </trkpt>
      <trkpt lat="45.53722" lon="2.55691">
        <ele>700.04</ele>
        <time>2022-08-16T14:14:15Z</time>
      </trkpt>
      <trkpt lat="45.53722" lon="2.55692">
        <ele>700.15</ele>
        <time>2022-08-16T14:14:17Z</time>
      </trkpt>
      <trkpt lat="45.5372" lon="2.55697">
        <ele>700.25</ele>
        <time>2022-08-16T14:14:19Z</time>
      </trkpt>
      <trkpt lat="45.53717" lon="2.55707">
        <ele>700.35</ele>
        <time>2022-08-16T14:14:21Z</time>
      </trkpt>
      <trkpt lat="45.53717" lon="2.55714">
        <ele>700.42</ele>
        <time>2022-08-16T14:14:22Z</time>
      </trkpt>
      <trkpt lat="45.53716" lon="2.55766">
        <ele>700.75</ele>
        <time>2022-08-16T14:14:29Z</time>
      </trkpt>
      <trkpt lat="45.53714" lon="2.55772">
        <ele>700.8</ele>
        <time>2022-08-16T14:14:30Z</time>
      </trkpt>
      <trkpt lat="45.53711" lon="2.55777">
        <ele>700.85</ele>
        <time>2022-08-16T14:14:31Z</time>
      </trkpt>
      <trkpt lat="45.53706" lon="2.5578">
        <ele>700.88</ele>
        <time>2022-08-16T14:14:32Z</time>
      </trkpt>
      <trkpt lat="45.537" lon="2.55781">
        <ele>700.93</ele>
        <time>2022-08-16T14:14:33Z</time>
      </trkpt>
      <trkpt lat="45.53694" lon="2.55781">
        <ele>700.97</ele>
        <time>2022-08-16T14:14:34Z</time>
      </trkpt>
      <trkpt lat="45.53618" lon="2.55778">
        <ele>700.31</ele>
        <time>2022-08-16T14:14:43Z</time>
      </trkpt>
      <trkpt lat="45.53588" lon="2.55783">
        <ele>702.93</ele>
        <time>2022-08-16T14:14:46Z</time>
      </trkpt>
      <trkpt lat="45.53568" lon="2.55786">
        <ele>704.56</ele>
        <time>2022-08-16T14:14:48Z</time>
      </trkpt>
      <trkpt lat="45.53548" lon="2.55789">
        <ele>705.78</ele>
        <time>2022-08-16T14:14:50Z</time>
      </trkpt>
      <trkpt lat="45.53508" lon="2.55787">
        <ele>709.68</ele>
        <time>2022-08-16T14:14:54Z</time>
      </trkpt>
      <trkpt lat="45.53498" lon="2.55786">
        <ele>709.73</ele>
        <time>2022-08-16T14:14:55Z</time>
      </trkpt>
      <trkpt lat="45.53456" lon="2.55782">
        <ele>712.2</ele>
        <time>2022-08-16T14:14:59Z</time>
      </trkpt>
      <trkpt lat="45.53434" lon="2.5578">
        <ele>713.57</ele>
        <time>2022-08-16T14:15:01Z</time>
      </trkpt>
      <trkpt lat="45.53413" lon="2.55778">
        <ele>714.7</ele>
        <time>2022-08-16T14:15:03Z</time>
      </trkpt>
      <trkpt lat="45.53384" lon="2.55777">
        <ele>714.88</ele>
        <time>2022-08-16T14:15:07Z</time>
      </trkpt>
      <trkpt lat="45.53379" lon="2.55779">
        <ele>714.94</ele>
        <time>2022-08-16T14:15:08Z</time>
      </trkpt>
      <trkpt lat="45.53375" lon="2.55782">
        <ele>714.98</ele>
        <time>2022-08-16T14:15:09Z</time>
      </trkpt>
      <trkpt lat="45.53371" lon="2.55788">
        <ele>714.98</ele>
        <time>2022-08-16T14:15:10Z</time>
      </trkpt>
      <trkpt lat="45.53367" lon="2.55797">
        <ele>715.09</ele>
        <time>2022-08-16T14:15:11Z</time>
      </trkpt>
      <trkpt lat="45.53329" lon="2.55883">
        <ele>715.97</ele>
        <time>2022-08-16T14:15:18Z</time>
      </trkpt>
      <trkpt lat="45.53284" lon="2.55988">
        <ele>716.4</ele>
        <time>2022-08-16T14:15:27Z</time>
      </trkpt>
      <trkpt lat="45.53245" lon="2.56136">
        <ele>716.89</ele>
        <time>2022-08-16T14:15:37Z</time>
      </trkpt>
      <trkpt lat="45.53232" lon="2.56209">
        <ele>717.27</ele>
        <time>2022-08-16T14:15:44Z</time>
      </trkpt>
      <trkpt lat="45.5323" lon="2.56216">
        <ele>717.32</ele>
        <time>2022-08-16T14:15:45Z</time>
      </trkpt>
      <trkpt lat="45.53225" lon="2.56225">
        <ele>715.13</ele>
        <time>2022-08-16T14:15:47Z</time>
      </trkpt>
      <trkpt lat="45.53223" lon="2.5624">
        <ele>715.23</ele>
        <time>2022-08-16T14:15:50Z</time>
      </trkpt>
      <trkpt lat="45.53224" lon="2.56247">
        <ele>715.27</ele>
        <time>2022-08-16T14:15:51Z</time>
      </trkpt>
      <trkpt lat="45.53226" lon="2.56255">
        <ele>715.32</ele>
        <time>2022-08-16T14:15:52Z</time>
      </trkpt>
      <trkpt lat="45.53229" lon="2.56265">
        <ele>715.37</ele>
        <time>2022-08-16T14:15:53Z</time>
      </trkpt>
      <trkpt lat="45.53232" lon="2.56278">
        <ele>715.42</ele>
        <time>2022-08-16T14:15:54Z</time>
      </trkpt>
      <trkpt lat="45.53234" lon="2.56292">
        <ele>715.46</ele>
        <time>2022-08-16T14:15:55Z</time>
      </trkpt>
      <trkpt lat="45.53236" lon="2.56307">
        <ele>717.9</ele>
        <time>2022-08-16T14:15:56Z</time>
      </trkpt>
      <trkpt lat="45.53237" lon="2.56323">
        <ele>717.95</ele>
        <time>2022-08-16T14:15:57Z</time>
      </trkpt>
      <trkpt lat="45.53239" lon="2.56374">
        <ele>720.07</ele>
        <time>2022-08-16T14:16:00Z</time>
      </trkpt>
      <trkpt lat="45.5324" lon="2.5641">
        <ele>721.7</ele>
        <time>2022-08-16T14:16:02Z</time>
      </trkpt>
      <trkpt lat="45.53243" lon="2.56485">
        <ele>724.53</ele>
        <time>2022-08-16T14:16:06Z</time>
      </trkpt>
      <trkpt lat="45.53245" lon="2.56525">
        <ele>726.13</ele>
        <time>2022-08-16T14:16:08Z</time>
      </trkpt>
      <trkpt lat="45.53247" lon="2.56586">
        <ele>728.61</ele>
        <time>2022-08-16T14:16:11Z</time>
      </trkpt>
      <trkpt lat="45.53249" lon="2.56646">
        <ele>730.77</ele>
        <time>2022-08-16T14:16:14Z</time>
      </trkpt>
      <trkpt lat="45.5325" lon="2.56688">
        <ele>732.2</ele>
        <time>2022-08-16T14:16:16Z</time>
      </trkpt>
      <trkpt lat="45.53253" lon="2.56752">
        <ele>734.73</ele>
        <time>2022-08-16T14:16:19Z</time>
      </trkpt>
      <trkpt lat="45.53257" lon="2.56985">
        <ele>737.29</ele>
        <time>2022-08-16T14:16:30Z</time>
      </trkpt>
      <trkpt lat="45.53258" lon="2.57155">
        <ele>737.52</ele>
        <time>2022-08-16T14:16:40Z</time>
      </trkpt>
      <trkpt lat="45.53256" lon="2.57319">
        <ele>739.6</ele>
        <time>2022-08-16T14:16:50Z</time>
      </trkpt>
      <trkpt lat="45.53242" lon="2.57439">
        <ele>742.35</ele>
        <time>2022-08-16T14:16:57Z</time>
      </trkpt>
      <trkpt lat="45.53251" lon="2.57578">
        <ele>743.37</ele>
        <time>2022-08-16T14:17:05Z</time>
      </trkpt>
      <trkpt lat="45.53263" lon="2.57647">
        <ele>744.76</ele>
        <time>2022-08-16T14:17:09Z</time>
      </trkpt>
      <trkpt lat="45.53272" lon="2.57698">
        <ele>746.97</ele>
        <time>2022-08-16T14:17:12Z</time>
      </trkpt>
      <trkpt lat="45.53292" lon="2.57815">
        <ele>749.46</ele>
        <time>2022-08-16T14:17:19Z</time>
      </trkpt>
      <trkpt lat="45.53298" lon="2.57848">
        <ele>750.75</ele>
        <time>2022-08-16T14:17:21Z</time>
      </trkpt>
      <trkpt lat="45.53301" lon="2.5802">
        <ele>752.85</ele>
        <time>2022-08-16T14:17:31Z</time>
      </trkpt>
      <trkpt lat="45.53264" lon="2.58188">
        <ele>753.28</ele>
        <time>2022-08-16T14:17:41Z</time>
      </trkpt>
      <trkpt lat="45.53223" lon="2.58351">
        <ele>756.89</ele>
        <time>2022-08-16T14:17:51Z</time>
      </trkpt>
      <trkpt lat="45.5322" lon="2.58384">
        <ele>757.78</ele>
        <time>2022-08-16T14:17:53Z</time>
      </trkpt>
      <trkpt lat="45.53208" lon="2.58489">
        <ele>758.89</ele>
        <time>2022-08-16T14:17:59Z</time>
      </trkpt>
      <trkpt lat="45.53204" lon="2.58505">
        <ele>758.92</ele>
        <time>2022-08-16T14:18:00Z</time>
      </trkpt>
      <trkpt lat="45.53153" lon="2.58679">
        <ele>759.34</ele>
        <time>2022-08-16T14:18:11Z</time>
      </trkpt>
      <trkpt lat="45.53086" lon="2.5894">
        <ele>762.9</ele>
        <time>2022-08-16T14:18:26Z</time>
      </trkpt>
      <trkpt lat="45.53081" lon="2.58956">
        <ele>762.94</ele>
        <time>2022-08-16T14:18:27Z</time>
      </trkpt>
      <trkpt lat="45.53063" lon="2.59023">
        <ele>766.5</ele>
        <time>2022-08-16T14:18:31Z</time>
      </trkpt>
      <trkpt lat="45.53047" lon="2.5908">
        <ele>768.76</ele>
        <time>2022-08-16T14:18:34Z</time>
      </trkpt>
      <trkpt lat="45.53035" lon="2.5912">
        <ele>770.43</ele>
        <time>2022-08-16T14:18:36Z</time>
      </trkpt>
      <trkpt lat="45.53024" lon="2.5916">
        <ele>772.28</ele>
        <time>2022-08-16T14:18:38Z</time>
      </trkpt>
      <trkpt lat="45.53012" lon="2.59199">
        <ele>773.82</ele>
        <time>2022-08-16T14:18:40Z</time>
      </trkpt>
      <trkpt lat="45.52991" lon="2.59276">
        <ele>775.58</ele>
        <time>2022-08-16T14:18:44Z</time>
      </trkpt>
      <trkpt lat="45.52969" lon="2.59348">
        <ele>777.06</ele>
        <time>2022-08-16T14:18:48Z</time>
      </trkpt>
      <trkpt lat="45.52901" lon="2.59474">
        <ele>779.14</ele>
        <time>2022-08-16T14:18:56Z</time>
      </trkpt>
      <trkpt lat="45.52882" lon="2.59506">
        <ele>780.27</ele>
        <time>2022-08-16T14:18:58Z</time>
      </trkpt>
      <trkpt lat="45.52876" lon="2.59525">
        <ele>780.24</ele>
        <time>2022-08-16T14:18:59Z</time>
      </trkpt>
      <trkpt lat="45.52871" lon="2.59545">
        <ele>780.29</ele>
        <time>2022-08-16T14:19:00Z</time>
      </trkpt>
      <trkpt lat="45.52868" lon="2.59565">
        <ele>780.42</ele>
        <time>2022-08-16T14:19:01Z</time>
      </trkpt>
      <trkpt lat="45.52866" lon="2.59586">
        <ele>780.4</ele>
        <time>2022-08-16T14:19:02Z</time>
      </trkpt>
      <trkpt lat="45.5286" lon="2.59689">
        <ele>782.71</ele>
        <time>2022-08-16T14:19:07Z</time>
      </trkpt>
      <trkpt lat="45.52858" lon="2.5973">
        <ele>784.02</ele>
        <time>2022-08-16T14:19:09Z</time>
      </trkpt>
      <trkpt lat="45.52839" lon="2.60071">
        <ele>785.65</ele>
        <time>2022-08-16T14:19:25Z</time>
      </trkpt>
      <trkpt lat="45.52806" lon="2.60259">
        <ele>786.93</ele>
        <time>2022-08-16T14:19:35Z</time>
      </trkpt>
      <trkpt lat="45.52796" lon="2.60294">
        <ele>787.74</ele>
        <time>2022-08-16T14:19:37Z</time>
      </trkpt>
      <trkpt lat="45.52757" lon="2.6052">
        <ele>789.99</ele>
        <time>2022-08-16T14:19:49Z</time>
      </trkpt>
      <trkpt lat="45.52752" lon="2.60609">
        <ele>792.37</ele>
        <time>2022-08-16T14:19:54Z</time>
      </trkpt>
      <trkpt lat="45.52752" lon="2.60625">
        <ele>792.42</ele>
        <time>2022-08-16T14:19:55Z</time>
      </trkpt>
      <trkpt lat="45.52754" lon="2.60642">
        <ele>792.5</ele>
        <time>2022-08-16T14:19:56Z</time>
      </trkpt>
      <trkpt lat="45.52773" lon="2.60762">
        <ele>794.3</ele>
        <time>2022-08-16T14:20:02Z</time>
      </trkpt>
      <trkpt lat="45.52802" lon="2.60977">
        <ele>794.8</ele>
        <time>2022-08-16T14:20:13Z</time>
      </trkpt>
      <trkpt lat="45.52806" lon="2.61013">
        <ele>792.14</ele>
        <time>2022-08-16T14:20:15Z</time>
      </trkpt>
      <trkpt lat="45.52813" lon="2.61153">
        <ele>790.27</ele>
        <time>2022-08-16T14:20:24Z</time>
      </trkpt>
      <trkpt lat="45.52815" lon="2.61179">
        <ele>790.76</ele>
        <time>2022-08-16T14:20:29Z</time>
      </trkpt>
      <trkpt lat="45.52819" lon="2.61187">
        <ele>790.81</ele>
        <time>2022-08-16T14:20:30Z</time>
      </trkpt>
      <trkpt lat="45.52826" lon="2.61196">
        <ele>790.85</ele>
        <time>2022-08-16T14:20:31Z</time>
      </trkpt>
      <trkpt lat="45.52833" lon="2.61205">
        <ele>790.89</ele>
        <time>2022-08-16T14:20:32Z</time>
      </trkpt>
      <trkpt lat="45.52842" lon="2.61214">
        <ele>790.94</ele>
        <time>2022-08-16T14:20:33Z</time>
      </trkpt>
      <trkpt lat="45.52908" lon="2.61286">
        <ele>793.55</ele>
        <time>2022-08-16T14:20:40Z</time>
      </trkpt>
      <trkpt lat="45.53022" lon="2.61409">
        <ele>790.35</ele>
        <time>2022-08-16T14:20:50Z</time>
      </trkpt>
      <trkpt lat="45.53056" lon="2.61446">
        <ele>786.99</ele>
        <time>2022-08-16T14:20:53Z</time>
      </trkpt>
      <trkpt lat="45.53105" lon="2.61486">
        <ele>783.5</ele>
        <time>2022-08-16T14:20:57Z</time>
      </trkpt>
      <trkpt lat="45.53132" lon="2.61498">
        <ele>782.29</ele>
        <time>2022-08-16T14:20:59Z</time>
      </trkpt>
      <trkpt lat="45.53161" lon="2.61506">
        <ele>779.5</ele>
        <time>2022-08-16T14:21:01Z</time>
      </trkpt>
      <trkpt lat="45.5319" lon="2.61509">
        <ele>777.55</ele>
        <time>2022-08-16T14:21:03Z</time>
      </trkpt>
      <trkpt lat="45.53235" lon="2.61508">
        <ele>773.46</ele>
        <time>2022-08-16T14:21:06Z</time>
      </trkpt>
      <trkpt lat="45.53281" lon="2.61505">
        <ele>769.69</ele>
        <time>2022-08-16T14:21:09Z</time>
      </trkpt>
      <trkpt lat="45.53327" lon="2.615">
        <ele>765.63</ele>
        <time>2022-08-16T14:21:12Z</time>
      </trkpt>
      <trkpt lat="45.53371" lon="2.61484">
        <ele>761.93</ele>
        <time>2022-08-16T14:21:15Z</time>
      </trkpt>
      <trkpt lat="45.53386" lon="2.61476">
        <ele>761.84</ele>
        <time>2022-08-16T14:21:16Z</time>
      </trkpt>
      <trkpt lat="45.534" lon="2.61466">
        <ele>759.72</ele>
        <time>2022-08-16T14:21:17Z</time>
      </trkpt>
      <trkpt lat="45.53414" lon="2.61455">
        <ele>759.77</ele>
        <time>2022-08-16T14:21:18Z</time>
      </trkpt>
      <trkpt lat="45.53439" lon="2.6143">
        <ele>757.02</ele>
        <time>2022-08-16T14:21:20Z</time>
      </trkpt>
      <trkpt lat="45.5345" lon="2.61415">
        <ele>754.98</ele>
        <time>2022-08-16T14:21:21Z</time>
      </trkpt>
      <trkpt lat="45.53484" lon="2.61367">
        <ele>751.55</ele>
        <time>2022-08-16T14:21:24Z</time>
      </trkpt>
      <trkpt lat="45.53496" lon="2.61353">
        <ele>750.34</ele>
        <time>2022-08-16T14:21:25Z</time>
      </trkpt>
      <trkpt lat="45.53509" lon="2.6134">
        <ele>748.53</ele>
        <time>2022-08-16T14:21:26Z</time>
      </trkpt>
      <trkpt lat="45.53523" lon="2.61329">
        <ele>747.03</ele>
        <time>2022-08-16T14:21:27Z</time>
      </trkpt>
      <trkpt lat="45.53536" lon="2.6132">
        <ele>747.2</ele>
        <time>2022-08-16T14:21:28Z</time>
      </trkpt>
      <trkpt lat="45.53562" lon="2.61302">
        <ele>744.67</ele>
        <time>2022-08-16T14:21:30Z</time>
      </trkpt>
      <trkpt lat="45.53586" lon="2.6128">
        <ele>741.67</ele>
        <time>2022-08-16T14:21:32Z</time>
      </trkpt>
      <trkpt lat="45.53596" lon="2.61266">
        <ele>740.62</ele>
        <time>2022-08-16T14:21:33Z</time>
      </trkpt>
      <trkpt lat="45.53605" lon="2.6125">
        <ele>739.24</ele>
        <time>2022-08-16T14:21:34Z</time>
      </trkpt>
      <trkpt lat="45.53611" lon="2.61232">
        <ele>738.22</ele>
        <time>2022-08-16T14:21:35Z</time>
      </trkpt>
      <trkpt lat="45.53616" lon="2.61214">
        <ele>737.3</ele>
        <time>2022-08-16T14:21:36Z</time>
      </trkpt>
      <trkpt lat="45.53618" lon="2.61195">
        <ele>735.37</ele>
        <time>2022-08-16T14:21:37Z</time>
      </trkpt>
      <trkpt lat="45.5362" lon="2.61177">
        <ele>734.44</ele>
        <time>2022-08-16T14:21:38Z</time>
      </trkpt>
      <trkpt lat="45.5362" lon="2.61158">
        <ele>733.49</ele>
        <time>2022-08-16T14:21:39Z</time>
      </trkpt>
      <trkpt lat="45.53621" lon="2.61105">
        <ele>730.33</ele>
        <time>2022-08-16T14:21:42Z</time>
      </trkpt>
      <trkpt lat="45.53618" lon="2.61055">
        <ele>726.74</ele>
        <time>2022-08-16T14:21:45Z</time>
      </trkpt>
      <trkpt lat="45.53614" lon="2.61028">
        <ele>725.43</ele>
        <time>2022-08-16T14:21:47Z</time>
      </trkpt>
      <trkpt lat="45.53614" lon="2.61018">
        <ele>724.43</ele>
        <time>2022-08-16T14:21:48Z</time>
      </trkpt>
      <trkpt lat="45.53616" lon="2.61009">
        <ele>724.37</ele>
        <time>2022-08-16T14:21:49Z</time>
      </trkpt>
      <trkpt lat="45.53621" lon="2.61004">
        <ele>723.29</ele>
        <time>2022-08-16T14:21:50Z</time>
      </trkpt>
      <trkpt lat="45.53626" lon="2.61003">
        <ele>723.13</ele>
        <time>2022-08-16T14:21:51Z</time>
      </trkpt>
      <trkpt lat="45.53631" lon="2.61007">
        <ele>722.39</ele>
        <time>2022-08-16T14:21:52Z</time>
      </trkpt>
      <trkpt lat="45.53633" lon="2.61014">
        <ele>722.35</ele>
        <time>2022-08-16T14:21:53Z</time>
      </trkpt>
      <trkpt lat="45.53633" lon="2.61024">
        <ele>721.65</ele>
        <time>2022-08-16T14:21:54Z</time>
      </trkpt>
      <trkpt lat="45.53632" lon="2.61036">
        <ele>721.69</ele>
        <time>2022-08-16T14:21:55Z</time>
      </trkpt>
      <trkpt lat="45.53631" lon="2.6105">
        <ele>721.64</ele>
        <time>2022-08-16T14:21:56Z</time>
      </trkpt>
      <trkpt lat="45.5363" lon="2.61066">
        <ele>721.64</ele>
        <time>2022-08-16T14:21:57Z</time>
      </trkpt>
      <trkpt lat="45.53631" lon="2.61142">
        <ele>719.01</ele>
        <time>2022-08-16T14:22:01Z</time>
      </trkpt>
      <trkpt lat="45.53633" lon="2.61183">
        <ele>715.58</ele>
        <time>2022-08-16T14:22:03Z</time>
      </trkpt>
      <trkpt lat="45.53635" lon="2.61247">
        <ele>711.8</ele>
        <time>2022-08-16T14:22:06Z</time>
      </trkpt>
      <trkpt lat="45.53635" lon="2.61311">
        <ele>708.19</ele>
        <time>2022-08-16T14:22:09Z</time>
      </trkpt>
      <trkpt lat="45.53632" lon="2.61352">
        <ele>705.89</ele>
        <time>2022-08-16T14:22:11Z</time>
      </trkpt>
      <trkpt lat="45.53629" lon="2.61371">
        <ele>704.24</ele>
        <time>2022-08-16T14:22:12Z</time>
      </trkpt>
      <trkpt lat="45.53625" lon="2.61391">
        <ele>702.9</ele>
        <time>2022-08-16T14:22:13Z</time>
      </trkpt>
      <trkpt lat="45.5362" lon="2.61409">
        <ele>701.68</ele>
        <time>2022-08-16T14:22:14Z</time>
      </trkpt>
      <trkpt lat="45.53614" lon="2.61427">
        <ele>701.46</ele>
        <time>2022-08-16T14:22:15Z</time>
      </trkpt>
      <trkpt lat="45.53601" lon="2.6146">
        <ele>697.19</ele>
        <time>2022-08-16T14:22:17Z</time>
      </trkpt>
      <trkpt lat="45.53594" lon="2.61476">
        <ele>697.09</ele>
        <time>2022-08-16T14:22:18Z</time>
      </trkpt>
      <trkpt lat="45.53574" lon="2.61524">
        <ele>693.37</ele>
        <time>2022-08-16T14:22:21Z</time>
      </trkpt>
      <trkpt lat="45.53554" lon="2.6157">
        <ele>689.95</ele>
        <time>2022-08-16T14:22:24Z</time>
      </trkpt>
      <trkpt lat="45.53534" lon="2.61613">
        <ele>686.73</ele>
        <time>2022-08-16T14:22:27Z</time>
      </trkpt>
      <trkpt lat="45.53514" lon="2.61653">
        <ele>683.6</ele>
        <time>2022-08-16T14:22:30Z</time>
      </trkpt>
      <trkpt lat="45.53497" lon="2.61683">
        <ele>680.96</ele>
        <time>2022-08-16T14:22:33Z</time>
      </trkpt>
      <trkpt lat="45.53488" lon="2.61697">
        <ele>679.59</ele>
        <time>2022-08-16T14:22:35Z</time>
      </trkpt>
      <trkpt lat="45.53482" lon="2.61707">
        <ele>678.32</ele>
        <time>2022-08-16T14:22:37Z</time>
      </trkpt>
      <trkpt lat="45.53477" lon="2.61716">
        <ele>678.19</ele>
        <time>2022-08-16T14:22:39Z</time>
      </trkpt>
      <trkpt lat="45.53474" lon="2.61723">
        <ele>678.23</ele>
        <time>2022-08-16T14:22:40Z</time>
      </trkpt>
      <trkpt lat="45.53445" lon="2.61779">
        <ele>675.21</ele>
        <time>2022-08-16T14:22:45Z</time>
      </trkpt>
      <trkpt lat="45.5344" lon="2.61791">
        <ele>675.35</ele>
        <time>2022-08-16T14:22:46Z</time>
      </trkpt>
      <trkpt lat="45.53428" lon="2.61828">
        <ele>672.49</ele>
        <time>2022-08-16T14:22:49Z</time>
      </trkpt>
      <trkpt lat="45.53421" lon="2.61865">
        <ele>669.16</ele>
        <time>2022-08-16T14:22:52Z</time>
      </trkpt>
      <trkpt lat="45.53417" lon="2.61906">
        <ele>667.43</ele>
        <time>2022-08-16T14:22:55Z</time>
      </trkpt>
      <trkpt lat="45.5342" lon="2.61955">
        <ele>664.04</ele>
        <time>2022-08-16T14:22:58Z</time>
      </trkpt>
      <trkpt lat="45.53422" lon="2.61971">
        <ele>663.99</ele>
        <time>2022-08-16T14:22:59Z</time>
      </trkpt>
      <trkpt lat="45.53433" lon="2.62016">
        <ele>660.47</ele>
        <time>2022-08-16T14:23:02Z</time>
      </trkpt>
      <trkpt lat="45.53446" lon="2.62052">
        <ele>658.59</ele>
        <time>2022-08-16T14:23:05Z</time>
      </trkpt>
      <trkpt lat="45.53462" lon="2.62082">
        <ele>656.38</ele>
        <time>2022-08-16T14:23:08Z</time>
      </trkpt>
      <trkpt lat="45.53504" lon="2.62133">
        <ele>653.06</ele>
        <time>2022-08-16T14:23:14Z</time>
      </trkpt>
      <trkpt lat="45.53511" lon="2.62138">
        <ele>653.05</ele>
        <time>2022-08-16T14:23:15Z</time>
      </trkpt>
      <trkpt lat="45.53581" lon="2.62173">
        <ele>652.46</ele>
        <time>2022-08-16T14:23:24Z</time>
      </trkpt>
      <trkpt lat="45.53678" lon="2.62186">
        <ele>656.5</ele>
        <time>2022-08-16T14:23:32Z</time>
      </trkpt>
      <trkpt lat="45.53697" lon="2.62188">
        <ele>656.53</ele>
        <time>2022-08-16T14:23:33Z</time>
      </trkpt>
      <trkpt lat="45.53919" lon="2.62223">
        <ele>656.97</ele>
        <time>2022-08-16T14:23:45Z</time>
      </trkpt>
      <trkpt lat="45.53996" lon="2.62245">
        <ele>662.77</ele>
        <time>2022-08-16T14:23:49Z</time>
      </trkpt>
      <trkpt lat="45.54035" lon="2.62256">
        <ele>666.01</ele>
        <time>2022-08-16T14:23:51Z</time>
      </trkpt>
      <trkpt lat="45.54074" lon="2.62268">
        <ele>669.69</ele>
        <time>2022-08-16T14:23:53Z</time>
      </trkpt>
      <trkpt lat="45.54112" lon="2.62283">
        <ele>673.43</ele>
        <time>2022-08-16T14:23:55Z</time>
      </trkpt>
      <trkpt lat="45.54145" lon="2.62306">
        <ele>676.74</ele>
        <time>2022-08-16T14:23:57Z</time>
      </trkpt>
      <trkpt lat="45.54161" lon="2.6232">
        <ele>678.86</ele>
        <time>2022-08-16T14:23:58Z</time>
      </trkpt>
      <trkpt lat="45.54192" lon="2.62348">
        <ele>683.33</ele>
        <time>2022-08-16T14:24:00Z</time>
      </trkpt>
      <trkpt lat="45.54225" lon="2.62376">
        <ele>686.99</ele>
        <time>2022-08-16T14:24:02Z</time>
      </trkpt>
      <trkpt lat="45.5426" lon="2.62403">
        <ele>691.2</ele>
        <time>2022-08-16T14:24:04Z</time>
      </trkpt>
      <trkpt lat="45.54296" lon="2.6243">
        <ele>695.82</ele>
        <time>2022-08-16T14:24:06Z</time>
      </trkpt>
      <trkpt lat="45.54334" lon="2.62458">
        <ele>699.92</ele>
        <time>2022-08-16T14:24:08Z</time>
      </trkpt>
      <trkpt lat="45.54373" lon="2.62483">
        <ele>703.97</ele>
        <time>2022-08-16T14:24:10Z</time>
      </trkpt>
      <trkpt lat="45.5441" lon="2.62508">
        <ele>707.49</ele>
        <time>2022-08-16T14:24:12Z</time>
      </trkpt>
      <trkpt lat="45.54425" lon="2.62521">
        <ele>708.5</ele>
        <time>2022-08-16T14:24:13Z</time>
      </trkpt>
      <trkpt lat="45.54438" lon="2.62535">
        <ele>707.91</ele>
        <time>2022-08-16T14:24:14Z</time>
      </trkpt>
      <trkpt lat="45.54448" lon="2.62551">
        <ele>709</ele>
        <time>2022-08-16T14:24:15Z</time>
      </trkpt>
      <trkpt lat="45.54457" lon="2.62569">
        <ele>709.07</ele>
        <time>2022-08-16T14:24:16Z</time>
      </trkpt>
      <trkpt lat="45.54463" lon="2.62588">
        <ele>711.8</ele>
        <time>2022-08-16T14:24:17Z</time>
      </trkpt>
      <trkpt lat="45.54468" lon="2.62608">
        <ele>713.11</ele>
        <time>2022-08-16T14:24:18Z</time>
      </trkpt>
      <trkpt lat="45.5447" lon="2.6263">
        <ele>714.24</ele>
        <time>2022-08-16T14:24:19Z</time>
      </trkpt>
      <trkpt lat="45.5447" lon="2.62654">
        <ele>716.45</ele>
        <time>2022-08-16T14:24:20Z</time>
      </trkpt>
      <trkpt lat="45.54471" lon="2.62677">
        <ele>717.77</ele>
        <time>2022-08-16T14:24:21Z</time>
      </trkpt>
      <trkpt lat="45.54472" lon="2.62701">
        <ele>719.13</ele>
        <time>2022-08-16T14:24:22Z</time>
      </trkpt>
      <trkpt lat="45.54475" lon="2.62725">
        <ele>720.36</ele>
        <time>2022-08-16T14:24:23Z</time>
      </trkpt>
      <trkpt lat="45.54481" lon="2.62747">
        <ele>721.63</ele>
        <time>2022-08-16T14:24:24Z</time>
      </trkpt>
      <trkpt lat="45.54488" lon="2.62767">
        <ele>723.06</ele>
        <time>2022-08-16T14:24:25Z</time>
      </trkpt>
      <trkpt lat="45.54498" lon="2.62785">
        <ele>724.12</ele>
        <time>2022-08-16T14:24:26Z</time>
      </trkpt>
      <trkpt lat="45.54511" lon="2.62799">
        <ele>725.04</ele>
        <time>2022-08-16T14:24:27Z</time>
      </trkpt>
      <trkpt lat="45.54525" lon="2.6281">
        <ele>726.06</ele>
        <time>2022-08-16T14:24:28Z</time>
      </trkpt>
      <trkpt lat="45.5454" lon="2.62817">
        <ele>727.39</ele>
        <time>2022-08-16T14:24:29Z</time>
      </trkpt>
      <trkpt lat="45.54557" lon="2.62818">
        <ele>728.8</ele>
        <time>2022-08-16T14:24:30Z</time>
      </trkpt>
      <trkpt lat="45.54573" lon="2.62816">
        <ele>729.94</ele>
        <time>2022-08-16T14:24:31Z</time>
      </trkpt>
      <trkpt lat="45.54589" lon="2.62808">
        <ele>730.1</ele>
        <time>2022-08-16T14:24:32Z</time>
      </trkpt>
      <trkpt lat="45.54604" lon="2.62796">
        <ele>732.25</ele>
        <time>2022-08-16T14:24:33Z</time>
      </trkpt>
      <trkpt lat="45.54616" lon="2.6278">
        <ele>733.41</ele>
        <time>2022-08-16T14:24:34Z</time>
      </trkpt>
      <trkpt lat="45.54626" lon="2.62759">
        <ele>733.47</ele>
        <time>2022-08-16T14:24:35Z</time>
      </trkpt>
      <trkpt lat="45.54634" lon="2.62736">
        <ele>735.77</ele>
        <time>2022-08-16T14:24:36Z</time>
      </trkpt>
      <trkpt lat="45.54639" lon="2.6271">
        <ele>737.59</ele>
        <time>2022-08-16T14:24:37Z</time>
      </trkpt>
      <trkpt lat="45.54643" lon="2.62684">
        <ele>739.05</ele>
        <time>2022-08-16T14:24:38Z</time>
      </trkpt>
      <trkpt lat="45.54645" lon="2.62657">
        <ele>741.09</ele>
        <time>2022-08-16T14:24:39Z</time>
      </trkpt>
      <trkpt lat="45.54647" lon="2.62571">
        <ele>745.5</ele>
        <time>2022-08-16T14:24:42Z</time>
      </trkpt>
      <trkpt lat="45.54643" lon="2.62512">
        <ele>749.57</ele>
        <time>2022-08-16T14:24:44Z</time>
      </trkpt>
      <trkpt lat="45.54631" lon="2.62453">
        <ele>752.98</ele>
        <time>2022-08-16T14:24:46Z</time>
      </trkpt>
      <trkpt lat="45.54617" lon="2.62393">
        <ele>756.45</ele>
        <time>2022-08-16T14:24:48Z</time>
      </trkpt>
      <trkpt lat="45.54604" lon="2.62332">
        <ele>760.43</ele>
        <time>2022-08-16T14:24:50Z</time>
      </trkpt>
      <trkpt lat="45.54596" lon="2.62268">
        <ele>764.24</ele>
        <time>2022-08-16T14:24:52Z</time>
      </trkpt>
      <trkpt lat="45.54592" lon="2.62204">
        <ele>767.41</ele>
        <time>2022-08-16T14:24:54Z</time>
      </trkpt>
      <trkpt lat="45.54589" lon="2.62143">
        <ele>769.19</ele>
        <time>2022-08-16T14:24:56Z</time>
      </trkpt>
      <trkpt lat="45.54592" lon="2.62063">
        <ele>773.25</ele>
        <time>2022-08-16T14:24:59Z</time>
      </trkpt>
      <trkpt lat="45.54597" lon="2.62039">
        <ele>774.23</ele>
        <time>2022-08-16T14:25:00Z</time>
      </trkpt>
      <trkpt lat="45.54603" lon="2.62016">
        <ele>775.4</ele>
        <time>2022-08-16T14:25:01Z</time>
      </trkpt>
      <trkpt lat="45.54611" lon="2.61993">
        <ele>775.53</ele>
        <time>2022-08-16T14:25:02Z</time>
      </trkpt>
      <trkpt lat="45.54619" lon="2.61971">
        <ele>776.95</ele>
        <time>2022-08-16T14:25:03Z</time>
      </trkpt>
      <trkpt lat="45.54629" lon="2.6195">
        <ele>776.98</ele>
        <time>2022-08-16T14:25:04Z</time>
      </trkpt>
      <trkpt lat="45.54639" lon="2.6193">
        <ele>778.18</ele>
        <time>2022-08-16T14:25:05Z</time>
      </trkpt>
      <trkpt lat="45.54651" lon="2.61912">
        <ele>779.46</ele>
        <time>2022-08-16T14:25:06Z</time>
      </trkpt>
      <trkpt lat="45.54665" lon="2.61895">
        <ele>780.36</ele>
        <time>2022-08-16T14:25:07Z</time>
      </trkpt>
      <trkpt lat="45.54679" lon="2.6188">
        <ele>780.6</ele>
        <time>2022-08-16T14:25:08Z</time>
      </trkpt>
      <trkpt lat="45.54694" lon="2.61867">
        <ele>781.48</ele>
        <time>2022-08-16T14:25:09Z</time>
      </trkpt>
      <trkpt lat="45.5471" lon="2.61856">
        <ele>781.59</ele>
        <time>2022-08-16T14:25:10Z</time>
      </trkpt>
      <trkpt lat="45.54726" lon="2.61847">
        <ele>782.52</ele>
        <time>2022-08-16T14:25:11Z</time>
      </trkpt>
      <trkpt lat="45.54743" lon="2.61839">
        <ele>783.67</ele>
        <time>2022-08-16T14:25:12Z</time>
      </trkpt>
      <trkpt lat="45.54761" lon="2.61833">
        <ele>783.86</ele>
        <time>2022-08-16T14:25:13Z</time>
      </trkpt>
      <trkpt lat="45.54778" lon="2.61828">
        <ele>785.12</ele>
        <time>2022-08-16T14:25:14Z</time>
      </trkpt>
      <trkpt lat="45.54814" lon="2.61819">
        <ele>786.13</ele>
        <time>2022-08-16T14:25:16Z</time>
      </trkpt>
      <trkpt lat="45.54886" lon="2.61805">
        <ele>788.4</ele>
        <time>2022-08-16T14:25:20Z</time>
      </trkpt>
      <trkpt lat="45.54943" lon="2.61794">
        <ele>789.81</ele>
        <time>2022-08-16T14:25:23Z</time>
      </trkpt>
      <trkpt lat="45.5509" lon="2.61769">
        <ele>786.25</ele>
        <time>2022-08-16T14:25:31Z</time>
      </trkpt>
      <trkpt lat="45.55138" lon="2.6176">
        <ele>782.75</ele>
        <time>2022-08-16T14:25:34Z</time>
      </trkpt>
      <trkpt lat="45.55153" lon="2.61757">
        <ele>782.74</ele>
        <time>2022-08-16T14:25:35Z</time>
      </trkpt>
      <trkpt lat="45.55181" lon="2.61753">
        <ele>780.72</ele>
        <time>2022-08-16T14:25:37Z</time>
      </trkpt>
      <trkpt lat="45.55208" lon="2.6175">
        <ele>777.45</ele>
        <time>2022-08-16T14:25:39Z</time>
      </trkpt>
      <trkpt lat="45.5523" lon="2.61749">
        <ele>776.5</ele>
        <time>2022-08-16T14:25:41Z</time>
      </trkpt>
      <trkpt lat="45.55255" lon="2.61747">
        <ele>772.67</ele>
        <time>2022-08-16T14:25:44Z</time>
      </trkpt>
      <trkpt lat="45.5526" lon="2.61742">
        <ele>772.62</ele>
        <time>2022-08-16T14:25:45Z</time>
      </trkpt>
      <trkpt lat="45.55264" lon="2.61736">
        <ele>771.3</ele>
        <time>2022-08-16T14:25:46Z</time>
      </trkpt>
      <trkpt lat="45.55266" lon="2.61728">
        <ele>771.13</ele>
        <time>2022-08-16T14:25:47Z</time>
      </trkpt>
      <trkpt lat="45.55268" lon="2.61721">
        <ele>771.3</ele>
        <time>2022-08-16T14:25:48Z</time>
      </trkpt>
      <trkpt lat="45.55271" lon="2.61713">
        <ele>771.26</ele>
        <time>2022-08-16T14:25:49Z</time>
      </trkpt>
      <trkpt lat="45.55276" lon="2.61705">
        <ele>771.29</ele>
        <time>2022-08-16T14:25:50Z</time>
      </trkpt>
      <trkpt lat="45.55283" lon="2.61698">
        <ele>770.49</ele>
        <time>2022-08-16T14:25:51Z</time>
      </trkpt>
      <trkpt lat="45.55291" lon="2.61692">
        <ele>770.52</ele>
        <time>2022-08-16T14:25:52Z</time>
      </trkpt>
      <trkpt lat="45.55299" lon="2.61685">
        <ele>770.56</ele>
        <time>2022-08-16T14:25:53Z</time>
      </trkpt>
      <trkpt lat="45.55348" lon="2.61658">
        <ele>766.58</ele>
        <time>2022-08-16T14:25:58Z</time>
      </trkpt>
      <trkpt lat="45.55358" lon="2.61653">
        <ele>766.56</ele>
        <time>2022-08-16T14:25:59Z</time>
      </trkpt>
      <trkpt lat="45.5538" lon="2.61644">
        <ele>764.93</ele>
        <time>2022-08-16T14:26:01Z</time>
      </trkpt>
      <trkpt lat="45.55412" lon="2.6163">
        <ele>763.04</ele>
        <time>2022-08-16T14:26:04Z</time>
      </trkpt>
      <trkpt lat="45.55422" lon="2.61625">
        <ele>761.75</ele>
        <time>2022-08-16T14:26:05Z</time>
      </trkpt>
      <trkpt lat="45.55431" lon="2.61618">
        <ele>760.93</ele>
        <time>2022-08-16T14:26:06Z</time>
      </trkpt>
      <trkpt lat="45.55439" lon="2.61608">
        <ele>759.54</ele>
        <time>2022-08-16T14:26:07Z</time>
      </trkpt>
      <trkpt lat="45.55444" lon="2.61596">
        <ele>759.59</ele>
        <time>2022-08-16T14:26:08Z</time>
      </trkpt>
      <trkpt lat="45.55448" lon="2.61584">
        <ele>758.3</ele>
        <time>2022-08-16T14:26:09Z</time>
      </trkpt>
      <trkpt lat="45.55449" lon="2.6157">
        <ele>758.34</ele>
        <time>2022-08-16T14:26:10Z</time>
      </trkpt>
      <trkpt lat="45.55449" lon="2.61557">
        <ele>756.81</ele>
        <time>2022-08-16T14:26:11Z</time>
      </trkpt>
      <trkpt lat="45.55447" lon="2.61544">
        <ele>756.81</ele>
        <time>2022-08-16T14:26:12Z</time>
      </trkpt>
      <trkpt lat="45.55445" lon="2.61532">
        <ele>755.76</ele>
        <time>2022-08-16T14:26:13Z</time>
      </trkpt>
      <trkpt lat="45.55443" lon="2.61521">
        <ele>755.8</ele>
        <time>2022-08-16T14:26:14Z</time>
      </trkpt>
      <trkpt lat="45.5544" lon="2.6151">
        <ele>755.76</ele>
        <time>2022-08-16T14:26:15Z</time>
      </trkpt>
      <trkpt lat="45.55435" lon="2.615">
        <ele>755.04</ele>
        <time>2022-08-16T14:26:16Z</time>
      </trkpt>
      <trkpt lat="45.55429" lon="2.61492">
        <ele>755.67</ele>
        <time>2022-08-16T14:26:17Z</time>
      </trkpt>
      <trkpt lat="45.55422" lon="2.61485">
        <ele>755.71</ele>
        <time>2022-08-16T14:26:18Z</time>
      </trkpt>
      <trkpt lat="45.55414" lon="2.61479">
        <ele>755.71</ele>
        <time>2022-08-16T14:26:19Z</time>
      </trkpt>
      <trkpt lat="45.55405" lon="2.61472">
        <ele>755.69</ele>
        <time>2022-08-16T14:26:20Z</time>
      </trkpt>
      <trkpt lat="45.55388" lon="2.61457">
        <ele>755.78</ele>
        <time>2022-08-16T14:26:22Z</time>
      </trkpt>
      <trkpt lat="45.5538" lon="2.61448">
        <ele>755.8</ele>
        <time>2022-08-16T14:26:23Z</time>
      </trkpt>
      <trkpt lat="45.55374" lon="2.61436">
        <ele>755.85</ele>
        <time>2022-08-16T14:26:24Z</time>
      </trkpt>
      <trkpt lat="45.55369" lon="2.61424">
        <ele>755.88</ele>
        <time>2022-08-16T14:26:25Z</time>
      </trkpt>
      <trkpt lat="45.55366" lon="2.6141">
        <ele>755.92</ele>
        <time>2022-08-16T14:26:26Z</time>
      </trkpt>
      <trkpt lat="45.55366" lon="2.61396">
        <ele>755.95</ele>
        <time>2022-08-16T14:26:27Z</time>
      </trkpt>
      <trkpt lat="45.55368" lon="2.61382">
        <ele>756.01</ele>
        <time>2022-08-16T14:26:28Z</time>
      </trkpt>
      <trkpt lat="45.55372" lon="2.61369">
        <ele>759.06</ele>
        <time>2022-08-16T14:26:29Z</time>
      </trkpt>
      <trkpt lat="45.55377" lon="2.61356">
        <ele>759.09</ele>
        <time>2022-08-16T14:26:30Z</time>
      </trkpt>
      <trkpt lat="45.55384" lon="2.61344">
        <ele>759.14</ele>
        <time>2022-08-16T14:26:31Z</time>
      </trkpt>
      <trkpt lat="45.5541" lon="2.61293">
        <ele>760.89</ele>
        <time>2022-08-16T14:26:35Z</time>
      </trkpt>
      <trkpt lat="45.55431" lon="2.61255">
        <ele>762.8</ele>
        <time>2022-08-16T14:26:38Z</time>
      </trkpt>
      <trkpt lat="45.55444" lon="2.61227">
        <ele>764.15</ele>
        <time>2022-08-16T14:26:40Z</time>
      </trkpt>
      <trkpt lat="45.55453" lon="2.61198">
        <ele>766.19</ele>
        <time>2022-08-16T14:26:42Z</time>
      </trkpt>
      <trkpt lat="45.55455" lon="2.61182">
        <ele>766.19</ele>
        <time>2022-08-16T14:26:43Z</time>
      </trkpt>
      <trkpt lat="45.55457" lon="2.61166">
        <ele>767.51</ele>
        <time>2022-08-16T14:26:44Z</time>
      </trkpt>
      <trkpt lat="45.55457" lon="2.6115">
        <ele>767.67</ele>
        <time>2022-08-16T14:26:45Z</time>
      </trkpt>
      <trkpt lat="45.55455" lon="2.61134">
        <ele>768.59</ele>
        <time>2022-08-16T14:26:46Z</time>
      </trkpt>
      <trkpt lat="45.55453" lon="2.61118">
        <ele>768.61</ele>
        <time>2022-08-16T14:26:47Z</time>
      </trkpt>
      <trkpt lat="45.55448" lon="2.61086">
        <ele>769.93</ele>
        <time>2022-08-16T14:26:49Z</time>
      </trkpt>
      <trkpt lat="45.5544" lon="2.61037">
        <ele>771.29</ele>
        <time>2022-08-16T14:26:52Z</time>
      </trkpt>
      <trkpt lat="45.55412" lon="2.60872">
        <ele>772.55</ele>
        <time>2022-08-16T14:27:04Z</time>
      </trkpt>
      <trkpt lat="45.55409" lon="2.60852">
        <ele>769.53</ele>
        <time>2022-08-16T14:27:06Z</time>
      </trkpt>
      <trkpt lat="45.55408" lon="2.60842">
        <ele>769.53</ele>
        <time>2022-08-16T14:27:07Z</time>
      </trkpt>
      <trkpt lat="45.55406" lon="2.60833">
        <ele>769.52</ele>
        <time>2022-08-16T14:27:08Z</time>
      </trkpt>
      <trkpt lat="45.55403" lon="2.60825">
        <ele>769.5</ele>
        <time>2022-08-16T14:27:09Z</time>
      </trkpt>
      <trkpt lat="45.554" lon="2.60816">
        <ele>767.95</ele>
        <time>2022-08-16T14:27:10Z</time>
      </trkpt>
      <trkpt lat="45.55395" lon="2.60807">
        <ele>767.94</ele>
        <time>2022-08-16T14:27:11Z</time>
      </trkpt>
      <trkpt lat="45.5539" lon="2.60797">
        <ele>767.94</ele>
        <time>2022-08-16T14:27:12Z</time>
      </trkpt>
      <trkpt lat="45.55364" lon="2.60749">
        <ele>766.19</ele>
        <time>2022-08-16T14:27:16Z</time>
      </trkpt>
      <trkpt lat="45.55341" lon="2.60707">
        <ele>763.02</ele>
        <time>2022-08-16T14:27:19Z</time>
      </trkpt>
      <trkpt lat="45.55334" lon="2.60692">
        <ele>763.06</ele>
        <time>2022-08-16T14:27:20Z</time>
      </trkpt>
      <trkpt lat="45.55312" lon="2.60648">
        <ele>760.81</ele>
        <time>2022-08-16T14:27:23Z</time>
      </trkpt>
      <trkpt lat="45.55276" lon="2.60562">
        <ele>760.92</ele>
        <time>2022-08-16T14:27:29Z</time>
      </trkpt>
      <trkpt lat="45.55268" lon="2.60551">
        <ele>760.96</ele>
        <time>2022-08-16T14:27:30Z</time>
      </trkpt>
      <trkpt lat="45.55259" lon="2.60541">
        <ele>760.95</ele>
        <time>2022-08-16T14:27:31Z</time>
      </trkpt>
      <trkpt lat="45.55231" lon="2.60512">
        <ele>764.46</ele>
        <time>2022-08-16T14:27:34Z</time>
      </trkpt>
      <trkpt lat="45.55211" lon="2.60494">
        <ele>765.89</ele>
        <time>2022-08-16T14:27:36Z</time>
      </trkpt>
      <trkpt lat="45.5518" lon="2.60468">
        <ele>769.14</ele>
        <time>2022-08-16T14:27:39Z</time>
      </trkpt>
      <trkpt lat="45.55169" lon="2.60461">
        <ele>769.17</ele>
        <time>2022-08-16T14:27:40Z</time>
      </trkpt>
      <trkpt lat="45.55137" lon="2.60438">
        <ele>770.49</ele>
        <time>2022-08-16T14:27:43Z</time>
      </trkpt>
      <trkpt lat="45.55093" lon="2.60407">
        <ele>772.65</ele>
        <time>2022-08-16T14:27:47Z</time>
      </trkpt>
      <trkpt lat="45.55062" lon="2.60381">
        <ele>774.11</ele>
        <time>2022-08-16T14:27:50Z</time>
      </trkpt>
      <trkpt lat="45.55035" lon="2.6035">
        <ele>776.46</ele>
        <time>2022-08-16T14:27:53Z</time>
      </trkpt>
      <trkpt lat="45.55011" lon="2.60321">
        <ele>778.13</ele>
        <time>2022-08-16T14:27:56Z</time>
      </trkpt>
      <trkpt lat="45.55002" lon="2.60314">
        <ele>779.21</ele>
        <time>2022-08-16T14:27:57Z</time>
      </trkpt>
      <trkpt lat="45.54993" lon="2.60309">
        <ele>779.24</ele>
        <time>2022-08-16T14:27:58Z</time>
      </trkpt>
      <trkpt lat="45.54984" lon="2.60306">
        <ele>779.32</ele>
        <time>2022-08-16T14:27:59Z</time>
      </trkpt>
      <trkpt lat="45.54975" lon="2.60304">
        <ele>780.81</ele>
        <time>2022-08-16T14:28:00Z</time>
      </trkpt>
      <trkpt lat="45.54965" lon="2.60302">
        <ele>780.89</ele>
        <time>2022-08-16T14:28:01Z</time>
      </trkpt>
      <trkpt lat="45.54946" lon="2.60298">
        <ele>781.45</ele>
        <time>2022-08-16T14:28:03Z</time>
      </trkpt>
      <trkpt lat="45.54938" lon="2.60293">
        <ele>782.74</ele>
        <time>2022-08-16T14:28:04Z</time>
      </trkpt>
      <trkpt lat="45.5493" lon="2.60286">
        <ele>782.83</ele>
        <time>2022-08-16T14:28:05Z</time>
      </trkpt>
      <trkpt lat="45.54924" lon="2.60277">
        <ele>783.74</ele>
        <time>2022-08-16T14:28:06Z</time>
      </trkpt>
      <trkpt lat="45.54919" lon="2.60266">
        <ele>784.67</ele>
        <time>2022-08-16T14:28:07Z</time>
      </trkpt>
      <trkpt lat="45.54915" lon="2.60254">
        <ele>784.71</ele>
        <time>2022-08-16T14:28:08Z</time>
      </trkpt>
      <trkpt lat="45.54912" lon="2.60242">
        <ele>784.74</ele>
        <time>2022-08-16T14:28:09Z</time>
      </trkpt>
      <trkpt lat="45.54899" lon="2.60192">
        <ele>784.92</ele>
        <time>2022-08-16T14:28:13Z</time>
      </trkpt>
      <trkpt lat="45.54898" lon="2.60179">
        <ele>782.15</ele>
        <time>2022-08-16T14:28:14Z</time>
      </trkpt>
      <trkpt lat="45.54899" lon="2.60167">
        <ele>782.17</ele>
        <time>2022-08-16T14:28:15Z</time>
      </trkpt>
      <trkpt lat="45.54901" lon="2.60155">
        <ele>782.17</ele>
        <time>2022-08-16T14:28:16Z</time>
      </trkpt>
      <trkpt lat="45.54905" lon="2.60145">
        <ele>781.26</ele>
        <time>2022-08-16T14:28:17Z</time>
      </trkpt>
      <trkpt lat="45.54909" lon="2.60135">
        <ele>780.47</ele>
        <time>2022-08-16T14:28:18Z</time>
      </trkpt>
      <trkpt lat="45.54914" lon="2.60125">
        <ele>780.45</ele>
        <time>2022-08-16T14:28:19Z</time>
      </trkpt>
      <trkpt lat="45.54933" lon="2.60077">
        <ele>777.83</ele>
        <time>2022-08-16T14:28:24Z</time>
      </trkpt>
      <trkpt lat="45.54934" lon="2.60067">
        <ele>776.53</ele>
        <time>2022-08-16T14:28:25Z</time>
      </trkpt>
      <trkpt lat="45.54934" lon="2.60055">
        <ele>776.58</ele>
        <time>2022-08-16T14:28:26Z</time>
      </trkpt>
      <trkpt lat="45.54932" lon="2.60044">
        <ele>775.77</ele>
        <time>2022-08-16T14:28:27Z</time>
      </trkpt>
      <trkpt lat="45.54929" lon="2.60033">
        <ele>775.8</ele>
        <time>2022-08-16T14:28:28Z</time>
      </trkpt>
      <trkpt lat="45.54924" lon="2.60021">
        <ele>775.79</ele>
        <time>2022-08-16T14:28:29Z</time>
      </trkpt>
      <trkpt lat="45.549" lon="2.59956">
        <ele>773.72</ele>
        <time>2022-08-16T14:28:34Z</time>
      </trkpt>
      <trkpt lat="45.54898" lon="2.59941">
        <ele>773.77</ele>
        <time>2022-08-16T14:28:35Z</time>
      </trkpt>
      <trkpt lat="45.54897" lon="2.59926">
        <ele>773.8</ele>
        <time>2022-08-16T14:28:36Z</time>
      </trkpt>
      <trkpt lat="45.54896" lon="2.59911">
        <ele>773.85</ele>
        <time>2022-08-16T14:28:37Z</time>
      </trkpt>
      <trkpt lat="45.54897" lon="2.59897">
        <ele>773.86</ele>
        <time>2022-08-16T14:28:38Z</time>
      </trkpt>
      <trkpt lat="45.54898" lon="2.59882">
        <ele>773.91</ele>
        <time>2022-08-16T14:28:39Z</time>
      </trkpt>
      <trkpt lat="45.549" lon="2.59868">
        <ele>772.58</ele>
        <time>2022-08-16T14:28:40Z</time>
      </trkpt>
      <trkpt lat="45.54903" lon="2.59856">
        <ele>772.63</ele>
        <time>2022-08-16T14:28:41Z</time>
      </trkpt>
      <trkpt lat="45.54906" lon="2.59844">
        <ele>772.66</ele>
        <time>2022-08-16T14:28:42Z</time>
      </trkpt>
      <trkpt lat="45.5491" lon="2.59832">
        <ele>772.72</ele>
        <time>2022-08-16T14:28:43Z</time>
      </trkpt>
      <trkpt lat="45.54951" lon="2.59664">
        <ele>768.31</ele>
        <time>2022-08-16T14:28:55Z</time>
      </trkpt>
      <trkpt lat="45.54955" lon="2.5965">
        <ele>768.32</ele>
        <time>2022-08-16T14:28:56Z</time>
      </trkpt>
      <trkpt lat="45.54976" lon="2.59594">
        <ele>766.21</ele>
        <time>2022-08-16T14:29:01Z</time>
      </trkpt>
      <trkpt lat="45.54979" lon="2.59584">
        <ele>766.24</ele>
        <time>2022-08-16T14:29:02Z</time>
      </trkpt>
      <trkpt lat="45.54981" lon="2.59573">
        <ele>765.21</ele>
        <time>2022-08-16T14:29:03Z</time>
      </trkpt>
      <trkpt lat="45.54981" lon="2.59562">
        <ele>765.25</ele>
        <time>2022-08-16T14:29:04Z</time>
      </trkpt>
      <trkpt lat="45.5498" lon="2.59549">
        <ele>765.28</ele>
        <time>2022-08-16T14:29:05Z</time>
      </trkpt>
      <trkpt lat="45.54977" lon="2.59537">
        <ele>764.42</ele>
        <time>2022-08-16T14:29:06Z</time>
      </trkpt>
      <trkpt lat="45.54972" lon="2.59524">
        <ele>764.47</ele>
        <time>2022-08-16T14:29:07Z</time>
      </trkpt>
      <trkpt lat="45.54967" lon="2.59511">
        <ele>764.47</ele>
        <time>2022-08-16T14:29:08Z</time>
      </trkpt>
      <trkpt lat="45.54961" lon="2.59498">
        <ele>764.46</ele>
        <time>2022-08-16T14:29:09Z</time>
      </trkpt>
      <trkpt lat="45.54954" lon="2.59485">
        <ele>764.52</ele>
        <time>2022-08-16T14:29:10Z</time>
      </trkpt>
      <trkpt lat="45.54946" lon="2.59474">
        <ele>763.21</ele>
        <time>2022-08-16T14:29:11Z</time>
      </trkpt>
      <trkpt lat="45.54939" lon="2.59462">
        <ele>763.2</ele>
        <time>2022-08-16T14:29:12Z</time>
      </trkpt>
      <trkpt lat="45.54931" lon="2.5945">
        <ele>762.05</ele>
        <time>2022-08-16T14:29:13Z</time>
      </trkpt>
      <trkpt lat="45.54926" lon="2.59437">
        <ele>762.05</ele>
        <time>2022-08-16T14:29:14Z</time>
      </trkpt>
      <trkpt lat="45.54922" lon="2.59424">
        <ele>761.43</ele>
        <time>2022-08-16T14:29:15Z</time>
      </trkpt>
      <trkpt lat="45.5492" lon="2.5941">
        <ele>760.64</ele>
        <time>2022-08-16T14:29:16Z</time>
      </trkpt>
      <trkpt lat="45.5492" lon="2.59396">
        <ele>760.67</ele>
        <time>2022-08-16T14:29:17Z</time>
      </trkpt>
      <trkpt lat="45.5492" lon="2.59382">
        <ele>760.67</ele>
        <time>2022-08-16T14:29:18Z</time>
      </trkpt>
      <trkpt lat="45.54924" lon="2.59338">
        <ele>759.92</ele>
        <time>2022-08-16T14:29:21Z</time>
      </trkpt>
      <trkpt lat="45.54928" lon="2.59324">
        <ele>759.99</ele>
        <time>2022-08-16T14:29:22Z</time>
      </trkpt>
      <trkpt lat="45.54933" lon="2.59311">
        <ele>758.87</ele>
        <time>2022-08-16T14:29:23Z</time>
      </trkpt>
      <trkpt lat="45.54939" lon="2.593">
        <ele>758.87</ele>
        <time>2022-08-16T14:29:24Z</time>
      </trkpt>
      <trkpt lat="45.54947" lon="2.59291">
        <ele>758.88</ele>
        <time>2022-08-16T14:29:25Z</time>
      </trkpt>
      <trkpt lat="45.54955" lon="2.59283">
        <ele>758.88</ele>
        <time>2022-08-16T14:29:26Z</time>
      </trkpt>
      <trkpt lat="45.55" lon="2.59229">
        <ele>759.13</ele>
        <time>2022-08-16T14:29:32Z</time>
      </trkpt>
      <trkpt lat="45.55004" lon="2.59218">
        <ele>759.16</ele>
        <time>2022-08-16T14:29:33Z</time>
      </trkpt>
      <trkpt lat="45.55007" lon="2.59205">
        <ele>759.19</ele>
        <time>2022-08-16T14:29:34Z</time>
      </trkpt>
      <trkpt lat="45.55007" lon="2.59191">
        <ele>759.23</ele>
        <time>2022-08-16T14:29:35Z</time>
      </trkpt>
      <trkpt lat="45.55004" lon="2.59178">
        <ele>759.29</ele>
        <time>2022-08-16T14:29:36Z</time>
      </trkpt>
      <trkpt lat="45.55" lon="2.59166">
        <ele>759.26</ele>
        <time>2022-08-16T14:29:37Z</time>
      </trkpt>
      <trkpt lat="45.54994" lon="2.59155">
        <ele>759.33</ele>
        <time>2022-08-16T14:29:38Z</time>
      </trkpt>
      <trkpt lat="45.54987" lon="2.59145">
        <ele>758.22</ele>
        <time>2022-08-16T14:29:39Z</time>
      </trkpt>
      <trkpt lat="45.54978" lon="2.59135">
        <ele>758.23</ele>
        <time>2022-08-16T14:29:40Z</time>
      </trkpt>
      <trkpt lat="45.54961" lon="2.59118">
        <ele>757.43</ele>
        <time>2022-08-16T14:29:42Z</time>
      </trkpt>
      <trkpt lat="45.54951" lon="2.59111">
        <ele>757.42</ele>
        <time>2022-08-16T14:29:43Z</time>
      </trkpt>
      <trkpt lat="45.5494" lon="2.59106">
        <ele>755.97</ele>
        <time>2022-08-16T14:29:44Z</time>
      </trkpt>
      <trkpt lat="45.5493" lon="2.59102">
        <ele>755.98</ele>
        <time>2022-08-16T14:29:45Z</time>
      </trkpt>
      <trkpt lat="45.54919" lon="2.59099">
        <ele>754.6</ele>
        <time>2022-08-16T14:29:46Z</time>
      </trkpt>
      <trkpt lat="45.54908" lon="2.59096">
        <ele>754.62</ele>
        <time>2022-08-16T14:29:47Z</time>
      </trkpt>
      <trkpt lat="45.54875" lon="2.59087">
        <ele>752.9</ele>
        <time>2022-08-16T14:29:50Z</time>
      </trkpt>
      <trkpt lat="45.54844" lon="2.59078">
        <ele>750.61</ele>
        <time>2022-08-16T14:29:53Z</time>
      </trkpt>
      <trkpt lat="45.54815" lon="2.59071">
        <ele>748.61</ele>
        <time>2022-08-16T14:29:56Z</time>
      </trkpt>
      <trkpt lat="45.54797" lon="2.59064">
        <ele>747.19</ele>
        <time>2022-08-16T14:29:58Z</time>
      </trkpt>
      <trkpt lat="45.5479" lon="2.59059">
        <ele>747.19</ele>
        <time>2022-08-16T14:29:59Z</time>
      </trkpt>
      <trkpt lat="45.54783" lon="2.5905">
        <ele>747.18</ele>
        <time>2022-08-16T14:30:00Z</time>
      </trkpt>
      <trkpt lat="45.54777" lon="2.59039">
        <ele>747.16</ele>
        <time>2022-08-16T14:30:01Z</time>
      </trkpt>
      <trkpt lat="45.54772" lon="2.59027">
        <ele>746.26</ele>
        <time>2022-08-16T14:30:02Z</time>
      </trkpt>
      <trkpt lat="45.5477" lon="2.59012">
        <ele>746.26</ele>
        <time>2022-08-16T14:30:03Z</time>
      </trkpt>
      <trkpt lat="45.54768" lon="2.58997">
        <ele>746.38</ele>
        <time>2022-08-16T14:30:04Z</time>
      </trkpt>
      <trkpt lat="45.54768" lon="2.58981">
        <ele>746.4</ele>
        <time>2022-08-16T14:30:05Z</time>
      </trkpt>
      <trkpt lat="45.54769" lon="2.58966">
        <ele>746.88</ele>
        <time>2022-08-16T14:30:06Z</time>
      </trkpt>
      <trkpt lat="45.54771" lon="2.58952">
        <ele>746.88</ele>
        <time>2022-08-16T14:30:07Z</time>
      </trkpt>
      <trkpt lat="45.54775" lon="2.58939">
        <ele>746.91</ele>
        <time>2022-08-16T14:30:08Z</time>
      </trkpt>
      <trkpt lat="45.54781" lon="2.58927">
        <ele>749.18</ele>
        <time>2022-08-16T14:30:09Z</time>
      </trkpt>
      <trkpt lat="45.54788" lon="2.58917">
        <ele>750.02</ele>
        <time>2022-08-16T14:30:10Z</time>
      </trkpt>
      <trkpt lat="45.54796" lon="2.58909">
        <ele>750.07</ele>
        <time>2022-08-16T14:30:11Z</time>
      </trkpt>
      <trkpt lat="45.54805" lon="2.58904">
        <ele>750.11</ele>
        <time>2022-08-16T14:30:12Z</time>
      </trkpt>
      <trkpt lat="45.54814" lon="2.58899">
        <ele>751.37</ele>
        <time>2022-08-16T14:30:13Z</time>
      </trkpt>
      <trkpt lat="45.54823" lon="2.58895">
        <ele>752.28</ele>
        <time>2022-08-16T14:30:14Z</time>
      </trkpt>
      <trkpt lat="45.54832" lon="2.58891">
        <ele>752.36</ele>
        <time>2022-08-16T14:30:15Z</time>
      </trkpt>
      <trkpt lat="45.54873" lon="2.58862">
        <ele>754.65</ele>
        <time>2022-08-16T14:30:20Z</time>
      </trkpt>
      <trkpt lat="45.54895" lon="2.5884">
        <ele>755.95</ele>
        <time>2022-08-16T14:30:23Z</time>
      </trkpt>
      <trkpt lat="45.54919" lon="2.58819">
        <ele>757.38</ele>
        <time>2022-08-16T14:30:26Z</time>
      </trkpt>
      <trkpt lat="45.54953" lon="2.58799">
        <ele>759.62</ele>
        <time>2022-08-16T14:30:30Z</time>
      </trkpt>
      <trkpt lat="45.54969" lon="2.58786">
        <ele>761.01</ele>
        <time>2022-08-16T14:30:32Z</time>
      </trkpt>
      <trkpt lat="45.54977" lon="2.58778">
        <ele>761.06</ele>
        <time>2022-08-16T14:30:33Z</time>
      </trkpt>
      <trkpt lat="45.54983" lon="2.58769">
        <ele>761.09</ele>
        <time>2022-08-16T14:30:34Z</time>
      </trkpt>
      <trkpt lat="45.54989" lon="2.58758">
        <ele>761.11</ele>
        <time>2022-08-16T14:30:35Z</time>
      </trkpt>
      <trkpt lat="45.54994" lon="2.58746">
        <ele>762.11</ele>
        <time>2022-08-16T14:30:36Z</time>
      </trkpt>
      <trkpt lat="45.54998" lon="2.58733">
        <ele>762.14</ele>
        <time>2022-08-16T14:30:37Z</time>
      </trkpt>
      <trkpt lat="45.55" lon="2.5872">
        <ele>762.2</ele>
        <time>2022-08-16T14:30:38Z</time>
      </trkpt>
      <trkpt lat="45.55" lon="2.58706">
        <ele>762.22</ele>
        <time>2022-08-16T14:30:39Z</time>
      </trkpt>
      <trkpt lat="45.54999" lon="2.58692">
        <ele>762.26</ele>
        <time>2022-08-16T14:30:40Z</time>
      </trkpt>
      <trkpt lat="45.54997" lon="2.58678">
        <ele>762.3</ele>
        <time>2022-08-16T14:30:41Z</time>
      </trkpt>
      <trkpt lat="45.54994" lon="2.58665">
        <ele>762.31</ele>
        <time>2022-08-16T14:30:42Z</time>
      </trkpt>
      <trkpt lat="45.54991" lon="2.58651">
        <ele>762.34</ele>
        <time>2022-08-16T14:30:43Z</time>
      </trkpt>
      <trkpt lat="45.5498" lon="2.58609">
        <ele>760</ele>
        <time>2022-08-16T14:30:46Z</time>
      </trkpt>
      <trkpt lat="45.54973" lon="2.58579">
        <ele>758.73</ele>
        <time>2022-08-16T14:30:48Z</time>
      </trkpt>
      <trkpt lat="45.54962" lon="2.58533">
        <ele>757.28</ele>
        <time>2022-08-16T14:30:51Z</time>
      </trkpt>
      <trkpt lat="45.5495" lon="2.58486">
        <ele>755.7</ele>
        <time>2022-08-16T14:30:54Z</time>
      </trkpt>
      <trkpt lat="45.54928" lon="2.58385">
        <ele>751.88</ele>
        <time>2022-08-16T14:31:00Z</time>
      </trkpt>
      <trkpt lat="45.54927" lon="2.58368">
        <ele>751.94</ele>
        <time>2022-08-16T14:31:01Z</time>
      </trkpt>
      <trkpt lat="45.54926" lon="2.58351">
        <ele>752.42</ele>
        <time>2022-08-16T14:31:02Z</time>
      </trkpt>
      <trkpt lat="45.54927" lon="2.58334">
        <ele>752.42</ele>
        <time>2022-08-16T14:31:03Z</time>
      </trkpt>
      <trkpt lat="45.54929" lon="2.58317">
        <ele>752.41</ele>
        <time>2022-08-16T14:31:04Z</time>
      </trkpt>
      <trkpt lat="45.54931" lon="2.583">
        <ele>752.44</ele>
        <time>2022-08-16T14:31:05Z</time>
      </trkpt>
      <trkpt lat="45.54935" lon="2.58284">
        <ele>752.45</ele>
        <time>2022-08-16T14:31:06Z</time>
      </trkpt>
      <trkpt lat="45.54952" lon="2.58206">
        <ele>755.31</ele>
        <time>2022-08-16T14:31:11Z</time>
      </trkpt>
      <trkpt lat="45.54953" lon="2.5819">
        <ele>755.32</ele>
        <time>2022-08-16T14:31:12Z</time>
      </trkpt>
      <trkpt lat="45.54956" lon="2.58137">
        <ele>756.25</ele>
        <time>2022-08-16T14:31:16Z</time>
      </trkpt>
      <trkpt lat="45.54959" lon="2.5812">
        <ele>756.33</ele>
        <time>2022-08-16T14:31:18Z</time>
      </trkpt>
      <trkpt lat="45.54961" lon="2.58113">
        <ele>756.39</ele>
        <time>2022-08-16T14:31:19Z</time>
      </trkpt>
      <trkpt lat="45.54965" lon="2.58108">
        <ele>756.4</ele>
        <time>2022-08-16T14:31:20Z</time>
      </trkpt>
      <trkpt lat="45.5497" lon="2.58104">
        <ele>756.44</ele>
        <time>2022-08-16T14:31:21Z</time>
      </trkpt>
      <trkpt lat="45.54975" lon="2.581">
        <ele>756.44</ele>
        <time>2022-08-16T14:31:22Z</time>
      </trkpt>
      <trkpt lat="45.54982" lon="2.58095">
        <ele>756.51</ele>
        <time>2022-08-16T14:31:23Z</time>
      </trkpt>
      <trkpt lat="45.55034" lon="2.58049">
        <ele>759.01</ele>
        <time>2022-08-16T14:31:30Z</time>
      </trkpt>
      <trkpt lat="45.55074" lon="2.58013">
        <ele>760.37</ele>
        <time>2022-08-16T14:31:35Z</time>
      </trkpt>
      <trkpt lat="45.55128" lon="2.57968">
        <ele>763.66</ele>
        <time>2022-08-16T14:31:42Z</time>
      </trkpt>
      <trkpt lat="45.55255" lon="2.57853">
        <ele>764.74</ele>
        <time>2022-08-16T14:32:00Z</time>
      </trkpt>
      <trkpt lat="45.55264" lon="2.57837">
        <ele>764.78</ele>
        <time>2022-08-16T14:32:02Z</time>
      </trkpt>
      <trkpt lat="45.55267" lon="2.57827">
        <ele>762.33</ele>
        <time>2022-08-16T14:32:03Z</time>
      </trkpt>
      <trkpt lat="45.5527" lon="2.57817">
        <ele>762.38</ele>
        <time>2022-08-16T14:32:04Z</time>
      </trkpt>
      <trkpt lat="45.55282" lon="2.57775">
        <ele>760.11</ele>
        <time>2022-08-16T14:32:08Z</time>
      </trkpt>
      <trkpt lat="45.55286" lon="2.57765">
        <ele>760.11</ele>
        <time>2022-08-16T14:32:09Z</time>
      </trkpt>
      <trkpt lat="45.5529" lon="2.57757">
        <ele>760.16</ele>
        <time>2022-08-16T14:32:10Z</time>
      </trkpt>
      <trkpt lat="45.55296" lon="2.5775">
        <ele>758.78</ele>
        <time>2022-08-16T14:32:11Z</time>
      </trkpt>
      <trkpt lat="45.55303" lon="2.57745">
        <ele>758.79</ele>
        <time>2022-08-16T14:32:12Z</time>
      </trkpt>
      <trkpt lat="45.55309" lon="2.57741">
        <ele>757.5</ele>
        <time>2022-08-16T14:32:13Z</time>
      </trkpt>
      <trkpt lat="45.55316" lon="2.57739">
        <ele>757.59</ele>
        <time>2022-08-16T14:32:14Z</time>
      </trkpt>
      <trkpt lat="45.55323" lon="2.57737">
        <ele>756.31</ele>
        <time>2022-08-16T14:32:15Z</time>
      </trkpt>
      <trkpt lat="45.55337" lon="2.57734">
        <ele>755.55</ele>
        <time>2022-08-16T14:32:17Z</time>
      </trkpt>
      <trkpt lat="45.55408" lon="2.57712">
        <ele>752.12</ele>
        <time>2022-08-16T14:32:25Z</time>
      </trkpt>
      <trkpt lat="45.55502" lon="2.57638">
        <ele>750.43</ele>
        <time>2022-08-16T14:32:37Z</time>
      </trkpt>
      <trkpt lat="45.55562" lon="2.57545">
        <ele>747.2</ele>
        <time>2022-08-16T14:32:47Z</time>
      </trkpt>
      <trkpt lat="45.55599" lon="2.57491">
        <ele>746.55</ele>
        <time>2022-08-16T14:32:53Z</time>
      </trkpt>
      <trkpt lat="45.55607" lon="2.57486">
        <ele>746.56</ele>
        <time>2022-08-16T14:32:54Z</time>
      </trkpt>
      <trkpt lat="45.55614" lon="2.57483">
        <ele>746.57</ele>
        <time>2022-08-16T14:32:55Z</time>
      </trkpt>
      <trkpt lat="45.55621" lon="2.57482">
        <ele>746.6</ele>
        <time>2022-08-16T14:32:56Z</time>
      </trkpt>
      <trkpt lat="45.55629" lon="2.57481">
        <ele>746.59</ele>
        <time>2022-08-16T14:32:57Z</time>
      </trkpt>
      <trkpt lat="45.55636" lon="2.57482">
        <ele>746.65</ele>
        <time>2022-08-16T14:32:58Z</time>
      </trkpt>
      <trkpt lat="45.55644" lon="2.57482">
        <ele>746.71</ele>
        <time>2022-08-16T14:32:59Z</time>
      </trkpt>
      <trkpt lat="45.55651" lon="2.57482">
        <ele>746.79</ele>
        <time>2022-08-16T14:33:00Z</time>
      </trkpt>
      <trkpt lat="45.55657" lon="2.5748">
        <ele>746.85</ele>
        <time>2022-08-16T14:33:01Z</time>
      </trkpt>
      <trkpt lat="45.55662" lon="2.57476">
        <ele>746.88</ele>
        <time>2022-08-16T14:33:02Z</time>
      </trkpt>
      <trkpt lat="45.55666" lon="2.57471">
        <ele>746.94</ele>
        <time>2022-08-16T14:33:03Z</time>
      </trkpt>
      <trkpt lat="45.55669" lon="2.57465">
        <ele>746.96</ele>
        <time>2022-08-16T14:33:04Z</time>
      </trkpt>
      <trkpt lat="45.55672" lon="2.57457">
        <ele>747</ele>
        <time>2022-08-16T14:33:05Z</time>
      </trkpt>
      <trkpt lat="45.55674" lon="2.57448">
        <ele>747.04</ele>
        <time>2022-08-16T14:33:06Z</time>
      </trkpt>
      <trkpt lat="45.55675" lon="2.5744">
        <ele>747.08</ele>
        <time>2022-08-16T14:33:07Z</time>
      </trkpt>
      <trkpt lat="45.55674" lon="2.57433">
        <ele>747.08</ele>
        <time>2022-08-16T14:33:08Z</time>
      </trkpt>
      <trkpt lat="45.55673" lon="2.57426">
        <ele>747.11</ele>
        <time>2022-08-16T14:33:09Z</time>
      </trkpt>
      <trkpt lat="45.55671" lon="2.57418">
        <ele>747.14</ele>
        <time>2022-08-16T14:33:10Z</time>
      </trkpt>
      <trkpt lat="45.55668" lon="2.5741">
        <ele>747.2</ele>
        <time>2022-08-16T14:33:11Z</time>
      </trkpt>
      <trkpt lat="45.5565" lon="2.57343">
        <ele>747.26</ele>
        <time>2022-08-16T14:33:17Z</time>
      </trkpt>
      <trkpt lat="45.55649" lon="2.57331">
        <ele>747.28</ele>
        <time>2022-08-16T14:33:18Z</time>
      </trkpt>
      <trkpt lat="45.55649" lon="2.5732">
        <ele>747.29</ele>
        <time>2022-08-16T14:33:19Z</time>
      </trkpt>
      <trkpt lat="45.5565" lon="2.57308">
        <ele>745.83</ele>
        <time>2022-08-16T14:33:20Z</time>
      </trkpt>
      <trkpt lat="45.55652" lon="2.57297">
        <ele>745.84</ele>
        <time>2022-08-16T14:33:21Z</time>
      </trkpt>
      <trkpt lat="45.55698" lon="2.57091">
        <ele>742.95</ele>
        <time>2022-08-16T14:33:39Z</time>
      </trkpt>
      <trkpt lat="45.55739" lon="2.56903">
        <ele>740.13</ele>
        <time>2022-08-16T14:33:57Z</time>
      </trkpt>
      <trkpt lat="45.55762" lon="2.56713">
        <ele>739.05</ele>
        <time>2022-08-16T14:34:16Z</time>
      </trkpt>
      <trkpt lat="45.55806" lon="2.56576">
        <ele>739.53</ele>
        <time>2022-08-16T14:34:30Z</time>
      </trkpt>
      <trkpt lat="45.55843" lon="2.56458">
        <ele>739.84</ele>
        <time>2022-08-16T14:34:43Z</time>
      </trkpt>
      <trkpt lat="45.55855" lon="2.56316">
        <ele>739.36</ele>
        <time>2022-08-16T14:34:57Z</time>
      </trkpt>
      <trkpt lat="45.55854" lon="2.56224">
        <ele>738.22</ele>
        <time>2022-08-16T14:35:06Z</time>
      </trkpt>
      <trkpt lat="45.55858" lon="2.56198">
        <ele>738.27</ele>
        <time>2022-08-16T14:35:09Z</time>
      </trkpt>
      <trkpt lat="45.5586" lon="2.56191">
        <ele>738.3</ele>
        <time>2022-08-16T14:35:10Z</time>
      </trkpt>
      <trkpt lat="45.55863" lon="2.56184">
        <ele>737.4</ele>
        <time>2022-08-16T14:35:11Z</time>
      </trkpt>
      <trkpt lat="45.55883" lon="2.56136">
        <ele>736.75</ele>
        <time>2022-08-16T14:35:17Z</time>
      </trkpt>
      <trkpt lat="45.55885" lon="2.56126">
        <ele>736.76</ele>
        <time>2022-08-16T14:35:18Z</time>
      </trkpt>
      <trkpt lat="45.55886" lon="2.56117">
        <ele>736.81</ele>
        <time>2022-08-16T14:35:19Z</time>
      </trkpt>
      <trkpt lat="45.55885" lon="2.56107">
        <ele>736.81</ele>
        <time>2022-08-16T14:35:20Z</time>
      </trkpt>
      <trkpt lat="45.55885" lon="2.56097">
        <ele>735.89</ele>
        <time>2022-08-16T14:35:21Z</time>
      </trkpt>
      <trkpt lat="45.55884" lon="2.56088">
        <ele>735.92</ele>
        <time>2022-08-16T14:35:22Z</time>
      </trkpt>
      <trkpt lat="45.55861" lon="2.55969">
        <ele>733.46</ele>
        <time>2022-08-16T14:35:35Z</time>
      </trkpt>
      <trkpt lat="45.55835" lon="2.5591">
        <ele>730.48</ele>
        <time>2022-08-16T14:35:43Z</time>
      </trkpt>
      <trkpt lat="45.55834" lon="2.55903">
        <ele>730.48</ele>
        <time>2022-08-16T14:35:44Z</time>
      </trkpt>
      <trkpt lat="45.55834" lon="2.55896">
        <ele>729.89</ele>
        <time>2022-08-16T14:35:45Z</time>
      </trkpt>
      <trkpt lat="45.55836" lon="2.55857">
        <ele>727.62</ele>
        <time>2022-08-16T14:35:50Z</time>
      </trkpt>
      <trkpt lat="45.55834" lon="2.55828">
        <ele>726.57</ele>
        <time>2022-08-16T14:35:54Z</time>
      </trkpt>
      <trkpt lat="45.55833" lon="2.55822">
        <ele>725.72</ele>
        <time>2022-08-16T14:35:55Z</time>
      </trkpt>
      <trkpt lat="45.55831" lon="2.55818">
        <ele>725.67</ele>
        <time>2022-08-16T14:35:56Z</time>
      </trkpt>
      <trkpt lat="45.55829" lon="2.55815">
        <ele>725.66</ele>
        <time>2022-08-16T14:35:57Z</time>
      </trkpt>
      <trkpt lat="45.55825" lon="2.55812">
        <ele>725.74</ele>
        <time>2022-08-16T14:35:58Z</time>
      </trkpt>
      <trkpt lat="45.55821" lon="2.55809">
        <ele>725.78</ele>
        <time>2022-08-16T14:35:59Z</time>
      </trkpt>
      <trkpt lat="45.55809" lon="2.55801">
        <ele>724.54</ele>
        <time>2022-08-16T14:36:02Z</time>
      </trkpt>
      <trkpt lat="45.55805" lon="2.55799">
        <ele>724.52</ele>
        <time>2022-08-16T14:36:03Z</time>
      </trkpt>
      <trkpt lat="45.55802" lon="2.55799">
        <ele>723.41</ele>
        <time>2022-08-16T14:36:04Z</time>
      </trkpt>
      <trkpt lat="45.558" lon="2.55798">
        <ele>723.45</ele>
        <time>2022-08-16T14:36:05Z</time>
      </trkpt>
      <trkpt lat="45.55798" lon="2.55799">
        <ele>723.77</ele>
        <time>2022-08-16T14:36:09Z</time>
      </trkpt>
      <trkpt lat="45.55795" lon="2.558">
        <ele>723.58</ele>
        <time>2022-08-16T14:36:10Z</time>
      </trkpt>
      <trkpt lat="45.55763" lon="2.55804">
        <ele>723.17</ele>
        <time>2022-08-16T14:36:18Z</time>
      </trkpt>
      <trkpt lat="45.55761" lon="2.55806">
        <ele>722.18</ele>
        <time>2022-08-16T14:36:19Z</time>
      </trkpt>
      <trkpt lat="45.55761" lon="2.55806">
        <ele>722.48</ele>
        <time>2022-08-16T14:36:28Z</time>
      </trkpt>
      <trkpt lat="45.55762" lon="2.55806">
        <ele>722.44</ele>
        <time>2022-08-16T14:36:29Z</time>
      </trkpt>
      <trkpt lat="45.55765" lon="2.55807">
        <ele>722.47</ele>
        <time>2022-08-16T14:36:30Z</time>
      </trkpt>
      <trkpt lat="45.55792" lon="2.55802">
        <ele>724.97</ele>
        <time>2022-08-16T14:36:35Z</time>
      </trkpt>
      <trkpt lat="45.55798" lon="2.55803">
        <ele>724.99</ele>
        <time>2022-08-16T14:36:36Z</time>
      </trkpt>
      <trkpt lat="45.55804" lon="2.55804">
        <ele>725.02</ele>
        <time>2022-08-16T14:36:37Z</time>
      </trkpt>
      <trkpt lat="45.55809" lon="2.55807">
        <ele>725.03</ele>
        <time>2022-08-16T14:36:38Z</time>
      </trkpt>
      <trkpt lat="45.55814" lon="2.55811">
        <ele>725.06</ele>
        <time>2022-08-16T14:36:39Z</time>
      </trkpt>
      <trkpt lat="45.55819" lon="2.55814">
        <ele>725.08</ele>
        <time>2022-08-16T14:36:40Z</time>
      </trkpt>
      <trkpt lat="45.55827" lon="2.55822">
        <ele>725.99</ele>
        <time>2022-08-16T14:36:42Z</time>
      </trkpt>
      <trkpt lat="45.5583" lon="2.55826">
        <ele>726.04</ele>
        <time>2022-08-16T14:36:43Z</time>
      </trkpt>
      <trkpt lat="45.55832" lon="2.55832">
        <ele>726.05</ele>
        <time>2022-08-16T14:36:44Z</time>
      </trkpt>
      <trkpt lat="45.55833" lon="2.55838">
        <ele>727.12</ele>
        <time>2022-08-16T14:36:45Z</time>
      </trkpt>
      <trkpt lat="45.55834" lon="2.55845">
        <ele>727.14</ele>
        <time>2022-08-16T14:36:46Z</time>
      </trkpt>
      <trkpt lat="45.55835" lon="2.55862">
        <ele>728.57</ele>
        <time>2022-08-16T14:36:48Z</time>
      </trkpt>
      <trkpt lat="45.55835" lon="2.5588">
        <ele>729.94</ele>
        <time>2022-08-16T14:36:50Z</time>
      </trkpt>
      <trkpt lat="45.55833" lon="2.55888">
        <ele>730.02</ele>
        <time>2022-08-16T14:36:51Z</time>
      </trkpt>
      <trkpt lat="45.55832" lon="2.55906">
        <ele>730.8</ele>
        <time>2022-08-16T14:36:53Z</time>
      </trkpt>
      <trkpt lat="45.55832" lon="2.55914">
        <ele>730.85</ele>
        <time>2022-08-16T14:36:54Z</time>
      </trkpt>
      <trkpt lat="45.55834" lon="2.55921">
        <ele>730.92</ele>
        <time>2022-08-16T14:36:55Z</time>
      </trkpt>
      <trkpt lat="45.55836" lon="2.55928">
        <ele>731.9</ele>
        <time>2022-08-16T14:36:56Z</time>
      </trkpt>
      <trkpt lat="45.5584" lon="2.55936">
        <ele>732.75</ele>
        <time>2022-08-16T14:36:57Z</time>
      </trkpt>
      <trkpt lat="45.55844" lon="2.55943">
        <ele>732.77</ele>
        <time>2022-08-16T14:36:58Z</time>
      </trkpt>
      <trkpt lat="45.55848" lon="2.55951">
        <ele>732.81</ele>
        <time>2022-08-16T14:36:59Z</time>
      </trkpt>
      <trkpt lat="45.55852" lon="2.55959">
        <ele>734.38</ele>
        <time>2022-08-16T14:37:00Z</time>
      </trkpt>
      <trkpt lat="45.55855" lon="2.55969">
        <ele>734.49</ele>
        <time>2022-08-16T14:37:01Z</time>
      </trkpt>
      <trkpt lat="45.55862" lon="2.5599">
        <ele>734.52</ele>
        <time>2022-08-16T14:37:03Z</time>
      </trkpt>
      <trkpt lat="45.55883" lon="2.56122">
        <ele>737.47</ele>
        <time>2022-08-16T14:37:14Z</time>
      </trkpt>
      <trkpt lat="45.55882" lon="2.56133">
        <ele>738.63</ele>
        <time>2022-08-16T14:37:15Z</time>
      </trkpt>
      <trkpt lat="45.55881" lon="2.56144">
        <ele>738.65</ele>
        <time>2022-08-16T14:37:16Z</time>
      </trkpt>
      <trkpt lat="45.55878" lon="2.56153">
        <ele>738.68</ele>
        <time>2022-08-16T14:37:17Z</time>
      </trkpt>
      <trkpt lat="45.55875" lon="2.56162">
        <ele>738.69</ele>
        <time>2022-08-16T14:37:18Z</time>
      </trkpt>
      <trkpt lat="45.55871" lon="2.56171">
        <ele>739.58</ele>
        <time>2022-08-16T14:37:19Z</time>
      </trkpt>
      <trkpt lat="45.55867" lon="2.56179">
        <ele>739.63</ele>
        <time>2022-08-16T14:37:20Z</time>
      </trkpt>
      <trkpt lat="45.55854" lon="2.56214">
        <ele>740.56</ele>
        <time>2022-08-16T14:37:24Z</time>
      </trkpt>
      <trkpt lat="45.55852" lon="2.56225">
        <ele>740.59</ele>
        <time>2022-08-16T14:37:25Z</time>
      </trkpt>
      <trkpt lat="45.55851" lon="2.56236">
        <ele>740.63</ele>
        <time>2022-08-16T14:37:26Z</time>
      </trkpt>
      <trkpt lat="45.55852" lon="2.56345">
        <ele>743.65</ele>
        <time>2022-08-16T14:37:35Z</time>
      </trkpt>
      <trkpt lat="45.55849" lon="2.56421">
        <ele>744.65</ele>
        <time>2022-08-16T14:37:41Z</time>
      </trkpt>
      <trkpt lat="45.55813" lon="2.56567">
        <ele>745.8</ele>
        <time>2022-08-16T14:37:53Z</time>
      </trkpt>
      <trkpt lat="45.55766" lon="2.56694">
        <ele>746.07</ele>
        <time>2022-08-16T14:38:04Z</time>
      </trkpt>
      <trkpt lat="45.55741" lon="2.56857">
        <ele>746.42</ele>
        <time>2022-08-16T14:38:18Z</time>
      </trkpt>
      <trkpt lat="45.55706" lon="2.57048">
        <ele>748.84</ele>
        <time>2022-08-16T14:38:34Z</time>
      </trkpt>
      <trkpt lat="45.55678" lon="2.57173">
        <ele>751.93</ele>
        <time>2022-08-16T14:38:44Z</time>
      </trkpt>
      <trkpt lat="45.55645" lon="2.57326">
        <ele>754.23</ele>
        <time>2022-08-16T14:38:56Z</time>
      </trkpt>
      <trkpt lat="45.55644" lon="2.57339">
        <ele>754.27</ele>
        <time>2022-08-16T14:38:57Z</time>
      </trkpt>
      <trkpt lat="45.55645" lon="2.57351">
        <ele>755.59</ele>
        <time>2022-08-16T14:38:58Z</time>
      </trkpt>
      <trkpt lat="45.55647" lon="2.57364">
        <ele>755.62</ele>
        <time>2022-08-16T14:38:59Z</time>
      </trkpt>
      <trkpt lat="45.5565" lon="2.57376">
        <ele>755.67</ele>
        <time>2022-08-16T14:39:00Z</time>
      </trkpt>
      <trkpt lat="45.55663" lon="2.57422">
        <ele>757.54</ele>
        <time>2022-08-16T14:39:04Z</time>
      </trkpt>
      <trkpt lat="45.55665" lon="2.57432">
        <ele>757.59</ele>
        <time>2022-08-16T14:39:05Z</time>
      </trkpt>
      <trkpt lat="45.55666" lon="2.57442">
        <ele>757.61</ele>
        <time>2022-08-16T14:39:06Z</time>
      </trkpt>
      <trkpt lat="45.55666" lon="2.57452">
        <ele>758.55</ele>
        <time>2022-08-16T14:39:07Z</time>
      </trkpt>
      <trkpt lat="45.55665" lon="2.57461">
        <ele>758.55</ele>
        <time>2022-08-16T14:39:08Z</time>
      </trkpt>
      <trkpt lat="45.55663" lon="2.57469">
        <ele>758.6</ele>
        <time>2022-08-16T14:39:09Z</time>
      </trkpt>
      <trkpt lat="45.5566" lon="2.57476">
        <ele>758.65</ele>
        <time>2022-08-16T14:39:10Z</time>
      </trkpt>
      <trkpt lat="45.55656" lon="2.57482">
        <ele>758.64</ele>
        <time>2022-08-16T14:39:11Z</time>
      </trkpt>
      <trkpt lat="45.5565" lon="2.57486">
        <ele>758.67</ele>
        <time>2022-08-16T14:39:12Z</time>
      </trkpt>
      <trkpt lat="45.55644" lon="2.57487">
        <ele>758.57</ele>
        <time>2022-08-16T14:39:13Z</time>
      </trkpt>
      <trkpt lat="45.55638" lon="2.57488">
        <ele>758.74</ele>
        <time>2022-08-16T14:39:14Z</time>
      </trkpt>
      <trkpt lat="45.55632" lon="2.57487">
        <ele>758.79</ele>
        <time>2022-08-16T14:39:15Z</time>
      </trkpt>
      <trkpt lat="45.55625" lon="2.57487">
        <ele>758.75</ele>
        <time>2022-08-16T14:39:16Z</time>
      </trkpt>
      <trkpt lat="45.55612" lon="2.57488">
        <ele>758.68</ele>
        <time>2022-08-16T14:39:18Z</time>
      </trkpt>
      <trkpt lat="45.55605" lon="2.5749">
        <ele>758.68</ele>
        <time>2022-08-16T14:39:19Z</time>
      </trkpt>
      <trkpt lat="45.55598" lon="2.57493">
        <ele>758.7</ele>
        <time>2022-08-16T14:39:20Z</time>
      </trkpt>
      <trkpt lat="45.55592" lon="2.57497">
        <ele>758.72</ele>
        <time>2022-08-16T14:39:21Z</time>
      </trkpt>
      <trkpt lat="45.55587" lon="2.57503">
        <ele>758.74</ele>
        <time>2022-08-16T14:39:22Z</time>
      </trkpt>
      <trkpt lat="45.55581" lon="2.5751">
        <ele>758.75</ele>
        <time>2022-08-16T14:39:23Z</time>
      </trkpt>
      <trkpt lat="45.55577" lon="2.57517">
        <ele>758.78</ele>
        <time>2022-08-16T14:39:24Z</time>
      </trkpt>
      <trkpt lat="45.55572" lon="2.57525">
        <ele>758.79</ele>
        <time>2022-08-16T14:39:25Z</time>
      </trkpt>
      <trkpt lat="45.5548" lon="2.57662">
        <ele>761.72</ele>
        <time>2022-08-16T14:39:41Z</time>
      </trkpt>
      <trkpt lat="45.55382" lon="2.57726">
        <ele>763.96</ele>
        <time>2022-08-16T14:39:53Z</time>
      </trkpt>
      <trkpt lat="45.55334" lon="2.57739">
        <ele>766.37</ele>
        <time>2022-08-16T14:39:59Z</time>
      </trkpt>
      <trkpt lat="45.55309" lon="2.57744">
        <ele>767.9</ele>
        <time>2022-08-16T14:40:02Z</time>
      </trkpt>
      <trkpt lat="45.553" lon="2.57747">
        <ele>769.13</ele>
        <time>2022-08-16T14:40:03Z</time>
      </trkpt>
      <trkpt lat="45.55293" lon="2.57752">
        <ele>769.19</ele>
        <time>2022-08-16T14:40:04Z</time>
      </trkpt>
      <trkpt lat="45.55286" lon="2.57759">
        <ele>770.29</ele>
        <time>2022-08-16T14:40:05Z</time>
      </trkpt>
      <trkpt lat="45.55281" lon="2.57768">
        <ele>771.67</ele>
        <time>2022-08-16T14:40:06Z</time>
      </trkpt>
      <trkpt lat="45.55276" lon="2.57778">
        <ele>771.67</ele>
        <time>2022-08-16T14:40:07Z</time>
      </trkpt>
      <trkpt lat="45.55272" lon="2.57789">
        <ele>772.03</ele>
        <time>2022-08-16T14:40:08Z</time>
      </trkpt>
      <trkpt lat="45.55269" lon="2.578">
        <ele>773.28</ele>
        <time>2022-08-16T14:40:09Z</time>
      </trkpt>
      <trkpt lat="45.55267" lon="2.57812">
        <ele>774.33</ele>
        <time>2022-08-16T14:40:10Z</time>
      </trkpt>
      <trkpt lat="45.55264" lon="2.57824">
        <ele>774.35</ele>
        <time>2022-08-16T14:40:11Z</time>
      </trkpt>
      <trkpt lat="45.5526" lon="2.57835">
        <ele>775.44</ele>
        <time>2022-08-16T14:40:12Z</time>
      </trkpt>
      <trkpt lat="45.55255" lon="2.57846">
        <ele>776</ele>
        <time>2022-08-16T14:40:13Z</time>
      </trkpt>
      <trkpt lat="45.55249" lon="2.57856">
        <ele>776.02</ele>
        <time>2022-08-16T14:40:14Z</time>
      </trkpt>
      <trkpt lat="45.55243" lon="2.57865">
        <ele>776.05</ele>
        <time>2022-08-16T14:40:15Z</time>
      </trkpt>
      <trkpt lat="45.55236" lon="2.57873">
        <ele>776.06</ele>
        <time>2022-08-16T14:40:16Z</time>
      </trkpt>
      <trkpt lat="45.55229" lon="2.5788">
        <ele>776.14</ele>
        <time>2022-08-16T14:40:17Z</time>
      </trkpt>
      <trkpt lat="45.55221" lon="2.57887">
        <ele>776.22</ele>
        <time>2022-08-16T14:40:18Z</time>
      </trkpt>
      <trkpt lat="45.5504" lon="2.58048">
        <ele>775.06</ele>
        <time>2022-08-16T14:40:40Z</time>
      </trkpt>
      <trkpt lat="45.54989" lon="2.58095">
        <ele>771.58</ele>
        <time>2022-08-16T14:40:48Z</time>
      </trkpt>
      <trkpt lat="45.54969" lon="2.58111">
        <ele>770.68</ele>
        <time>2022-08-16T14:40:52Z</time>
      </trkpt>
      <trkpt lat="45.54965" lon="2.58113">
        <ele>769.68</ele>
        <time>2022-08-16T14:40:53Z</time>
      </trkpt>
      <trkpt lat="45.54961" lon="2.58113">
        <ele>769.67</ele>
        <time>2022-08-16T14:40:54Z</time>
      </trkpt>
      <trkpt lat="45.54958" lon="2.58112">
        <ele>769.7</ele>
        <time>2022-08-16T14:40:55Z</time>
      </trkpt>
      <trkpt lat="45.54957" lon="2.58111">
        <ele>769.73</ele>
        <time>2022-08-16T14:40:56Z</time>
      </trkpt>
      <trkpt lat="45.54955" lon="2.58108">
        <ele>769.73</ele>
        <time>2022-08-16T14:40:57Z</time>
      </trkpt>
      <trkpt lat="45.54954" lon="2.58103">
        <ele>769.8</ele>
        <time>2022-08-16T14:40:58Z</time>
      </trkpt>
      <trkpt lat="45.54954" lon="2.58095">
        <ele>769.81</ele>
        <time>2022-08-16T14:40:59Z</time>
      </trkpt>
      <trkpt lat="45.54954" lon="2.58087">
        <ele>769.86</ele>
        <time>2022-08-16T14:41:00Z</time>
      </trkpt>
      <trkpt lat="45.5495" lon="2.57976">
        <ele>770.28</ele>
        <time>2022-08-16T14:41:09Z</time>
      </trkpt>
      <trkpt lat="45.54944" lon="2.5793">
        <ele>772.93</ele>
        <time>2022-08-16T14:41:12Z</time>
      </trkpt>
      <trkpt lat="45.54938" lon="2.57763">
        <ele>775.12</ele>
        <time>2022-08-16T14:41:22Z</time>
      </trkpt>
      <trkpt lat="45.54942" lon="2.57693">
        <ele>772.79</ele>
        <time>2022-08-16T14:41:26Z</time>
      </trkpt>
      <trkpt lat="45.54942" lon="2.57659">
        <ele>771.79</ele>
        <time>2022-08-16T14:41:28Z</time>
      </trkpt>
      <trkpt lat="45.5494" lon="2.57643">
        <ele>771.8</ele>
        <time>2022-08-16T14:41:29Z</time>
      </trkpt>
      <trkpt lat="45.54937" lon="2.57627">
        <ele>771.81</ele>
        <time>2022-08-16T14:41:30Z</time>
      </trkpt>
      <trkpt lat="45.54933" lon="2.5761">
        <ele>771.82</ele>
        <time>2022-08-16T14:41:31Z</time>
      </trkpt>
      <trkpt lat="45.54928" lon="2.57594">
        <ele>771.84</ele>
        <time>2022-08-16T14:41:32Z</time>
      </trkpt>
      <trkpt lat="45.54922" lon="2.57578">
        <ele>771.84</ele>
        <time>2022-08-16T14:41:33Z</time>
      </trkpt>
      <trkpt lat="45.5483" lon="2.57285">
        <ele>772.27</ele>
        <time>2022-08-16T14:41:50Z</time>
      </trkpt>
      <trkpt lat="45.54813" lon="2.57186">
        <ele>774.75</ele>
        <time>2022-08-16T14:41:56Z</time>
      </trkpt>
      <trkpt lat="45.54812" lon="2.57155">
        <ele>776.46</ele>
        <time>2022-08-16T14:41:58Z</time>
      </trkpt>
      <trkpt lat="45.5481" lon="2.57124">
        <ele>777.72</ele>
        <time>2022-08-16T14:42:00Z</time>
      </trkpt>
      <trkpt lat="45.54809" lon="2.57074">
        <ele>779.42</ele>
        <time>2022-08-16T14:42:03Z</time>
      </trkpt>
      <trkpt lat="45.54799" lon="2.56817">
        <ele>779.5</ele>
        <time>2022-08-16T14:42:17Z</time>
      </trkpt>
      <trkpt lat="45.54796" lon="2.56763">
        <ele>777.02</ele>
        <time>2022-08-16T14:42:20Z</time>
      </trkpt>
      <trkpt lat="45.54793" lon="2.56729">
        <ele>776.24</ele>
        <time>2022-08-16T14:42:22Z</time>
      </trkpt>
      <trkpt lat="45.54789" lon="2.56713">
        <ele>776.24</ele>
        <time>2022-08-16T14:42:23Z</time>
      </trkpt>
      <trkpt lat="45.54785" lon="2.56698">
        <ele>776.26</ele>
        <time>2022-08-16T14:42:24Z</time>
      </trkpt>
      <trkpt lat="45.54687" lon="2.56396">
        <ele>775.45</ele>
        <time>2022-08-16T14:42:44Z</time>
      </trkpt>
      <trkpt lat="45.54662" lon="2.56267">
        <ele>773.12</ele>
        <time>2022-08-16T14:42:54Z</time>
      </trkpt>
      <trkpt lat="45.5466" lon="2.5625">
        <ele>773.18</ele>
        <time>2022-08-16T14:42:57Z</time>
      </trkpt>
      <trkpt lat="45.54659" lon="2.56248">
        <ele>772.37</ele>
        <time>2022-08-16T14:42:58Z</time>
      </trkpt>
      <trkpt lat="45.54658" lon="2.56249">
        <ele>772.36</ele>
        <time>2022-08-16T14:42:59Z</time>
      </trkpt>
      <trkpt lat="45.54657" lon="2.5625">
        <ele>772.34</ele>
        <time>2022-08-16T14:43:00Z</time>
      </trkpt>
      <trkpt lat="45.54657" lon="2.56252">
        <ele>772.38</ele>
        <time>2022-08-16T14:43:01Z</time>
      </trkpt>
      <trkpt lat="45.54657" lon="2.56254">
        <ele>772.4</ele>
        <time>2022-08-16T14:43:02Z</time>
      </trkpt>
      <trkpt lat="45.54659" lon="2.56257">
        <ele>772.4</ele>
        <time>2022-08-16T14:43:03Z</time>
      </trkpt>
      <trkpt lat="45.5466" lon="2.56261">
        <ele>772.43</ele>
        <time>2022-08-16T14:43:04Z</time>
      </trkpt>
      <trkpt lat="45.54662" lon="2.56266">
        <ele>772.45</ele>
        <time>2022-08-16T14:43:05Z</time>
      </trkpt>
      <trkpt lat="45.54663" lon="2.56274">
        <ele>772.49</ele>
        <time>2022-08-16T14:43:06Z</time>
      </trkpt>
      <trkpt lat="45.54664" lon="2.56283">
        <ele>772.57</ele>
        <time>2022-08-16T14:43:07Z</time>
      </trkpt>
      <trkpt lat="45.54665" lon="2.56292">
        <ele>772.57</ele>
        <time>2022-08-16T14:43:08Z</time>
      </trkpt>
      <trkpt lat="45.54671" lon="2.56342">
        <ele>772.79</ele>
        <time>2022-08-16T14:43:15Z</time>
      </trkpt>
      <trkpt lat="45.54672" lon="2.56342">
        <ele>772.77</ele>
        <time>2022-08-16T14:43:16Z</time>
      </trkpt>
      <trkpt lat="45.54674" lon="2.56341">
        <ele>772.82</ele>
        <time>2022-08-16T14:43:17Z</time>
      </trkpt>
      <trkpt lat="45.54675" lon="2.56338">
        <ele>772.82</ele>
        <time>2022-08-16T14:43:18Z</time>
      </trkpt>
      <trkpt lat="45.54676" lon="2.56334">
        <ele>772.83</ele>
        <time>2022-08-16T14:43:19Z</time>
      </trkpt>
      <trkpt lat="45.54676" lon="2.56328">
        <ele>772.84</ele>
        <time>2022-08-16T14:43:20Z</time>
      </trkpt>
      <trkpt lat="45.54677" lon="2.56322">
        <ele>772.85</ele>
        <time>2022-08-16T14:43:21Z</time>
      </trkpt>
      <trkpt lat="45.54679" lon="2.56315">
        <ele>772.86</ele>
        <time>2022-08-16T14:43:22Z</time>
      </trkpt>
      <trkpt lat="45.5468" lon="2.56307">
        <ele>772.88</ele>
        <time>2022-08-16T14:43:23Z</time>
      </trkpt>
      <trkpt lat="45.54683" lon="2.56299">
        <ele>772.9</ele>
        <time>2022-08-16T14:43:24Z</time>
      </trkpt>
      <trkpt lat="45.54686" lon="2.5629">
        <ele>772.91</ele>
        <time>2022-08-16T14:43:25Z</time>
      </trkpt>
      <trkpt lat="45.54726" lon="2.56168">
        <ele>770.92</ele>
        <time>2022-08-16T14:43:36Z</time>
      </trkpt>
      <trkpt lat="45.54758" lon="2.56026">
        <ele>770.15</ele>
        <time>2022-08-16T14:43:48Z</time>
      </trkpt>
      <trkpt lat="45.54765" lon="2.56005">
        <ele>770.19</ele>
        <time>2022-08-16T14:43:50Z</time>
      </trkpt>
      <trkpt lat="45.5477" lon="2.55996">
        <ele>770.19</ele>
        <time>2022-08-16T14:43:51Z</time>
      </trkpt>
      <trkpt lat="45.5486" lon="2.55841">
        <ele>768.56</ele>
        <time>2022-08-16T14:44:08Z</time>
      </trkpt>
      <trkpt lat="45.54877" lon="2.55812">
        <ele>768.62</ele>
        <time>2022-08-16T14:44:12Z</time>
      </trkpt>
      <trkpt lat="45.54882" lon="2.55805">
        <ele>767.7</ele>
        <time>2022-08-16T14:44:13Z</time>
      </trkpt>
      <trkpt lat="45.54887" lon="2.558">
        <ele>767.7</ele>
        <time>2022-08-16T14:44:14Z</time>
      </trkpt>
      <trkpt lat="45.54893" lon="2.55796">
        <ele>767.72</ele>
        <time>2022-08-16T14:44:15Z</time>
      </trkpt>
      <trkpt lat="45.54898" lon="2.55792">
        <ele>766.58</ele>
        <time>2022-08-16T14:44:16Z</time>
      </trkpt>
      <trkpt lat="45.5492" lon="2.55781">
        <ele>764.86</ele>
        <time>2022-08-16T14:44:20Z</time>
      </trkpt>
      <trkpt lat="45.54942" lon="2.55766">
        <ele>762.01</ele>
        <time>2022-08-16T14:44:25Z</time>
      </trkpt>
      <trkpt lat="45.54944" lon="2.55762">
        <ele>762.1</ele>
        <time>2022-08-16T14:44:26Z</time>
      </trkpt>
      <trkpt lat="45.54958" lon="2.55712">
        <ele>759.19</ele>
        <time>2022-08-16T14:44:32Z</time>
      </trkpt>
      <trkpt lat="45.54965" lon="2.55685">
        <ele>757.06</ele>
        <time>2022-08-16T14:44:36Z</time>
      </trkpt>
      <trkpt lat="45.54968" lon="2.5568">
        <ele>755.82</ele>
        <time>2022-08-16T14:44:37Z</time>
      </trkpt>
      <trkpt lat="45.5497" lon="2.55677">
        <ele>755.78</ele>
        <time>2022-08-16T14:44:38Z</time>
      </trkpt>
      <trkpt lat="45.54974" lon="2.55671">
        <ele>755.04</ele>
        <time>2022-08-16T14:44:41Z</time>
      </trkpt>
      <trkpt lat="45.54971" lon="2.55671">
        <ele>755.21</ele>
        <time>2022-08-16T14:44:50Z</time>
      </trkpt>
      <trkpt lat="45.54969" lon="2.55671">
        <ele>755.21</ele>
        <time>2022-08-16T14:44:51Z</time>
      </trkpt>
      <trkpt lat="45.54967" lon="2.55673">
        <ele>755.3</ele>
        <time>2022-08-16T14:44:52Z</time>
      </trkpt>
      <trkpt lat="45.54965" lon="2.55676">
        <ele>755.39</ele>
        <time>2022-08-16T14:44:53Z</time>
      </trkpt>
      <trkpt lat="45.54964" lon="2.55681">
        <ele>755.4</ele>
        <time>2022-08-16T14:44:54Z</time>
      </trkpt>
      <trkpt lat="45.54963" lon="2.55687">
        <ele>755.54</ele>
        <time>2022-08-16T14:44:55Z</time>
      </trkpt>
      <trkpt lat="45.54962" lon="2.55694">
        <ele>755.56</ele>
        <time>2022-08-16T14:44:56Z</time>
      </trkpt>
      <trkpt lat="45.5496" lon="2.55702">
        <ele>755.57</ele>
        <time>2022-08-16T14:44:57Z</time>
      </trkpt>
      <trkpt lat="45.54958" lon="2.5571">
        <ele>758.58</ele>
        <time>2022-08-16T14:44:58Z</time>
      </trkpt>
      <trkpt lat="45.54956" lon="2.55718">
        <ele>758.6</ele>
        <time>2022-08-16T14:44:59Z</time>
      </trkpt>
      <trkpt lat="45.54945" lon="2.55759">
        <ele>761.52</ele>
        <time>2022-08-16T14:45:04Z</time>
      </trkpt>
      <trkpt lat="45.54942" lon="2.55765">
        <ele>761.59</ele>
        <time>2022-08-16T14:45:05Z</time>
      </trkpt>
      <trkpt lat="45.54938" lon="2.5577">
        <ele>761.59</ele>
        <time>2022-08-16T14:45:06Z</time>
      </trkpt>
      <trkpt lat="45.54933" lon="2.55774">
        <ele>762.59</ele>
        <time>2022-08-16T14:45:07Z</time>
      </trkpt>
      <trkpt lat="45.54927" lon="2.55778">
        <ele>762.6</ele>
        <time>2022-08-16T14:45:08Z</time>
      </trkpt>
      <trkpt lat="45.54922" lon="2.55782">
        <ele>763.91</ele>
        <time>2022-08-16T14:45:09Z</time>
      </trkpt>
      <trkpt lat="45.54915" lon="2.55785">
        <ele>763.99</ele>
        <time>2022-08-16T14:45:10Z</time>
      </trkpt>
      <trkpt lat="45.5489" lon="2.55797">
        <ele>767.38</ele>
        <time>2022-08-16T14:45:14Z</time>
      </trkpt>
      <trkpt lat="45.54884" lon="2.55802">
        <ele>767.38</ele>
        <time>2022-08-16T14:45:15Z</time>
      </trkpt>
      <trkpt lat="45.54879" lon="2.55809">
        <ele>768.21</ele>
        <time>2022-08-16T14:45:16Z</time>
      </trkpt>
      <trkpt lat="45.54874" lon="2.55816">
        <ele>768.2</ele>
        <time>2022-08-16T14:45:17Z</time>
      </trkpt>
      <trkpt lat="45.54869" lon="2.55823">
        <ele>768.26</ele>
        <time>2022-08-16T14:45:18Z</time>
      </trkpt>
      <trkpt lat="45.54801" lon="2.55945">
        <ele>771.23</ele>
        <time>2022-08-16T14:45:32Z</time>
      </trkpt>
      <trkpt lat="45.5476" lon="2.56019">
        <ele>771.38</ele>
        <time>2022-08-16T14:45:40Z</time>
      </trkpt>
      <trkpt lat="45.54757" lon="2.56029">
        <ele>771.4</ele>
        <time>2022-08-16T14:45:41Z</time>
      </trkpt>
      <trkpt lat="45.54754" lon="2.5604">
        <ele>771.42</ele>
        <time>2022-08-16T14:45:42Z</time>
      </trkpt>
      <trkpt lat="45.54724" lon="2.56186">
        <ele>772.38</ele>
        <time>2022-08-16T14:45:53Z</time>
      </trkpt>
      <trkpt lat="45.54685" lon="2.56295">
        <ele>774.48</ele>
        <time>2022-08-16T14:46:03Z</time>
      </trkpt>
      <trkpt lat="45.54681" lon="2.563">
        <ele>774.48</ele>
        <time>2022-08-16T14:46:04Z</time>
      </trkpt>
      <trkpt lat="45.54677" lon="2.56302">
        <ele>774.52</ele>
        <time>2022-08-16T14:46:05Z</time>
      </trkpt>
      <trkpt lat="45.54673" lon="2.56303">
        <ele>774.56</ele>
        <time>2022-08-16T14:46:06Z</time>
      </trkpt>
      <trkpt lat="45.5467" lon="2.56303">
        <ele>774.57</ele>
        <time>2022-08-16T14:46:07Z</time>
      </trkpt>
      <trkpt lat="45.54668" lon="2.56301">
        <ele>775.52</ele>
        <time>2022-08-16T14:46:08Z</time>
      </trkpt>
      <trkpt lat="45.54666" lon="2.56299">
        <ele>775.54</ele>
        <time>2022-08-16T14:46:09Z</time>
      </trkpt>
      <trkpt lat="45.54664" lon="2.56294">
        <ele>775.58</ele>
        <time>2022-08-16T14:46:10Z</time>
      </trkpt>
      <trkpt lat="45.54662" lon="2.56287">
        <ele>775.58</ele>
        <time>2022-08-16T14:46:11Z</time>
      </trkpt>
      <trkpt lat="45.54661" lon="2.56278">
        <ele>775.58</ele>
        <time>2022-08-16T14:46:12Z</time>
      </trkpt>
      <trkpt lat="45.5466" lon="2.56268">
        <ele>775.49</ele>
        <time>2022-08-16T14:46:13Z</time>
      </trkpt>
      <trkpt lat="45.54659" lon="2.56258">
        <ele>775.51</ele>
        <time>2022-08-16T14:46:14Z</time>
      </trkpt>
      <trkpt lat="45.54642" lon="2.56108">
        <ele>776.56</ele>
        <time>2022-08-16T14:46:25Z</time>
      </trkpt>
      <trkpt lat="45.5464" lon="2.56077">
        <ele>773.43</ele>
        <time>2022-08-16T14:46:27Z</time>
      </trkpt>
      <trkpt lat="45.54639" lon="2.56063">
        <ele>773.43</ele>
        <time>2022-08-16T14:46:28Z</time>
      </trkpt>
      <trkpt lat="45.54632" lon="2.55969">
        <ele>769.19</ele>
        <time>2022-08-16T14:46:34Z</time>
      </trkpt>
      <trkpt lat="45.54631" lon="2.55954">
        <ele>769.16</ele>
        <time>2022-08-16T14:46:35Z</time>
      </trkpt>
      <trkpt lat="45.5463" lon="2.55926">
        <ele>767.43</ele>
        <time>2022-08-16T14:46:37Z</time>
      </trkpt>
      <trkpt lat="45.54625" lon="2.55872">
        <ele>764.87</ele>
        <time>2022-08-16T14:46:41Z</time>
      </trkpt>
      <trkpt lat="45.54622" lon="2.5586">
        <ele>764.83</ele>
        <time>2022-08-16T14:46:42Z</time>
      </trkpt>
      <trkpt lat="45.54617" lon="2.55849">
        <ele>763.28</ele>
        <time>2022-08-16T14:46:43Z</time>
      </trkpt>
      <trkpt lat="45.54611" lon="2.55839">
        <ele>763.24</ele>
        <time>2022-08-16T14:46:44Z</time>
      </trkpt>
      <trkpt lat="45.54604" lon="2.55831">
        <ele>762.4</ele>
        <time>2022-08-16T14:46:45Z</time>
      </trkpt>
      <trkpt lat="45.54595" lon="2.55825">
        <ele>761.5</ele>
        <time>2022-08-16T14:46:46Z</time>
      </trkpt>
      <trkpt lat="45.54586" lon="2.55821">
        <ele>761.48</ele>
        <time>2022-08-16T14:46:47Z</time>
      </trkpt>
      <trkpt lat="45.54575" lon="2.55819">
        <ele>761.5</ele>
        <time>2022-08-16T14:46:48Z</time>
      </trkpt>
      <trkpt lat="45.54565" lon="2.55818">
        <ele>760.02</ele>
        <time>2022-08-16T14:46:49Z</time>
      </trkpt>
      <trkpt lat="45.54555" lon="2.55819">
        <ele>759.08</ele>
        <time>2022-08-16T14:46:50Z</time>
      </trkpt>
      <trkpt lat="45.54545" lon="2.55819">
        <ele>758.2</ele>
        <time>2022-08-16T14:46:51Z</time>
      </trkpt>
      <trkpt lat="45.54517" lon="2.55818">
        <ele>755.23</ele>
        <time>2022-08-16T14:46:54Z</time>
      </trkpt>
      <trkpt lat="45.54507" lon="2.55815">
        <ele>755.25</ele>
        <time>2022-08-16T14:46:55Z</time>
      </trkpt>
      <trkpt lat="45.54496" lon="2.55811">
        <ele>753.88</ele>
        <time>2022-08-16T14:46:56Z</time>
      </trkpt>
      <trkpt lat="45.54485" lon="2.55805">
        <ele>753.84</ele>
        <time>2022-08-16T14:46:57Z</time>
      </trkpt>
      <trkpt lat="45.54444" lon="2.55782">
        <ele>750.52</ele>
        <time>2022-08-16T14:47:01Z</time>
      </trkpt>
      <trkpt lat="45.54428" lon="2.55774">
        <ele>749.33</ele>
        <time>2022-08-16T14:47:03Z</time>
      </trkpt>
      <trkpt lat="45.5442" lon="2.55771">
        <ele>748.57</ele>
        <time>2022-08-16T14:47:04Z</time>
      </trkpt>
      <trkpt lat="45.54413" lon="2.55769">
        <ele>746.93</ele>
        <time>2022-08-16T14:47:05Z</time>
      </trkpt>
      <trkpt lat="45.54406" lon="2.55765">
        <ele>746.93</ele>
        <time>2022-08-16T14:47:06Z</time>
      </trkpt>
      <trkpt lat="45.54401" lon="2.5576">
        <ele>745.61</ele>
        <time>2022-08-16T14:47:07Z</time>
      </trkpt>
      <trkpt lat="45.54397" lon="2.55752">
        <ele>745.63</ele>
        <time>2022-08-16T14:47:08Z</time>
      </trkpt>
      <trkpt lat="45.54394" lon="2.55742">
        <ele>743.62</ele>
        <time>2022-08-16T14:47:09Z</time>
      </trkpt>
      <trkpt lat="45.54393" lon="2.55732">
        <ele>743.72</ele>
        <time>2022-08-16T14:47:10Z</time>
      </trkpt>
      <trkpt lat="45.54393" lon="2.55721">
        <ele>742.29</ele>
        <time>2022-08-16T14:47:11Z</time>
      </trkpt>
      <trkpt lat="45.54394" lon="2.55711">
        <ele>742.42</ele>
        <time>2022-08-16T14:47:12Z</time>
      </trkpt>
      <trkpt lat="45.54393" lon="2.55701">
        <ele>742.35</ele>
        <time>2022-08-16T14:47:13Z</time>
      </trkpt>
      <trkpt lat="45.54392" lon="2.55691">
        <ele>741.25</ele>
        <time>2022-08-16T14:47:14Z</time>
      </trkpt>
      <trkpt lat="45.5439" lon="2.55682">
        <ele>741.18</ele>
        <time>2022-08-16T14:47:15Z</time>
      </trkpt>
      <trkpt lat="45.54388" lon="2.55672">
        <ele>740.3</ele>
        <time>2022-08-16T14:47:16Z</time>
      </trkpt>
      <trkpt lat="45.54387" lon="2.55662">
        <ele>740.32</ele>
        <time>2022-08-16T14:47:17Z</time>
      </trkpt>
      <trkpt lat="45.54387" lon="2.55653">
        <ele>739.36</ele>
        <time>2022-08-16T14:47:18Z</time>
      </trkpt>
      <trkpt lat="45.54389" lon="2.55644">
        <ele>739.33</ele>
        <time>2022-08-16T14:47:19Z</time>
      </trkpt>
      <trkpt lat="45.54392" lon="2.55636">
        <ele>737.72</ele>
        <time>2022-08-16T14:47:20Z</time>
      </trkpt>
      <trkpt lat="45.54396" lon="2.55628">
        <ele>737.71</ele>
        <time>2022-08-16T14:47:21Z</time>
      </trkpt>
      <trkpt lat="45.544" lon="2.55621">
        <ele>736.64</ele>
        <time>2022-08-16T14:47:22Z</time>
      </trkpt>
      <trkpt lat="45.54406" lon="2.55615">
        <ele>736.65</ele>
        <time>2022-08-16T14:47:23Z</time>
      </trkpt>
      <trkpt lat="45.54411" lon="2.5561">
        <ele>735.27</ele>
        <time>2022-08-16T14:47:24Z</time>
      </trkpt>
      <trkpt lat="45.54417" lon="2.55606">
        <ele>735.28</ele>
        <time>2022-08-16T14:47:25Z</time>
      </trkpt>
      <trkpt lat="45.54424" lon="2.55601">
        <ele>735.25</ele>
        <time>2022-08-16T14:47:26Z</time>
      </trkpt>
      <trkpt lat="45.54446" lon="2.55584">
        <ele>733.51</ele>
        <time>2022-08-16T14:47:29Z</time>
      </trkpt>
      <trkpt lat="45.54452" lon="2.55576">
        <ele>732.76</ele>
        <time>2022-08-16T14:47:30Z</time>
      </trkpt>
      <trkpt lat="45.54458" lon="2.55565">
        <ele>732.76</ele>
        <time>2022-08-16T14:47:31Z</time>
      </trkpt>
      <trkpt lat="45.54463" lon="2.55554">
        <ele>731.6</ele>
        <time>2022-08-16T14:47:32Z</time>
      </trkpt>
      <trkpt lat="45.54468" lon="2.55541">
        <ele>731.49</ele>
        <time>2022-08-16T14:47:33Z</time>
      </trkpt>
      <trkpt lat="45.54472" lon="2.55528">
        <ele>731.58</ele>
        <time>2022-08-16T14:47:34Z</time>
      </trkpt>
      <trkpt lat="45.5448" lon="2.55501">
        <ele>729.95</ele>
        <time>2022-08-16T14:47:36Z</time>
      </trkpt>
      <trkpt lat="45.5449" lon="2.55456">
        <ele>727.5</ele>
        <time>2022-08-16T14:47:39Z</time>
      </trkpt>
      <trkpt lat="45.54491" lon="2.5544">
        <ele>726.46</ele>
        <time>2022-08-16T14:47:40Z</time>
      </trkpt>
      <trkpt lat="45.54492" lon="2.55425">
        <ele>726.44</ele>
        <time>2022-08-16T14:47:41Z</time>
      </trkpt>
      <trkpt lat="45.54493" lon="2.55378">
        <ele>723.34</ele>
        <time>2022-08-16T14:47:44Z</time>
      </trkpt>
      <trkpt lat="45.54494" lon="2.55364">
        <ele>723.28</ele>
        <time>2022-08-16T14:47:45Z</time>
      </trkpt>
      <trkpt lat="45.54496" lon="2.55336">
        <ele>721.62</ele>
        <time>2022-08-16T14:47:47Z</time>
      </trkpt>
      <trkpt lat="45.54498" lon="2.55323">
        <ele>720.77</ele>
        <time>2022-08-16T14:47:48Z</time>
      </trkpt>
      <trkpt lat="45.54503" lon="2.55297">
        <ele>719.26</ele>
        <time>2022-08-16T14:47:50Z</time>
      </trkpt>
      <trkpt lat="45.54506" lon="2.55273">
        <ele>717.28</ele>
        <time>2022-08-16T14:47:52Z</time>
      </trkpt>
      <trkpt lat="45.54506" lon="2.55261">
        <ele>716.37</ele>
        <time>2022-08-16T14:47:53Z</time>
      </trkpt>
      <trkpt lat="45.54505" lon="2.5525">
        <ele>716.31</ele>
        <time>2022-08-16T14:47:54Z</time>
      </trkpt>
      <trkpt lat="45.54504" lon="2.5524">
        <ele>715.85</ele>
        <time>2022-08-16T14:47:55Z</time>
      </trkpt>
      <trkpt lat="45.54502" lon="2.55229">
        <ele>715.87</ele>
        <time>2022-08-16T14:47:56Z</time>
      </trkpt>
      <trkpt lat="45.54499" lon="2.55219">
        <ele>714.32</ele>
        <time>2022-08-16T14:47:57Z</time>
      </trkpt>
      <trkpt lat="45.54496" lon="2.55209">
        <ele>713.48</ele>
        <time>2022-08-16T14:47:58Z</time>
      </trkpt>
      <trkpt lat="45.54493" lon="2.55199">
        <ele>713.5</ele>
        <time>2022-08-16T14:47:59Z</time>
      </trkpt>
      <trkpt lat="45.54487" lon="2.5518">
        <ele>712.16</ele>
        <time>2022-08-16T14:48:01Z</time>
      </trkpt>
      <trkpt lat="45.54482" lon="2.5516">
        <ele>710.98</ele>
        <time>2022-08-16T14:48:03Z</time>
      </trkpt>
      <trkpt lat="45.5448" lon="2.5515">
        <ele>711.02</ele>
        <time>2022-08-16T14:48:04Z</time>
      </trkpt>
      <trkpt lat="45.54478" lon="2.55139">
        <ele>709.71</ele>
        <time>2022-08-16T14:48:05Z</time>
      </trkpt>
      <trkpt lat="45.54479" lon="2.55128">
        <ele>708.85</ele>
        <time>2022-08-16T14:48:06Z</time>
      </trkpt>
      <trkpt lat="45.54481" lon="2.55117">
        <ele>708</ele>
        <time>2022-08-16T14:48:07Z</time>
      </trkpt>
      <trkpt lat="45.54484" lon="2.55106">
        <ele>708</ele>
        <time>2022-08-16T14:48:08Z</time>
      </trkpt>
      <trkpt lat="45.54488" lon="2.55096">
        <ele>707.03</ele>
        <time>2022-08-16T14:48:09Z</time>
      </trkpt>
      <trkpt lat="45.54492" lon="2.55087">
        <ele>706.21</ele>
        <time>2022-08-16T14:48:10Z</time>
      </trkpt>
      <trkpt lat="45.54497" lon="2.5508">
        <ele>706.18</ele>
        <time>2022-08-16T14:48:11Z</time>
      </trkpt>
      <trkpt lat="45.54503" lon="2.55074">
        <ele>704.92</ele>
        <time>2022-08-16T14:48:12Z</time>
      </trkpt>
      <trkpt lat="45.54509" lon="2.55069">
        <ele>704.93</ele>
        <time>2022-08-16T14:48:13Z</time>
      </trkpt>
      <trkpt lat="45.54537" lon="2.55044">
        <ele>702.87</ele>
        <time>2022-08-16T14:48:17Z</time>
      </trkpt>
      <trkpt lat="45.54551" lon="2.55029">
        <ele>702.02</ele>
        <time>2022-08-16T14:48:19Z</time>
      </trkpt>
      <trkpt lat="45.54569" lon="2.54997">
        <ele>699.34</ele>
        <time>2022-08-16T14:48:22Z</time>
      </trkpt>
      <trkpt lat="45.54574" lon="2.54984">
        <ele>699.36</ele>
        <time>2022-08-16T14:48:23Z</time>
      </trkpt>
      <trkpt lat="45.54578" lon="2.54969">
        <ele>698.03</ele>
        <time>2022-08-16T14:48:24Z</time>
      </trkpt>
      <trkpt lat="45.54582" lon="2.54956">
        <ele>697.98</ele>
        <time>2022-08-16T14:48:25Z</time>
      </trkpt>
      <trkpt lat="45.5459" lon="2.54931">
        <ele>696.43</ele>
        <time>2022-08-16T14:48:27Z</time>
      </trkpt>
      <trkpt lat="45.54599" lon="2.54907">
        <ele>695.02</ele>
        <time>2022-08-16T14:48:29Z</time>
      </trkpt>
      <trkpt lat="45.54603" lon="2.54895">
        <ele>693.55</ele>
        <time>2022-08-16T14:48:30Z</time>
      </trkpt>
      <trkpt lat="45.54609" lon="2.54885">
        <ele>693.55</ele>
        <time>2022-08-16T14:48:31Z</time>
      </trkpt>
      <trkpt lat="45.54614" lon="2.54876">
        <ele>691.99</ele>
        <time>2022-08-16T14:48:32Z</time>
      </trkpt>
      <trkpt lat="45.5462" lon="2.54867">
        <ele>692</ele>
        <time>2022-08-16T14:48:33Z</time>
      </trkpt>
      <trkpt lat="45.54627" lon="2.54861">
        <ele>690.55</ele>
        <time>2022-08-16T14:48:34Z</time>
      </trkpt>
      <trkpt lat="45.54634" lon="2.54857">
        <ele>689.67</ele>
        <time>2022-08-16T14:48:35Z</time>
      </trkpt>
      <trkpt lat="45.54641" lon="2.54855">
        <ele>689.61</ele>
        <time>2022-08-16T14:48:36Z</time>
      </trkpt>
      <trkpt lat="45.54649" lon="2.54854">
        <ele>688.6</ele>
        <time>2022-08-16T14:48:37Z</time>
      </trkpt>
      <trkpt lat="45.54656" lon="2.54856">
        <ele>688.56</ele>
        <time>2022-08-16T14:48:38Z</time>
      </trkpt>
      <trkpt lat="45.54663" lon="2.54858">
        <ele>687.73</ele>
        <time>2022-08-16T14:48:39Z</time>
      </trkpt>
      <trkpt lat="45.5467" lon="2.54862">
        <ele>687.72</ele>
        <time>2022-08-16T14:48:40Z</time>
      </trkpt>
      <trkpt lat="45.54679" lon="2.54867">
        <ele>687.71</ele>
        <time>2022-08-16T14:48:41Z</time>
      </trkpt>
      <trkpt lat="45.54687" lon="2.54874">
        <ele>686.38</ele>
        <time>2022-08-16T14:48:42Z</time>
      </trkpt>
      <trkpt lat="45.54696" lon="2.54881">
        <ele>686.4</ele>
        <time>2022-08-16T14:48:43Z</time>
      </trkpt>
      <trkpt lat="45.54715" lon="2.54893">
        <ele>685.03</ele>
        <time>2022-08-16T14:48:45Z</time>
      </trkpt>
      <trkpt lat="45.54723" lon="2.54896">
        <ele>683.92</ele>
        <time>2022-08-16T14:48:46Z</time>
      </trkpt>
      <trkpt lat="45.54751" lon="2.5491">
        <ele>682.11</ele>
        <time>2022-08-16T14:48:49Z</time>
      </trkpt>
      <trkpt lat="45.54767" lon="2.54916">
        <ele>681.07</ele>
        <time>2022-08-16T14:48:51Z</time>
      </trkpt>
      <trkpt lat="45.5478" lon="2.54928">
        <ele>680.21</ele>
        <time>2022-08-16T14:48:53Z</time>
      </trkpt>
      <trkpt lat="45.54787" lon="2.54933">
        <ele>678.95</ele>
        <time>2022-08-16T14:48:54Z</time>
      </trkpt>
      <trkpt lat="45.54793" lon="2.54937">
        <ele>678.2</ele>
        <time>2022-08-16T14:48:55Z</time>
      </trkpt>
      <trkpt lat="45.548" lon="2.54939">
        <ele>677.2</ele>
        <time>2022-08-16T14:48:56Z</time>
      </trkpt>
      <trkpt lat="45.54806" lon="2.54937">
        <ele>677.14</ele>
        <time>2022-08-16T14:48:57Z</time>
      </trkpt>
      <trkpt lat="45.54812" lon="2.54932">
        <ele>676.06</ele>
        <time>2022-08-16T14:48:58Z</time>
      </trkpt>
      <trkpt lat="45.54817" lon="2.54926">
        <ele>676.05</ele>
        <time>2022-08-16T14:48:59Z</time>
      </trkpt>
      <trkpt lat="45.5482" lon="2.54918">
        <ele>674.94</ele>
        <time>2022-08-16T14:49:00Z</time>
      </trkpt>
      <trkpt lat="45.54823" lon="2.54912">
        <ele>674.97</ele>
        <time>2022-08-16T14:49:01Z</time>
      </trkpt>
      <trkpt lat="45.54823" lon="2.54904">
        <ele>674.93</ele>
        <time>2022-08-16T14:49:02Z</time>
      </trkpt>
      <trkpt lat="45.54824" lon="2.54896">
        <ele>673.93</ele>
        <time>2022-08-16T14:49:03Z</time>
      </trkpt>
      <trkpt lat="45.54824" lon="2.54887">
        <ele>673.9</ele>
        <time>2022-08-16T14:49:04Z</time>
      </trkpt>
      <trkpt lat="45.54824" lon="2.54878">
        <ele>672.97</ele>
        <time>2022-08-16T14:49:05Z</time>
      </trkpt>
      <trkpt lat="45.54824" lon="2.54868">
        <ele>672.13</ele>
        <time>2022-08-16T14:49:06Z</time>
      </trkpt>
      <trkpt lat="45.54824" lon="2.54858">
        <ele>672.14</ele>
        <time>2022-08-16T14:49:07Z</time>
      </trkpt>
      <trkpt lat="45.54814" lon="2.54821">
        <ele>669.98</ele>
        <time>2022-08-16T14:49:11Z</time>
      </trkpt>
      <trkpt lat="45.54812" lon="2.54811">
        <ele>669.13</ele>
        <time>2022-08-16T14:49:12Z</time>
      </trkpt>
      <trkpt lat="45.5481" lon="2.54801">
        <ele>669.14</ele>
        <time>2022-08-16T14:49:13Z</time>
      </trkpt>
      <trkpt lat="45.54809" lon="2.5479">
        <ele>668.08</ele>
        <time>2022-08-16T14:49:14Z</time>
      </trkpt>
      <trkpt lat="45.54809" lon="2.54779">
        <ele>668.05</ele>
        <time>2022-08-16T14:49:15Z</time>
      </trkpt>
      <trkpt lat="45.54811" lon="2.5477">
        <ele>666.6</ele>
        <time>2022-08-16T14:49:16Z</time>
      </trkpt>
      <trkpt lat="45.54815" lon="2.54761">
        <ele>666.57</ele>
        <time>2022-08-16T14:49:17Z</time>
      </trkpt>
      <trkpt lat="45.54819" lon="2.54753">
        <ele>665.65</ele>
        <time>2022-08-16T14:49:18Z</time>
      </trkpt>
      <trkpt lat="45.54825" lon="2.54745">
        <ele>664.76</ele>
        <time>2022-08-16T14:49:19Z</time>
      </trkpt>
      <trkpt lat="45.54831" lon="2.54738">
        <ele>664.78</ele>
        <time>2022-08-16T14:49:20Z</time>
      </trkpt>
      <trkpt lat="45.54838" lon="2.54732">
        <ele>663.99</ele>
        <time>2022-08-16T14:49:21Z</time>
      </trkpt>
      <trkpt lat="45.54858" lon="2.54717">
        <ele>663.07</ele>
        <time>2022-08-16T14:49:24Z</time>
      </trkpt>
      <trkpt lat="45.54873" lon="2.54711">
        <ele>661.18</ele>
        <time>2022-08-16T14:49:26Z</time>
      </trkpt>
      <trkpt lat="45.54881" lon="2.54709">
        <ele>661.17</ele>
        <time>2022-08-16T14:49:27Z</time>
      </trkpt>
      <trkpt lat="45.54916" lon="2.54703">
        <ele>658.05</ele>
        <time>2022-08-16T14:49:32Z</time>
      </trkpt>
      <trkpt lat="45.54924" lon="2.54704">
        <ele>657.8</ele>
        <time>2022-08-16T14:49:33Z</time>
      </trkpt>
      <trkpt lat="45.54938" lon="2.54707">
        <ele>656.5</ele>
        <time>2022-08-16T14:49:35Z</time>
      </trkpt>
      <trkpt lat="45.54945" lon="2.54711">
        <ele>656.51</ele>
        <time>2022-08-16T14:49:36Z</time>
      </trkpt>
      <trkpt lat="45.54952" lon="2.54715">
        <ele>656.52</ele>
        <time>2022-08-16T14:49:37Z</time>
      </trkpt>
      <trkpt lat="45.54958" lon="2.54721">
        <ele>656.47</ele>
        <time>2022-08-16T14:49:38Z</time>
      </trkpt>
      <trkpt lat="45.54964" lon="2.54728">
        <ele>655.39</ele>
        <time>2022-08-16T14:49:39Z</time>
      </trkpt>
      <trkpt lat="45.54971" lon="2.54736">
        <ele>655.34</ele>
        <time>2022-08-16T14:49:40Z</time>
      </trkpt>
      <trkpt lat="45.54979" lon="2.54742">
        <ele>654.04</ele>
        <time>2022-08-16T14:49:41Z</time>
      </trkpt>
      <trkpt lat="45.54989" lon="2.54747">
        <ele>653.12</ele>
        <time>2022-08-16T14:49:42Z</time>
      </trkpt>
      <trkpt lat="45.54998" lon="2.54747">
        <ele>653.19</ele>
        <time>2022-08-16T14:49:43Z</time>
      </trkpt>
      <trkpt lat="45.55007" lon="2.54744">
        <ele>652.16</ele>
        <time>2022-08-16T14:49:44Z</time>
      </trkpt>
      <trkpt lat="45.55017" lon="2.54738">
        <ele>651.32</ele>
        <time>2022-08-16T14:49:45Z</time>
      </trkpt>
      <trkpt lat="45.55025" lon="2.54733">
        <ele>650.29</ele>
        <time>2022-08-16T14:49:46Z</time>
      </trkpt>
      <trkpt lat="45.55044" lon="2.54724">
        <ele>649.39</ele>
        <time>2022-08-16T14:49:48Z</time>
      </trkpt>
      <trkpt lat="45.55052" lon="2.54722">
        <ele>648.2</ele>
        <time>2022-08-16T14:49:49Z</time>
      </trkpt>
      <trkpt lat="45.55062" lon="2.54722">
        <ele>647.16</ele>
        <time>2022-08-16T14:49:50Z</time>
      </trkpt>
      <trkpt lat="45.55071" lon="2.54721">
        <ele>647.36</ele>
        <time>2022-08-16T14:49:51Z</time>
      </trkpt>
      <trkpt lat="45.55095" lon="2.54719">
        <ele>645.06</ele>
        <time>2022-08-16T14:49:54Z</time>
      </trkpt>
      <trkpt lat="45.55124" lon="2.54719">
        <ele>642.66</ele>
        <time>2022-08-16T14:49:58Z</time>
      </trkpt>
      <trkpt lat="45.55146" lon="2.54724">
        <ele>641.33</ele>
        <time>2022-08-16T14:50:01Z</time>
      </trkpt>
      <trkpt lat="45.55154" lon="2.54729">
        <ele>639.87</ele>
        <time>2022-08-16T14:50:02Z</time>
      </trkpt>
      <trkpt lat="45.55161" lon="2.54734">
        <ele>639.81</ele>
        <time>2022-08-16T14:50:03Z</time>
      </trkpt>
      <trkpt lat="45.55176" lon="2.5474">
        <ele>638.58</ele>
        <time>2022-08-16T14:50:05Z</time>
      </trkpt>
      <trkpt lat="45.55184" lon="2.54741">
        <ele>637.77</ele>
        <time>2022-08-16T14:50:06Z</time>
      </trkpt>
      <trkpt lat="45.55193" lon="2.54742">
        <ele>637.73</ele>
        <time>2022-08-16T14:50:07Z</time>
      </trkpt>
      <trkpt lat="45.55202" lon="2.5474">
        <ele>636.92</ele>
        <time>2022-08-16T14:50:08Z</time>
      </trkpt>
      <trkpt lat="45.55214" lon="2.54739">
        <ele>636.92</ele>
        <time>2022-08-16T14:50:09Z</time>
      </trkpt>
      <trkpt lat="45.55245" lon="2.54728">
        <ele>634.71</ele>
        <time>2022-08-16T14:50:12Z</time>
      </trkpt>
      <trkpt lat="45.55297" lon="2.5473">
        <ele>630.67</ele>
        <time>2022-08-16T14:50:17Z</time>
      </trkpt>
      <trkpt lat="45.55315" lon="2.5473">
        <ele>629.71</ele>
        <time>2022-08-16T14:50:19Z</time>
      </trkpt>
      <trkpt lat="45.55335" lon="2.54727">
        <ele>628.32</ele>
        <time>2022-08-16T14:50:21Z</time>
      </trkpt>
      <trkpt lat="45.55352" lon="2.54725">
        <ele>626.98</ele>
        <time>2022-08-16T14:50:23Z</time>
      </trkpt>
      <trkpt lat="45.55393" lon="2.54714">
        <ele>623.47</ele>
        <time>2022-08-16T14:50:28Z</time>
      </trkpt>
      <trkpt lat="45.554" lon="2.5471">
        <ele>623.38</ele>
        <time>2022-08-16T14:50:29Z</time>
      </trkpt>
      <trkpt lat="45.55414" lon="2.54704">
        <ele>622.16</ele>
        <time>2022-08-16T14:50:31Z</time>
      </trkpt>
      <trkpt lat="45.55439" lon="2.54685">
        <ele>620.19</ele>
        <time>2022-08-16T14:50:35Z</time>
      </trkpt>
      <trkpt lat="45.55444" lon="2.54679">
        <ele>619.15</ele>
        <time>2022-08-16T14:50:36Z</time>
      </trkpt>
      <trkpt lat="45.55447" lon="2.54671">
        <ele>618.18</ele>
        <time>2022-08-16T14:50:37Z</time>
      </trkpt>
      <trkpt lat="45.5545" lon="2.54662">
        <ele>618.19</ele>
        <time>2022-08-16T14:50:38Z</time>
      </trkpt>
      <trkpt lat="45.5545" lon="2.54653">
        <ele>618.15</ele>
        <time>2022-08-16T14:50:39Z</time>
      </trkpt>
      <trkpt lat="45.5545" lon="2.54644">
        <ele>618.23</ele>
        <time>2022-08-16T14:50:40Z</time>
      </trkpt>
      <trkpt lat="45.55448" lon="2.54635">
        <ele>616.88</ele>
        <time>2022-08-16T14:50:41Z</time>
      </trkpt>
      <trkpt lat="45.55445" lon="2.54627">
        <ele>616.9</ele>
        <time>2022-08-16T14:50:42Z</time>
      </trkpt>
      <trkpt lat="45.55443" lon="2.54619">
        <ele>615.77</ele>
        <time>2022-08-16T14:50:43Z</time>
      </trkpt>
      <trkpt lat="45.55433" lon="2.54596">
        <ele>614.46</ele>
        <time>2022-08-16T14:50:46Z</time>
      </trkpt>
      <trkpt lat="45.55425" lon="2.54577">
        <ele>612.84</ele>
        <time>2022-08-16T14:50:49Z</time>
      </trkpt>
      <trkpt lat="45.55409" lon="2.54562">
        <ele>611.41</ele>
        <time>2022-08-16T14:50:57Z</time>
      </trkpt>
      <trkpt lat="45.55406" lon="2.54558">
        <ele>611.42</ele>
        <time>2022-08-16T14:50:58Z</time>
      </trkpt>
      <trkpt lat="45.55404" lon="2.54551">
        <ele>611.42</ele>
        <time>2022-08-16T14:50:59Z</time>
      </trkpt>
      <trkpt lat="45.55403" lon="2.54542">
        <ele>611.43</ele>
        <time>2022-08-16T14:51:00Z</time>
      </trkpt>
      <trkpt lat="45.55402" lon="2.54533">
        <ele>611.42</ele>
        <time>2022-08-16T14:51:01Z</time>
      </trkpt>
      <trkpt lat="45.554" lon="2.54514">
        <ele>613.73</ele>
        <time>2022-08-16T14:51:03Z</time>
      </trkpt>
      <trkpt lat="45.55398" lon="2.54482">
        <ele>615.11</ele>
        <time>2022-08-16T14:51:06Z</time>
      </trkpt>
      <trkpt lat="45.55397" lon="2.54426">
        <ele>617.41</ele>
        <time>2022-08-16T14:51:11Z</time>
      </trkpt>
      <trkpt lat="45.554" lon="2.54416">
        <ele>617.39</ele>
        <time>2022-08-16T14:51:12Z</time>
      </trkpt>
      <trkpt lat="45.55403" lon="2.54407">
        <ele>617.44</ele>
        <time>2022-08-16T14:51:13Z</time>
      </trkpt>
      <trkpt lat="45.55408" lon="2.54399">
        <ele>618.45</ele>
        <time>2022-08-16T14:51:14Z</time>
      </trkpt>
      <trkpt lat="45.55413" lon="2.54392">
        <ele>618.5</ele>
        <time>2022-08-16T14:51:15Z</time>
      </trkpt>
      <trkpt lat="45.55419" lon="2.54387">
        <ele>619.43</ele>
        <time>2022-08-16T14:51:16Z</time>
      </trkpt>
      <trkpt lat="45.55425" lon="2.54383">
        <ele>619.45</ele>
        <time>2022-08-16T14:51:17Z</time>
      </trkpt>
      <trkpt lat="45.55431" lon="2.54379">
        <ele>620.65</ele>
        <time>2022-08-16T14:51:18Z</time>
      </trkpt>
      <trkpt lat="45.55438" lon="2.54376">
        <ele>620.69</ele>
        <time>2022-08-16T14:51:19Z</time>
      </trkpt>
      <trkpt lat="45.55458" lon="2.54364">
        <ele>622.78</ele>
        <time>2022-08-16T14:51:22Z</time>
      </trkpt>
      <trkpt lat="45.55473" lon="2.54354">
        <ele>624.62</ele>
        <time>2022-08-16T14:51:24Z</time>
      </trkpt>
      <trkpt lat="45.5548" lon="2.54348">
        <ele>624.68</ele>
        <time>2022-08-16T14:51:25Z</time>
      </trkpt>
      <trkpt lat="45.55493" lon="2.54334">
        <ele>626.37</ele>
        <time>2022-08-16T14:51:27Z</time>
      </trkpt>
      <trkpt lat="45.555" lon="2.54327">
        <ele>627.44</ele>
        <time>2022-08-16T14:51:28Z</time>
      </trkpt>
      <trkpt lat="45.55506" lon="2.54319">
        <ele>627.45</ele>
        <time>2022-08-16T14:51:29Z</time>
      </trkpt>
      <trkpt lat="45.55518" lon="2.54304">
        <ele>628.59</ele>
        <time>2022-08-16T14:51:31Z</time>
      </trkpt>
      <trkpt lat="45.55525" lon="2.54296">
        <ele>629.39</ele>
        <time>2022-08-16T14:51:32Z</time>
      </trkpt>
      <trkpt lat="45.55546" lon="2.54272">
        <ele>631.23</ele>
        <time>2022-08-16T14:51:35Z</time>
      </trkpt>
      <trkpt lat="45.55552" lon="2.54262">
        <ele>631.24</ele>
        <time>2022-08-16T14:51:36Z</time>
      </trkpt>
      <trkpt lat="45.55565" lon="2.54243">
        <ele>633.83</ele>
        <time>2022-08-16T14:51:38Z</time>
      </trkpt>
      <trkpt lat="45.55571" lon="2.54234">
        <ele>633.9</ele>
        <time>2022-08-16T14:51:39Z</time>
      </trkpt>
      <trkpt lat="45.55598" lon="2.54197">
        <ele>634.94</ele>
        <time>2022-08-16T14:51:43Z</time>
      </trkpt>
      <trkpt lat="45.55603" lon="2.54186">
        <ele>635.98</ele>
        <time>2022-08-16T14:51:44Z</time>
      </trkpt>
      <trkpt lat="45.55607" lon="2.54175">
        <ele>636.01</ele>
        <time>2022-08-16T14:51:45Z</time>
      </trkpt>
      <trkpt lat="45.55609" lon="2.54163">
        <ele>635.98</ele>
        <time>2022-08-16T14:51:46Z</time>
      </trkpt>
      <trkpt lat="45.55608" lon="2.54152">
        <ele>636.76</ele>
        <time>2022-08-16T14:51:47Z</time>
      </trkpt>
      <trkpt lat="45.55607" lon="2.54144">
        <ele>636.39</ele>
        <time>2022-08-16T14:51:48Z</time>
      </trkpt>
      <trkpt lat="45.55604" lon="2.54136">
        <ele>637.51</ele>
        <time>2022-08-16T14:51:49Z</time>
      </trkpt>
      <trkpt lat="45.556" lon="2.54132">
        <ele>637.52</ele>
        <time>2022-08-16T14:51:50Z</time>
      </trkpt>
      <trkpt lat="45.55595" lon="2.54129">
        <ele>637.54</ele>
        <time>2022-08-16T14:51:51Z</time>
      </trkpt>
      <trkpt lat="45.55589" lon="2.54131">
        <ele>639.19</ele>
        <time>2022-08-16T14:51:52Z</time>
      </trkpt>
      <trkpt lat="45.55584" lon="2.54134">
        <ele>639.25</ele>
        <time>2022-08-16T14:51:53Z</time>
      </trkpt>
      <trkpt lat="45.5558" lon="2.54141">
        <ele>640.15</ele>
        <time>2022-08-16T14:51:54Z</time>
      </trkpt>
      <trkpt lat="45.55576" lon="2.54149">
        <ele>640.96</ele>
        <time>2022-08-16T14:51:55Z</time>
      </trkpt>
      <trkpt lat="45.55573" lon="2.54158">
        <ele>640.95</ele>
        <time>2022-08-16T14:51:56Z</time>
      </trkpt>
      <trkpt lat="45.5557" lon="2.54168">
        <ele>641.97</ele>
        <time>2022-08-16T14:51:57Z</time>
      </trkpt>
      <trkpt lat="45.55567" lon="2.54178">
        <ele>641.98</ele>
        <time>2022-08-16T14:51:58Z</time>
      </trkpt>
      <trkpt lat="45.55559" lon="2.54198">
        <ele>643.01</ele>
        <time>2022-08-16T14:52:00Z</time>
      </trkpt>
      <trkpt lat="45.55553" lon="2.54207">
        <ele>643.04</ele>
        <time>2022-08-16T14:52:01Z</time>
      </trkpt>
      <trkpt lat="45.55547" lon="2.54214">
        <ele>644.19</ele>
        <time>2022-08-16T14:52:02Z</time>
      </trkpt>
      <trkpt lat="45.55541" lon="2.54219">
        <ele>644.25</ele>
        <time>2022-08-16T14:52:03Z</time>
      </trkpt>
      <trkpt lat="45.55534" lon="2.54224">
        <ele>644.99</ele>
        <time>2022-08-16T14:52:04Z</time>
      </trkpt>
      <trkpt lat="45.55527" lon="2.54227">
        <ele>645.05</ele>
        <time>2022-08-16T14:52:05Z</time>
      </trkpt>
      <trkpt lat="45.5552" lon="2.5423">
        <ele>645.05</ele>
        <time>2022-08-16T14:52:06Z</time>
      </trkpt>
      <trkpt lat="45.55507" lon="2.54236">
        <ele>646.52</ele>
        <time>2022-08-16T14:52:08Z</time>
      </trkpt>
      <trkpt lat="45.55495" lon="2.54241">
        <ele>648.4</ele>
        <time>2022-08-16T14:52:10Z</time>
      </trkpt>
      <trkpt lat="45.55476" lon="2.54247">
        <ele>649.97</ele>
        <time>2022-08-16T14:52:13Z</time>
      </trkpt>
      <trkpt lat="45.55445" lon="2.54244">
        <ele>652.04</ele>
        <time>2022-08-16T14:52:17Z</time>
      </trkpt>
      <trkpt lat="45.55437" lon="2.54241">
        <ele>652.05</ele>
        <time>2022-08-16T14:52:18Z</time>
      </trkpt>
      <trkpt lat="45.55429" lon="2.54238">
        <ele>653.7</ele>
        <time>2022-08-16T14:52:19Z</time>
      </trkpt>
      <trkpt lat="45.55421" lon="2.54236">
        <ele>653.7</ele>
        <time>2022-08-16T14:52:20Z</time>
      </trkpt>
      <trkpt lat="45.55381" lon="2.54222">
        <ele>656.81</ele>
        <time>2022-08-16T14:52:25Z</time>
      </trkpt>
      <trkpt lat="45.55366" lon="2.54218">
        <ele>658.07</ele>
        <time>2022-08-16T14:52:27Z</time>
      </trkpt>
      <trkpt lat="45.55344" lon="2.54208">
        <ele>659.18</ele>
        <time>2022-08-16T14:52:30Z</time>
      </trkpt>
      <trkpt lat="45.5531" lon="2.54178">
        <ele>662.89</ele>
        <time>2022-08-16T14:52:35Z</time>
      </trkpt>
      <trkpt lat="45.55303" lon="2.54171">
        <ele>662.85</ele>
        <time>2022-08-16T14:52:36Z</time>
      </trkpt>
      <trkpt lat="45.55287" lon="2.54149">
        <ele>664.42</ele>
        <time>2022-08-16T14:52:39Z</time>
      </trkpt>
      <trkpt lat="45.55276" lon="2.54134">
        <ele>666.52</ele>
        <time>2022-08-16T14:52:41Z</time>
      </trkpt>
      <trkpt lat="45.5527" lon="2.54129">
        <ele>666.57</ele>
        <time>2022-08-16T14:52:42Z</time>
      </trkpt>
      <trkpt lat="45.55255" lon="2.54122">
        <ele>667.69</ele>
        <time>2022-08-16T14:52:44Z</time>
      </trkpt>
      <trkpt lat="45.55247" lon="2.54119">
        <ele>667.75</ele>
        <time>2022-08-16T14:52:45Z</time>
      </trkpt>
      <trkpt lat="45.55238" lon="2.54118">
        <ele>668.85</ele>
        <time>2022-08-16T14:52:46Z</time>
      </trkpt>
      <trkpt lat="45.5523" lon="2.54117">
        <ele>668.88</ele>
        <time>2022-08-16T14:52:47Z</time>
      </trkpt>
      <trkpt lat="45.55221" lon="2.54116">
        <ele>668.89</ele>
        <time>2022-08-16T14:52:48Z</time>
      </trkpt>
      <trkpt lat="45.55212" lon="2.54115">
        <ele>669.74</ele>
        <time>2022-08-16T14:52:49Z</time>
      </trkpt>
      <trkpt lat="45.55204" lon="2.54112">
        <ele>669.76</ele>
        <time>2022-08-16T14:52:50Z</time>
      </trkpt>
      <trkpt lat="45.55196" lon="2.54108">
        <ele>670.75</ele>
        <time>2022-08-16T14:52:51Z</time>
      </trkpt>
      <trkpt lat="45.55188" lon="2.54104">
        <ele>670.72</ele>
        <time>2022-08-16T14:52:52Z</time>
      </trkpt>
      <trkpt lat="45.5518" lon="2.54098">
        <ele>671.75</ele>
        <time>2022-08-16T14:52:53Z</time>
      </trkpt>
      <trkpt lat="45.55173" lon="2.54092">
        <ele>671.83</ele>
        <time>2022-08-16T14:52:54Z</time>
      </trkpt>
      <trkpt lat="45.55167" lon="2.54085">
        <ele>672.61</ele>
        <time>2022-08-16T14:52:55Z</time>
      </trkpt>
      <trkpt lat="45.55142" lon="2.54056">
        <ele>674.69</ele>
        <time>2022-08-16T14:52:59Z</time>
      </trkpt>
      <trkpt lat="45.55124" lon="2.54034">
        <ele>676.41</ele>
        <time>2022-08-16T14:53:02Z</time>
      </trkpt>
      <trkpt lat="45.55083" lon="2.53981">
        <ele>680.35</ele>
        <time>2022-08-16T14:53:09Z</time>
      </trkpt>
      <trkpt lat="45.55033" lon="2.53917">
        <ele>683.13</ele>
        <time>2022-08-16T14:53:19Z</time>
      </trkpt>
      <trkpt lat="45.55024" lon="2.53894">
        <ele>683.96</ele>
        <time>2022-08-16T14:53:22Z</time>
      </trkpt>
      <trkpt lat="45.55022" lon="2.53886">
        <ele>683.97</ele>
        <time>2022-08-16T14:53:23Z</time>
      </trkpt>
      <trkpt lat="45.55021" lon="2.53877">
        <ele>683.99</ele>
        <time>2022-08-16T14:53:24Z</time>
      </trkpt>
      <trkpt lat="45.5502" lon="2.53869">
        <ele>684</ele>
        <time>2022-08-16T14:53:25Z</time>
      </trkpt>
      <trkpt lat="45.5502" lon="2.53862">
        <ele>683.98</ele>
        <time>2022-08-16T14:53:26Z</time>
      </trkpt>
      <trkpt lat="45.55019" lon="2.53847">
        <ele>685.39</ele>
        <time>2022-08-16T14:53:28Z</time>
      </trkpt>
      <trkpt lat="45.55019" lon="2.53841">
        <ele>685.43</ele>
        <time>2022-08-16T14:53:29Z</time>
      </trkpt>
      <trkpt lat="45.55018" lon="2.53835">
        <ele>685.42</ele>
        <time>2022-08-16T14:53:30Z</time>
      </trkpt>
      <trkpt lat="45.55015" lon="2.53828">
        <ele>685.27</ele>
        <time>2022-08-16T14:53:31Z</time>
      </trkpt>
      <trkpt lat="45.55012" lon="2.53822">
        <ele>686.27</ele>
        <time>2022-08-16T14:53:32Z</time>
      </trkpt>
      <trkpt lat="45.55008" lon="2.53815">
        <ele>686.33</ele>
        <time>2022-08-16T14:53:33Z</time>
      </trkpt>
      <trkpt lat="45.55004" lon="2.53808">
        <ele>687.19</ele>
        <time>2022-08-16T14:53:34Z</time>
      </trkpt>
      <trkpt lat="45.54996" lon="2.53794">
        <ele>687.25</ele>
        <time>2022-08-16T14:53:36Z</time>
      </trkpt>
      <trkpt lat="45.54994" lon="2.53787">
        <ele>687.26</ele>
        <time>2022-08-16T14:53:37Z</time>
      </trkpt>
      <trkpt lat="45.54993" lon="2.5378">
        <ele>688.07</ele>
        <time>2022-08-16T14:53:38Z</time>
      </trkpt>
      <trkpt lat="45.54993" lon="2.53773">
        <ele>688.11</ele>
        <time>2022-08-16T14:53:39Z</time>
      </trkpt>
      <trkpt lat="45.54994" lon="2.53766">
        <ele>688.11</ele>
        <time>2022-08-16T14:53:40Z</time>
      </trkpt>
      <trkpt lat="45.54996" lon="2.53759">
        <ele>689.22</ele>
        <time>2022-08-16T14:53:41Z</time>
      </trkpt>
      <trkpt lat="45.54998" lon="2.53753">
        <ele>689.27</ele>
        <time>2022-08-16T14:53:42Z</time>
      </trkpt>
      <trkpt lat="45.55002" lon="2.53748">
        <ele>689.3</ele>
        <time>2022-08-16T14:53:43Z</time>
      </trkpt>
      <trkpt lat="45.55006" lon="2.53745">
        <ele>690.12</ele>
        <time>2022-08-16T14:53:44Z</time>
      </trkpt>
      <trkpt lat="45.5501" lon="2.53742">
        <ele>690.16</ele>
        <time>2022-08-16T14:53:45Z</time>
      </trkpt>
      <trkpt lat="45.55015" lon="2.53742">
        <ele>691.28</ele>
        <time>2022-08-16T14:53:46Z</time>
      </trkpt>
      <trkpt lat="45.5502" lon="2.53744">
        <ele>691.3</ele>
        <time>2022-08-16T14:53:47Z</time>
      </trkpt>
      <trkpt lat="45.55024" lon="2.53747">
        <ele>692.55</ele>
        <time>2022-08-16T14:53:48Z</time>
      </trkpt>
      <trkpt lat="45.55028" lon="2.53751">
        <ele>692.57</ele>
        <time>2022-08-16T14:53:49Z</time>
      </trkpt>
      <trkpt lat="45.55031" lon="2.53757">
        <ele>692.62</ele>
        <time>2022-08-16T14:53:50Z</time>
      </trkpt>
      <trkpt lat="45.55033" lon="2.53764">
        <ele>693.7</ele>
        <time>2022-08-16T14:53:51Z</time>
      </trkpt>
      <trkpt lat="45.55035" lon="2.53771">
        <ele>693.68</ele>
        <time>2022-08-16T14:53:52Z</time>
      </trkpt>
      <trkpt lat="45.55036" lon="2.53779">
        <ele>694.45</ele>
        <time>2022-08-16T14:53:53Z</time>
      </trkpt>
      <trkpt lat="45.55038" lon="2.53788">
        <ele>694.5</ele>
        <time>2022-08-16T14:53:54Z</time>
      </trkpt>
      <trkpt lat="45.55041" lon="2.53795">
        <ele>694.55</ele>
        <time>2022-08-16T14:53:55Z</time>
      </trkpt>
      <trkpt lat="45.55045" lon="2.53803">
        <ele>695.2</ele>
        <time>2022-08-16T14:53:56Z</time>
      </trkpt>
      <trkpt lat="45.55049" lon="2.53809">
        <ele>696.02</ele>
        <time>2022-08-16T14:53:57Z</time>
      </trkpt>
      <trkpt lat="45.55054" lon="2.53814">
        <ele>696.03</ele>
        <time>2022-08-16T14:53:58Z</time>
      </trkpt>
      <trkpt lat="45.55058" lon="2.53819">
        <ele>696.04</ele>
        <time>2022-08-16T14:53:59Z</time>
      </trkpt>
      <trkpt lat="45.55063" lon="2.53823">
        <ele>696.06</ele>
        <time>2022-08-16T14:54:00Z</time>
      </trkpt>
      <trkpt lat="45.55068" lon="2.53827">
        <ele>696.87</ele>
        <time>2022-08-16T14:54:01Z</time>
      </trkpt>
      <trkpt lat="45.5512" lon="2.5387">
        <ele>700.37</ele>
        <time>2022-08-16T14:54:12Z</time>
      </trkpt>
      <trkpt lat="45.55129" lon="2.53877">
        <ele>701.24</ele>
        <time>2022-08-16T14:54:14Z</time>
      </trkpt>
      <trkpt lat="45.55149" lon="2.53895">
        <ele>704.33</ele>
        <time>2022-08-16T14:54:19Z</time>
      </trkpt>
      <trkpt lat="45.55153" lon="2.53897">
        <ele>704.38</ele>
        <time>2022-08-16T14:54:20Z</time>
      </trkpt>
      <trkpt lat="45.55156" lon="2.53896">
        <ele>705.12</ele>
        <time>2022-08-16T14:54:21Z</time>
      </trkpt>
      <trkpt lat="45.55158" lon="2.53892">
        <ele>705.14</ele>
        <time>2022-08-16T14:54:22Z</time>
      </trkpt>
      <trkpt lat="45.55158" lon="2.53886">
        <ele>706.42</ele>
        <time>2022-08-16T14:54:23Z</time>
      </trkpt>
      <trkpt lat="45.55157" lon="2.53879">
        <ele>706.49</ele>
        <time>2022-08-16T14:54:24Z</time>
      </trkpt>
      <trkpt lat="45.55156" lon="2.53872">
        <ele>707.45</ele>
        <time>2022-08-16T14:54:25Z</time>
      </trkpt>
      <trkpt lat="45.55154" lon="2.53865">
        <ele>707.51</ele>
        <time>2022-08-16T14:54:26Z</time>
      </trkpt>
      <trkpt lat="45.55153" lon="2.53858">
        <ele>708.37</ele>
        <time>2022-08-16T14:54:27Z</time>
      </trkpt>
      <trkpt lat="45.55153" lon="2.5385">
        <ele>709.48</ele>
        <time>2022-08-16T14:54:28Z</time>
      </trkpt>
      <trkpt lat="45.55153" lon="2.53842">
        <ele>709.5</ele>
        <time>2022-08-16T14:54:29Z</time>
      </trkpt>
      <trkpt lat="45.55153" lon="2.53833">
        <ele>710.35</ele>
        <time>2022-08-16T14:54:30Z</time>
      </trkpt>
      <trkpt lat="45.55154" lon="2.5381">
        <ele>710.47</ele>
        <time>2022-08-16T14:54:33Z</time>
      </trkpt>
      <trkpt lat="45.55153" lon="2.53803">
        <ele>711.83</ele>
        <time>2022-08-16T14:54:34Z</time>
      </trkpt>
      <trkpt lat="45.55152" lon="2.53796">
        <ele>711.9</ele>
        <time>2022-08-16T14:54:35Z</time>
      </trkpt>
      <trkpt lat="45.55151" lon="2.53789">
        <ele>711.9</ele>
        <time>2022-08-16T14:54:36Z</time>
      </trkpt>
      <trkpt lat="45.55151" lon="2.53782">
        <ele>711.91</ele>
        <time>2022-08-16T14:54:37Z</time>
      </trkpt>
      <trkpt lat="45.55152" lon="2.53775">
        <ele>711.95</ele>
        <time>2022-08-16T14:54:38Z</time>
      </trkpt>
      <trkpt lat="45.55154" lon="2.53769">
        <ele>711.95</ele>
        <time>2022-08-16T14:54:39Z</time>
      </trkpt>
      <trkpt lat="45.55157" lon="2.53762">
        <ele>711.98</ele>
        <time>2022-08-16T14:54:40Z</time>
      </trkpt>
      <trkpt lat="45.5517" lon="2.53728">
        <ele>711.79</ele>
        <time>2022-08-16T14:54:45Z</time>
      </trkpt>
      <trkpt lat="45.55172" lon="2.53721">
        <ele>711.8</ele>
        <time>2022-08-16T14:54:46Z</time>
      </trkpt>
      <trkpt lat="45.55183" lon="2.53634">
        <ele>713.32</ele>
        <time>2022-08-16T14:54:55Z</time>
      </trkpt>
      <trkpt lat="45.55185" lon="2.53508">
        <ele>715.29</ele>
        <time>2022-08-16T14:55:08Z</time>
      </trkpt>
      <trkpt lat="45.55184" lon="2.53468">
        <ele>716.23</ele>
        <time>2022-08-16T14:55:12Z</time>
      </trkpt>
      <trkpt lat="45.55182" lon="2.53459">
        <ele>716.27</ele>
        <time>2022-08-16T14:55:13Z</time>
      </trkpt>
      <trkpt lat="45.55179" lon="2.5345">
        <ele>717.64</ele>
        <time>2022-08-16T14:55:14Z</time>
      </trkpt>
      <trkpt lat="45.55176" lon="2.53442">
        <ele>717.68</ele>
        <time>2022-08-16T14:55:15Z</time>
      </trkpt>
      <trkpt lat="45.55163" lon="2.53395">
        <ele>720.1</ele>
        <time>2022-08-16T14:55:20Z</time>
      </trkpt>
      <trkpt lat="45.55157" lon="2.53376">
        <ele>721.58</ele>
        <time>2022-08-16T14:55:22Z</time>
      </trkpt>
      <trkpt lat="45.55149" lon="2.53347">
        <ele>722.88</ele>
        <time>2022-08-16T14:55:25Z</time>
      </trkpt>
      <trkpt lat="45.55144" lon="2.53319">
        <ele>725.05</ele>
        <time>2022-08-16T14:55:28Z</time>
      </trkpt>
      <trkpt lat="45.55143" lon="2.5331">
        <ele>726.02</ele>
        <time>2022-08-16T14:55:29Z</time>
      </trkpt>
      <trkpt lat="45.55143" lon="2.53302">
        <ele>726.93</ele>
        <time>2022-08-16T14:55:30Z</time>
      </trkpt>
      <trkpt lat="45.55143" lon="2.53293">
        <ele>726.97</ele>
        <time>2022-08-16T14:55:31Z</time>
      </trkpt>
      <trkpt lat="45.55141" lon="2.53147">
        <ele>728.65</ele>
        <time>2022-08-16T14:55:46Z</time>
      </trkpt>
      <trkpt lat="45.55137" lon="2.53084">
        <ele>731.67</ele>
        <time>2022-08-16T14:55:53Z</time>
      </trkpt>
      <trkpt lat="45.55134" lon="2.53067">
        <ele>731.74</ele>
        <time>2022-08-16T14:55:55Z</time>
      </trkpt>
      <trkpt lat="45.55131" lon="2.53059">
        <ele>732.68</ele>
        <time>2022-08-16T14:55:56Z</time>
      </trkpt>
      <trkpt lat="45.55129" lon="2.53052">
        <ele>732.72</ele>
        <time>2022-08-16T14:55:57Z</time>
      </trkpt>
      <trkpt lat="45.55126" lon="2.53046">
        <ele>732.74</ele>
        <time>2022-08-16T14:55:58Z</time>
      </trkpt>
      <trkpt lat="45.55122" lon="2.53039">
        <ele>732.76</ele>
        <time>2022-08-16T14:55:59Z</time>
      </trkpt>
      <trkpt lat="45.55086" lon="2.52972">
        <ele>732.67</ele>
        <time>2022-08-16T14:56:09Z</time>
      </trkpt>
      <trkpt lat="45.55082" lon="2.52958">
        <ele>730.23</ele>
        <time>2022-08-16T14:56:11Z</time>
      </trkpt>
      <trkpt lat="45.55081" lon="2.52951">
        <ele>730.23</ele>
        <time>2022-08-16T14:56:12Z</time>
      </trkpt>
      <trkpt lat="45.55081" lon="2.52943">
        <ele>730.24</ele>
        <time>2022-08-16T14:56:13Z</time>
      </trkpt>
      <trkpt lat="45.55081" lon="2.52917">
        <ele>728.77</ele>
        <time>2022-08-16T14:56:16Z</time>
      </trkpt>
      <trkpt lat="45.55079" lon="2.5281">
        <ele>725.22</ele>
        <time>2022-08-16T14:56:29Z</time>
      </trkpt>
      <trkpt lat="45.55074" lon="2.52763">
        <ele>722.2</ele>
        <time>2022-08-16T14:56:35Z</time>
      </trkpt>
      <trkpt lat="45.5507" lon="2.52731">
        <ele>719.86</ele>
        <time>2022-08-16T14:56:39Z</time>
      </trkpt>
      <trkpt lat="45.55069" lon="2.52723">
        <ele>718.86</ele>
        <time>2022-08-16T14:56:40Z</time>
      </trkpt>
      <trkpt lat="45.55069" lon="2.52714">
        <ele>718.84</ele>
        <time>2022-08-16T14:56:41Z</time>
      </trkpt>
      <trkpt lat="45.55069" lon="2.52698">
        <ele>717.41</ele>
        <time>2022-08-16T14:56:43Z</time>
      </trkpt>
      <trkpt lat="45.55067" lon="2.52658">
        <ele>714.71</ele>
        <time>2022-08-16T14:56:48Z</time>
      </trkpt>
      <trkpt lat="45.55066" lon="2.52634">
        <ele>712.97</ele>
        <time>2022-08-16T14:56:51Z</time>
      </trkpt>
      <trkpt lat="45.55062" lon="2.52585">
        <ele>709.54</ele>
        <time>2022-08-16T14:56:57Z</time>
      </trkpt>
      <trkpt lat="45.5506" lon="2.52552">
        <ele>706.99</ele>
        <time>2022-08-16T14:57:01Z</time>
      </trkpt>
      <trkpt lat="45.55059" lon="2.52526">
        <ele>705.7</ele>
        <time>2022-08-16T14:57:04Z</time>
      </trkpt>
      <trkpt lat="45.55054" lon="2.52466">
        <ele>702.06</ele>
        <time>2022-08-16T14:57:12Z</time>
      </trkpt>
      <trkpt lat="45.55053" lon="2.52458">
        <ele>702.05</ele>
        <time>2022-08-16T14:57:13Z</time>
      </trkpt>
      <trkpt lat="45.55034" lon="2.52348">
        <ele>699.3</ele>
        <time>2022-08-16T14:57:25Z</time>
      </trkpt>
      <trkpt lat="45.55033" lon="2.52338">
        <ele>699.26</ele>
        <time>2022-08-16T14:57:26Z</time>
      </trkpt>
      <trkpt lat="45.55033" lon="2.52311">
        <ele>697.56</ele>
        <time>2022-08-16T14:57:29Z</time>
      </trkpt>
      <trkpt lat="45.55044" lon="2.52259">
        <ele>696.63</ele>
        <time>2022-08-16T14:57:35Z</time>
      </trkpt>
      <trkpt lat="45.55069" lon="2.52165">
        <ele>692.71</ele>
        <time>2022-08-16T14:57:49Z</time>
      </trkpt>
      <trkpt lat="45.55068" lon="2.52148">
        <ele>690.96</ele>
        <time>2022-08-16T14:57:52Z</time>
      </trkpt>
      <trkpt lat="45.55063" lon="2.52128">
        <ele>688.93</ele>
        <time>2022-08-16T14:57:56Z</time>
      </trkpt>
      <trkpt lat="45.55058" lon="2.52119">
        <ele>687.08</ele>
        <time>2022-08-16T14:58:05Z</time>
      </trkpt>
      <trkpt lat="45.55053" lon="2.52118">
        <ele>686.83</ele>
        <time>2022-08-16T14:58:54Z</time>
      </trkpt>
      <trkpt lat="45.55052" lon="2.52118">
        <ele>686.84</ele>
        <time>2022-08-16T14:58:55Z</time>
      </trkpt>
      <trkpt lat="45.55052" lon="2.52119">
        <ele>686.95</ele>
        <time>2022-08-16T14:59:05Z</time>
      </trkpt>
      <trkpt lat="45.55053" lon="2.5212">
        <ele>687.1</ele>
        <time>2022-08-16T14:59:18Z</time>
      </trkpt>
      <trkpt lat="45.55054" lon="2.52123">
        <ele>687.26</ele>
        <time>2022-08-16T14:59:31Z</time>
      </trkpt>
      <trkpt lat="45.55055" lon="2.52125">
        <ele>687.61</ele>
        <time>2022-08-16T15:00:01Z</time>
      </trkpt>
      <trkpt lat="45.55057" lon="2.52123">
        <ele>690.62</ele>
        <time>2022-08-16T15:00:54Z</time>
      </trkpt>
      <trkpt lat="45.5506" lon="2.52125">
        <ele>690.94</ele>
        <time>2022-08-16T15:01:19Z</time>
      </trkpt>
      <trkpt lat="45.55061" lon="2.52128">
        <ele>690.96</ele>
        <time>2022-08-16T15:01:20Z</time>
      </trkpt>
      <trkpt lat="45.55064" lon="2.52134">
        <ele>690.96</ele>
        <time>2022-08-16T15:01:21Z</time>
      </trkpt>
      <trkpt lat="45.55066" lon="2.52141">
        <ele>691.95</ele>
        <time>2022-08-16T15:01:22Z</time>
      </trkpt>
      <trkpt lat="45.55068" lon="2.52149">
        <ele>693.38</ele>
        <time>2022-08-16T15:01:23Z</time>
      </trkpt>
      <trkpt lat="45.55069" lon="2.5216">
        <ele>694.9</ele>
        <time>2022-08-16T15:01:24Z</time>
      </trkpt>
      <trkpt lat="45.55069" lon="2.52172">
        <ele>695.96</ele>
        <time>2022-08-16T15:01:25Z</time>
      </trkpt>
      <trkpt lat="45.55068" lon="2.52185">
        <ele>697.18</ele>
        <time>2022-08-16T15:01:26Z</time>
      </trkpt>
      <trkpt lat="45.55066" lon="2.52197">
        <ele>697.27</ele>
        <time>2022-08-16T15:01:27Z</time>
      </trkpt>
      <trkpt lat="45.55064" lon="2.52207">
        <ele>698.56</ele>
        <time>2022-08-16T15:01:28Z</time>
      </trkpt>
      <trkpt lat="45.5506" lon="2.52216">
        <ele>699.22</ele>
        <time>2022-08-16T15:01:29Z</time>
      </trkpt>
      <trkpt lat="45.55057" lon="2.52226">
        <ele>699.23</ele>
        <time>2022-08-16T15:01:30Z</time>
      </trkpt>
      <trkpt lat="45.55045" lon="2.52255">
        <ele>699.33</ele>
        <time>2022-08-16T15:01:33Z</time>
      </trkpt>
      <trkpt lat="45.55036" lon="2.52286">
        <ele>700.57</ele>
        <time>2022-08-16T15:01:36Z</time>
      </trkpt>
      <trkpt lat="45.55034" lon="2.52297">
        <ele>701.41</ele>
        <time>2022-08-16T15:01:37Z</time>
      </trkpt>
      <trkpt lat="45.55032" lon="2.5231">
        <ele>701.5</ele>
        <time>2022-08-16T15:01:38Z</time>
      </trkpt>
      <trkpt lat="45.55031" lon="2.52323">
        <ele>702.88</ele>
        <time>2022-08-16T15:01:39Z</time>
      </trkpt>
      <trkpt lat="45.55031" lon="2.52337">
        <ele>702.87</ele>
        <time>2022-08-16T15:01:40Z</time>
      </trkpt>
      <trkpt lat="45.55032" lon="2.5235">
        <ele>702.84</ele>
        <time>2022-08-16T15:01:41Z</time>
      </trkpt>
      <trkpt lat="45.55033" lon="2.52363">
        <ele>703.89</ele>
        <time>2022-08-16T15:01:42Z</time>
      </trkpt>
      <trkpt lat="45.55035" lon="2.52376">
        <ele>703.95</ele>
        <time>2022-08-16T15:01:43Z</time>
      </trkpt>
      <trkpt lat="45.55044" lon="2.52428">
        <ele>706.36</ele>
        <time>2022-08-16T15:01:47Z</time>
      </trkpt>
      <trkpt lat="45.5505" lon="2.52464">
        <ele>707.63</ele>
        <time>2022-08-16T15:01:50Z</time>
      </trkpt>
      <trkpt lat="45.55058" lon="2.52546">
        <ele>711.7</ele>
        <time>2022-08-16T15:01:56Z</time>
      </trkpt>
      <trkpt lat="45.55059" lon="2.52559">
        <ele>711.76</ele>
        <time>2022-08-16T15:01:57Z</time>
      </trkpt>
      <trkpt lat="45.55062" lon="2.52603">
        <ele>714.79</ele>
        <time>2022-08-16T15:02:00Z</time>
      </trkpt>
      <trkpt lat="45.55065" lon="2.52646">
        <ele>718.43</ele>
        <time>2022-08-16T15:02:03Z</time>
      </trkpt>
      <trkpt lat="45.55067" lon="2.52696">
        <ele>722.19</ele>
        <time>2022-08-16T15:02:06Z</time>
      </trkpt>
      <trkpt lat="45.55069" lon="2.52742">
        <ele>724.8</ele>
        <time>2022-08-16T15:02:09Z</time>
      </trkpt>
      <trkpt lat="45.55073" lon="2.52784">
        <ele>727.65</ele>
        <time>2022-08-16T15:02:12Z</time>
      </trkpt>
      <trkpt lat="45.55077" lon="2.52829">
        <ele>731.43</ele>
        <time>2022-08-16T15:02:15Z</time>
      </trkpt>
      <trkpt lat="45.55079" lon="2.52883">
        <ele>735.49</ele>
        <time>2022-08-16T15:02:18Z</time>
      </trkpt>
      <trkpt lat="45.55079" lon="2.529">
        <ele>735.5</ele>
        <time>2022-08-16T15:02:19Z</time>
      </trkpt>
      <trkpt lat="45.55081" lon="2.52962">
        <ele>736.58</ele>
        <time>2022-08-16T15:02:24Z</time>
      </trkpt>
      <trkpt lat="45.55082" lon="2.52971">
        <ele>736.66</ele>
        <time>2022-08-16T15:02:25Z</time>
      </trkpt>
      <trkpt lat="45.55085" lon="2.52979">
        <ele>737.64</ele>
        <time>2022-08-16T15:02:26Z</time>
      </trkpt>
      <trkpt lat="45.55088" lon="2.52988">
        <ele>737.74</ele>
        <time>2022-08-16T15:02:27Z</time>
      </trkpt>
      <trkpt lat="45.55092" lon="2.52996">
        <ele>737.72</ele>
        <time>2022-08-16T15:02:28Z</time>
      </trkpt>
      <trkpt lat="45.55096" lon="2.53003">
        <ele>738.9</ele>
        <time>2022-08-16T15:02:29Z</time>
      </trkpt>
      <trkpt lat="45.551" lon="2.53011">
        <ele>738.97</ele>
        <time>2022-08-16T15:02:30Z</time>
      </trkpt>
      <trkpt lat="45.5513" lon="2.53068">
        <ele>740.91</ele>
        <time>2022-08-16T15:02:37Z</time>
      </trkpt>
      <trkpt lat="45.55133" lon="2.53076">
        <ele>740.95</ele>
        <time>2022-08-16T15:02:38Z</time>
      </trkpt>
      <trkpt lat="45.55135" lon="2.53084">
        <ele>740.96</ele>
        <time>2022-08-16T15:02:39Z</time>
      </trkpt>
      <trkpt lat="45.55136" lon="2.53091">
        <ele>740.94</ele>
        <time>2022-08-16T15:02:40Z</time>
      </trkpt>
      <trkpt lat="45.55137" lon="2.53098">
        <ele>740.96</ele>
        <time>2022-08-16T15:02:41Z</time>
      </trkpt>
      <trkpt lat="45.55137" lon="2.53104">
        <ele>741</ele>
        <time>2022-08-16T15:02:42Z</time>
      </trkpt>
      <trkpt lat="45.55139" lon="2.53125">
        <ele>737.99</ele>
        <time>2022-08-16T15:02:45Z</time>
      </trkpt>
      <trkpt lat="45.55139" lon="2.53132">
        <ele>737.97</ele>
        <time>2022-08-16T15:02:46Z</time>
      </trkpt>
      <trkpt lat="45.5514" lon="2.53241">
        <ele>736.06</ele>
        <time>2022-08-16T15:02:58Z</time>
      </trkpt>
      <trkpt lat="45.55142" lon="2.53334">
        <ele>735.16</ele>
        <time>2022-08-16T15:03:09Z</time>
      </trkpt>
      <trkpt lat="45.55144" lon="2.53343">
        <ele>735.17</ele>
        <time>2022-08-16T15:03:10Z</time>
      </trkpt>
      <trkpt lat="45.55152" lon="2.53372">
        <ele>732.53</ele>
        <time>2022-08-16T15:03:13Z</time>
      </trkpt>
      <trkpt lat="45.55165" lon="2.53423">
        <ele>729.27</ele>
        <time>2022-08-16T15:03:18Z</time>
      </trkpt>
      <trkpt lat="45.55168" lon="2.53433">
        <ele>729.23</ele>
        <time>2022-08-16T15:03:19Z</time>
      </trkpt>
      <trkpt lat="45.55174" lon="2.53454">
        <ele>727.65</ele>
        <time>2022-08-16T15:03:21Z</time>
      </trkpt>
      <trkpt lat="45.55179" lon="2.53475">
        <ele>726.33</ele>
        <time>2022-08-16T15:03:23Z</time>
      </trkpt>
      <trkpt lat="45.5518" lon="2.53486">
        <ele>726.28</ele>
        <time>2022-08-16T15:03:24Z</time>
      </trkpt>
      <trkpt lat="45.55181" lon="2.53538">
        <ele>723.76</ele>
        <time>2022-08-16T15:03:29Z</time>
      </trkpt>
      <trkpt lat="45.55173" lon="2.53707">
        <ele>721.43</ele>
        <time>2022-08-16T15:03:45Z</time>
      </trkpt>
      <trkpt lat="45.55168" lon="2.53736">
        <ele>721.44</ele>
        <time>2022-08-16T15:03:48Z</time>
      </trkpt>
      <trkpt lat="45.55165" lon="2.53744">
        <ele>721.45</ele>
        <time>2022-08-16T15:03:49Z</time>
      </trkpt>
      <trkpt lat="45.55152" lon="2.53775">
        <ele>721.51</ele>
        <time>2022-08-16T15:03:53Z</time>
      </trkpt>
      <trkpt lat="45.55151" lon="2.53783">
        <ele>721.51</ele>
        <time>2022-08-16T15:03:54Z</time>
      </trkpt>
      <trkpt lat="45.5515" lon="2.53791">
        <ele>721.51</ele>
        <time>2022-08-16T15:03:55Z</time>
      </trkpt>
      <trkpt lat="45.55151" lon="2.53799">
        <ele>721.52</ele>
        <time>2022-08-16T15:03:56Z</time>
      </trkpt>
      <trkpt lat="45.55152" lon="2.53806">
        <ele>721.52</ele>
        <time>2022-08-16T15:03:57Z</time>
      </trkpt>
      <trkpt lat="45.55153" lon="2.53814">
        <ele>721.56</ele>
        <time>2022-08-16T15:03:58Z</time>
      </trkpt>
      <trkpt lat="45.55153" lon="2.53822">
        <ele>720.8</ele>
        <time>2022-08-16T15:03:59Z</time>
      </trkpt>
      <trkpt lat="45.55152" lon="2.5383">
        <ele>720.79</ele>
        <time>2022-08-16T15:04:00Z</time>
      </trkpt>
      <trkpt lat="45.55151" lon="2.53863">
        <ele>719.02</ele>
        <time>2022-08-16T15:04:04Z</time>
      </trkpt>
      <trkpt lat="45.55151" lon="2.5387">
        <ele>719</ele>
        <time>2022-08-16T15:04:05Z</time>
      </trkpt>
      <trkpt lat="45.55152" lon="2.53877">
        <ele>718.07</ele>
        <time>2022-08-16T15:04:06Z</time>
      </trkpt>
      <trkpt lat="45.55152" lon="2.53892">
        <ele>716.14</ele>
        <time>2022-08-16T15:04:09Z</time>
      </trkpt>
      <trkpt lat="45.55149" lon="2.53895">
        <ele>716.15</ele>
        <time>2022-08-16T15:04:10Z</time>
      </trkpt>
      <trkpt lat="45.55145" lon="2.53895">
        <ele>715.4</ele>
        <time>2022-08-16T15:04:11Z</time>
      </trkpt>
      <trkpt lat="45.5514" lon="2.53892">
        <ele>714.59</ele>
        <time>2022-08-16T15:04:12Z</time>
      </trkpt>
      <trkpt lat="45.55135" lon="2.53887">
        <ele>714.55</ele>
        <time>2022-08-16T15:04:13Z</time>
      </trkpt>
      <trkpt lat="45.5513" lon="2.53883">
        <ele>713.26</ele>
        <time>2022-08-16T15:04:14Z</time>
      </trkpt>
      <trkpt lat="45.55125" lon="2.53877">
        <ele>713.15</ele>
        <time>2022-08-16T15:04:15Z</time>
      </trkpt>
      <trkpt lat="45.55114" lon="2.53867">
        <ele>711.96</ele>
        <time>2022-08-16T15:04:17Z</time>
      </trkpt>
      <trkpt lat="45.55103" lon="2.53856">
        <ele>710.27</ele>
        <time>2022-08-16T15:04:19Z</time>
      </trkpt>
      <trkpt lat="45.55081" lon="2.53837">
        <ele>708.25</ele>
        <time>2022-08-16T15:04:23Z</time>
      </trkpt>
      <trkpt lat="45.55075" lon="2.53833">
        <ele>708.25</ele>
        <time>2022-08-16T15:04:24Z</time>
      </trkpt>
      <trkpt lat="45.55069" lon="2.5383">
        <ele>708.74</ele>
        <time>2022-08-16T15:04:25Z</time>
      </trkpt>
      <trkpt lat="45.55063" lon="2.53825">
        <ele>708.27</ele>
        <time>2022-08-16T15:04:26Z</time>
      </trkpt>
      <trkpt lat="45.55057" lon="2.5382">
        <ele>707.44</ele>
        <time>2022-08-16T15:04:27Z</time>
      </trkpt>
      <trkpt lat="45.55052" lon="2.53813">
        <ele>707.45</ele>
        <time>2022-08-16T15:04:28Z</time>
      </trkpt>
      <trkpt lat="45.55046" lon="2.53805">
        <ele>706.62</ele>
        <time>2022-08-16T15:04:29Z</time>
      </trkpt>
      <trkpt lat="45.55042" lon="2.53795">
        <ele>706.64</ele>
        <time>2022-08-16T15:04:30Z</time>
      </trkpt>
      <trkpt lat="45.55039" lon="2.53785">
        <ele>705.78</ele>
        <time>2022-08-16T15:04:31Z</time>
      </trkpt>
      <trkpt lat="45.55037" lon="2.53774">
        <ele>705.81</ele>
        <time>2022-08-16T15:04:32Z</time>
      </trkpt>
      <trkpt lat="45.55034" lon="2.53763">
        <ele>705.8</ele>
        <time>2022-08-16T15:04:33Z</time>
      </trkpt>
      <trkpt lat="45.5503" lon="2.53755">
        <ele>704.63</ele>
        <time>2022-08-16T15:04:34Z</time>
      </trkpt>
      <trkpt lat="45.55025" lon="2.53748">
        <ele>704.61</ele>
        <time>2022-08-16T15:04:35Z</time>
      </trkpt>
      <trkpt lat="45.55019" lon="2.53745">
        <ele>703.81</ele>
        <time>2022-08-16T15:04:36Z</time>
      </trkpt>
      <trkpt lat="45.55013" lon="2.53743">
        <ele>703.79</ele>
        <time>2022-08-16T15:04:37Z</time>
      </trkpt>
      <trkpt lat="45.55007" lon="2.53745">
        <ele>702.45</ele>
        <time>2022-08-16T15:04:38Z</time>
      </trkpt>
      <trkpt lat="45.55002" lon="2.53749">
        <ele>702.44</ele>
        <time>2022-08-16T15:04:39Z</time>
      </trkpt>
      <trkpt lat="45.54998" lon="2.53756">
        <ele>700.74</ele>
        <time>2022-08-16T15:04:40Z</time>
      </trkpt>
      <trkpt lat="45.54995" lon="2.53764">
        <ele>700.71</ele>
        <time>2022-08-16T15:04:41Z</time>
      </trkpt>
      <trkpt lat="45.54994" lon="2.53773">
        <ele>700.7</ele>
        <time>2022-08-16T15:04:42Z</time>
      </trkpt>
      <trkpt lat="45.54995" lon="2.53782">
        <ele>699.72</ele>
        <time>2022-08-16T15:04:43Z</time>
      </trkpt>
      <trkpt lat="45.54996" lon="2.53791">
        <ele>699.71</ele>
        <time>2022-08-16T15:04:44Z</time>
      </trkpt>
      <trkpt lat="45.54999" lon="2.53799">
        <ele>698.88</ele>
        <time>2022-08-16T15:04:45Z</time>
      </trkpt>
      <trkpt lat="45.55002" lon="2.53807">
        <ele>698.91</ele>
        <time>2022-08-16T15:04:46Z</time>
      </trkpt>
      <trkpt lat="45.55006" lon="2.53814">
        <ele>697.99</ele>
        <time>2022-08-16T15:04:47Z</time>
      </trkpt>
      <trkpt lat="45.5501" lon="2.5382">
        <ele>698.01</ele>
        <time>2022-08-16T15:04:48Z</time>
      </trkpt>
      <trkpt lat="45.55013" lon="2.53827">
        <ele>697.63</ele>
        <time>2022-08-16T15:04:49Z</time>
      </trkpt>
      <trkpt lat="45.55016" lon="2.53834">
        <ele>697.26</ele>
        <time>2022-08-16T15:04:50Z</time>
      </trkpt>
      <trkpt lat="45.55018" lon="2.53842">
        <ele>697.64</ele>
        <time>2022-08-16T15:04:51Z</time>
      </trkpt>
      <trkpt lat="45.55019" lon="2.5385">
        <ele>697.65</ele>
        <time>2022-08-16T15:04:52Z</time>
      </trkpt>
      <trkpt lat="45.5502" lon="2.53858">
        <ele>696.89</ele>
        <time>2022-08-16T15:04:53Z</time>
      </trkpt>
      <trkpt lat="45.5502" lon="2.53867">
        <ele>696.86</ele>
        <time>2022-08-16T15:04:54Z</time>
      </trkpt>
      <trkpt lat="45.5502" lon="2.53875">
        <ele>696.88</ele>
        <time>2022-08-16T15:04:55Z</time>
      </trkpt>
      <trkpt lat="45.55022" lon="2.53894">
        <ele>696.84</ele>
        <time>2022-08-16T15:04:57Z</time>
      </trkpt>
      <trkpt lat="45.55024" lon="2.53904">
        <ele>696.05</ele>
        <time>2022-08-16T15:04:58Z</time>
      </trkpt>
      <trkpt lat="45.55027" lon="2.53913">
        <ele>696.06</ele>
        <time>2022-08-16T15:04:59Z</time>
      </trkpt>
      <trkpt lat="45.5503" lon="2.53922">
        <ele>696.04</ele>
        <time>2022-08-16T15:05:00Z</time>
      </trkpt>
      <trkpt lat="45.55034" lon="2.53931">
        <ele>695.13</ele>
        <time>2022-08-16T15:05:01Z</time>
      </trkpt>
      <trkpt lat="45.55038" lon="2.5394">
        <ele>695.13</ele>
        <time>2022-08-16T15:05:02Z</time>
      </trkpt>
      <trkpt lat="45.55043" lon="2.53948">
        <ele>694.31</ele>
        <time>2022-08-16T15:05:03Z</time>
      </trkpt>
      <trkpt lat="45.55048" lon="2.53956">
        <ele>694.33</ele>
        <time>2022-08-16T15:05:04Z</time>
      </trkpt>
      <trkpt lat="45.55071" lon="2.53987">
        <ele>693.02</ele>
        <time>2022-08-16T15:05:08Z</time>
      </trkpt>
      <trkpt lat="45.55093" lon="2.54019">
        <ele>690.56</ele>
        <time>2022-08-16T15:05:12Z</time>
      </trkpt>
      <trkpt lat="45.55137" lon="2.5408">
        <ele>687.5</ele>
        <time>2022-08-16T15:05:18Z</time>
      </trkpt>
      <trkpt lat="45.55145" lon="2.54089">
        <ele>687.46</ele>
        <time>2022-08-16T15:05:19Z</time>
      </trkpt>
      <trkpt lat="45.55159" lon="2.54107">
        <ele>685.89</ele>
        <time>2022-08-16T15:05:21Z</time>
      </trkpt>
      <trkpt lat="45.55167" lon="2.54114">
        <ele>684.45</ele>
        <time>2022-08-16T15:05:22Z</time>
      </trkpt>
      <trkpt lat="45.55175" lon="2.54121">
        <ele>684.39</ele>
        <time>2022-08-16T15:05:23Z</time>
      </trkpt>
      <trkpt lat="45.55182" lon="2.54126">
        <ele>683.03</ele>
        <time>2022-08-16T15:05:24Z</time>
      </trkpt>
      <trkpt lat="45.55191" lon="2.5413">
        <ele>682.98</ele>
        <time>2022-08-16T15:05:25Z</time>
      </trkpt>
      <trkpt lat="45.552" lon="2.54133">
        <ele>681.65</ele>
        <time>2022-08-16T15:05:26Z</time>
      </trkpt>
      <trkpt lat="45.55208" lon="2.54135">
        <ele>681.53</ele>
        <time>2022-08-16T15:05:27Z</time>
      </trkpt>
      <trkpt lat="45.55216" lon="2.54136">
        <ele>680.8</ele>
        <time>2022-08-16T15:05:28Z</time>
      </trkpt>
      <trkpt lat="45.5524" lon="2.54138">
        <ele>679.31</ele>
        <time>2022-08-16T15:05:31Z</time>
      </trkpt>
      <trkpt lat="45.55249" lon="2.54142">
        <ele>679.32</ele>
        <time>2022-08-16T15:05:32Z</time>
      </trkpt>
      <trkpt lat="45.55257" lon="2.54148">
        <ele>678.25</ele>
        <time>2022-08-16T15:05:33Z</time>
      </trkpt>
      <trkpt lat="45.55265" lon="2.54154">
        <ele>678.25</ele>
        <time>2022-08-16T15:05:34Z</time>
      </trkpt>
      <trkpt lat="45.55272" lon="2.54162">
        <ele>676.84</ele>
        <time>2022-08-16T15:05:35Z</time>
      </trkpt>
      <trkpt lat="45.55279" lon="2.5417">
        <ele>676.83</ele>
        <time>2022-08-16T15:05:36Z</time>
      </trkpt>
      <trkpt lat="45.55293" lon="2.54189">
        <ele>675.58</ele>
        <time>2022-08-16T15:05:38Z</time>
      </trkpt>
      <trkpt lat="45.55311" lon="2.5421">
        <ele>673.9</ele>
        <time>2022-08-16T15:05:40Z</time>
      </trkpt>
      <trkpt lat="45.5532" lon="2.54217">
        <ele>672.44</ele>
        <time>2022-08-16T15:05:41Z</time>
      </trkpt>
      <trkpt lat="45.5534" lon="2.54231">
        <ele>672.23</ele>
        <time>2022-08-16T15:05:43Z</time>
      </trkpt>
      <trkpt lat="45.55349" lon="2.54235">
        <ele>670.49</ele>
        <time>2022-08-16T15:05:44Z</time>
      </trkpt>
      <trkpt lat="45.55358" lon="2.54238">
        <ele>670.49</ele>
        <time>2022-08-16T15:05:45Z</time>
      </trkpt>
      <trkpt lat="45.55367" lon="2.5424">
        <ele>669.39</ele>
        <time>2022-08-16T15:05:46Z</time>
      </trkpt>
      <trkpt lat="45.55377" lon="2.54243">
        <ele>669.39</ele>
        <time>2022-08-16T15:05:47Z</time>
      </trkpt>
      <trkpt lat="45.55388" lon="2.54243">
        <ele>667.61</ele>
        <time>2022-08-16T15:05:48Z</time>
      </trkpt>
      <trkpt lat="45.55398" lon="2.54243">
        <ele>667.54</ele>
        <time>2022-08-16T15:05:49Z</time>
      </trkpt>
      <trkpt lat="45.55428" lon="2.54243">
        <ele>665.64</ele>
        <time>2022-08-16T15:05:52Z</time>
      </trkpt>
      <trkpt lat="45.55437" lon="2.54241">
        <ele>664.48</ele>
        <time>2022-08-16T15:05:53Z</time>
      </trkpt>
      <trkpt lat="45.55473" lon="2.54234">
        <ele>660.92</ele>
        <time>2022-08-16T15:05:57Z</time>
      </trkpt>
      <trkpt lat="45.55481" lon="2.54233">
        <ele>661</ele>
        <time>2022-08-16T15:05:58Z</time>
      </trkpt>
      <trkpt lat="45.55487" lon="2.5423">
        <ele>660.93</ele>
        <time>2022-08-16T15:05:59Z</time>
      </trkpt>
      <trkpt lat="45.55504" lon="2.54226">
        <ele>659.45</ele>
        <time>2022-08-16T15:06:01Z</time>
      </trkpt>
      <trkpt lat="45.55512" lon="2.54223">
        <ele>658.21</ele>
        <time>2022-08-16T15:06:02Z</time>
      </trkpt>
      <trkpt lat="45.5552" lon="2.54219">
        <ele>657.77</ele>
        <time>2022-08-16T15:06:03Z</time>
      </trkpt>
      <trkpt lat="45.55536" lon="2.54211">
        <ele>656.27</ele>
        <time>2022-08-16T15:06:05Z</time>
      </trkpt>
      <trkpt lat="45.55544" lon="2.54207">
        <ele>655.44</ele>
        <time>2022-08-16T15:06:06Z</time>
      </trkpt>
      <trkpt lat="45.55551" lon="2.542">
        <ele>655.29</ele>
        <time>2022-08-16T15:06:07Z</time>
      </trkpt>
      <trkpt lat="45.55556" lon="2.54191">
        <ele>655.29</ele>
        <time>2022-08-16T15:06:08Z</time>
      </trkpt>
      <trkpt lat="45.55559" lon="2.5418">
        <ele>653.6</ele>
        <time>2022-08-16T15:06:09Z</time>
      </trkpt>
      <trkpt lat="45.55562" lon="2.54169">
        <ele>653.67</ele>
        <time>2022-08-16T15:06:10Z</time>
      </trkpt>
      <trkpt lat="45.55565" lon="2.54159">
        <ele>653.56</ele>
        <time>2022-08-16T15:06:11Z</time>
      </trkpt>
      <trkpt lat="45.55569" lon="2.5415">
        <ele>652.04</ele>
        <time>2022-08-16T15:06:12Z</time>
      </trkpt>
      <trkpt lat="45.55575" lon="2.54144">
        <ele>651.97</ele>
        <time>2022-08-16T15:06:13Z</time>
      </trkpt>
      <trkpt lat="45.55582" lon="2.5414">
        <ele>650.29</ele>
        <time>2022-08-16T15:06:14Z</time>
      </trkpt>
      <trkpt lat="45.55592" lon="2.54138">
        <ele>649.18</ele>
        <time>2022-08-16T15:06:15Z</time>
      </trkpt>
      <trkpt lat="45.55599" lon="2.5414">
        <ele>648.38</ele>
        <time>2022-08-16T15:06:16Z</time>
      </trkpt>
      <trkpt lat="45.55604" lon="2.54147">
        <ele>648.29</ele>
        <time>2022-08-16T15:06:17Z</time>
      </trkpt>
      <trkpt lat="45.55608" lon="2.54157">
        <ele>646.89</ele>
        <time>2022-08-16T15:06:18Z</time>
      </trkpt>
      <trkpt lat="45.55608" lon="2.54167">
        <ele>646.83</ele>
        <time>2022-08-16T15:06:19Z</time>
      </trkpt>
      <trkpt lat="45.55606" lon="2.54178">
        <ele>646.84</ele>
        <time>2022-08-16T15:06:20Z</time>
      </trkpt>
      <trkpt lat="45.55603" lon="2.54189">
        <ele>646.04</ele>
        <time>2022-08-16T15:06:21Z</time>
      </trkpt>
      <trkpt lat="45.55598" lon="2.54199">
        <ele>646.04</ele>
        <time>2022-08-16T15:06:22Z</time>
      </trkpt>
      <trkpt lat="45.55592" lon="2.54209">
        <ele>646.03</ele>
        <time>2022-08-16T15:06:23Z</time>
      </trkpt>
      <trkpt lat="45.55586" lon="2.54219">
        <ele>645.1</ele>
        <time>2022-08-16T15:06:24Z</time>
      </trkpt>
      <trkpt lat="45.55544" lon="2.54277">
        <ele>642.39</ele>
        <time>2022-08-16T15:06:30Z</time>
      </trkpt>
      <trkpt lat="45.55521" lon="2.543">
        <ele>640.23</ele>
        <time>2022-08-16T15:06:33Z</time>
      </trkpt>
      <trkpt lat="45.55501" lon="2.54322">
        <ele>638.55</ele>
        <time>2022-08-16T15:06:36Z</time>
      </trkpt>
      <trkpt lat="45.55467" lon="2.54352">
        <ele>635.78</ele>
        <time>2022-08-16T15:06:41Z</time>
      </trkpt>
      <trkpt lat="45.55452" lon="2.54361">
        <ele>634.45</ele>
        <time>2022-08-16T15:06:43Z</time>
      </trkpt>
      <trkpt lat="45.55438" lon="2.54368">
        <ele>633.19</ele>
        <time>2022-08-16T15:06:45Z</time>
      </trkpt>
      <trkpt lat="45.55424" lon="2.54376">
        <ele>632.21</ele>
        <time>2022-08-16T15:06:47Z</time>
      </trkpt>
      <trkpt lat="45.55417" lon="2.54381">
        <ele>631.17</ele>
        <time>2022-08-16T15:06:48Z</time>
      </trkpt>
      <trkpt lat="45.55411" lon="2.54388">
        <ele>631.06</ele>
        <time>2022-08-16T15:06:49Z</time>
      </trkpt>
      <trkpt lat="45.55406" lon="2.54395">
        <ele>630.04</ele>
        <time>2022-08-16T15:06:50Z</time>
      </trkpt>
      <trkpt lat="45.55401" lon="2.54403">
        <ele>630.08</ele>
        <time>2022-08-16T15:06:51Z</time>
      </trkpt>
      <trkpt lat="45.55398" lon="2.54411">
        <ele>628.73</ele>
        <time>2022-08-16T15:06:52Z</time>
      </trkpt>
      <trkpt lat="45.55396" lon="2.5442">
        <ele>628.73</ele>
        <time>2022-08-16T15:06:53Z</time>
      </trkpt>
      <trkpt lat="45.55395" lon="2.54429">
        <ele>628.66</ele>
        <time>2022-08-16T15:06:54Z</time>
      </trkpt>
      <trkpt lat="45.55396" lon="2.54437">
        <ele>628.68</ele>
        <time>2022-08-16T15:06:55Z</time>
      </trkpt>
      <trkpt lat="45.55395" lon="2.54447">
        <ele>627.61</ele>
        <time>2022-08-16T15:06:56Z</time>
      </trkpt>
      <trkpt lat="45.55394" lon="2.54465">
        <ele>627.59</ele>
        <time>2022-08-16T15:06:58Z</time>
      </trkpt>
      <trkpt lat="45.55396" lon="2.54548">
        <ele>624.3</ele>
        <time>2022-08-16T15:07:09Z</time>
      </trkpt>
      <trkpt lat="45.55399" lon="2.54557">
        <ele>623.35</ele>
        <time>2022-08-16T15:07:11Z</time>
      </trkpt>
      <trkpt lat="45.554" lon="2.54565">
        <ele>622.51</ele>
        <time>2022-08-16T15:07:14Z</time>
      </trkpt>
      <trkpt lat="45.554" lon="2.54567">
        <ele>622.51</ele>
        <time>2022-08-16T15:07:15Z</time>
      </trkpt>
      <trkpt lat="45.55398" lon="2.54569">
        <ele>622.52</ele>
        <time>2022-08-16T15:07:16Z</time>
      </trkpt>
      <trkpt lat="45.55395" lon="2.54569">
        <ele>622.51</ele>
        <time>2022-08-16T15:07:17Z</time>
      </trkpt>
      <trkpt lat="45.55391" lon="2.54569">
        <ele>622.52</ele>
        <time>2022-08-16T15:07:18Z</time>
      </trkpt>
      <trkpt lat="45.55386" lon="2.5457">
        <ele>622.52</ele>
        <time>2022-08-16T15:07:19Z</time>
      </trkpt>
      <trkpt lat="45.55379" lon="2.54569">
        <ele>622.52</ele>
        <time>2022-08-16T15:07:20Z</time>
      </trkpt>
      <trkpt lat="45.55374" lon="2.54569">
        <ele>622.51</ele>
        <time>2022-08-16T15:07:21Z</time>
      </trkpt>
      <trkpt lat="45.55367" lon="2.54567">
        <ele>622.57</ele>
        <time>2022-08-16T15:07:22Z</time>
      </trkpt>
      <trkpt lat="45.55361" lon="2.54562">
        <ele>622.55</ele>
        <time>2022-08-16T15:07:23Z</time>
      </trkpt>
      <trkpt lat="45.55354" lon="2.54557">
        <ele>621.56</ele>
        <time>2022-08-16T15:07:24Z</time>
      </trkpt>
      <trkpt lat="45.55349" lon="2.54551">
        <ele>621.69</ele>
        <time>2022-08-16T15:07:25Z</time>
      </trkpt>
      <trkpt lat="45.55344" lon="2.54544">
        <ele>621.57</ele>
        <time>2022-08-16T15:07:26Z</time>
      </trkpt>
      <trkpt lat="45.55339" lon="2.54536">
        <ele>620.08</ele>
        <time>2022-08-16T15:07:27Z</time>
      </trkpt>
      <trkpt lat="45.55335" lon="2.54529">
        <ele>620.1</ele>
        <time>2022-08-16T15:07:28Z</time>
      </trkpt>
      <trkpt lat="45.55279" lon="2.5445">
        <ele>617.53</ele>
        <time>2022-08-16T15:07:39Z</time>
      </trkpt>
      <trkpt lat="45.55264" lon="2.54433">
        <ele>617.49</ele>
        <time>2022-08-16T15:07:41Z</time>
      </trkpt>
      <trkpt lat="45.55258" lon="2.54423">
        <ele>616.02</ele>
        <time>2022-08-16T15:07:42Z</time>
      </trkpt>
      <trkpt lat="45.55253" lon="2.54413">
        <ele>616.01</ele>
        <time>2022-08-16T15:07:43Z</time>
      </trkpt>
      <trkpt lat="45.55229" lon="2.54365">
        <ele>613.95</ele>
        <time>2022-08-16T15:07:48Z</time>
      </trkpt>
      <trkpt lat="45.55222" lon="2.54358">
        <ele>613.91</ele>
        <time>2022-08-16T15:07:49Z</time>
      </trkpt>
      <trkpt lat="45.55213" lon="2.54355">
        <ele>612.98</ele>
        <time>2022-08-16T15:07:50Z</time>
      </trkpt>
      <trkpt lat="45.55204" lon="2.54354">
        <ele>612.28</ele>
        <time>2022-08-16T15:07:51Z</time>
      </trkpt>
      <trkpt lat="45.55194" lon="2.54357">
        <ele>612.25</ele>
        <time>2022-08-16T15:07:52Z</time>
      </trkpt>
      <trkpt lat="45.55186" lon="2.54361">
        <ele>611.33</ele>
        <time>2022-08-16T15:07:53Z</time>
      </trkpt>
      <trkpt lat="45.55171" lon="2.54372">
        <ele>611.3</ele>
        <time>2022-08-16T15:07:55Z</time>
      </trkpt>
      <trkpt lat="45.55164" lon="2.54378">
        <ele>610.4</ele>
        <time>2022-08-16T15:07:56Z</time>
      </trkpt>
      <trkpt lat="45.55157" lon="2.54382">
        <ele>609.61</ele>
        <time>2022-08-16T15:07:57Z</time>
      </trkpt>
      <trkpt lat="45.55149" lon="2.54383">
        <ele>609.66</ele>
        <time>2022-08-16T15:07:58Z</time>
      </trkpt>
      <trkpt lat="45.5514" lon="2.54384">
        <ele>608.74</ele>
        <time>2022-08-16T15:07:59Z</time>
      </trkpt>
      <trkpt lat="45.55131" lon="2.54382">
        <ele>608.8</ele>
        <time>2022-08-16T15:08:00Z</time>
      </trkpt>
      <trkpt lat="45.55121" lon="2.54378">
        <ele>608.79</ele>
        <time>2022-08-16T15:08:01Z</time>
      </trkpt>
      <trkpt lat="45.5511" lon="2.54373">
        <ele>608.8</ele>
        <time>2022-08-16T15:08:02Z</time>
      </trkpt>
      <trkpt lat="45.5509" lon="2.54361">
        <ele>607.51</ele>
        <time>2022-08-16T15:08:04Z</time>
      </trkpt>
      <trkpt lat="45.55081" lon="2.54354">
        <ele>607.5</ele>
        <time>2022-08-16T15:08:05Z</time>
      </trkpt>
      <trkpt lat="45.55053" lon="2.54333">
        <ele>605.45</ele>
        <time>2022-08-16T15:08:08Z</time>
      </trkpt>
      <trkpt lat="45.54973" lon="2.54283">
        <ele>601.81</ele>
        <time>2022-08-16T15:08:15Z</time>
      </trkpt>
      <trkpt lat="45.54964" lon="2.54276">
        <ele>601.82</ele>
        <time>2022-08-16T15:08:16Z</time>
      </trkpt>
      <trkpt lat="45.54948" lon="2.54259">
        <ele>599.96</ele>
        <time>2022-08-16T15:08:18Z</time>
      </trkpt>
      <trkpt lat="45.54942" lon="2.54248">
        <ele>599.92</ele>
        <time>2022-08-16T15:08:19Z</time>
      </trkpt>
      <trkpt lat="45.54938" lon="2.54236">
        <ele>598.75</ele>
        <time>2022-08-16T15:08:20Z</time>
      </trkpt>
      <trkpt lat="45.54936" lon="2.54224">
        <ele>598.7</ele>
        <time>2022-08-16T15:08:21Z</time>
      </trkpt>
      <trkpt lat="45.54933" lon="2.54212">
        <ele>598.77</ele>
        <time>2022-08-16T15:08:22Z</time>
      </trkpt>
      <trkpt lat="45.54929" lon="2.54202">
        <ele>597.75</ele>
        <time>2022-08-16T15:08:23Z</time>
      </trkpt>
      <trkpt lat="45.54922" lon="2.54194">
        <ele>597.65</ele>
        <time>2022-08-16T15:08:24Z</time>
      </trkpt>
      <trkpt lat="45.54913" lon="2.54188">
        <ele>597.74</ele>
        <time>2022-08-16T15:08:25Z</time>
      </trkpt>
      <trkpt lat="45.54903" lon="2.54185">
        <ele>597.71</ele>
        <time>2022-08-16T15:08:26Z</time>
      </trkpt>
      <trkpt lat="45.54891" lon="2.54183">
        <ele>597.68</ele>
        <time>2022-08-16T15:08:27Z</time>
      </trkpt>
      <trkpt lat="45.54879" lon="2.5418">
        <ele>597.72</ele>
        <time>2022-08-16T15:08:28Z</time>
      </trkpt>
      <trkpt lat="45.54855" lon="2.54176">
        <ele>596.46</ele>
        <time>2022-08-16T15:08:30Z</time>
      </trkpt>
      <trkpt lat="45.5481" lon="2.54163">
        <ele>593.83</ele>
        <time>2022-08-16T15:08:34Z</time>
      </trkpt>
      <trkpt lat="45.54799" lon="2.54157">
        <ele>593.83</ele>
        <time>2022-08-16T15:08:35Z</time>
      </trkpt>
      <trkpt lat="45.5479" lon="2.54154">
        <ele>592.81</ele>
        <time>2022-08-16T15:08:36Z</time>
      </trkpt>
      <trkpt lat="45.5478" lon="2.54152">
        <ele>592.76</ele>
        <time>2022-08-16T15:08:37Z</time>
      </trkpt>
      <trkpt lat="45.54771" lon="2.54151">
        <ele>591.81</ele>
        <time>2022-08-16T15:08:38Z</time>
      </trkpt>
      <trkpt lat="45.5476" lon="2.54152">
        <ele>591.78</ele>
        <time>2022-08-16T15:08:39Z</time>
      </trkpt>
      <trkpt lat="45.54749" lon="2.54152">
        <ele>590.74</ele>
        <time>2022-08-16T15:08:40Z</time>
      </trkpt>
      <trkpt lat="45.54738" lon="2.54154">
        <ele>591.2</ele>
        <time>2022-08-16T15:08:41Z</time>
      </trkpt>
      <trkpt lat="45.54682" lon="2.54166">
        <ele>588.82</ele>
        <time>2022-08-16T15:08:46Z</time>
      </trkpt>
      <trkpt lat="45.54642" lon="2.54169">
        <ele>586.9</ele>
        <time>2022-08-16T15:08:50Z</time>
      </trkpt>
      <trkpt lat="45.54634" lon="2.54168">
        <ele>586.89</ele>
        <time>2022-08-16T15:08:51Z</time>
      </trkpt>
      <trkpt lat="45.54626" lon="2.54164">
        <ele>586.9</ele>
        <time>2022-08-16T15:08:52Z</time>
      </trkpt>
      <trkpt lat="45.54619" lon="2.54159">
        <ele>585.98</ele>
        <time>2022-08-16T15:08:53Z</time>
      </trkpt>
      <trkpt lat="45.54613" lon="2.54154">
        <ele>586.04</ele>
        <time>2022-08-16T15:08:54Z</time>
      </trkpt>
      <trkpt lat="45.54608" lon="2.54149">
        <ele>586.02</ele>
        <time>2022-08-16T15:08:55Z</time>
      </trkpt>
      <trkpt lat="45.54597" lon="2.5414">
        <ele>585.98</ele>
        <time>2022-08-16T15:08:57Z</time>
      </trkpt>
      <trkpt lat="45.54592" lon="2.54137">
        <ele>584.55</ele>
        <time>2022-08-16T15:08:58Z</time>
      </trkpt>
      <trkpt lat="45.54587" lon="2.54134">
        <ele>584.53</ele>
        <time>2022-08-16T15:08:59Z</time>
      </trkpt>
      <trkpt lat="45.54564" lon="2.54123">
        <ele>583.66</ele>
        <time>2022-08-16T15:09:05Z</time>
      </trkpt>
      <trkpt lat="45.54563" lon="2.54126">
        <ele>583.92</ele>
        <time>2022-08-16T15:09:06Z</time>
      </trkpt>
      <trkpt lat="45.54563" lon="2.54129">
        <ele>583.92</ele>
        <time>2022-08-16T15:09:07Z</time>
      </trkpt>
      <trkpt lat="45.54564" lon="2.54132">
        <ele>583.93</ele>
        <time>2022-08-16T15:09:08Z</time>
      </trkpt>
      <trkpt lat="45.54565" lon="2.54135">
        <ele>583.9</ele>
        <time>2022-08-16T15:09:09Z</time>
      </trkpt>
      <trkpt lat="45.54568" lon="2.5414">
        <ele>583.93</ele>
        <time>2022-08-16T15:09:10Z</time>
      </trkpt>
      <trkpt lat="45.5458" lon="2.5416">
        <ele>583.18</ele>
        <time>2022-08-16T15:09:14Z</time>
      </trkpt>
      <trkpt lat="45.54583" lon="2.54164">
        <ele>583.18</ele>
        <time>2022-08-16T15:09:15Z</time>
      </trkpt>
      <trkpt lat="45.54589" lon="2.54173">
        <ele>582.34</ele>
        <time>2022-08-16T15:09:17Z</time>
      </trkpt>
      <trkpt lat="45.54593" lon="2.54178">
        <ele>582.35</ele>
        <time>2022-08-16T15:09:18Z</time>
      </trkpt>
      <trkpt lat="45.54597" lon="2.54181">
        <ele>582.34</ele>
        <time>2022-08-16T15:09:19Z</time>
      </trkpt>
      <trkpt lat="45.54601" lon="2.54183">
        <ele>582.35</ele>
        <time>2022-08-16T15:09:20Z</time>
      </trkpt>
      <trkpt lat="45.54606" lon="2.54184">
        <ele>582.36</ele>
        <time>2022-08-16T15:09:21Z</time>
      </trkpt>
      <trkpt lat="45.54683" lon="2.54209">
        <ele>578.26</ele>
        <time>2022-08-16T15:09:31Z</time>
      </trkpt>
      <trkpt lat="45.54701" lon="2.54214">
        <ele>577.4</ele>
        <time>2022-08-16T15:09:33Z</time>
      </trkpt>
      <trkpt lat="45.54724" lon="2.54223">
        <ele>574.16</ele>
        <time>2022-08-16T15:09:36Z</time>
      </trkpt>
      <trkpt lat="45.5473" lon="2.54225">
        <ele>574.15</ele>
        <time>2022-08-16T15:09:37Z</time>
      </trkpt>
      <trkpt lat="45.54746" lon="2.54231">
        <ele>572.31</ele>
        <time>2022-08-16T15:09:40Z</time>
      </trkpt>
      <trkpt lat="45.54771" lon="2.54237">
        <ele>570.38</ele>
        <time>2022-08-16T15:09:45Z</time>
      </trkpt>
      <trkpt lat="45.54816" lon="2.54244">
        <ele>573.54</ele>
        <time>2022-08-16T15:09:52Z</time>
      </trkpt>
      <trkpt lat="45.54824" lon="2.54245">
        <ele>573.66</ele>
        <time>2022-08-16T15:09:53Z</time>
      </trkpt>
      <trkpt lat="45.54836" lon="2.54246">
        <ele>575.12</ele>
        <time>2022-08-16T15:09:55Z</time>
      </trkpt>
      <trkpt lat="45.54861" lon="2.54247">
        <ele>575.99</ele>
        <time>2022-08-16T15:10:00Z</time>
      </trkpt>
      <trkpt lat="45.54868" lon="2.5425">
        <ele>576.79</ele>
        <time>2022-08-16T15:10:02Z</time>
      </trkpt>
      <trkpt lat="45.54896" lon="2.5429">
        <ele>577.88</ele>
        <time>2022-08-16T15:10:10Z</time>
      </trkpt>
      <trkpt lat="45.54904" lon="2.54301">
        <ele>577.86</ele>
        <time>2022-08-16T15:10:12Z</time>
      </trkpt>
      <trkpt lat="45.54924" lon="2.54322">
        <ele>578.78</ele>
        <time>2022-08-16T15:10:16Z</time>
      </trkpt>
      <trkpt lat="45.54954" lon="2.54355">
        <ele>579.91</ele>
        <time>2022-08-16T15:10:22Z</time>
      </trkpt>
      <trkpt lat="45.54985" lon="2.54382">
        <ele>580.73</ele>
        <time>2022-08-16T15:10:30Z</time>
      </trkpt>
      <trkpt lat="45.54999" lon="2.54389">
        <ele>582.27</ele>
        <time>2022-08-16T15:10:32Z</time>
      </trkpt>
      <trkpt lat="45.55029" lon="2.54397">
        <ele>585.38</ele>
        <time>2022-08-16T15:10:38Z</time>
      </trkpt>
      <trkpt lat="45.55036" lon="2.54397">
        <ele>586.61</ele>
        <time>2022-08-16T15:10:40Z</time>
      </trkpt>
      <trkpt lat="45.55054" lon="2.54402">
        <ele>588.23</ele>
        <time>2022-08-16T15:10:44Z</time>
      </trkpt>
      <trkpt lat="45.55058" lon="2.54403">
        <ele>589.21</ele>
        <time>2022-08-16T15:10:45Z</time>
      </trkpt>
      <trkpt lat="45.5509" lon="2.54416">
        <ele>590.12</ele>
        <time>2022-08-16T15:10:50Z</time>
      </trkpt>
      <trkpt lat="45.55111" lon="2.5442">
        <ele>590.76</ele>
        <time>2022-08-16T15:10:53Z</time>
      </trkpt>
      <trkpt lat="45.5513" lon="2.54425">
        <ele>592.16</ele>
        <time>2022-08-16T15:10:56Z</time>
      </trkpt>
      <trkpt lat="45.55158" lon="2.54432">
        <ele>594.11</ele>
        <time>2022-08-16T15:11:00Z</time>
      </trkpt>
      <trkpt lat="45.55184" lon="2.54444">
        <ele>596.05</ele>
        <time>2022-08-16T15:11:04Z</time>
      </trkpt>
      <trkpt lat="45.55207" lon="2.54459">
        <ele>598.67</ele>
        <time>2022-08-16T15:11:08Z</time>
      </trkpt>
      <trkpt lat="45.55224" lon="2.54466">
        <ele>600.08</ele>
        <time>2022-08-16T15:11:11Z</time>
      </trkpt>
      <trkpt lat="45.55235" lon="2.5447">
        <ele>601.04</ele>
        <time>2022-08-16T15:11:13Z</time>
      </trkpt>
      <trkpt lat="45.5525" lon="2.54479">
        <ele>603</ele>
        <time>2022-08-16T15:11:15Z</time>
      </trkpt>
      <trkpt lat="45.55268" lon="2.54497">
        <ele>604.23</ele>
        <time>2022-08-16T15:11:18Z</time>
      </trkpt>
      <trkpt lat="45.5528" lon="2.54512">
        <ele>606.53</ele>
        <time>2022-08-16T15:11:20Z</time>
      </trkpt>
      <trkpt lat="45.55292" lon="2.54525">
        <ele>607.42</ele>
        <time>2022-08-16T15:11:22Z</time>
      </trkpt>
      <trkpt lat="45.55302" lon="2.54537">
        <ele>610.1</ele>
        <time>2022-08-16T15:11:24Z</time>
      </trkpt>
      <trkpt lat="45.55308" lon="2.54542">
        <ele>610.97</ele>
        <time>2022-08-16T15:11:25Z</time>
      </trkpt>
      <trkpt lat="45.5533" lon="2.5455">
        <ele>613.61</ele>
        <time>2022-08-16T15:11:28Z</time>
      </trkpt>
      <trkpt lat="45.55352" lon="2.54558">
        <ele>616.11</ele>
        <time>2022-08-16T15:11:32Z</time>
      </trkpt>
      <trkpt lat="45.55356" lon="2.54567">
        <ele>615.83</ele>
        <time>2022-08-16T15:11:42Z</time>
      </trkpt>
      <trkpt lat="45.55359" lon="2.5456">
        <ele>615.56</ele>
        <time>2022-08-16T15:11:49Z</time>
      </trkpt>
      <trkpt lat="45.55359" lon="2.54557">
        <ele>615.38</ele>
        <time>2022-08-16T15:11:55Z</time>
      </trkpt>
      <trkpt lat="45.5535" lon="2.54548">
        <ele>615.13</ele>
        <time>2022-08-16T15:12:07Z</time>
      </trkpt>
      <trkpt lat="45.55347" lon="2.54547">
        <ele>615.06</ele>
        <time>2022-08-16T15:12:10Z</time>
      </trkpt>
      <trkpt lat="45.55345" lon="2.54549">
        <ele>615.04</ele>
        <time>2022-08-16T15:12:11Z</time>
      </trkpt>
      <trkpt lat="45.55343" lon="2.54551">
        <ele>612.63</ele>
        <time>2022-08-16T15:12:12Z</time>
      </trkpt>
      <trkpt lat="45.55341" lon="2.54552">
        <ele>612.59</ele>
        <time>2022-08-16T15:12:13Z</time>
      </trkpt>
      <trkpt lat="45.55338" lon="2.54551">
        <ele>611.05</ele>
        <time>2022-08-16T15:12:14Z</time>
      </trkpt>
      <trkpt lat="45.55335" lon="2.54549">
        <ele>611.02</ele>
        <time>2022-08-16T15:12:15Z</time>
      </trkpt>
      <trkpt lat="45.55315" lon="2.54532">
        <ele>607.99</ele>
        <time>2022-08-16T15:12:22Z</time>
      </trkpt>
      <trkpt lat="45.553" lon="2.54519">
        <ele>605.8</ele>
        <time>2022-08-16T15:12:26Z</time>
      </trkpt>
      <trkpt lat="45.5529" lon="2.54511">
        <ele>604.36</ele>
        <time>2022-08-16T15:12:29Z</time>
      </trkpt>
      <trkpt lat="45.55281" lon="2.54503">
        <ele>602.75</ele>
        <time>2022-08-16T15:12:32Z</time>
      </trkpt>
      <trkpt lat="45.55277" lon="2.54497">
        <ele>600.74</ele>
        <time>2022-08-16T15:12:41Z</time>
      </trkpt>
      <trkpt lat="45.55275" lon="2.54499">
        <ele>602.29</ele>
        <time>2022-08-16T15:12:51Z</time>
      </trkpt>
      <trkpt lat="45.55275" lon="2.54509">
        <ele>602.32</ele>
        <time>2022-08-16T15:13:17Z</time>
      </trkpt>
      <trkpt lat="45.55265" lon="2.545">
        <ele>602.45</ele>
        <time>2022-08-16T15:13:51Z</time>
      </trkpt>
      <trkpt lat="45.55264" lon="2.54501">
        <ele>602.6</ele>
        <time>2022-08-16T15:14:17Z</time>
      </trkpt>
      <trkpt lat="45.55261" lon="2.54495">
        <ele>602.83</ele>
        <time>2022-08-16T15:14:47Z</time>
      </trkpt>
      <trkpt lat="45.55261" lon="2.54493">
        <ele>603.27</ele>
        <time>2022-08-16T15:15:34Z</time>
      </trkpt>
      <trkpt lat="45.55262" lon="2.54492">
        <ele>603.8</ele>
        <time>2022-08-16T15:16:25Z</time>
      </trkpt>
      <trkpt lat="45.55262" lon="2.54493">
        <ele>604.3</ele>
        <time>2022-08-16T15:17:09Z</time>
      </trkpt>
      <trkpt lat="45.55262" lon="2.54499">
        <ele>602.4</ele>
        <time>2022-08-16T15:17:46Z</time>
      </trkpt>
      <trkpt lat="45.55261" lon="2.54498">
        <ele>602.41</ele>
        <time>2022-08-16T15:17:47Z</time>
      </trkpt>
      <trkpt lat="45.55259" lon="2.54497">
        <ele>602.41</ele>
        <time>2022-08-16T15:17:48Z</time>
      </trkpt>
      <trkpt lat="45.5525" lon="2.54491">
        <ele>600.78</ele>
        <time>2022-08-16T15:17:52Z</time>
      </trkpt>
      <trkpt lat="45.55245" lon="2.54488">
        <ele>599.8</ele>
        <time>2022-08-16T15:17:54Z</time>
      </trkpt>
      <trkpt lat="45.55241" lon="2.54486">
        <ele>599.78</ele>
        <time>2022-08-16T15:17:55Z</time>
      </trkpt>
      <trkpt lat="45.55237" lon="2.54484">
        <ele>598.87</ele>
        <time>2022-08-16T15:17:56Z</time>
      </trkpt>
      <trkpt lat="45.55228" lon="2.54479">
        <ele>598.05</ele>
        <time>2022-08-16T15:17:58Z</time>
      </trkpt>
      <trkpt lat="45.55218" lon="2.54476">
        <ele>596.92</ele>
        <time>2022-08-16T15:18:02Z</time>
      </trkpt>
      <trkpt lat="45.55212" lon="2.54476">
        <ele>594.92</ele>
        <time>2022-08-16T15:18:04Z</time>
      </trkpt>
      <trkpt lat="45.55202" lon="2.54473">
        <ele>594.44</ele>
        <time>2022-08-16T15:18:07Z</time>
      </trkpt>
      <trkpt lat="45.55174" lon="2.54463">
        <ele>591.87</ele>
        <time>2022-08-16T15:18:13Z</time>
      </trkpt>
      <trkpt lat="45.55165" lon="2.54459">
        <ele>591.82</ele>
        <time>2022-08-16T15:18:15Z</time>
      </trkpt>
      <trkpt lat="45.55149" lon="2.54453">
        <ele>590.56</ele>
        <time>2022-08-16T15:18:18Z</time>
      </trkpt>
      <trkpt lat="45.55104" lon="2.54419">
        <ele>587.05</ele>
        <time>2022-08-16T15:18:28Z</time>
      </trkpt>
      <trkpt lat="45.55089" lon="2.54406">
        <ele>587.18</ele>
        <time>2022-08-16T15:18:33Z</time>
      </trkpt>
      <trkpt lat="45.55087" lon="2.54405">
        <ele>585.96</ele>
        <time>2022-08-16T15:18:35Z</time>
      </trkpt>
      <trkpt lat="45.55074" lon="2.54386">
        <ele>583.99</ele>
        <time>2022-08-16T15:19:08Z</time>
      </trkpt>
      <trkpt lat="45.55072" lon="2.54382">
        <ele>583.62</ele>
        <time>2022-08-16T15:19:21Z</time>
      </trkpt>
      <trkpt lat="45.55064" lon="2.54382">
        <ele>583.42</ele>
        <time>2022-08-16T15:19:25Z</time>
      </trkpt>
      <trkpt lat="45.55046" lon="2.54374">
        <ele>580.19</ele>
        <time>2022-08-16T15:19:30Z</time>
      </trkpt>
      <trkpt lat="45.55042" lon="2.54373">
        <ele>580.19</ele>
        <time>2022-08-16T15:19:31Z</time>
      </trkpt>
      <trkpt lat="45.55034" lon="2.54371">
        <ele>578.56</ele>
        <time>2022-08-16T15:19:33Z</time>
      </trkpt>
      <trkpt lat="45.55026" lon="2.5437">
        <ele>577.45</ele>
        <time>2022-08-16T15:19:35Z</time>
      </trkpt>
      <trkpt lat="45.55006" lon="2.54365">
        <ele>575.11</ele>
        <time>2022-08-16T15:19:40Z</time>
      </trkpt>
      <trkpt lat="45.54997" lon="2.54359">
        <ele>575.07</ele>
        <time>2022-08-16T15:19:42Z</time>
      </trkpt>
      <trkpt lat="45.54969" lon="2.54341">
        <ele>573.91</ele>
        <time>2022-08-16T15:19:46Z</time>
      </trkpt>
      <trkpt lat="45.5495" lon="2.54326">
        <ele>572.68</ele>
        <time>2022-08-16T15:19:49Z</time>
      </trkpt>
      <trkpt lat="45.54927" lon="2.54299">
        <ele>572.06</ele>
        <time>2022-08-16T15:19:53Z</time>
      </trkpt>
      <trkpt lat="45.54911" lon="2.5427">
        <ele>571.13</ele>
        <time>2022-08-16T15:19:57Z</time>
      </trkpt>
      <trkpt lat="45.54897" lon="2.54258">
        <ele>569.86</ele>
        <time>2022-08-16T15:20:00Z</time>
      </trkpt>
      <trkpt lat="45.54885" lon="2.54253">
        <ele>569.76</ele>
        <time>2022-08-16T15:20:02Z</time>
      </trkpt>
      <trkpt lat="45.54847" lon="2.54249">
        <ele>566.37</ele>
        <time>2022-08-16T15:20:07Z</time>
      </trkpt>
      <trkpt lat="45.54834" lon="2.54247">
        <ele>565.5</ele>
        <time>2022-08-16T15:20:09Z</time>
      </trkpt>
      <trkpt lat="45.54822" lon="2.54242">
        <ele>564.57</ele>
        <time>2022-08-16T15:20:11Z</time>
      </trkpt>
      <trkpt lat="45.54809" lon="2.5424">
        <ele>563.64</ele>
        <time>2022-08-16T15:20:13Z</time>
      </trkpt>
      <trkpt lat="45.54785" lon="2.54243">
        <ele>562.91</ele>
        <time>2022-08-16T15:20:19Z</time>
      </trkpt>
      <trkpt lat="45.54756" lon="2.54289">
        <ele>562.73</ele>
        <time>2022-08-16T15:20:25Z</time>
      </trkpt>
      <trkpt lat="45.54745" lon="2.54292">
        <ele>562.69</ele>
        <time>2022-08-16T15:20:26Z</time>
      </trkpt>
      <trkpt lat="45.54733" lon="2.54294">
        <ele>562.67</ele>
        <time>2022-08-16T15:20:27Z</time>
      </trkpt>
      <trkpt lat="45.54721" lon="2.54295">
        <ele>562.65</ele>
        <time>2022-08-16T15:20:28Z</time>
      </trkpt>
      <trkpt lat="45.54649" lon="2.54295">
        <ele>558.66</ele>
        <time>2022-08-16T15:20:34Z</time>
      </trkpt>
      <trkpt lat="45.54637" lon="2.54291">
        <ele>558.62</ele>
        <time>2022-08-16T15:20:35Z</time>
      </trkpt>
      <trkpt lat="45.54626" lon="2.54286">
        <ele>557.47</ele>
        <time>2022-08-16T15:20:36Z</time>
      </trkpt>
      <trkpt lat="45.54613" lon="2.54279">
        <ele>557.39</ele>
        <time>2022-08-16T15:20:37Z</time>
      </trkpt>
      <trkpt lat="45.54552" lon="2.54244">
        <ele>553.49</ele>
        <time>2022-08-16T15:20:42Z</time>
      </trkpt>
      <trkpt lat="45.54501" lon="2.5422">
        <ele>550.88</ele>
        <time>2022-08-16T15:20:47Z</time>
      </trkpt>
      <trkpt lat="45.54492" lon="2.54221">
        <ele>549.87</ele>
        <time>2022-08-16T15:20:48Z</time>
      </trkpt>
      <trkpt lat="45.54481" lon="2.54225">
        <ele>548.35</ele>
        <time>2022-08-16T15:20:49Z</time>
      </trkpt>
      <trkpt lat="45.54474" lon="2.54235">
        <ele>547.23</ele>
        <time>2022-08-16T15:20:50Z</time>
      </trkpt>
      <trkpt lat="45.54468" lon="2.54248">
        <ele>547.15</ele>
        <time>2022-08-16T15:20:51Z</time>
      </trkpt>
      <trkpt lat="45.54465" lon="2.54262">
        <ele>545.57</ele>
        <time>2022-08-16T15:20:52Z</time>
      </trkpt>
      <trkpt lat="45.54462" lon="2.54275">
        <ele>545.51</ele>
        <time>2022-08-16T15:20:53Z</time>
      </trkpt>
      <trkpt lat="45.5446" lon="2.54288">
        <ele>543.9</ele>
        <time>2022-08-16T15:20:54Z</time>
      </trkpt>
      <trkpt lat="45.54455" lon="2.543">
        <ele>542.75</ele>
        <time>2022-08-16T15:20:55Z</time>
      </trkpt>
      <trkpt lat="45.54449" lon="2.5431">
        <ele>542.66</ele>
        <time>2022-08-16T15:20:56Z</time>
      </trkpt>
      <trkpt lat="45.54441" lon="2.54317">
        <ele>542.67</ele>
        <time>2022-08-16T15:20:57Z</time>
      </trkpt>
      <trkpt lat="45.54431" lon="2.54322">
        <ele>540.48</ele>
        <time>2022-08-16T15:20:58Z</time>
      </trkpt>
      <trkpt lat="45.54423" lon="2.54322">
        <ele>540.5</ele>
        <time>2022-08-16T15:20:59Z</time>
      </trkpt>
      <trkpt lat="45.54413" lon="2.5432">
        <ele>538.95</ele>
        <time>2022-08-16T15:21:00Z</time>
      </trkpt>
      <trkpt lat="45.54404" lon="2.54317">
        <ele>537.95</ele>
        <time>2022-08-16T15:21:01Z</time>
      </trkpt>
      <trkpt lat="45.54395" lon="2.54314">
        <ele>537.94</ele>
        <time>2022-08-16T15:21:02Z</time>
      </trkpt>
      <trkpt lat="45.54328" lon="2.54292">
        <ele>537.58</ele>
        <time>2022-08-16T15:21:11Z</time>
      </trkpt>
      <trkpt lat="45.54324" lon="2.54289">
        <ele>537.59</ele>
        <time>2022-08-16T15:21:12Z</time>
      </trkpt>
      <trkpt lat="45.5432" lon="2.54286">
        <ele>536.45</ele>
        <time>2022-08-16T15:21:13Z</time>
      </trkpt>
      <trkpt lat="45.54318" lon="2.54281">
        <ele>535.67</ele>
        <time>2022-08-16T15:21:14Z</time>
      </trkpt>
      <trkpt lat="45.54316" lon="2.54276">
        <ele>535.7</ele>
        <time>2022-08-16T15:21:15Z</time>
      </trkpt>
      <trkpt lat="45.54302" lon="2.54232">
        <ele>534.79</ele>
        <time>2022-08-16T15:21:25Z</time>
      </trkpt>
      <trkpt lat="45.54299" lon="2.54229">
        <ele>534.8</ele>
        <time>2022-08-16T15:21:26Z</time>
      </trkpt>
      <trkpt lat="45.54297" lon="2.54227">
        <ele>534.75</ele>
        <time>2022-08-16T15:21:27Z</time>
      </trkpt>
      <trkpt lat="45.54294" lon="2.54225">
        <ele>533.91</ele>
        <time>2022-08-16T15:21:28Z</time>
      </trkpt>
      <trkpt lat="45.54291" lon="2.54223">
        <ele>533.9</ele>
        <time>2022-08-16T15:21:29Z</time>
      </trkpt>
      <trkpt lat="45.54287" lon="2.54222">
        <ele>533.93</ele>
        <time>2022-08-16T15:21:30Z</time>
      </trkpt>
      <trkpt lat="45.54284" lon="2.54221">
        <ele>533.88</ele>
        <time>2022-08-16T15:21:31Z</time>
      </trkpt>
      <trkpt lat="45.54277" lon="2.54214">
        <ele>533.26</ele>
        <time>2022-08-16T15:21:34Z</time>
      </trkpt>
      <trkpt lat="45.54276" lon="2.5421">
        <ele>533.25</ele>
        <time>2022-08-16T15:21:35Z</time>
      </trkpt>
      <trkpt lat="45.54277" lon="2.54207">
        <ele>533.26</ele>
        <time>2022-08-16T15:21:36Z</time>
      </trkpt>
      <trkpt lat="45.54292" lon="2.54131">
        <ele>532.38</ele>
        <time>2022-08-16T15:21:52Z</time>
      </trkpt>
      <trkpt lat="45.54299" lon="2.54105">
        <ele>531.62</ele>
        <time>2022-08-16T15:21:58Z</time>
      </trkpt>
      <trkpt lat="45.54301" lon="2.54104">
        <ele>531.68</ele>
        <time>2022-08-16T15:21:59Z</time>
      </trkpt>
      <trkpt lat="45.54303" lon="2.54104">
        <ele>531.68</ele>
        <time>2022-08-16T15:22:00Z</time>
      </trkpt>
      <trkpt lat="45.54303" lon="2.54106">
        <ele>531.61</ele>
        <time>2022-08-16T15:22:01Z</time>
      </trkpt>
      <trkpt lat="45.54305" lon="2.54107">
        <ele>644.4</ele>
        <time>2022-08-16T15:22:14Z</time>
      </trkpt>
      <trkpt lat="45.54316" lon="2.54109">
        <ele>531.09</ele>
        <time>2022-08-16T17:08:49Z</time>
      </trkpt>
      <trkpt lat="45.54313" lon="2.5411">
        <ele>531.15</ele>
        <time>2022-08-16T17:08:55Z</time>
      </trkpt>
    </trkseg>
  </trk>
</gpx>